<?xml version="1.0" encoding="UTF-8" standalone="no" ?>
<gpx xmlns="http://www.topografix.com/GPX/1/1" xmlns:xsi="http://www.w3.org/2001/XMLSchema-instance" xsi:schemaLocation="http://www.topografix.com/GPX/1/1 http://www.topografix.com/GPX/1/1/gpx.xsd" version="1.1" creator="VisuGPX - https://www.visugpx.com">
  <metadata>
    <name>Sortie en semaine</name>
    <desc><![CDATA[Bon petit tour. Re découverte d\'un petit célibataire bien sympa à proximité du golf.]]></desc>
  </metadata>
  <wpt lat="47.49221" lon="6.76244">
    <ele>321</ele>
    <name><![CDATA[Point de cheminement 1]]></name>
    <desc><![CDATA[]]></desc>
  </wpt>
  <wpt lat="47.48129" lon="6.76661">
    <ele>313</ele>
    <name><![CDATA[Point de cheminement 2]]></name>
    <desc><![CDATA[]]></desc>
  </wpt>
  <wpt lat="47.46892" lon="6.74019">
    <ele>393</ele>
    <name><![CDATA[Point de cheminement 3]]></name>
    <desc><![CDATA[]]></desc>
  </wpt>
  <wpt lat="47.45983" lon="6.72043">
    <ele>435</ele>
    <name><![CDATA[Point de cheminement 4]]></name>
    <desc><![CDATA[]]></desc>
  </wpt>
  <wpt lat="47.44446" lon="6.72231">
    <ele>468</ele>
    <name><![CDATA[Point de cheminement 5]]></name>
    <desc><![CDATA[]]></desc>
  </wpt>
  <wpt lat="47.45132" lon="6.74261">
    <ele>400</ele>
    <name><![CDATA[Point de cheminement 6]]></name>
    <desc><![CDATA[]]></desc>
  </wpt>
  <wpt lat="47.4671" lon="6.74706">
    <ele>357</ele>
    <name><![CDATA[Point de cheminement 7]]></name>
    <desc><![CDATA[]]></desc>
  </wpt>
  <wpt lat="47.47736" lon="6.76174">
    <ele>308</ele>
    <name><![CDATA[Point de cheminement 8]]></name>
    <desc><![CDATA[]]></desc>
  </wpt>
  <wpt lat="47.49618" lon="6.76522">
    <ele>372</ele>
    <name><![CDATA[Point de cheminement 9]]></name>
    <desc><![CDATA[]]></desc>
  </wpt>
  <wpt lat="47.51805" lon="6.77475">
    <ele>388</ele>
    <name><![CDATA[Point de cheminement 10]]></name>
    <desc><![CDATA[]]></desc>
  </wpt>
  <trk>
    <name><![CDATA[Rue Antoine Coysevox]]></name>
    <desc><![CDATA[]]></desc>
    <trkseg>
      <trkpt lat="47.51809" lon="6.77449">
        <ele>387</ele>
        <time>2015-06-24T16:11:43.000Z</time>
      </trkpt>
      <trkpt lat="47.5181" lon="6.77449">
        <ele>387</ele>
        <time>2015-06-24T16:11:44.000Z</time>
      </trkpt>
      <trkpt lat="47.51813" lon="6.77455">
        <ele>387</ele>
        <time>2015-06-24T16:11:45.000Z</time>
      </trkpt>
      <trkpt lat="47.51816" lon="6.77467">
        <ele>387</ele>
        <time>2015-06-24T16:11:46.000Z</time>
      </trkpt>
      <trkpt lat="47.51817" lon="6.77465">
        <ele>387</ele>
        <time>2015-06-24T16:11:47.000Z</time>
      </trkpt>
      <trkpt lat="47.51824" lon="6.77472">
        <ele>387</ele>
        <time>2015-06-24T16:11:48.000Z</time>
      </trkpt>
      <trkpt lat="47.51818" lon="6.77463">
        <ele>387</ele>
        <time>2015-06-24T16:11:49.000Z</time>
      </trkpt>
      <trkpt lat="47.51817" lon="6.7746">
        <ele>387</ele>
        <time>2015-06-24T16:11:50.000Z</time>
      </trkpt>
      <trkpt lat="47.51814" lon="6.77456">
        <ele>387</ele>
        <time>2015-06-24T16:11:51.000Z</time>
      </trkpt>
      <trkpt lat="47.51811" lon="6.77455">
        <ele>387</ele>
        <time>2015-06-24T16:11:54.000Z</time>
      </trkpt>
      <trkpt lat="47.51809" lon="6.77457">
        <ele>387</ele>
        <time>2015-06-24T16:11:55.000Z</time>
      </trkpt>
      <trkpt lat="47.51806" lon="6.77468">
        <ele>388</ele>
        <time>2015-06-24T16:11:56.000Z</time>
      </trkpt>
      <trkpt lat="47.51806" lon="6.77471">
        <ele>388</ele>
        <time>2015-06-24T16:12:26.000Z</time>
      </trkpt>
      <trkpt lat="47.51806" lon="6.77474">
        <ele>388</ele>
        <time>2015-06-24T16:12:27.000Z</time>
      </trkpt>
      <trkpt lat="47.51808" lon="6.77476">
        <ele>388</ele>
        <time>2015-06-24T16:12:36.000Z</time>
      </trkpt>
      <trkpt lat="47.51809" lon="6.7748">
        <ele>388</ele>
        <time>2015-06-24T16:12:37.000Z</time>
      </trkpt>
      <trkpt lat="47.51811" lon="6.7748">
        <ele>388</ele>
        <time>2015-06-24T16:15:00.000Z</time>
      </trkpt>
      <trkpt lat="47.518" lon="6.77481">
        <ele>388</ele>
        <time>2015-06-24T16:15:01.000Z</time>
      </trkpt>
      <trkpt lat="47.51803" lon="6.77483">
        <ele>388</ele>
        <time>2015-06-24T16:15:03.000Z</time>
      </trkpt>
      <trkpt lat="47.51804" lon="6.77489">
        <ele>388</ele>
        <time>2015-06-24T16:15:04.000Z</time>
      </trkpt>
      <trkpt lat="47.51802" lon="6.77489">
        <ele>388</ele>
        <time>2015-06-24T16:15:05.000Z</time>
      </trkpt>
      <trkpt lat="47.51799" lon="6.77489">
        <ele>388</ele>
        <time>2015-06-24T16:15:06.000Z</time>
      </trkpt>
      <trkpt lat="47.51796" lon="6.77489">
        <ele>388</ele>
        <time>2015-06-24T16:15:07.000Z</time>
      </trkpt>
      <trkpt lat="47.51792" lon="6.7749">
        <ele>388</ele>
        <time>2015-06-24T16:15:08.000Z</time>
      </trkpt>
      <trkpt lat="47.51789" lon="6.7749">
        <ele>388</ele>
        <time>2015-06-24T16:15:09.000Z</time>
      </trkpt>
      <trkpt lat="47.51787" lon="6.7749">
        <ele>388</ele>
        <time>2015-06-24T16:15:10.000Z</time>
      </trkpt>
      <trkpt lat="47.51784" lon="6.77489">
        <ele>388</ele>
        <time>2015-06-24T16:15:11.000Z</time>
      </trkpt>
      <trkpt lat="47.51781" lon="6.77487">
        <ele>388</ele>
        <time>2015-06-24T16:15:12.000Z</time>
      </trkpt>
      <trkpt lat="47.51778" lon="6.77486">
        <ele>388</ele>
        <time>2015-06-24T16:15:13.000Z</time>
      </trkpt>
      <trkpt lat="47.51775" lon="6.77486">
        <ele>388</ele>
        <time>2015-06-24T16:15:14.000Z</time>
      </trkpt>
      <trkpt lat="47.51771" lon="6.77485">
        <ele>389</ele>
        <time>2015-06-24T16:15:15.000Z</time>
      </trkpt>
      <trkpt lat="47.51769" lon="6.77485">
        <ele>389</ele>
        <time>2015-06-24T16:15:16.000Z</time>
      </trkpt>
      <trkpt lat="47.51766" lon="6.77485">
        <ele>389</ele>
        <time>2015-06-24T16:15:17.000Z</time>
      </trkpt>
      <trkpt lat="47.51763" lon="6.77484">
        <ele>389</ele>
        <time>2015-06-24T16:15:18.000Z</time>
      </trkpt>
      <trkpt lat="47.51759" lon="6.77484">
        <ele>389</ele>
        <time>2015-06-24T16:15:19.000Z</time>
      </trkpt>
      <trkpt lat="47.51756" lon="6.77483">
        <ele>389</ele>
        <time>2015-06-24T16:15:20.000Z</time>
      </trkpt>
      <trkpt lat="47.51753" lon="6.77482">
        <ele>389</ele>
        <time>2015-06-24T16:15:21.000Z</time>
      </trkpt>
      <trkpt lat="47.5175" lon="6.77481">
        <ele>389</ele>
        <time>2015-06-24T16:15:22.000Z</time>
      </trkpt>
      <trkpt lat="47.51747" lon="6.77481">
        <ele>389</ele>
        <time>2015-06-24T16:15:23.000Z</time>
      </trkpt>
      <trkpt lat="47.51743" lon="6.77481">
        <ele>389</ele>
        <time>2015-06-24T16:15:24.000Z</time>
      </trkpt>
      <trkpt lat="47.51739" lon="6.77481">
        <ele>389</ele>
        <time>2015-06-24T16:15:25.000Z</time>
      </trkpt>
      <trkpt lat="47.51735" lon="6.77481">
        <ele>389</ele>
        <time>2015-06-24T16:15:26.000Z</time>
      </trkpt>
      <trkpt lat="47.51731" lon="6.77481">
        <ele>389</ele>
        <time>2015-06-24T16:15:27.000Z</time>
      </trkpt>
      <trkpt lat="47.51728" lon="6.77482">
        <ele>389</ele>
        <time>2015-06-24T16:15:28.000Z</time>
      </trkpt>
      <trkpt lat="47.51725" lon="6.77486">
        <ele>389</ele>
        <time>2015-06-24T16:15:29.000Z</time>
      </trkpt>
      <trkpt lat="47.51723" lon="6.7749">
        <ele>389</ele>
        <time>2015-06-24T16:15:30.000Z</time>
      </trkpt>
      <trkpt lat="47.51721" lon="6.77495">
        <ele>389</ele>
        <time>2015-06-24T16:15:31.000Z</time>
      </trkpt>
      <trkpt lat="47.51719" lon="6.775">
        <ele>389</ele>
        <time>2015-06-24T16:15:32.000Z</time>
      </trkpt>
      <trkpt lat="47.51717" lon="6.77505">
        <ele>390</ele>
        <time>2015-06-24T16:15:33.000Z</time>
      </trkpt>
      <trkpt lat="47.51716" lon="6.7751">
        <ele>390</ele>
        <time>2015-06-24T16:15:34.000Z</time>
      </trkpt>
      <trkpt lat="47.51715" lon="6.77516">
        <ele>390</ele>
        <time>2015-06-24T16:15:35.000Z</time>
      </trkpt>
      <trkpt lat="47.51714" lon="6.77521">
        <ele>390</ele>
        <time>2015-06-24T16:15:36.000Z</time>
      </trkpt>
      <trkpt lat="47.51713" lon="6.77526">
        <ele>390</ele>
        <time>2015-06-24T16:15:37.000Z</time>
      </trkpt>
      <trkpt lat="47.51712" lon="6.7753">
        <ele>390</ele>
        <time>2015-06-24T16:15:38.000Z</time>
      </trkpt>
      <trkpt lat="47.51711" lon="6.77536">
        <ele>390</ele>
        <time>2015-06-24T16:15:39.000Z</time>
      </trkpt>
      <trkpt lat="47.51709" lon="6.77541">
        <ele>390</ele>
        <time>2015-06-24T16:15:40.000Z</time>
      </trkpt>
      <trkpt lat="47.51707" lon="6.77545">
        <ele>390</ele>
        <time>2015-06-24T16:15:41.000Z</time>
      </trkpt>
      <trkpt lat="47.51704" lon="6.77549">
        <ele>390</ele>
        <time>2015-06-24T16:15:42.000Z</time>
      </trkpt>
      <trkpt lat="47.517" lon="6.77552">
        <ele>390</ele>
        <time>2015-06-24T16:15:43.000Z</time>
      </trkpt>
      <trkpt lat="47.51697" lon="6.77553">
        <ele>390</ele>
        <time>2015-06-24T16:15:44.000Z</time>
      </trkpt>
      <trkpt lat="47.51694" lon="6.77553">
        <ele>390</ele>
        <time>2015-06-24T16:15:45.000Z</time>
      </trkpt>
      <trkpt lat="47.5169" lon="6.7755">
        <ele>390</ele>
        <time>2015-06-24T16:15:46.000Z</time>
      </trkpt>
      <trkpt lat="47.51685" lon="6.77537">
        <ele>390</ele>
        <time>2015-06-24T16:15:47.000Z</time>
      </trkpt>
      <trkpt lat="47.51682" lon="6.77533">
        <ele>390</ele>
        <time>2015-06-24T16:15:48.000Z</time>
      </trkpt>
      <trkpt lat="47.51678" lon="6.77528">
        <ele>390</ele>
        <time>2015-06-24T16:15:49.000Z</time>
      </trkpt>
      <trkpt lat="47.51674" lon="6.77523">
        <ele>390</ele>
        <time>2015-06-24T16:15:50.000Z</time>
      </trkpt>
      <trkpt lat="47.5167" lon="6.77519">
        <ele>389</ele>
        <time>2015-06-24T16:15:51.000Z</time>
      </trkpt>
      <trkpt lat="47.51666" lon="6.77513">
        <ele>388</ele>
        <time>2015-06-24T16:15:52.000Z</time>
      </trkpt>
      <trkpt lat="47.51663" lon="6.77508">
        <ele>388</ele>
        <time>2015-06-24T16:15:53.000Z</time>
      </trkpt>
      <trkpt lat="47.5166" lon="6.77502">
        <ele>388</ele>
        <time>2015-06-24T16:15:54.000Z</time>
      </trkpt>
      <trkpt lat="47.51656" lon="6.77496">
        <ele>388</ele>
        <time>2015-06-24T16:15:55.000Z</time>
      </trkpt>
      <trkpt lat="47.51652" lon="6.7749">
        <ele>387</ele>
        <time>2015-06-24T16:15:56.000Z</time>
      </trkpt>
      <trkpt lat="47.5165" lon="6.77483">
        <ele>387</ele>
        <time>2015-06-24T16:15:57.000Z</time>
      </trkpt>
      <trkpt lat="47.51644" lon="6.77477">
        <ele>387</ele>
        <time>2015-06-24T16:15:58.000Z</time>
      </trkpt>
      <trkpt lat="47.51638" lon="6.7747">
        <ele>386</ele>
        <time>2015-06-24T16:15:59.000Z</time>
      </trkpt>
      <trkpt lat="47.51633" lon="6.77463">
        <ele>386</ele>
        <time>2015-06-24T16:16:00.000Z</time>
      </trkpt>
      <trkpt lat="47.51628" lon="6.77457">
        <ele>386</ele>
        <time>2015-06-24T16:16:01.000Z</time>
      </trkpt>
      <trkpt lat="47.51621" lon="6.7745">
        <ele>386</ele>
        <time>2015-06-24T16:16:02.000Z</time>
      </trkpt>
      <trkpt lat="47.51616" lon="6.77443">
        <ele>385</ele>
        <time>2015-06-24T16:16:03.000Z</time>
      </trkpt>
      <trkpt lat="47.51611" lon="6.77436">
        <ele>385</ele>
        <time>2015-06-24T16:16:04.000Z</time>
      </trkpt>
      <trkpt lat="47.51605" lon="6.77428">
        <ele>385</ele>
        <time>2015-06-24T16:16:05.000Z</time>
      </trkpt>
      <trkpt lat="47.51599" lon="6.77421">
        <ele>384</ele>
        <time>2015-06-24T16:16:06.000Z</time>
      </trkpt>
      <trkpt lat="47.51593" lon="6.77413">
        <ele>383</ele>
        <time>2015-06-24T16:16:07.000Z</time>
      </trkpt>
      <trkpt lat="47.51586" lon="6.77405">
        <ele>383</ele>
        <time>2015-06-24T16:16:08.000Z</time>
      </trkpt>
      <trkpt lat="47.5158" lon="6.77398">
        <ele>382</ele>
        <time>2015-06-24T16:16:09.000Z</time>
      </trkpt>
      <trkpt lat="47.51574" lon="6.77391">
        <ele>381</ele>
        <time>2015-06-24T16:16:10.000Z</time>
      </trkpt>
      <trkpt lat="47.51567" lon="6.77383">
        <ele>381</ele>
        <time>2015-06-24T16:16:11.000Z</time>
      </trkpt>
      <trkpt lat="47.51561" lon="6.77375">
        <ele>381</ele>
        <time>2015-06-24T16:16:12.000Z</time>
      </trkpt>
      <trkpt lat="47.51554" lon="6.77367">
        <ele>381</ele>
        <time>2015-06-24T16:16:13.000Z</time>
      </trkpt>
      <trkpt lat="47.51547" lon="6.77359">
        <ele>380</ele>
        <time>2015-06-24T16:16:14.000Z</time>
      </trkpt>
      <trkpt lat="47.51539" lon="6.77351">
        <ele>380</ele>
        <time>2015-06-24T16:16:15.000Z</time>
      </trkpt>
      <trkpt lat="47.51532" lon="6.77342">
        <ele>380</ele>
        <time>2015-06-24T16:16:16.000Z</time>
      </trkpt>
      <trkpt lat="47.51525" lon="6.77333">
        <ele>378</ele>
        <time>2015-06-24T16:16:17.000Z</time>
      </trkpt>
      <trkpt lat="47.51517" lon="6.77324">
        <ele>378</ele>
        <time>2015-06-24T16:16:18.000Z</time>
      </trkpt>
      <trkpt lat="47.5151" lon="6.77315">
        <ele>378</ele>
        <time>2015-06-24T16:16:19.000Z</time>
      </trkpt>
      <trkpt lat="47.51503" lon="6.77306">
        <ele>378</ele>
        <time>2015-06-24T16:16:20.000Z</time>
      </trkpt>
      <trkpt lat="47.51498" lon="6.77297">
        <ele>377</ele>
        <time>2015-06-24T16:16:21.000Z</time>
      </trkpt>
      <trkpt lat="47.51496" lon="6.77289">
        <ele>377</ele>
        <time>2015-06-24T16:16:22.000Z</time>
      </trkpt>
      <trkpt lat="47.51492" lon="6.77279">
        <ele>377</ele>
        <time>2015-06-24T16:16:23.000Z</time>
      </trkpt>
      <trkpt lat="47.51491" lon="6.77268">
        <ele>376</ele>
        <time>2015-06-24T16:16:24.000Z</time>
      </trkpt>
      <trkpt lat="47.5149" lon="6.77258">
        <ele>376</ele>
        <time>2015-06-24T16:16:25.000Z</time>
      </trkpt>
      <trkpt lat="47.5149" lon="6.77247">
        <ele>376</ele>
        <time>2015-06-24T16:16:26.000Z</time>
      </trkpt>
      <trkpt lat="47.51489" lon="6.77236">
        <ele>375</ele>
        <time>2015-06-24T16:16:27.000Z</time>
      </trkpt>
      <trkpt lat="47.51488" lon="6.77225">
        <ele>375</ele>
        <time>2015-06-24T16:16:28.000Z</time>
      </trkpt>
      <trkpt lat="47.51487" lon="6.77215">
        <ele>375</ele>
        <time>2015-06-24T16:16:29.000Z</time>
      </trkpt>
      <trkpt lat="47.51487" lon="6.77206">
        <ele>375</ele>
        <time>2015-06-24T16:16:30.000Z</time>
      </trkpt>
      <trkpt lat="47.51482" lon="6.77198">
        <ele>375</ele>
        <time>2015-06-24T16:16:31.000Z</time>
      </trkpt>
      <trkpt lat="47.51476" lon="6.77196">
        <ele>375</ele>
        <time>2015-06-24T16:16:32.000Z</time>
      </trkpt>
      <trkpt lat="47.51469" lon="6.77198">
        <ele>375</ele>
        <time>2015-06-24T16:16:33.000Z</time>
      </trkpt>
      <trkpt lat="47.51461" lon="6.77201">
        <ele>375</ele>
        <time>2015-06-24T16:16:34.000Z</time>
      </trkpt>
      <trkpt lat="47.51453" lon="6.77204">
        <ele>375</ele>
        <time>2015-06-24T16:16:35.000Z</time>
      </trkpt>
      <trkpt lat="47.51444" lon="6.77209">
        <ele>375</ele>
        <time>2015-06-24T16:16:36.000Z</time>
      </trkpt>
      <trkpt lat="47.51437" lon="6.77213">
        <ele>375</ele>
        <time>2015-06-24T16:16:37.000Z</time>
      </trkpt>
      <trkpt lat="47.51429" lon="6.77217">
        <ele>375</ele>
        <time>2015-06-24T16:16:38.000Z</time>
      </trkpt>
      <trkpt lat="47.51422" lon="6.7722">
        <ele>375</ele>
        <time>2015-06-24T16:16:39.000Z</time>
      </trkpt>
      <trkpt lat="47.51414" lon="6.77224">
        <ele>376</ele>
        <time>2015-06-24T16:16:40.000Z</time>
      </trkpt>
      <trkpt lat="47.51408" lon="6.77227">
        <ele>376</ele>
        <time>2015-06-24T16:16:41.000Z</time>
      </trkpt>
      <trkpt lat="47.51403" lon="6.77231">
        <ele>376</ele>
        <time>2015-06-24T16:16:42.000Z</time>
      </trkpt>
      <trkpt lat="47.51397" lon="6.77234">
        <ele>376</ele>
        <time>2015-06-24T16:16:43.000Z</time>
      </trkpt>
      <trkpt lat="47.51391" lon="6.77237">
        <ele>376</ele>
        <time>2015-06-24T16:16:44.000Z</time>
      </trkpt>
      <trkpt lat="47.51387" lon="6.7724">
        <ele>376</ele>
        <time>2015-06-24T16:16:45.000Z</time>
      </trkpt>
      <trkpt lat="47.51382" lon="6.77243">
        <ele>376</ele>
        <time>2015-06-24T16:16:46.000Z</time>
      </trkpt>
      <trkpt lat="47.51377" lon="6.77246">
        <ele>376</ele>
        <time>2015-06-24T16:16:47.000Z</time>
      </trkpt>
      <trkpt lat="47.51373" lon="6.77249">
        <ele>376</ele>
        <time>2015-06-24T16:16:48.000Z</time>
      </trkpt>
      <trkpt lat="47.5137" lon="6.77252">
        <ele>377</ele>
        <time>2015-06-24T16:16:49.000Z</time>
      </trkpt>
      <trkpt lat="47.51367" lon="6.77255">
        <ele>378</ele>
        <time>2015-06-24T16:16:50.000Z</time>
      </trkpt>
      <trkpt lat="47.51363" lon="6.77257">
        <ele>378</ele>
        <time>2015-06-24T16:16:51.000Z</time>
      </trkpt>
      <trkpt lat="47.5136" lon="6.7726">
        <ele>378</ele>
        <time>2015-06-24T16:16:52.000Z</time>
      </trkpt>
      <trkpt lat="47.51357" lon="6.77263">
        <ele>378</ele>
        <time>2015-06-24T16:16:53.000Z</time>
      </trkpt>
      <trkpt lat="47.51354" lon="6.77265">
        <ele>378</ele>
        <time>2015-06-24T16:16:54.000Z</time>
      </trkpt>
      <trkpt lat="47.51352" lon="6.77268">
        <ele>378</ele>
        <time>2015-06-24T16:16:55.000Z</time>
      </trkpt>
      <trkpt lat="47.51349" lon="6.77271">
        <ele>378</ele>
        <time>2015-06-24T16:16:56.000Z</time>
      </trkpt>
      <trkpt lat="47.51346" lon="6.77273">
        <ele>378</ele>
        <time>2015-06-24T16:16:57.000Z</time>
      </trkpt>
      <trkpt lat="47.51344" lon="6.77276">
        <ele>378</ele>
        <time>2015-06-24T16:16:58.000Z</time>
      </trkpt>
      <trkpt lat="47.51341" lon="6.77278">
        <ele>378</ele>
        <time>2015-06-24T16:16:59.000Z</time>
      </trkpt>
      <trkpt lat="47.51338" lon="6.7728">
        <ele>378</ele>
        <time>2015-06-24T16:17:00.000Z</time>
      </trkpt>
      <trkpt lat="47.51335" lon="6.77281">
        <ele>378</ele>
        <time>2015-06-24T16:17:01.000Z</time>
      </trkpt>
      <trkpt lat="47.51332" lon="6.77282">
        <ele>378</ele>
        <time>2015-06-24T16:17:02.000Z</time>
      </trkpt>
      <trkpt lat="47.51329" lon="6.77283">
        <ele>378</ele>
        <time>2015-06-24T16:17:03.000Z</time>
      </trkpt>
      <trkpt lat="47.51326" lon="6.77284">
        <ele>377</ele>
        <time>2015-06-24T16:17:04.000Z</time>
      </trkpt>
      <trkpt lat="47.51322" lon="6.77284">
        <ele>377</ele>
        <time>2015-06-24T16:17:05.000Z</time>
      </trkpt>
      <trkpt lat="47.51319" lon="6.77284">
        <ele>377</ele>
        <time>2015-06-24T16:17:06.000Z</time>
      </trkpt>
      <trkpt lat="47.51316" lon="6.77283">
        <ele>377</ele>
        <time>2015-06-24T16:17:07.000Z</time>
      </trkpt>
      <trkpt lat="47.51312" lon="6.77281">
        <ele>377</ele>
        <time>2015-06-24T16:17:08.000Z</time>
      </trkpt>
      <trkpt lat="47.51309" lon="6.7728">
        <ele>377</ele>
        <time>2015-06-24T16:17:09.000Z</time>
      </trkpt>
      <trkpt lat="47.51306" lon="6.77278">
        <ele>377</ele>
        <time>2015-06-24T16:17:10.000Z</time>
      </trkpt>
      <trkpt lat="47.51302" lon="6.77277">
        <ele>377</ele>
        <time>2015-06-24T16:17:11.000Z</time>
      </trkpt>
      <trkpt lat="47.51299" lon="6.77275">
        <ele>377</ele>
        <time>2015-06-24T16:17:12.000Z</time>
      </trkpt>
      <trkpt lat="47.51296" lon="6.77273">
        <ele>377</ele>
        <time>2015-06-24T16:17:13.000Z</time>
      </trkpt>
      <trkpt lat="47.51292" lon="6.77271">
        <ele>377</ele>
        <time>2015-06-24T16:17:14.000Z</time>
      </trkpt>
      <trkpt lat="47.51289" lon="6.77269">
        <ele>377</ele>
        <time>2015-06-24T16:17:15.000Z</time>
      </trkpt>
      <trkpt lat="47.51285" lon="6.77267">
        <ele>377</ele>
        <time>2015-06-24T16:17:16.000Z</time>
      </trkpt>
      <trkpt lat="47.51282" lon="6.77265">
        <ele>377</ele>
        <time>2015-06-24T16:17:17.000Z</time>
      </trkpt>
      <trkpt lat="47.51279" lon="6.77262">
        <ele>377</ele>
        <time>2015-06-24T16:17:18.000Z</time>
      </trkpt>
      <trkpt lat="47.51276" lon="6.7726">
        <ele>377</ele>
        <time>2015-06-24T16:17:19.000Z</time>
      </trkpt>
      <trkpt lat="47.51273" lon="6.77258">
        <ele>377</ele>
        <time>2015-06-24T16:17:20.000Z</time>
      </trkpt>
      <trkpt lat="47.5127" lon="6.77255">
        <ele>378</ele>
        <time>2015-06-24T16:17:21.000Z</time>
      </trkpt>
      <trkpt lat="47.51267" lon="6.77253">
        <ele>378</ele>
        <time>2015-06-24T16:17:22.000Z</time>
      </trkpt>
      <trkpt lat="47.51263" lon="6.77249">
        <ele>378</ele>
        <time>2015-06-24T16:17:23.000Z</time>
      </trkpt>
      <trkpt lat="47.5126" lon="6.77245">
        <ele>378</ele>
        <time>2015-06-24T16:17:24.000Z</time>
      </trkpt>
      <trkpt lat="47.51257" lon="6.77241">
        <ele>378</ele>
        <time>2015-06-24T16:17:25.000Z</time>
      </trkpt>
      <trkpt lat="47.51254" lon="6.77236">
        <ele>378</ele>
        <time>2015-06-24T16:17:26.000Z</time>
      </trkpt>
      <trkpt lat="47.51252" lon="6.77231">
        <ele>378</ele>
        <time>2015-06-24T16:17:27.000Z</time>
      </trkpt>
      <trkpt lat="47.51249" lon="6.77225">
        <ele>377</ele>
        <time>2015-06-24T16:17:28.000Z</time>
      </trkpt>
      <trkpt lat="47.51248" lon="6.77215">
        <ele>376</ele>
        <time>2015-06-24T16:17:29.000Z</time>
      </trkpt>
      <trkpt lat="47.51244" lon="6.77208">
        <ele>376</ele>
        <time>2015-06-24T16:17:30.000Z</time>
      </trkpt>
      <trkpt lat="47.51241" lon="6.77202">
        <ele>376</ele>
        <time>2015-06-24T16:17:31.000Z</time>
      </trkpt>
      <trkpt lat="47.51238" lon="6.77195">
        <ele>376</ele>
        <time>2015-06-24T16:17:32.000Z</time>
      </trkpt>
      <trkpt lat="47.51235" lon="6.77189">
        <ele>377</ele>
        <time>2015-06-24T16:17:33.000Z</time>
      </trkpt>
      <trkpt lat="47.51232" lon="6.77181">
        <ele>377</ele>
        <time>2015-06-24T16:17:34.000Z</time>
      </trkpt>
      <trkpt lat="47.51228" lon="6.77173">
        <ele>377</ele>
        <time>2015-06-24T16:17:35.000Z</time>
      </trkpt>
      <trkpt lat="47.51224" lon="6.77163">
        <ele>378</ele>
        <time>2015-06-24T16:17:36.000Z</time>
      </trkpt>
      <trkpt lat="47.51219" lon="6.77154">
        <ele>378</ele>
        <time>2015-06-24T16:17:37.000Z</time>
      </trkpt>
      <trkpt lat="47.51215" lon="6.77146">
        <ele>378</ele>
        <time>2015-06-24T16:17:38.000Z</time>
      </trkpt>
      <trkpt lat="47.5121" lon="6.77137">
        <ele>378</ele>
        <time>2015-06-24T16:17:39.000Z</time>
      </trkpt>
      <trkpt lat="47.51206" lon="6.77129">
        <ele>378</ele>
        <time>2015-06-24T16:17:40.000Z</time>
      </trkpt>
      <trkpt lat="47.51201" lon="6.7712">
        <ele>378</ele>
        <time>2015-06-24T16:17:41.000Z</time>
      </trkpt>
      <trkpt lat="47.51197" lon="6.7711">
        <ele>377</ele>
        <time>2015-06-24T16:17:42.000Z</time>
      </trkpt>
      <trkpt lat="47.5119" lon="6.77101">
        <ele>378</ele>
        <time>2015-06-24T16:17:43.000Z</time>
      </trkpt>
      <trkpt lat="47.51184" lon="6.77091">
        <ele>378</ele>
        <time>2015-06-24T16:17:44.000Z</time>
      </trkpt>
      <trkpt lat="47.51179" lon="6.77081">
        <ele>377</ele>
        <time>2015-06-24T16:17:45.000Z</time>
      </trkpt>
      <trkpt lat="47.51172" lon="6.77072">
        <ele>377</ele>
        <time>2015-06-24T16:17:46.000Z</time>
      </trkpt>
      <trkpt lat="47.51166" lon="6.77063">
        <ele>376</ele>
        <time>2015-06-24T16:17:47.000Z</time>
      </trkpt>
      <trkpt lat="47.5116" lon="6.77055">
        <ele>376</ele>
        <time>2015-06-24T16:17:48.000Z</time>
      </trkpt>
      <trkpt lat="47.51153" lon="6.77048">
        <ele>376</ele>
        <time>2015-06-24T16:17:49.000Z</time>
      </trkpt>
      <trkpt lat="47.51147" lon="6.77042">
        <ele>376</ele>
        <time>2015-06-24T16:17:50.000Z</time>
      </trkpt>
      <trkpt lat="47.5114" lon="6.77035">
        <ele>375</ele>
        <time>2015-06-24T16:17:51.000Z</time>
      </trkpt>
      <trkpt lat="47.51133" lon="6.77029">
        <ele>375</ele>
        <time>2015-06-24T16:17:52.000Z</time>
      </trkpt>
      <trkpt lat="47.51127" lon="6.77023">
        <ele>375</ele>
        <time>2015-06-24T16:17:53.000Z</time>
      </trkpt>
      <trkpt lat="47.5112" lon="6.77016">
        <ele>375</ele>
        <time>2015-06-24T16:17:54.000Z</time>
      </trkpt>
      <trkpt lat="47.51113" lon="6.77009">
        <ele>375</ele>
        <time>2015-06-24T16:17:55.000Z</time>
      </trkpt>
      <trkpt lat="47.51106" lon="6.77004">
        <ele>375</ele>
        <time>2015-06-24T16:17:56.000Z</time>
      </trkpt>
      <trkpt lat="47.51098" lon="6.76998">
        <ele>375</ele>
        <time>2015-06-24T16:17:57.000Z</time>
      </trkpt>
      <trkpt lat="47.51091" lon="6.76993">
        <ele>375</ele>
        <time>2015-06-24T16:17:58.000Z</time>
      </trkpt>
      <trkpt lat="47.51085" lon="6.76987">
        <ele>375</ele>
        <time>2015-06-24T16:17:59.000Z</time>
      </trkpt>
      <trkpt lat="47.51079" lon="6.76981">
        <ele>375</ele>
        <time>2015-06-24T16:18:00.000Z</time>
      </trkpt>
      <trkpt lat="47.51072" lon="6.76977">
        <ele>375</ele>
        <time>2015-06-24T16:18:01.000Z</time>
      </trkpt>
      <trkpt lat="47.51066" lon="6.7697">
        <ele>375</ele>
        <time>2015-06-24T16:18:02.000Z</time>
      </trkpt>
      <trkpt lat="47.51061" lon="6.76965">
        <ele>375</ele>
        <time>2015-06-24T16:18:03.000Z</time>
      </trkpt>
      <trkpt lat="47.51053" lon="6.76959">
        <ele>375</ele>
        <time>2015-06-24T16:18:04.000Z</time>
      </trkpt>
      <trkpt lat="47.51048" lon="6.76953">
        <ele>375</ele>
        <time>2015-06-24T16:18:05.000Z</time>
      </trkpt>
      <trkpt lat="47.51042" lon="6.76948">
        <ele>375</ele>
        <time>2015-06-24T16:18:06.000Z</time>
      </trkpt>
      <trkpt lat="47.51035" lon="6.76944">
        <ele>375</ele>
        <time>2015-06-24T16:18:07.000Z</time>
      </trkpt>
      <trkpt lat="47.51029" lon="6.76939">
        <ele>375</ele>
        <time>2015-06-24T16:18:08.000Z</time>
      </trkpt>
      <trkpt lat="47.51023" lon="6.76935">
        <ele>375</ele>
        <time>2015-06-24T16:18:09.000Z</time>
      </trkpt>
      <trkpt lat="47.51018" lon="6.76931">
        <ele>375</ele>
        <time>2015-06-24T16:18:10.000Z</time>
      </trkpt>
      <trkpt lat="47.51012" lon="6.76926">
        <ele>375</ele>
        <time>2015-06-24T16:18:11.000Z</time>
      </trkpt>
      <trkpt lat="47.51007" lon="6.76922">
        <ele>376</ele>
        <time>2015-06-24T16:18:12.000Z</time>
      </trkpt>
      <trkpt lat="47.51004" lon="6.76916">
        <ele>376</ele>
        <time>2015-06-24T16:18:13.000Z</time>
      </trkpt>
      <trkpt lat="47.51001" lon="6.76911">
        <ele>376</ele>
        <time>2015-06-24T16:18:14.000Z</time>
      </trkpt>
      <trkpt lat="47.50997" lon="6.76907">
        <ele>376</ele>
        <time>2015-06-24T16:18:15.000Z</time>
      </trkpt>
      <trkpt lat="47.50991" lon="6.76904">
        <ele>377</ele>
        <time>2015-06-24T16:18:16.000Z</time>
      </trkpt>
      <trkpt lat="47.50986" lon="6.76902">
        <ele>377</ele>
        <time>2015-06-24T16:18:17.000Z</time>
      </trkpt>
      <trkpt lat="47.50979" lon="6.769">
        <ele>377</ele>
        <time>2015-06-24T16:18:18.000Z</time>
      </trkpt>
      <trkpt lat="47.50975" lon="6.76897">
        <ele>377</ele>
        <time>2015-06-24T16:18:19.000Z</time>
      </trkpt>
      <trkpt lat="47.5097" lon="6.76892">
        <ele>377</ele>
        <time>2015-06-24T16:18:20.000Z</time>
      </trkpt>
      <trkpt lat="47.50965" lon="6.76887">
        <ele>377</ele>
        <time>2015-06-24T16:18:21.000Z</time>
      </trkpt>
      <trkpt lat="47.50962" lon="6.76882">
        <ele>377</ele>
        <time>2015-06-24T16:18:22.000Z</time>
      </trkpt>
      <trkpt lat="47.50959" lon="6.76876">
        <ele>377</ele>
        <time>2015-06-24T16:18:23.000Z</time>
      </trkpt>
      <trkpt lat="47.50952" lon="6.76874">
        <ele>378</ele>
        <time>2015-06-24T16:18:24.000Z</time>
      </trkpt>
      <trkpt lat="47.50947" lon="6.76871">
        <ele>378</ele>
        <time>2015-06-24T16:18:25.000Z</time>
      </trkpt>
      <trkpt lat="47.50941" lon="6.76865">
        <ele>378</ele>
        <time>2015-06-24T16:18:26.000Z</time>
      </trkpt>
      <trkpt lat="47.50937" lon="6.7686">
        <ele>378</ele>
        <time>2015-06-24T16:18:27.000Z</time>
      </trkpt>
      <trkpt lat="47.50934" lon="6.76855">
        <ele>378</ele>
        <time>2015-06-24T16:18:28.000Z</time>
      </trkpt>
      <trkpt lat="47.50933" lon="6.76849">
        <ele>378</ele>
        <time>2015-06-24T16:18:29.000Z</time>
      </trkpt>
      <trkpt lat="47.5093" lon="6.76844">
        <ele>379</ele>
        <time>2015-06-24T16:18:30.000Z</time>
      </trkpt>
      <trkpt lat="47.50928" lon="6.76839">
        <ele>379</ele>
        <time>2015-06-24T16:18:31.000Z</time>
      </trkpt>
      <trkpt lat="47.50924" lon="6.76833">
        <ele>379</ele>
        <time>2015-06-24T16:18:32.000Z</time>
      </trkpt>
      <trkpt lat="47.5092" lon="6.76827">
        <ele>379</ele>
        <time>2015-06-24T16:18:33.000Z</time>
      </trkpt>
      <trkpt lat="47.50917" lon="6.76821">
        <ele>381</ele>
        <time>2015-06-24T16:18:34.000Z</time>
      </trkpt>
      <trkpt lat="47.50913" lon="6.76815">
        <ele>381</ele>
        <time>2015-06-24T16:18:35.000Z</time>
      </trkpt>
      <trkpt lat="47.50909" lon="6.76809">
        <ele>381</ele>
        <time>2015-06-24T16:18:36.000Z</time>
      </trkpt>
      <trkpt lat="47.50907" lon="6.76803">
        <ele>381</ele>
        <time>2015-06-24T16:18:37.000Z</time>
      </trkpt>
      <trkpt lat="47.50905" lon="6.76798">
        <ele>381</ele>
        <time>2015-06-24T16:18:38.000Z</time>
      </trkpt>
      <trkpt lat="47.50902" lon="6.76792">
        <ele>381</ele>
        <time>2015-06-24T16:18:39.000Z</time>
      </trkpt>
      <trkpt lat="47.50898" lon="6.76786">
        <ele>381</ele>
        <time>2015-06-24T16:18:40.000Z</time>
      </trkpt>
      <trkpt lat="47.50896" lon="6.76778">
        <ele>381</ele>
        <time>2015-06-24T16:18:41.000Z</time>
      </trkpt>
      <trkpt lat="47.50894" lon="6.76773">
        <ele>381</ele>
        <time>2015-06-24T16:18:42.000Z</time>
      </trkpt>
      <trkpt lat="47.50892" lon="6.76768">
        <ele>381</ele>
        <time>2015-06-24T16:18:43.000Z</time>
      </trkpt>
      <trkpt lat="47.50889" lon="6.76762">
        <ele>381</ele>
        <time>2015-06-24T16:18:44.000Z</time>
      </trkpt>
      <trkpt lat="47.50887" lon="6.76757">
        <ele>381</ele>
        <time>2015-06-24T16:18:45.000Z</time>
      </trkpt>
      <trkpt lat="47.50884" lon="6.76751">
        <ele>381</ele>
        <time>2015-06-24T16:18:46.000Z</time>
      </trkpt>
      <trkpt lat="47.50881" lon="6.76745">
        <ele>382</ele>
        <time>2015-06-24T16:18:47.000Z</time>
      </trkpt>
      <trkpt lat="47.50879" lon="6.76739">
        <ele>383</ele>
        <time>2015-06-24T16:18:48.000Z</time>
      </trkpt>
      <trkpt lat="47.50878" lon="6.76734">
        <ele>383</ele>
        <time>2015-06-24T16:18:49.000Z</time>
      </trkpt>
      <trkpt lat="47.50877" lon="6.76727">
        <ele>383</ele>
        <time>2015-06-24T16:18:50.000Z</time>
      </trkpt>
      <trkpt lat="47.50875" lon="6.76721">
        <ele>383</ele>
        <time>2015-06-24T16:18:51.000Z</time>
      </trkpt>
      <trkpt lat="47.50873" lon="6.76715">
        <ele>383</ele>
        <time>2015-06-24T16:18:52.000Z</time>
      </trkpt>
      <trkpt lat="47.50871" lon="6.7671">
        <ele>383</ele>
        <time>2015-06-24T16:18:53.000Z</time>
      </trkpt>
      <trkpt lat="47.5087" lon="6.76705">
        <ele>384</ele>
        <time>2015-06-24T16:18:54.000Z</time>
      </trkpt>
      <trkpt lat="47.50868" lon="6.767">
        <ele>384</ele>
        <time>2015-06-24T16:18:55.000Z</time>
      </trkpt>
      <trkpt lat="47.50865" lon="6.76694">
        <ele>384</ele>
        <time>2015-06-24T16:18:56.000Z</time>
      </trkpt>
      <trkpt lat="47.50863" lon="6.76689">
        <ele>384</ele>
        <time>2015-06-24T16:18:57.000Z</time>
      </trkpt>
      <trkpt lat="47.50861" lon="6.76683">
        <ele>385</ele>
        <time>2015-06-24T16:18:58.000Z</time>
      </trkpt>
      <trkpt lat="47.50859" lon="6.76678">
        <ele>385</ele>
        <time>2015-06-24T16:18:59.000Z</time>
      </trkpt>
      <trkpt lat="47.50856" lon="6.76672">
        <ele>385</ele>
        <time>2015-06-24T16:19:00.000Z</time>
      </trkpt>
      <trkpt lat="47.50854" lon="6.76667">
        <ele>386</ele>
        <time>2015-06-24T16:19:01.000Z</time>
      </trkpt>
      <trkpt lat="47.50852" lon="6.76662">
        <ele>387</ele>
        <time>2015-06-24T16:19:02.000Z</time>
      </trkpt>
      <trkpt lat="47.5085" lon="6.76658">
        <ele>387</ele>
        <time>2015-06-24T16:19:03.000Z</time>
      </trkpt>
      <trkpt lat="47.50848" lon="6.76653">
        <ele>387</ele>
        <time>2015-06-24T16:19:04.000Z</time>
      </trkpt>
      <trkpt lat="47.50846" lon="6.76649">
        <ele>387</ele>
        <time>2015-06-24T16:19:05.000Z</time>
      </trkpt>
      <trkpt lat="47.50844" lon="6.76644">
        <ele>387</ele>
        <time>2015-06-24T16:19:06.000Z</time>
      </trkpt>
      <trkpt lat="47.50842" lon="6.76639">
        <ele>387</ele>
        <time>2015-06-24T16:19:07.000Z</time>
      </trkpt>
      <trkpt lat="47.50839" lon="6.76634">
        <ele>387</ele>
        <time>2015-06-24T16:19:08.000Z</time>
      </trkpt>
      <trkpt lat="47.50837" lon="6.7663">
        <ele>387</ele>
        <time>2015-06-24T16:19:09.000Z</time>
      </trkpt>
      <trkpt lat="47.50835" lon="6.76625">
        <ele>387</ele>
        <time>2015-06-24T16:19:10.000Z</time>
      </trkpt>
      <trkpt lat="47.50834" lon="6.76621">
        <ele>387</ele>
        <time>2015-06-24T16:19:11.000Z</time>
      </trkpt>
      <trkpt lat="47.50832" lon="6.76617">
        <ele>390</ele>
        <time>2015-06-24T16:19:12.000Z</time>
      </trkpt>
      <trkpt lat="47.5083" lon="6.76612">
        <ele>390</ele>
        <time>2015-06-24T16:19:13.000Z</time>
      </trkpt>
      <trkpt lat="47.50829" lon="6.76607">
        <ele>390</ele>
        <time>2015-06-24T16:19:14.000Z</time>
      </trkpt>
      <trkpt lat="47.50827" lon="6.76602">
        <ele>390</ele>
        <time>2015-06-24T16:19:15.000Z</time>
      </trkpt>
      <trkpt lat="47.50825" lon="6.76598">
        <ele>390</ele>
        <time>2015-06-24T16:19:16.000Z</time>
      </trkpt>
      <trkpt lat="47.50824" lon="6.76594">
        <ele>390</ele>
        <time>2015-06-24T16:19:17.000Z</time>
      </trkpt>
      <trkpt lat="47.50821" lon="6.76593">
        <ele>390</ele>
        <time>2015-06-24T16:19:19.000Z</time>
      </trkpt>
      <trkpt lat="47.50818" lon="6.76595">
        <ele>390</ele>
        <time>2015-06-24T16:19:20.000Z</time>
      </trkpt>
      <trkpt lat="47.50815" lon="6.76596">
        <ele>390</ele>
        <time>2015-06-24T16:19:21.000Z</time>
      </trkpt>
      <trkpt lat="47.50813" lon="6.76595">
        <ele>390</ele>
        <time>2015-06-24T16:19:22.000Z</time>
      </trkpt>
      <trkpt lat="47.50811" lon="6.76592">
        <ele>390</ele>
        <time>2015-06-24T16:19:23.000Z</time>
      </trkpt>
      <trkpt lat="47.50809" lon="6.76588">
        <ele>390</ele>
        <time>2015-06-24T16:19:24.000Z</time>
      </trkpt>
      <trkpt lat="47.50806" lon="6.76583">
        <ele>391</ele>
        <time>2015-06-24T16:19:26.000Z</time>
      </trkpt>
      <trkpt lat="47.50805" lon="6.76583">
        <ele>391</ele>
        <time>2015-06-24T16:19:27.000Z</time>
      </trkpt>
      <trkpt lat="47.50802" lon="6.76585">
        <ele>391</ele>
        <time>2015-06-24T16:19:29.000Z</time>
      </trkpt>
      <trkpt lat="47.50799" lon="6.76586">
        <ele>391</ele>
        <time>2015-06-24T16:19:30.000Z</time>
      </trkpt>
      <trkpt lat="47.50796" lon="6.76588">
        <ele>391</ele>
        <time>2015-06-24T16:19:31.000Z</time>
      </trkpt>
      <trkpt lat="47.50792" lon="6.76589">
        <ele>391</ele>
        <time>2015-06-24T16:19:32.000Z</time>
      </trkpt>
      <trkpt lat="47.50788" lon="6.76591">
        <ele>391</ele>
        <time>2015-06-24T16:19:33.000Z</time>
      </trkpt>
      <trkpt lat="47.50784" lon="6.76592">
        <ele>391</ele>
        <time>2015-06-24T16:19:34.000Z</time>
      </trkpt>
      <trkpt lat="47.50779" lon="6.76593">
        <ele>392</ele>
        <time>2015-06-24T16:19:35.000Z</time>
      </trkpt>
      <trkpt lat="47.50775" lon="6.76594">
        <ele>392</ele>
        <time>2015-06-24T16:19:36.000Z</time>
      </trkpt>
      <trkpt lat="47.50771" lon="6.76595">
        <ele>392</ele>
        <time>2015-06-24T16:19:37.000Z</time>
      </trkpt>
      <trkpt lat="47.50768" lon="6.76595">
        <ele>392</ele>
        <time>2015-06-24T16:19:38.000Z</time>
      </trkpt>
      <trkpt lat="47.50764" lon="6.76596">
        <ele>392</ele>
        <time>2015-06-24T16:19:39.000Z</time>
      </trkpt>
      <trkpt lat="47.50761" lon="6.76597">
        <ele>392</ele>
        <time>2015-06-24T16:19:40.000Z</time>
      </trkpt>
      <trkpt lat="47.50757" lon="6.76598">
        <ele>392</ele>
        <time>2015-06-24T16:19:41.000Z</time>
      </trkpt>
      <trkpt lat="47.50753" lon="6.76599">
        <ele>392</ele>
        <time>2015-06-24T16:19:42.000Z</time>
      </trkpt>
      <trkpt lat="47.50749" lon="6.76599">
        <ele>394</ele>
        <time>2015-06-24T16:19:43.000Z</time>
      </trkpt>
      <trkpt lat="47.50745" lon="6.76599">
        <ele>394</ele>
        <time>2015-06-24T16:19:44.000Z</time>
      </trkpt>
      <trkpt lat="47.50742" lon="6.76598">
        <ele>394</ele>
        <time>2015-06-24T16:19:45.000Z</time>
      </trkpt>
      <trkpt lat="47.50738" lon="6.76597">
        <ele>394</ele>
        <time>2015-06-24T16:19:46.000Z</time>
      </trkpt>
      <trkpt lat="47.50734" lon="6.76597">
        <ele>394</ele>
        <time>2015-06-24T16:19:47.000Z</time>
      </trkpt>
      <trkpt lat="47.5073" lon="6.76596">
        <ele>394</ele>
        <time>2015-06-24T16:19:48.000Z</time>
      </trkpt>
      <trkpt lat="47.50726" lon="6.76595">
        <ele>394</ele>
        <time>2015-06-24T16:19:49.000Z</time>
      </trkpt>
      <trkpt lat="47.50721" lon="6.76594">
        <ele>394</ele>
        <time>2015-06-24T16:19:50.000Z</time>
      </trkpt>
      <trkpt lat="47.50717" lon="6.76594">
        <ele>394</ele>
        <time>2015-06-24T16:19:51.000Z</time>
      </trkpt>
      <trkpt lat="47.50713" lon="6.76593">
        <ele>395</ele>
        <time>2015-06-24T16:19:52.000Z</time>
      </trkpt>
      <trkpt lat="47.50709" lon="6.76593">
        <ele>395</ele>
        <time>2015-06-24T16:19:53.000Z</time>
      </trkpt>
      <trkpt lat="47.50705" lon="6.76593">
        <ele>395</ele>
        <time>2015-06-24T16:19:54.000Z</time>
      </trkpt>
      <trkpt lat="47.507" lon="6.76593">
        <ele>395</ele>
        <time>2015-06-24T16:19:55.000Z</time>
      </trkpt>
      <trkpt lat="47.50696" lon="6.76593">
        <ele>395</ele>
        <time>2015-06-24T16:19:56.000Z</time>
      </trkpt>
      <trkpt lat="47.50693" lon="6.76593">
        <ele>395</ele>
        <time>2015-06-24T16:19:57.000Z</time>
      </trkpt>
      <trkpt lat="47.50689" lon="6.76594">
        <ele>395</ele>
        <time>2015-06-24T16:19:58.000Z</time>
      </trkpt>
      <trkpt lat="47.50685" lon="6.76594">
        <ele>395</ele>
        <time>2015-06-24T16:19:59.000Z</time>
      </trkpt>
      <trkpt lat="47.50681" lon="6.76596">
        <ele>396</ele>
        <time>2015-06-24T16:20:00.000Z</time>
      </trkpt>
      <trkpt lat="47.50678" lon="6.76597">
        <ele>396</ele>
        <time>2015-06-24T16:20:01.000Z</time>
      </trkpt>
      <trkpt lat="47.50674" lon="6.76599">
        <ele>396</ele>
        <time>2015-06-24T16:20:02.000Z</time>
      </trkpt>
      <trkpt lat="47.5067" lon="6.766">
        <ele>396</ele>
        <time>2015-06-24T16:20:03.000Z</time>
      </trkpt>
      <trkpt lat="47.50666" lon="6.76602">
        <ele>397</ele>
        <time>2015-06-24T16:20:04.000Z</time>
      </trkpt>
      <trkpt lat="47.50662" lon="6.76603">
        <ele>397</ele>
        <time>2015-06-24T16:20:05.000Z</time>
      </trkpt>
      <trkpt lat="47.50659" lon="6.76604">
        <ele>397</ele>
        <time>2015-06-24T16:20:06.000Z</time>
      </trkpt>
      <trkpt lat="47.50655" lon="6.76605">
        <ele>397</ele>
        <time>2015-06-24T16:20:07.000Z</time>
      </trkpt>
      <trkpt lat="47.50651" lon="6.76606">
        <ele>397</ele>
        <time>2015-06-24T16:20:08.000Z</time>
      </trkpt>
      <trkpt lat="47.50647" lon="6.76607">
        <ele>397</ele>
        <time>2015-06-24T16:20:09.000Z</time>
      </trkpt>
      <trkpt lat="47.50643" lon="6.76609">
        <ele>397</ele>
        <time>2015-06-24T16:20:10.000Z</time>
      </trkpt>
      <trkpt lat="47.5064" lon="6.7661">
        <ele>397</ele>
        <time>2015-06-24T16:20:11.000Z</time>
      </trkpt>
      <trkpt lat="47.50636" lon="6.76612">
        <ele>397</ele>
        <time>2015-06-24T16:20:12.000Z</time>
      </trkpt>
      <trkpt lat="47.50633" lon="6.76614">
        <ele>397</ele>
        <time>2015-06-24T16:20:13.000Z</time>
      </trkpt>
      <trkpt lat="47.50629" lon="6.76616">
        <ele>397</ele>
        <time>2015-06-24T16:20:14.000Z</time>
      </trkpt>
      <trkpt lat="47.50626" lon="6.76618">
        <ele>397</ele>
        <time>2015-06-24T16:20:15.000Z</time>
      </trkpt>
      <trkpt lat="47.50623" lon="6.7662">
        <ele>397</ele>
        <time>2015-06-24T16:20:16.000Z</time>
      </trkpt>
      <trkpt lat="47.5062" lon="6.76622">
        <ele>397</ele>
        <time>2015-06-24T16:20:17.000Z</time>
      </trkpt>
      <trkpt lat="47.50617" lon="6.76623">
        <ele>397</ele>
        <time>2015-06-24T16:20:18.000Z</time>
      </trkpt>
      <trkpt lat="47.50614" lon="6.76625">
        <ele>397</ele>
        <time>2015-06-24T16:20:19.000Z</time>
      </trkpt>
      <trkpt lat="47.5061" lon="6.76626">
        <ele>397</ele>
        <time>2015-06-24T16:20:20.000Z</time>
      </trkpt>
      <trkpt lat="47.50607" lon="6.76628">
        <ele>397</ele>
        <time>2015-06-24T16:20:21.000Z</time>
      </trkpt>
      <trkpt lat="47.50604" lon="6.7663">
        <ele>398</ele>
        <time>2015-06-24T16:20:22.000Z</time>
      </trkpt>
      <trkpt lat="47.50601" lon="6.76632">
        <ele>398</ele>
        <time>2015-06-24T16:20:23.000Z</time>
      </trkpt>
      <trkpt lat="47.50598" lon="6.76634">
        <ele>398</ele>
        <time>2015-06-24T16:20:24.000Z</time>
      </trkpt>
      <trkpt lat="47.50595" lon="6.76636">
        <ele>398</ele>
        <time>2015-06-24T16:20:25.000Z</time>
      </trkpt>
      <trkpt lat="47.50592" lon="6.76638">
        <ele>398</ele>
        <time>2015-06-24T16:20:26.000Z</time>
      </trkpt>
      <trkpt lat="47.50589" lon="6.7664">
        <ele>398</ele>
        <time>2015-06-24T16:20:27.000Z</time>
      </trkpt>
      <trkpt lat="47.50586" lon="6.76642">
        <ele>398</ele>
        <time>2015-06-24T16:20:28.000Z</time>
      </trkpt>
      <trkpt lat="47.50583" lon="6.76642">
        <ele>399</ele>
        <time>2015-06-24T16:20:29.000Z</time>
      </trkpt>
      <trkpt lat="47.50579" lon="6.76643">
        <ele>399</ele>
        <time>2015-06-24T16:20:30.000Z</time>
      </trkpt>
      <trkpt lat="47.50576" lon="6.76644">
        <ele>399</ele>
        <time>2015-06-24T16:20:31.000Z</time>
      </trkpt>
      <trkpt lat="47.50572" lon="6.76644">
        <ele>399</ele>
        <time>2015-06-24T16:20:32.000Z</time>
      </trkpt>
      <trkpt lat="47.50569" lon="6.76645">
        <ele>399</ele>
        <time>2015-06-24T16:20:33.000Z</time>
      </trkpt>
      <trkpt lat="47.50566" lon="6.76646">
        <ele>399</ele>
        <time>2015-06-24T16:20:34.000Z</time>
      </trkpt>
      <trkpt lat="47.50563" lon="6.76648">
        <ele>399</ele>
        <time>2015-06-24T16:20:35.000Z</time>
      </trkpt>
      <trkpt lat="47.50559" lon="6.76649">
        <ele>399</ele>
        <time>2015-06-24T16:20:36.000Z</time>
      </trkpt>
      <trkpt lat="47.50556" lon="6.76651">
        <ele>399</ele>
        <time>2015-06-24T16:20:37.000Z</time>
      </trkpt>
      <trkpt lat="47.50552" lon="6.76652">
        <ele>399</ele>
        <time>2015-06-24T16:20:38.000Z</time>
      </trkpt>
      <trkpt lat="47.50548" lon="6.76653">
        <ele>399</ele>
        <time>2015-06-24T16:20:39.000Z</time>
      </trkpt>
      <trkpt lat="47.50544" lon="6.76654">
        <ele>399</ele>
        <time>2015-06-24T16:20:40.000Z</time>
      </trkpt>
      <trkpt lat="47.5054" lon="6.76655">
        <ele>399</ele>
        <time>2015-06-24T16:20:41.000Z</time>
      </trkpt>
      <trkpt lat="47.50536" lon="6.76656">
        <ele>399</ele>
        <time>2015-06-24T16:20:42.000Z</time>
      </trkpt>
      <trkpt lat="47.5053" lon="6.76657">
        <ele>399</ele>
        <time>2015-06-24T16:20:43.000Z</time>
      </trkpt>
      <trkpt lat="47.50526" lon="6.76659">
        <ele>399</ele>
        <time>2015-06-24T16:20:44.000Z</time>
      </trkpt>
      <trkpt lat="47.5052" lon="6.76659">
        <ele>399</ele>
        <time>2015-06-24T16:20:45.000Z</time>
      </trkpt>
      <trkpt lat="47.50515" lon="6.7666">
        <ele>399</ele>
        <time>2015-06-24T16:20:46.000Z</time>
      </trkpt>
      <trkpt lat="47.5051" lon="6.76661">
        <ele>399</ele>
        <time>2015-06-24T16:20:47.000Z</time>
      </trkpt>
      <trkpt lat="47.50504" lon="6.7666">
        <ele>399</ele>
        <time>2015-06-24T16:20:48.000Z</time>
      </trkpt>
      <trkpt lat="47.50498" lon="6.76662">
        <ele>399</ele>
        <time>2015-06-24T16:20:49.000Z</time>
      </trkpt>
      <trkpt lat="47.50493" lon="6.76663">
        <ele>399</ele>
        <time>2015-06-24T16:20:50.000Z</time>
      </trkpt>
      <trkpt lat="47.50487" lon="6.76666">
        <ele>399</ele>
        <time>2015-06-24T16:20:51.000Z</time>
      </trkpt>
      <trkpt lat="47.50481" lon="6.76667">
        <ele>398</ele>
        <time>2015-06-24T16:20:52.000Z</time>
      </trkpt>
      <trkpt lat="47.50475" lon="6.76669">
        <ele>397</ele>
        <time>2015-06-24T16:20:53.000Z</time>
      </trkpt>
      <trkpt lat="47.50469" lon="6.76671">
        <ele>397</ele>
        <time>2015-06-24T16:20:54.000Z</time>
      </trkpt>
      <trkpt lat="47.50464" lon="6.76674">
        <ele>397</ele>
        <time>2015-06-24T16:20:55.000Z</time>
      </trkpt>
      <trkpt lat="47.50457" lon="6.76676">
        <ele>397</ele>
        <time>2015-06-24T16:20:56.000Z</time>
      </trkpt>
      <trkpt lat="47.50452" lon="6.76679">
        <ele>397</ele>
        <time>2015-06-24T16:20:57.000Z</time>
      </trkpt>
      <trkpt lat="47.50447" lon="6.76682">
        <ele>397</ele>
        <time>2015-06-24T16:20:58.000Z</time>
      </trkpt>
      <trkpt lat="47.50442" lon="6.76685">
        <ele>397</ele>
        <time>2015-06-24T16:20:59.000Z</time>
      </trkpt>
      <trkpt lat="47.50436" lon="6.76687">
        <ele>397</ele>
        <time>2015-06-24T16:21:00.000Z</time>
      </trkpt>
      <trkpt lat="47.5043" lon="6.76688">
        <ele>397</ele>
        <time>2015-06-24T16:21:01.000Z</time>
      </trkpt>
      <trkpt lat="47.50425" lon="6.76688">
        <ele>397</ele>
        <time>2015-06-24T16:21:02.000Z</time>
      </trkpt>
      <trkpt lat="47.50419" lon="6.7669">
        <ele>397</ele>
        <time>2015-06-24T16:21:03.000Z</time>
      </trkpt>
      <trkpt lat="47.50413" lon="6.76693">
        <ele>397</ele>
        <time>2015-06-24T16:21:04.000Z</time>
      </trkpt>
      <trkpt lat="47.50408" lon="6.76695">
        <ele>397</ele>
        <time>2015-06-24T16:21:05.000Z</time>
      </trkpt>
      <trkpt lat="47.50403" lon="6.76696">
        <ele>397</ele>
        <time>2015-06-24T16:21:06.000Z</time>
      </trkpt>
      <trkpt lat="47.50398" lon="6.76699">
        <ele>397</ele>
        <time>2015-06-24T16:21:07.000Z</time>
      </trkpt>
      <trkpt lat="47.50393" lon="6.76702">
        <ele>397</ele>
        <time>2015-06-24T16:21:08.000Z</time>
      </trkpt>
      <trkpt lat="47.50388" lon="6.76703">
        <ele>397</ele>
        <time>2015-06-24T16:21:09.000Z</time>
      </trkpt>
      <trkpt lat="47.50382" lon="6.76705">
        <ele>397</ele>
        <time>2015-06-24T16:21:10.000Z</time>
      </trkpt>
      <trkpt lat="47.50377" lon="6.76707">
        <ele>397</ele>
        <time>2015-06-24T16:21:11.000Z</time>
      </trkpt>
      <trkpt lat="47.50372" lon="6.76709">
        <ele>398</ele>
        <time>2015-06-24T16:21:12.000Z</time>
      </trkpt>
      <trkpt lat="47.50367" lon="6.7671">
        <ele>398</ele>
        <time>2015-06-24T16:21:13.000Z</time>
      </trkpt>
      <trkpt lat="47.50363" lon="6.76712">
        <ele>398</ele>
        <time>2015-06-24T16:21:14.000Z</time>
      </trkpt>
      <trkpt lat="47.50358" lon="6.76715">
        <ele>398</ele>
        <time>2015-06-24T16:21:15.000Z</time>
      </trkpt>
      <trkpt lat="47.50353" lon="6.76716">
        <ele>398</ele>
        <time>2015-06-24T16:21:16.000Z</time>
      </trkpt>
      <trkpt lat="47.50348" lon="6.76718">
        <ele>398</ele>
        <time>2015-06-24T16:21:17.000Z</time>
      </trkpt>
      <trkpt lat="47.50345" lon="6.76721">
        <ele>398</ele>
        <time>2015-06-24T16:21:18.000Z</time>
      </trkpt>
      <trkpt lat="47.5034" lon="6.76722">
        <ele>398</ele>
        <time>2015-06-24T16:21:19.000Z</time>
      </trkpt>
      <trkpt lat="47.50335" lon="6.76723">
        <ele>398</ele>
        <time>2015-06-24T16:21:20.000Z</time>
      </trkpt>
      <trkpt lat="47.50331" lon="6.76724">
        <ele>398</ele>
        <time>2015-06-24T16:21:21.000Z</time>
      </trkpt>
      <trkpt lat="47.50327" lon="6.76725">
        <ele>398</ele>
        <time>2015-06-24T16:21:22.000Z</time>
      </trkpt>
      <trkpt lat="47.50322" lon="6.76726">
        <ele>398</ele>
        <time>2015-06-24T16:21:23.000Z</time>
      </trkpt>
      <trkpt lat="47.50318" lon="6.76729">
        <ele>398</ele>
        <time>2015-06-24T16:21:24.000Z</time>
      </trkpt>
      <trkpt lat="47.50314" lon="6.76731">
        <ele>398</ele>
        <time>2015-06-24T16:21:25.000Z</time>
      </trkpt>
      <trkpt lat="47.50309" lon="6.76733">
        <ele>398</ele>
        <time>2015-06-24T16:21:26.000Z</time>
      </trkpt>
      <trkpt lat="47.50304" lon="6.76734">
        <ele>398</ele>
        <time>2015-06-24T16:21:27.000Z</time>
      </trkpt>
      <trkpt lat="47.503" lon="6.76734">
        <ele>399</ele>
        <time>2015-06-24T16:21:28.000Z</time>
      </trkpt>
      <trkpt lat="47.50295" lon="6.76736">
        <ele>399</ele>
        <time>2015-06-24T16:21:29.000Z</time>
      </trkpt>
      <trkpt lat="47.50291" lon="6.76737">
        <ele>399</ele>
        <time>2015-06-24T16:21:30.000Z</time>
      </trkpt>
      <trkpt lat="47.50287" lon="6.76737">
        <ele>399</ele>
        <time>2015-06-24T16:21:31.000Z</time>
      </trkpt>
      <trkpt lat="47.50284" lon="6.76738">
        <ele>399</ele>
        <time>2015-06-24T16:21:32.000Z</time>
      </trkpt>
      <trkpt lat="47.5028" lon="6.76738">
        <ele>399</ele>
        <time>2015-06-24T16:21:33.000Z</time>
      </trkpt>
      <trkpt lat="47.50276" lon="6.76739">
        <ele>399</ele>
        <time>2015-06-24T16:21:34.000Z</time>
      </trkpt>
      <trkpt lat="47.50273" lon="6.7674">
        <ele>399</ele>
        <time>2015-06-24T16:21:35.000Z</time>
      </trkpt>
      <trkpt lat="47.5027" lon="6.76741">
        <ele>399</ele>
        <time>2015-06-24T16:21:36.000Z</time>
      </trkpt>
      <trkpt lat="47.50267" lon="6.76742">
        <ele>399</ele>
        <time>2015-06-24T16:21:37.000Z</time>
      </trkpt>
      <trkpt lat="47.50264" lon="6.76743">
        <ele>399</ele>
        <time>2015-06-24T16:21:38.000Z</time>
      </trkpt>
      <trkpt lat="47.5026" lon="6.76744">
        <ele>399</ele>
        <time>2015-06-24T16:21:39.000Z</time>
      </trkpt>
      <trkpt lat="47.50257" lon="6.76745">
        <ele>400</ele>
        <time>2015-06-24T16:21:40.000Z</time>
      </trkpt>
      <trkpt lat="47.50254" lon="6.76745">
        <ele>400</ele>
        <time>2015-06-24T16:21:41.000Z</time>
      </trkpt>
      <trkpt lat="47.50251" lon="6.76745">
        <ele>400</ele>
        <time>2015-06-24T16:21:42.000Z</time>
      </trkpt>
      <trkpt lat="47.50249" lon="6.76744">
        <ele>401</ele>
        <time>2015-06-24T16:21:43.000Z</time>
      </trkpt>
      <trkpt lat="47.50247" lon="6.76742">
        <ele>401</ele>
        <time>2015-06-24T16:21:44.000Z</time>
      </trkpt>
      <trkpt lat="47.50245" lon="6.76739">
        <ele>401</ele>
        <time>2015-06-24T16:21:45.000Z</time>
      </trkpt>
      <trkpt lat="47.50243" lon="6.76736">
        <ele>401</ele>
        <time>2015-06-24T16:21:46.000Z</time>
      </trkpt>
      <trkpt lat="47.50241" lon="6.76733">
        <ele>401</ele>
        <time>2015-06-24T16:21:47.000Z</time>
      </trkpt>
      <trkpt lat="47.50238" lon="6.76729">
        <ele>401</ele>
        <time>2015-06-24T16:21:48.000Z</time>
      </trkpt>
      <trkpt lat="47.50236" lon="6.76725">
        <ele>401</ele>
        <time>2015-06-24T16:21:49.000Z</time>
      </trkpt>
      <trkpt lat="47.50234" lon="6.76721">
        <ele>402</ele>
        <time>2015-06-24T16:21:50.000Z</time>
      </trkpt>
      <trkpt lat="47.50233" lon="6.76717">
        <ele>402</ele>
        <time>2015-06-24T16:21:51.000Z</time>
      </trkpt>
      <trkpt lat="47.50231" lon="6.76712">
        <ele>402</ele>
        <time>2015-06-24T16:21:52.000Z</time>
      </trkpt>
      <trkpt lat="47.5023" lon="6.76708">
        <ele>402</ele>
        <time>2015-06-24T16:21:53.000Z</time>
      </trkpt>
      <trkpt lat="47.50229" lon="6.76704">
        <ele>402</ele>
        <time>2015-06-24T16:21:54.000Z</time>
      </trkpt>
      <trkpt lat="47.50227" lon="6.767">
        <ele>402</ele>
        <time>2015-06-24T16:21:55.000Z</time>
      </trkpt>
      <trkpt lat="47.50226" lon="6.76696">
        <ele>402</ele>
        <time>2015-06-24T16:21:56.000Z</time>
      </trkpt>
      <trkpt lat="47.50225" lon="6.76692">
        <ele>402</ele>
        <time>2015-06-24T16:21:57.000Z</time>
      </trkpt>
      <trkpt lat="47.50223" lon="6.76688">
        <ele>401</ele>
        <time>2015-06-24T16:21:58.000Z</time>
      </trkpt>
      <trkpt lat="47.50222" lon="6.76684">
        <ele>401</ele>
        <time>2015-06-24T16:21:59.000Z</time>
      </trkpt>
      <trkpt lat="47.5022" lon="6.7668">
        <ele>401</ele>
        <time>2015-06-24T16:22:00.000Z</time>
      </trkpt>
      <trkpt lat="47.50219" lon="6.76675">
        <ele>402</ele>
        <time>2015-06-24T16:22:01.000Z</time>
      </trkpt>
      <trkpt lat="47.50217" lon="6.7667">
        <ele>402</ele>
        <time>2015-06-24T16:22:02.000Z</time>
      </trkpt>
      <trkpt lat="47.50215" lon="6.76665">
        <ele>401</ele>
        <time>2015-06-24T16:22:03.000Z</time>
      </trkpt>
      <trkpt lat="47.50213" lon="6.7666">
        <ele>402</ele>
        <time>2015-06-24T16:22:04.000Z</time>
      </trkpt>
      <trkpt lat="47.50212" lon="6.76655">
        <ele>402</ele>
        <time>2015-06-24T16:22:05.000Z</time>
      </trkpt>
      <trkpt lat="47.5021" lon="6.7665">
        <ele>402</ele>
        <time>2015-06-24T16:22:06.000Z</time>
      </trkpt>
      <trkpt lat="47.50208" lon="6.76645">
        <ele>402</ele>
        <time>2015-06-24T16:22:07.000Z</time>
      </trkpt>
      <trkpt lat="47.50206" lon="6.7664">
        <ele>402</ele>
        <time>2015-06-24T16:22:08.000Z</time>
      </trkpt>
      <trkpt lat="47.50205" lon="6.76636">
        <ele>402</ele>
        <time>2015-06-24T16:22:09.000Z</time>
      </trkpt>
      <trkpt lat="47.50203" lon="6.76631">
        <ele>402</ele>
        <time>2015-06-24T16:22:10.000Z</time>
      </trkpt>
      <trkpt lat="47.50201" lon="6.76626">
        <ele>402</ele>
        <time>2015-06-24T16:22:11.000Z</time>
      </trkpt>
      <trkpt lat="47.502" lon="6.7662">
        <ele>402</ele>
        <time>2015-06-24T16:22:12.000Z</time>
      </trkpt>
      <trkpt lat="47.50199" lon="6.76615">
        <ele>403</ele>
        <time>2015-06-24T16:22:13.000Z</time>
      </trkpt>
      <trkpt lat="47.50198" lon="6.7661">
        <ele>403</ele>
        <time>2015-06-24T16:22:14.000Z</time>
      </trkpt>
      <trkpt lat="47.50197" lon="6.76605">
        <ele>403</ele>
        <time>2015-06-24T16:22:15.000Z</time>
      </trkpt>
      <trkpt lat="47.50196" lon="6.76601">
        <ele>403</ele>
        <time>2015-06-24T16:22:16.000Z</time>
      </trkpt>
      <trkpt lat="47.50196" lon="6.76598">
        <ele>403</ele>
        <time>2015-06-24T16:22:17.000Z</time>
      </trkpt>
      <trkpt lat="47.50196" lon="6.76593">
        <ele>403</ele>
        <time>2015-06-24T16:22:19.000Z</time>
      </trkpt>
      <trkpt lat="47.50196" lon="6.76591">
        <ele>403</ele>
        <time>2015-06-24T16:22:20.000Z</time>
      </trkpt>
      <trkpt lat="47.50197" lon="6.76586">
        <ele>403</ele>
        <time>2015-06-24T16:22:23.000Z</time>
      </trkpt>
      <trkpt lat="47.50199" lon="6.76585">
        <ele>403</ele>
        <time>2015-06-24T16:22:24.000Z</time>
      </trkpt>
      <trkpt lat="47.50203" lon="6.76585">
        <ele>403</ele>
        <time>2015-06-24T16:22:25.000Z</time>
      </trkpt>
      <trkpt lat="47.50207" lon="6.76585">
        <ele>402</ele>
        <time>2015-06-24T16:22:26.000Z</time>
      </trkpt>
      <trkpt lat="47.5021" lon="6.76585">
        <ele>402</ele>
        <time>2015-06-24T16:22:27.000Z</time>
      </trkpt>
      <trkpt lat="47.50214" lon="6.76585">
        <ele>402</ele>
        <time>2015-06-24T16:22:28.000Z</time>
      </trkpt>
      <trkpt lat="47.50217" lon="6.76585">
        <ele>401</ele>
        <time>2015-06-24T16:22:29.000Z</time>
      </trkpt>
      <trkpt lat="47.50216" lon="6.7657">
        <ele>401</ele>
        <time>2015-06-24T16:22:30.000Z</time>
      </trkpt>
      <trkpt lat="47.50215" lon="6.76559">
        <ele>401</ele>
        <time>2015-06-24T16:22:31.000Z</time>
      </trkpt>
      <trkpt lat="47.50215" lon="6.76549">
        <ele>400</ele>
        <time>2015-06-24T16:22:32.000Z</time>
      </trkpt>
      <trkpt lat="47.50213" lon="6.76542">
        <ele>400</ele>
        <time>2015-06-24T16:22:33.000Z</time>
      </trkpt>
      <trkpt lat="47.50213" lon="6.76534">
        <ele>400</ele>
        <time>2015-06-24T16:22:34.000Z</time>
      </trkpt>
      <trkpt lat="47.50211" lon="6.76527">
        <ele>400</ele>
        <time>2015-06-24T16:22:35.000Z</time>
      </trkpt>
      <trkpt lat="47.50209" lon="6.76519">
        <ele>400</ele>
        <time>2015-06-24T16:22:36.000Z</time>
      </trkpt>
      <trkpt lat="47.50208" lon="6.7651">
        <ele>400</ele>
        <time>2015-06-24T16:22:37.000Z</time>
      </trkpt>
      <trkpt lat="47.50207" lon="6.765">
        <ele>400</ele>
        <time>2015-06-24T16:22:38.000Z</time>
      </trkpt>
      <trkpt lat="47.50206" lon="6.7649">
        <ele>397</ele>
        <time>2015-06-24T16:22:39.000Z</time>
      </trkpt>
      <trkpt lat="47.50205" lon="6.76478">
        <ele>396</ele>
        <time>2015-06-24T16:22:40.000Z</time>
      </trkpt>
      <trkpt lat="47.50201" lon="6.76466">
        <ele>396</ele>
        <time>2015-06-24T16:22:41.000Z</time>
      </trkpt>
      <trkpt lat="47.50197" lon="6.76453">
        <ele>396</ele>
        <time>2015-06-24T16:22:42.000Z</time>
      </trkpt>
      <trkpt lat="47.50194" lon="6.76441">
        <ele>396</ele>
        <time>2015-06-24T16:22:43.000Z</time>
      </trkpt>
      <trkpt lat="47.5019" lon="6.76428">
        <ele>396</ele>
        <time>2015-06-24T16:22:44.000Z</time>
      </trkpt>
      <trkpt lat="47.50187" lon="6.76419">
        <ele>396</ele>
        <time>2015-06-24T16:22:45.000Z</time>
      </trkpt>
      <trkpt lat="47.50186" lon="6.76408">
        <ele>393</ele>
        <time>2015-06-24T16:22:46.000Z</time>
      </trkpt>
      <trkpt lat="47.50184" lon="6.76395">
        <ele>392</ele>
        <time>2015-06-24T16:22:47.000Z</time>
      </trkpt>
      <trkpt lat="47.50181" lon="6.76383">
        <ele>391</ele>
        <time>2015-06-24T16:22:48.000Z</time>
      </trkpt>
      <trkpt lat="47.50179" lon="6.76372">
        <ele>391</ele>
        <time>2015-06-24T16:22:49.000Z</time>
      </trkpt>
      <trkpt lat="47.50176" lon="6.76363">
        <ele>390</ele>
        <time>2015-06-24T16:22:50.000Z</time>
      </trkpt>
      <trkpt lat="47.50174" lon="6.7635">
        <ele>390</ele>
        <time>2015-06-24T16:22:51.000Z</time>
      </trkpt>
      <trkpt lat="47.50172" lon="6.7634">
        <ele>391</ele>
        <time>2015-06-24T16:22:52.000Z</time>
      </trkpt>
      <trkpt lat="47.50172" lon="6.76328">
        <ele>389</ele>
        <time>2015-06-24T16:22:53.000Z</time>
      </trkpt>
      <trkpt lat="47.50168" lon="6.76315">
        <ele>388</ele>
        <time>2015-06-24T16:22:54.000Z</time>
      </trkpt>
      <trkpt lat="47.50161" lon="6.76303">
        <ele>394</ele>
        <time>2015-06-24T16:22:55.000Z</time>
      </trkpt>
      <trkpt lat="47.50159" lon="6.7629">
        <ele>394</ele>
        <time>2015-06-24T16:22:56.000Z</time>
      </trkpt>
      <trkpt lat="47.50157" lon="6.76283">
        <ele>394</ele>
        <time>2015-06-24T16:22:57.000Z</time>
      </trkpt>
      <trkpt lat="47.50153" lon="6.76273">
        <ele>393</ele>
        <time>2015-06-24T16:22:58.000Z</time>
      </trkpt>
      <trkpt lat="47.50149" lon="6.76262">
        <ele>393</ele>
        <time>2015-06-24T16:22:59.000Z</time>
      </trkpt>
      <trkpt lat="47.50149" lon="6.76251">
        <ele>392</ele>
        <time>2015-06-24T16:23:00.000Z</time>
      </trkpt>
      <trkpt lat="47.50148" lon="6.76239">
        <ele>389</ele>
        <time>2015-06-24T16:23:01.000Z</time>
      </trkpt>
      <trkpt lat="47.50147" lon="6.76224">
        <ele>389</ele>
        <time>2015-06-24T16:23:02.000Z</time>
      </trkpt>
      <trkpt lat="47.50145" lon="6.76211">
        <ele>389</ele>
        <time>2015-06-24T16:23:03.000Z</time>
      </trkpt>
      <trkpt lat="47.50141" lon="6.76195">
        <ele>388</ele>
        <time>2015-06-24T16:23:04.000Z</time>
      </trkpt>
      <trkpt lat="47.50136" lon="6.7618">
        <ele>388</ele>
        <time>2015-06-24T16:23:05.000Z</time>
      </trkpt>
      <trkpt lat="47.50131" lon="6.76167">
        <ele>388</ele>
        <time>2015-06-24T16:23:06.000Z</time>
      </trkpt>
      <trkpt lat="47.50126" lon="6.76154">
        <ele>385</ele>
        <time>2015-06-24T16:23:07.000Z</time>
      </trkpt>
      <trkpt lat="47.50124" lon="6.76145">
        <ele>385</ele>
        <time>2015-06-24T16:23:08.000Z</time>
      </trkpt>
      <trkpt lat="47.50123" lon="6.76136">
        <ele>385</ele>
        <time>2015-06-24T16:23:09.000Z</time>
      </trkpt>
      <trkpt lat="47.50123" lon="6.76127">
        <ele>384</ele>
        <time>2015-06-24T16:23:10.000Z</time>
      </trkpt>
      <trkpt lat="47.50123" lon="6.76115">
        <ele>384</ele>
        <time>2015-06-24T16:23:11.000Z</time>
      </trkpt>
      <trkpt lat="47.5012" lon="6.76103">
        <ele>384</ele>
        <time>2015-06-24T16:23:12.000Z</time>
      </trkpt>
      <trkpt lat="47.50117" lon="6.76087">
        <ele>384</ele>
        <time>2015-06-24T16:23:13.000Z</time>
      </trkpt>
      <trkpt lat="47.50117" lon="6.7607">
        <ele>380</ele>
        <time>2015-06-24T16:23:14.000Z</time>
      </trkpt>
      <trkpt lat="47.50113" lon="6.76049">
        <ele>380</ele>
        <time>2015-06-24T16:23:15.000Z</time>
      </trkpt>
      <trkpt lat="47.50112" lon="6.76031">
        <ele>379</ele>
        <time>2015-06-24T16:23:16.000Z</time>
      </trkpt>
      <trkpt lat="47.50107" lon="6.76012">
        <ele>379</ele>
        <time>2015-06-24T16:23:17.000Z</time>
      </trkpt>
      <trkpt lat="47.50104" lon="6.76003">
        <ele>379</ele>
        <time>2015-06-24T16:23:18.000Z</time>
      </trkpt>
      <trkpt lat="47.50099" lon="6.75992">
        <ele>376</ele>
        <time>2015-06-24T16:23:19.000Z</time>
      </trkpt>
      <trkpt lat="47.50097" lon="6.75981">
        <ele>375</ele>
        <time>2015-06-24T16:23:20.000Z</time>
      </trkpt>
      <trkpt lat="47.50093" lon="6.75971">
        <ele>375</ele>
        <time>2015-06-24T16:23:21.000Z</time>
      </trkpt>
      <trkpt lat="47.50088" lon="6.75963">
        <ele>374</ele>
        <time>2015-06-24T16:23:22.000Z</time>
      </trkpt>
      <trkpt lat="47.50085" lon="6.75951">
        <ele>374</ele>
        <time>2015-06-24T16:23:23.000Z</time>
      </trkpt>
      <trkpt lat="47.50081" lon="6.75939">
        <ele>377</ele>
        <time>2015-06-24T16:23:24.000Z</time>
      </trkpt>
      <trkpt lat="47.50078" lon="6.75929">
        <ele>376</ele>
        <time>2015-06-24T16:23:25.000Z</time>
      </trkpt>
      <trkpt lat="47.50076" lon="6.75917">
        <ele>375</ele>
        <time>2015-06-24T16:23:26.000Z</time>
      </trkpt>
      <trkpt lat="47.50072" lon="6.75908">
        <ele>375</ele>
        <time>2015-06-24T16:23:27.000Z</time>
      </trkpt>
      <trkpt lat="47.5007" lon="6.75897">
        <ele>375</ele>
        <time>2015-06-24T16:23:28.000Z</time>
      </trkpt>
      <trkpt lat="47.50067" lon="6.75888">
        <ele>375</ele>
        <time>2015-06-24T16:23:29.000Z</time>
      </trkpt>
      <trkpt lat="47.50066" lon="6.75877">
        <ele>375</ele>
        <time>2015-06-24T16:23:30.000Z</time>
      </trkpt>
      <trkpt lat="47.50061" lon="6.75864">
        <ele>375</ele>
        <time>2015-06-24T16:23:31.000Z</time>
      </trkpt>
      <trkpt lat="47.50056" lon="6.75852">
        <ele>375</ele>
        <time>2015-06-24T16:23:32.000Z</time>
      </trkpt>
      <trkpt lat="47.50046" lon="6.75837">
        <ele>376</ele>
        <time>2015-06-24T16:23:33.000Z</time>
      </trkpt>
      <trkpt lat="47.50043" lon="6.75827">
        <ele>375</ele>
        <time>2015-06-24T16:23:34.000Z</time>
      </trkpt>
      <trkpt lat="47.50037" lon="6.75818">
        <ele>375</ele>
        <time>2015-06-24T16:23:35.000Z</time>
      </trkpt>
      <trkpt lat="47.50033" lon="6.75809">
        <ele>375</ele>
        <time>2015-06-24T16:23:36.000Z</time>
      </trkpt>
      <trkpt lat="47.50027" lon="6.75797">
        <ele>375</ele>
        <time>2015-06-24T16:23:37.000Z</time>
      </trkpt>
      <trkpt lat="47.50024" lon="6.75781">
        <ele>375</ele>
        <time>2015-06-24T16:23:38.000Z</time>
      </trkpt>
      <trkpt lat="47.50016" lon="6.75771">
        <ele>375</ele>
        <time>2015-06-24T16:23:39.000Z</time>
      </trkpt>
      <trkpt lat="47.50012" lon="6.75763">
        <ele>375</ele>
        <time>2015-06-24T16:23:40.000Z</time>
      </trkpt>
      <trkpt lat="47.50011" lon="6.75752">
        <ele>376</ele>
        <time>2015-06-24T16:23:41.000Z</time>
      </trkpt>
      <trkpt lat="47.50008" lon="6.75741">
        <ele>373</ele>
        <time>2015-06-24T16:23:42.000Z</time>
      </trkpt>
      <trkpt lat="47.49994" lon="6.75731">
        <ele>373</ele>
        <time>2015-06-24T16:23:43.000Z</time>
      </trkpt>
      <trkpt lat="47.49985" lon="6.75722">
        <ele>372</ele>
        <time>2015-06-24T16:23:44.000Z</time>
      </trkpt>
      <trkpt lat="47.49979" lon="6.75716">
        <ele>371</ele>
        <time>2015-06-24T16:23:45.000Z</time>
      </trkpt>
      <trkpt lat="47.49973" lon="6.75711">
        <ele>371</ele>
        <time>2015-06-24T16:23:46.000Z</time>
      </trkpt>
      <trkpt lat="47.49968" lon="6.75709">
        <ele>370</ele>
        <time>2015-06-24T16:23:47.000Z</time>
      </trkpt>
      <trkpt lat="47.49965" lon="6.75706">
        <ele>370</ele>
        <time>2015-06-24T16:23:48.000Z</time>
      </trkpt>
      <trkpt lat="47.49961" lon="6.75704">
        <ele>370</ele>
        <time>2015-06-24T16:23:49.000Z</time>
      </trkpt>
      <trkpt lat="47.49953" lon="6.75702">
        <ele>370</ele>
        <time>2015-06-24T16:23:50.000Z</time>
      </trkpt>
      <trkpt lat="47.49949" lon="6.757">
        <ele>370</ele>
        <time>2015-06-24T16:23:51.000Z</time>
      </trkpt>
      <trkpt lat="47.49934" lon="6.75698">
        <ele>370</ele>
        <time>2015-06-24T16:23:52.000Z</time>
      </trkpt>
      <trkpt lat="47.4992" lon="6.75699">
        <ele>369</ele>
        <time>2015-06-24T16:23:53.000Z</time>
      </trkpt>
      <trkpt lat="47.49909" lon="6.75701">
        <ele>365</ele>
        <time>2015-06-24T16:23:54.000Z</time>
      </trkpt>
      <trkpt lat="47.49902" lon="6.75702">
        <ele>364</ele>
        <time>2015-06-24T16:23:55.000Z</time>
      </trkpt>
      <trkpt lat="47.49896" lon="6.75702">
        <ele>364</ele>
        <time>2015-06-24T16:23:56.000Z</time>
      </trkpt>
      <trkpt lat="47.49893" lon="6.75703">
        <ele>364</ele>
        <time>2015-06-24T16:23:57.000Z</time>
      </trkpt>
      <trkpt lat="47.49887" lon="6.75703">
        <ele>363</ele>
        <time>2015-06-24T16:23:58.000Z</time>
      </trkpt>
      <trkpt lat="47.49855" lon="6.75715">
        <ele>361</ele>
        <time>2015-06-24T16:23:59.000Z</time>
      </trkpt>
      <trkpt lat="47.49841" lon="6.75719">
        <ele>361</ele>
        <time>2015-06-24T16:24:00.000Z</time>
      </trkpt>
      <trkpt lat="47.49813" lon="6.75732">
        <ele>353</ele>
        <time>2015-06-24T16:24:01.000Z</time>
      </trkpt>
      <trkpt lat="47.49802" lon="6.75735">
        <ele>353</ele>
        <time>2015-06-24T16:24:02.000Z</time>
      </trkpt>
      <trkpt lat="47.49782" lon="6.75741">
        <ele>351</ele>
        <time>2015-06-24T16:24:03.000Z</time>
      </trkpt>
      <trkpt lat="47.4976" lon="6.75749">
        <ele>351</ele>
        <time>2015-06-24T16:24:04.000Z</time>
      </trkpt>
      <trkpt lat="47.49743" lon="6.75757">
        <ele>352</ele>
        <time>2015-06-24T16:24:05.000Z</time>
      </trkpt>
      <trkpt lat="47.49732" lon="6.7576">
        <ele>353</ele>
        <time>2015-06-24T16:24:06.000Z</time>
      </trkpt>
      <trkpt lat="47.49721" lon="6.75762">
        <ele>353</ele>
        <time>2015-06-24T16:24:07.000Z</time>
      </trkpt>
      <trkpt lat="47.49713" lon="6.75764">
        <ele>353</ele>
        <time>2015-06-24T16:24:08.000Z</time>
      </trkpt>
      <trkpt lat="47.49698" lon="6.75767">
        <ele>352</ele>
        <time>2015-06-24T16:24:09.000Z</time>
      </trkpt>
      <trkpt lat="47.4969" lon="6.75766">
        <ele>351</ele>
        <time>2015-06-24T16:24:10.000Z</time>
      </trkpt>
      <trkpt lat="47.49681" lon="6.75766">
        <ele>350</ele>
        <time>2015-06-24T16:24:11.000Z</time>
      </trkpt>
      <trkpt lat="47.49672" lon="6.75765">
        <ele>349</ele>
        <time>2015-06-24T16:24:12.000Z</time>
      </trkpt>
      <trkpt lat="47.49667" lon="6.7576">
        <ele>347</ele>
        <time>2015-06-24T16:24:13.000Z</time>
      </trkpt>
      <trkpt lat="47.4966" lon="6.75756">
        <ele>345</ele>
        <time>2015-06-24T16:24:14.000Z</time>
      </trkpt>
      <trkpt lat="47.49648" lon="6.75756">
        <ele>345</ele>
        <time>2015-06-24T16:24:15.000Z</time>
      </trkpt>
      <trkpt lat="47.49638" lon="6.75754">
        <ele>344</ele>
        <time>2015-06-24T16:24:16.000Z</time>
      </trkpt>
      <trkpt lat="47.49627" lon="6.75757">
        <ele>344</ele>
        <time>2015-06-24T16:24:17.000Z</time>
      </trkpt>
      <trkpt lat="47.49624" lon="6.75756">
        <ele>344</ele>
        <time>2015-06-24T16:24:18.000Z</time>
      </trkpt>
      <trkpt lat="47.4962" lon="6.75753">
        <ele>343</ele>
        <time>2015-06-24T16:24:19.000Z</time>
      </trkpt>
      <trkpt lat="47.49616" lon="6.75753">
        <ele>343</ele>
        <time>2015-06-24T16:24:20.000Z</time>
      </trkpt>
      <trkpt lat="47.49613" lon="6.75751">
        <ele>342</ele>
        <time>2015-06-24T16:24:21.000Z</time>
      </trkpt>
      <trkpt lat="47.4961" lon="6.75747">
        <ele>333</ele>
        <time>2015-06-24T16:24:22.000Z</time>
      </trkpt>
      <trkpt lat="47.49607" lon="6.75743">
        <ele>333</ele>
        <time>2015-06-24T16:24:23.000Z</time>
      </trkpt>
      <trkpt lat="47.49604" lon="6.75735">
        <ele>333</ele>
        <time>2015-06-24T16:24:24.000Z</time>
      </trkpt>
      <trkpt lat="47.49601" lon="6.75728">
        <ele>332</ele>
        <time>2015-06-24T16:24:25.000Z</time>
      </trkpt>
      <trkpt lat="47.49598" lon="6.75732">
        <ele>332</ele>
        <time>2015-06-24T16:24:26.000Z</time>
      </trkpt>
      <trkpt lat="47.49591" lon="6.75736">
        <ele>333</ele>
        <time>2015-06-24T16:24:27.000Z</time>
      </trkpt>
      <trkpt lat="47.49585" lon="6.75739">
        <ele>333</ele>
        <time>2015-06-24T16:24:28.000Z</time>
      </trkpt>
      <trkpt lat="47.49582" lon="6.75738">
        <ele>330</ele>
        <time>2015-06-24T16:24:33.000Z</time>
      </trkpt>
      <trkpt lat="47.49578" lon="6.75736">
        <ele>330</ele>
        <time>2015-06-24T16:24:34.000Z</time>
      </trkpt>
      <trkpt lat="47.49574" lon="6.75737">
        <ele>329</ele>
        <time>2015-06-24T16:24:35.000Z</time>
      </trkpt>
      <trkpt lat="47.49568" lon="6.75739">
        <ele>329</ele>
        <time>2015-06-24T16:24:36.000Z</time>
      </trkpt>
      <trkpt lat="47.49563" lon="6.75743">
        <ele>329</ele>
        <time>2015-06-24T16:24:37.000Z</time>
      </trkpt>
      <trkpt lat="47.49551" lon="6.7575">
        <ele>334</ele>
        <time>2015-06-24T16:24:38.000Z</time>
      </trkpt>
      <trkpt lat="47.49547" lon="6.75753">
        <ele>334</ele>
        <time>2015-06-24T16:24:39.000Z</time>
      </trkpt>
      <trkpt lat="47.49543" lon="6.75756">
        <ele>334</ele>
        <time>2015-06-24T16:24:40.000Z</time>
      </trkpt>
      <trkpt lat="47.49538" lon="6.75759">
        <ele>334</ele>
        <time>2015-06-24T16:24:41.000Z</time>
      </trkpt>
      <trkpt lat="47.49534" lon="6.75762">
        <ele>333</ele>
        <time>2015-06-24T16:24:42.000Z</time>
      </trkpt>
      <trkpt lat="47.49529" lon="6.75766">
        <ele>333</ele>
        <time>2015-06-24T16:24:43.000Z</time>
      </trkpt>
      <trkpt lat="47.49525" lon="6.7577">
        <ele>333</ele>
        <time>2015-06-24T16:24:44.000Z</time>
      </trkpt>
      <trkpt lat="47.49519" lon="6.75773">
        <ele>333</ele>
        <time>2015-06-24T16:24:45.000Z</time>
      </trkpt>
      <trkpt lat="47.49514" lon="6.75775">
        <ele>333</ele>
        <time>2015-06-24T16:24:46.000Z</time>
      </trkpt>
      <trkpt lat="47.4951" lon="6.7578">
        <ele>333</ele>
        <time>2015-06-24T16:24:47.000Z</time>
      </trkpt>
      <trkpt lat="47.49505" lon="6.75783">
        <ele>333</ele>
        <time>2015-06-24T16:24:48.000Z</time>
      </trkpt>
      <trkpt lat="47.49499" lon="6.75785">
        <ele>329</ele>
        <time>2015-06-24T16:24:49.000Z</time>
      </trkpt>
      <trkpt lat="47.49494" lon="6.75789">
        <ele>329</ele>
        <time>2015-06-24T16:24:50.000Z</time>
      </trkpt>
      <trkpt lat="47.49489" lon="6.75791">
        <ele>329</ele>
        <time>2015-06-24T16:24:51.000Z</time>
      </trkpt>
      <trkpt lat="47.49483" lon="6.75796">
        <ele>330</ele>
        <time>2015-06-24T16:24:52.000Z</time>
      </trkpt>
      <trkpt lat="47.49477" lon="6.75799">
        <ele>330</ele>
        <time>2015-06-24T16:24:53.000Z</time>
      </trkpt>
      <trkpt lat="47.49472" lon="6.75803">
        <ele>330</ele>
        <time>2015-06-24T16:24:54.000Z</time>
      </trkpt>
      <trkpt lat="47.49466" lon="6.75806">
        <ele>330</ele>
        <time>2015-06-24T16:24:55.000Z</time>
      </trkpt>
      <trkpt lat="47.4946" lon="6.75809">
        <ele>330</ele>
        <time>2015-06-24T16:24:56.000Z</time>
      </trkpt>
      <trkpt lat="47.49454" lon="6.75811">
        <ele>330</ele>
        <time>2015-06-24T16:24:57.000Z</time>
      </trkpt>
      <trkpt lat="47.49448" lon="6.75816">
        <ele>330</ele>
        <time>2015-06-24T16:24:58.000Z</time>
      </trkpt>
      <trkpt lat="47.49442" lon="6.75822">
        <ele>330</ele>
        <time>2015-06-24T16:24:59.000Z</time>
      </trkpt>
      <trkpt lat="47.49436" lon="6.75826">
        <ele>330</ele>
        <time>2015-06-24T16:25:00.000Z</time>
      </trkpt>
      <trkpt lat="47.4943" lon="6.7583">
        <ele>331</ele>
        <time>2015-06-24T16:25:01.000Z</time>
      </trkpt>
      <trkpt lat="47.49423" lon="6.75832">
        <ele>331</ele>
        <time>2015-06-24T16:25:02.000Z</time>
      </trkpt>
      <trkpt lat="47.49418" lon="6.75835">
        <ele>333</ele>
        <time>2015-06-24T16:25:03.000Z</time>
      </trkpt>
      <trkpt lat="47.49412" lon="6.75838">
        <ele>332</ele>
        <time>2015-06-24T16:25:04.000Z</time>
      </trkpt>
      <trkpt lat="47.49405" lon="6.75843">
        <ele>332</ele>
        <time>2015-06-24T16:25:05.000Z</time>
      </trkpt>
      <trkpt lat="47.49398" lon="6.75843">
        <ele>332</ele>
        <time>2015-06-24T16:25:06.000Z</time>
      </trkpt>
      <trkpt lat="47.49391" lon="6.75844">
        <ele>332</ele>
        <time>2015-06-24T16:25:07.000Z</time>
      </trkpt>
      <trkpt lat="47.49384" lon="6.75843">
        <ele>332</ele>
        <time>2015-06-24T16:25:08.000Z</time>
      </trkpt>
      <trkpt lat="47.49377" lon="6.75843">
        <ele>331</ele>
        <time>2015-06-24T16:25:09.000Z</time>
      </trkpt>
      <trkpt lat="47.49371" lon="6.75846">
        <ele>331</ele>
        <time>2015-06-24T16:25:10.000Z</time>
      </trkpt>
      <trkpt lat="47.49366" lon="6.75851">
        <ele>330</ele>
        <time>2015-06-24T16:25:11.000Z</time>
      </trkpt>
      <trkpt lat="47.49361" lon="6.75856">
        <ele>330</ele>
        <time>2015-06-24T16:25:12.000Z</time>
      </trkpt>
      <trkpt lat="47.49359" lon="6.75869">
        <ele>331</ele>
        <time>2015-06-24T16:25:13.000Z</time>
      </trkpt>
      <trkpt lat="47.49355" lon="6.75875">
        <ele>331</ele>
        <time>2015-06-24T16:25:14.000Z</time>
      </trkpt>
      <trkpt lat="47.4935" lon="6.75881">
        <ele>331</ele>
        <time>2015-06-24T16:25:15.000Z</time>
      </trkpt>
      <trkpt lat="47.49345" lon="6.75887">
        <ele>332</ele>
        <time>2015-06-24T16:25:16.000Z</time>
      </trkpt>
      <trkpt lat="47.4934" lon="6.75893">
        <ele>332</ele>
        <time>2015-06-24T16:25:17.000Z</time>
      </trkpt>
      <trkpt lat="47.49336" lon="6.75901">
        <ele>332</ele>
        <time>2015-06-24T16:25:18.000Z</time>
      </trkpt>
      <trkpt lat="47.49331" lon="6.75907">
        <ele>328</ele>
        <time>2015-06-24T16:25:19.000Z</time>
      </trkpt>
      <trkpt lat="47.49326" lon="6.75913">
        <ele>328</ele>
        <time>2015-06-24T16:25:20.000Z</time>
      </trkpt>
      <trkpt lat="47.49322" lon="6.75918">
        <ele>329</ele>
        <time>2015-06-24T16:25:21.000Z</time>
      </trkpt>
      <trkpt lat="47.49317" lon="6.75923">
        <ele>329</ele>
        <time>2015-06-24T16:25:22.000Z</time>
      </trkpt>
      <trkpt lat="47.49312" lon="6.75928">
        <ele>328</ele>
        <time>2015-06-24T16:25:23.000Z</time>
      </trkpt>
      <trkpt lat="47.49306" lon="6.75936">
        <ele>328</ele>
        <time>2015-06-24T16:25:24.000Z</time>
      </trkpt>
      <trkpt lat="47.49302" lon="6.75942">
        <ele>328</ele>
        <time>2015-06-24T16:25:25.000Z</time>
      </trkpt>
      <trkpt lat="47.49298" lon="6.75948">
        <ele>327</ele>
        <time>2015-06-24T16:25:26.000Z</time>
      </trkpt>
      <trkpt lat="47.49293" lon="6.75952">
        <ele>327</ele>
        <time>2015-06-24T16:25:27.000Z</time>
      </trkpt>
      <trkpt lat="47.49287" lon="6.75958">
        <ele>327</ele>
        <time>2015-06-24T16:25:28.000Z</time>
      </trkpt>
      <trkpt lat="47.49282" lon="6.75963">
        <ele>327</ele>
        <time>2015-06-24T16:25:29.000Z</time>
      </trkpt>
      <trkpt lat="47.49277" lon="6.75971">
        <ele>326</ele>
        <time>2015-06-24T16:25:30.000Z</time>
      </trkpt>
      <trkpt lat="47.49273" lon="6.75979">
        <ele>326</ele>
        <time>2015-06-24T16:25:31.000Z</time>
      </trkpt>
      <trkpt lat="47.49268" lon="6.75987">
        <ele>326</ele>
        <time>2015-06-24T16:25:32.000Z</time>
      </trkpt>
      <trkpt lat="47.49264" lon="6.75995">
        <ele>325</ele>
        <time>2015-06-24T16:25:33.000Z</time>
      </trkpt>
      <trkpt lat="47.49259" lon="6.76001">
        <ele>326</ele>
        <time>2015-06-24T16:25:34.000Z</time>
      </trkpt>
      <trkpt lat="47.49253" lon="6.76008">
        <ele>326</ele>
        <time>2015-06-24T16:25:35.000Z</time>
      </trkpt>
      <trkpt lat="47.49247" lon="6.76014">
        <ele>322</ele>
        <time>2015-06-24T16:25:36.000Z</time>
      </trkpt>
      <trkpt lat="47.4924" lon="6.76018">
        <ele>322</ele>
        <time>2015-06-24T16:25:37.000Z</time>
      </trkpt>
      <trkpt lat="47.49233" lon="6.76023">
        <ele>322</ele>
        <time>2015-06-24T16:25:38.000Z</time>
      </trkpt>
      <trkpt lat="47.49226" lon="6.76028">
        <ele>322</ele>
        <time>2015-06-24T16:25:39.000Z</time>
      </trkpt>
      <trkpt lat="47.49228" lon="6.76042">
        <ele>322</ele>
        <time>2015-06-24T16:25:40.000Z</time>
      </trkpt>
      <trkpt lat="47.49226" lon="6.76052">
        <ele>322</ele>
        <time>2015-06-24T16:25:41.000Z</time>
      </trkpt>
      <trkpt lat="47.49224" lon="6.76061">
        <ele>322</ele>
        <time>2015-06-24T16:25:42.000Z</time>
      </trkpt>
      <trkpt lat="47.49223" lon="6.7607">
        <ele>323</ele>
        <time>2015-06-24T16:25:43.000Z</time>
      </trkpt>
      <trkpt lat="47.49223" lon="6.76082">
        <ele>323</ele>
        <time>2015-06-24T16:25:44.000Z</time>
      </trkpt>
      <trkpt lat="47.49222" lon="6.76092">
        <ele>323</ele>
        <time>2015-06-24T16:25:45.000Z</time>
      </trkpt>
      <trkpt lat="47.49221" lon="6.76103">
        <ele>323</ele>
        <time>2015-06-24T16:25:46.000Z</time>
      </trkpt>
      <trkpt lat="47.4922" lon="6.76114">
        <ele>323</ele>
        <time>2015-06-24T16:25:47.000Z</time>
      </trkpt>
      <trkpt lat="47.49219" lon="6.76124">
        <ele>322</ele>
        <time>2015-06-24T16:25:48.000Z</time>
      </trkpt>
      <trkpt lat="47.49219" lon="6.76133">
        <ele>322</ele>
        <time>2015-06-24T16:25:49.000Z</time>
      </trkpt>
      <trkpt lat="47.49219" lon="6.76144">
        <ele>322</ele>
        <time>2015-06-24T16:25:50.000Z</time>
      </trkpt>
      <trkpt lat="47.49219" lon="6.76153">
        <ele>323</ele>
        <time>2015-06-24T16:25:51.000Z</time>
      </trkpt>
      <trkpt lat="47.49215" lon="6.76163">
        <ele>322</ele>
        <time>2015-06-24T16:25:52.000Z</time>
      </trkpt>
      <trkpt lat="47.49213" lon="6.76173">
        <ele>322</ele>
        <time>2015-06-24T16:25:53.000Z</time>
      </trkpt>
      <trkpt lat="47.49212" lon="6.76182">
        <ele>321</ele>
        <time>2015-06-24T16:25:54.000Z</time>
      </trkpt>
      <trkpt lat="47.49215" lon="6.76187">
        <ele>322</ele>
        <time>2015-06-24T16:25:55.000Z</time>
      </trkpt>
      <trkpt lat="47.49216" lon="6.76197">
        <ele>321</ele>
        <time>2015-06-24T16:25:56.000Z</time>
      </trkpt>
      <trkpt lat="47.49215" lon="6.76206">
        <ele>321</ele>
        <time>2015-06-24T16:25:57.000Z</time>
      </trkpt>
      <trkpt lat="47.49216" lon="6.76215">
        <ele>321</ele>
        <time>2015-06-24T16:25:58.000Z</time>
      </trkpt>
      <trkpt lat="47.49217" lon="6.76225">
        <ele>321</ele>
        <time>2015-06-24T16:25:59.000Z</time>
      </trkpt>
      <trkpt lat="47.49218" lon="6.76234">
        <ele>321</ele>
        <time>2015-06-24T16:26:00.000Z</time>
      </trkpt>
      <trkpt lat="47.49221" lon="6.76244">
        <ele>321</ele>
        <time>2015-06-24T16:26:01.000Z</time>
      </trkpt>
      <trkpt lat="47.49222" lon="6.76252">
        <ele>321</ele>
        <time>2015-06-24T16:26:02.000Z</time>
      </trkpt>
      <trkpt lat="47.49223" lon="6.76261">
        <ele>321</ele>
        <time>2015-06-24T16:26:03.000Z</time>
      </trkpt>
      <trkpt lat="47.49223" lon="6.76269">
        <ele>321</ele>
        <time>2015-06-24T16:26:04.000Z</time>
      </trkpt>
      <trkpt lat="47.49224" lon="6.76277">
        <ele>321</ele>
        <time>2015-06-24T16:26:05.000Z</time>
      </trkpt>
      <trkpt lat="47.49225" lon="6.76285">
        <ele>321</ele>
        <time>2015-06-24T16:26:06.000Z</time>
      </trkpt>
      <trkpt lat="47.49226" lon="6.76293">
        <ele>321</ele>
        <time>2015-06-24T16:26:07.000Z</time>
      </trkpt>
      <trkpt lat="47.49226" lon="6.76301">
        <ele>321</ele>
        <time>2015-06-24T16:26:08.000Z</time>
      </trkpt>
      <trkpt lat="47.49226" lon="6.76308">
        <ele>321</ele>
        <time>2015-06-24T16:26:09.000Z</time>
      </trkpt>
      <trkpt lat="47.49228" lon="6.76315">
        <ele>321</ele>
        <time>2015-06-24T16:26:10.000Z</time>
      </trkpt>
      <trkpt lat="47.49228" lon="6.76323">
        <ele>321</ele>
        <time>2015-06-24T16:26:11.000Z</time>
      </trkpt>
      <trkpt lat="47.49228" lon="6.7633">
        <ele>322</ele>
        <time>2015-06-24T16:26:12.000Z</time>
      </trkpt>
      <trkpt lat="47.49228" lon="6.76338">
        <ele>321</ele>
        <time>2015-06-24T16:26:13.000Z</time>
      </trkpt>
      <trkpt lat="47.49228" lon="6.76345">
        <ele>321</ele>
        <time>2015-06-24T16:26:14.000Z</time>
      </trkpt>
      <trkpt lat="47.49229" lon="6.76352">
        <ele>321</ele>
        <time>2015-06-24T16:26:15.000Z</time>
      </trkpt>
      <trkpt lat="47.4923" lon="6.76362">
        <ele>321</ele>
        <time>2015-06-24T16:26:16.000Z</time>
      </trkpt>
      <trkpt lat="47.49231" lon="6.7637">
        <ele>320</ele>
        <time>2015-06-24T16:26:17.000Z</time>
      </trkpt>
      <trkpt lat="47.49231" lon="6.76378">
        <ele>320</ele>
        <time>2015-06-24T16:26:18.000Z</time>
      </trkpt>
      <trkpt lat="47.49232" lon="6.76385">
        <ele>320</ele>
        <time>2015-06-24T16:26:19.000Z</time>
      </trkpt>
      <trkpt lat="47.49232" lon="6.76394">
        <ele>321</ele>
        <time>2015-06-24T16:26:20.000Z</time>
      </trkpt>
      <trkpt lat="47.49232" lon="6.76402">
        <ele>321</ele>
        <time>2015-06-24T16:26:21.000Z</time>
      </trkpt>
      <trkpt lat="47.49233" lon="6.7641">
        <ele>321</ele>
        <time>2015-06-24T16:26:22.000Z</time>
      </trkpt>
      <trkpt lat="47.49233" lon="6.76417">
        <ele>321</ele>
        <time>2015-06-24T16:26:23.000Z</time>
      </trkpt>
      <trkpt lat="47.49233" lon="6.76425">
        <ele>321</ele>
        <time>2015-06-24T16:26:24.000Z</time>
      </trkpt>
      <trkpt lat="47.49232" lon="6.76432">
        <ele>320</ele>
        <time>2015-06-24T16:26:25.000Z</time>
      </trkpt>
      <trkpt lat="47.49232" lon="6.76438">
        <ele>320</ele>
        <time>2015-06-24T16:26:26.000Z</time>
      </trkpt>
      <trkpt lat="47.49233" lon="6.76444">
        <ele>320</ele>
        <time>2015-06-24T16:26:27.000Z</time>
      </trkpt>
      <trkpt lat="47.49233" lon="6.7645">
        <ele>319</ele>
        <time>2015-06-24T16:26:28.000Z</time>
      </trkpt>
      <trkpt lat="47.49232" lon="6.76454">
        <ele>319</ele>
        <time>2015-06-24T16:26:29.000Z</time>
      </trkpt>
      <trkpt lat="47.49232" lon="6.7646">
        <ele>319</ele>
        <time>2015-06-24T16:26:30.000Z</time>
      </trkpt>
      <trkpt lat="47.49232" lon="6.76466">
        <ele>319</ele>
        <time>2015-06-24T16:26:31.000Z</time>
      </trkpt>
      <trkpt lat="47.49232" lon="6.76472">
        <ele>319</ele>
        <time>2015-06-24T16:26:32.000Z</time>
      </trkpt>
      <trkpt lat="47.49232" lon="6.76479">
        <ele>319</ele>
        <time>2015-06-24T16:26:33.000Z</time>
      </trkpt>
      <trkpt lat="47.4923" lon="6.76484">
        <ele>319</ele>
        <time>2015-06-24T16:26:34.000Z</time>
      </trkpt>
      <trkpt lat="47.49229" lon="6.76489">
        <ele>319</ele>
        <time>2015-06-24T16:26:35.000Z</time>
      </trkpt>
      <trkpt lat="47.49228" lon="6.76493">
        <ele>319</ele>
        <time>2015-06-24T16:26:36.000Z</time>
      </trkpt>
      <trkpt lat="47.49225" lon="6.76496">
        <ele>319</ele>
        <time>2015-06-24T16:26:37.000Z</time>
      </trkpt>
      <trkpt lat="47.49223" lon="6.76498">
        <ele>319</ele>
        <time>2015-06-24T16:26:38.000Z</time>
      </trkpt>
      <trkpt lat="47.4922" lon="6.76497">
        <ele>319</ele>
        <time>2015-06-24T16:26:39.000Z</time>
      </trkpt>
      <trkpt lat="47.49217" lon="6.76495">
        <ele>319</ele>
        <time>2015-06-24T16:26:40.000Z</time>
      </trkpt>
      <trkpt lat="47.49215" lon="6.76493">
        <ele>318</ele>
        <time>2015-06-24T16:26:41.000Z</time>
      </trkpt>
      <trkpt lat="47.49217" lon="6.76489">
        <ele>318</ele>
        <time>2015-06-24T16:26:46.000Z</time>
      </trkpt>
      <trkpt lat="47.49221" lon="6.76489">
        <ele>319</ele>
        <time>2015-06-24T16:26:47.000Z</time>
      </trkpt>
      <trkpt lat="47.49225" lon="6.76488">
        <ele>319</ele>
        <time>2015-06-24T16:26:48.000Z</time>
      </trkpt>
      <trkpt lat="47.49229" lon="6.76487">
        <ele>319</ele>
        <time>2015-06-24T16:26:49.000Z</time>
      </trkpt>
      <trkpt lat="47.49232" lon="6.76488">
        <ele>320</ele>
        <time>2015-06-24T16:26:50.000Z</time>
      </trkpt>
      <trkpt lat="47.49235" lon="6.76491">
        <ele>320</ele>
        <time>2015-06-24T16:26:51.000Z</time>
      </trkpt>
      <trkpt lat="47.49236" lon="6.76496">
        <ele>320</ele>
        <time>2015-06-24T16:26:52.000Z</time>
      </trkpt>
      <trkpt lat="47.49237" lon="6.76502">
        <ele>320</ele>
        <time>2015-06-24T16:26:53.000Z</time>
      </trkpt>
      <trkpt lat="47.49236" lon="6.76508">
        <ele>320</ele>
        <time>2015-06-24T16:26:54.000Z</time>
      </trkpt>
      <trkpt lat="47.49236" lon="6.76515">
        <ele>319</ele>
        <time>2015-06-24T16:26:55.000Z</time>
      </trkpt>
      <trkpt lat="47.49235" lon="6.76523">
        <ele>319</ele>
        <time>2015-06-24T16:26:56.000Z</time>
      </trkpt>
      <trkpt lat="47.49234" lon="6.76536">
        <ele>318</ele>
        <time>2015-06-24T16:26:57.000Z</time>
      </trkpt>
      <trkpt lat="47.49235" lon="6.76543">
        <ele>318</ele>
        <time>2015-06-24T16:26:58.000Z</time>
      </trkpt>
      <trkpt lat="47.49234" lon="6.7655">
        <ele>318</ele>
        <time>2015-06-24T16:26:59.000Z</time>
      </trkpt>
      <trkpt lat="47.49234" lon="6.76559">
        <ele>318</ele>
        <time>2015-06-24T16:27:00.000Z</time>
      </trkpt>
      <trkpt lat="47.49234" lon="6.76566">
        <ele>319</ele>
        <time>2015-06-24T16:27:01.000Z</time>
      </trkpt>
      <trkpt lat="47.49233" lon="6.76574">
        <ele>319</ele>
        <time>2015-06-24T16:27:02.000Z</time>
      </trkpt>
      <trkpt lat="47.49233" lon="6.76582">
        <ele>319</ele>
        <time>2015-06-24T16:27:03.000Z</time>
      </trkpt>
      <trkpt lat="47.49233" lon="6.76591">
        <ele>318</ele>
        <time>2015-06-24T16:27:04.000Z</time>
      </trkpt>
      <trkpt lat="47.49233" lon="6.76599">
        <ele>318</ele>
        <time>2015-06-24T16:27:05.000Z</time>
      </trkpt>
      <trkpt lat="47.49232" lon="6.76608">
        <ele>318</ele>
        <time>2015-06-24T16:27:06.000Z</time>
      </trkpt>
      <trkpt lat="47.49233" lon="6.76616">
        <ele>318</ele>
        <time>2015-06-24T16:27:07.000Z</time>
      </trkpt>
      <trkpt lat="47.49232" lon="6.76625">
        <ele>317</ele>
        <time>2015-06-24T16:27:08.000Z</time>
      </trkpt>
      <trkpt lat="47.49231" lon="6.76633">
        <ele>317</ele>
        <time>2015-06-24T16:27:09.000Z</time>
      </trkpt>
      <trkpt lat="47.49231" lon="6.76642">
        <ele>317</ele>
        <time>2015-06-24T16:27:10.000Z</time>
      </trkpt>
      <trkpt lat="47.49231" lon="6.76651">
        <ele>317</ele>
        <time>2015-06-24T16:27:11.000Z</time>
      </trkpt>
      <trkpt lat="47.4923" lon="6.7666">
        <ele>318</ele>
        <time>2015-06-24T16:27:12.000Z</time>
      </trkpt>
      <trkpt lat="47.49229" lon="6.76668">
        <ele>317</ele>
        <time>2015-06-24T16:27:13.000Z</time>
      </trkpt>
      <trkpt lat="47.49229" lon="6.76675">
        <ele>317</ele>
        <time>2015-06-24T16:27:14.000Z</time>
      </trkpt>
      <trkpt lat="47.49229" lon="6.76684">
        <ele>317</ele>
        <time>2015-06-24T16:27:15.000Z</time>
      </trkpt>
      <trkpt lat="47.49229" lon="6.76692">
        <ele>317</ele>
        <time>2015-06-24T16:27:16.000Z</time>
      </trkpt>
      <trkpt lat="47.49229" lon="6.767">
        <ele>317</ele>
        <time>2015-06-24T16:27:17.000Z</time>
      </trkpt>
      <trkpt lat="47.49229" lon="6.76708">
        <ele>317</ele>
        <time>2015-06-24T16:27:18.000Z</time>
      </trkpt>
      <trkpt lat="47.49232" lon="6.76715">
        <ele>317</ele>
        <time>2015-06-24T16:27:19.000Z</time>
      </trkpt>
      <trkpt lat="47.49233" lon="6.76719">
        <ele>317</ele>
        <time>2015-06-24T16:27:20.000Z</time>
      </trkpt>
      <trkpt lat="47.49234" lon="6.76723">
        <ele>317</ele>
        <time>2015-06-24T16:27:21.000Z</time>
      </trkpt>
      <trkpt lat="47.49234" lon="6.76728">
        <ele>317</ele>
        <time>2015-06-24T16:27:22.000Z</time>
      </trkpt>
      <trkpt lat="47.49234" lon="6.76735">
        <ele>317</ele>
        <time>2015-06-24T16:27:23.000Z</time>
      </trkpt>
      <trkpt lat="47.49234" lon="6.7674">
        <ele>317</ele>
        <time>2015-06-24T16:27:24.000Z</time>
      </trkpt>
      <trkpt lat="47.49235" lon="6.76745">
        <ele>317</ele>
        <time>2015-06-24T16:27:25.000Z</time>
      </trkpt>
      <trkpt lat="47.49236" lon="6.7675">
        <ele>317</ele>
        <time>2015-06-24T16:27:26.000Z</time>
      </trkpt>
      <trkpt lat="47.49237" lon="6.76752">
        <ele>317</ele>
        <time>2015-06-24T16:27:27.000Z</time>
      </trkpt>
      <trkpt lat="47.49236" lon="6.76746">
        <ele>317</ele>
        <time>2015-06-24T16:27:34.000Z</time>
      </trkpt>
      <trkpt lat="47.49236" lon="6.76744">
        <ele>317</ele>
        <time>2015-06-24T16:27:35.000Z</time>
      </trkpt>
      <trkpt lat="47.49236" lon="6.7674">
        <ele>317</ele>
        <time>2015-06-24T16:27:36.000Z</time>
      </trkpt>
      <trkpt lat="47.49235" lon="6.76737">
        <ele>317</ele>
        <time>2015-06-24T16:27:37.000Z</time>
      </trkpt>
      <trkpt lat="47.49235" lon="6.76732">
        <ele>317</ele>
        <time>2015-06-24T16:27:38.000Z</time>
      </trkpt>
      <trkpt lat="47.49236" lon="6.76727">
        <ele>317</ele>
        <time>2015-06-24T16:27:39.000Z</time>
      </trkpt>
      <trkpt lat="47.49236" lon="6.76722">
        <ele>317</ele>
        <time>2015-06-24T16:27:40.000Z</time>
      </trkpt>
      <trkpt lat="47.49237" lon="6.76717">
        <ele>317</ele>
        <time>2015-06-24T16:27:41.000Z</time>
      </trkpt>
      <trkpt lat="47.49238" lon="6.76712">
        <ele>317</ele>
        <time>2015-06-24T16:27:42.000Z</time>
      </trkpt>
      <trkpt lat="47.49239" lon="6.76707">
        <ele>317</ele>
        <time>2015-06-24T16:27:43.000Z</time>
      </trkpt>
      <trkpt lat="47.4924" lon="6.76702">
        <ele>317</ele>
        <time>2015-06-24T16:27:44.000Z</time>
      </trkpt>
      <trkpt lat="47.49241" lon="6.76697">
        <ele>317</ele>
        <time>2015-06-24T16:27:45.000Z</time>
      </trkpt>
      <trkpt lat="47.49241" lon="6.76691">
        <ele>317</ele>
        <time>2015-06-24T16:27:46.000Z</time>
      </trkpt>
      <trkpt lat="47.49241" lon="6.76686">
        <ele>317</ele>
        <time>2015-06-24T16:27:47.000Z</time>
      </trkpt>
      <trkpt lat="47.49242" lon="6.7668">
        <ele>318</ele>
        <time>2015-06-24T16:27:48.000Z</time>
      </trkpt>
      <trkpt lat="47.49243" lon="6.76676">
        <ele>318</ele>
        <time>2015-06-24T16:27:49.000Z</time>
      </trkpt>
      <trkpt lat="47.49244" lon="6.76672">
        <ele>318</ele>
        <time>2015-06-24T16:27:50.000Z</time>
      </trkpt>
      <trkpt lat="47.49246" lon="6.76668">
        <ele>318</ele>
        <time>2015-06-24T16:27:51.000Z</time>
      </trkpt>
      <trkpt lat="47.49247" lon="6.76665">
        <ele>319</ele>
        <time>2015-06-24T16:27:52.000Z</time>
      </trkpt>
      <trkpt lat="47.49248" lon="6.76662">
        <ele>319</ele>
        <time>2015-06-24T16:27:53.000Z</time>
      </trkpt>
      <trkpt lat="47.49249" lon="6.76659">
        <ele>318</ele>
        <time>2015-06-24T16:27:54.000Z</time>
      </trkpt>
      <trkpt lat="47.49251" lon="6.76656">
        <ele>321</ele>
        <time>2015-06-24T16:27:55.000Z</time>
      </trkpt>
      <trkpt lat="47.49252" lon="6.76653">
        <ele>322</ele>
        <time>2015-06-24T16:27:56.000Z</time>
      </trkpt>
      <trkpt lat="47.49254" lon="6.7665">
        <ele>322</ele>
        <time>2015-06-24T16:27:57.000Z</time>
      </trkpt>
      <trkpt lat="47.49255" lon="6.76647">
        <ele>323</ele>
        <time>2015-06-24T16:27:58.000Z</time>
      </trkpt>
      <trkpt lat="47.49257" lon="6.76643">
        <ele>323</ele>
        <time>2015-06-24T16:27:59.000Z</time>
      </trkpt>
      <trkpt lat="47.49258" lon="6.7664">
        <ele>323</ele>
        <time>2015-06-24T16:28:00.000Z</time>
      </trkpt>
      <trkpt lat="47.4926" lon="6.76637">
        <ele>324</ele>
        <time>2015-06-24T16:28:01.000Z</time>
      </trkpt>
      <trkpt lat="47.49262" lon="6.76633">
        <ele>324</ele>
        <time>2015-06-24T16:28:02.000Z</time>
      </trkpt>
      <trkpt lat="47.49263" lon="6.76631">
        <ele>324</ele>
        <time>2015-06-24T16:28:03.000Z</time>
      </trkpt>
      <trkpt lat="47.49265" lon="6.76628">
        <ele>324</ele>
        <time>2015-06-24T16:28:04.000Z</time>
      </trkpt>
      <trkpt lat="47.49266" lon="6.76625">
        <ele>325</ele>
        <time>2015-06-24T16:28:05.000Z</time>
      </trkpt>
      <trkpt lat="47.49268" lon="6.76621">
        <ele>325</ele>
        <time>2015-06-24T16:28:06.000Z</time>
      </trkpt>
      <trkpt lat="47.4927" lon="6.76618">
        <ele>325</ele>
        <time>2015-06-24T16:28:07.000Z</time>
      </trkpt>
      <trkpt lat="47.49271" lon="6.76615">
        <ele>325</ele>
        <time>2015-06-24T16:28:08.000Z</time>
      </trkpt>
      <trkpt lat="47.49273" lon="6.76613">
        <ele>325</ele>
        <time>2015-06-24T16:28:09.000Z</time>
      </trkpt>
      <trkpt lat="47.49275" lon="6.76609">
        <ele>325</ele>
        <time>2015-06-24T16:28:11.000Z</time>
      </trkpt>
      <trkpt lat="47.49276" lon="6.76607">
        <ele>325</ele>
        <time>2015-06-24T16:28:12.000Z</time>
      </trkpt>
      <trkpt lat="47.49279" lon="6.76603">
        <ele>326</ele>
        <time>2015-06-24T16:28:14.000Z</time>
      </trkpt>
      <trkpt lat="47.4928" lon="6.76603">
        <ele>326</ele>
        <time>2015-06-24T16:28:15.000Z</time>
      </trkpt>
      <trkpt lat="47.49283" lon="6.76605">
        <ele>326</ele>
        <time>2015-06-24T16:28:17.000Z</time>
      </trkpt>
      <trkpt lat="47.49285" lon="6.76607">
        <ele>326</ele>
        <time>2015-06-24T16:28:18.000Z</time>
      </trkpt>
      <trkpt lat="47.49288" lon="6.7661">
        <ele>326</ele>
        <time>2015-06-24T16:28:20.000Z</time>
      </trkpt>
      <trkpt lat="47.4929" lon="6.7661">
        <ele>327</ele>
        <time>2015-06-24T16:28:21.000Z</time>
      </trkpt>
      <trkpt lat="47.49294" lon="6.76609">
        <ele>327</ele>
        <time>2015-06-24T16:28:23.000Z</time>
      </trkpt>
      <trkpt lat="47.49296" lon="6.76608">
        <ele>327</ele>
        <time>2015-06-24T16:28:24.000Z</time>
      </trkpt>
      <trkpt lat="47.493" lon="6.76609">
        <ele>327</ele>
        <time>2015-06-24T16:28:26.000Z</time>
      </trkpt>
      <trkpt lat="47.49302" lon="6.7661">
        <ele>328</ele>
        <time>2015-06-24T16:28:27.000Z</time>
      </trkpt>
      <trkpt lat="47.49306" lon="6.76612">
        <ele>328</ele>
        <time>2015-06-24T16:28:29.000Z</time>
      </trkpt>
      <trkpt lat="47.49308" lon="6.76612">
        <ele>328</ele>
        <time>2015-06-24T16:28:30.000Z</time>
      </trkpt>
      <trkpt lat="47.4931" lon="6.76612">
        <ele>328</ele>
        <time>2015-06-24T16:28:31.000Z</time>
      </trkpt>
      <trkpt lat="47.49313" lon="6.76612">
        <ele>328</ele>
        <time>2015-06-24T16:28:32.000Z</time>
      </trkpt>
      <trkpt lat="47.49315" lon="6.76612">
        <ele>329</ele>
        <time>2015-06-24T16:28:33.000Z</time>
      </trkpt>
      <trkpt lat="47.49318" lon="6.76612">
        <ele>329</ele>
        <time>2015-06-24T16:28:34.000Z</time>
      </trkpt>
      <trkpt lat="47.4932" lon="6.76611">
        <ele>329</ele>
        <time>2015-06-24T16:28:35.000Z</time>
      </trkpt>
      <trkpt lat="47.49323" lon="6.7661">
        <ele>329</ele>
        <time>2015-06-24T16:28:36.000Z</time>
      </trkpt>
      <trkpt lat="47.49325" lon="6.76609">
        <ele>330</ele>
        <time>2015-06-24T16:28:37.000Z</time>
      </trkpt>
      <trkpt lat="47.49328" lon="6.76607">
        <ele>330</ele>
        <time>2015-06-24T16:28:38.000Z</time>
      </trkpt>
      <trkpt lat="47.49332" lon="6.76606">
        <ele>330</ele>
        <time>2015-06-24T16:28:40.000Z</time>
      </trkpt>
      <trkpt lat="47.49334" lon="6.76607">
        <ele>336</ele>
        <time>2015-06-24T16:28:41.000Z</time>
      </trkpt>
      <trkpt lat="47.49338" lon="6.76609">
        <ele>336</ele>
        <time>2015-06-24T16:28:43.000Z</time>
      </trkpt>
      <trkpt lat="47.49341" lon="6.76609">
        <ele>336</ele>
        <time>2015-06-24T16:28:44.000Z</time>
      </trkpt>
      <trkpt lat="47.49345" lon="6.76609">
        <ele>336</ele>
        <time>2015-06-24T16:28:46.000Z</time>
      </trkpt>
      <trkpt lat="47.49347" lon="6.76609">
        <ele>336</ele>
        <time>2015-06-24T16:28:47.000Z</time>
      </trkpt>
      <trkpt lat="47.49351" lon="6.76611">
        <ele>336</ele>
        <time>2015-06-24T16:28:49.000Z</time>
      </trkpt>
      <trkpt lat="47.49353" lon="6.76613">
        <ele>336</ele>
        <time>2015-06-24T16:28:50.000Z</time>
      </trkpt>
      <trkpt lat="47.49357" lon="6.76614">
        <ele>336</ele>
        <time>2015-06-24T16:28:52.000Z</time>
      </trkpt>
      <trkpt lat="47.49359" lon="6.76614">
        <ele>336</ele>
        <time>2015-06-24T16:28:53.000Z</time>
      </trkpt>
      <trkpt lat="47.49363" lon="6.76615">
        <ele>337</ele>
        <time>2015-06-24T16:28:55.000Z</time>
      </trkpt>
      <trkpt lat="47.49365" lon="6.76615">
        <ele>337</ele>
        <time>2015-06-24T16:28:56.000Z</time>
      </trkpt>
      <trkpt lat="47.49368" lon="6.76615">
        <ele>337</ele>
        <time>2015-06-24T16:28:58.000Z</time>
      </trkpt>
      <trkpt lat="47.4937" lon="6.76615">
        <ele>337</ele>
        <time>2015-06-24T16:28:59.000Z</time>
      </trkpt>
      <trkpt lat="47.49374" lon="6.76615">
        <ele>337</ele>
        <time>2015-06-24T16:29:01.000Z</time>
      </trkpt>
      <trkpt lat="47.49376" lon="6.76615">
        <ele>337</ele>
        <time>2015-06-24T16:29:02.000Z</time>
      </trkpt>
      <trkpt lat="47.4938" lon="6.76615">
        <ele>338</ele>
        <time>2015-06-24T16:29:04.000Z</time>
      </trkpt>
      <trkpt lat="47.49383" lon="6.76614">
        <ele>338</ele>
        <time>2015-06-24T16:29:05.000Z</time>
      </trkpt>
      <trkpt lat="47.49385" lon="6.76614">
        <ele>338</ele>
        <time>2015-06-24T16:29:06.000Z</time>
      </trkpt>
      <trkpt lat="47.49388" lon="6.76613">
        <ele>338</ele>
        <time>2015-06-24T16:29:07.000Z</time>
      </trkpt>
      <trkpt lat="47.49391" lon="6.76613">
        <ele>338</ele>
        <time>2015-06-24T16:29:08.000Z</time>
      </trkpt>
      <trkpt lat="47.49393" lon="6.76613">
        <ele>339</ele>
        <time>2015-06-24T16:29:09.000Z</time>
      </trkpt>
      <trkpt lat="47.49396" lon="6.76613">
        <ele>339</ele>
        <time>2015-06-24T16:29:10.000Z</time>
      </trkpt>
      <trkpt lat="47.49398" lon="6.76613">
        <ele>339</ele>
        <time>2015-06-24T16:29:11.000Z</time>
      </trkpt>
      <trkpt lat="47.494" lon="6.76613">
        <ele>339</ele>
        <time>2015-06-24T16:29:12.000Z</time>
      </trkpt>
      <trkpt lat="47.49402" lon="6.76614">
        <ele>339</ele>
        <time>2015-06-24T16:29:13.000Z</time>
      </trkpt>
      <trkpt lat="47.49407" lon="6.76613">
        <ele>340</ele>
        <time>2015-06-24T16:29:15.000Z</time>
      </trkpt>
      <trkpt lat="47.49409" lon="6.76612">
        <ele>340</ele>
        <time>2015-06-24T16:29:16.000Z</time>
      </trkpt>
      <trkpt lat="47.49413" lon="6.76612">
        <ele>340</ele>
        <time>2015-06-24T16:29:18.000Z</time>
      </trkpt>
      <trkpt lat="47.49414" lon="6.76612">
        <ele>340</ele>
        <time>2015-06-24T16:29:19.000Z</time>
      </trkpt>
      <trkpt lat="47.49418" lon="6.76611">
        <ele>345</ele>
        <time>2015-06-24T16:29:22.000Z</time>
      </trkpt>
      <trkpt lat="47.49419" lon="6.76611">
        <ele>345</ele>
        <time>2015-06-24T16:29:23.000Z</time>
      </trkpt>
      <trkpt lat="47.49423" lon="6.76611">
        <ele>345</ele>
        <time>2015-06-24T16:29:34.000Z</time>
      </trkpt>
      <trkpt lat="47.49424" lon="6.76612">
        <ele>345</ele>
        <time>2015-06-24T16:29:35.000Z</time>
      </trkpt>
      <trkpt lat="47.49424" lon="6.76616">
        <ele>344</ele>
        <time>2015-06-24T16:29:38.000Z</time>
      </trkpt>
      <trkpt lat="47.49424" lon="6.76618">
        <ele>344</ele>
        <time>2015-06-24T16:29:39.000Z</time>
      </trkpt>
      <trkpt lat="47.49424" lon="6.76612">
        <ele>345</ele>
        <time>2015-06-24T16:32:38.000Z</time>
      </trkpt>
      <trkpt lat="47.49425" lon="6.76611">
        <ele>345</ele>
        <time>2015-06-24T16:32:39.000Z</time>
      </trkpt>
      <trkpt lat="47.49421" lon="6.76607">
        <ele>345</ele>
        <time>2015-06-24T16:33:38.000Z</time>
      </trkpt>
      <trkpt lat="47.49421" lon="6.76607">
        <ele>345</ele>
        <time>2015-06-24T16:33:39.000Z</time>
      </trkpt>
      <trkpt lat="47.49417" lon="6.76605">
        <ele>345</ele>
        <time>2015-06-24T16:34:19.000Z</time>
      </trkpt>
      <trkpt lat="47.49416" lon="6.76604">
        <ele>341</ele>
        <time>2015-06-24T16:34:20.000Z</time>
      </trkpt>
      <trkpt lat="47.49413" lon="6.76603">
        <ele>341</ele>
        <time>2015-06-24T16:34:26.000Z</time>
      </trkpt>
      <trkpt lat="47.49412" lon="6.76602">
        <ele>341</ele>
        <time>2015-06-24T16:34:27.000Z</time>
      </trkpt>
      <trkpt lat="47.49409" lon="6.76601">
        <ele>341</ele>
        <time>2015-06-24T16:34:29.000Z</time>
      </trkpt>
      <trkpt lat="47.49407" lon="6.76601">
        <ele>341</ele>
        <time>2015-06-24T16:34:30.000Z</time>
      </trkpt>
      <trkpt lat="47.49404" lon="6.76601">
        <ele>341</ele>
        <time>2015-06-24T16:34:31.000Z</time>
      </trkpt>
      <trkpt lat="47.49401" lon="6.76601">
        <ele>341</ele>
        <time>2015-06-24T16:34:32.000Z</time>
      </trkpt>
      <trkpt lat="47.49398" lon="6.76601">
        <ele>340</ele>
        <time>2015-06-24T16:34:33.000Z</time>
      </trkpt>
      <trkpt lat="47.49395" lon="6.766">
        <ele>340</ele>
        <time>2015-06-24T16:34:34.000Z</time>
      </trkpt>
      <trkpt lat="47.49391" lon="6.766">
        <ele>340</ele>
        <time>2015-06-24T16:34:35.000Z</time>
      </trkpt>
      <trkpt lat="47.49389" lon="6.766">
        <ele>339</ele>
        <time>2015-06-24T16:34:36.000Z</time>
      </trkpt>
      <trkpt lat="47.49385" lon="6.76599">
        <ele>339</ele>
        <time>2015-06-24T16:34:38.000Z</time>
      </trkpt>
      <trkpt lat="47.49384" lon="6.76598">
        <ele>339</ele>
        <time>2015-06-24T16:34:39.000Z</time>
      </trkpt>
      <trkpt lat="47.49382" lon="6.76597">
        <ele>339</ele>
        <time>2015-06-24T16:34:41.000Z</time>
      </trkpt>
      <trkpt lat="47.4938" lon="6.76596">
        <ele>339</ele>
        <time>2015-06-24T16:34:42.000Z</time>
      </trkpt>
      <trkpt lat="47.49376" lon="6.76595">
        <ele>338</ele>
        <time>2015-06-24T16:34:43.000Z</time>
      </trkpt>
      <trkpt lat="47.49368" lon="6.76595">
        <ele>338</ele>
        <time>2015-06-24T16:34:44.000Z</time>
      </trkpt>
      <trkpt lat="47.49363" lon="6.76594">
        <ele>337</ele>
        <time>2015-06-24T16:34:45.000Z</time>
      </trkpt>
      <trkpt lat="47.49358" lon="6.76595">
        <ele>337</ele>
        <time>2015-06-24T16:34:46.000Z</time>
      </trkpt>
      <trkpt lat="47.49354" lon="6.76595">
        <ele>337</ele>
        <time>2015-06-24T16:34:47.000Z</time>
      </trkpt>
      <trkpt lat="47.49349" lon="6.76595">
        <ele>337</ele>
        <time>2015-06-24T16:34:48.000Z</time>
      </trkpt>
      <trkpt lat="47.49344" lon="6.76594">
        <ele>336</ele>
        <time>2015-06-24T16:34:49.000Z</time>
      </trkpt>
      <trkpt lat="47.49338" lon="6.76593">
        <ele>336</ele>
        <time>2015-06-24T16:34:50.000Z</time>
      </trkpt>
      <trkpt lat="47.49333" lon="6.76592">
        <ele>333</ele>
        <time>2015-06-24T16:34:51.000Z</time>
      </trkpt>
      <trkpt lat="47.49327" lon="6.76594">
        <ele>332</ele>
        <time>2015-06-24T16:34:52.000Z</time>
      </trkpt>
      <trkpt lat="47.49321" lon="6.76594">
        <ele>331</ele>
        <time>2015-06-24T16:34:53.000Z</time>
      </trkpt>
      <trkpt lat="47.49315" lon="6.76593">
        <ele>330</ele>
        <time>2015-06-24T16:34:54.000Z</time>
      </trkpt>
      <trkpt lat="47.49308" lon="6.76593">
        <ele>329</ele>
        <time>2015-06-24T16:34:55.000Z</time>
      </trkpt>
      <trkpt lat="47.49302" lon="6.76592">
        <ele>328</ele>
        <time>2015-06-24T16:34:56.000Z</time>
      </trkpt>
      <trkpt lat="47.49296" lon="6.76591">
        <ele>328</ele>
        <time>2015-06-24T16:34:57.000Z</time>
      </trkpt>
      <trkpt lat="47.49291" lon="6.76591">
        <ele>327</ele>
        <time>2015-06-24T16:34:58.000Z</time>
      </trkpt>
      <trkpt lat="47.49285" lon="6.76594">
        <ele>326</ele>
        <time>2015-06-24T16:34:59.000Z</time>
      </trkpt>
      <trkpt lat="47.49279" lon="6.76601">
        <ele>326</ele>
        <time>2015-06-24T16:35:00.000Z</time>
      </trkpt>
      <trkpt lat="47.49274" lon="6.76608">
        <ele>325</ele>
        <time>2015-06-24T16:35:01.000Z</time>
      </trkpt>
      <trkpt lat="47.49269" lon="6.76616">
        <ele>325</ele>
        <time>2015-06-24T16:35:02.000Z</time>
      </trkpt>
      <trkpt lat="47.49265" lon="6.76624">
        <ele>324</ele>
        <time>2015-06-24T16:35:03.000Z</time>
      </trkpt>
      <trkpt lat="47.4926" lon="6.76631">
        <ele>324</ele>
        <time>2015-06-24T16:35:04.000Z</time>
      </trkpt>
      <trkpt lat="47.49256" lon="6.76639">
        <ele>323</ele>
        <time>2015-06-24T16:35:05.000Z</time>
      </trkpt>
      <trkpt lat="47.49252" lon="6.76646">
        <ele>323</ele>
        <time>2015-06-24T16:35:06.000Z</time>
      </trkpt>
      <trkpt lat="47.49249" lon="6.76653">
        <ele>318</ele>
        <time>2015-06-24T16:35:07.000Z</time>
      </trkpt>
      <trkpt lat="47.49246" lon="6.76662">
        <ele>318</ele>
        <time>2015-06-24T16:35:08.000Z</time>
      </trkpt>
      <trkpt lat="47.49242" lon="6.76669">
        <ele>318</ele>
        <time>2015-06-24T16:35:09.000Z</time>
      </trkpt>
      <trkpt lat="47.4924" lon="6.76678">
        <ele>318</ele>
        <time>2015-06-24T16:35:10.000Z</time>
      </trkpt>
      <trkpt lat="47.49238" lon="6.76686">
        <ele>317</ele>
        <time>2015-06-24T16:35:11.000Z</time>
      </trkpt>
      <trkpt lat="47.49237" lon="6.76694">
        <ele>317</ele>
        <time>2015-06-24T16:35:12.000Z</time>
      </trkpt>
      <trkpt lat="47.49238" lon="6.76703">
        <ele>317</ele>
        <time>2015-06-24T16:35:13.000Z</time>
      </trkpt>
      <trkpt lat="47.49237" lon="6.76711">
        <ele>317</ele>
        <time>2015-06-24T16:35:14.000Z</time>
      </trkpt>
      <trkpt lat="47.49237" lon="6.76718">
        <ele>317</ele>
        <time>2015-06-24T16:35:15.000Z</time>
      </trkpt>
      <trkpt lat="47.49237" lon="6.76723">
        <ele>317</ele>
        <time>2015-06-24T16:35:16.000Z</time>
      </trkpt>
      <trkpt lat="47.49236" lon="6.76727">
        <ele>317</ele>
        <time>2015-06-24T16:35:17.000Z</time>
      </trkpt>
      <trkpt lat="47.49235" lon="6.76733">
        <ele>317</ele>
        <time>2015-06-24T16:35:26.000Z</time>
      </trkpt>
      <trkpt lat="47.49237" lon="6.76735">
        <ele>317</ele>
        <time>2015-06-24T16:35:27.000Z</time>
      </trkpt>
      <trkpt lat="47.49238" lon="6.76741">
        <ele>317</ele>
        <time>2015-06-24T16:35:53.000Z</time>
      </trkpt>
      <trkpt lat="47.49238" lon="6.76744">
        <ele>317</ele>
        <time>2015-06-24T16:35:54.000Z</time>
      </trkpt>
      <trkpt lat="47.49237" lon="6.76747">
        <ele>317</ele>
        <time>2015-06-24T16:35:55.000Z</time>
      </trkpt>
      <trkpt lat="47.49236" lon="6.76751">
        <ele>317</ele>
        <time>2015-06-24T16:35:56.000Z</time>
      </trkpt>
      <trkpt lat="47.49234" lon="6.76752">
        <ele>317</ele>
        <time>2015-06-24T16:35:57.000Z</time>
      </trkpt>
      <trkpt lat="47.49231" lon="6.76753">
        <ele>316</ele>
        <time>2015-06-24T16:35:58.000Z</time>
      </trkpt>
      <trkpt lat="47.49226" lon="6.76753">
        <ele>316</ele>
        <time>2015-06-24T16:35:59.000Z</time>
      </trkpt>
      <trkpt lat="47.49215" lon="6.76754">
        <ele>316</ele>
        <time>2015-06-24T16:36:00.000Z</time>
      </trkpt>
      <trkpt lat="47.49209" lon="6.76756">
        <ele>315</ele>
        <time>2015-06-24T16:36:01.000Z</time>
      </trkpt>
      <trkpt lat="47.49203" lon="6.76758">
        <ele>315</ele>
        <time>2015-06-24T16:36:02.000Z</time>
      </trkpt>
      <trkpt lat="47.49197" lon="6.76763">
        <ele>315</ele>
        <time>2015-06-24T16:36:03.000Z</time>
      </trkpt>
      <trkpt lat="47.49191" lon="6.76768">
        <ele>315</ele>
        <time>2015-06-24T16:36:04.000Z</time>
      </trkpt>
      <trkpt lat="47.49185" lon="6.76773">
        <ele>315</ele>
        <time>2015-06-24T16:36:05.000Z</time>
      </trkpt>
      <trkpt lat="47.49179" lon="6.76776">
        <ele>314</ele>
        <time>2015-06-24T16:36:06.000Z</time>
      </trkpt>
      <trkpt lat="47.49174" lon="6.7678">
        <ele>314</ele>
        <time>2015-06-24T16:36:07.000Z</time>
      </trkpt>
      <trkpt lat="47.49168" lon="6.76783">
        <ele>314</ele>
        <time>2015-06-24T16:36:08.000Z</time>
      </trkpt>
      <trkpt lat="47.49164" lon="6.76787">
        <ele>313</ele>
        <time>2015-06-24T16:36:09.000Z</time>
      </trkpt>
      <trkpt lat="47.49159" lon="6.7679">
        <ele>313</ele>
        <time>2015-06-24T16:36:10.000Z</time>
      </trkpt>
      <trkpt lat="47.49155" lon="6.76794">
        <ele>312</ele>
        <time>2015-06-24T16:36:11.000Z</time>
      </trkpt>
      <trkpt lat="47.4915" lon="6.76799">
        <ele>312</ele>
        <time>2015-06-24T16:36:12.000Z</time>
      </trkpt>
      <trkpt lat="47.4915" lon="6.76805">
        <ele>312</ele>
        <time>2015-06-24T16:36:13.000Z</time>
      </trkpt>
      <trkpt lat="47.49148" lon="6.76809">
        <ele>312</ele>
        <time>2015-06-24T16:36:14.000Z</time>
      </trkpt>
      <trkpt lat="47.49148" lon="6.76815">
        <ele>312</ele>
        <time>2015-06-24T16:36:15.000Z</time>
      </trkpt>
      <trkpt lat="47.49148" lon="6.7682">
        <ele>313</ele>
        <time>2015-06-24T16:36:16.000Z</time>
      </trkpt>
      <trkpt lat="47.49147" lon="6.76827">
        <ele>313</ele>
        <time>2015-06-24T16:36:17.000Z</time>
      </trkpt>
      <trkpt lat="47.49147" lon="6.76834">
        <ele>312</ele>
        <time>2015-06-24T16:36:18.000Z</time>
      </trkpt>
      <trkpt lat="47.49147" lon="6.7684">
        <ele>312</ele>
        <time>2015-06-24T16:36:19.000Z</time>
      </trkpt>
      <trkpt lat="47.49147" lon="6.76849">
        <ele>312</ele>
        <time>2015-06-24T16:36:20.000Z</time>
      </trkpt>
      <trkpt lat="47.49147" lon="6.76856">
        <ele>312</ele>
        <time>2015-06-24T16:36:21.000Z</time>
      </trkpt>
      <trkpt lat="47.49146" lon="6.76863">
        <ele>312</ele>
        <time>2015-06-24T16:36:22.000Z</time>
      </trkpt>
      <trkpt lat="47.49145" lon="6.7687">
        <ele>312</ele>
        <time>2015-06-24T16:36:23.000Z</time>
      </trkpt>
      <trkpt lat="47.49144" lon="6.76876">
        <ele>312</ele>
        <time>2015-06-24T16:36:24.000Z</time>
      </trkpt>
      <trkpt lat="47.49144" lon="6.76882">
        <ele>312</ele>
        <time>2015-06-24T16:36:25.000Z</time>
      </trkpt>
      <trkpt lat="47.49144" lon="6.76889">
        <ele>312</ele>
        <time>2015-06-24T16:36:26.000Z</time>
      </trkpt>
      <trkpt lat="47.49144" lon="6.76896">
        <ele>312</ele>
        <time>2015-06-24T16:36:27.000Z</time>
      </trkpt>
      <trkpt lat="47.49144" lon="6.76903">
        <ele>312</ele>
        <time>2015-06-24T16:36:28.000Z</time>
      </trkpt>
      <trkpt lat="47.49145" lon="6.7691">
        <ele>312</ele>
        <time>2015-06-24T16:36:29.000Z</time>
      </trkpt>
      <trkpt lat="47.49145" lon="6.76916">
        <ele>312</ele>
        <time>2015-06-24T16:36:30.000Z</time>
      </trkpt>
      <trkpt lat="47.49145" lon="6.76922">
        <ele>312</ele>
        <time>2015-06-24T16:36:31.000Z</time>
      </trkpt>
      <trkpt lat="47.49144" lon="6.76929">
        <ele>312</ele>
        <time>2015-06-24T16:36:32.000Z</time>
      </trkpt>
      <trkpt lat="47.49144" lon="6.76935">
        <ele>312</ele>
        <time>2015-06-24T16:36:33.000Z</time>
      </trkpt>
      <trkpt lat="47.49144" lon="6.7694">
        <ele>312</ele>
        <time>2015-06-24T16:36:34.000Z</time>
      </trkpt>
      <trkpt lat="47.49143" lon="6.76946">
        <ele>312</ele>
        <time>2015-06-24T16:36:35.000Z</time>
      </trkpt>
      <trkpt lat="47.49142" lon="6.76951">
        <ele>312</ele>
        <time>2015-06-24T16:36:36.000Z</time>
      </trkpt>
      <trkpt lat="47.49141" lon="6.76957">
        <ele>312</ele>
        <time>2015-06-24T16:36:37.000Z</time>
      </trkpt>
      <trkpt lat="47.49141" lon="6.76963">
        <ele>312</ele>
        <time>2015-06-24T16:36:38.000Z</time>
      </trkpt>
      <trkpt lat="47.4914" lon="6.76969">
        <ele>312</ele>
        <time>2015-06-24T16:36:39.000Z</time>
      </trkpt>
      <trkpt lat="47.49141" lon="6.76975">
        <ele>312</ele>
        <time>2015-06-24T16:36:40.000Z</time>
      </trkpt>
      <trkpt lat="47.49145" lon="6.76985">
        <ele>312</ele>
        <time>2015-06-24T16:36:41.000Z</time>
      </trkpt>
      <trkpt lat="47.49147" lon="6.76992">
        <ele>312</ele>
        <time>2015-06-24T16:36:42.000Z</time>
      </trkpt>
      <trkpt lat="47.49149" lon="6.76998">
        <ele>312</ele>
        <time>2015-06-24T16:36:43.000Z</time>
      </trkpt>
      <trkpt lat="47.49152" lon="6.77006">
        <ele>312</ele>
        <time>2015-06-24T16:36:44.000Z</time>
      </trkpt>
      <trkpt lat="47.49156" lon="6.77012">
        <ele>312</ele>
        <time>2015-06-24T16:36:45.000Z</time>
      </trkpt>
      <trkpt lat="47.49158" lon="6.77018">
        <ele>312</ele>
        <time>2015-06-24T16:36:46.000Z</time>
      </trkpt>
      <trkpt lat="47.4916" lon="6.77024">
        <ele>312</ele>
        <time>2015-06-24T16:36:47.000Z</time>
      </trkpt>
      <trkpt lat="47.4916" lon="6.77033">
        <ele>312</ele>
        <time>2015-06-24T16:36:48.000Z</time>
      </trkpt>
      <trkpt lat="47.49161" lon="6.7704">
        <ele>312</ele>
        <time>2015-06-24T16:36:49.000Z</time>
      </trkpt>
      <trkpt lat="47.49162" lon="6.77048">
        <ele>312</ele>
        <time>2015-06-24T16:36:50.000Z</time>
      </trkpt>
      <trkpt lat="47.49163" lon="6.77055">
        <ele>312</ele>
        <time>2015-06-24T16:36:51.000Z</time>
      </trkpt>
      <trkpt lat="47.49163" lon="6.77062">
        <ele>312</ele>
        <time>2015-06-24T16:36:52.000Z</time>
      </trkpt>
      <trkpt lat="47.49164" lon="6.77069">
        <ele>312</ele>
        <time>2015-06-24T16:36:53.000Z</time>
      </trkpt>
      <trkpt lat="47.49166" lon="6.77075">
        <ele>312</ele>
        <time>2015-06-24T16:36:54.000Z</time>
      </trkpt>
      <trkpt lat="47.49166" lon="6.77081">
        <ele>312</ele>
        <time>2015-06-24T16:36:55.000Z</time>
      </trkpt>
      <trkpt lat="47.49168" lon="6.77087">
        <ele>312</ele>
        <time>2015-06-24T16:36:56.000Z</time>
      </trkpt>
      <trkpt lat="47.49169" lon="6.77094">
        <ele>312</ele>
        <time>2015-06-24T16:36:57.000Z</time>
      </trkpt>
      <trkpt lat="47.49171" lon="6.771">
        <ele>312</ele>
        <time>2015-06-24T16:36:58.000Z</time>
      </trkpt>
      <trkpt lat="47.49171" lon="6.77105">
        <ele>312</ele>
        <time>2015-06-24T16:36:59.000Z</time>
      </trkpt>
      <trkpt lat="47.49171" lon="6.77108">
        <ele>312</ele>
        <time>2015-06-24T16:37:00.000Z</time>
      </trkpt>
      <trkpt lat="47.4917" lon="6.77112">
        <ele>313</ele>
        <time>2015-06-24T16:37:03.000Z</time>
      </trkpt>
      <trkpt lat="47.4917" lon="6.77114">
        <ele>313</ele>
        <time>2015-06-24T16:37:04.000Z</time>
      </trkpt>
      <trkpt lat="47.49169" lon="6.7712">
        <ele>313</ele>
        <time>2015-06-24T16:37:07.000Z</time>
      </trkpt>
      <trkpt lat="47.49169" lon="6.77122">
        <ele>313</ele>
        <time>2015-06-24T16:37:08.000Z</time>
      </trkpt>
      <trkpt lat="47.4917" lon="6.77126">
        <ele>313</ele>
        <time>2015-06-24T16:37:10.000Z</time>
      </trkpt>
      <trkpt lat="47.49171" lon="6.77128">
        <ele>313</ele>
        <time>2015-06-24T16:37:11.000Z</time>
      </trkpt>
      <trkpt lat="47.49173" lon="6.77131">
        <ele>313</ele>
        <time>2015-06-24T16:37:12.000Z</time>
      </trkpt>
      <trkpt lat="47.49175" lon="6.77135">
        <ele>313</ele>
        <time>2015-06-24T16:37:13.000Z</time>
      </trkpt>
      <trkpt lat="47.49177" lon="6.7714">
        <ele>313</ele>
        <time>2015-06-24T16:37:14.000Z</time>
      </trkpt>
      <trkpt lat="47.49179" lon="6.77145">
        <ele>313</ele>
        <time>2015-06-24T16:37:15.000Z</time>
      </trkpt>
      <trkpt lat="47.4918" lon="6.77151">
        <ele>313</ele>
        <time>2015-06-24T16:37:16.000Z</time>
      </trkpt>
      <trkpt lat="47.49179" lon="6.77156">
        <ele>313</ele>
        <time>2015-06-24T16:37:17.000Z</time>
      </trkpt>
      <trkpt lat="47.4918" lon="6.77163">
        <ele>313</ele>
        <time>2015-06-24T16:37:18.000Z</time>
      </trkpt>
      <trkpt lat="47.4918" lon="6.77169">
        <ele>313</ele>
        <time>2015-06-24T16:37:19.000Z</time>
      </trkpt>
      <trkpt lat="47.49181" lon="6.77175">
        <ele>313</ele>
        <time>2015-06-24T16:37:20.000Z</time>
      </trkpt>
      <trkpt lat="47.49181" lon="6.77181">
        <ele>313</ele>
        <time>2015-06-24T16:37:21.000Z</time>
      </trkpt>
      <trkpt lat="47.49182" lon="6.77188">
        <ele>313</ele>
        <time>2015-06-24T16:37:22.000Z</time>
      </trkpt>
      <trkpt lat="47.49182" lon="6.77194">
        <ele>312</ele>
        <time>2015-06-24T16:37:23.000Z</time>
      </trkpt>
      <trkpt lat="47.49182" lon="6.77204">
        <ele>312</ele>
        <time>2015-06-24T16:37:24.000Z</time>
      </trkpt>
      <trkpt lat="47.49182" lon="6.77209">
        <ele>312</ele>
        <time>2015-06-24T16:37:25.000Z</time>
      </trkpt>
      <trkpt lat="47.49182" lon="6.77215">
        <ele>312</ele>
        <time>2015-06-24T16:37:26.000Z</time>
      </trkpt>
      <trkpt lat="47.49181" lon="6.77222">
        <ele>312</ele>
        <time>2015-06-24T16:37:27.000Z</time>
      </trkpt>
      <trkpt lat="47.49181" lon="6.77228">
        <ele>312</ele>
        <time>2015-06-24T16:37:28.000Z</time>
      </trkpt>
      <trkpt lat="47.49181" lon="6.77233">
        <ele>312</ele>
        <time>2015-06-24T16:37:29.000Z</time>
      </trkpt>
      <trkpt lat="47.49182" lon="6.77236">
        <ele>312</ele>
        <time>2015-06-24T16:37:30.000Z</time>
      </trkpt>
      <trkpt lat="47.49183" lon="6.77241">
        <ele>312</ele>
        <time>2015-06-24T16:37:31.000Z</time>
      </trkpt>
      <trkpt lat="47.49183" lon="6.77246">
        <ele>312</ele>
        <time>2015-06-24T16:37:32.000Z</time>
      </trkpt>
      <trkpt lat="47.49182" lon="6.77251">
        <ele>311</ele>
        <time>2015-06-24T16:37:33.000Z</time>
      </trkpt>
      <trkpt lat="47.49182" lon="6.77256">
        <ele>311</ele>
        <time>2015-06-24T16:37:34.000Z</time>
      </trkpt>
      <trkpt lat="47.49181" lon="6.77261">
        <ele>311</ele>
        <time>2015-06-24T16:37:35.000Z</time>
      </trkpt>
      <trkpt lat="47.4918" lon="6.77267">
        <ele>311</ele>
        <time>2015-06-24T16:37:36.000Z</time>
      </trkpt>
      <trkpt lat="47.49179" lon="6.77271">
        <ele>311</ele>
        <time>2015-06-24T16:37:37.000Z</time>
      </trkpt>
      <trkpt lat="47.49179" lon="6.77277">
        <ele>311</ele>
        <time>2015-06-24T16:37:38.000Z</time>
      </trkpt>
      <trkpt lat="47.49179" lon="6.77283">
        <ele>311</ele>
        <time>2015-06-24T16:37:39.000Z</time>
      </trkpt>
      <trkpt lat="47.4918" lon="6.77294">
        <ele>311</ele>
        <time>2015-06-24T16:37:40.000Z</time>
      </trkpt>
      <trkpt lat="47.4918" lon="6.77299">
        <ele>311</ele>
        <time>2015-06-24T16:37:41.000Z</time>
      </trkpt>
      <trkpt lat="47.4918" lon="6.77306">
        <ele>311</ele>
        <time>2015-06-24T16:37:42.000Z</time>
      </trkpt>
      <trkpt lat="47.49179" lon="6.77312">
        <ele>311</ele>
        <time>2015-06-24T16:37:43.000Z</time>
      </trkpt>
      <trkpt lat="47.49177" lon="6.77317">
        <ele>310</ele>
        <time>2015-06-24T16:37:44.000Z</time>
      </trkpt>
      <trkpt lat="47.49174" lon="6.7732">
        <ele>310</ele>
        <time>2015-06-24T16:37:45.000Z</time>
      </trkpt>
      <trkpt lat="47.49172" lon="6.77324">
        <ele>310</ele>
        <time>2015-06-24T16:37:46.000Z</time>
      </trkpt>
      <trkpt lat="47.49167" lon="6.77325">
        <ele>310</ele>
        <time>2015-06-24T16:37:48.000Z</time>
      </trkpt>
      <trkpt lat="47.49165" lon="6.77326">
        <ele>310</ele>
        <time>2015-06-24T16:37:49.000Z</time>
      </trkpt>
      <trkpt lat="47.49162" lon="6.77327">
        <ele>310</ele>
        <time>2015-06-24T16:37:50.000Z</time>
      </trkpt>
      <trkpt lat="47.49158" lon="6.77326">
        <ele>310</ele>
        <time>2015-06-24T16:37:51.000Z</time>
      </trkpt>
      <trkpt lat="47.49153" lon="6.77326">
        <ele>311</ele>
        <time>2015-06-24T16:37:52.000Z</time>
      </trkpt>
      <trkpt lat="47.49149" lon="6.77326">
        <ele>311</ele>
        <time>2015-06-24T16:37:53.000Z</time>
      </trkpt>
      <trkpt lat="47.49145" lon="6.77325">
        <ele>311</ele>
        <time>2015-06-24T16:37:54.000Z</time>
      </trkpt>
      <trkpt lat="47.4914" lon="6.77324">
        <ele>311</ele>
        <time>2015-06-24T16:37:55.000Z</time>
      </trkpt>
      <trkpt lat="47.49135" lon="6.77324">
        <ele>311</ele>
        <time>2015-06-24T16:37:56.000Z</time>
      </trkpt>
      <trkpt lat="47.4913" lon="6.77324">
        <ele>311</ele>
        <time>2015-06-24T16:37:57.000Z</time>
      </trkpt>
      <trkpt lat="47.49125" lon="6.77324">
        <ele>311</ele>
        <time>2015-06-24T16:37:58.000Z</time>
      </trkpt>
      <trkpt lat="47.49119" lon="6.77324">
        <ele>311</ele>
        <time>2015-06-24T16:37:59.000Z</time>
      </trkpt>
      <trkpt lat="47.49114" lon="6.77324">
        <ele>311</ele>
        <time>2015-06-24T16:38:00.000Z</time>
      </trkpt>
      <trkpt lat="47.49109" lon="6.77323">
        <ele>311</ele>
        <time>2015-06-24T16:38:01.000Z</time>
      </trkpt>
      <trkpt lat="47.49104" lon="6.77323">
        <ele>311</ele>
        <time>2015-06-24T16:38:02.000Z</time>
      </trkpt>
      <trkpt lat="47.49098" lon="6.77323">
        <ele>311</ele>
        <time>2015-06-24T16:38:03.000Z</time>
      </trkpt>
      <trkpt lat="47.49093" lon="6.77323">
        <ele>311</ele>
        <time>2015-06-24T16:38:04.000Z</time>
      </trkpt>
      <trkpt lat="47.49087" lon="6.77324">
        <ele>311</ele>
        <time>2015-06-24T16:38:05.000Z</time>
      </trkpt>
      <trkpt lat="47.49083" lon="6.77323">
        <ele>311</ele>
        <time>2015-06-24T16:38:06.000Z</time>
      </trkpt>
      <trkpt lat="47.49077" lon="6.77323">
        <ele>311</ele>
        <time>2015-06-24T16:38:07.000Z</time>
      </trkpt>
      <trkpt lat="47.49072" lon="6.77321">
        <ele>311</ele>
        <time>2015-06-24T16:38:08.000Z</time>
      </trkpt>
      <trkpt lat="47.49065" lon="6.77326">
        <ele>311</ele>
        <time>2015-06-24T16:38:09.000Z</time>
      </trkpt>
      <trkpt lat="47.49059" lon="6.77327">
        <ele>311</ele>
        <time>2015-06-24T16:38:10.000Z</time>
      </trkpt>
      <trkpt lat="47.49054" lon="6.77325">
        <ele>311</ele>
        <time>2015-06-24T16:38:11.000Z</time>
      </trkpt>
      <trkpt lat="47.49049" lon="6.77323">
        <ele>311</ele>
        <time>2015-06-24T16:38:12.000Z</time>
      </trkpt>
      <trkpt lat="47.49043" lon="6.77324">
        <ele>311</ele>
        <time>2015-06-24T16:38:13.000Z</time>
      </trkpt>
      <trkpt lat="47.49038" lon="6.77322">
        <ele>311</ele>
        <time>2015-06-24T16:38:14.000Z</time>
      </trkpt>
      <trkpt lat="47.49033" lon="6.77322">
        <ele>311</ele>
        <time>2015-06-24T16:38:15.000Z</time>
      </trkpt>
      <trkpt lat="47.49028" lon="6.7732">
        <ele>311</ele>
        <time>2015-06-24T16:38:16.000Z</time>
      </trkpt>
      <trkpt lat="47.49024" lon="6.77318">
        <ele>311</ele>
        <time>2015-06-24T16:38:17.000Z</time>
      </trkpt>
      <trkpt lat="47.49019" lon="6.77316">
        <ele>311</ele>
        <time>2015-06-24T16:38:18.000Z</time>
      </trkpt>
      <trkpt lat="47.49014" lon="6.77315">
        <ele>311</ele>
        <time>2015-06-24T16:38:19.000Z</time>
      </trkpt>
      <trkpt lat="47.49008" lon="6.77316">
        <ele>311</ele>
        <time>2015-06-24T16:38:20.000Z</time>
      </trkpt>
      <trkpt lat="47.49004" lon="6.77313">
        <ele>311</ele>
        <time>2015-06-24T16:38:21.000Z</time>
      </trkpt>
      <trkpt lat="47.48999" lon="6.77312">
        <ele>311</ele>
        <time>2015-06-24T16:38:22.000Z</time>
      </trkpt>
      <trkpt lat="47.48994" lon="6.77312">
        <ele>311</ele>
        <time>2015-06-24T16:38:23.000Z</time>
      </trkpt>
      <trkpt lat="47.48988" lon="6.77313">
        <ele>311</ele>
        <time>2015-06-24T16:38:24.000Z</time>
      </trkpt>
      <trkpt lat="47.48982" lon="6.77313">
        <ele>311</ele>
        <time>2015-06-24T16:38:25.000Z</time>
      </trkpt>
      <trkpt lat="47.48976" lon="6.77313">
        <ele>311</ele>
        <time>2015-06-24T16:38:26.000Z</time>
      </trkpt>
      <trkpt lat="47.48971" lon="6.77312">
        <ele>311</ele>
        <time>2015-06-24T16:38:27.000Z</time>
      </trkpt>
      <trkpt lat="47.48965" lon="6.77313">
        <ele>311</ele>
        <time>2015-06-24T16:38:28.000Z</time>
      </trkpt>
      <trkpt lat="47.4896" lon="6.77312">
        <ele>311</ele>
        <time>2015-06-24T16:38:29.000Z</time>
      </trkpt>
      <trkpt lat="47.48954" lon="6.7731">
        <ele>311</ele>
        <time>2015-06-24T16:38:30.000Z</time>
      </trkpt>
      <trkpt lat="47.48949" lon="6.77308">
        <ele>311</ele>
        <time>2015-06-24T16:38:31.000Z</time>
      </trkpt>
      <trkpt lat="47.48944" lon="6.77306">
        <ele>311</ele>
        <time>2015-06-24T16:38:32.000Z</time>
      </trkpt>
      <trkpt lat="47.48938" lon="6.77304">
        <ele>311</ele>
        <time>2015-06-24T16:38:33.000Z</time>
      </trkpt>
      <trkpt lat="47.48932" lon="6.77302">
        <ele>311</ele>
        <time>2015-06-24T16:38:34.000Z</time>
      </trkpt>
      <trkpt lat="47.48926" lon="6.77299">
        <ele>311</ele>
        <time>2015-06-24T16:38:35.000Z</time>
      </trkpt>
      <trkpt lat="47.4892" lon="6.77298">
        <ele>311</ele>
        <time>2015-06-24T16:38:36.000Z</time>
      </trkpt>
      <trkpt lat="47.48915" lon="6.77294">
        <ele>310</ele>
        <time>2015-06-24T16:38:37.000Z</time>
      </trkpt>
      <trkpt lat="47.48909" lon="6.77293">
        <ele>310</ele>
        <time>2015-06-24T16:38:38.000Z</time>
      </trkpt>
      <trkpt lat="47.48904" lon="6.77291">
        <ele>310</ele>
        <time>2015-06-24T16:38:39.000Z</time>
      </trkpt>
      <trkpt lat="47.48898" lon="6.77288">
        <ele>310</ele>
        <time>2015-06-24T16:38:40.000Z</time>
      </trkpt>
      <trkpt lat="47.48893" lon="6.77285">
        <ele>310</ele>
        <time>2015-06-24T16:38:41.000Z</time>
      </trkpt>
      <trkpt lat="47.48887" lon="6.77284">
        <ele>310</ele>
        <time>2015-06-24T16:38:42.000Z</time>
      </trkpt>
      <trkpt lat="47.48882" lon="6.77282">
        <ele>310</ele>
        <time>2015-06-24T16:38:43.000Z</time>
      </trkpt>
      <trkpt lat="47.48877" lon="6.7728">
        <ele>310</ele>
        <time>2015-06-24T16:38:44.000Z</time>
      </trkpt>
      <trkpt lat="47.48872" lon="6.77278">
        <ele>310</ele>
        <time>2015-06-24T16:38:45.000Z</time>
      </trkpt>
      <trkpt lat="47.48867" lon="6.77276">
        <ele>310</ele>
        <time>2015-06-24T16:38:46.000Z</time>
      </trkpt>
      <trkpt lat="47.48861" lon="6.77272">
        <ele>310</ele>
        <time>2015-06-24T16:38:47.000Z</time>
      </trkpt>
      <trkpt lat="47.48857" lon="6.77269">
        <ele>310</ele>
        <time>2015-06-24T16:38:48.000Z</time>
      </trkpt>
      <trkpt lat="47.48852" lon="6.77265">
        <ele>310</ele>
        <time>2015-06-24T16:38:49.000Z</time>
      </trkpt>
      <trkpt lat="47.48846" lon="6.77262">
        <ele>310</ele>
        <time>2015-06-24T16:38:50.000Z</time>
      </trkpt>
      <trkpt lat="47.48841" lon="6.77257">
        <ele>311</ele>
        <time>2015-06-24T16:38:51.000Z</time>
      </trkpt>
      <trkpt lat="47.48836" lon="6.77253">
        <ele>311</ele>
        <time>2015-06-24T16:38:52.000Z</time>
      </trkpt>
      <trkpt lat="47.48829" lon="6.77251">
        <ele>311</ele>
        <time>2015-06-24T16:38:53.000Z</time>
      </trkpt>
      <trkpt lat="47.48823" lon="6.77246">
        <ele>311</ele>
        <time>2015-06-24T16:38:54.000Z</time>
      </trkpt>
      <trkpt lat="47.48817" lon="6.77242">
        <ele>311</ele>
        <time>2015-06-24T16:38:55.000Z</time>
      </trkpt>
      <trkpt lat="47.48811" lon="6.77238">
        <ele>311</ele>
        <time>2015-06-24T16:38:56.000Z</time>
      </trkpt>
      <trkpt lat="47.48805" lon="6.77234">
        <ele>311</ele>
        <time>2015-06-24T16:38:57.000Z</time>
      </trkpt>
      <trkpt lat="47.488" lon="6.7723">
        <ele>310</ele>
        <time>2015-06-24T16:38:58.000Z</time>
      </trkpt>
      <trkpt lat="47.48794" lon="6.77225">
        <ele>310</ele>
        <time>2015-06-24T16:38:59.000Z</time>
      </trkpt>
      <trkpt lat="47.48788" lon="6.7722">
        <ele>310</ele>
        <time>2015-06-24T16:39:00.000Z</time>
      </trkpt>
      <trkpt lat="47.48783" lon="6.77216">
        <ele>310</ele>
        <time>2015-06-24T16:39:01.000Z</time>
      </trkpt>
      <trkpt lat="47.48777" lon="6.77211">
        <ele>310</ele>
        <time>2015-06-24T16:39:02.000Z</time>
      </trkpt>
      <trkpt lat="47.48772" lon="6.77207">
        <ele>310</ele>
        <time>2015-06-24T16:39:03.000Z</time>
      </trkpt>
      <trkpt lat="47.48766" lon="6.77203">
        <ele>310</ele>
        <time>2015-06-24T16:39:04.000Z</time>
      </trkpt>
      <trkpt lat="47.4876" lon="6.772">
        <ele>310</ele>
        <time>2015-06-24T16:39:05.000Z</time>
      </trkpt>
      <trkpt lat="47.48755" lon="6.77196">
        <ele>311</ele>
        <time>2015-06-24T16:39:06.000Z</time>
      </trkpt>
      <trkpt lat="47.48749" lon="6.77191">
        <ele>310</ele>
        <time>2015-06-24T16:39:07.000Z</time>
      </trkpt>
      <trkpt lat="47.48743" lon="6.77188">
        <ele>310</ele>
        <time>2015-06-24T16:39:08.000Z</time>
      </trkpt>
      <trkpt lat="47.48737" lon="6.77184">
        <ele>311</ele>
        <time>2015-06-24T16:39:09.000Z</time>
      </trkpt>
      <trkpt lat="47.48732" lon="6.77179">
        <ele>311</ele>
        <time>2015-06-24T16:39:10.000Z</time>
      </trkpt>
      <trkpt lat="47.48727" lon="6.77175">
        <ele>311</ele>
        <time>2015-06-24T16:39:11.000Z</time>
      </trkpt>
      <trkpt lat="47.48723" lon="6.77168">
        <ele>311</ele>
        <time>2015-06-24T16:39:12.000Z</time>
      </trkpt>
      <trkpt lat="47.48717" lon="6.77164">
        <ele>311</ele>
        <time>2015-06-24T16:39:13.000Z</time>
      </trkpt>
      <trkpt lat="47.48712" lon="6.77159">
        <ele>311</ele>
        <time>2015-06-24T16:39:14.000Z</time>
      </trkpt>
      <trkpt lat="47.48707" lon="6.77154">
        <ele>311</ele>
        <time>2015-06-24T16:39:15.000Z</time>
      </trkpt>
      <trkpt lat="47.48702" lon="6.7715">
        <ele>311</ele>
        <time>2015-06-24T16:39:16.000Z</time>
      </trkpt>
      <trkpt lat="47.48697" lon="6.77145">
        <ele>311</ele>
        <time>2015-06-24T16:39:17.000Z</time>
      </trkpt>
      <trkpt lat="47.48692" lon="6.7714">
        <ele>311</ele>
        <time>2015-06-24T16:39:18.000Z</time>
      </trkpt>
      <trkpt lat="47.48687" lon="6.77135">
        <ele>312</ele>
        <time>2015-06-24T16:39:19.000Z</time>
      </trkpt>
      <trkpt lat="47.48682" lon="6.7713">
        <ele>312</ele>
        <time>2015-06-24T16:39:20.000Z</time>
      </trkpt>
      <trkpt lat="47.48677" lon="6.77124">
        <ele>312</ele>
        <time>2015-06-24T16:39:21.000Z</time>
      </trkpt>
      <trkpt lat="47.48673" lon="6.77118">
        <ele>312</ele>
        <time>2015-06-24T16:39:22.000Z</time>
      </trkpt>
      <trkpt lat="47.48667" lon="6.77112">
        <ele>312</ele>
        <time>2015-06-24T16:39:23.000Z</time>
      </trkpt>
      <trkpt lat="47.48663" lon="6.77106">
        <ele>312</ele>
        <time>2015-06-24T16:39:24.000Z</time>
      </trkpt>
      <trkpt lat="47.48659" lon="6.771">
        <ele>312</ele>
        <time>2015-06-24T16:39:25.000Z</time>
      </trkpt>
      <trkpt lat="47.48654" lon="6.77093">
        <ele>313</ele>
        <time>2015-06-24T16:39:26.000Z</time>
      </trkpt>
      <trkpt lat="47.48649" lon="6.77089">
        <ele>313</ele>
        <time>2015-06-24T16:39:27.000Z</time>
      </trkpt>
      <trkpt lat="47.48643" lon="6.77082">
        <ele>313</ele>
        <time>2015-06-24T16:39:28.000Z</time>
      </trkpt>
      <trkpt lat="47.48639" lon="6.77077">
        <ele>313</ele>
        <time>2015-06-24T16:39:29.000Z</time>
      </trkpt>
      <trkpt lat="47.48634" lon="6.77073">
        <ele>313</ele>
        <time>2015-06-24T16:39:30.000Z</time>
      </trkpt>
      <trkpt lat="47.4863" lon="6.77071">
        <ele>313</ele>
        <time>2015-06-24T16:39:31.000Z</time>
      </trkpt>
      <trkpt lat="47.48624" lon="6.7707">
        <ele>313</ele>
        <time>2015-06-24T16:39:32.000Z</time>
      </trkpt>
      <trkpt lat="47.48619" lon="6.77067">
        <ele>313</ele>
        <time>2015-06-24T16:39:33.000Z</time>
      </trkpt>
      <trkpt lat="47.48615" lon="6.77065">
        <ele>313</ele>
        <time>2015-06-24T16:39:34.000Z</time>
      </trkpt>
      <trkpt lat="47.48611" lon="6.77062">
        <ele>313</ele>
        <time>2015-06-24T16:39:35.000Z</time>
      </trkpt>
      <trkpt lat="47.48604" lon="6.77058">
        <ele>313</ele>
        <time>2015-06-24T16:39:36.000Z</time>
      </trkpt>
      <trkpt lat="47.48599" lon="6.77056">
        <ele>313</ele>
        <time>2015-06-24T16:39:37.000Z</time>
      </trkpt>
      <trkpt lat="47.48595" lon="6.77053">
        <ele>313</ele>
        <time>2015-06-24T16:39:38.000Z</time>
      </trkpt>
      <trkpt lat="47.48591" lon="6.77049">
        <ele>314</ele>
        <time>2015-06-24T16:39:39.000Z</time>
      </trkpt>
      <trkpt lat="47.48588" lon="6.77045">
        <ele>314</ele>
        <time>2015-06-24T16:39:40.000Z</time>
      </trkpt>
      <trkpt lat="47.4858" lon="6.77043">
        <ele>314</ele>
        <time>2015-06-24T16:39:41.000Z</time>
      </trkpt>
      <trkpt lat="47.48574" lon="6.7704">
        <ele>314</ele>
        <time>2015-06-24T16:39:42.000Z</time>
      </trkpt>
      <trkpt lat="47.48568" lon="6.77037">
        <ele>314</ele>
        <time>2015-06-24T16:39:43.000Z</time>
      </trkpt>
      <trkpt lat="47.48561" lon="6.77034">
        <ele>314</ele>
        <time>2015-06-24T16:39:44.000Z</time>
      </trkpt>
      <trkpt lat="47.48553" lon="6.77029">
        <ele>314</ele>
        <time>2015-06-24T16:39:45.000Z</time>
      </trkpt>
      <trkpt lat="47.48545" lon="6.77024">
        <ele>314</ele>
        <time>2015-06-24T16:39:46.000Z</time>
      </trkpt>
      <trkpt lat="47.48538" lon="6.77019">
        <ele>314</ele>
        <time>2015-06-24T16:39:47.000Z</time>
      </trkpt>
      <trkpt lat="47.48532" lon="6.77014">
        <ele>315</ele>
        <time>2015-06-24T16:39:48.000Z</time>
      </trkpt>
      <trkpt lat="47.48526" lon="6.77009">
        <ele>315</ele>
        <time>2015-06-24T16:39:49.000Z</time>
      </trkpt>
      <trkpt lat="47.48519" lon="6.77004">
        <ele>315</ele>
        <time>2015-06-24T16:39:50.000Z</time>
      </trkpt>
      <trkpt lat="47.48512" lon="6.76999">
        <ele>316</ele>
        <time>2015-06-24T16:39:51.000Z</time>
      </trkpt>
      <trkpt lat="47.48505" lon="6.76993">
        <ele>316</ele>
        <time>2015-06-24T16:39:52.000Z</time>
      </trkpt>
      <trkpt lat="47.48499" lon="6.76988">
        <ele>316</ele>
        <time>2015-06-24T16:39:53.000Z</time>
      </trkpt>
      <trkpt lat="47.48493" lon="6.76982">
        <ele>316</ele>
        <time>2015-06-24T16:39:54.000Z</time>
      </trkpt>
      <trkpt lat="47.48487" lon="6.76977">
        <ele>315</ele>
        <time>2015-06-24T16:39:55.000Z</time>
      </trkpt>
      <trkpt lat="47.4848" lon="6.76972">
        <ele>315</ele>
        <time>2015-06-24T16:39:56.000Z</time>
      </trkpt>
      <trkpt lat="47.48475" lon="6.76968">
        <ele>315</ele>
        <time>2015-06-24T16:39:57.000Z</time>
      </trkpt>
      <trkpt lat="47.48469" lon="6.76964">
        <ele>315</ele>
        <time>2015-06-24T16:39:58.000Z</time>
      </trkpt>
      <trkpt lat="47.48463" lon="6.76959">
        <ele>315</ele>
        <time>2015-06-24T16:39:59.000Z</time>
      </trkpt>
      <trkpt lat="47.48458" lon="6.76955">
        <ele>315</ele>
        <time>2015-06-24T16:40:00.000Z</time>
      </trkpt>
      <trkpt lat="47.48452" lon="6.76951">
        <ele>315</ele>
        <time>2015-06-24T16:40:01.000Z</time>
      </trkpt>
      <trkpt lat="47.48446" lon="6.76946">
        <ele>315</ele>
        <time>2015-06-24T16:40:02.000Z</time>
      </trkpt>
      <trkpt lat="47.4844" lon="6.76942">
        <ele>315</ele>
        <time>2015-06-24T16:40:03.000Z</time>
      </trkpt>
      <trkpt lat="47.48433" lon="6.76938">
        <ele>314</ele>
        <time>2015-06-24T16:40:04.000Z</time>
      </trkpt>
      <trkpt lat="47.48427" lon="6.76934">
        <ele>314</ele>
        <time>2015-06-24T16:40:05.000Z</time>
      </trkpt>
      <trkpt lat="47.4842" lon="6.76929">
        <ele>314</ele>
        <time>2015-06-24T16:40:06.000Z</time>
      </trkpt>
      <trkpt lat="47.48414" lon="6.76924">
        <ele>313</ele>
        <time>2015-06-24T16:40:07.000Z</time>
      </trkpt>
      <trkpt lat="47.48409" lon="6.76918">
        <ele>313</ele>
        <time>2015-06-24T16:40:08.000Z</time>
      </trkpt>
      <trkpt lat="47.48403" lon="6.76914">
        <ele>312</ele>
        <time>2015-06-24T16:40:09.000Z</time>
      </trkpt>
      <trkpt lat="47.48397" lon="6.7691">
        <ele>312</ele>
        <time>2015-06-24T16:40:10.000Z</time>
      </trkpt>
      <trkpt lat="47.4839" lon="6.76907">
        <ele>312</ele>
        <time>2015-06-24T16:40:11.000Z</time>
      </trkpt>
      <trkpt lat="47.48384" lon="6.76903">
        <ele>312</ele>
        <time>2015-06-24T16:40:12.000Z</time>
      </trkpt>
      <trkpt lat="47.48377" lon="6.76899">
        <ele>311</ele>
        <time>2015-06-24T16:40:13.000Z</time>
      </trkpt>
      <trkpt lat="47.48371" lon="6.76895">
        <ele>311</ele>
        <time>2015-06-24T16:40:14.000Z</time>
      </trkpt>
      <trkpt lat="47.48365" lon="6.76891">
        <ele>311</ele>
        <time>2015-06-24T16:40:15.000Z</time>
      </trkpt>
      <trkpt lat="47.48358" lon="6.76887">
        <ele>311</ele>
        <time>2015-06-24T16:40:16.000Z</time>
      </trkpt>
      <trkpt lat="47.48353" lon="6.76881">
        <ele>311</ele>
        <time>2015-06-24T16:40:17.000Z</time>
      </trkpt>
      <trkpt lat="47.48347" lon="6.76877">
        <ele>311</ele>
        <time>2015-06-24T16:40:18.000Z</time>
      </trkpt>
      <trkpt lat="47.4834" lon="6.76875">
        <ele>311</ele>
        <time>2015-06-24T16:40:19.000Z</time>
      </trkpt>
      <trkpt lat="47.48333" lon="6.76872">
        <ele>311</ele>
        <time>2015-06-24T16:40:20.000Z</time>
      </trkpt>
      <trkpt lat="47.48327" lon="6.76869">
        <ele>310</ele>
        <time>2015-06-24T16:40:21.000Z</time>
      </trkpt>
      <trkpt lat="47.4832" lon="6.76867">
        <ele>310</ele>
        <time>2015-06-24T16:40:22.000Z</time>
      </trkpt>
      <trkpt lat="47.48314" lon="6.76863">
        <ele>310</ele>
        <time>2015-06-24T16:40:23.000Z</time>
      </trkpt>
      <trkpt lat="47.48309" lon="6.76859">
        <ele>310</ele>
        <time>2015-06-24T16:40:24.000Z</time>
      </trkpt>
      <trkpt lat="47.48303" lon="6.76855">
        <ele>310</ele>
        <time>2015-06-24T16:40:25.000Z</time>
      </trkpt>
      <trkpt lat="47.48299" lon="6.76849">
        <ele>310</ele>
        <time>2015-06-24T16:40:26.000Z</time>
      </trkpt>
      <trkpt lat="47.48296" lon="6.76844">
        <ele>310</ele>
        <time>2015-06-24T16:40:27.000Z</time>
      </trkpt>
      <trkpt lat="47.48292" lon="6.76838">
        <ele>311</ele>
        <time>2015-06-24T16:40:28.000Z</time>
      </trkpt>
      <trkpt lat="47.48289" lon="6.76833">
        <ele>313</ele>
        <time>2015-06-24T16:40:29.000Z</time>
      </trkpt>
      <trkpt lat="47.48283" lon="6.7683">
        <ele>313</ele>
        <time>2015-06-24T16:40:30.000Z</time>
      </trkpt>
      <trkpt lat="47.48278" lon="6.76824">
        <ele>313</ele>
        <time>2015-06-24T16:40:31.000Z</time>
      </trkpt>
      <trkpt lat="47.48273" lon="6.76818">
        <ele>313</ele>
        <time>2015-06-24T16:40:32.000Z</time>
      </trkpt>
      <trkpt lat="47.48269" lon="6.76813">
        <ele>313</ele>
        <time>2015-06-24T16:40:33.000Z</time>
      </trkpt>
      <trkpt lat="47.48265" lon="6.76808">
        <ele>313</ele>
        <time>2015-06-24T16:40:34.000Z</time>
      </trkpt>
      <trkpt lat="47.48257" lon="6.76803">
        <ele>313</ele>
        <time>2015-06-24T16:40:35.000Z</time>
      </trkpt>
      <trkpt lat="47.48251" lon="6.76798">
        <ele>313</ele>
        <time>2015-06-24T16:40:36.000Z</time>
      </trkpt>
      <trkpt lat="47.48245" lon="6.76793">
        <ele>312</ele>
        <time>2015-06-24T16:40:37.000Z</time>
      </trkpt>
      <trkpt lat="47.48239" lon="6.76789">
        <ele>312</ele>
        <time>2015-06-24T16:40:38.000Z</time>
      </trkpt>
      <trkpt lat="47.48233" lon="6.76786">
        <ele>312</ele>
        <time>2015-06-24T16:40:39.000Z</time>
      </trkpt>
      <trkpt lat="47.48226" lon="6.76782">
        <ele>312</ele>
        <time>2015-06-24T16:40:40.000Z</time>
      </trkpt>
      <trkpt lat="47.48219" lon="6.76779">
        <ele>312</ele>
        <time>2015-06-24T16:40:41.000Z</time>
      </trkpt>
      <trkpt lat="47.48213" lon="6.76776">
        <ele>312</ele>
        <time>2015-06-24T16:40:42.000Z</time>
      </trkpt>
      <trkpt lat="47.48207" lon="6.76774">
        <ele>312</ele>
        <time>2015-06-24T16:40:43.000Z</time>
      </trkpt>
      <trkpt lat="47.48201" lon="6.7677">
        <ele>312</ele>
        <time>2015-06-24T16:40:44.000Z</time>
      </trkpt>
      <trkpt lat="47.48195" lon="6.76766">
        <ele>312</ele>
        <time>2015-06-24T16:40:45.000Z</time>
      </trkpt>
      <trkpt lat="47.4819" lon="6.76759">
        <ele>312</ele>
        <time>2015-06-24T16:40:46.000Z</time>
      </trkpt>
      <trkpt lat="47.48187" lon="6.76753">
        <ele>312</ele>
        <time>2015-06-24T16:40:47.000Z</time>
      </trkpt>
      <trkpt lat="47.48183" lon="6.76747">
        <ele>314</ele>
        <time>2015-06-24T16:40:48.000Z</time>
      </trkpt>
      <trkpt lat="47.4818" lon="6.76741">
        <ele>314</ele>
        <time>2015-06-24T16:40:49.000Z</time>
      </trkpt>
      <trkpt lat="47.48175" lon="6.76734">
        <ele>314</ele>
        <time>2015-06-24T16:40:50.000Z</time>
      </trkpt>
      <trkpt lat="47.4817" lon="6.76728">
        <ele>314</ele>
        <time>2015-06-24T16:40:51.000Z</time>
      </trkpt>
      <trkpt lat="47.48166" lon="6.7672">
        <ele>312</ele>
        <time>2015-06-24T16:40:52.000Z</time>
      </trkpt>
      <trkpt lat="47.48161" lon="6.76713">
        <ele>312</ele>
        <time>2015-06-24T16:40:53.000Z</time>
      </trkpt>
      <trkpt lat="47.48156" lon="6.76707">
        <ele>312</ele>
        <time>2015-06-24T16:40:54.000Z</time>
      </trkpt>
      <trkpt lat="47.48153" lon="6.76699">
        <ele>312</ele>
        <time>2015-06-24T16:40:55.000Z</time>
      </trkpt>
      <trkpt lat="47.48149" lon="6.76692">
        <ele>312</ele>
        <time>2015-06-24T16:40:56.000Z</time>
      </trkpt>
      <trkpt lat="47.48145" lon="6.76684">
        <ele>312</ele>
        <time>2015-06-24T16:40:57.000Z</time>
      </trkpt>
      <trkpt lat="47.48141" lon="6.76678">
        <ele>312</ele>
        <time>2015-06-24T16:40:58.000Z</time>
      </trkpt>
      <trkpt lat="47.48137" lon="6.76673">
        <ele>312</ele>
        <time>2015-06-24T16:40:59.000Z</time>
      </trkpt>
      <trkpt lat="47.48133" lon="6.76667">
        <ele>312</ele>
        <time>2015-06-24T16:41:00.000Z</time>
      </trkpt>
      <trkpt lat="47.48129" lon="6.76661">
        <ele>313</ele>
        <time>2015-06-24T16:41:01.000Z</time>
      </trkpt>
      <trkpt lat="47.48124" lon="6.76655">
        <ele>313</ele>
        <time>2015-06-24T16:41:02.000Z</time>
      </trkpt>
      <trkpt lat="47.4812" lon="6.7665">
        <ele>313</ele>
        <time>2015-06-24T16:41:03.000Z</time>
      </trkpt>
      <trkpt lat="47.48117" lon="6.76644">
        <ele>313</ele>
        <time>2015-06-24T16:41:04.000Z</time>
      </trkpt>
      <trkpt lat="47.48115" lon="6.76638">
        <ele>313</ele>
        <time>2015-06-24T16:41:05.000Z</time>
      </trkpt>
      <trkpt lat="47.48112" lon="6.76632">
        <ele>313</ele>
        <time>2015-06-24T16:41:06.000Z</time>
      </trkpt>
      <trkpt lat="47.48108" lon="6.76624">
        <ele>313</ele>
        <time>2015-06-24T16:41:07.000Z</time>
      </trkpt>
      <trkpt lat="47.48105" lon="6.76617">
        <ele>313</ele>
        <time>2015-06-24T16:41:08.000Z</time>
      </trkpt>
      <trkpt lat="47.48104" lon="6.7661">
        <ele>313</ele>
        <time>2015-06-24T16:41:09.000Z</time>
      </trkpt>
      <trkpt lat="47.48105" lon="6.76604">
        <ele>313</ele>
        <time>2015-06-24T16:41:10.000Z</time>
      </trkpt>
      <trkpt lat="47.48106" lon="6.76602">
        <ele>313</ele>
        <time>2015-06-24T16:41:11.000Z</time>
      </trkpt>
      <trkpt lat="47.48107" lon="6.76597">
        <ele>313</ele>
        <time>2015-06-24T16:41:12.000Z</time>
      </trkpt>
      <trkpt lat="47.4811" lon="6.76592">
        <ele>313</ele>
        <time>2015-06-24T16:41:13.000Z</time>
      </trkpt>
      <trkpt lat="47.48115" lon="6.76584">
        <ele>313</ele>
        <time>2015-06-24T16:41:14.000Z</time>
      </trkpt>
      <trkpt lat="47.48118" lon="6.76578">
        <ele>318</ele>
        <time>2015-06-24T16:41:15.000Z</time>
      </trkpt>
      <trkpt lat="47.48121" lon="6.76573">
        <ele>318</ele>
        <time>2015-06-24T16:41:16.000Z</time>
      </trkpt>
      <trkpt lat="47.48125" lon="6.76568">
        <ele>319</ele>
        <time>2015-06-24T16:41:17.000Z</time>
      </trkpt>
      <trkpt lat="47.48126" lon="6.76565">
        <ele>319</ele>
        <time>2015-06-24T16:41:18.000Z</time>
      </trkpt>
      <trkpt lat="47.48125" lon="6.7656">
        <ele>319</ele>
        <time>2015-06-24T16:41:19.000Z</time>
      </trkpt>
      <trkpt lat="47.48125" lon="6.76556">
        <ele>319</ele>
        <time>2015-06-24T16:41:20.000Z</time>
      </trkpt>
      <trkpt lat="47.48126" lon="6.76545">
        <ele>320</ele>
        <time>2015-06-24T16:41:21.000Z</time>
      </trkpt>
      <trkpt lat="47.48123" lon="6.76534">
        <ele>320</ele>
        <time>2015-06-24T16:41:22.000Z</time>
      </trkpt>
      <trkpt lat="47.48122" lon="6.76527">
        <ele>320</ele>
        <time>2015-06-24T16:41:23.000Z</time>
      </trkpt>
      <trkpt lat="47.4812" lon="6.76519">
        <ele>320</ele>
        <time>2015-06-24T16:41:24.000Z</time>
      </trkpt>
      <trkpt lat="47.48117" lon="6.76515">
        <ele>320</ele>
        <time>2015-06-24T16:41:25.000Z</time>
      </trkpt>
      <trkpt lat="47.48113" lon="6.76516">
        <ele>319</ele>
        <time>2015-06-24T16:41:26.000Z</time>
      </trkpt>
      <trkpt lat="47.48108" lon="6.76516">
        <ele>319</ele>
        <time>2015-06-24T16:41:27.000Z</time>
      </trkpt>
      <trkpt lat="47.48104" lon="6.76518">
        <ele>318</ele>
        <time>2015-06-24T16:41:28.000Z</time>
      </trkpt>
      <trkpt lat="47.481" lon="6.76521">
        <ele>318</ele>
        <time>2015-06-24T16:41:29.000Z</time>
      </trkpt>
      <trkpt lat="47.48097" lon="6.76524">
        <ele>318</ele>
        <time>2015-06-24T16:41:30.000Z</time>
      </trkpt>
      <trkpt lat="47.48094" lon="6.76527">
        <ele>318</ele>
        <time>2015-06-24T16:41:31.000Z</time>
      </trkpt>
      <trkpt lat="47.4809" lon="6.7653">
        <ele>317</ele>
        <time>2015-06-24T16:41:32.000Z</time>
      </trkpt>
      <trkpt lat="47.48087" lon="6.76533">
        <ele>317</ele>
        <time>2015-06-24T16:41:33.000Z</time>
      </trkpt>
      <trkpt lat="47.48083" lon="6.76536">
        <ele>312</ele>
        <time>2015-06-24T16:41:34.000Z</time>
      </trkpt>
      <trkpt lat="47.48079" lon="6.76539">
        <ele>312</ele>
        <time>2015-06-24T16:41:35.000Z</time>
      </trkpt>
      <trkpt lat="47.48075" lon="6.76543">
        <ele>312</ele>
        <time>2015-06-24T16:41:36.000Z</time>
      </trkpt>
      <trkpt lat="47.48067" lon="6.76546">
        <ele>312</ele>
        <time>2015-06-24T16:41:37.000Z</time>
      </trkpt>
      <trkpt lat="47.48062" lon="6.76549">
        <ele>312</ele>
        <time>2015-06-24T16:41:38.000Z</time>
      </trkpt>
      <trkpt lat="47.48058" lon="6.76553">
        <ele>312</ele>
        <time>2015-06-24T16:41:39.000Z</time>
      </trkpt>
      <trkpt lat="47.48054" lon="6.76557">
        <ele>312</ele>
        <time>2015-06-24T16:41:40.000Z</time>
      </trkpt>
      <trkpt lat="47.4805" lon="6.76561">
        <ele>312</ele>
        <time>2015-06-24T16:41:41.000Z</time>
      </trkpt>
      <trkpt lat="47.48045" lon="6.76566">
        <ele>312</ele>
        <time>2015-06-24T16:41:42.000Z</time>
      </trkpt>
      <trkpt lat="47.48042" lon="6.7657">
        <ele>312</ele>
        <time>2015-06-24T16:41:43.000Z</time>
      </trkpt>
      <trkpt lat="47.48037" lon="6.76573">
        <ele>312</ele>
        <time>2015-06-24T16:41:44.000Z</time>
      </trkpt>
      <trkpt lat="47.48032" lon="6.76577">
        <ele>312</ele>
        <time>2015-06-24T16:41:45.000Z</time>
      </trkpt>
      <trkpt lat="47.48027" lon="6.7658">
        <ele>312</ele>
        <time>2015-06-24T16:41:46.000Z</time>
      </trkpt>
      <trkpt lat="47.48021" lon="6.76584">
        <ele>312</ele>
        <time>2015-06-24T16:41:47.000Z</time>
      </trkpt>
      <trkpt lat="47.48016" lon="6.76587">
        <ele>312</ele>
        <time>2015-06-24T16:41:48.000Z</time>
      </trkpt>
      <trkpt lat="47.48012" lon="6.76591">
        <ele>312</ele>
        <time>2015-06-24T16:41:49.000Z</time>
      </trkpt>
      <trkpt lat="47.48006" lon="6.76594">
        <ele>312</ele>
        <time>2015-06-24T16:41:50.000Z</time>
      </trkpt>
      <trkpt lat="47.48001" lon="6.76598">
        <ele>312</ele>
        <time>2015-06-24T16:41:51.000Z</time>
      </trkpt>
      <trkpt lat="47.47996" lon="6.76601">
        <ele>312</ele>
        <time>2015-06-24T16:41:52.000Z</time>
      </trkpt>
      <trkpt lat="47.47991" lon="6.76603">
        <ele>312</ele>
        <time>2015-06-24T16:41:53.000Z</time>
      </trkpt>
      <trkpt lat="47.47985" lon="6.76603">
        <ele>312</ele>
        <time>2015-06-24T16:41:54.000Z</time>
      </trkpt>
      <trkpt lat="47.47979" lon="6.76599">
        <ele>311</ele>
        <time>2015-06-24T16:41:55.000Z</time>
      </trkpt>
      <trkpt lat="47.47974" lon="6.76598">
        <ele>311</ele>
        <time>2015-06-24T16:41:56.000Z</time>
      </trkpt>
      <trkpt lat="47.47968" lon="6.76602">
        <ele>311</ele>
        <time>2015-06-24T16:41:57.000Z</time>
      </trkpt>
      <trkpt lat="47.47963" lon="6.76606">
        <ele>311</ele>
        <time>2015-06-24T16:41:58.000Z</time>
      </trkpt>
      <trkpt lat="47.47959" lon="6.76608">
        <ele>311</ele>
        <time>2015-06-24T16:41:59.000Z</time>
      </trkpt>
      <trkpt lat="47.47956" lon="6.76605">
        <ele>311</ele>
        <time>2015-06-24T16:42:00.000Z</time>
      </trkpt>
      <trkpt lat="47.47954" lon="6.76602">
        <ele>311</ele>
        <time>2015-06-24T16:42:01.000Z</time>
      </trkpt>
      <trkpt lat="47.47953" lon="6.76594">
        <ele>311</ele>
        <time>2015-06-24T16:42:02.000Z</time>
      </trkpt>
      <trkpt lat="47.47952" lon="6.76584">
        <ele>311</ele>
        <time>2015-06-24T16:42:03.000Z</time>
      </trkpt>
      <trkpt lat="47.47949" lon="6.76575">
        <ele>311</ele>
        <time>2015-06-24T16:42:04.000Z</time>
      </trkpt>
      <trkpt lat="47.47947" lon="6.76566">
        <ele>311</ele>
        <time>2015-06-24T16:42:05.000Z</time>
      </trkpt>
      <trkpt lat="47.47945" lon="6.76557">
        <ele>311</ele>
        <time>2015-06-24T16:42:06.000Z</time>
      </trkpt>
      <trkpt lat="47.47943" lon="6.76548">
        <ele>311</ele>
        <time>2015-06-24T16:42:07.000Z</time>
      </trkpt>
      <trkpt lat="47.47941" lon="6.76539">
        <ele>311</ele>
        <time>2015-06-24T16:42:08.000Z</time>
      </trkpt>
      <trkpt lat="47.47939" lon="6.76531">
        <ele>311</ele>
        <time>2015-06-24T16:42:09.000Z</time>
      </trkpt>
      <trkpt lat="47.47937" lon="6.76523">
        <ele>311</ele>
        <time>2015-06-24T16:42:10.000Z</time>
      </trkpt>
      <trkpt lat="47.47934" lon="6.76515">
        <ele>311</ele>
        <time>2015-06-24T16:42:11.000Z</time>
      </trkpt>
      <trkpt lat="47.47931" lon="6.76506">
        <ele>310</ele>
        <time>2015-06-24T16:42:11.999Z</time>
      </trkpt>
      <trkpt lat="47.4793" lon="6.76498">
        <ele>310</ele>
        <time>2015-06-24T16:42:13.000Z</time>
      </trkpt>
      <trkpt lat="47.47928" lon="6.7649">
        <ele>311</ele>
        <time>2015-06-24T16:42:14.000Z</time>
      </trkpt>
      <trkpt lat="47.47927" lon="6.76482">
        <ele>311</ele>
        <time>2015-06-24T16:42:15.000Z</time>
      </trkpt>
      <trkpt lat="47.47925" lon="6.76474">
        <ele>311</ele>
        <time>2015-06-24T16:42:16.000Z</time>
      </trkpt>
      <trkpt lat="47.47923" lon="6.76466">
        <ele>311</ele>
        <time>2015-06-24T16:42:17.000Z</time>
      </trkpt>
      <trkpt lat="47.4792" lon="6.76457">
        <ele>311</ele>
        <time>2015-06-24T16:42:18.000Z</time>
      </trkpt>
      <trkpt lat="47.47918" lon="6.76449">
        <ele>311</ele>
        <time>2015-06-24T16:42:19.000Z</time>
      </trkpt>
      <trkpt lat="47.47917" lon="6.7644">
        <ele>311</ele>
        <time>2015-06-24T16:42:20.000Z</time>
      </trkpt>
      <trkpt lat="47.47915" lon="6.76431">
        <ele>311</ele>
        <time>2015-06-24T16:42:21.000Z</time>
      </trkpt>
      <trkpt lat="47.47912" lon="6.76424">
        <ele>311</ele>
        <time>2015-06-24T16:42:22.000Z</time>
      </trkpt>
      <trkpt lat="47.47909" lon="6.76416">
        <ele>312</ele>
        <time>2015-06-24T16:42:23.000Z</time>
      </trkpt>
      <trkpt lat="47.47907" lon="6.76409">
        <ele>311</ele>
        <time>2015-06-24T16:42:24.000Z</time>
      </trkpt>
      <trkpt lat="47.47904" lon="6.76401">
        <ele>311</ele>
        <time>2015-06-24T16:42:25.000Z</time>
      </trkpt>
      <trkpt lat="47.479" lon="6.76393">
        <ele>311</ele>
        <time>2015-06-24T16:42:26.000Z</time>
      </trkpt>
      <trkpt lat="47.47896" lon="6.76386">
        <ele>311</ele>
        <time>2015-06-24T16:42:27.000Z</time>
      </trkpt>
      <trkpt lat="47.47895" lon="6.76378">
        <ele>311</ele>
        <time>2015-06-24T16:42:28.000Z</time>
      </trkpt>
      <trkpt lat="47.47892" lon="6.76371">
        <ele>311</ele>
        <time>2015-06-24T16:42:29.000Z</time>
      </trkpt>
      <trkpt lat="47.4789" lon="6.76363">
        <ele>311</ele>
        <time>2015-06-24T16:42:30.000Z</time>
      </trkpt>
      <trkpt lat="47.47888" lon="6.76355">
        <ele>311</ele>
        <time>2015-06-24T16:42:31.000Z</time>
      </trkpt>
      <trkpt lat="47.47884" lon="6.76347">
        <ele>311</ele>
        <time>2015-06-24T16:42:32.000Z</time>
      </trkpt>
      <trkpt lat="47.47881" lon="6.7634">
        <ele>311</ele>
        <time>2015-06-24T16:42:33.000Z</time>
      </trkpt>
      <trkpt lat="47.47877" lon="6.76333">
        <ele>310</ele>
        <time>2015-06-24T16:42:34.000Z</time>
      </trkpt>
      <trkpt lat="47.47873" lon="6.76325">
        <ele>310</ele>
        <time>2015-06-24T16:42:35.000Z</time>
      </trkpt>
      <trkpt lat="47.4787" lon="6.76318">
        <ele>310</ele>
        <time>2015-06-24T16:42:36.000Z</time>
      </trkpt>
      <trkpt lat="47.47867" lon="6.76311">
        <ele>310</ele>
        <time>2015-06-24T16:42:37.000Z</time>
      </trkpt>
      <trkpt lat="47.47863" lon="6.76303">
        <ele>310</ele>
        <time>2015-06-24T16:42:38.000Z</time>
      </trkpt>
      <trkpt lat="47.4786" lon="6.76296">
        <ele>310</ele>
        <time>2015-06-24T16:42:39.000Z</time>
      </trkpt>
      <trkpt lat="47.47856" lon="6.76289">
        <ele>310</ele>
        <time>2015-06-24T16:42:40.000Z</time>
      </trkpt>
      <trkpt lat="47.47853" lon="6.76283">
        <ele>310</ele>
        <time>2015-06-24T16:42:41.000Z</time>
      </trkpt>
      <trkpt lat="47.47851" lon="6.76276">
        <ele>310</ele>
        <time>2015-06-24T16:42:42.000Z</time>
      </trkpt>
      <trkpt lat="47.47847" lon="6.76269">
        <ele>311</ele>
        <time>2015-06-24T16:42:43.000Z</time>
      </trkpt>
      <trkpt lat="47.4784" lon="6.76264">
        <ele>311</ele>
        <time>2015-06-24T16:42:44.000Z</time>
      </trkpt>
      <trkpt lat="47.47834" lon="6.7626">
        <ele>311</ele>
        <time>2015-06-24T16:42:45.000Z</time>
      </trkpt>
      <trkpt lat="47.47828" lon="6.76258">
        <ele>311</ele>
        <time>2015-06-24T16:42:46.000Z</time>
      </trkpt>
      <trkpt lat="47.47823" lon="6.76255">
        <ele>311</ele>
        <time>2015-06-24T16:42:47.000Z</time>
      </trkpt>
      <trkpt lat="47.47818" lon="6.76252">
        <ele>310</ele>
        <time>2015-06-24T16:42:48.000Z</time>
      </trkpt>
      <trkpt lat="47.47813" lon="6.76248">
        <ele>310</ele>
        <time>2015-06-24T16:42:49.000Z</time>
      </trkpt>
      <trkpt lat="47.47808" lon="6.76246">
        <ele>310</ele>
        <time>2015-06-24T16:42:50.000Z</time>
      </trkpt>
      <trkpt lat="47.47802" lon="6.76241">
        <ele>310</ele>
        <time>2015-06-24T16:42:51.000Z</time>
      </trkpt>
      <trkpt lat="47.47797" lon="6.76237">
        <ele>310</ele>
        <time>2015-06-24T16:42:52.000Z</time>
      </trkpt>
      <trkpt lat="47.47791" lon="6.76232">
        <ele>309</ele>
        <time>2015-06-24T16:42:53.000Z</time>
      </trkpt>
      <trkpt lat="47.47787" lon="6.76227">
        <ele>309</ele>
        <time>2015-06-24T16:42:54.000Z</time>
      </trkpt>
      <trkpt lat="47.47784" lon="6.76221">
        <ele>309</ele>
        <time>2015-06-24T16:42:55.000Z</time>
      </trkpt>
      <trkpt lat="47.4778" lon="6.76214">
        <ele>309</ele>
        <time>2015-06-24T16:42:56.000Z</time>
      </trkpt>
      <trkpt lat="47.47776" lon="6.76208">
        <ele>309</ele>
        <time>2015-06-24T16:42:57.000Z</time>
      </trkpt>
      <trkpt lat="47.47772" lon="6.76202">
        <ele>309</ele>
        <time>2015-06-24T16:42:58.000Z</time>
      </trkpt>
      <trkpt lat="47.47768" lon="6.76197">
        <ele>309</ele>
        <time>2015-06-24T16:42:59.000Z</time>
      </trkpt>
      <trkpt lat="47.47761" lon="6.76192">
        <ele>309</ele>
        <time>2015-06-24T16:43:00.000Z</time>
      </trkpt>
      <trkpt lat="47.47753" lon="6.76188">
        <ele>308</ele>
        <time>2015-06-24T16:43:01.000Z</time>
      </trkpt>
      <trkpt lat="47.47747" lon="6.76182">
        <ele>308</ele>
        <time>2015-06-24T16:43:02.000Z</time>
      </trkpt>
      <trkpt lat="47.47742" lon="6.76175">
        <ele>308</ele>
        <time>2015-06-24T16:43:03.000Z</time>
      </trkpt>
      <trkpt lat="47.47738" lon="6.76169">
        <ele>308</ele>
        <time>2015-06-24T16:43:04.000Z</time>
      </trkpt>
      <trkpt lat="47.47735" lon="6.76163">
        <ele>308</ele>
        <time>2015-06-24T16:43:05.000Z</time>
      </trkpt>
      <trkpt lat="47.47731" lon="6.76157">
        <ele>309</ele>
        <time>2015-06-24T16:43:06.000Z</time>
      </trkpt>
      <trkpt lat="47.47727" lon="6.76151">
        <ele>309</ele>
        <time>2015-06-24T16:43:07.000Z</time>
      </trkpt>
      <trkpt lat="47.47723" lon="6.76145">
        <ele>309</ele>
        <time>2015-06-24T16:43:08.000Z</time>
      </trkpt>
      <trkpt lat="47.4772" lon="6.76139">
        <ele>309</ele>
        <time>2015-06-24T16:43:09.000Z</time>
      </trkpt>
      <trkpt lat="47.47716" lon="6.76133">
        <ele>309</ele>
        <time>2015-06-24T16:43:10.000Z</time>
      </trkpt>
      <trkpt lat="47.47712" lon="6.76128">
        <ele>309</ele>
        <time>2015-06-24T16:43:11.000Z</time>
      </trkpt>
      <trkpt lat="47.47708" lon="6.76122">
        <ele>310</ele>
        <time>2015-06-24T16:43:12.000Z</time>
      </trkpt>
      <trkpt lat="47.47704" lon="6.76116">
        <ele>310</ele>
        <time>2015-06-24T16:43:13.000Z</time>
      </trkpt>
      <trkpt lat="47.477" lon="6.76109">
        <ele>310</ele>
        <time>2015-06-24T16:43:14.000Z</time>
      </trkpt>
      <trkpt lat="47.47697" lon="6.76103">
        <ele>310</ele>
        <time>2015-06-24T16:43:15.000Z</time>
      </trkpt>
      <trkpt lat="47.47692" lon="6.76097">
        <ele>310</ele>
        <time>2015-06-24T16:43:16.000Z</time>
      </trkpt>
      <trkpt lat="47.47688" lon="6.76091">
        <ele>310</ele>
        <time>2015-06-24T16:43:17.000Z</time>
      </trkpt>
      <trkpt lat="47.47684" lon="6.76085">
        <ele>310</ele>
        <time>2015-06-24T16:43:18.000Z</time>
      </trkpt>
      <trkpt lat="47.4768" lon="6.7608">
        <ele>311</ele>
        <time>2015-06-24T16:43:19.000Z</time>
      </trkpt>
      <trkpt lat="47.47676" lon="6.76073">
        <ele>311</ele>
        <time>2015-06-24T16:43:20.000Z</time>
      </trkpt>
      <trkpt lat="47.47674" lon="6.76066">
        <ele>311</ele>
        <time>2015-06-24T16:43:21.000Z</time>
      </trkpt>
      <trkpt lat="47.47671" lon="6.76058">
        <ele>311</ele>
        <time>2015-06-24T16:43:22.000Z</time>
      </trkpt>
      <trkpt lat="47.47667" lon="6.7605">
        <ele>311</ele>
        <time>2015-06-24T16:43:23.000Z</time>
      </trkpt>
      <trkpt lat="47.47666" lon="6.76041">
        <ele>311</ele>
        <time>2015-06-24T16:43:24.000Z</time>
      </trkpt>
      <trkpt lat="47.47665" lon="6.76034">
        <ele>311</ele>
        <time>2015-06-24T16:43:25.000Z</time>
      </trkpt>
      <trkpt lat="47.47664" lon="6.76025">
        <ele>311</ele>
        <time>2015-06-24T16:43:26.000Z</time>
      </trkpt>
      <trkpt lat="47.47665" lon="6.76015">
        <ele>311</ele>
        <time>2015-06-24T16:43:27.000Z</time>
      </trkpt>
      <trkpt lat="47.47666" lon="6.76006">
        <ele>312</ele>
        <time>2015-06-24T16:43:28.000Z</time>
      </trkpt>
      <trkpt lat="47.47668" lon="6.75999">
        <ele>312</ele>
        <time>2015-06-24T16:43:29.000Z</time>
      </trkpt>
      <trkpt lat="47.47669" lon="6.7599">
        <ele>312</ele>
        <time>2015-06-24T16:43:30.000Z</time>
      </trkpt>
      <trkpt lat="47.47671" lon="6.75983">
        <ele>312</ele>
        <time>2015-06-24T16:43:31.000Z</time>
      </trkpt>
      <trkpt lat="47.47677" lon="6.75977">
        <ele>312</ele>
        <time>2015-06-24T16:43:32.000Z</time>
      </trkpt>
      <trkpt lat="47.47681" lon="6.75971">
        <ele>311</ele>
        <time>2015-06-24T16:43:33.000Z</time>
      </trkpt>
      <trkpt lat="47.47684" lon="6.75964">
        <ele>311</ele>
        <time>2015-06-24T16:43:34.000Z</time>
      </trkpt>
      <trkpt lat="47.47686" lon="6.75958">
        <ele>311</ele>
        <time>2015-06-24T16:43:35.000Z</time>
      </trkpt>
      <trkpt lat="47.47689" lon="6.7595">
        <ele>311</ele>
        <time>2015-06-24T16:43:36.000Z</time>
      </trkpt>
      <trkpt lat="47.47692" lon="6.75943">
        <ele>311</ele>
        <time>2015-06-24T16:43:37.000Z</time>
      </trkpt>
      <trkpt lat="47.47695" lon="6.75935">
        <ele>311</ele>
        <time>2015-06-24T16:43:38.000Z</time>
      </trkpt>
      <trkpt lat="47.47697" lon="6.75927">
        <ele>311</ele>
        <time>2015-06-24T16:43:39.000Z</time>
      </trkpt>
      <trkpt lat="47.47698" lon="6.75918">
        <ele>311</ele>
        <time>2015-06-24T16:43:40.000Z</time>
      </trkpt>
      <trkpt lat="47.47699" lon="6.75909">
        <ele>311</ele>
        <time>2015-06-24T16:43:41.000Z</time>
      </trkpt>
      <trkpt lat="47.47699" lon="6.75899">
        <ele>311</ele>
        <time>2015-06-24T16:43:42.000Z</time>
      </trkpt>
      <trkpt lat="47.47699" lon="6.7589">
        <ele>311</ele>
        <time>2015-06-24T16:43:43.000Z</time>
      </trkpt>
      <trkpt lat="47.47699" lon="6.75881">
        <ele>311</ele>
        <time>2015-06-24T16:43:44.000Z</time>
      </trkpt>
      <trkpt lat="47.477" lon="6.75873">
        <ele>311</ele>
        <time>2015-06-24T16:43:45.000Z</time>
      </trkpt>
      <trkpt lat="47.47699" lon="6.75866">
        <ele>311</ele>
        <time>2015-06-24T16:43:46.000Z</time>
      </trkpt>
      <trkpt lat="47.47699" lon="6.75856">
        <ele>311</ele>
        <time>2015-06-24T16:43:47.000Z</time>
      </trkpt>
      <trkpt lat="47.477" lon="6.75847">
        <ele>311</ele>
        <time>2015-06-24T16:43:48.000Z</time>
      </trkpt>
      <trkpt lat="47.477" lon="6.75839">
        <ele>311</ele>
        <time>2015-06-24T16:43:49.000Z</time>
      </trkpt>
      <trkpt lat="47.477" lon="6.7583">
        <ele>310</ele>
        <time>2015-06-24T16:43:50.000Z</time>
      </trkpt>
      <trkpt lat="47.477" lon="6.75821">
        <ele>310</ele>
        <time>2015-06-24T16:43:51.000Z</time>
      </trkpt>
      <trkpt lat="47.47701" lon="6.75811">
        <ele>310</ele>
        <time>2015-06-24T16:43:52.000Z</time>
      </trkpt>
      <trkpt lat="47.47702" lon="6.75803">
        <ele>310</ele>
        <time>2015-06-24T16:43:53.000Z</time>
      </trkpt>
      <trkpt lat="47.47702" lon="6.75792">
        <ele>310</ele>
        <time>2015-06-24T16:43:54.000Z</time>
      </trkpt>
      <trkpt lat="47.47703" lon="6.75782">
        <ele>310</ele>
        <time>2015-06-24T16:43:55.000Z</time>
      </trkpt>
      <trkpt lat="47.47703" lon="6.7577">
        <ele>310</ele>
        <time>2015-06-24T16:43:56.000Z</time>
      </trkpt>
      <trkpt lat="47.47703" lon="6.75762">
        <ele>310</ele>
        <time>2015-06-24T16:43:57.000Z</time>
      </trkpt>
      <trkpt lat="47.47703" lon="6.75753">
        <ele>310</ele>
        <time>2015-06-24T16:43:58.000Z</time>
      </trkpt>
      <trkpt lat="47.47703" lon="6.75744">
        <ele>310</ele>
        <time>2015-06-24T16:43:59.000Z</time>
      </trkpt>
      <trkpt lat="47.47703" lon="6.75735">
        <ele>310</ele>
        <time>2015-06-24T16:44:00.000Z</time>
      </trkpt>
      <trkpt lat="47.47703" lon="6.75727">
        <ele>310</ele>
        <time>2015-06-24T16:44:01.000Z</time>
      </trkpt>
      <trkpt lat="47.47703" lon="6.7572">
        <ele>310</ele>
        <time>2015-06-24T16:44:02.000Z</time>
      </trkpt>
      <trkpt lat="47.47702" lon="6.75712">
        <ele>310</ele>
        <time>2015-06-24T16:44:03.000Z</time>
      </trkpt>
      <trkpt lat="47.47703" lon="6.75705">
        <ele>310</ele>
        <time>2015-06-24T16:44:04.000Z</time>
      </trkpt>
      <trkpt lat="47.47703" lon="6.75698">
        <ele>310</ele>
        <time>2015-06-24T16:44:05.000Z</time>
      </trkpt>
      <trkpt lat="47.47703" lon="6.75689">
        <ele>310</ele>
        <time>2015-06-24T16:44:06.000Z</time>
      </trkpt>
      <trkpt lat="47.47704" lon="6.7568">
        <ele>310</ele>
        <time>2015-06-24T16:44:07.000Z</time>
      </trkpt>
      <trkpt lat="47.47705" lon="6.7567">
        <ele>310</ele>
        <time>2015-06-24T16:44:08.000Z</time>
      </trkpt>
      <trkpt lat="47.47705" lon="6.7566">
        <ele>309</ele>
        <time>2015-06-24T16:44:09.000Z</time>
      </trkpt>
      <trkpt lat="47.47705" lon="6.7565">
        <ele>309</ele>
        <time>2015-06-24T16:44:10.000Z</time>
      </trkpt>
      <trkpt lat="47.47706" lon="6.75639">
        <ele>309</ele>
        <time>2015-06-24T16:44:11.000Z</time>
      </trkpt>
      <trkpt lat="47.47706" lon="6.7563">
        <ele>309</ele>
        <time>2015-06-24T16:44:12.000Z</time>
      </trkpt>
      <trkpt lat="47.47706" lon="6.75619">
        <ele>309</ele>
        <time>2015-06-24T16:44:13.000Z</time>
      </trkpt>
      <trkpt lat="47.47706" lon="6.75609">
        <ele>309</ele>
        <time>2015-06-24T16:44:14.000Z</time>
      </trkpt>
      <trkpt lat="47.47706" lon="6.75599">
        <ele>309</ele>
        <time>2015-06-24T16:44:15.000Z</time>
      </trkpt>
      <trkpt lat="47.47707" lon="6.7559">
        <ele>309</ele>
        <time>2015-06-24T16:44:16.000Z</time>
      </trkpt>
      <trkpt lat="47.47706" lon="6.7558">
        <ele>309</ele>
        <time>2015-06-24T16:44:17.000Z</time>
      </trkpt>
      <trkpt lat="47.47707" lon="6.7557">
        <ele>309</ele>
        <time>2015-06-24T16:44:18.000Z</time>
      </trkpt>
      <trkpt lat="47.47708" lon="6.7556">
        <ele>309</ele>
        <time>2015-06-24T16:44:19.000Z</time>
      </trkpt>
      <trkpt lat="47.47707" lon="6.75551">
        <ele>309</ele>
        <time>2015-06-24T16:44:20.000Z</time>
      </trkpt>
      <trkpt lat="47.47708" lon="6.75542">
        <ele>309</ele>
        <time>2015-06-24T16:44:21.000Z</time>
      </trkpt>
      <trkpt lat="47.47708" lon="6.75533">
        <ele>309</ele>
        <time>2015-06-24T16:44:22.000Z</time>
      </trkpt>
      <trkpt lat="47.47708" lon="6.75523">
        <ele>309</ele>
        <time>2015-06-24T16:44:23.000Z</time>
      </trkpt>
      <trkpt lat="47.47707" lon="6.75513">
        <ele>309</ele>
        <time>2015-06-24T16:44:24.000Z</time>
      </trkpt>
      <trkpt lat="47.47708" lon="6.75504">
        <ele>309</ele>
        <time>2015-06-24T16:44:25.000Z</time>
      </trkpt>
      <trkpt lat="47.47709" lon="6.75494">
        <ele>308</ele>
        <time>2015-06-24T16:44:26.000Z</time>
      </trkpt>
      <trkpt lat="47.47709" lon="6.75485">
        <ele>308</ele>
        <time>2015-06-24T16:44:27.000Z</time>
      </trkpt>
      <trkpt lat="47.47709" lon="6.75475">
        <ele>308</ele>
        <time>2015-06-24T16:44:28.000Z</time>
      </trkpt>
      <trkpt lat="47.4771" lon="6.75465">
        <ele>308</ele>
        <time>2015-06-24T16:44:29.000Z</time>
      </trkpt>
      <trkpt lat="47.4771" lon="6.75456">
        <ele>308</ele>
        <time>2015-06-24T16:44:30.000Z</time>
      </trkpt>
      <trkpt lat="47.4771" lon="6.75446">
        <ele>308</ele>
        <time>2015-06-24T16:44:31.000Z</time>
      </trkpt>
      <trkpt lat="47.4771" lon="6.75437">
        <ele>308</ele>
        <time>2015-06-24T16:44:32.000Z</time>
      </trkpt>
      <trkpt lat="47.47711" lon="6.75428">
        <ele>308</ele>
        <time>2015-06-24T16:44:33.000Z</time>
      </trkpt>
      <trkpt lat="47.47711" lon="6.75418">
        <ele>308</ele>
        <time>2015-06-24T16:44:34.000Z</time>
      </trkpt>
      <trkpt lat="47.4771" lon="6.75408">
        <ele>309</ele>
        <time>2015-06-24T16:44:35.000Z</time>
      </trkpt>
      <trkpt lat="47.47711" lon="6.754">
        <ele>309</ele>
        <time>2015-06-24T16:44:36.000Z</time>
      </trkpt>
      <trkpt lat="47.47711" lon="6.75391">
        <ele>309</ele>
        <time>2015-06-24T16:44:37.000Z</time>
      </trkpt>
      <trkpt lat="47.47711" lon="6.75382">
        <ele>309</ele>
        <time>2015-06-24T16:44:38.000Z</time>
      </trkpt>
      <trkpt lat="47.47712" lon="6.75372">
        <ele>309</ele>
        <time>2015-06-24T16:44:39.000Z</time>
      </trkpt>
      <trkpt lat="47.47712" lon="6.75363">
        <ele>309</ele>
        <time>2015-06-24T16:44:40.000Z</time>
      </trkpt>
      <trkpt lat="47.47712" lon="6.75355">
        <ele>309</ele>
        <time>2015-06-24T16:44:41.000Z</time>
      </trkpt>
      <trkpt lat="47.47712" lon="6.75346">
        <ele>309</ele>
        <time>2015-06-24T16:44:42.000Z</time>
      </trkpt>
      <trkpt lat="47.47712" lon="6.75338">
        <ele>309</ele>
        <time>2015-06-24T16:44:43.000Z</time>
      </trkpt>
      <trkpt lat="47.47713" lon="6.75329">
        <ele>310</ele>
        <time>2015-06-24T16:44:44.000Z</time>
      </trkpt>
      <trkpt lat="47.47713" lon="6.75322">
        <ele>310</ele>
        <time>2015-06-24T16:44:45.000Z</time>
      </trkpt>
      <trkpt lat="47.47713" lon="6.75313">
        <ele>310</ele>
        <time>2015-06-24T16:44:46.000Z</time>
      </trkpt>
      <trkpt lat="47.47714" lon="6.75306">
        <ele>310</ele>
        <time>2015-06-24T16:44:47.000Z</time>
      </trkpt>
      <trkpt lat="47.47713" lon="6.75297">
        <ele>310</ele>
        <time>2015-06-24T16:44:48.000Z</time>
      </trkpt>
      <trkpt lat="47.47714" lon="6.75288">
        <ele>310</ele>
        <time>2015-06-24T16:44:49.000Z</time>
      </trkpt>
      <trkpt lat="47.47714" lon="6.75281">
        <ele>310</ele>
        <time>2015-06-24T16:44:50.000Z</time>
      </trkpt>
      <trkpt lat="47.47714" lon="6.75272">
        <ele>310</ele>
        <time>2015-06-24T16:44:51.000Z</time>
      </trkpt>
      <trkpt lat="47.47714" lon="6.75264">
        <ele>310</ele>
        <time>2015-06-24T16:44:52.000Z</time>
      </trkpt>
      <trkpt lat="47.47714" lon="6.75257">
        <ele>310</ele>
        <time>2015-06-24T16:44:53.000Z</time>
      </trkpt>
      <trkpt lat="47.47715" lon="6.75248">
        <ele>311</ele>
        <time>2015-06-24T16:44:54.000Z</time>
      </trkpt>
      <trkpt lat="47.47715" lon="6.75239">
        <ele>311</ele>
        <time>2015-06-24T16:44:55.000Z</time>
      </trkpt>
      <trkpt lat="47.47715" lon="6.7523">
        <ele>311</ele>
        <time>2015-06-24T16:44:56.000Z</time>
      </trkpt>
      <trkpt lat="47.47715" lon="6.75221">
        <ele>311</ele>
        <time>2015-06-24T16:44:57.000Z</time>
      </trkpt>
      <trkpt lat="47.47715" lon="6.75212">
        <ele>311</ele>
        <time>2015-06-24T16:44:58.000Z</time>
      </trkpt>
      <trkpt lat="47.47715" lon="6.75203">
        <ele>311</ele>
        <time>2015-06-24T16:44:59.000Z</time>
      </trkpt>
      <trkpt lat="47.47715" lon="6.75194">
        <ele>311</ele>
        <time>2015-06-24T16:45:00.000Z</time>
      </trkpt>
      <trkpt lat="47.47716" lon="6.75185">
        <ele>311</ele>
        <time>2015-06-24T16:45:01.000Z</time>
      </trkpt>
      <trkpt lat="47.47717" lon="6.75176">
        <ele>310</ele>
        <time>2015-06-24T16:45:02.000Z</time>
      </trkpt>
      <trkpt lat="47.47717" lon="6.75167">
        <ele>310</ele>
        <time>2015-06-24T16:45:03.000Z</time>
      </trkpt>
      <trkpt lat="47.47718" lon="6.75157">
        <ele>310</ele>
        <time>2015-06-24T16:45:04.000Z</time>
      </trkpt>
      <trkpt lat="47.47717" lon="6.75149">
        <ele>310</ele>
        <time>2015-06-24T16:45:05.000Z</time>
      </trkpt>
      <trkpt lat="47.47718" lon="6.75139">
        <ele>310</ele>
        <time>2015-06-24T16:45:06.000Z</time>
      </trkpt>
      <trkpt lat="47.47717" lon="6.7513">
        <ele>310</ele>
        <time>2015-06-24T16:45:07.000Z</time>
      </trkpt>
      <trkpt lat="47.47717" lon="6.75121">
        <ele>310</ele>
        <time>2015-06-24T16:45:08.000Z</time>
      </trkpt>
      <trkpt lat="47.47717" lon="6.75113">
        <ele>310</ele>
        <time>2015-06-24T16:45:09.000Z</time>
      </trkpt>
      <trkpt lat="47.47717" lon="6.75104">
        <ele>310</ele>
        <time>2015-06-24T16:45:10.000Z</time>
      </trkpt>
      <trkpt lat="47.47718" lon="6.75094">
        <ele>310</ele>
        <time>2015-06-24T16:45:11.000Z</time>
      </trkpt>
      <trkpt lat="47.47718" lon="6.75085">
        <ele>310</ele>
        <time>2015-06-24T16:45:12.000Z</time>
      </trkpt>
      <trkpt lat="47.47719" lon="6.75075">
        <ele>310</ele>
        <time>2015-06-24T16:45:13.000Z</time>
      </trkpt>
      <trkpt lat="47.47718" lon="6.75066">
        <ele>310</ele>
        <time>2015-06-24T16:45:14.000Z</time>
      </trkpt>
      <trkpt lat="47.47718" lon="6.75056">
        <ele>310</ele>
        <time>2015-06-24T16:45:15.000Z</time>
      </trkpt>
      <trkpt lat="47.47719" lon="6.75047">
        <ele>310</ele>
        <time>2015-06-24T16:45:16.000Z</time>
      </trkpt>
      <trkpt lat="47.47719" lon="6.75039">
        <ele>310</ele>
        <time>2015-06-24T16:45:17.000Z</time>
      </trkpt>
      <trkpt lat="47.47719" lon="6.75029">
        <ele>310</ele>
        <time>2015-06-24T16:45:18.000Z</time>
      </trkpt>
      <trkpt lat="47.4772" lon="6.7502">
        <ele>310</ele>
        <time>2015-06-24T16:45:19.000Z</time>
      </trkpt>
      <trkpt lat="47.4772" lon="6.75011">
        <ele>310</ele>
        <time>2015-06-24T16:45:20.000Z</time>
      </trkpt>
      <trkpt lat="47.47721" lon="6.75002">
        <ele>310</ele>
        <time>2015-06-24T16:45:21.000Z</time>
      </trkpt>
      <trkpt lat="47.47721" lon="6.74993">
        <ele>310</ele>
        <time>2015-06-24T16:45:22.000Z</time>
      </trkpt>
      <trkpt lat="47.47722" lon="6.74985">
        <ele>310</ele>
        <time>2015-06-24T16:45:23.000Z</time>
      </trkpt>
      <trkpt lat="47.47722" lon="6.74976">
        <ele>310</ele>
        <time>2015-06-24T16:45:24.000Z</time>
      </trkpt>
      <trkpt lat="47.47722" lon="6.74968">
        <ele>310</ele>
        <time>2015-06-24T16:45:25.000Z</time>
      </trkpt>
      <trkpt lat="47.47721" lon="6.74959">
        <ele>310</ele>
        <time>2015-06-24T16:45:26.000Z</time>
      </trkpt>
      <trkpt lat="47.47722" lon="6.7495">
        <ele>310</ele>
        <time>2015-06-24T16:45:27.000Z</time>
      </trkpt>
      <trkpt lat="47.47721" lon="6.74942">
        <ele>310</ele>
        <time>2015-06-24T16:45:28.000Z</time>
      </trkpt>
      <trkpt lat="47.47722" lon="6.74933">
        <ele>310</ele>
        <time>2015-06-24T16:45:29.000Z</time>
      </trkpt>
      <trkpt lat="47.47722" lon="6.74925">
        <ele>310</ele>
        <time>2015-06-24T16:45:30.000Z</time>
      </trkpt>
      <trkpt lat="47.4772" lon="6.74922">
        <ele>310</ele>
        <time>2015-06-24T16:45:31.000Z</time>
      </trkpt>
      <trkpt lat="47.4772" lon="6.74912">
        <ele>309</ele>
        <time>2015-06-24T16:45:32.000Z</time>
      </trkpt>
      <trkpt lat="47.4772" lon="6.74903">
        <ele>309</ele>
        <time>2015-06-24T16:45:33.000Z</time>
      </trkpt>
      <trkpt lat="47.4772" lon="6.74894">
        <ele>309</ele>
        <time>2015-06-24T16:45:34.000Z</time>
      </trkpt>
      <trkpt lat="47.4772" lon="6.74878">
        <ele>309</ele>
        <time>2015-06-24T16:45:35.000Z</time>
      </trkpt>
      <trkpt lat="47.4772" lon="6.74869">
        <ele>309</ele>
        <time>2015-06-24T16:45:36.000Z</time>
      </trkpt>
      <trkpt lat="47.47721" lon="6.74858">
        <ele>309</ele>
        <time>2015-06-24T16:45:37.000Z</time>
      </trkpt>
      <trkpt lat="47.47722" lon="6.74849">
        <ele>309</ele>
        <time>2015-06-24T16:45:38.000Z</time>
      </trkpt>
      <trkpt lat="47.47722" lon="6.74841">
        <ele>309</ele>
        <time>2015-06-24T16:45:39.000Z</time>
      </trkpt>
      <trkpt lat="47.47723" lon="6.74833">
        <ele>309</ele>
        <time>2015-06-24T16:45:40.000Z</time>
      </trkpt>
      <trkpt lat="47.47723" lon="6.74824">
        <ele>309</ele>
        <time>2015-06-24T16:45:41.000Z</time>
      </trkpt>
      <trkpt lat="47.47724" lon="6.74815">
        <ele>309</ele>
        <time>2015-06-24T16:45:42.000Z</time>
      </trkpt>
      <trkpt lat="47.47724" lon="6.74804">
        <ele>309</ele>
        <time>2015-06-24T16:45:43.000Z</time>
      </trkpt>
      <trkpt lat="47.47725" lon="6.74796">
        <ele>309</ele>
        <time>2015-06-24T16:45:44.000Z</time>
      </trkpt>
      <trkpt lat="47.47725" lon="6.74787">
        <ele>309</ele>
        <time>2015-06-24T16:45:45.000Z</time>
      </trkpt>
      <trkpt lat="47.47724" lon="6.74779">
        <ele>309</ele>
        <time>2015-06-24T16:45:46.000Z</time>
      </trkpt>
      <trkpt lat="47.47723" lon="6.74771">
        <ele>309</ele>
        <time>2015-06-24T16:45:47.000Z</time>
      </trkpt>
      <trkpt lat="47.47725" lon="6.74759">
        <ele>309</ele>
        <time>2015-06-24T16:45:48.000Z</time>
      </trkpt>
      <trkpt lat="47.47724" lon="6.74749">
        <ele>309</ele>
        <time>2015-06-24T16:45:49.000Z</time>
      </trkpt>
      <trkpt lat="47.47725" lon="6.74739">
        <ele>309</ele>
        <time>2015-06-24T16:45:50.000Z</time>
      </trkpt>
      <trkpt lat="47.47725" lon="6.7473">
        <ele>309</ele>
        <time>2015-06-24T16:45:51.000Z</time>
      </trkpt>
      <trkpt lat="47.47726" lon="6.7472">
        <ele>309</ele>
        <time>2015-06-24T16:45:52.000Z</time>
      </trkpt>
      <trkpt lat="47.47726" lon="6.7471">
        <ele>309</ele>
        <time>2015-06-24T16:45:53.000Z</time>
      </trkpt>
      <trkpt lat="47.47726" lon="6.74702">
        <ele>309</ele>
        <time>2015-06-24T16:45:54.000Z</time>
      </trkpt>
      <trkpt lat="47.47726" lon="6.74693">
        <ele>308</ele>
        <time>2015-06-24T16:45:55.000Z</time>
      </trkpt>
      <trkpt lat="47.47726" lon="6.74684">
        <ele>308</ele>
        <time>2015-06-24T16:45:56.000Z</time>
      </trkpt>
      <trkpt lat="47.47726" lon="6.74675">
        <ele>308</ele>
        <time>2015-06-24T16:45:57.000Z</time>
      </trkpt>
      <trkpt lat="47.47726" lon="6.74666">
        <ele>308</ele>
        <time>2015-06-24T16:45:58.000Z</time>
      </trkpt>
      <trkpt lat="47.47726" lon="6.74658">
        <ele>308</ele>
        <time>2015-06-24T16:45:59.000Z</time>
      </trkpt>
      <trkpt lat="47.47725" lon="6.74648">
        <ele>308</ele>
        <time>2015-06-24T16:46:00.000Z</time>
      </trkpt>
      <trkpt lat="47.47727" lon="6.7464">
        <ele>308</ele>
        <time>2015-06-24T16:46:01.000Z</time>
      </trkpt>
      <trkpt lat="47.47728" lon="6.74631">
        <ele>308</ele>
        <time>2015-06-24T16:46:02.000Z</time>
      </trkpt>
      <trkpt lat="47.47727" lon="6.74622">
        <ele>308</ele>
        <time>2015-06-24T16:46:03.000Z</time>
      </trkpt>
      <trkpt lat="47.47728" lon="6.74613">
        <ele>308</ele>
        <time>2015-06-24T16:46:04.000Z</time>
      </trkpt>
      <trkpt lat="47.47728" lon="6.74604">
        <ele>308</ele>
        <time>2015-06-24T16:46:05.000Z</time>
      </trkpt>
      <trkpt lat="47.47728" lon="6.74595">
        <ele>308</ele>
        <time>2015-06-24T16:46:06.000Z</time>
      </trkpt>
      <trkpt lat="47.47727" lon="6.74586">
        <ele>308</ele>
        <time>2015-06-24T16:46:07.000Z</time>
      </trkpt>
      <trkpt lat="47.47727" lon="6.74577">
        <ele>308</ele>
        <time>2015-06-24T16:46:08.000Z</time>
      </trkpt>
      <trkpt lat="47.47727" lon="6.74568">
        <ele>308</ele>
        <time>2015-06-24T16:46:09.000Z</time>
      </trkpt>
      <trkpt lat="47.47727" lon="6.7456">
        <ele>308</ele>
        <time>2015-06-24T16:46:10.000Z</time>
      </trkpt>
      <trkpt lat="47.47727" lon="6.74552">
        <ele>308</ele>
        <time>2015-06-24T16:46:11.000Z</time>
      </trkpt>
      <trkpt lat="47.47726" lon="6.74544">
        <ele>308</ele>
        <time>2015-06-24T16:46:12.000Z</time>
      </trkpt>
      <trkpt lat="47.47723" lon="6.74537">
        <ele>308</ele>
        <time>2015-06-24T16:46:13.000Z</time>
      </trkpt>
      <trkpt lat="47.4772" lon="6.7453">
        <ele>308</ele>
        <time>2015-06-24T16:46:14.000Z</time>
      </trkpt>
      <trkpt lat="47.47717" lon="6.74523">
        <ele>308</ele>
        <time>2015-06-24T16:46:15.000Z</time>
      </trkpt>
      <trkpt lat="47.47714" lon="6.74517">
        <ele>308</ele>
        <time>2015-06-24T16:46:16.000Z</time>
      </trkpt>
      <trkpt lat="47.47714" lon="6.74509">
        <ele>308</ele>
        <time>2015-06-24T16:46:17.000Z</time>
      </trkpt>
      <trkpt lat="47.47713" lon="6.74502">
        <ele>308</ele>
        <time>2015-06-24T16:46:18.000Z</time>
      </trkpt>
      <trkpt lat="47.47712" lon="6.74494">
        <ele>308</ele>
        <time>2015-06-24T16:46:19.000Z</time>
      </trkpt>
      <trkpt lat="47.47712" lon="6.74486">
        <ele>308</ele>
        <time>2015-06-24T16:46:20.000Z</time>
      </trkpt>
      <trkpt lat="47.47711" lon="6.74478">
        <ele>308</ele>
        <time>2015-06-24T16:46:21.000Z</time>
      </trkpt>
      <trkpt lat="47.4771" lon="6.74471">
        <ele>308</ele>
        <time>2015-06-24T16:46:22.000Z</time>
      </trkpt>
      <trkpt lat="47.4771" lon="6.74463">
        <ele>308</ele>
        <time>2015-06-24T16:46:23.000Z</time>
      </trkpt>
      <trkpt lat="47.47711" lon="6.74454">
        <ele>308</ele>
        <time>2015-06-24T16:46:24.000Z</time>
      </trkpt>
      <trkpt lat="47.47714" lon="6.74447">
        <ele>308</ele>
        <time>2015-06-24T16:46:25.000Z</time>
      </trkpt>
      <trkpt lat="47.47719" lon="6.74441">
        <ele>308</ele>
        <time>2015-06-24T16:46:26.000Z</time>
      </trkpt>
      <trkpt lat="47.47722" lon="6.74434">
        <ele>308</ele>
        <time>2015-06-24T16:46:27.000Z</time>
      </trkpt>
      <trkpt lat="47.47724" lon="6.74426">
        <ele>308</ele>
        <time>2015-06-24T16:46:28.000Z</time>
      </trkpt>
      <trkpt lat="47.47722" lon="6.74417">
        <ele>308</ele>
        <time>2015-06-24T16:46:29.000Z</time>
      </trkpt>
      <trkpt lat="47.47722" lon="6.74408">
        <ele>309</ele>
        <time>2015-06-24T16:46:30.000Z</time>
      </trkpt>
      <trkpt lat="47.47721" lon="6.74399">
        <ele>309</ele>
        <time>2015-06-24T16:46:31.000Z</time>
      </trkpt>
      <trkpt lat="47.4772" lon="6.74391">
        <ele>309</ele>
        <time>2015-06-24T16:46:32.000Z</time>
      </trkpt>
      <trkpt lat="47.47718" lon="6.74382">
        <ele>309</ele>
        <time>2015-06-24T16:46:33.000Z</time>
      </trkpt>
      <trkpt lat="47.47717" lon="6.74374">
        <ele>309</ele>
        <time>2015-06-24T16:46:34.000Z</time>
      </trkpt>
      <trkpt lat="47.47715" lon="6.74364">
        <ele>309</ele>
        <time>2015-06-24T16:46:35.000Z</time>
      </trkpt>
      <trkpt lat="47.47714" lon="6.74354">
        <ele>309</ele>
        <time>2015-06-24T16:46:36.000Z</time>
      </trkpt>
      <trkpt lat="47.47713" lon="6.74346">
        <ele>309</ele>
        <time>2015-06-24T16:46:37.000Z</time>
      </trkpt>
      <trkpt lat="47.47712" lon="6.74336">
        <ele>309</ele>
        <time>2015-06-24T16:46:38.000Z</time>
      </trkpt>
      <trkpt lat="47.4771" lon="6.74327">
        <ele>310</ele>
        <time>2015-06-24T16:46:39.000Z</time>
      </trkpt>
      <trkpt lat="47.47709" lon="6.74317">
        <ele>310</ele>
        <time>2015-06-24T16:46:40.000Z</time>
      </trkpt>
      <trkpt lat="47.47708" lon="6.74309">
        <ele>310</ele>
        <time>2015-06-24T16:46:41.000Z</time>
      </trkpt>
      <trkpt lat="47.47707" lon="6.743">
        <ele>310</ele>
        <time>2015-06-24T16:46:42.000Z</time>
      </trkpt>
      <trkpt lat="47.47707" lon="6.74291">
        <ele>310</ele>
        <time>2015-06-24T16:46:43.000Z</time>
      </trkpt>
      <trkpt lat="47.47706" lon="6.74281">
        <ele>311</ele>
        <time>2015-06-24T16:46:44.000Z</time>
      </trkpt>
      <trkpt lat="47.47704" lon="6.74272">
        <ele>311</ele>
        <time>2015-06-24T16:46:45.000Z</time>
      </trkpt>
      <trkpt lat="47.47703" lon="6.74263">
        <ele>311</ele>
        <time>2015-06-24T16:46:46.000Z</time>
      </trkpt>
      <trkpt lat="47.47702" lon="6.74254">
        <ele>310</ele>
        <time>2015-06-24T16:46:47.000Z</time>
      </trkpt>
      <trkpt lat="47.47701" lon="6.74244">
        <ele>310</ele>
        <time>2015-06-24T16:46:48.000Z</time>
      </trkpt>
      <trkpt lat="47.477" lon="6.74235">
        <ele>310</ele>
        <time>2015-06-24T16:46:49.000Z</time>
      </trkpt>
      <trkpt lat="47.47698" lon="6.74225">
        <ele>310</ele>
        <time>2015-06-24T16:46:50.000Z</time>
      </trkpt>
      <trkpt lat="47.47696" lon="6.74216">
        <ele>310</ele>
        <time>2015-06-24T16:46:51.000Z</time>
      </trkpt>
      <trkpt lat="47.47695" lon="6.74207">
        <ele>310</ele>
        <time>2015-06-24T16:46:52.000Z</time>
      </trkpt>
      <trkpt lat="47.47695" lon="6.74198">
        <ele>310</ele>
        <time>2015-06-24T16:46:53.000Z</time>
      </trkpt>
      <trkpt lat="47.47693" lon="6.7419">
        <ele>310</ele>
        <time>2015-06-24T16:46:54.000Z</time>
      </trkpt>
      <trkpt lat="47.47691" lon="6.74181">
        <ele>310</ele>
        <time>2015-06-24T16:46:55.000Z</time>
      </trkpt>
      <trkpt lat="47.4769" lon="6.74172">
        <ele>310</ele>
        <time>2015-06-24T16:46:56.000Z</time>
      </trkpt>
      <trkpt lat="47.47688" lon="6.74164">
        <ele>310</ele>
        <time>2015-06-24T16:46:57.000Z</time>
      </trkpt>
      <trkpt lat="47.47687" lon="6.74155">
        <ele>310</ele>
        <time>2015-06-24T16:46:58.000Z</time>
      </trkpt>
      <trkpt lat="47.47685" lon="6.74146">
        <ele>310</ele>
        <time>2015-06-24T16:46:59.000Z</time>
      </trkpt>
      <trkpt lat="47.47683" lon="6.74138">
        <ele>310</ele>
        <time>2015-06-24T16:47:00.000Z</time>
      </trkpt>
      <trkpt lat="47.47681" lon="6.74131">
        <ele>310</ele>
        <time>2015-06-24T16:47:01.000Z</time>
      </trkpt>
      <trkpt lat="47.4768" lon="6.74124">
        <ele>310</ele>
        <time>2015-06-24T16:47:02.000Z</time>
      </trkpt>
      <trkpt lat="47.47679" lon="6.74117">
        <ele>310</ele>
        <time>2015-06-24T16:47:03.000Z</time>
      </trkpt>
      <trkpt lat="47.47676" lon="6.74112">
        <ele>310</ele>
        <time>2015-06-24T16:47:04.000Z</time>
      </trkpt>
      <trkpt lat="47.47673" lon="6.74111">
        <ele>310</ele>
        <time>2015-06-24T16:47:05.000Z</time>
      </trkpt>
      <trkpt lat="47.4767" lon="6.7411">
        <ele>310</ele>
        <time>2015-06-24T16:47:06.000Z</time>
      </trkpt>
      <trkpt lat="47.47667" lon="6.7411">
        <ele>310</ele>
        <time>2015-06-24T16:47:07.000Z</time>
      </trkpt>
      <trkpt lat="47.47664" lon="6.7411">
        <ele>309</ele>
        <time>2015-06-24T16:47:08.000Z</time>
      </trkpt>
      <trkpt lat="47.47659" lon="6.74108">
        <ele>309</ele>
        <time>2015-06-24T16:47:09.000Z</time>
      </trkpt>
      <trkpt lat="47.47656" lon="6.74104">
        <ele>309</ele>
        <time>2015-06-24T16:47:10.000Z</time>
      </trkpt>
      <trkpt lat="47.47653" lon="6.74099">
        <ele>309</ele>
        <time>2015-06-24T16:47:11.000Z</time>
      </trkpt>
      <trkpt lat="47.4765" lon="6.74094">
        <ele>309</ele>
        <time>2015-06-24T16:47:12.000Z</time>
      </trkpt>
      <trkpt lat="47.47648" lon="6.74086">
        <ele>309</ele>
        <time>2015-06-24T16:47:13.000Z</time>
      </trkpt>
      <trkpt lat="47.47645" lon="6.74078">
        <ele>310</ele>
        <time>2015-06-24T16:47:14.000Z</time>
      </trkpt>
      <trkpt lat="47.47643" lon="6.74071">
        <ele>310</ele>
        <time>2015-06-24T16:47:15.000Z</time>
      </trkpt>
      <trkpt lat="47.47639" lon="6.74064">
        <ele>310</ele>
        <time>2015-06-24T16:47:16.000Z</time>
      </trkpt>
      <trkpt lat="47.47635" lon="6.74059">
        <ele>310</ele>
        <time>2015-06-24T16:47:17.000Z</time>
      </trkpt>
      <trkpt lat="47.4763" lon="6.74054">
        <ele>310</ele>
        <time>2015-06-24T16:47:18.000Z</time>
      </trkpt>
      <trkpt lat="47.47625" lon="6.74051">
        <ele>310</ele>
        <time>2015-06-24T16:47:19.000Z</time>
      </trkpt>
      <trkpt lat="47.47619" lon="6.74053">
        <ele>309</ele>
        <time>2015-06-24T16:47:20.000Z</time>
      </trkpt>
      <trkpt lat="47.47614" lon="6.74054">
        <ele>309</ele>
        <time>2015-06-24T16:47:21.000Z</time>
      </trkpt>
      <trkpt lat="47.47608" lon="6.74058">
        <ele>309</ele>
        <time>2015-06-24T16:47:22.000Z</time>
      </trkpt>
      <trkpt lat="47.47602" lon="6.74063">
        <ele>309</ele>
        <time>2015-06-24T16:47:23.000Z</time>
      </trkpt>
      <trkpt lat="47.47597" lon="6.74066">
        <ele>309</ele>
        <time>2015-06-24T16:47:24.000Z</time>
      </trkpt>
      <trkpt lat="47.47593" lon="6.7407">
        <ele>309</ele>
        <time>2015-06-24T16:47:25.000Z</time>
      </trkpt>
      <trkpt lat="47.47589" lon="6.74074">
        <ele>309</ele>
        <time>2015-06-24T16:47:26.000Z</time>
      </trkpt>
      <trkpt lat="47.47583" lon="6.74079">
        <ele>309</ele>
        <time>2015-06-24T16:47:27.000Z</time>
      </trkpt>
      <trkpt lat="47.47578" lon="6.74083">
        <ele>309</ele>
        <time>2015-06-24T16:47:28.000Z</time>
      </trkpt>
      <trkpt lat="47.47574" lon="6.74086">
        <ele>309</ele>
        <time>2015-06-24T16:47:29.000Z</time>
      </trkpt>
      <trkpt lat="47.47569" lon="6.7409">
        <ele>309</ele>
        <time>2015-06-24T16:47:30.000Z</time>
      </trkpt>
      <trkpt lat="47.47563" lon="6.74094">
        <ele>309</ele>
        <time>2015-06-24T16:47:31.000Z</time>
      </trkpt>
      <trkpt lat="47.47557" lon="6.74098">
        <ele>309</ele>
        <time>2015-06-24T16:47:32.000Z</time>
      </trkpt>
      <trkpt lat="47.47552" lon="6.74101">
        <ele>309</ele>
        <time>2015-06-24T16:47:33.000Z</time>
      </trkpt>
      <trkpt lat="47.47546" lon="6.74105">
        <ele>309</ele>
        <time>2015-06-24T16:47:34.000Z</time>
      </trkpt>
      <trkpt lat="47.47541" lon="6.74109">
        <ele>308</ele>
        <time>2015-06-24T16:47:35.000Z</time>
      </trkpt>
      <trkpt lat="47.47536" lon="6.74113">
        <ele>308</ele>
        <time>2015-06-24T16:47:36.000Z</time>
      </trkpt>
      <trkpt lat="47.47531" lon="6.74117">
        <ele>308</ele>
        <time>2015-06-24T16:47:37.000Z</time>
      </trkpt>
      <trkpt lat="47.47526" lon="6.74121">
        <ele>308</ele>
        <time>2015-06-24T16:47:38.000Z</time>
      </trkpt>
      <trkpt lat="47.4752" lon="6.74125">
        <ele>309</ele>
        <time>2015-06-24T16:47:39.000Z</time>
      </trkpt>
      <trkpt lat="47.47515" lon="6.74129">
        <ele>309</ele>
        <time>2015-06-24T16:47:40.000Z</time>
      </trkpt>
      <trkpt lat="47.4751" lon="6.74133">
        <ele>309</ele>
        <time>2015-06-24T16:47:41.000Z</time>
      </trkpt>
      <trkpt lat="47.47505" lon="6.74138">
        <ele>309</ele>
        <time>2015-06-24T16:47:42.000Z</time>
      </trkpt>
      <trkpt lat="47.475" lon="6.74142">
        <ele>309</ele>
        <time>2015-06-24T16:47:43.000Z</time>
      </trkpt>
      <trkpt lat="47.47495" lon="6.74146">
        <ele>309</ele>
        <time>2015-06-24T16:47:44.000Z</time>
      </trkpt>
      <trkpt lat="47.4749" lon="6.7415">
        <ele>309</ele>
        <time>2015-06-24T16:47:45.000Z</time>
      </trkpt>
      <trkpt lat="47.47487" lon="6.74152">
        <ele>309</ele>
        <time>2015-06-24T16:47:46.000Z</time>
      </trkpt>
      <trkpt lat="47.47483" lon="6.74156">
        <ele>309</ele>
        <time>2015-06-24T16:47:47.000Z</time>
      </trkpt>
      <trkpt lat="47.47478" lon="6.74159">
        <ele>309</ele>
        <time>2015-06-24T16:47:48.000Z</time>
      </trkpt>
      <trkpt lat="47.47475" lon="6.74163">
        <ele>309</ele>
        <time>2015-06-24T16:47:49.000Z</time>
      </trkpt>
      <trkpt lat="47.47471" lon="6.74166">
        <ele>309</ele>
        <time>2015-06-24T16:47:50.000Z</time>
      </trkpt>
      <trkpt lat="47.47467" lon="6.7417">
        <ele>309</ele>
        <time>2015-06-24T16:47:51.000Z</time>
      </trkpt>
      <trkpt lat="47.47462" lon="6.74172">
        <ele>309</ele>
        <time>2015-06-24T16:47:52.000Z</time>
      </trkpt>
      <trkpt lat="47.47458" lon="6.74175">
        <ele>309</ele>
        <time>2015-06-24T16:47:53.000Z</time>
      </trkpt>
      <trkpt lat="47.47452" lon="6.74178">
        <ele>309</ele>
        <time>2015-06-24T16:47:54.000Z</time>
      </trkpt>
      <trkpt lat="47.47447" lon="6.7418">
        <ele>309</ele>
        <time>2015-06-24T16:47:55.000Z</time>
      </trkpt>
      <trkpt lat="47.47441" lon="6.74182">
        <ele>309</ele>
        <time>2015-06-24T16:47:56.000Z</time>
      </trkpt>
      <trkpt lat="47.47436" lon="6.74183">
        <ele>309</ele>
        <time>2015-06-24T16:47:57.000Z</time>
      </trkpt>
      <trkpt lat="47.4743" lon="6.74186">
        <ele>309</ele>
        <time>2015-06-24T16:47:58.000Z</time>
      </trkpt>
      <trkpt lat="47.47425" lon="6.7419">
        <ele>309</ele>
        <time>2015-06-24T16:47:59.000Z</time>
      </trkpt>
      <trkpt lat="47.47419" lon="6.74192">
        <ele>309</ele>
        <time>2015-06-24T16:48:00.000Z</time>
      </trkpt>
      <trkpt lat="47.47414" lon="6.74194">
        <ele>310</ele>
        <time>2015-06-24T16:48:01.000Z</time>
      </trkpt>
      <trkpt lat="47.47409" lon="6.74197">
        <ele>310</ele>
        <time>2015-06-24T16:48:02.000Z</time>
      </trkpt>
      <trkpt lat="47.47403" lon="6.74199">
        <ele>310</ele>
        <time>2015-06-24T16:48:03.000Z</time>
      </trkpt>
      <trkpt lat="47.47398" lon="6.742">
        <ele>310</ele>
        <time>2015-06-24T16:48:04.000Z</time>
      </trkpt>
      <trkpt lat="47.47393" lon="6.74202">
        <ele>310</ele>
        <time>2015-06-24T16:48:05.000Z</time>
      </trkpt>
      <trkpt lat="47.47389" lon="6.74205">
        <ele>310</ele>
        <time>2015-06-24T16:48:06.000Z</time>
      </trkpt>
      <trkpt lat="47.47384" lon="6.74207">
        <ele>310</ele>
        <time>2015-06-24T16:48:07.000Z</time>
      </trkpt>
      <trkpt lat="47.47379" lon="6.7421">
        <ele>310</ele>
        <time>2015-06-24T16:48:08.000Z</time>
      </trkpt>
      <trkpt lat="47.47374" lon="6.74212">
        <ele>310</ele>
        <time>2015-06-24T16:48:09.000Z</time>
      </trkpt>
      <trkpt lat="47.47369" lon="6.74214">
        <ele>310</ele>
        <time>2015-06-24T16:48:10.000Z</time>
      </trkpt>
      <trkpt lat="47.47364" lon="6.74216">
        <ele>310</ele>
        <time>2015-06-24T16:48:11.000Z</time>
      </trkpt>
      <trkpt lat="47.4736" lon="6.74218">
        <ele>310</ele>
        <time>2015-06-24T16:48:12.000Z</time>
      </trkpt>
      <trkpt lat="47.47355" lon="6.7422">
        <ele>310</ele>
        <time>2015-06-24T16:48:13.000Z</time>
      </trkpt>
      <trkpt lat="47.4735" lon="6.74223">
        <ele>310</ele>
        <time>2015-06-24T16:48:14.000Z</time>
      </trkpt>
      <trkpt lat="47.47345" lon="6.74226">
        <ele>310</ele>
        <time>2015-06-24T16:48:15.000Z</time>
      </trkpt>
      <trkpt lat="47.4734" lon="6.74229">
        <ele>310</ele>
        <time>2015-06-24T16:48:16.000Z</time>
      </trkpt>
      <trkpt lat="47.47335" lon="6.74232">
        <ele>310</ele>
        <time>2015-06-24T16:48:17.000Z</time>
      </trkpt>
      <trkpt lat="47.4733" lon="6.74237">
        <ele>311</ele>
        <time>2015-06-24T16:48:18.000Z</time>
      </trkpt>
      <trkpt lat="47.47325" lon="6.74239">
        <ele>311</ele>
        <time>2015-06-24T16:48:19.000Z</time>
      </trkpt>
      <trkpt lat="47.4732" lon="6.74241">
        <ele>311</ele>
        <time>2015-06-24T16:48:20.000Z</time>
      </trkpt>
      <trkpt lat="47.47315" lon="6.74243">
        <ele>312</ele>
        <time>2015-06-24T16:48:21.000Z</time>
      </trkpt>
      <trkpt lat="47.4731" lon="6.74246">
        <ele>312</ele>
        <time>2015-06-24T16:48:22.000Z</time>
      </trkpt>
      <trkpt lat="47.47305" lon="6.74248">
        <ele>312</ele>
        <time>2015-06-24T16:48:23.000Z</time>
      </trkpt>
      <trkpt lat="47.473" lon="6.7425">
        <ele>312</ele>
        <time>2015-06-24T16:48:24.000Z</time>
      </trkpt>
      <trkpt lat="47.47295" lon="6.74252">
        <ele>312</ele>
        <time>2015-06-24T16:48:25.000Z</time>
      </trkpt>
      <trkpt lat="47.4729" lon="6.74253">
        <ele>312</ele>
        <time>2015-06-24T16:48:26.000Z</time>
      </trkpt>
      <trkpt lat="47.47286" lon="6.74254">
        <ele>312</ele>
        <time>2015-06-24T16:48:27.000Z</time>
      </trkpt>
      <trkpt lat="47.4728" lon="6.74256">
        <ele>313</ele>
        <time>2015-06-24T16:48:28.000Z</time>
      </trkpt>
      <trkpt lat="47.47276" lon="6.74258">
        <ele>313</ele>
        <time>2015-06-24T16:48:29.000Z</time>
      </trkpt>
      <trkpt lat="47.47271" lon="6.74258">
        <ele>313</ele>
        <time>2015-06-24T16:48:30.000Z</time>
      </trkpt>
      <trkpt lat="47.47266" lon="6.7426">
        <ele>313</ele>
        <time>2015-06-24T16:48:31.000Z</time>
      </trkpt>
      <trkpt lat="47.47263" lon="6.74262">
        <ele>313</ele>
        <time>2015-06-24T16:48:32.000Z</time>
      </trkpt>
      <trkpt lat="47.47258" lon="6.74268">
        <ele>313</ele>
        <time>2015-06-24T16:48:33.000Z</time>
      </trkpt>
      <trkpt lat="47.47256" lon="6.74276">
        <ele>313</ele>
        <time>2015-06-24T16:48:34.000Z</time>
      </trkpt>
      <trkpt lat="47.47255" lon="6.74283">
        <ele>313</ele>
        <time>2015-06-24T16:48:35.000Z</time>
      </trkpt>
      <trkpt lat="47.47254" lon="6.74289">
        <ele>313</ele>
        <time>2015-06-24T16:48:36.000Z</time>
      </trkpt>
      <trkpt lat="47.47252" lon="6.74294">
        <ele>313</ele>
        <time>2015-06-24T16:48:37.000Z</time>
      </trkpt>
      <trkpt lat="47.47251" lon="6.74301">
        <ele>313</ele>
        <time>2015-06-24T16:48:38.000Z</time>
      </trkpt>
      <trkpt lat="47.47249" lon="6.74308">
        <ele>315</ele>
        <time>2015-06-24T16:48:39.000Z</time>
      </trkpt>
      <trkpt lat="47.47247" lon="6.74315">
        <ele>315</ele>
        <time>2015-06-24T16:48:40.000Z</time>
      </trkpt>
      <trkpt lat="47.47245" lon="6.7432">
        <ele>315</ele>
        <time>2015-06-24T16:48:41.000Z</time>
      </trkpt>
      <trkpt lat="47.47243" lon="6.74327">
        <ele>315</ele>
        <time>2015-06-24T16:48:42.000Z</time>
      </trkpt>
      <trkpt lat="47.47241" lon="6.74333">
        <ele>315</ele>
        <time>2015-06-24T16:48:43.000Z</time>
      </trkpt>
      <trkpt lat="47.47237" lon="6.74339">
        <ele>316</ele>
        <time>2015-06-24T16:48:44.000Z</time>
      </trkpt>
      <trkpt lat="47.47236" lon="6.74345">
        <ele>316</ele>
        <time>2015-06-24T16:48:45.000Z</time>
      </trkpt>
      <trkpt lat="47.47232" lon="6.74348">
        <ele>317</ele>
        <time>2015-06-24T16:48:46.000Z</time>
      </trkpt>
      <trkpt lat="47.47229" lon="6.74351">
        <ele>317</ele>
        <time>2015-06-24T16:48:47.000Z</time>
      </trkpt>
      <trkpt lat="47.47226" lon="6.74354">
        <ele>317</ele>
        <time>2015-06-24T16:48:48.000Z</time>
      </trkpt>
      <trkpt lat="47.47223" lon="6.74356">
        <ele>318</ele>
        <time>2015-06-24T16:48:49.000Z</time>
      </trkpt>
      <trkpt lat="47.4722" lon="6.74357">
        <ele>318</ele>
        <time>2015-06-24T16:48:50.000Z</time>
      </trkpt>
      <trkpt lat="47.47218" lon="6.74359">
        <ele>318</ele>
        <time>2015-06-24T16:48:51.000Z</time>
      </trkpt>
      <trkpt lat="47.47215" lon="6.74358">
        <ele>318</ele>
        <time>2015-06-24T16:48:52.000Z</time>
      </trkpt>
      <trkpt lat="47.47212" lon="6.74359">
        <ele>318</ele>
        <time>2015-06-24T16:48:54.000Z</time>
      </trkpt>
      <trkpt lat="47.4721" lon="6.74359">
        <ele>318</ele>
        <time>2015-06-24T16:48:55.000Z</time>
      </trkpt>
      <trkpt lat="47.47207" lon="6.7436">
        <ele>318</ele>
        <time>2015-06-24T16:48:57.000Z</time>
      </trkpt>
      <trkpt lat="47.47205" lon="6.7436">
        <ele>318</ele>
        <time>2015-06-24T16:48:58.000Z</time>
      </trkpt>
      <trkpt lat="47.47201" lon="6.7436">
        <ele>319</ele>
        <time>2015-06-24T16:49:00.000Z</time>
      </trkpt>
      <trkpt lat="47.472" lon="6.74359">
        <ele>319</ele>
        <time>2015-06-24T16:49:01.000Z</time>
      </trkpt>
      <trkpt lat="47.47197" lon="6.74359">
        <ele>319</ele>
        <time>2015-06-24T16:49:02.000Z</time>
      </trkpt>
      <trkpt lat="47.47195" lon="6.74359">
        <ele>319</ele>
        <time>2015-06-24T16:49:03.000Z</time>
      </trkpt>
      <trkpt lat="47.4719" lon="6.7436">
        <ele>319</ele>
        <time>2015-06-24T16:49:05.000Z</time>
      </trkpt>
      <trkpt lat="47.47188" lon="6.7436">
        <ele>319</ele>
        <time>2015-06-24T16:49:06.000Z</time>
      </trkpt>
      <trkpt lat="47.47184" lon="6.7436">
        <ele>319</ele>
        <time>2015-06-24T16:49:08.000Z</time>
      </trkpt>
      <trkpt lat="47.47182" lon="6.7436">
        <ele>319</ele>
        <time>2015-06-24T16:49:09.000Z</time>
      </trkpt>
      <trkpt lat="47.47178" lon="6.74359">
        <ele>319</ele>
        <time>2015-06-24T16:49:11.000Z</time>
      </trkpt>
      <trkpt lat="47.47176" lon="6.74359">
        <ele>319</ele>
        <time>2015-06-24T16:49:12.000Z</time>
      </trkpt>
      <trkpt lat="47.47174" lon="6.7436">
        <ele>319</ele>
        <time>2015-06-24T16:49:13.000Z</time>
      </trkpt>
      <trkpt lat="47.47172" lon="6.7436">
        <ele>319</ele>
        <time>2015-06-24T16:49:14.000Z</time>
      </trkpt>
      <trkpt lat="47.47169" lon="6.7436">
        <ele>319</ele>
        <time>2015-06-24T16:49:15.000Z</time>
      </trkpt>
      <trkpt lat="47.47166" lon="6.7436">
        <ele>323</ele>
        <time>2015-06-24T16:49:16.000Z</time>
      </trkpt>
      <trkpt lat="47.47164" lon="6.7436">
        <ele>323</ele>
        <time>2015-06-24T16:49:17.000Z</time>
      </trkpt>
      <trkpt lat="47.47161" lon="6.74361">
        <ele>323</ele>
        <time>2015-06-24T16:49:18.000Z</time>
      </trkpt>
      <trkpt lat="47.47159" lon="6.74361">
        <ele>324</ele>
        <time>2015-06-24T16:49:19.000Z</time>
      </trkpt>
      <trkpt lat="47.47156" lon="6.74362">
        <ele>324</ele>
        <time>2015-06-24T16:49:20.000Z</time>
      </trkpt>
      <trkpt lat="47.47154" lon="6.74362">
        <ele>324</ele>
        <time>2015-06-24T16:49:21.000Z</time>
      </trkpt>
      <trkpt lat="47.47151" lon="6.74362">
        <ele>324</ele>
        <time>2015-06-24T16:49:22.000Z</time>
      </trkpt>
      <trkpt lat="47.47149" lon="6.74363">
        <ele>324</ele>
        <time>2015-06-24T16:49:23.000Z</time>
      </trkpt>
      <trkpt lat="47.47147" lon="6.74363">
        <ele>324</ele>
        <time>2015-06-24T16:49:24.000Z</time>
      </trkpt>
      <trkpt lat="47.47144" lon="6.74364">
        <ele>324</ele>
        <time>2015-06-24T16:49:25.000Z</time>
      </trkpt>
      <trkpt lat="47.47142" lon="6.74366">
        <ele>325</ele>
        <time>2015-06-24T16:49:26.000Z</time>
      </trkpt>
      <trkpt lat="47.47139" lon="6.74367">
        <ele>325</ele>
        <time>2015-06-24T16:49:27.000Z</time>
      </trkpt>
      <trkpt lat="47.47137" lon="6.74368">
        <ele>325</ele>
        <time>2015-06-24T16:49:28.000Z</time>
      </trkpt>
      <trkpt lat="47.47134" lon="6.74369">
        <ele>325</ele>
        <time>2015-06-24T16:49:29.000Z</time>
      </trkpt>
      <trkpt lat="47.47132" lon="6.74369">
        <ele>325</ele>
        <time>2015-06-24T16:49:30.000Z</time>
      </trkpt>
      <trkpt lat="47.47129" lon="6.74369">
        <ele>325</ele>
        <time>2015-06-24T16:49:31.000Z</time>
      </trkpt>
      <trkpt lat="47.47127" lon="6.74368">
        <ele>325</ele>
        <time>2015-06-24T16:49:32.000Z</time>
      </trkpt>
      <trkpt lat="47.47122" lon="6.74368">
        <ele>326</ele>
        <time>2015-06-24T16:49:34.000Z</time>
      </trkpt>
      <trkpt lat="47.4712" lon="6.74368">
        <ele>326</ele>
        <time>2015-06-24T16:49:35.000Z</time>
      </trkpt>
      <trkpt lat="47.47116" lon="6.74369">
        <ele>326</ele>
        <time>2015-06-24T16:49:37.000Z</time>
      </trkpt>
      <trkpt lat="47.47114" lon="6.74369">
        <ele>326</ele>
        <time>2015-06-24T16:49:38.000Z</time>
      </trkpt>
      <trkpt lat="47.4711" lon="6.74369">
        <ele>326</ele>
        <time>2015-06-24T16:49:40.000Z</time>
      </trkpt>
      <trkpt lat="47.47108" lon="6.7437">
        <ele>326</ele>
        <time>2015-06-24T16:49:41.000Z</time>
      </trkpt>
      <trkpt lat="47.47105" lon="6.74371">
        <ele>326</ele>
        <time>2015-06-24T16:49:43.000Z</time>
      </trkpt>
      <trkpt lat="47.47103" lon="6.74372">
        <ele>327</ele>
        <time>2015-06-24T16:49:44.000Z</time>
      </trkpt>
      <trkpt lat="47.471" lon="6.74373">
        <ele>327</ele>
        <time>2015-06-24T16:49:46.000Z</time>
      </trkpt>
      <trkpt lat="47.47098" lon="6.74373">
        <ele>327</ele>
        <time>2015-06-24T16:49:47.000Z</time>
      </trkpt>
      <trkpt lat="47.47094" lon="6.74373">
        <ele>327</ele>
        <time>2015-06-24T16:49:50.000Z</time>
      </trkpt>
      <trkpt lat="47.47092" lon="6.74373">
        <ele>327</ele>
        <time>2015-06-24T16:49:51.000Z</time>
      </trkpt>
      <trkpt lat="47.47089" lon="6.74374">
        <ele>327</ele>
        <time>2015-06-24T16:49:53.000Z</time>
      </trkpt>
      <trkpt lat="47.47088" lon="6.74375">
        <ele>327</ele>
        <time>2015-06-24T16:49:54.000Z</time>
      </trkpt>
      <trkpt lat="47.47084" lon="6.74378">
        <ele>327</ele>
        <time>2015-06-24T16:49:56.000Z</time>
      </trkpt>
      <trkpt lat="47.47083" lon="6.74379">
        <ele>334</ele>
        <time>2015-06-24T16:49:57.000Z</time>
      </trkpt>
      <trkpt lat="47.47079" lon="6.74381">
        <ele>334</ele>
        <time>2015-06-24T16:49:59.000Z</time>
      </trkpt>
      <trkpt lat="47.47078" lon="6.74381">
        <ele>334</ele>
        <time>2015-06-24T16:50:00.000Z</time>
      </trkpt>
      <trkpt lat="47.47074" lon="6.74383">
        <ele>335</ele>
        <time>2015-06-24T16:50:03.000Z</time>
      </trkpt>
      <trkpt lat="47.47072" lon="6.74384">
        <ele>335</ele>
        <time>2015-06-24T16:50:04.000Z</time>
      </trkpt>
      <trkpt lat="47.47069" lon="6.74387">
        <ele>335</ele>
        <time>2015-06-24T16:50:06.000Z</time>
      </trkpt>
      <trkpt lat="47.47067" lon="6.74388">
        <ele>335</ele>
        <time>2015-06-24T16:50:07.000Z</time>
      </trkpt>
      <trkpt lat="47.47064" lon="6.7439">
        <ele>335</ele>
        <time>2015-06-24T16:50:09.000Z</time>
      </trkpt>
      <trkpt lat="47.47063" lon="6.74391">
        <ele>335</ele>
        <time>2015-06-24T16:50:10.000Z</time>
      </trkpt>
      <trkpt lat="47.47059" lon="6.74393">
        <ele>336</ele>
        <time>2015-06-24T16:50:12.000Z</time>
      </trkpt>
      <trkpt lat="47.47057" lon="6.74394">
        <ele>336</ele>
        <time>2015-06-24T16:50:13.000Z</time>
      </trkpt>
      <trkpt lat="47.47053" lon="6.74396">
        <ele>336</ele>
        <time>2015-06-24T16:50:16.000Z</time>
      </trkpt>
      <trkpt lat="47.47052" lon="6.74396">
        <ele>336</ele>
        <time>2015-06-24T16:50:17.000Z</time>
      </trkpt>
      <trkpt lat="47.47049" lon="6.74398">
        <ele>337</ele>
        <time>2015-06-24T16:50:20.000Z</time>
      </trkpt>
      <trkpt lat="47.47047" lon="6.74399">
        <ele>337</ele>
        <time>2015-06-24T16:50:21.000Z</time>
      </trkpt>
      <trkpt lat="47.47044" lon="6.74402">
        <ele>337</ele>
        <time>2015-06-24T16:50:23.000Z</time>
      </trkpt>
      <trkpt lat="47.47043" lon="6.74403">
        <ele>337</ele>
        <time>2015-06-24T16:50:24.000Z</time>
      </trkpt>
      <trkpt lat="47.4704" lon="6.74408">
        <ele>338</ele>
        <time>2015-06-24T16:50:28.000Z</time>
      </trkpt>
      <trkpt lat="47.47038" lon="6.74408">
        <ele>338</ele>
        <time>2015-06-24T16:50:29.000Z</time>
      </trkpt>
      <trkpt lat="47.47035" lon="6.7441">
        <ele>339</ele>
        <time>2015-06-24T16:50:31.000Z</time>
      </trkpt>
      <trkpt lat="47.47034" lon="6.74411">
        <ele>339</ele>
        <time>2015-06-24T16:50:32.000Z</time>
      </trkpt>
      <trkpt lat="47.47033" lon="6.74416">
        <ele>339</ele>
        <time>2015-06-24T16:50:36.000Z</time>
      </trkpt>
      <trkpt lat="47.47033" lon="6.74418">
        <ele>342</ele>
        <time>2015-06-24T16:50:37.000Z</time>
      </trkpt>
      <trkpt lat="47.47031" lon="6.74423">
        <ele>342</ele>
        <time>2015-06-24T16:50:43.000Z</time>
      </trkpt>
      <trkpt lat="47.4703" lon="6.74425">
        <ele>342</ele>
        <time>2015-06-24T16:50:44.000Z</time>
      </trkpt>
      <trkpt lat="47.47028" lon="6.74429">
        <ele>342</ele>
        <time>2015-06-24T16:50:46.000Z</time>
      </trkpt>
      <trkpt lat="47.47027" lon="6.74431">
        <ele>342</ele>
        <time>2015-06-24T16:50:47.000Z</time>
      </trkpt>
      <trkpt lat="47.47025" lon="6.74435">
        <ele>343</ele>
        <time>2015-06-24T16:50:49.000Z</time>
      </trkpt>
      <trkpt lat="47.47024" lon="6.74436">
        <ele>343</ele>
        <time>2015-06-24T16:50:50.000Z</time>
      </trkpt>
      <trkpt lat="47.47021" lon="6.74441">
        <ele>343</ele>
        <time>2015-06-24T16:50:54.000Z</time>
      </trkpt>
      <trkpt lat="47.47021" lon="6.74443">
        <ele>343</ele>
        <time>2015-06-24T16:50:55.000Z</time>
      </trkpt>
      <trkpt lat="47.47018" lon="6.74448">
        <ele>343</ele>
        <time>2015-06-24T16:50:58.000Z</time>
      </trkpt>
      <trkpt lat="47.47017" lon="6.7445">
        <ele>343</ele>
        <time>2015-06-24T16:50:59.000Z</time>
      </trkpt>
      <trkpt lat="47.47014" lon="6.74454">
        <ele>343</ele>
        <time>2015-06-24T16:51:02.000Z</time>
      </trkpt>
      <trkpt lat="47.47013" lon="6.74455">
        <ele>343</ele>
        <time>2015-06-24T16:51:03.000Z</time>
      </trkpt>
      <trkpt lat="47.47011" lon="6.74459">
        <ele>343</ele>
        <time>2015-06-24T16:51:05.000Z</time>
      </trkpt>
      <trkpt lat="47.4701" lon="6.74461">
        <ele>343</ele>
        <time>2015-06-24T16:51:06.000Z</time>
      </trkpt>
      <trkpt lat="47.47008" lon="6.74464">
        <ele>343</ele>
        <time>2015-06-24T16:51:08.000Z</time>
      </trkpt>
      <trkpt lat="47.47007" lon="6.74466">
        <ele>343</ele>
        <time>2015-06-24T16:51:09.000Z</time>
      </trkpt>
      <trkpt lat="47.47003" lon="6.74469">
        <ele>344</ele>
        <time>2015-06-24T16:51:12.000Z</time>
      </trkpt>
      <trkpt lat="47.47001" lon="6.74471">
        <ele>344</ele>
        <time>2015-06-24T16:51:13.000Z</time>
      </trkpt>
      <trkpt lat="47.46998" lon="6.74473">
        <ele>349</ele>
        <time>2015-06-24T16:51:15.000Z</time>
      </trkpt>
      <trkpt lat="47.46997" lon="6.74474">
        <ele>349</ele>
        <time>2015-06-24T16:51:16.000Z</time>
      </trkpt>
      <trkpt lat="47.46994" lon="6.74476">
        <ele>349</ele>
        <time>2015-06-24T16:51:18.000Z</time>
      </trkpt>
      <trkpt lat="47.46993" lon="6.74478">
        <ele>349</ele>
        <time>2015-06-24T16:51:19.000Z</time>
      </trkpt>
      <trkpt lat="47.46991" lon="6.7448">
        <ele>349</ele>
        <time>2015-06-24T16:51:21.000Z</time>
      </trkpt>
      <trkpt lat="47.46989" lon="6.74482">
        <ele>349</ele>
        <time>2015-06-24T16:51:22.000Z</time>
      </trkpt>
      <trkpt lat="47.46986" lon="6.74485">
        <ele>349</ele>
        <time>2015-06-24T16:51:24.000Z</time>
      </trkpt>
      <trkpt lat="47.46984" lon="6.74486">
        <ele>349</ele>
        <time>2015-06-24T16:51:25.000Z</time>
      </trkpt>
      <trkpt lat="47.46981" lon="6.74488">
        <ele>349</ele>
        <time>2015-06-24T16:51:27.000Z</time>
      </trkpt>
      <trkpt lat="47.4698" lon="6.74489">
        <ele>349</ele>
        <time>2015-06-24T16:51:28.000Z</time>
      </trkpt>
      <trkpt lat="47.46977" lon="6.74491">
        <ele>349</ele>
        <time>2015-06-24T16:51:30.000Z</time>
      </trkpt>
      <trkpt lat="47.46975" lon="6.74492">
        <ele>349</ele>
        <time>2015-06-24T16:51:31.000Z</time>
      </trkpt>
      <trkpt lat="47.46972" lon="6.74494">
        <ele>350</ele>
        <time>2015-06-24T16:51:33.000Z</time>
      </trkpt>
      <trkpt lat="47.46971" lon="6.74494">
        <ele>350</ele>
        <time>2015-06-24T16:51:34.000Z</time>
      </trkpt>
      <trkpt lat="47.46967" lon="6.74496">
        <ele>350</ele>
        <time>2015-06-24T16:51:36.000Z</time>
      </trkpt>
      <trkpt lat="47.46966" lon="6.74497">
        <ele>350</ele>
        <time>2015-06-24T16:51:37.000Z</time>
      </trkpt>
      <trkpt lat="47.46963" lon="6.74498">
        <ele>350</ele>
        <time>2015-06-24T16:51:39.000Z</time>
      </trkpt>
      <trkpt lat="47.46961" lon="6.74498">
        <ele>350</ele>
        <time>2015-06-24T16:51:40.000Z</time>
      </trkpt>
      <trkpt lat="47.46958" lon="6.745">
        <ele>350</ele>
        <time>2015-06-24T16:51:42.000Z</time>
      </trkpt>
      <trkpt lat="47.46956" lon="6.74501">
        <ele>348</ele>
        <time>2015-06-24T16:51:43.000Z</time>
      </trkpt>
      <trkpt lat="47.46954" lon="6.74502">
        <ele>348</ele>
        <time>2015-06-24T16:51:44.000Z</time>
      </trkpt>
      <trkpt lat="47.46952" lon="6.74504">
        <ele>349</ele>
        <time>2015-06-24T16:51:45.000Z</time>
      </trkpt>
      <trkpt lat="47.46948" lon="6.74506">
        <ele>349</ele>
        <time>2015-06-24T16:51:48.000Z</time>
      </trkpt>
      <trkpt lat="47.46946" lon="6.74507">
        <ele>349</ele>
        <time>2015-06-24T16:51:49.000Z</time>
      </trkpt>
      <trkpt lat="47.46945" lon="6.7451">
        <ele>349</ele>
        <time>2015-06-24T16:51:51.000Z</time>
      </trkpt>
      <trkpt lat="47.46943" lon="6.74512">
        <ele>349</ele>
        <time>2015-06-24T16:51:52.000Z</time>
      </trkpt>
      <trkpt lat="47.46939" lon="6.74514">
        <ele>349</ele>
        <time>2015-06-24T16:51:54.000Z</time>
      </trkpt>
      <trkpt lat="47.46938" lon="6.74514">
        <ele>349</ele>
        <time>2015-06-24T16:51:55.000Z</time>
      </trkpt>
      <trkpt lat="47.46936" lon="6.74508">
        <ele>349</ele>
        <time>2015-06-24T16:51:58.000Z</time>
      </trkpt>
      <trkpt lat="47.46935" lon="6.74506">
        <ele>350</ele>
        <time>2015-06-24T16:51:59.000Z</time>
      </trkpt>
      <trkpt lat="47.46934" lon="6.745">
        <ele>350</ele>
        <time>2015-06-24T16:52:01.000Z</time>
      </trkpt>
      <trkpt lat="47.46933" lon="6.74497">
        <ele>351</ele>
        <time>2015-06-24T16:52:02.000Z</time>
      </trkpt>
      <trkpt lat="47.46931" lon="6.74491">
        <ele>351</ele>
        <time>2015-06-24T16:52:04.000Z</time>
      </trkpt>
      <trkpt lat="47.4693" lon="6.74489">
        <ele>351</ele>
        <time>2015-06-24T16:52:05.000Z</time>
      </trkpt>
      <trkpt lat="47.46927" lon="6.74484">
        <ele>352</ele>
        <time>2015-06-24T16:52:07.000Z</time>
      </trkpt>
      <trkpt lat="47.46926" lon="6.74481">
        <ele>352</ele>
        <time>2015-06-24T16:52:08.000Z</time>
      </trkpt>
      <trkpt lat="47.46924" lon="6.74476">
        <ele>352</ele>
        <time>2015-06-24T16:52:10.000Z</time>
      </trkpt>
      <trkpt lat="47.46923" lon="6.74472">
        <ele>352</ele>
        <time>2015-06-24T16:52:11.000Z</time>
      </trkpt>
      <trkpt lat="47.46921" lon="6.74467">
        <ele>352</ele>
        <time>2015-06-24T16:52:13.000Z</time>
      </trkpt>
      <trkpt lat="47.46919" lon="6.74465">
        <ele>352</ele>
        <time>2015-06-24T16:52:14.000Z</time>
      </trkpt>
      <trkpt lat="47.46917" lon="6.7446">
        <ele>352</ele>
        <time>2015-06-24T16:52:16.000Z</time>
      </trkpt>
      <trkpt lat="47.46916" lon="6.74458">
        <ele>361</ele>
        <time>2015-06-24T16:52:17.000Z</time>
      </trkpt>
      <trkpt lat="47.46914" lon="6.74454">
        <ele>362</ele>
        <time>2015-06-24T16:52:19.000Z</time>
      </trkpt>
      <trkpt lat="47.46913" lon="6.74451">
        <ele>362</ele>
        <time>2015-06-24T16:52:20.000Z</time>
      </trkpt>
      <trkpt lat="47.46911" lon="6.74446">
        <ele>362</ele>
        <time>2015-06-24T16:52:22.000Z</time>
      </trkpt>
      <trkpt lat="47.4691" lon="6.74444">
        <ele>362</ele>
        <time>2015-06-24T16:52:23.000Z</time>
      </trkpt>
      <trkpt lat="47.46908" lon="6.74438">
        <ele>362</ele>
        <time>2015-06-24T16:52:25.000Z</time>
      </trkpt>
      <trkpt lat="47.46907" lon="6.74436">
        <ele>362</ele>
        <time>2015-06-24T16:52:26.000Z</time>
      </trkpt>
      <trkpt lat="47.46906" lon="6.74431">
        <ele>361</ele>
        <time>2015-06-24T16:52:28.000Z</time>
      </trkpt>
      <trkpt lat="47.46906" lon="6.74428">
        <ele>361</ele>
        <time>2015-06-24T16:52:29.000Z</time>
      </trkpt>
      <trkpt lat="47.46904" lon="6.74423">
        <ele>361</ele>
        <time>2015-06-24T16:52:31.000Z</time>
      </trkpt>
      <trkpt lat="47.46903" lon="6.7442">
        <ele>361</ele>
        <time>2015-06-24T16:52:32.000Z</time>
      </trkpt>
      <trkpt lat="47.46901" lon="6.74415">
        <ele>365</ele>
        <time>2015-06-24T16:52:34.000Z</time>
      </trkpt>
      <trkpt lat="47.469" lon="6.74413">
        <ele>366</ele>
        <time>2015-06-24T16:52:35.000Z</time>
      </trkpt>
      <trkpt lat="47.46899" lon="6.74408">
        <ele>367</ele>
        <time>2015-06-24T16:52:37.000Z</time>
      </trkpt>
      <trkpt lat="47.46899" lon="6.74406">
        <ele>367</ele>
        <time>2015-06-24T16:52:38.000Z</time>
      </trkpt>
      <trkpt lat="47.46898" lon="6.74402">
        <ele>368</ele>
        <time>2015-06-24T16:52:40.000Z</time>
      </trkpt>
      <trkpt lat="47.46898" lon="6.74399">
        <ele>369</ele>
        <time>2015-06-24T16:52:41.000Z</time>
      </trkpt>
      <trkpt lat="47.46897" lon="6.74395">
        <ele>370</ele>
        <time>2015-06-24T16:52:43.000Z</time>
      </trkpt>
      <trkpt lat="47.46896" lon="6.74393">
        <ele>370</ele>
        <time>2015-06-24T16:52:44.000Z</time>
      </trkpt>
      <trkpt lat="47.46895" lon="6.74388">
        <ele>371</ele>
        <time>2015-06-24T16:52:46.000Z</time>
      </trkpt>
      <trkpt lat="47.46893" lon="6.74387">
        <ele>371</ele>
        <time>2015-06-24T16:52:47.000Z</time>
      </trkpt>
      <trkpt lat="47.46891" lon="6.74382">
        <ele>372</ele>
        <time>2015-06-24T16:52:51.000Z</time>
      </trkpt>
      <trkpt lat="47.46892" lon="6.7438">
        <ele>372</ele>
        <time>2015-06-24T16:52:52.000Z</time>
      </trkpt>
      <trkpt lat="47.46894" lon="6.74375">
        <ele>372</ele>
        <time>2015-06-24T16:52:55.000Z</time>
      </trkpt>
      <trkpt lat="47.46894" lon="6.74373">
        <ele>372</ele>
        <time>2015-06-24T16:52:56.000Z</time>
      </trkpt>
      <trkpt lat="47.46895" lon="6.74368">
        <ele>373</ele>
        <time>2015-06-24T16:52:59.000Z</time>
      </trkpt>
      <trkpt lat="47.46895" lon="6.74366">
        <ele>373</ele>
        <time>2015-06-24T16:53:00.000Z</time>
      </trkpt>
      <trkpt lat="47.46898" lon="6.74361">
        <ele>372</ele>
        <time>2015-06-24T16:53:04.000Z</time>
      </trkpt>
      <trkpt lat="47.46898" lon="6.7436">
        <ele>372</ele>
        <time>2015-06-24T16:53:05.000Z</time>
      </trkpt>
      <trkpt lat="47.46899" lon="6.74353">
        <ele>372</ele>
        <time>2015-06-24T16:53:09.000Z</time>
      </trkpt>
      <trkpt lat="47.46899" lon="6.74352">
        <ele>372</ele>
        <time>2015-06-24T16:53:10.000Z</time>
      </trkpt>
      <trkpt lat="47.46898" lon="6.74347">
        <ele>372</ele>
        <time>2015-06-24T16:53:13.000Z</time>
      </trkpt>
      <trkpt lat="47.46898" lon="6.74345">
        <ele>372</ele>
        <time>2015-06-24T16:53:14.000Z</time>
      </trkpt>
      <trkpt lat="47.46897" lon="6.74339">
        <ele>372</ele>
        <time>2015-06-24T16:53:17.000Z</time>
      </trkpt>
      <trkpt lat="47.46897" lon="6.74337">
        <ele>372</ele>
        <time>2015-06-24T16:53:18.000Z</time>
      </trkpt>
      <trkpt lat="47.46896" lon="6.74331">
        <ele>377</ele>
        <time>2015-06-24T16:53:24.000Z</time>
      </trkpt>
      <trkpt lat="47.46896" lon="6.74329">
        <ele>377</ele>
        <time>2015-06-24T16:53:25.000Z</time>
      </trkpt>
      <trkpt lat="47.46896" lon="6.74323">
        <ele>378</ele>
        <time>2015-06-24T16:53:28.000Z</time>
      </trkpt>
      <trkpt lat="47.46897" lon="6.74321">
        <ele>378</ele>
        <time>2015-06-24T16:53:29.000Z</time>
      </trkpt>
      <trkpt lat="47.46899" lon="6.74317">
        <ele>378</ele>
        <time>2015-06-24T16:53:32.000Z</time>
      </trkpt>
      <trkpt lat="47.469" lon="6.74316">
        <ele>378</ele>
        <time>2015-06-24T16:53:33.000Z</time>
      </trkpt>
      <trkpt lat="47.46902" lon="6.7431">
        <ele>378</ele>
        <time>2015-06-24T16:53:37.000Z</time>
      </trkpt>
      <trkpt lat="47.46902" lon="6.74309">
        <ele>379</ele>
        <time>2015-06-24T16:53:38.000Z</time>
      </trkpt>
      <trkpt lat="47.46904" lon="6.74305">
        <ele>379</ele>
        <time>2015-06-24T16:53:42.000Z</time>
      </trkpt>
      <trkpt lat="47.46904" lon="6.74303">
        <ele>379</ele>
        <time>2015-06-24T16:53:43.000Z</time>
      </trkpt>
      <trkpt lat="47.46905" lon="6.74298">
        <ele>380</ele>
        <time>2015-06-24T16:53:45.000Z</time>
      </trkpt>
      <trkpt lat="47.46904" lon="6.74296">
        <ele>380</ele>
        <time>2015-06-24T16:53:46.000Z</time>
      </trkpt>
      <trkpt lat="47.46904" lon="6.74291">
        <ele>381</ele>
        <time>2015-06-24T16:53:48.000Z</time>
      </trkpt>
      <trkpt lat="47.46904" lon="6.74288">
        <ele>381</ele>
        <time>2015-06-24T16:53:49.000Z</time>
      </trkpt>
      <trkpt lat="47.46905" lon="6.74283">
        <ele>381</ele>
        <time>2015-06-24T16:53:52.000Z</time>
      </trkpt>
      <trkpt lat="47.46906" lon="6.7428">
        <ele>381</ele>
        <time>2015-06-24T16:53:53.000Z</time>
      </trkpt>
      <trkpt lat="47.46906" lon="6.74275">
        <ele>381</ele>
        <time>2015-06-24T16:53:55.000Z</time>
      </trkpt>
      <trkpt lat="47.46907" lon="6.74272">
        <ele>380</ele>
        <time>2015-06-24T16:53:56.000Z</time>
      </trkpt>
      <trkpt lat="47.46907" lon="6.74267">
        <ele>380</ele>
        <time>2015-06-24T16:53:58.000Z</time>
      </trkpt>
      <trkpt lat="47.46906" lon="6.74264">
        <ele>380</ele>
        <time>2015-06-24T16:53:59.000Z</time>
      </trkpt>
      <trkpt lat="47.46906" lon="6.74259">
        <ele>379</ele>
        <time>2015-06-24T16:54:01.000Z</time>
      </trkpt>
      <trkpt lat="47.46906" lon="6.74256">
        <ele>379</ele>
        <time>2015-06-24T16:54:02.000Z</time>
      </trkpt>
      <trkpt lat="47.46907" lon="6.74251">
        <ele>378</ele>
        <time>2015-06-24T16:54:04.000Z</time>
      </trkpt>
      <trkpt lat="47.46907" lon="6.74249">
        <ele>380</ele>
        <time>2015-06-24T16:54:05.000Z</time>
      </trkpt>
      <trkpt lat="47.46907" lon="6.74242">
        <ele>381</ele>
        <time>2015-06-24T16:54:09.000Z</time>
      </trkpt>
      <trkpt lat="47.46908" lon="6.74241">
        <ele>382</ele>
        <time>2015-06-24T16:54:10.000Z</time>
      </trkpt>
      <trkpt lat="47.46908" lon="6.74236">
        <ele>383</ele>
        <time>2015-06-24T16:54:13.000Z</time>
      </trkpt>
      <trkpt lat="47.46909" lon="6.74234">
        <ele>383</ele>
        <time>2015-06-24T16:54:14.000Z</time>
      </trkpt>
      <trkpt lat="47.4691" lon="6.74227">
        <ele>384</ele>
        <time>2015-06-24T16:54:17.000Z</time>
      </trkpt>
      <trkpt lat="47.4691" lon="6.74225">
        <ele>385</ele>
        <time>2015-06-24T16:54:18.000Z</time>
      </trkpt>
      <trkpt lat="47.46909" lon="6.7422">
        <ele>386</ele>
        <time>2015-06-24T16:54:20.000Z</time>
      </trkpt>
      <trkpt lat="47.46909" lon="6.74218">
        <ele>386</ele>
        <time>2015-06-24T16:54:21.000Z</time>
      </trkpt>
      <trkpt lat="47.46908" lon="6.74213">
        <ele>386</ele>
        <time>2015-06-24T16:54:23.000Z</time>
      </trkpt>
      <trkpt lat="47.46908" lon="6.74211">
        <ele>387</ele>
        <time>2015-06-24T16:54:24.000Z</time>
      </trkpt>
      <trkpt lat="47.46908" lon="6.74205">
        <ele>387</ele>
        <time>2015-06-24T16:54:27.000Z</time>
      </trkpt>
      <trkpt lat="47.46908" lon="6.74204">
        <ele>387</ele>
        <time>2015-06-24T16:54:28.000Z</time>
      </trkpt>
      <trkpt lat="47.46909" lon="6.74199">
        <ele>387</ele>
        <time>2015-06-24T16:54:31.000Z</time>
      </trkpt>
      <trkpt lat="47.4691" lon="6.74197">
        <ele>387</ele>
        <time>2015-06-24T16:54:32.000Z</time>
      </trkpt>
      <trkpt lat="47.46911" lon="6.74191">
        <ele>387</ele>
        <time>2015-06-24T16:54:37.000Z</time>
      </trkpt>
      <trkpt lat="47.46911" lon="6.74189">
        <ele>387</ele>
        <time>2015-06-24T16:54:38.000Z</time>
      </trkpt>
      <trkpt lat="47.4691" lon="6.74185">
        <ele>386</ele>
        <time>2015-06-24T16:54:40.000Z</time>
      </trkpt>
      <trkpt lat="47.4691" lon="6.74182">
        <ele>386</ele>
        <time>2015-06-24T16:54:41.000Z</time>
      </trkpt>
      <trkpt lat="47.46909" lon="6.74178">
        <ele>386</ele>
        <time>2015-06-24T16:54:43.000Z</time>
      </trkpt>
      <trkpt lat="47.46908" lon="6.74175">
        <ele>385</ele>
        <time>2015-06-24T16:54:44.000Z</time>
      </trkpt>
      <trkpt lat="47.46908" lon="6.7417">
        <ele>385</ele>
        <time>2015-06-24T16:54:46.000Z</time>
      </trkpt>
      <trkpt lat="47.46908" lon="6.74167">
        <ele>385</ele>
        <time>2015-06-24T16:54:47.000Z</time>
      </trkpt>
      <trkpt lat="47.46908" lon="6.74162">
        <ele>386</ele>
        <time>2015-06-24T16:54:51.000Z</time>
      </trkpt>
      <trkpt lat="47.46908" lon="6.74161">
        <ele>386</ele>
        <time>2015-06-24T16:54:52.000Z</time>
      </trkpt>
      <trkpt lat="47.46908" lon="6.74155">
        <ele>388</ele>
        <time>2015-06-24T16:54:55.000Z</time>
      </trkpt>
      <trkpt lat="47.46908" lon="6.74152">
        <ele>388</ele>
        <time>2015-06-24T16:54:56.000Z</time>
      </trkpt>
      <trkpt lat="47.46907" lon="6.74148">
        <ele>389</ele>
        <time>2015-06-24T16:54:58.000Z</time>
      </trkpt>
      <trkpt lat="47.46907" lon="6.74145">
        <ele>389</ele>
        <time>2015-06-24T16:54:59.000Z</time>
      </trkpt>
      <trkpt lat="47.46907" lon="6.74139">
        <ele>390</ele>
        <time>2015-06-24T16:55:02.000Z</time>
      </trkpt>
      <trkpt lat="47.46908" lon="6.74137">
        <ele>390</ele>
        <time>2015-06-24T16:55:03.000Z</time>
      </trkpt>
      <trkpt lat="47.4691" lon="6.74133">
        <ele>390</ele>
        <time>2015-06-24T16:55:05.000Z</time>
      </trkpt>
      <trkpt lat="47.46911" lon="6.74131">
        <ele>390</ele>
        <time>2015-06-24T16:55:06.000Z</time>
      </trkpt>
      <trkpt lat="47.46912" lon="6.74127">
        <ele>390</ele>
        <time>2015-06-24T16:55:08.000Z</time>
      </trkpt>
      <trkpt lat="47.46913" lon="6.74124">
        <ele>391</ele>
        <time>2015-06-24T16:55:09.000Z</time>
      </trkpt>
      <trkpt lat="47.46913" lon="6.7412">
        <ele>391</ele>
        <time>2015-06-24T16:55:11.000Z</time>
      </trkpt>
      <trkpt lat="47.46913" lon="6.74118">
        <ele>391</ele>
        <time>2015-06-24T16:55:12.000Z</time>
      </trkpt>
      <trkpt lat="47.46913" lon="6.74111">
        <ele>390</ele>
        <time>2015-06-24T16:55:15.000Z</time>
      </trkpt>
      <trkpt lat="47.46913" lon="6.74109">
        <ele>390</ele>
        <time>2015-06-24T16:55:16.000Z</time>
      </trkpt>
      <trkpt lat="47.46913" lon="6.74105">
        <ele>390</ele>
        <time>2015-06-24T16:55:18.000Z</time>
      </trkpt>
      <trkpt lat="47.46912" lon="6.74103">
        <ele>390</ele>
        <time>2015-06-24T16:55:19.000Z</time>
      </trkpt>
      <trkpt lat="47.46911" lon="6.74098">
        <ele>390</ele>
        <time>2015-06-24T16:55:21.000Z</time>
      </trkpt>
      <trkpt lat="47.4691" lon="6.74096">
        <ele>389</ele>
        <time>2015-06-24T16:55:22.000Z</time>
      </trkpt>
      <trkpt lat="47.46909" lon="6.7409">
        <ele>389</ele>
        <time>2015-06-24T16:55:25.000Z</time>
      </trkpt>
      <trkpt lat="47.46909" lon="6.74089">
        <ele>389</ele>
        <time>2015-06-24T16:55:26.000Z</time>
      </trkpt>
      <trkpt lat="47.46908" lon="6.74083">
        <ele>389</ele>
        <time>2015-06-24T16:55:29.000Z</time>
      </trkpt>
      <trkpt lat="47.46907" lon="6.74081">
        <ele>389</ele>
        <time>2015-06-24T16:55:30.000Z</time>
      </trkpt>
      <trkpt lat="47.46905" lon="6.74078">
        <ele>390</ele>
        <time>2015-06-24T16:55:32.000Z</time>
      </trkpt>
      <trkpt lat="47.46904" lon="6.74076">
        <ele>390</ele>
        <time>2015-06-24T16:55:33.000Z</time>
      </trkpt>
      <trkpt lat="47.46902" lon="6.74072">
        <ele>391</ele>
        <time>2015-06-24T16:55:35.000Z</time>
      </trkpt>
      <trkpt lat="47.46901" lon="6.74069">
        <ele>391</ele>
        <time>2015-06-24T16:55:36.000Z</time>
      </trkpt>
      <trkpt lat="47.46901" lon="6.74063">
        <ele>392</ele>
        <time>2015-06-24T16:55:39.000Z</time>
      </trkpt>
      <trkpt lat="47.46901" lon="6.74062">
        <ele>392</ele>
        <time>2015-06-24T16:55:40.000Z</time>
      </trkpt>
      <trkpt lat="47.469" lon="6.74057">
        <ele>392</ele>
        <time>2015-06-24T16:55:43.000Z</time>
      </trkpt>
      <trkpt lat="47.46899" lon="6.74055">
        <ele>392</ele>
        <time>2015-06-24T16:55:44.000Z</time>
      </trkpt>
      <trkpt lat="47.46898" lon="6.7405">
        <ele>393</ele>
        <time>2015-06-24T16:55:46.000Z</time>
      </trkpt>
      <trkpt lat="47.46898" lon="6.74048">
        <ele>393</ele>
        <time>2015-06-24T16:55:47.000Z</time>
      </trkpt>
      <trkpt lat="47.46897" lon="6.74043">
        <ele>393</ele>
        <time>2015-06-24T16:55:49.000Z</time>
      </trkpt>
      <trkpt lat="47.46896" lon="6.74041">
        <ele>393</ele>
        <time>2015-06-24T16:55:50.000Z</time>
      </trkpt>
      <trkpt lat="47.46895" lon="6.74036">
        <ele>393</ele>
        <time>2015-06-24T16:55:53.000Z</time>
      </trkpt>
      <trkpt lat="47.46895" lon="6.74034">
        <ele>393</ele>
        <time>2015-06-24T16:55:54.000Z</time>
      </trkpt>
      <trkpt lat="47.46894" lon="6.74029">
        <ele>393</ele>
        <time>2015-06-24T16:55:56.000Z</time>
      </trkpt>
      <trkpt lat="47.46893" lon="6.74027">
        <ele>393</ele>
        <time>2015-06-24T16:55:57.000Z</time>
      </trkpt>
      <trkpt lat="47.46892" lon="6.74021">
        <ele>393</ele>
        <time>2015-06-24T16:56:00.000Z</time>
      </trkpt>
      <trkpt lat="47.46892" lon="6.74019">
        <ele>393</ele>
        <time>2015-06-24T16:56:01.000Z</time>
      </trkpt>
      <trkpt lat="47.46891" lon="6.74014">
        <ele>393</ele>
        <time>2015-06-24T16:56:03.000Z</time>
      </trkpt>
      <trkpt lat="47.4689" lon="6.74012">
        <ele>393</ele>
        <time>2015-06-24T16:56:04.000Z</time>
      </trkpt>
      <trkpt lat="47.46888" lon="6.74006">
        <ele>393</ele>
        <time>2015-06-24T16:56:07.000Z</time>
      </trkpt>
      <trkpt lat="47.46887" lon="6.74004">
        <ele>393</ele>
        <time>2015-06-24T16:56:08.000Z</time>
      </trkpt>
      <trkpt lat="47.46886" lon="6.73999">
        <ele>394</ele>
        <time>2015-06-24T16:56:10.000Z</time>
      </trkpt>
      <trkpt lat="47.46885" lon="6.73997">
        <ele>394</ele>
        <time>2015-06-24T16:56:11.000Z</time>
      </trkpt>
      <trkpt lat="47.46884" lon="6.73992">
        <ele>394</ele>
        <time>2015-06-24T16:56:13.000Z</time>
      </trkpt>
      <trkpt lat="47.46883" lon="6.7399">
        <ele>394</ele>
        <time>2015-06-24T16:56:14.000Z</time>
      </trkpt>
      <trkpt lat="47.46882" lon="6.73986">
        <ele>394</ele>
        <time>2015-06-24T16:56:16.000Z</time>
      </trkpt>
      <trkpt lat="47.46881" lon="6.73984">
        <ele>395</ele>
        <time>2015-06-24T16:56:17.000Z</time>
      </trkpt>
      <trkpt lat="47.4688" lon="6.73978">
        <ele>395</ele>
        <time>2015-06-24T16:56:20.000Z</time>
      </trkpt>
      <trkpt lat="47.46879" lon="6.73976">
        <ele>395</ele>
        <time>2015-06-24T16:56:21.000Z</time>
      </trkpt>
      <trkpt lat="47.46878" lon="6.73971">
        <ele>395</ele>
        <time>2015-06-24T16:56:23.000Z</time>
      </trkpt>
      <trkpt lat="47.46877" lon="6.73969">
        <ele>395</ele>
        <time>2015-06-24T16:56:24.000Z</time>
      </trkpt>
      <trkpt lat="47.46875" lon="6.73964">
        <ele>395</ele>
        <time>2015-06-24T16:56:27.000Z</time>
      </trkpt>
      <trkpt lat="47.46874" lon="6.73963">
        <ele>395</ele>
        <time>2015-06-24T16:56:28.000Z</time>
      </trkpt>
      <trkpt lat="47.46872" lon="6.73959">
        <ele>396</ele>
        <time>2015-06-24T16:56:30.000Z</time>
      </trkpt>
      <trkpt lat="47.46871" lon="6.73957">
        <ele>396</ele>
        <time>2015-06-24T16:56:31.000Z</time>
      </trkpt>
      <trkpt lat="47.46868" lon="6.73953">
        <ele>396</ele>
        <time>2015-06-24T16:56:33.000Z</time>
      </trkpt>
      <trkpt lat="47.46867" lon="6.7395">
        <ele>396</ele>
        <time>2015-06-24T16:56:34.000Z</time>
      </trkpt>
      <trkpt lat="47.46865" lon="6.73945">
        <ele>396</ele>
        <time>2015-06-24T16:56:36.000Z</time>
      </trkpt>
      <trkpt lat="47.46864" lon="6.73943">
        <ele>396</ele>
        <time>2015-06-24T16:56:37.000Z</time>
      </trkpt>
      <trkpt lat="47.46862" lon="6.73938">
        <ele>397</ele>
        <time>2015-06-24T16:56:39.000Z</time>
      </trkpt>
      <trkpt lat="47.46862" lon="6.73936">
        <ele>397</ele>
        <time>2015-06-24T16:56:40.000Z</time>
      </trkpt>
      <trkpt lat="47.4686" lon="6.73931">
        <ele>397</ele>
        <time>2015-06-24T16:56:43.000Z</time>
      </trkpt>
      <trkpt lat="47.46859" lon="6.7393">
        <ele>397</ele>
        <time>2015-06-24T16:56:44.000Z</time>
      </trkpt>
      <trkpt lat="47.46857" lon="6.73925">
        <ele>397</ele>
        <time>2015-06-24T16:56:47.000Z</time>
      </trkpt>
      <trkpt lat="47.46857" lon="6.73922">
        <ele>398</ele>
        <time>2015-06-24T16:56:48.000Z</time>
      </trkpt>
      <trkpt lat="47.46856" lon="6.73918">
        <ele>398</ele>
        <time>2015-06-24T16:56:50.000Z</time>
      </trkpt>
      <trkpt lat="47.46855" lon="6.73916">
        <ele>399</ele>
        <time>2015-06-24T16:56:51.000Z</time>
      </trkpt>
      <trkpt lat="47.46854" lon="6.73911">
        <ele>399</ele>
        <time>2015-06-24T16:56:53.000Z</time>
      </trkpt>
      <trkpt lat="47.46853" lon="6.73909">
        <ele>399</ele>
        <time>2015-06-24T16:56:54.000Z</time>
      </trkpt>
      <trkpt lat="47.46851" lon="6.73903">
        <ele>400</ele>
        <time>2015-06-24T16:56:56.000Z</time>
      </trkpt>
      <trkpt lat="47.4685" lon="6.73901">
        <ele>400</ele>
        <time>2015-06-24T16:56:57.000Z</time>
      </trkpt>
      <trkpt lat="47.46848" lon="6.73896">
        <ele>400</ele>
        <time>2015-06-24T16:56:59.000Z</time>
      </trkpt>
      <trkpt lat="47.46847" lon="6.73894">
        <ele>400</ele>
        <time>2015-06-24T16:57:00.000Z</time>
      </trkpt>
      <trkpt lat="47.46844" lon="6.73889">
        <ele>400</ele>
        <time>2015-06-24T16:57:02.000Z</time>
      </trkpt>
      <trkpt lat="47.46844" lon="6.73886">
        <ele>400</ele>
        <time>2015-06-24T16:57:03.000Z</time>
      </trkpt>
      <trkpt lat="47.46842" lon="6.7388">
        <ele>400</ele>
        <time>2015-06-24T16:57:05.000Z</time>
      </trkpt>
      <trkpt lat="47.46842" lon="6.73876">
        <ele>400</ele>
        <time>2015-06-24T16:57:06.000Z</time>
      </trkpt>
      <trkpt lat="47.46841" lon="6.73872">
        <ele>400</ele>
        <time>2015-06-24T16:57:07.000Z</time>
      </trkpt>
      <trkpt lat="47.46841" lon="6.73869">
        <ele>400</ele>
        <time>2015-06-24T16:57:08.000Z</time>
      </trkpt>
      <trkpt lat="47.4684" lon="6.73865">
        <ele>401</ele>
        <time>2015-06-24T16:57:09.000Z</time>
      </trkpt>
      <trkpt lat="47.4684" lon="6.7386">
        <ele>401</ele>
        <time>2015-06-24T16:57:10.000Z</time>
      </trkpt>
      <trkpt lat="47.4684" lon="6.73856">
        <ele>401</ele>
        <time>2015-06-24T16:57:11.000Z</time>
      </trkpt>
      <trkpt lat="47.46839" lon="6.73852">
        <ele>402</ele>
        <time>2015-06-24T16:57:12.000Z</time>
      </trkpt>
      <trkpt lat="47.46839" lon="6.73848">
        <ele>402</ele>
        <time>2015-06-24T16:57:13.000Z</time>
      </trkpt>
      <trkpt lat="47.46839" lon="6.73844">
        <ele>403</ele>
        <time>2015-06-24T16:57:14.000Z</time>
      </trkpt>
      <trkpt lat="47.46838" lon="6.7384">
        <ele>403</ele>
        <time>2015-06-24T16:57:15.000Z</time>
      </trkpt>
      <trkpt lat="47.46838" lon="6.73837">
        <ele>404</ele>
        <time>2015-06-24T16:57:16.000Z</time>
      </trkpt>
      <trkpt lat="47.46838" lon="6.73833">
        <ele>404</ele>
        <time>2015-06-24T16:57:17.000Z</time>
      </trkpt>
      <trkpt lat="47.46837" lon="6.73829">
        <ele>404</ele>
        <time>2015-06-24T16:57:18.000Z</time>
      </trkpt>
      <trkpt lat="47.46837" lon="6.73825">
        <ele>403</ele>
        <time>2015-06-24T16:57:19.000Z</time>
      </trkpt>
      <trkpt lat="47.46836" lon="6.73821">
        <ele>403</ele>
        <time>2015-06-24T16:57:20.000Z</time>
      </trkpt>
      <trkpt lat="47.46835" lon="6.73818">
        <ele>402</ele>
        <time>2015-06-24T16:57:21.000Z</time>
      </trkpt>
      <trkpt lat="47.46835" lon="6.73813">
        <ele>402</ele>
        <time>2015-06-24T16:57:22.000Z</time>
      </trkpt>
      <trkpt lat="47.46834" lon="6.73808">
        <ele>401</ele>
        <time>2015-06-24T16:57:23.000Z</time>
      </trkpt>
      <trkpt lat="47.46833" lon="6.73803">
        <ele>402</ele>
        <time>2015-06-24T16:57:24.000Z</time>
      </trkpt>
      <trkpt lat="47.46832" lon="6.73799">
        <ele>402</ele>
        <time>2015-06-24T16:57:25.000Z</time>
      </trkpt>
      <trkpt lat="47.4683" lon="6.73795">
        <ele>402</ele>
        <time>2015-06-24T16:57:26.000Z</time>
      </trkpt>
      <trkpt lat="47.46827" lon="6.73791">
        <ele>402</ele>
        <time>2015-06-24T16:57:27.000Z</time>
      </trkpt>
      <trkpt lat="47.46824" lon="6.73789">
        <ele>401</ele>
        <time>2015-06-24T16:57:28.000Z</time>
      </trkpt>
      <trkpt lat="47.46821" lon="6.73787">
        <ele>401</ele>
        <time>2015-06-24T16:57:29.000Z</time>
      </trkpt>
      <trkpt lat="47.46818" lon="6.73786">
        <ele>401</ele>
        <time>2015-06-24T16:57:30.000Z</time>
      </trkpt>
      <trkpt lat="47.46815" lon="6.73786">
        <ele>401</ele>
        <time>2015-06-24T16:57:31.000Z</time>
      </trkpt>
      <trkpt lat="47.46811" lon="6.73786">
        <ele>401</ele>
        <time>2015-06-24T16:57:32.000Z</time>
      </trkpt>
      <trkpt lat="47.46808" lon="6.73786">
        <ele>401</ele>
        <time>2015-06-24T16:57:33.000Z</time>
      </trkpt>
      <trkpt lat="47.46804" lon="6.73786">
        <ele>401</ele>
        <time>2015-06-24T16:57:34.000Z</time>
      </trkpt>
      <trkpt lat="47.46801" lon="6.73787">
        <ele>401</ele>
        <time>2015-06-24T16:57:35.000Z</time>
      </trkpt>
      <trkpt lat="47.46797" lon="6.73788">
        <ele>401</ele>
        <time>2015-06-24T16:57:36.000Z</time>
      </trkpt>
      <trkpt lat="47.46794" lon="6.73788">
        <ele>401</ele>
        <time>2015-06-24T16:57:37.000Z</time>
      </trkpt>
      <trkpt lat="47.46791" lon="6.73789">
        <ele>401</ele>
        <time>2015-06-24T16:57:38.000Z</time>
      </trkpt>
      <trkpt lat="47.46788" lon="6.73791">
        <ele>401</ele>
        <time>2015-06-24T16:57:39.000Z</time>
      </trkpt>
      <trkpt lat="47.46784" lon="6.73793">
        <ele>401</ele>
        <time>2015-06-24T16:57:40.000Z</time>
      </trkpt>
      <trkpt lat="47.46781" lon="6.73795">
        <ele>401</ele>
        <time>2015-06-24T16:57:41.000Z</time>
      </trkpt>
      <trkpt lat="47.46777" lon="6.73796">
        <ele>401</ele>
        <time>2015-06-24T16:57:42.000Z</time>
      </trkpt>
      <trkpt lat="47.46772" lon="6.73798">
        <ele>401</ele>
        <time>2015-06-24T16:57:43.000Z</time>
      </trkpt>
      <trkpt lat="47.46768" lon="6.73799">
        <ele>401</ele>
        <time>2015-06-24T16:57:44.000Z</time>
      </trkpt>
      <trkpt lat="47.46764" lon="6.73801">
        <ele>401</ele>
        <time>2015-06-24T16:57:45.000Z</time>
      </trkpt>
      <trkpt lat="47.4676" lon="6.73801">
        <ele>401</ele>
        <time>2015-06-24T16:57:46.000Z</time>
      </trkpt>
      <trkpt lat="47.46756" lon="6.73802">
        <ele>401</ele>
        <time>2015-06-24T16:57:47.000Z</time>
      </trkpt>
      <trkpt lat="47.46752" lon="6.73804">
        <ele>401</ele>
        <time>2015-06-24T16:57:48.000Z</time>
      </trkpt>
      <trkpt lat="47.46748" lon="6.73806">
        <ele>399</ele>
        <time>2015-06-24T16:57:49.000Z</time>
      </trkpt>
      <trkpt lat="47.46744" lon="6.73809">
        <ele>400</ele>
        <time>2015-06-24T16:57:50.000Z</time>
      </trkpt>
      <trkpt lat="47.4674" lon="6.73813">
        <ele>400</ele>
        <time>2015-06-24T16:57:51.000Z</time>
      </trkpt>
      <trkpt lat="47.46736" lon="6.73816">
        <ele>400</ele>
        <time>2015-06-24T16:57:52.000Z</time>
      </trkpt>
      <trkpt lat="47.46733" lon="6.7382">
        <ele>400</ele>
        <time>2015-06-24T16:57:53.000Z</time>
      </trkpt>
      <trkpt lat="47.4673" lon="6.73824">
        <ele>400</ele>
        <time>2015-06-24T16:57:54.000Z</time>
      </trkpt>
      <trkpt lat="47.46727" lon="6.73828">
        <ele>400</ele>
        <time>2015-06-24T16:57:55.000Z</time>
      </trkpt>
      <trkpt lat="47.46724" lon="6.73833">
        <ele>400</ele>
        <time>2015-06-24T16:57:56.000Z</time>
      </trkpt>
      <trkpt lat="47.4672" lon="6.73836">
        <ele>402</ele>
        <time>2015-06-24T16:57:57.000Z</time>
      </trkpt>
      <trkpt lat="47.46716" lon="6.7384">
        <ele>402</ele>
        <time>2015-06-24T16:57:58.000Z</time>
      </trkpt>
      <trkpt lat="47.46712" lon="6.73843">
        <ele>402</ele>
        <time>2015-06-24T16:57:59.000Z</time>
      </trkpt>
      <trkpt lat="47.46707" lon="6.73845">
        <ele>401</ele>
        <time>2015-06-24T16:58:00.000Z</time>
      </trkpt>
      <trkpt lat="47.46703" lon="6.73845">
        <ele>401</ele>
        <time>2015-06-24T16:58:01.000Z</time>
      </trkpt>
      <trkpt lat="47.46699" lon="6.73845">
        <ele>401</ele>
        <time>2015-06-24T16:58:02.000Z</time>
      </trkpt>
      <trkpt lat="47.46695" lon="6.73842">
        <ele>401</ele>
        <time>2015-06-24T16:58:03.000Z</time>
      </trkpt>
      <trkpt lat="47.46691" lon="6.7384">
        <ele>401</ele>
        <time>2015-06-24T16:58:04.000Z</time>
      </trkpt>
      <trkpt lat="47.46688" lon="6.73838">
        <ele>401</ele>
        <time>2015-06-24T16:58:05.000Z</time>
      </trkpt>
      <trkpt lat="47.46686" lon="6.73836">
        <ele>401</ele>
        <time>2015-06-24T16:58:06.000Z</time>
      </trkpt>
      <trkpt lat="47.46683" lon="6.73832">
        <ele>400</ele>
        <time>2015-06-24T16:58:08.000Z</time>
      </trkpt>
      <trkpt lat="47.46682" lon="6.73829">
        <ele>400</ele>
        <time>2015-06-24T16:58:09.000Z</time>
      </trkpt>
      <trkpt lat="47.46681" lon="6.73827">
        <ele>400</ele>
        <time>2015-06-24T16:58:10.000Z</time>
      </trkpt>
      <trkpt lat="47.46679" lon="6.73823">
        <ele>400</ele>
        <time>2015-06-24T16:58:11.000Z</time>
      </trkpt>
      <trkpt lat="47.46678" lon="6.73819">
        <ele>400</ele>
        <time>2015-06-24T16:58:12.000Z</time>
      </trkpt>
      <trkpt lat="47.46676" lon="6.73816">
        <ele>400</ele>
        <time>2015-06-24T16:58:13.000Z</time>
      </trkpt>
      <trkpt lat="47.46674" lon="6.73812">
        <ele>399</ele>
        <time>2015-06-24T16:58:14.000Z</time>
      </trkpt>
      <trkpt lat="47.46672" lon="6.73809">
        <ele>399</ele>
        <time>2015-06-24T16:58:15.000Z</time>
      </trkpt>
      <trkpt lat="47.4667" lon="6.73806">
        <ele>399</ele>
        <time>2015-06-24T16:58:16.000Z</time>
      </trkpt>
      <trkpt lat="47.46669" lon="6.73803">
        <ele>399</ele>
        <time>2015-06-24T16:58:17.000Z</time>
      </trkpt>
      <trkpt lat="47.46667" lon="6.738">
        <ele>399</ele>
        <time>2015-06-24T16:58:18.000Z</time>
      </trkpt>
      <trkpt lat="47.46665" lon="6.73798">
        <ele>401</ele>
        <time>2015-06-24T16:58:19.000Z</time>
      </trkpt>
      <trkpt lat="47.46663" lon="6.73793">
        <ele>401</ele>
        <time>2015-06-24T16:58:21.000Z</time>
      </trkpt>
      <trkpt lat="47.46662" lon="6.7379">
        <ele>401</ele>
        <time>2015-06-24T16:58:22.000Z</time>
      </trkpt>
      <trkpt lat="47.4666" lon="6.73785">
        <ele>400</ele>
        <time>2015-06-24T16:58:24.000Z</time>
      </trkpt>
      <trkpt lat="47.46659" lon="6.73783">
        <ele>400</ele>
        <time>2015-06-24T16:58:25.000Z</time>
      </trkpt>
      <trkpt lat="47.46658" lon="6.7378">
        <ele>400</ele>
        <time>2015-06-24T16:58:26.000Z</time>
      </trkpt>
      <trkpt lat="47.46656" lon="6.73777">
        <ele>400</ele>
        <time>2015-06-24T16:58:27.000Z</time>
      </trkpt>
      <trkpt lat="47.46654" lon="6.73775">
        <ele>400</ele>
        <time>2015-06-24T16:58:28.000Z</time>
      </trkpt>
      <trkpt lat="47.46652" lon="6.73772">
        <ele>400</ele>
        <time>2015-06-24T16:58:29.000Z</time>
      </trkpt>
      <trkpt lat="47.46651" lon="6.7377">
        <ele>400</ele>
        <time>2015-06-24T16:58:30.000Z</time>
      </trkpt>
      <trkpt lat="47.46649" lon="6.73768">
        <ele>400</ele>
        <time>2015-06-24T16:58:31.000Z</time>
      </trkpt>
      <trkpt lat="47.46647" lon="6.73765">
        <ele>400</ele>
        <time>2015-06-24T16:58:32.000Z</time>
      </trkpt>
      <trkpt lat="47.46645" lon="6.73763">
        <ele>400</ele>
        <time>2015-06-24T16:58:33.000Z</time>
      </trkpt>
      <trkpt lat="47.46642" lon="6.7376">
        <ele>400</ele>
        <time>2015-06-24T16:58:40.000Z</time>
      </trkpt>
      <trkpt lat="47.46642" lon="6.73758">
        <ele>400</ele>
        <time>2015-06-24T16:58:41.000Z</time>
      </trkpt>
      <trkpt lat="47.46639" lon="6.73753">
        <ele>400</ele>
        <time>2015-06-24T16:58:45.000Z</time>
      </trkpt>
      <trkpt lat="47.46638" lon="6.73751">
        <ele>400</ele>
        <time>2015-06-24T16:58:46.000Z</time>
      </trkpt>
      <trkpt lat="47.46636" lon="6.73747">
        <ele>395</ele>
        <time>2015-06-24T16:58:47.000Z</time>
      </trkpt>
      <trkpt lat="47.46634" lon="6.73746">
        <ele>395</ele>
        <time>2015-06-24T16:58:48.000Z</time>
      </trkpt>
      <trkpt lat="47.46631" lon="6.73743">
        <ele>395</ele>
        <time>2015-06-24T16:58:50.000Z</time>
      </trkpt>
      <trkpt lat="47.4663" lon="6.73742">
        <ele>395</ele>
        <time>2015-06-24T16:58:51.000Z</time>
      </trkpt>
      <trkpt lat="47.46627" lon="6.7374">
        <ele>395</ele>
        <time>2015-06-24T16:58:53.000Z</time>
      </trkpt>
      <trkpt lat="47.46625" lon="6.73739">
        <ele>395</ele>
        <time>2015-06-24T16:58:54.000Z</time>
      </trkpt>
      <trkpt lat="47.46623" lon="6.73739">
        <ele>395</ele>
        <time>2015-06-24T16:58:55.000Z</time>
      </trkpt>
      <trkpt lat="47.46621" lon="6.73738">
        <ele>395</ele>
        <time>2015-06-24T16:58:56.000Z</time>
      </trkpt>
      <trkpt lat="47.46616" lon="6.73739">
        <ele>396</ele>
        <time>2015-06-24T16:58:58.000Z</time>
      </trkpt>
      <trkpt lat="47.46615" lon="6.73739">
        <ele>396</ele>
        <time>2015-06-24T16:58:59.000Z</time>
      </trkpt>
      <trkpt lat="47.46611" lon="6.73738">
        <ele>396</ele>
        <time>2015-06-24T16:59:02.000Z</time>
      </trkpt>
      <trkpt lat="47.46609" lon="6.73737">
        <ele>396</ele>
        <time>2015-06-24T16:59:03.000Z</time>
      </trkpt>
      <trkpt lat="47.46606" lon="6.73736">
        <ele>396</ele>
        <time>2015-06-24T16:59:05.000Z</time>
      </trkpt>
      <trkpt lat="47.46605" lon="6.73736">
        <ele>397</ele>
        <time>2015-06-24T16:59:06.000Z</time>
      </trkpt>
      <trkpt lat="47.46602" lon="6.73735">
        <ele>397</ele>
        <time>2015-06-24T16:59:08.000Z</time>
      </trkpt>
      <trkpt lat="47.466" lon="6.73734">
        <ele>397</ele>
        <time>2015-06-24T16:59:09.000Z</time>
      </trkpt>
      <trkpt lat="47.46596" lon="6.73732">
        <ele>397</ele>
        <time>2015-06-24T16:59:12.000Z</time>
      </trkpt>
      <trkpt lat="47.46595" lon="6.7373">
        <ele>397</ele>
        <time>2015-06-24T16:59:13.000Z</time>
      </trkpt>
      <trkpt lat="47.46592" lon="6.73727">
        <ele>397</ele>
        <time>2015-06-24T16:59:16.000Z</time>
      </trkpt>
      <trkpt lat="47.4659" lon="6.73726">
        <ele>397</ele>
        <time>2015-06-24T16:59:17.000Z</time>
      </trkpt>
      <trkpt lat="47.46587" lon="6.73723">
        <ele>396</ele>
        <time>2015-06-24T16:59:19.000Z</time>
      </trkpt>
      <trkpt lat="47.46585" lon="6.73722">
        <ele>396</ele>
        <time>2015-06-24T16:59:20.000Z</time>
      </trkpt>
      <trkpt lat="47.46583" lon="6.73721">
        <ele>401</ele>
        <time>2015-06-24T16:59:21.000Z</time>
      </trkpt>
      <trkpt lat="47.4658" lon="6.73719">
        <ele>401</ele>
        <time>2015-06-24T16:59:22.000Z</time>
      </trkpt>
      <trkpt lat="47.46578" lon="6.73717">
        <ele>401</ele>
        <time>2015-06-24T16:59:23.000Z</time>
      </trkpt>
      <trkpt lat="47.46575" lon="6.73716">
        <ele>400</ele>
        <time>2015-06-24T16:59:24.000Z</time>
      </trkpt>
      <trkpt lat="47.46573" lon="6.73715">
        <ele>400</ele>
        <time>2015-06-24T16:59:25.000Z</time>
      </trkpt>
      <trkpt lat="47.4657" lon="6.73714">
        <ele>400</ele>
        <time>2015-06-24T16:59:26.000Z</time>
      </trkpt>
      <trkpt lat="47.46566" lon="6.73713">
        <ele>400</ele>
        <time>2015-06-24T16:59:28.000Z</time>
      </trkpt>
      <trkpt lat="47.46564" lon="6.73712">
        <ele>400</ele>
        <time>2015-06-24T16:59:29.000Z</time>
      </trkpt>
      <trkpt lat="47.46561" lon="6.73711">
        <ele>401</ele>
        <time>2015-06-24T16:59:30.000Z</time>
      </trkpt>
      <trkpt lat="47.46559" lon="6.73711">
        <ele>401</ele>
        <time>2015-06-24T16:59:31.000Z</time>
      </trkpt>
      <trkpt lat="47.46557" lon="6.7371">
        <ele>401</ele>
        <time>2015-06-24T16:59:32.000Z</time>
      </trkpt>
      <trkpt lat="47.46554" lon="6.73709">
        <ele>401</ele>
        <time>2015-06-24T16:59:33.000Z</time>
      </trkpt>
      <trkpt lat="47.46552" lon="6.73708">
        <ele>401</ele>
        <time>2015-06-24T16:59:34.000Z</time>
      </trkpt>
      <trkpt lat="47.46549" lon="6.73707">
        <ele>401</ele>
        <time>2015-06-24T16:59:35.000Z</time>
      </trkpt>
      <trkpt lat="47.46546" lon="6.73706">
        <ele>401</ele>
        <time>2015-06-24T16:59:36.000Z</time>
      </trkpt>
      <trkpt lat="47.46543" lon="6.73705">
        <ele>401</ele>
        <time>2015-06-24T16:59:37.000Z</time>
      </trkpt>
      <trkpt lat="47.46539" lon="6.73705">
        <ele>401</ele>
        <time>2015-06-24T16:59:38.000Z</time>
      </trkpt>
      <trkpt lat="47.46536" lon="6.73705">
        <ele>401</ele>
        <time>2015-06-24T16:59:39.000Z</time>
      </trkpt>
      <trkpt lat="47.46532" lon="6.73706">
        <ele>402</ele>
        <time>2015-06-24T16:59:40.000Z</time>
      </trkpt>
      <trkpt lat="47.46529" lon="6.73708">
        <ele>402</ele>
        <time>2015-06-24T16:59:41.000Z</time>
      </trkpt>
      <trkpt lat="47.46525" lon="6.73709">
        <ele>402</ele>
        <time>2015-06-24T16:59:42.000Z</time>
      </trkpt>
      <trkpt lat="47.4652" lon="6.73709">
        <ele>402</ele>
        <time>2015-06-24T16:59:43.000Z</time>
      </trkpt>
      <trkpt lat="47.46516" lon="6.73709">
        <ele>402</ele>
        <time>2015-06-24T16:59:44.000Z</time>
      </trkpt>
      <trkpt lat="47.46512" lon="6.73709">
        <ele>403</ele>
        <time>2015-06-24T16:59:45.000Z</time>
      </trkpt>
      <trkpt lat="47.46509" lon="6.73708">
        <ele>403</ele>
        <time>2015-06-24T16:59:46.000Z</time>
      </trkpt>
      <trkpt lat="47.46506" lon="6.73708">
        <ele>403</ele>
        <time>2015-06-24T16:59:47.000Z</time>
      </trkpt>
      <trkpt lat="47.46501" lon="6.73711">
        <ele>403</ele>
        <time>2015-06-24T16:59:48.000Z</time>
      </trkpt>
      <trkpt lat="47.46498" lon="6.73712">
        <ele>409</ele>
        <time>2015-06-24T16:59:49.000Z</time>
      </trkpt>
      <trkpt lat="47.46496" lon="6.73714">
        <ele>409</ele>
        <time>2015-06-24T16:59:50.000Z</time>
      </trkpt>
      <trkpt lat="47.46494" lon="6.73716">
        <ele>409</ele>
        <time>2015-06-24T16:59:51.000Z</time>
      </trkpt>
      <trkpt lat="47.46491" lon="6.73718">
        <ele>409</ele>
        <time>2015-06-24T16:59:52.000Z</time>
      </trkpt>
      <trkpt lat="47.46489" lon="6.73721">
        <ele>409</ele>
        <time>2015-06-24T16:59:53.000Z</time>
      </trkpt>
      <trkpt lat="47.46487" lon="6.73724">
        <ele>409</ele>
        <time>2015-06-24T16:59:54.000Z</time>
      </trkpt>
      <trkpt lat="47.46484" lon="6.73728">
        <ele>409</ele>
        <time>2015-06-24T16:59:56.000Z</time>
      </trkpt>
      <trkpt lat="47.46482" lon="6.73729">
        <ele>409</ele>
        <time>2015-06-24T16:59:57.000Z</time>
      </trkpt>
      <trkpt lat="47.46481" lon="6.7373">
        <ele>410</ele>
        <time>2015-06-24T16:59:58.000Z</time>
      </trkpt>
      <trkpt lat="47.46478" lon="6.73731">
        <ele>410</ele>
        <time>2015-06-24T16:59:59.000Z</time>
      </trkpt>
      <trkpt lat="47.46475" lon="6.73732">
        <ele>410</ele>
        <time>2015-06-24T17:00:00.000Z</time>
      </trkpt>
      <trkpt lat="47.46473" lon="6.73732">
        <ele>410</ele>
        <time>2015-06-24T17:00:01.000Z</time>
      </trkpt>
      <trkpt lat="47.46469" lon="6.73732">
        <ele>410</ele>
        <time>2015-06-24T17:00:03.000Z</time>
      </trkpt>
      <trkpt lat="47.46468" lon="6.73732">
        <ele>410</ele>
        <time>2015-06-24T17:00:04.000Z</time>
      </trkpt>
      <trkpt lat="47.46464" lon="6.7373">
        <ele>411</ele>
        <time>2015-06-24T17:00:08.000Z</time>
      </trkpt>
      <trkpt lat="47.46463" lon="6.7373">
        <ele>411</ele>
        <time>2015-06-24T17:00:09.000Z</time>
      </trkpt>
      <trkpt lat="47.46461" lon="6.73729">
        <ele>411</ele>
        <time>2015-06-24T17:00:14.000Z</time>
      </trkpt>
      <trkpt lat="47.46458" lon="6.73729">
        <ele>411</ele>
        <time>2015-06-24T17:00:15.000Z</time>
      </trkpt>
      <trkpt lat="47.46454" lon="6.73727">
        <ele>411</ele>
        <time>2015-06-24T17:00:18.000Z</time>
      </trkpt>
      <trkpt lat="47.46453" lon="6.73726">
        <ele>411</ele>
        <time>2015-06-24T17:00:19.000Z</time>
      </trkpt>
      <trkpt lat="47.4645" lon="6.73725">
        <ele>411</ele>
        <time>2015-06-24T17:00:21.000Z</time>
      </trkpt>
      <trkpt lat="47.46448" lon="6.73725">
        <ele>411</ele>
        <time>2015-06-24T17:00:22.000Z</time>
      </trkpt>
      <trkpt lat="47.46443" lon="6.73725">
        <ele>412</ele>
        <time>2015-06-24T17:00:24.000Z</time>
      </trkpt>
      <trkpt lat="47.46441" lon="6.73725">
        <ele>412</ele>
        <time>2015-06-24T17:00:25.000Z</time>
      </trkpt>
      <trkpt lat="47.46437" lon="6.73726">
        <ele>412</ele>
        <time>2015-06-24T17:00:27.000Z</time>
      </trkpt>
      <trkpt lat="47.46435" lon="6.73727">
        <ele>412</ele>
        <time>2015-06-24T17:00:28.000Z</time>
      </trkpt>
      <trkpt lat="47.46431" lon="6.73724">
        <ele>412</ele>
        <time>2015-06-24T17:00:31.000Z</time>
      </trkpt>
      <trkpt lat="47.4643" lon="6.73723">
        <ele>412</ele>
        <time>2015-06-24T17:00:32.000Z</time>
      </trkpt>
      <trkpt lat="47.46426" lon="6.73722">
        <ele>413</ele>
        <time>2015-06-24T17:00:36.000Z</time>
      </trkpt>
      <trkpt lat="47.46424" lon="6.73722">
        <ele>413</ele>
        <time>2015-06-24T17:00:37.000Z</time>
      </trkpt>
      <trkpt lat="47.4642" lon="6.73722">
        <ele>413</ele>
        <time>2015-06-24T17:00:39.000Z</time>
      </trkpt>
      <trkpt lat="47.46418" lon="6.73722">
        <ele>413</ele>
        <time>2015-06-24T17:00:40.000Z</time>
      </trkpt>
      <trkpt lat="47.46415" lon="6.73721">
        <ele>417</ele>
        <time>2015-06-24T17:00:41.000Z</time>
      </trkpt>
      <trkpt lat="47.46412" lon="6.73721">
        <ele>417</ele>
        <time>2015-06-24T17:00:42.000Z</time>
      </trkpt>
      <trkpt lat="47.46409" lon="6.73719">
        <ele>417</ele>
        <time>2015-06-24T17:00:43.000Z</time>
      </trkpt>
      <trkpt lat="47.46406" lon="6.73718">
        <ele>417</ele>
        <time>2015-06-24T17:00:44.000Z</time>
      </trkpt>
      <trkpt lat="47.46403" lon="6.73717">
        <ele>417</ele>
        <time>2015-06-24T17:00:45.000Z</time>
      </trkpt>
      <trkpt lat="47.46401" lon="6.73716">
        <ele>417</ele>
        <time>2015-06-24T17:00:46.000Z</time>
      </trkpt>
      <trkpt lat="47.46397" lon="6.73713">
        <ele>417</ele>
        <time>2015-06-24T17:00:48.000Z</time>
      </trkpt>
      <trkpt lat="47.46395" lon="6.73713">
        <ele>417</ele>
        <time>2015-06-24T17:00:49.000Z</time>
      </trkpt>
      <trkpt lat="47.46391" lon="6.73712">
        <ele>417</ele>
        <time>2015-06-24T17:00:52.000Z</time>
      </trkpt>
      <trkpt lat="47.46389" lon="6.73711">
        <ele>417</ele>
        <time>2015-06-24T17:00:53.000Z</time>
      </trkpt>
      <trkpt lat="47.46385" lon="6.73709">
        <ele>417</ele>
        <time>2015-06-24T17:00:55.000Z</time>
      </trkpt>
      <trkpt lat="47.46383" lon="6.73708">
        <ele>418</ele>
        <time>2015-06-24T17:00:56.000Z</time>
      </trkpt>
      <trkpt lat="47.46379" lon="6.73705">
        <ele>418</ele>
        <time>2015-06-24T17:00:58.000Z</time>
      </trkpt>
      <trkpt lat="47.46377" lon="6.73703">
        <ele>418</ele>
        <time>2015-06-24T17:00:59.000Z</time>
      </trkpt>
      <trkpt lat="47.46374" lon="6.73703">
        <ele>418</ele>
        <time>2015-06-24T17:01:00.000Z</time>
      </trkpt>
      <trkpt lat="47.46371" lon="6.73703">
        <ele>418</ele>
        <time>2015-06-24T17:01:01.000Z</time>
      </trkpt>
      <trkpt lat="47.46369" lon="6.73704">
        <ele>418</ele>
        <time>2015-06-24T17:01:02.000Z</time>
      </trkpt>
      <trkpt lat="47.46366" lon="6.73704">
        <ele>418</ele>
        <time>2015-06-24T17:01:03.000Z</time>
      </trkpt>
      <trkpt lat="47.46361" lon="6.73704">
        <ele>418</ele>
        <time>2015-06-24T17:01:05.000Z</time>
      </trkpt>
      <trkpt lat="47.4636" lon="6.73704">
        <ele>418</ele>
        <time>2015-06-24T17:01:06.000Z</time>
      </trkpt>
      <trkpt lat="47.46356" lon="6.73703">
        <ele>418</ele>
        <time>2015-06-24T17:01:09.000Z</time>
      </trkpt>
      <trkpt lat="47.46354" lon="6.73704">
        <ele>418</ele>
        <time>2015-06-24T17:01:10.000Z</time>
      </trkpt>
      <trkpt lat="47.46351" lon="6.73705">
        <ele>418</ele>
        <time>2015-06-24T17:01:12.000Z</time>
      </trkpt>
      <trkpt lat="47.46349" lon="6.73705">
        <ele>418</ele>
        <time>2015-06-24T17:01:13.000Z</time>
      </trkpt>
      <trkpt lat="47.46345" lon="6.73704">
        <ele>419</ele>
        <time>2015-06-24T17:01:15.000Z</time>
      </trkpt>
      <trkpt lat="47.46343" lon="6.73704">
        <ele>419</ele>
        <time>2015-06-24T17:01:16.000Z</time>
      </trkpt>
      <trkpt lat="47.46339" lon="6.73702">
        <ele>419</ele>
        <time>2015-06-24T17:01:19.000Z</time>
      </trkpt>
      <trkpt lat="47.46338" lon="6.737">
        <ele>419</ele>
        <time>2015-06-24T17:01:20.000Z</time>
      </trkpt>
      <trkpt lat="47.46336" lon="6.73697">
        <ele>419</ele>
        <time>2015-06-24T17:01:22.000Z</time>
      </trkpt>
      <trkpt lat="47.46335" lon="6.73695">
        <ele>419</ele>
        <time>2015-06-24T17:01:23.000Z</time>
      </trkpt>
      <trkpt lat="47.46333" lon="6.7369">
        <ele>421</ele>
        <time>2015-06-24T17:01:25.000Z</time>
      </trkpt>
      <trkpt lat="47.46332" lon="6.73688">
        <ele>421</ele>
        <time>2015-06-24T17:01:26.000Z</time>
      </trkpt>
      <trkpt lat="47.4633" lon="6.73682">
        <ele>421</ele>
        <time>2015-06-24T17:01:28.000Z</time>
      </trkpt>
      <trkpt lat="47.46328" lon="6.73679">
        <ele>421</ele>
        <time>2015-06-24T17:01:29.000Z</time>
      </trkpt>
      <trkpt lat="47.46327" lon="6.73675">
        <ele>421</ele>
        <time>2015-06-24T17:01:30.000Z</time>
      </trkpt>
      <trkpt lat="47.46325" lon="6.73672">
        <ele>421</ele>
        <time>2015-06-24T17:01:31.000Z</time>
      </trkpt>
      <trkpt lat="47.46323" lon="6.73666">
        <ele>422</ele>
        <time>2015-06-24T17:01:33.000Z</time>
      </trkpt>
      <trkpt lat="47.46323" lon="6.73663">
        <ele>422</ele>
        <time>2015-06-24T17:01:34.000Z</time>
      </trkpt>
      <trkpt lat="47.46322" lon="6.73658">
        <ele>422</ele>
        <time>2015-06-24T17:01:36.000Z</time>
      </trkpt>
      <trkpt lat="47.46322" lon="6.73656">
        <ele>422</ele>
        <time>2015-06-24T17:01:37.000Z</time>
      </trkpt>
      <trkpt lat="47.46322" lon="6.73652">
        <ele>423</ele>
        <time>2015-06-24T17:01:38.000Z</time>
      </trkpt>
      <trkpt lat="47.46322" lon="6.73649">
        <ele>423</ele>
        <time>2015-06-24T17:01:39.000Z</time>
      </trkpt>
      <trkpt lat="47.46322" lon="6.73643">
        <ele>423</ele>
        <time>2015-06-24T17:01:41.000Z</time>
      </trkpt>
      <trkpt lat="47.46322" lon="6.7364">
        <ele>423</ele>
        <time>2015-06-24T17:01:42.000Z</time>
      </trkpt>
      <trkpt lat="47.46322" lon="6.73635">
        <ele>423</ele>
        <time>2015-06-24T17:01:44.000Z</time>
      </trkpt>
      <trkpt lat="47.46322" lon="6.73632">
        <ele>423</ele>
        <time>2015-06-24T17:01:45.000Z</time>
      </trkpt>
      <trkpt lat="47.46322" lon="6.73628">
        <ele>423</ele>
        <time>2015-06-24T17:01:46.000Z</time>
      </trkpt>
      <trkpt lat="47.46322" lon="6.73624">
        <ele>423</ele>
        <time>2015-06-24T17:01:47.000Z</time>
      </trkpt>
      <trkpt lat="47.46322" lon="6.73621">
        <ele>423</ele>
        <time>2015-06-24T17:01:48.000Z</time>
      </trkpt>
      <trkpt lat="47.46322" lon="6.73617">
        <ele>423</ele>
        <time>2015-06-24T17:01:49.000Z</time>
      </trkpt>
      <trkpt lat="47.46322" lon="6.73613">
        <ele>423</ele>
        <time>2015-06-24T17:01:50.000Z</time>
      </trkpt>
      <trkpt lat="47.46323" lon="6.7361">
        <ele>424</ele>
        <time>2015-06-24T17:01:51.000Z</time>
      </trkpt>
      <trkpt lat="47.46324" lon="6.73606">
        <ele>424</ele>
        <time>2015-06-24T17:01:52.000Z</time>
      </trkpt>
      <trkpt lat="47.46325" lon="6.73603">
        <ele>424</ele>
        <time>2015-06-24T17:01:53.000Z</time>
      </trkpt>
      <trkpt lat="47.46325" lon="6.73599">
        <ele>424</ele>
        <time>2015-06-24T17:01:54.000Z</time>
      </trkpt>
      <trkpt lat="47.46326" lon="6.73596">
        <ele>424</ele>
        <time>2015-06-24T17:01:55.000Z</time>
      </trkpt>
      <trkpt lat="47.46326" lon="6.73592">
        <ele>424</ele>
        <time>2015-06-24T17:01:56.000Z</time>
      </trkpt>
      <trkpt lat="47.46327" lon="6.73587">
        <ele>424</ele>
        <time>2015-06-24T17:01:57.000Z</time>
      </trkpt>
      <trkpt lat="47.46327" lon="6.73583">
        <ele>425</ele>
        <time>2015-06-24T17:01:58.000Z</time>
      </trkpt>
      <trkpt lat="47.46327" lon="6.73578">
        <ele>425</ele>
        <time>2015-06-24T17:01:59.000Z</time>
      </trkpt>
      <trkpt lat="47.46327" lon="6.73572">
        <ele>425</ele>
        <time>2015-06-24T17:02:00.000Z</time>
      </trkpt>
      <trkpt lat="47.46327" lon="6.73567">
        <ele>425</ele>
        <time>2015-06-24T17:02:01.000Z</time>
      </trkpt>
      <trkpt lat="47.46327" lon="6.73562">
        <ele>425</ele>
        <time>2015-06-24T17:02:02.000Z</time>
      </trkpt>
      <trkpt lat="47.46327" lon="6.73556">
        <ele>425</ele>
        <time>2015-06-24T17:02:03.000Z</time>
      </trkpt>
      <trkpt lat="47.46326" lon="6.73551">
        <ele>425</ele>
        <time>2015-06-24T17:02:04.000Z</time>
      </trkpt>
      <trkpt lat="47.46326" lon="6.73547">
        <ele>425</ele>
        <time>2015-06-24T17:02:05.000Z</time>
      </trkpt>
      <trkpt lat="47.46326" lon="6.73542">
        <ele>425</ele>
        <time>2015-06-24T17:02:06.000Z</time>
      </trkpt>
      <trkpt lat="47.46326" lon="6.73537">
        <ele>425</ele>
        <time>2015-06-24T17:02:07.000Z</time>
      </trkpt>
      <trkpt lat="47.46326" lon="6.73532">
        <ele>425</ele>
        <time>2015-06-24T17:02:08.000Z</time>
      </trkpt>
      <trkpt lat="47.46325" lon="6.73527">
        <ele>425</ele>
        <time>2015-06-24T17:02:09.000Z</time>
      </trkpt>
      <trkpt lat="47.46325" lon="6.73522">
        <ele>425</ele>
        <time>2015-06-24T17:02:10.000Z</time>
      </trkpt>
      <trkpt lat="47.46325" lon="6.73518">
        <ele>425</ele>
        <time>2015-06-24T17:02:11.000Z</time>
      </trkpt>
      <trkpt lat="47.46325" lon="6.73513">
        <ele>425</ele>
        <time>2015-06-24T17:02:12.000Z</time>
      </trkpt>
      <trkpt lat="47.46325" lon="6.73509">
        <ele>425</ele>
        <time>2015-06-24T17:02:13.000Z</time>
      </trkpt>
      <trkpt lat="47.46325" lon="6.73504">
        <ele>425</ele>
        <time>2015-06-24T17:02:14.000Z</time>
      </trkpt>
      <trkpt lat="47.46325" lon="6.73499">
        <ele>425</ele>
        <time>2015-06-24T17:02:15.000Z</time>
      </trkpt>
      <trkpt lat="47.46325" lon="6.73494">
        <ele>426</ele>
        <time>2015-06-24T17:02:16.000Z</time>
      </trkpt>
      <trkpt lat="47.46325" lon="6.73489">
        <ele>426</ele>
        <time>2015-06-24T17:02:17.000Z</time>
      </trkpt>
      <trkpt lat="47.46325" lon="6.73484">
        <ele>426</ele>
        <time>2015-06-24T17:02:18.000Z</time>
      </trkpt>
      <trkpt lat="47.46325" lon="6.73479">
        <ele>426</ele>
        <time>2015-06-24T17:02:19.000Z</time>
      </trkpt>
      <trkpt lat="47.46325" lon="6.73474">
        <ele>426</ele>
        <time>2015-06-24T17:02:20.000Z</time>
      </trkpt>
      <trkpt lat="47.46325" lon="6.73469">
        <ele>426</ele>
        <time>2015-06-24T17:02:21.000Z</time>
      </trkpt>
      <trkpt lat="47.46325" lon="6.73464">
        <ele>426</ele>
        <time>2015-06-24T17:02:22.000Z</time>
      </trkpt>
      <trkpt lat="47.46325" lon="6.73459">
        <ele>426</ele>
        <time>2015-06-24T17:02:23.000Z</time>
      </trkpt>
      <trkpt lat="47.46325" lon="6.73454">
        <ele>426</ele>
        <time>2015-06-24T17:02:24.000Z</time>
      </trkpt>
      <trkpt lat="47.46325" lon="6.73448">
        <ele>426</ele>
        <time>2015-06-24T17:02:25.000Z</time>
      </trkpt>
      <trkpt lat="47.46325" lon="6.73443">
        <ele>426</ele>
        <time>2015-06-24T17:02:26.000Z</time>
      </trkpt>
      <trkpt lat="47.46325" lon="6.73438">
        <ele>426</ele>
        <time>2015-06-24T17:02:27.000Z</time>
      </trkpt>
      <trkpt lat="47.46325" lon="6.73432">
        <ele>426</ele>
        <time>2015-06-24T17:02:28.000Z</time>
      </trkpt>
      <trkpt lat="47.46325" lon="6.73427">
        <ele>426</ele>
        <time>2015-06-24T17:02:29.000Z</time>
      </trkpt>
      <trkpt lat="47.46325" lon="6.73421">
        <ele>426</ele>
        <time>2015-06-24T17:02:30.000Z</time>
      </trkpt>
      <trkpt lat="47.46324" lon="6.73416">
        <ele>426</ele>
        <time>2015-06-24T17:02:31.000Z</time>
      </trkpt>
      <trkpt lat="47.46324" lon="6.7341">
        <ele>426</ele>
        <time>2015-06-24T17:02:32.000Z</time>
      </trkpt>
      <trkpt lat="47.46324" lon="6.73405">
        <ele>426</ele>
        <time>2015-06-24T17:02:33.000Z</time>
      </trkpt>
      <trkpt lat="47.46324" lon="6.734">
        <ele>427</ele>
        <time>2015-06-24T17:02:34.000Z</time>
      </trkpt>
      <trkpt lat="47.46324" lon="6.73395">
        <ele>427</ele>
        <time>2015-06-24T17:02:35.000Z</time>
      </trkpt>
      <trkpt lat="47.46323" lon="6.7339">
        <ele>427</ele>
        <time>2015-06-24T17:02:36.000Z</time>
      </trkpt>
      <trkpt lat="47.46323" lon="6.73384">
        <ele>427</ele>
        <time>2015-06-24T17:02:37.000Z</time>
      </trkpt>
      <trkpt lat="47.46323" lon="6.73379">
        <ele>427</ele>
        <time>2015-06-24T17:02:38.000Z</time>
      </trkpt>
      <trkpt lat="47.46323" lon="6.73374">
        <ele>428</ele>
        <time>2015-06-24T17:02:39.000Z</time>
      </trkpt>
      <trkpt lat="47.46324" lon="6.73368">
        <ele>428</ele>
        <time>2015-06-24T17:02:40.000Z</time>
      </trkpt>
      <trkpt lat="47.46325" lon="6.73357">
        <ele>428</ele>
        <time>2015-06-24T17:02:41.000Z</time>
      </trkpt>
      <trkpt lat="47.46325" lon="6.73353">
        <ele>428</ele>
        <time>2015-06-24T17:02:42.000Z</time>
      </trkpt>
      <trkpt lat="47.46325" lon="6.73348">
        <ele>428</ele>
        <time>2015-06-24T17:02:43.000Z</time>
      </trkpt>
      <trkpt lat="47.46325" lon="6.73342">
        <ele>427</ele>
        <time>2015-06-24T17:02:44.000Z</time>
      </trkpt>
      <trkpt lat="47.46324" lon="6.73337">
        <ele>427</ele>
        <time>2015-06-24T17:02:45.000Z</time>
      </trkpt>
      <trkpt lat="47.46324" lon="6.73332">
        <ele>428</ele>
        <time>2015-06-24T17:02:46.000Z</time>
      </trkpt>
      <trkpt lat="47.46325" lon="6.73327">
        <ele>428</ele>
        <time>2015-06-24T17:02:47.000Z</time>
      </trkpt>
      <trkpt lat="47.46325" lon="6.73322">
        <ele>429</ele>
        <time>2015-06-24T17:02:48.000Z</time>
      </trkpt>
      <trkpt lat="47.46326" lon="6.73317">
        <ele>429</ele>
        <time>2015-06-24T17:02:49.000Z</time>
      </trkpt>
      <trkpt lat="47.46325" lon="6.73312">
        <ele>429</ele>
        <time>2015-06-24T17:02:50.000Z</time>
      </trkpt>
      <trkpt lat="47.46325" lon="6.73306">
        <ele>430</ele>
        <time>2015-06-24T17:02:51.000Z</time>
      </trkpt>
      <trkpt lat="47.46325" lon="6.73301">
        <ele>430</ele>
        <time>2015-06-24T17:02:52.000Z</time>
      </trkpt>
      <trkpt lat="47.46324" lon="6.73295">
        <ele>430</ele>
        <time>2015-06-24T17:02:53.000Z</time>
      </trkpt>
      <trkpt lat="47.46323" lon="6.7329">
        <ele>430</ele>
        <time>2015-06-24T17:02:54.000Z</time>
      </trkpt>
      <trkpt lat="47.46322" lon="6.73284">
        <ele>431</ele>
        <time>2015-06-24T17:02:55.000Z</time>
      </trkpt>
      <trkpt lat="47.46322" lon="6.73279">
        <ele>431</ele>
        <time>2015-06-24T17:02:56.000Z</time>
      </trkpt>
      <trkpt lat="47.46322" lon="6.73274">
        <ele>431</ele>
        <time>2015-06-24T17:02:57.000Z</time>
      </trkpt>
      <trkpt lat="47.46322" lon="6.73269">
        <ele>431</ele>
        <time>2015-06-24T17:02:58.000Z</time>
      </trkpt>
      <trkpt lat="47.46322" lon="6.73264">
        <ele>431</ele>
        <time>2015-06-24T17:02:59.000Z</time>
      </trkpt>
      <trkpt lat="47.46323" lon="6.7326">
        <ele>431</ele>
        <time>2015-06-24T17:03:00.000Z</time>
      </trkpt>
      <trkpt lat="47.46323" lon="6.73256">
        <ele>432</ele>
        <time>2015-06-24T17:03:01.000Z</time>
      </trkpt>
      <trkpt lat="47.46324" lon="6.73252">
        <ele>432</ele>
        <time>2015-06-24T17:03:02.000Z</time>
      </trkpt>
      <trkpt lat="47.46324" lon="6.73248">
        <ele>433</ele>
        <time>2015-06-24T17:03:03.000Z</time>
      </trkpt>
      <trkpt lat="47.46324" lon="6.73244">
        <ele>433</ele>
        <time>2015-06-24T17:03:04.000Z</time>
      </trkpt>
      <trkpt lat="47.46324" lon="6.73239">
        <ele>433</ele>
        <time>2015-06-24T17:03:05.000Z</time>
      </trkpt>
      <trkpt lat="47.46324" lon="6.73235">
        <ele>433</ele>
        <time>2015-06-24T17:03:06.000Z</time>
      </trkpt>
      <trkpt lat="47.46324" lon="6.7323">
        <ele>433</ele>
        <time>2015-06-24T17:03:07.000Z</time>
      </trkpt>
      <trkpt lat="47.46324" lon="6.73225">
        <ele>433</ele>
        <time>2015-06-24T17:03:08.000Z</time>
      </trkpt>
      <trkpt lat="47.46323" lon="6.73221">
        <ele>433</ele>
        <time>2015-06-24T17:03:09.000Z</time>
      </trkpt>
      <trkpt lat="47.46323" lon="6.73216">
        <ele>433</ele>
        <time>2015-06-24T17:03:10.000Z</time>
      </trkpt>
      <trkpt lat="47.46322" lon="6.73211">
        <ele>434</ele>
        <time>2015-06-24T17:03:11.000Z</time>
      </trkpt>
      <trkpt lat="47.46322" lon="6.73205">
        <ele>434</ele>
        <time>2015-06-24T17:03:12.000Z</time>
      </trkpt>
      <trkpt lat="47.46322" lon="6.732">
        <ele>434</ele>
        <time>2015-06-24T17:03:13.000Z</time>
      </trkpt>
      <trkpt lat="47.46322" lon="6.73194">
        <ele>434</ele>
        <time>2015-06-24T17:03:14.000Z</time>
      </trkpt>
      <trkpt lat="47.46322" lon="6.73189">
        <ele>434</ele>
        <time>2015-06-24T17:03:15.000Z</time>
      </trkpt>
      <trkpt lat="47.46322" lon="6.73183">
        <ele>434</ele>
        <time>2015-06-24T17:03:16.000Z</time>
      </trkpt>
      <trkpt lat="47.46322" lon="6.73178">
        <ele>434</ele>
        <time>2015-06-24T17:03:17.000Z</time>
      </trkpt>
      <trkpt lat="47.46322" lon="6.73172">
        <ele>435</ele>
        <time>2015-06-24T17:03:18.000Z</time>
      </trkpt>
      <trkpt lat="47.46322" lon="6.73167">
        <ele>435</ele>
        <time>2015-06-24T17:03:19.000Z</time>
      </trkpt>
      <trkpt lat="47.46322" lon="6.73161">
        <ele>435</ele>
        <time>2015-06-24T17:03:20.000Z</time>
      </trkpt>
      <trkpt lat="47.46322" lon="6.73156">
        <ele>435</ele>
        <time>2015-06-24T17:03:21.000Z</time>
      </trkpt>
      <trkpt lat="47.46322" lon="6.73151">
        <ele>435</ele>
        <time>2015-06-24T17:03:22.000Z</time>
      </trkpt>
      <trkpt lat="47.46322" lon="6.73146">
        <ele>435</ele>
        <time>2015-06-24T17:03:23.000Z</time>
      </trkpt>
      <trkpt lat="47.46322" lon="6.7314">
        <ele>435</ele>
        <time>2015-06-24T17:03:24.000Z</time>
      </trkpt>
      <trkpt lat="47.46321" lon="6.73135">
        <ele>435</ele>
        <time>2015-06-24T17:03:25.000Z</time>
      </trkpt>
      <trkpt lat="47.46321" lon="6.7313">
        <ele>435</ele>
        <time>2015-06-24T17:03:26.000Z</time>
      </trkpt>
      <trkpt lat="47.46322" lon="6.73125">
        <ele>435</ele>
        <time>2015-06-24T17:03:27.000Z</time>
      </trkpt>
      <trkpt lat="47.46321" lon="6.73119">
        <ele>435</ele>
        <time>2015-06-24T17:03:28.000Z</time>
      </trkpt>
      <trkpt lat="47.46321" lon="6.73114">
        <ele>435</ele>
        <time>2015-06-24T17:03:29.000Z</time>
      </trkpt>
      <trkpt lat="47.46321" lon="6.73109">
        <ele>435</ele>
        <time>2015-06-24T17:03:30.000Z</time>
      </trkpt>
      <trkpt lat="47.46321" lon="6.73104">
        <ele>435</ele>
        <time>2015-06-24T17:03:31.000Z</time>
      </trkpt>
      <trkpt lat="47.46322" lon="6.73098">
        <ele>435</ele>
        <time>2015-06-24T17:03:32.000Z</time>
      </trkpt>
      <trkpt lat="47.46322" lon="6.73092">
        <ele>435</ele>
        <time>2015-06-24T17:03:33.000Z</time>
      </trkpt>
      <trkpt lat="47.46322" lon="6.73087">
        <ele>435</ele>
        <time>2015-06-24T17:03:34.000Z</time>
      </trkpt>
      <trkpt lat="47.46322" lon="6.73081">
        <ele>435</ele>
        <time>2015-06-24T17:03:35.000Z</time>
      </trkpt>
      <trkpt lat="47.46322" lon="6.73074">
        <ele>435</ele>
        <time>2015-06-24T17:03:36.000Z</time>
      </trkpt>
      <trkpt lat="47.46322" lon="6.73068">
        <ele>435</ele>
        <time>2015-06-24T17:03:37.000Z</time>
      </trkpt>
      <trkpt lat="47.46322" lon="6.7306">
        <ele>436</ele>
        <time>2015-06-24T17:03:38.000Z</time>
      </trkpt>
      <trkpt lat="47.46323" lon="6.73054">
        <ele>436</ele>
        <time>2015-06-24T17:03:39.000Z</time>
      </trkpt>
      <trkpt lat="47.46324" lon="6.73046">
        <ele>436</ele>
        <time>2015-06-24T17:03:40.000Z</time>
      </trkpt>
      <trkpt lat="47.46324" lon="6.7304">
        <ele>436</ele>
        <time>2015-06-24T17:03:41.000Z</time>
      </trkpt>
      <trkpt lat="47.46323" lon="6.73033">
        <ele>436</ele>
        <time>2015-06-24T17:03:42.000Z</time>
      </trkpt>
      <trkpt lat="47.46323" lon="6.73026">
        <ele>436</ele>
        <time>2015-06-24T17:03:43.000Z</time>
      </trkpt>
      <trkpt lat="47.46323" lon="6.73019">
        <ele>436</ele>
        <time>2015-06-24T17:03:44.000Z</time>
      </trkpt>
      <trkpt lat="47.46322" lon="6.73012">
        <ele>436</ele>
        <time>2015-06-24T17:03:45.000Z</time>
      </trkpt>
      <trkpt lat="47.46322" lon="6.73005">
        <ele>436</ele>
        <time>2015-06-24T17:03:46.000Z</time>
      </trkpt>
      <trkpt lat="47.46322" lon="6.72998">
        <ele>435</ele>
        <time>2015-06-24T17:03:47.000Z</time>
      </trkpt>
      <trkpt lat="47.46321" lon="6.72991">
        <ele>436</ele>
        <time>2015-06-24T17:03:48.000Z</time>
      </trkpt>
      <trkpt lat="47.4632" lon="6.72984">
        <ele>436</ele>
        <time>2015-06-24T17:03:49.000Z</time>
      </trkpt>
      <trkpt lat="47.4632" lon="6.72977">
        <ele>436</ele>
        <time>2015-06-24T17:03:50.000Z</time>
      </trkpt>
      <trkpt lat="47.4632" lon="6.7297">
        <ele>436</ele>
        <time>2015-06-24T17:03:51.000Z</time>
      </trkpt>
      <trkpt lat="47.4632" lon="6.72962">
        <ele>436</ele>
        <time>2015-06-24T17:03:52.000Z</time>
      </trkpt>
      <trkpt lat="47.46319" lon="6.72955">
        <ele>436</ele>
        <time>2015-06-24T17:03:53.000Z</time>
      </trkpt>
      <trkpt lat="47.46318" lon="6.72948">
        <ele>435</ele>
        <time>2015-06-24T17:03:54.000Z</time>
      </trkpt>
      <trkpt lat="47.46317" lon="6.7294">
        <ele>435</ele>
        <time>2015-06-24T17:03:55.000Z</time>
      </trkpt>
      <trkpt lat="47.46316" lon="6.72932">
        <ele>435</ele>
        <time>2015-06-24T17:03:56.000Z</time>
      </trkpt>
      <trkpt lat="47.46316" lon="6.72924">
        <ele>435</ele>
        <time>2015-06-24T17:03:57.000Z</time>
      </trkpt>
      <trkpt lat="47.46315" lon="6.72917">
        <ele>435</ele>
        <time>2015-06-24T17:03:58.000Z</time>
      </trkpt>
      <trkpt lat="47.46314" lon="6.72909">
        <ele>433</ele>
        <time>2015-06-24T17:03:59.000Z</time>
      </trkpt>
      <trkpt lat="47.46313" lon="6.72901">
        <ele>433</ele>
        <time>2015-06-24T17:04:00.000Z</time>
      </trkpt>
      <trkpt lat="47.46312" lon="6.72893">
        <ele>433</ele>
        <time>2015-06-24T17:04:01.000Z</time>
      </trkpt>
      <trkpt lat="47.46311" lon="6.72886">
        <ele>433</ele>
        <time>2015-06-24T17:04:02.000Z</time>
      </trkpt>
      <trkpt lat="47.46309" lon="6.72878">
        <ele>433</ele>
        <time>2015-06-24T17:04:03.000Z</time>
      </trkpt>
      <trkpt lat="47.46307" lon="6.72871">
        <ele>433</ele>
        <time>2015-06-24T17:04:04.000Z</time>
      </trkpt>
      <trkpt lat="47.46304" lon="6.72863">
        <ele>432</ele>
        <time>2015-06-24T17:04:05.000Z</time>
      </trkpt>
      <trkpt lat="47.46301" lon="6.72856">
        <ele>432</ele>
        <time>2015-06-24T17:04:06.000Z</time>
      </trkpt>
      <trkpt lat="47.46298" lon="6.72851">
        <ele>432</ele>
        <time>2015-06-24T17:04:07.000Z</time>
      </trkpt>
      <trkpt lat="47.46295" lon="6.72847">
        <ele>433</ele>
        <time>2015-06-24T17:04:08.000Z</time>
      </trkpt>
      <trkpt lat="47.46292" lon="6.72845">
        <ele>433</ele>
        <time>2015-06-24T17:04:09.000Z</time>
      </trkpt>
      <trkpt lat="47.46289" lon="6.72847">
        <ele>433</ele>
        <time>2015-06-24T17:04:10.000Z</time>
      </trkpt>
      <trkpt lat="47.46288" lon="6.7285">
        <ele>433</ele>
        <time>2015-06-24T17:04:11.000Z</time>
      </trkpt>
      <trkpt lat="47.46286" lon="6.72854">
        <ele>433</ele>
        <time>2015-06-24T17:04:13.000Z</time>
      </trkpt>
      <trkpt lat="47.46284" lon="6.72856">
        <ele>434</ele>
        <time>2015-06-24T17:04:14.000Z</time>
      </trkpt>
      <trkpt lat="47.46282" lon="6.72857">
        <ele>434</ele>
        <time>2015-06-24T17:04:15.000Z</time>
      </trkpt>
      <trkpt lat="47.46281" lon="6.72861">
        <ele>434</ele>
        <time>2015-06-24T17:04:16.000Z</time>
      </trkpt>
      <trkpt lat="47.46277" lon="6.72866">
        <ele>434</ele>
        <time>2015-06-24T17:04:18.000Z</time>
      </trkpt>
      <trkpt lat="47.46276" lon="6.72868">
        <ele>434</ele>
        <time>2015-06-24T17:04:19.000Z</time>
      </trkpt>
      <trkpt lat="47.46274" lon="6.72871">
        <ele>434</ele>
        <time>2015-06-24T17:04:20.000Z</time>
      </trkpt>
      <trkpt lat="47.46272" lon="6.72873">
        <ele>434</ele>
        <time>2015-06-24T17:04:21.000Z</time>
      </trkpt>
      <trkpt lat="47.4627" lon="6.72875">
        <ele>434</ele>
        <time>2015-06-24T17:04:22.000Z</time>
      </trkpt>
      <trkpt lat="47.46269" lon="6.72877">
        <ele>435</ele>
        <time>2015-06-24T17:04:23.000Z</time>
      </trkpt>
      <trkpt lat="47.46267" lon="6.7288">
        <ele>435</ele>
        <time>2015-06-24T17:04:24.000Z</time>
      </trkpt>
      <trkpt lat="47.46265" lon="6.72882">
        <ele>435</ele>
        <time>2015-06-24T17:04:25.000Z</time>
      </trkpt>
      <trkpt lat="47.46262" lon="6.72884">
        <ele>435</ele>
        <time>2015-06-24T17:04:26.000Z</time>
      </trkpt>
      <trkpt lat="47.4626" lon="6.72885">
        <ele>435</ele>
        <time>2015-06-24T17:04:27.000Z</time>
      </trkpt>
      <trkpt lat="47.46258" lon="6.72886">
        <ele>435</ele>
        <time>2015-06-24T17:04:28.000Z</time>
      </trkpt>
      <trkpt lat="47.46256" lon="6.72888">
        <ele>435</ele>
        <time>2015-06-24T17:04:29.000Z</time>
      </trkpt>
      <trkpt lat="47.46254" lon="6.7289">
        <ele>435</ele>
        <time>2015-06-24T17:04:30.000Z</time>
      </trkpt>
      <trkpt lat="47.46251" lon="6.72892">
        <ele>436</ele>
        <time>2015-06-24T17:04:31.000Z</time>
      </trkpt>
      <trkpt lat="47.46249" lon="6.72894">
        <ele>439</ele>
        <time>2015-06-24T17:04:32.000Z</time>
      </trkpt>
      <trkpt lat="47.46247" lon="6.72896">
        <ele>439</ele>
        <time>2015-06-24T17:04:33.000Z</time>
      </trkpt>
      <trkpt lat="47.46245" lon="6.72899">
        <ele>439</ele>
        <time>2015-06-24T17:04:34.000Z</time>
      </trkpt>
      <trkpt lat="47.46243" lon="6.72901">
        <ele>439</ele>
        <time>2015-06-24T17:04:35.000Z</time>
      </trkpt>
      <trkpt lat="47.46241" lon="6.72903">
        <ele>439</ele>
        <time>2015-06-24T17:04:36.000Z</time>
      </trkpt>
      <trkpt lat="47.46238" lon="6.72906">
        <ele>439</ele>
        <time>2015-06-24T17:04:37.000Z</time>
      </trkpt>
      <trkpt lat="47.46236" lon="6.72908">
        <ele>439</ele>
        <time>2015-06-24T17:04:38.000Z</time>
      </trkpt>
      <trkpt lat="47.46234" lon="6.7291">
        <ele>439</ele>
        <time>2015-06-24T17:04:39.000Z</time>
      </trkpt>
      <trkpt lat="47.46231" lon="6.72912">
        <ele>439</ele>
        <time>2015-06-24T17:04:40.000Z</time>
      </trkpt>
      <trkpt lat="47.46229" lon="6.72913">
        <ele>439</ele>
        <time>2015-06-24T17:04:41.000Z</time>
      </trkpt>
      <trkpt lat="47.46226" lon="6.72913">
        <ele>439</ele>
        <time>2015-06-24T17:04:42.000Z</time>
      </trkpt>
      <trkpt lat="47.46224" lon="6.72911">
        <ele>439</ele>
        <time>2015-06-24T17:04:43.000Z</time>
      </trkpt>
      <trkpt lat="47.46222" lon="6.72908">
        <ele>439</ele>
        <time>2015-06-24T17:04:44.000Z</time>
      </trkpt>
      <trkpt lat="47.46221" lon="6.72904">
        <ele>439</ele>
        <time>2015-06-24T17:04:45.000Z</time>
      </trkpt>
      <trkpt lat="47.4622" lon="6.72899">
        <ele>439</ele>
        <time>2015-06-24T17:04:46.000Z</time>
      </trkpt>
      <trkpt lat="47.46219" lon="6.72894">
        <ele>439</ele>
        <time>2015-06-24T17:04:47.000Z</time>
      </trkpt>
      <trkpt lat="47.46218" lon="6.72888">
        <ele>440</ele>
        <time>2015-06-24T17:04:48.000Z</time>
      </trkpt>
      <trkpt lat="47.46217" lon="6.72883">
        <ele>440</ele>
        <time>2015-06-24T17:04:49.000Z</time>
      </trkpt>
      <trkpt lat="47.46216" lon="6.72877">
        <ele>440</ele>
        <time>2015-06-24T17:04:50.000Z</time>
      </trkpt>
      <trkpt lat="47.46215" lon="6.72867">
        <ele>440</ele>
        <time>2015-06-24T17:04:51.000Z</time>
      </trkpt>
      <trkpt lat="47.46214" lon="6.7286">
        <ele>440</ele>
        <time>2015-06-24T17:04:52.000Z</time>
      </trkpt>
      <trkpt lat="47.46212" lon="6.72856">
        <ele>440</ele>
        <time>2015-06-24T17:04:53.000Z</time>
      </trkpt>
      <trkpt lat="47.46211" lon="6.7285">
        <ele>440</ele>
        <time>2015-06-24T17:04:54.000Z</time>
      </trkpt>
      <trkpt lat="47.4621" lon="6.72843">
        <ele>440</ele>
        <time>2015-06-24T17:04:55.000Z</time>
      </trkpt>
      <trkpt lat="47.46208" lon="6.72837">
        <ele>440</ele>
        <time>2015-06-24T17:04:56.000Z</time>
      </trkpt>
      <trkpt lat="47.46206" lon="6.7283">
        <ele>439</ele>
        <time>2015-06-24T17:04:57.000Z</time>
      </trkpt>
      <trkpt lat="47.46204" lon="6.72824">
        <ele>439</ele>
        <time>2015-06-24T17:04:58.000Z</time>
      </trkpt>
      <trkpt lat="47.46204" lon="6.72818">
        <ele>439</ele>
        <time>2015-06-24T17:04:59.000Z</time>
      </trkpt>
      <trkpt lat="47.46202" lon="6.7281">
        <ele>439</ele>
        <time>2015-06-24T17:05:00.000Z</time>
      </trkpt>
      <trkpt lat="47.46201" lon="6.72803">
        <ele>439</ele>
        <time>2015-06-24T17:05:01.000Z</time>
      </trkpt>
      <trkpt lat="47.462" lon="6.72796">
        <ele>439</ele>
        <time>2015-06-24T17:05:02.000Z</time>
      </trkpt>
      <trkpt lat="47.46198" lon="6.72789">
        <ele>439</ele>
        <time>2015-06-24T17:05:03.000Z</time>
      </trkpt>
      <trkpt lat="47.46195" lon="6.72783">
        <ele>439</ele>
        <time>2015-06-24T17:05:04.000Z</time>
      </trkpt>
      <trkpt lat="47.46193" lon="6.72778">
        <ele>439</ele>
        <time>2015-06-24T17:05:05.000Z</time>
      </trkpt>
      <trkpt lat="47.4619" lon="6.72774">
        <ele>439</ele>
        <time>2015-06-24T17:05:06.000Z</time>
      </trkpt>
      <trkpt lat="47.46187" lon="6.7277">
        <ele>439</ele>
        <time>2015-06-24T17:05:07.000Z</time>
      </trkpt>
      <trkpt lat="47.46181" lon="6.72767">
        <ele>440</ele>
        <time>2015-06-24T17:05:08.000Z</time>
      </trkpt>
      <trkpt lat="47.46177" lon="6.72762">
        <ele>440</ele>
        <time>2015-06-24T17:05:09.000Z</time>
      </trkpt>
      <trkpt lat="47.46174" lon="6.72758">
        <ele>441</ele>
        <time>2015-06-24T17:05:10.000Z</time>
      </trkpt>
      <trkpt lat="47.46171" lon="6.72753">
        <ele>441</ele>
        <time>2015-06-24T17:05:11.000Z</time>
      </trkpt>
      <trkpt lat="47.46167" lon="6.72748">
        <ele>441</ele>
        <time>2015-06-24T17:05:12.000Z</time>
      </trkpt>
      <trkpt lat="47.46164" lon="6.72743">
        <ele>442</ele>
        <time>2015-06-24T17:05:13.000Z</time>
      </trkpt>
      <trkpt lat="47.46161" lon="6.72739">
        <ele>442</ele>
        <time>2015-06-24T17:05:14.000Z</time>
      </trkpt>
      <trkpt lat="47.46157" lon="6.72735">
        <ele>442</ele>
        <time>2015-06-24T17:05:15.000Z</time>
      </trkpt>
      <trkpt lat="47.46153" lon="6.7273">
        <ele>441</ele>
        <time>2015-06-24T17:05:16.000Z</time>
      </trkpt>
      <trkpt lat="47.4615" lon="6.72726">
        <ele>441</ele>
        <time>2015-06-24T17:05:17.000Z</time>
      </trkpt>
      <trkpt lat="47.46147" lon="6.72722">
        <ele>441</ele>
        <time>2015-06-24T17:05:18.000Z</time>
      </trkpt>
      <trkpt lat="47.46144" lon="6.72719">
        <ele>441</ele>
        <time>2015-06-24T17:05:19.000Z</time>
      </trkpt>
      <trkpt lat="47.4614" lon="6.72714">
        <ele>441</ele>
        <time>2015-06-24T17:05:20.000Z</time>
      </trkpt>
      <trkpt lat="47.46137" lon="6.7271">
        <ele>441</ele>
        <time>2015-06-24T17:05:21.000Z</time>
      </trkpt>
      <trkpt lat="47.46133" lon="6.72705">
        <ele>441</ele>
        <time>2015-06-24T17:05:22.000Z</time>
      </trkpt>
      <trkpt lat="47.4613" lon="6.72699">
        <ele>441</ele>
        <time>2015-06-24T17:05:23.000Z</time>
      </trkpt>
      <trkpt lat="47.46128" lon="6.72696">
        <ele>441</ele>
        <time>2015-06-24T17:05:24.000Z</time>
      </trkpt>
      <trkpt lat="47.46124" lon="6.72693">
        <ele>441</ele>
        <time>2015-06-24T17:05:25.000Z</time>
      </trkpt>
      <trkpt lat="47.46121" lon="6.72688">
        <ele>441</ele>
        <time>2015-06-24T17:05:26.000Z</time>
      </trkpt>
      <trkpt lat="47.46117" lon="6.72684">
        <ele>441</ele>
        <time>2015-06-24T17:05:27.000Z</time>
      </trkpt>
      <trkpt lat="47.46112" lon="6.7268">
        <ele>441</ele>
        <time>2015-06-24T17:05:28.000Z</time>
      </trkpt>
      <trkpt lat="47.46109" lon="6.72675">
        <ele>441</ele>
        <time>2015-06-24T17:05:29.000Z</time>
      </trkpt>
      <trkpt lat="47.46105" lon="6.7267">
        <ele>441</ele>
        <time>2015-06-24T17:05:30.000Z</time>
      </trkpt>
      <trkpt lat="47.461" lon="6.72665">
        <ele>440</ele>
        <time>2015-06-24T17:05:31.000Z</time>
      </trkpt>
      <trkpt lat="47.46097" lon="6.72659">
        <ele>440</ele>
        <time>2015-06-24T17:05:32.000Z</time>
      </trkpt>
      <trkpt lat="47.46093" lon="6.72655">
        <ele>440</ele>
        <time>2015-06-24T17:05:33.000Z</time>
      </trkpt>
      <trkpt lat="47.46092" lon="6.7265">
        <ele>439</ele>
        <time>2015-06-24T17:05:34.000Z</time>
      </trkpt>
      <trkpt lat="47.46087" lon="6.72644">
        <ele>439</ele>
        <time>2015-06-24T17:05:35.000Z</time>
      </trkpt>
      <trkpt lat="47.46083" lon="6.72638">
        <ele>441</ele>
        <time>2015-06-24T17:05:36.000Z</time>
      </trkpt>
      <trkpt lat="47.46079" lon="6.72633">
        <ele>441</ele>
        <time>2015-06-24T17:05:37.000Z</time>
      </trkpt>
      <trkpt lat="47.46075" lon="6.72628">
        <ele>441</ele>
        <time>2015-06-24T17:05:38.000Z</time>
      </trkpt>
      <trkpt lat="47.46071" lon="6.72622">
        <ele>440</ele>
        <time>2015-06-24T17:05:39.000Z</time>
      </trkpt>
      <trkpt lat="47.46066" lon="6.72618">
        <ele>440</ele>
        <time>2015-06-24T17:05:40.000Z</time>
      </trkpt>
      <trkpt lat="47.46062" lon="6.72613">
        <ele>440</ele>
        <time>2015-06-24T17:05:41.000Z</time>
      </trkpt>
      <trkpt lat="47.46058" lon="6.72608">
        <ele>440</ele>
        <time>2015-06-24T17:05:42.000Z</time>
      </trkpt>
      <trkpt lat="47.46054" lon="6.72603">
        <ele>440</ele>
        <time>2015-06-24T17:05:43.000Z</time>
      </trkpt>
      <trkpt lat="47.46051" lon="6.72596">
        <ele>440</ele>
        <time>2015-06-24T17:05:44.000Z</time>
      </trkpt>
      <trkpt lat="47.46046" lon="6.72591">
        <ele>440</ele>
        <time>2015-06-24T17:05:45.000Z</time>
      </trkpt>
      <trkpt lat="47.46042" lon="6.72585">
        <ele>440</ele>
        <time>2015-06-24T17:05:46.000Z</time>
      </trkpt>
      <trkpt lat="47.46037" lon="6.72579">
        <ele>438</ele>
        <time>2015-06-24T17:05:47.000Z</time>
      </trkpt>
      <trkpt lat="47.46033" lon="6.72574">
        <ele>438</ele>
        <time>2015-06-24T17:05:48.000Z</time>
      </trkpt>
      <trkpt lat="47.46029" lon="6.72569">
        <ele>438</ele>
        <time>2015-06-24T17:05:49.000Z</time>
      </trkpt>
      <trkpt lat="47.46025" lon="6.72563">
        <ele>438</ele>
        <time>2015-06-24T17:05:50.000Z</time>
      </trkpt>
      <trkpt lat="47.46021" lon="6.72557">
        <ele>438</ele>
        <time>2015-06-24T17:05:51.000Z</time>
      </trkpt>
      <trkpt lat="47.46017" lon="6.72551">
        <ele>438</ele>
        <time>2015-06-24T17:05:52.000Z</time>
      </trkpt>
      <trkpt lat="47.46013" lon="6.72547">
        <ele>438</ele>
        <time>2015-06-24T17:05:53.000Z</time>
      </trkpt>
      <trkpt lat="47.46009" lon="6.72541">
        <ele>438</ele>
        <time>2015-06-24T17:05:54.000Z</time>
      </trkpt>
      <trkpt lat="47.46005" lon="6.72536">
        <ele>438</ele>
        <time>2015-06-24T17:05:55.000Z</time>
      </trkpt>
      <trkpt lat="47.46003" lon="6.72531">
        <ele>438</ele>
        <time>2015-06-24T17:05:56.000Z</time>
      </trkpt>
      <trkpt lat="47.46001" lon="6.72527">
        <ele>438</ele>
        <time>2015-06-24T17:05:57.000Z</time>
      </trkpt>
      <trkpt lat="47.45998" lon="6.72525">
        <ele>439</ele>
        <time>2015-06-24T17:05:58.000Z</time>
      </trkpt>
      <trkpt lat="47.45993" lon="6.72525">
        <ele>439</ele>
        <time>2015-06-24T17:05:59.000Z</time>
      </trkpt>
      <trkpt lat="47.45989" lon="6.72525">
        <ele>439</ele>
        <time>2015-06-24T17:06:01.000Z</time>
      </trkpt>
      <trkpt lat="47.45989" lon="6.72525">
        <ele>439</ele>
        <time>2015-06-24T17:06:02.000Z</time>
      </trkpt>
      <trkpt lat="47.45986" lon="6.72525">
        <ele>439</ele>
        <time>2015-06-24T17:06:03.000Z</time>
      </trkpt>
      <trkpt lat="47.45984" lon="6.72523">
        <ele>439</ele>
        <time>2015-06-24T17:06:04.000Z</time>
      </trkpt>
      <trkpt lat="47.45982" lon="6.72518">
        <ele>439</ele>
        <time>2015-06-24T17:06:06.000Z</time>
      </trkpt>
      <trkpt lat="47.4598" lon="6.72515">
        <ele>439</ele>
        <time>2015-06-24T17:06:07.000Z</time>
      </trkpt>
      <trkpt lat="47.45979" lon="6.72512">
        <ele>439</ele>
        <time>2015-06-24T17:06:08.000Z</time>
      </trkpt>
      <trkpt lat="47.45979" lon="6.72507">
        <ele>439</ele>
        <time>2015-06-24T17:06:09.000Z</time>
      </trkpt>
      <trkpt lat="47.45978" lon="6.72503">
        <ele>439</ele>
        <time>2015-06-24T17:06:10.000Z</time>
      </trkpt>
      <trkpt lat="47.45978" lon="6.72499">
        <ele>439</ele>
        <time>2015-06-24T17:06:11.000Z</time>
      </trkpt>
      <trkpt lat="47.45978" lon="6.72495">
        <ele>439</ele>
        <time>2015-06-24T17:06:12.000Z</time>
      </trkpt>
      <trkpt lat="47.45978" lon="6.72492">
        <ele>439</ele>
        <time>2015-06-24T17:06:13.000Z</time>
      </trkpt>
      <trkpt lat="47.45977" lon="6.72489">
        <ele>439</ele>
        <time>2015-06-24T17:06:14.000Z</time>
      </trkpt>
      <trkpt lat="47.45976" lon="6.72485">
        <ele>439</ele>
        <time>2015-06-24T17:06:15.000Z</time>
      </trkpt>
      <trkpt lat="47.45976" lon="6.72481">
        <ele>439</ele>
        <time>2015-06-24T17:06:16.000Z</time>
      </trkpt>
      <trkpt lat="47.45973" lon="6.72464">
        <ele>439</ele>
        <time>2015-06-24T17:06:17.000Z</time>
      </trkpt>
      <trkpt lat="47.45975" lon="6.72453">
        <ele>439</ele>
        <time>2015-06-24T17:06:18.000Z</time>
      </trkpt>
      <trkpt lat="47.45977" lon="6.7245">
        <ele>439</ele>
        <time>2015-06-24T17:06:20.000Z</time>
      </trkpt>
      <trkpt lat="47.45978" lon="6.72442">
        <ele>439</ele>
        <time>2015-06-24T17:06:21.000Z</time>
      </trkpt>
      <trkpt lat="47.45979" lon="6.72436">
        <ele>439</ele>
        <time>2015-06-24T17:06:23.000Z</time>
      </trkpt>
      <trkpt lat="47.45979" lon="6.72433">
        <ele>439</ele>
        <time>2015-06-24T17:06:24.000Z</time>
      </trkpt>
      <trkpt lat="47.45978" lon="6.72426">
        <ele>439</ele>
        <time>2015-06-24T17:06:25.000Z</time>
      </trkpt>
      <trkpt lat="47.45978" lon="6.7242">
        <ele>439</ele>
        <time>2015-06-24T17:06:26.000Z</time>
      </trkpt>
      <trkpt lat="47.45973" lon="6.72417">
        <ele>439</ele>
        <time>2015-06-24T17:06:27.000Z</time>
      </trkpt>
      <trkpt lat="47.45971" lon="6.72411">
        <ele>438</ele>
        <time>2015-06-24T17:06:29.000Z</time>
      </trkpt>
      <trkpt lat="47.4597" lon="6.72409">
        <ele>438</ele>
        <time>2015-06-24T17:06:30.000Z</time>
      </trkpt>
      <trkpt lat="47.45967" lon="6.72405">
        <ele>438</ele>
        <time>2015-06-24T17:06:32.000Z</time>
      </trkpt>
      <trkpt lat="47.45965" lon="6.72403">
        <ele>438</ele>
        <time>2015-06-24T17:06:33.000Z</time>
      </trkpt>
      <trkpt lat="47.45962" lon="6.72399">
        <ele>438</ele>
        <time>2015-06-24T17:06:35.000Z</time>
      </trkpt>
      <trkpt lat="47.45961" lon="6.72397">
        <ele>438</ele>
        <time>2015-06-24T17:06:36.000Z</time>
      </trkpt>
      <trkpt lat="47.45959" lon="6.72392">
        <ele>438</ele>
        <time>2015-06-24T17:06:38.000Z</time>
      </trkpt>
      <trkpt lat="47.45958" lon="6.7239">
        <ele>438</ele>
        <time>2015-06-24T17:06:39.000Z</time>
      </trkpt>
      <trkpt lat="47.45957" lon="6.72385">
        <ele>438</ele>
        <time>2015-06-24T17:06:41.000Z</time>
      </trkpt>
      <trkpt lat="47.45956" lon="6.72382">
        <ele>438</ele>
        <time>2015-06-24T17:06:42.000Z</time>
      </trkpt>
      <trkpt lat="47.45955" lon="6.72379">
        <ele>438</ele>
        <time>2015-06-24T17:06:43.000Z</time>
      </trkpt>
      <trkpt lat="47.45954" lon="6.72375">
        <ele>438</ele>
        <time>2015-06-24T17:06:44.000Z</time>
      </trkpt>
      <trkpt lat="47.45953" lon="6.72371">
        <ele>438</ele>
        <time>2015-06-24T17:06:45.000Z</time>
      </trkpt>
      <trkpt lat="47.45951" lon="6.72367">
        <ele>438</ele>
        <time>2015-06-24T17:06:46.000Z</time>
      </trkpt>
      <trkpt lat="47.4595" lon="6.72362">
        <ele>438</ele>
        <time>2015-06-24T17:06:47.000Z</time>
      </trkpt>
      <trkpt lat="47.45949" lon="6.72358">
        <ele>438</ele>
        <time>2015-06-24T17:06:48.000Z</time>
      </trkpt>
      <trkpt lat="47.45947" lon="6.72353">
        <ele>438</ele>
        <time>2015-06-24T17:06:49.000Z</time>
      </trkpt>
      <trkpt lat="47.45947" lon="6.7235">
        <ele>438</ele>
        <time>2015-06-24T17:06:50.000Z</time>
      </trkpt>
      <trkpt lat="47.45947" lon="6.72344">
        <ele>438</ele>
        <time>2015-06-24T17:06:52.000Z</time>
      </trkpt>
      <trkpt lat="47.45948" lon="6.72343">
        <ele>438</ele>
        <time>2015-06-24T17:06:53.000Z</time>
      </trkpt>
      <trkpt lat="47.45949" lon="6.72339">
        <ele>438</ele>
        <time>2015-06-24T17:06:55.000Z</time>
      </trkpt>
      <trkpt lat="47.4595" lon="6.72336">
        <ele>438</ele>
        <time>2015-06-24T17:06:56.000Z</time>
      </trkpt>
      <trkpt lat="47.45952" lon="6.72331">
        <ele>437</ele>
        <time>2015-06-24T17:06:58.000Z</time>
      </trkpt>
      <trkpt lat="47.45954" lon="6.72328">
        <ele>437</ele>
        <time>2015-06-24T17:06:59.000Z</time>
      </trkpt>
      <trkpt lat="47.45955" lon="6.72324">
        <ele>437</ele>
        <time>2015-06-24T17:07:00.000Z</time>
      </trkpt>
      <trkpt lat="47.45955" lon="6.7232">
        <ele>437</ele>
        <time>2015-06-24T17:07:01.000Z</time>
      </trkpt>
      <trkpt lat="47.45956" lon="6.72315">
        <ele>437</ele>
        <time>2015-06-24T17:07:02.000Z</time>
      </trkpt>
      <trkpt lat="47.45956" lon="6.72312">
        <ele>437</ele>
        <time>2015-06-24T17:07:03.000Z</time>
      </trkpt>
      <trkpt lat="47.45954" lon="6.72307">
        <ele>437</ele>
        <time>2015-06-24T17:07:05.000Z</time>
      </trkpt>
      <trkpt lat="47.45952" lon="6.72305">
        <ele>437</ele>
        <time>2015-06-24T17:07:06.000Z</time>
      </trkpt>
      <trkpt lat="47.45949" lon="6.72301">
        <ele>437</ele>
        <time>2015-06-24T17:07:08.000Z</time>
      </trkpt>
      <trkpt lat="47.45946" lon="6.723">
        <ele>437</ele>
        <time>2015-06-24T17:07:09.000Z</time>
      </trkpt>
      <trkpt lat="47.45943" lon="6.72299">
        <ele>437</ele>
        <time>2015-06-24T17:07:10.000Z</time>
      </trkpt>
      <trkpt lat="47.4594" lon="6.72298">
        <ele>437</ele>
        <time>2015-06-24T17:07:11.000Z</time>
      </trkpt>
      <trkpt lat="47.45937" lon="6.72298">
        <ele>437</ele>
        <time>2015-06-24T17:07:12.000Z</time>
      </trkpt>
      <trkpt lat="47.45933" lon="6.72298">
        <ele>438</ele>
        <time>2015-06-24T17:07:13.000Z</time>
      </trkpt>
      <trkpt lat="47.45936" lon="6.72295">
        <ele>437</ele>
        <time>2015-06-24T17:07:27.000Z</time>
      </trkpt>
      <trkpt lat="47.45937" lon="6.72294">
        <ele>437</ele>
        <time>2015-06-24T17:07:28.000Z</time>
      </trkpt>
      <trkpt lat="47.4594" lon="6.7229">
        <ele>437</ele>
        <time>2015-06-24T17:07:35.000Z</time>
      </trkpt>
      <trkpt lat="47.4594" lon="6.72289">
        <ele>437</ele>
        <time>2015-06-24T17:07:36.000Z</time>
      </trkpt>
      <trkpt lat="47.45944" lon="6.72287">
        <ele>437</ele>
        <time>2015-06-24T17:07:41.000Z</time>
      </trkpt>
      <trkpt lat="47.45945" lon="6.72286">
        <ele>437</ele>
        <time>2015-06-24T17:07:42.000Z</time>
      </trkpt>
      <trkpt lat="47.45948" lon="6.72283">
        <ele>437</ele>
        <time>2015-06-24T17:07:46.000Z</time>
      </trkpt>
      <trkpt lat="47.45949" lon="6.72282">
        <ele>437</ele>
        <time>2015-06-24T17:07:47.000Z</time>
      </trkpt>
      <trkpt lat="47.45952" lon="6.72277">
        <ele>437</ele>
        <time>2015-06-24T17:07:53.000Z</time>
      </trkpt>
      <trkpt lat="47.45953" lon="6.72277">
        <ele>437</ele>
        <time>2015-06-24T17:07:54.000Z</time>
      </trkpt>
      <trkpt lat="47.45957" lon="6.72278">
        <ele>437</ele>
        <time>2015-06-24T17:08:04.000Z</time>
      </trkpt>
      <trkpt lat="47.45957" lon="6.72279">
        <ele>437</ele>
        <time>2015-06-24T17:08:05.000Z</time>
      </trkpt>
      <trkpt lat="47.45961" lon="6.72281">
        <ele>437</ele>
        <time>2015-06-24T17:08:09.000Z</time>
      </trkpt>
      <trkpt lat="47.45962" lon="6.7228">
        <ele>437</ele>
        <time>2015-06-24T17:08:10.000Z</time>
      </trkpt>
      <trkpt lat="47.45966" lon="6.7228">
        <ele>436</ele>
        <time>2015-06-24T17:08:18.000Z</time>
      </trkpt>
      <trkpt lat="47.45966" lon="6.7228">
        <ele>436</ele>
        <time>2015-06-24T17:08:19.000Z</time>
      </trkpt>
      <trkpt lat="47.45969" lon="6.72276">
        <ele>436</ele>
        <time>2015-06-24T17:10:09.000Z</time>
      </trkpt>
      <trkpt lat="47.4597" lon="6.72275">
        <ele>436</ele>
        <time>2015-06-24T17:10:10.000Z</time>
      </trkpt>
      <trkpt lat="47.45973" lon="6.72273">
        <ele>436</ele>
        <time>2015-06-24T17:10:12.000Z</time>
      </trkpt>
      <trkpt lat="47.45975" lon="6.72271">
        <ele>436</ele>
        <time>2015-06-24T17:10:13.000Z</time>
      </trkpt>
      <trkpt lat="47.45977" lon="6.72269">
        <ele>436</ele>
        <time>2015-06-24T17:10:14.000Z</time>
      </trkpt>
      <trkpt lat="47.4598" lon="6.72265">
        <ele>436</ele>
        <time>2015-06-24T17:10:15.000Z</time>
      </trkpt>
      <trkpt lat="47.45983" lon="6.72261">
        <ele>436</ele>
        <time>2015-06-24T17:10:16.000Z</time>
      </trkpt>
      <trkpt lat="47.45985" lon="6.72256">
        <ele>435</ele>
        <time>2015-06-24T17:10:17.000Z</time>
      </trkpt>
      <trkpt lat="47.45986" lon="6.7225">
        <ele>435</ele>
        <time>2015-06-24T17:10:18.000Z</time>
      </trkpt>
      <trkpt lat="47.45988" lon="6.72245">
        <ele>435</ele>
        <time>2015-06-24T17:10:19.000Z</time>
      </trkpt>
      <trkpt lat="47.45989" lon="6.7224">
        <ele>435</ele>
        <time>2015-06-24T17:10:20.000Z</time>
      </trkpt>
      <trkpt lat="47.4599" lon="6.72235">
        <ele>435</ele>
        <time>2015-06-24T17:10:21.000Z</time>
      </trkpt>
      <trkpt lat="47.45991" lon="6.72232">
        <ele>436</ele>
        <time>2015-06-24T17:10:22.000Z</time>
      </trkpt>
      <trkpt lat="47.45992" lon="6.72228">
        <ele>436</ele>
        <time>2015-06-24T17:10:23.000Z</time>
      </trkpt>
      <trkpt lat="47.45993" lon="6.72225">
        <ele>436</ele>
        <time>2015-06-24T17:10:24.000Z</time>
      </trkpt>
      <trkpt lat="47.45993" lon="6.72222">
        <ele>436</ele>
        <time>2015-06-24T17:10:25.000Z</time>
      </trkpt>
      <trkpt lat="47.45993" lon="6.72218">
        <ele>436</ele>
        <time>2015-06-24T17:10:26.000Z</time>
      </trkpt>
      <trkpt lat="47.45993" lon="6.72214">
        <ele>436</ele>
        <time>2015-06-24T17:10:27.000Z</time>
      </trkpt>
      <trkpt lat="47.45993" lon="6.72209">
        <ele>436</ele>
        <time>2015-06-24T17:10:28.000Z</time>
      </trkpt>
      <trkpt lat="47.45992" lon="6.72205">
        <ele>436</ele>
        <time>2015-06-24T17:10:29.000Z</time>
      </trkpt>
      <trkpt lat="47.45992" lon="6.722">
        <ele>436</ele>
        <time>2015-06-24T17:10:30.000Z</time>
      </trkpt>
      <trkpt lat="47.45992" lon="6.72195">
        <ele>436</ele>
        <time>2015-06-24T17:10:31.000Z</time>
      </trkpt>
      <trkpt lat="47.45992" lon="6.72189">
        <ele>436</ele>
        <time>2015-06-24T17:10:32.000Z</time>
      </trkpt>
      <trkpt lat="47.45992" lon="6.72184">
        <ele>436</ele>
        <time>2015-06-24T17:10:33.000Z</time>
      </trkpt>
      <trkpt lat="47.45992" lon="6.72179">
        <ele>435</ele>
        <time>2015-06-24T17:10:34.000Z</time>
      </trkpt>
      <trkpt lat="47.45992" lon="6.72174">
        <ele>435</ele>
        <time>2015-06-24T17:10:35.000Z</time>
      </trkpt>
      <trkpt lat="47.45992" lon="6.72168">
        <ele>435</ele>
        <time>2015-06-24T17:10:36.000Z</time>
      </trkpt>
      <trkpt lat="47.45992" lon="6.72163">
        <ele>435</ele>
        <time>2015-06-24T17:10:37.000Z</time>
      </trkpt>
      <trkpt lat="47.45992" lon="6.72157">
        <ele>435</ele>
        <time>2015-06-24T17:10:38.000Z</time>
      </trkpt>
      <trkpt lat="47.45992" lon="6.72152">
        <ele>435</ele>
        <time>2015-06-24T17:10:39.000Z</time>
      </trkpt>
      <trkpt lat="47.45992" lon="6.72148">
        <ele>436</ele>
        <time>2015-06-24T17:10:40.000Z</time>
      </trkpt>
      <trkpt lat="47.45991" lon="6.72144">
        <ele>436</ele>
        <time>2015-06-24T17:10:41.000Z</time>
      </trkpt>
      <trkpt lat="47.45991" lon="6.7214">
        <ele>436</ele>
        <time>2015-06-24T17:10:42.000Z</time>
      </trkpt>
      <trkpt lat="47.45991" lon="6.72136">
        <ele>436</ele>
        <time>2015-06-24T17:10:43.000Z</time>
      </trkpt>
      <trkpt lat="47.45991" lon="6.72131">
        <ele>436</ele>
        <time>2015-06-24T17:10:44.000Z</time>
      </trkpt>
      <trkpt lat="47.45991" lon="6.72127">
        <ele>436</ele>
        <time>2015-06-24T17:10:45.000Z</time>
      </trkpt>
      <trkpt lat="47.45992" lon="6.72122">
        <ele>436</ele>
        <time>2015-06-24T17:10:46.000Z</time>
      </trkpt>
      <trkpt lat="47.45992" lon="6.72117">
        <ele>436</ele>
        <time>2015-06-24T17:10:47.000Z</time>
      </trkpt>
      <trkpt lat="47.45992" lon="6.72112">
        <ele>435</ele>
        <time>2015-06-24T17:10:48.000Z</time>
      </trkpt>
      <trkpt lat="47.45992" lon="6.72107">
        <ele>435</ele>
        <time>2015-06-24T17:10:49.000Z</time>
      </trkpt>
      <trkpt lat="47.45992" lon="6.72101">
        <ele>435</ele>
        <time>2015-06-24T17:10:50.000Z</time>
      </trkpt>
      <trkpt lat="47.45992" lon="6.72095">
        <ele>434</ele>
        <time>2015-06-24T17:10:51.000Z</time>
      </trkpt>
      <trkpt lat="47.45991" lon="6.72089">
        <ele>434</ele>
        <time>2015-06-24T17:10:52.000Z</time>
      </trkpt>
      <trkpt lat="47.4599" lon="6.72084">
        <ele>434</ele>
        <time>2015-06-24T17:10:53.000Z</time>
      </trkpt>
      <trkpt lat="47.45989" lon="6.72079">
        <ele>434</ele>
        <time>2015-06-24T17:10:54.000Z</time>
      </trkpt>
      <trkpt lat="47.45988" lon="6.72074">
        <ele>434</ele>
        <time>2015-06-24T17:10:55.000Z</time>
      </trkpt>
      <trkpt lat="47.45987" lon="6.7207">
        <ele>434</ele>
        <time>2015-06-24T17:10:56.000Z</time>
      </trkpt>
      <trkpt lat="47.45986" lon="6.72064">
        <ele>434</ele>
        <time>2015-06-24T17:10:57.000Z</time>
      </trkpt>
      <trkpt lat="47.45985" lon="6.72059">
        <ele>435</ele>
        <time>2015-06-24T17:10:58.000Z</time>
      </trkpt>
      <trkpt lat="47.45985" lon="6.72054">
        <ele>435</ele>
        <time>2015-06-24T17:10:59.000Z</time>
      </trkpt>
      <trkpt lat="47.45984" lon="6.72049">
        <ele>435</ele>
        <time>2015-06-24T17:11:00.000Z</time>
      </trkpt>
      <trkpt lat="47.45983" lon="6.72043">
        <ele>435</ele>
        <time>2015-06-24T17:11:01.000Z</time>
      </trkpt>
      <trkpt lat="47.45983" lon="6.72039">
        <ele>435</ele>
        <time>2015-06-24T17:11:02.000Z</time>
      </trkpt>
      <trkpt lat="47.45982" lon="6.72036">
        <ele>435</ele>
        <time>2015-06-24T17:11:03.000Z</time>
      </trkpt>
      <trkpt lat="47.45981" lon="6.72032">
        <ele>435</ele>
        <time>2015-06-24T17:11:04.000Z</time>
      </trkpt>
      <trkpt lat="47.4598" lon="6.72029">
        <ele>434</ele>
        <time>2015-06-24T17:11:05.000Z</time>
      </trkpt>
      <trkpt lat="47.45979" lon="6.72025">
        <ele>434</ele>
        <time>2015-06-24T17:11:06.000Z</time>
      </trkpt>
      <trkpt lat="47.45978" lon="6.72021">
        <ele>434</ele>
        <time>2015-06-24T17:11:07.000Z</time>
      </trkpt>
      <trkpt lat="47.45978" lon="6.72015">
        <ele>434</ele>
        <time>2015-06-24T17:11:09.000Z</time>
      </trkpt>
      <trkpt lat="47.45979" lon="6.72011">
        <ele>434</ele>
        <time>2015-06-24T17:11:10.000Z</time>
      </trkpt>
      <trkpt lat="47.45979" lon="6.72007">
        <ele>433</ele>
        <time>2015-06-24T17:11:11.000Z</time>
      </trkpt>
      <trkpt lat="47.45978" lon="6.72004">
        <ele>433</ele>
        <time>2015-06-24T17:11:12.000Z</time>
      </trkpt>
      <trkpt lat="47.45978" lon="6.72">
        <ele>432</ele>
        <time>2015-06-24T17:11:13.000Z</time>
      </trkpt>
      <trkpt lat="47.45978" lon="6.71996">
        <ele>432</ele>
        <time>2015-06-24T17:11:14.000Z</time>
      </trkpt>
      <trkpt lat="47.45977" lon="6.71993">
        <ele>432</ele>
        <time>2015-06-24T17:11:15.000Z</time>
      </trkpt>
      <trkpt lat="47.45977" lon="6.71989">
        <ele>432</ele>
        <time>2015-06-24T17:11:16.000Z</time>
      </trkpt>
      <trkpt lat="47.45976" lon="6.71985">
        <ele>432</ele>
        <time>2015-06-24T17:11:17.000Z</time>
      </trkpt>
      <trkpt lat="47.45976" lon="6.71981">
        <ele>432</ele>
        <time>2015-06-24T17:11:18.000Z</time>
      </trkpt>
      <trkpt lat="47.45976" lon="6.71975">
        <ele>432</ele>
        <time>2015-06-24T17:11:19.000Z</time>
      </trkpt>
      <trkpt lat="47.45976" lon="6.71969">
        <ele>432</ele>
        <time>2015-06-24T17:11:20.000Z</time>
      </trkpt>
      <trkpt lat="47.45976" lon="6.71963">
        <ele>432</ele>
        <time>2015-06-24T17:11:21.000Z</time>
      </trkpt>
      <trkpt lat="47.45975" lon="6.71956">
        <ele>432</ele>
        <time>2015-06-24T17:11:22.000Z</time>
      </trkpt>
      <trkpt lat="47.45975" lon="6.7195">
        <ele>432</ele>
        <time>2015-06-24T17:11:23.000Z</time>
      </trkpt>
      <trkpt lat="47.45974" lon="6.71944">
        <ele>432</ele>
        <time>2015-06-24T17:11:24.000Z</time>
      </trkpt>
      <trkpt lat="47.45974" lon="6.71938">
        <ele>431</ele>
        <time>2015-06-24T17:11:25.000Z</time>
      </trkpt>
      <trkpt lat="47.45973" lon="6.71932">
        <ele>431</ele>
        <time>2015-06-24T17:11:26.000Z</time>
      </trkpt>
      <trkpt lat="47.45973" lon="6.71926">
        <ele>431</ele>
        <time>2015-06-24T17:11:27.000Z</time>
      </trkpt>
      <trkpt lat="47.45973" lon="6.7192">
        <ele>431</ele>
        <time>2015-06-24T17:11:28.000Z</time>
      </trkpt>
      <trkpt lat="47.45973" lon="6.71913">
        <ele>428</ele>
        <time>2015-06-24T17:11:29.000Z</time>
      </trkpt>
      <trkpt lat="47.45974" lon="6.71906">
        <ele>428</ele>
        <time>2015-06-24T17:11:30.000Z</time>
      </trkpt>
      <trkpt lat="47.45974" lon="6.71899">
        <ele>428</ele>
        <time>2015-06-24T17:11:31.000Z</time>
      </trkpt>
      <trkpt lat="47.45974" lon="6.71892">
        <ele>428</ele>
        <time>2015-06-24T17:11:32.000Z</time>
      </trkpt>
      <trkpt lat="47.45974" lon="6.71885">
        <ele>428</ele>
        <time>2015-06-24T17:11:33.000Z</time>
      </trkpt>
      <trkpt lat="47.45973" lon="6.71877">
        <ele>428</ele>
        <time>2015-06-24T17:11:34.000Z</time>
      </trkpt>
      <trkpt lat="47.45972" lon="6.71869">
        <ele>428</ele>
        <time>2015-06-24T17:11:35.000Z</time>
      </trkpt>
      <trkpt lat="47.4597" lon="6.71861">
        <ele>428</ele>
        <time>2015-06-24T17:11:36.000Z</time>
      </trkpt>
      <trkpt lat="47.45969" lon="6.71854">
        <ele>427</ele>
        <time>2015-06-24T17:11:37.000Z</time>
      </trkpt>
      <trkpt lat="47.45968" lon="6.71847">
        <ele>427</ele>
        <time>2015-06-24T17:11:38.000Z</time>
      </trkpt>
      <trkpt lat="47.45967" lon="6.71841">
        <ele>427</ele>
        <time>2015-06-24T17:11:39.000Z</time>
      </trkpt>
      <trkpt lat="47.45967" lon="6.71834">
        <ele>427</ele>
        <time>2015-06-24T17:11:40.000Z</time>
      </trkpt>
      <trkpt lat="47.45967" lon="6.71828">
        <ele>425</ele>
        <time>2015-06-24T17:11:41.000Z</time>
      </trkpt>
      <trkpt lat="47.45966" lon="6.7182">
        <ele>425</ele>
        <time>2015-06-24T17:11:42.000Z</time>
      </trkpt>
      <trkpt lat="47.45966" lon="6.71812">
        <ele>425</ele>
        <time>2015-06-24T17:11:43.000Z</time>
      </trkpt>
      <trkpt lat="47.45965" lon="6.71804">
        <ele>425</ele>
        <time>2015-06-24T17:11:44.000Z</time>
      </trkpt>
      <trkpt lat="47.45965" lon="6.71797">
        <ele>425</ele>
        <time>2015-06-24T17:11:45.000Z</time>
      </trkpt>
      <trkpt lat="47.45964" lon="6.71791">
        <ele>425</ele>
        <time>2015-06-24T17:11:46.000Z</time>
      </trkpt>
      <trkpt lat="47.45962" lon="6.71785">
        <ele>425</ele>
        <time>2015-06-24T17:11:47.000Z</time>
      </trkpt>
      <trkpt lat="47.45961" lon="6.7178">
        <ele>425</ele>
        <time>2015-06-24T17:11:48.000Z</time>
      </trkpt>
      <trkpt lat="47.45959" lon="6.71775">
        <ele>425</ele>
        <time>2015-06-24T17:11:49.000Z</time>
      </trkpt>
      <trkpt lat="47.45958" lon="6.71769">
        <ele>425</ele>
        <time>2015-06-24T17:11:50.000Z</time>
      </trkpt>
      <trkpt lat="47.45957" lon="6.71763">
        <ele>426</ele>
        <time>2015-06-24T17:11:51.000Z</time>
      </trkpt>
      <trkpt lat="47.45955" lon="6.71758">
        <ele>426</ele>
        <time>2015-06-24T17:11:52.000Z</time>
      </trkpt>
      <trkpt lat="47.45954" lon="6.71752">
        <ele>426</ele>
        <time>2015-06-24T17:11:53.000Z</time>
      </trkpt>
      <trkpt lat="47.45953" lon="6.71747">
        <ele>424</ele>
        <time>2015-06-24T17:11:54.000Z</time>
      </trkpt>
      <trkpt lat="47.45953" lon="6.71743">
        <ele>424</ele>
        <time>2015-06-24T17:11:55.000Z</time>
      </trkpt>
      <trkpt lat="47.45952" lon="6.71739">
        <ele>424</ele>
        <time>2015-06-24T17:11:56.000Z</time>
      </trkpt>
      <trkpt lat="47.45951" lon="6.71736">
        <ele>424</ele>
        <time>2015-06-24T17:11:57.000Z</time>
      </trkpt>
      <trkpt lat="47.45951" lon="6.7173">
        <ele>424</ele>
        <time>2015-06-24T17:11:59.000Z</time>
      </trkpt>
      <trkpt lat="47.45951" lon="6.71727">
        <ele>424</ele>
        <time>2015-06-24T17:12:00.000Z</time>
      </trkpt>
      <trkpt lat="47.45951" lon="6.71721">
        <ele>423</ele>
        <time>2015-06-24T17:12:02.000Z</time>
      </trkpt>
      <trkpt lat="47.45951" lon="6.71717">
        <ele>423</ele>
        <time>2015-06-24T17:12:03.000Z</time>
      </trkpt>
      <trkpt lat="47.45951" lon="6.71713">
        <ele>423</ele>
        <time>2015-06-24T17:12:04.000Z</time>
      </trkpt>
      <trkpt lat="47.45949" lon="6.71693">
        <ele>423</ele>
        <time>2015-06-24T17:12:05.000Z</time>
      </trkpt>
      <trkpt lat="47.45949" lon="6.71681">
        <ele>423</ele>
        <time>2015-06-24T17:12:06.000Z</time>
      </trkpt>
      <trkpt lat="47.45947" lon="6.71669">
        <ele>423</ele>
        <time>2015-06-24T17:12:07.000Z</time>
      </trkpt>
      <trkpt lat="47.45944" lon="6.71657">
        <ele>419</ele>
        <time>2015-06-24T17:12:08.000Z</time>
      </trkpt>
      <trkpt lat="47.45945" lon="6.71643">
        <ele>418</ele>
        <time>2015-06-24T17:12:09.000Z</time>
      </trkpt>
      <trkpt lat="47.4594" lon="6.71633">
        <ele>418</ele>
        <time>2015-06-24T17:12:10.000Z</time>
      </trkpt>
      <trkpt lat="47.45938" lon="6.71624">
        <ele>417</ele>
        <time>2015-06-24T17:12:11.000Z</time>
      </trkpt>
      <trkpt lat="47.45936" lon="6.71614">
        <ele>416</ele>
        <time>2015-06-24T17:12:12.000Z</time>
      </trkpt>
      <trkpt lat="47.45936" lon="6.71601">
        <ele>416</ele>
        <time>2015-06-24T17:12:13.000Z</time>
      </trkpt>
      <trkpt lat="47.45937" lon="6.71597">
        <ele>416</ele>
        <time>2015-06-24T17:12:14.000Z</time>
      </trkpt>
      <trkpt lat="47.45936" lon="6.71592">
        <ele>416</ele>
        <time>2015-06-24T17:12:15.000Z</time>
      </trkpt>
      <trkpt lat="47.45934" lon="6.71588">
        <ele>416</ele>
        <time>2015-06-24T17:12:16.000Z</time>
      </trkpt>
      <trkpt lat="47.45931" lon="6.71584">
        <ele>416</ele>
        <time>2015-06-24T17:12:17.000Z</time>
      </trkpt>
      <trkpt lat="47.45928" lon="6.71581">
        <ele>414</ele>
        <time>2015-06-24T17:12:18.000Z</time>
      </trkpt>
      <trkpt lat="47.45923" lon="6.71582">
        <ele>415</ele>
        <time>2015-06-24T17:12:19.000Z</time>
      </trkpt>
      <trkpt lat="47.45919" lon="6.71583">
        <ele>416</ele>
        <time>2015-06-24T17:12:20.000Z</time>
      </trkpt>
      <trkpt lat="47.45915" lon="6.71583">
        <ele>416</ele>
        <time>2015-06-24T17:12:21.000Z</time>
      </trkpt>
      <trkpt lat="47.45912" lon="6.71583">
        <ele>416</ele>
        <time>2015-06-24T17:12:22.000Z</time>
      </trkpt>
      <trkpt lat="47.45909" lon="6.71583">
        <ele>416</ele>
        <time>2015-06-24T17:12:23.000Z</time>
      </trkpt>
      <trkpt lat="47.45906" lon="6.71584">
        <ele>418</ele>
        <time>2015-06-24T17:12:24.000Z</time>
      </trkpt>
      <trkpt lat="47.45903" lon="6.71584">
        <ele>419</ele>
        <time>2015-06-24T17:12:25.000Z</time>
      </trkpt>
      <trkpt lat="47.459" lon="6.71585">
        <ele>419</ele>
        <time>2015-06-24T17:12:26.000Z</time>
      </trkpt>
      <trkpt lat="47.45897" lon="6.71586">
        <ele>420</ele>
        <time>2015-06-24T17:12:27.000Z</time>
      </trkpt>
      <trkpt lat="47.45893" lon="6.71587">
        <ele>420</ele>
        <time>2015-06-24T17:12:28.000Z</time>
      </trkpt>
      <trkpt lat="47.4589" lon="6.71588">
        <ele>420</ele>
        <time>2015-06-24T17:12:29.000Z</time>
      </trkpt>
      <trkpt lat="47.45887" lon="6.71589">
        <ele>421</ele>
        <time>2015-06-24T17:12:30.000Z</time>
      </trkpt>
      <trkpt lat="47.45883" lon="6.71589">
        <ele>421</ele>
        <time>2015-06-24T17:12:31.000Z</time>
      </trkpt>
      <trkpt lat="47.4588" lon="6.7159">
        <ele>421</ele>
        <time>2015-06-24T17:12:32.000Z</time>
      </trkpt>
      <trkpt lat="47.45878" lon="6.7159">
        <ele>421</ele>
        <time>2015-06-24T17:12:33.000Z</time>
      </trkpt>
      <trkpt lat="47.45875" lon="6.71589">
        <ele>421</ele>
        <time>2015-06-24T17:12:34.000Z</time>
      </trkpt>
      <trkpt lat="47.45871" lon="6.71588">
        <ele>421</ele>
        <time>2015-06-24T17:12:36.000Z</time>
      </trkpt>
      <trkpt lat="47.45869" lon="6.71587">
        <ele>421</ele>
        <time>2015-06-24T17:12:37.000Z</time>
      </trkpt>
      <trkpt lat="47.45866" lon="6.71587">
        <ele>421</ele>
        <time>2015-06-24T17:12:38.000Z</time>
      </trkpt>
      <trkpt lat="47.45863" lon="6.71588">
        <ele>421</ele>
        <time>2015-06-24T17:12:39.000Z</time>
      </trkpt>
      <trkpt lat="47.45859" lon="6.71588">
        <ele>421</ele>
        <time>2015-06-24T17:12:40.000Z</time>
      </trkpt>
      <trkpt lat="47.45856" lon="6.71589">
        <ele>421</ele>
        <time>2015-06-24T17:12:41.000Z</time>
      </trkpt>
      <trkpt lat="47.45853" lon="6.7159">
        <ele>421</ele>
        <time>2015-06-24T17:12:42.000Z</time>
      </trkpt>
      <trkpt lat="47.4585" lon="6.71591">
        <ele>421</ele>
        <time>2015-06-24T17:12:43.000Z</time>
      </trkpt>
      <trkpt lat="47.45846" lon="6.71591">
        <ele>421</ele>
        <time>2015-06-24T17:12:44.000Z</time>
      </trkpt>
      <trkpt lat="47.45844" lon="6.71592">
        <ele>421</ele>
        <time>2015-06-24T17:12:45.000Z</time>
      </trkpt>
      <trkpt lat="47.45841" lon="6.71593">
        <ele>421</ele>
        <time>2015-06-24T17:12:46.000Z</time>
      </trkpt>
      <trkpt lat="47.45838" lon="6.71595">
        <ele>421</ele>
        <time>2015-06-24T17:12:47.000Z</time>
      </trkpt>
      <trkpt lat="47.45834" lon="6.71596">
        <ele>421</ele>
        <time>2015-06-24T17:12:48.000Z</time>
      </trkpt>
      <trkpt lat="47.45832" lon="6.71598">
        <ele>421</ele>
        <time>2015-06-24T17:12:49.000Z</time>
      </trkpt>
      <trkpt lat="47.45829" lon="6.71599">
        <ele>421</ele>
        <time>2015-06-24T17:12:50.000Z</time>
      </trkpt>
      <trkpt lat="47.45826" lon="6.71601">
        <ele>421</ele>
        <time>2015-06-24T17:12:51.000Z</time>
      </trkpt>
      <trkpt lat="47.45823" lon="6.71602">
        <ele>422</ele>
        <time>2015-06-24T17:12:52.000Z</time>
      </trkpt>
      <trkpt lat="47.45821" lon="6.71602">
        <ele>422</ele>
        <time>2015-06-24T17:12:53.000Z</time>
      </trkpt>
      <trkpt lat="47.45817" lon="6.71603">
        <ele>422</ele>
        <time>2015-06-24T17:12:55.000Z</time>
      </trkpt>
      <trkpt lat="47.45815" lon="6.71603">
        <ele>422</ele>
        <time>2015-06-24T17:12:56.000Z</time>
      </trkpt>
      <trkpt lat="47.45811" lon="6.71605">
        <ele>422</ele>
        <time>2015-06-24T17:12:58.000Z</time>
      </trkpt>
      <trkpt lat="47.45808" lon="6.71606">
        <ele>422</ele>
        <time>2015-06-24T17:12:59.000Z</time>
      </trkpt>
      <trkpt lat="47.45805" lon="6.71608">
        <ele>422</ele>
        <time>2015-06-24T17:13:00.000Z</time>
      </trkpt>
      <trkpt lat="47.45803" lon="6.71609">
        <ele>422</ele>
        <time>2015-06-24T17:13:01.000Z</time>
      </trkpt>
      <trkpt lat="47.458" lon="6.71611">
        <ele>422</ele>
        <time>2015-06-24T17:13:02.000Z</time>
      </trkpt>
      <trkpt lat="47.45797" lon="6.71612">
        <ele>422</ele>
        <time>2015-06-24T17:13:03.000Z</time>
      </trkpt>
      <trkpt lat="47.45794" lon="6.71614">
        <ele>422</ele>
        <time>2015-06-24T17:13:04.000Z</time>
      </trkpt>
      <trkpt lat="47.4579" lon="6.71616">
        <ele>422</ele>
        <time>2015-06-24T17:13:05.000Z</time>
      </trkpt>
      <trkpt lat="47.45787" lon="6.71618">
        <ele>423</ele>
        <time>2015-06-24T17:13:06.000Z</time>
      </trkpt>
      <trkpt lat="47.45783" lon="6.71621">
        <ele>423</ele>
        <time>2015-06-24T17:13:07.000Z</time>
      </trkpt>
      <trkpt lat="47.45779" lon="6.71623">
        <ele>423</ele>
        <time>2015-06-24T17:13:08.000Z</time>
      </trkpt>
      <trkpt lat="47.45776" lon="6.71626">
        <ele>423</ele>
        <time>2015-06-24T17:13:09.000Z</time>
      </trkpt>
      <trkpt lat="47.45773" lon="6.71628">
        <ele>423</ele>
        <time>2015-06-24T17:13:10.000Z</time>
      </trkpt>
      <trkpt lat="47.45769" lon="6.7163">
        <ele>423</ele>
        <time>2015-06-24T17:13:11.000Z</time>
      </trkpt>
      <trkpt lat="47.45766" lon="6.71633">
        <ele>423</ele>
        <time>2015-06-24T17:13:12.000Z</time>
      </trkpt>
      <trkpt lat="47.45763" lon="6.71635">
        <ele>423</ele>
        <time>2015-06-24T17:13:13.000Z</time>
      </trkpt>
      <trkpt lat="47.45759" lon="6.71637">
        <ele>423</ele>
        <time>2015-06-24T17:13:14.000Z</time>
      </trkpt>
      <trkpt lat="47.45756" lon="6.71639">
        <ele>423</ele>
        <time>2015-06-24T17:13:15.000Z</time>
      </trkpt>
      <trkpt lat="47.45753" lon="6.7164">
        <ele>423</ele>
        <time>2015-06-24T17:13:16.000Z</time>
      </trkpt>
      <trkpt lat="47.4575" lon="6.71642">
        <ele>423</ele>
        <time>2015-06-24T17:13:17.000Z</time>
      </trkpt>
      <trkpt lat="47.45747" lon="6.71644">
        <ele>423</ele>
        <time>2015-06-24T17:13:18.000Z</time>
      </trkpt>
      <trkpt lat="47.45744" lon="6.71645">
        <ele>423</ele>
        <time>2015-06-24T17:13:19.000Z</time>
      </trkpt>
      <trkpt lat="47.45741" lon="6.71648">
        <ele>423</ele>
        <time>2015-06-24T17:13:20.000Z</time>
      </trkpt>
      <trkpt lat="47.45738" lon="6.7165">
        <ele>423</ele>
        <time>2015-06-24T17:13:21.000Z</time>
      </trkpt>
      <trkpt lat="47.45735" lon="6.71652">
        <ele>423</ele>
        <time>2015-06-24T17:13:22.000Z</time>
      </trkpt>
      <trkpt lat="47.45731" lon="6.71654">
        <ele>423</ele>
        <time>2015-06-24T17:13:23.000Z</time>
      </trkpt>
      <trkpt lat="47.45728" lon="6.71657">
        <ele>423</ele>
        <time>2015-06-24T17:13:24.000Z</time>
      </trkpt>
      <trkpt lat="47.45724" lon="6.71659">
        <ele>423</ele>
        <time>2015-06-24T17:13:25.000Z</time>
      </trkpt>
      <trkpt lat="47.45721" lon="6.71661">
        <ele>423</ele>
        <time>2015-06-24T17:13:26.000Z</time>
      </trkpt>
      <trkpt lat="47.45718" lon="6.71663">
        <ele>423</ele>
        <time>2015-06-24T17:13:27.000Z</time>
      </trkpt>
      <trkpt lat="47.45715" lon="6.71664">
        <ele>423</ele>
        <time>2015-06-24T17:13:28.000Z</time>
      </trkpt>
      <trkpt lat="47.45712" lon="6.71666">
        <ele>423</ele>
        <time>2015-06-24T17:13:29.000Z</time>
      </trkpt>
      <trkpt lat="47.45709" lon="6.71667">
        <ele>426</ele>
        <time>2015-06-24T17:13:30.000Z</time>
      </trkpt>
      <trkpt lat="47.45706" lon="6.71669">
        <ele>426</ele>
        <time>2015-06-24T17:13:31.000Z</time>
      </trkpt>
      <trkpt lat="47.45702" lon="6.7167">
        <ele>426</ele>
        <time>2015-06-24T17:13:32.000Z</time>
      </trkpt>
      <trkpt lat="47.45698" lon="6.71671">
        <ele>426</ele>
        <time>2015-06-24T17:13:33.000Z</time>
      </trkpt>
      <trkpt lat="47.45694" lon="6.71672">
        <ele>426</ele>
        <time>2015-06-24T17:13:34.000Z</time>
      </trkpt>
      <trkpt lat="47.4569" lon="6.71673">
        <ele>426</ele>
        <time>2015-06-24T17:13:35.000Z</time>
      </trkpt>
      <trkpt lat="47.45686" lon="6.71675">
        <ele>425</ele>
        <time>2015-06-24T17:13:36.000Z</time>
      </trkpt>
      <trkpt lat="47.45682" lon="6.71677">
        <ele>425</ele>
        <time>2015-06-24T17:13:37.000Z</time>
      </trkpt>
      <trkpt lat="47.45678" lon="6.7168">
        <ele>425</ele>
        <time>2015-06-24T17:13:38.000Z</time>
      </trkpt>
      <trkpt lat="47.45674" lon="6.71682">
        <ele>425</ele>
        <time>2015-06-24T17:13:39.000Z</time>
      </trkpt>
      <trkpt lat="47.45671" lon="6.71684">
        <ele>425</ele>
        <time>2015-06-24T17:13:40.000Z</time>
      </trkpt>
      <trkpt lat="47.45668" lon="6.71687">
        <ele>425</ele>
        <time>2015-06-24T17:13:41.000Z</time>
      </trkpt>
      <trkpt lat="47.45665" lon="6.71689">
        <ele>425</ele>
        <time>2015-06-24T17:13:42.000Z</time>
      </trkpt>
      <trkpt lat="47.45662" lon="6.71691">
        <ele>425</ele>
        <time>2015-06-24T17:13:43.000Z</time>
      </trkpt>
      <trkpt lat="47.45659" lon="6.71694">
        <ele>425</ele>
        <time>2015-06-24T17:13:44.000Z</time>
      </trkpt>
      <trkpt lat="47.45655" lon="6.71696">
        <ele>425</ele>
        <time>2015-06-24T17:13:45.000Z</time>
      </trkpt>
      <trkpt lat="47.45651" lon="6.71699">
        <ele>425</ele>
        <time>2015-06-24T17:13:46.000Z</time>
      </trkpt>
      <trkpt lat="47.4564" lon="6.71706">
        <ele>425</ele>
        <time>2015-06-24T17:13:47.000Z</time>
      </trkpt>
      <trkpt lat="47.45635" lon="6.7171">
        <ele>426</ele>
        <time>2015-06-24T17:13:48.000Z</time>
      </trkpt>
      <trkpt lat="47.4563" lon="6.71712">
        <ele>426</ele>
        <time>2015-06-24T17:13:49.000Z</time>
      </trkpt>
      <trkpt lat="47.45626" lon="6.71715">
        <ele>426</ele>
        <time>2015-06-24T17:13:50.000Z</time>
      </trkpt>
      <trkpt lat="47.45622" lon="6.71717">
        <ele>426</ele>
        <time>2015-06-24T17:13:51.000Z</time>
      </trkpt>
      <trkpt lat="47.45617" lon="6.71722">
        <ele>426</ele>
        <time>2015-06-24T17:13:52.000Z</time>
      </trkpt>
      <trkpt lat="47.45614" lon="6.71728">
        <ele>426</ele>
        <time>2015-06-24T17:13:53.000Z</time>
      </trkpt>
      <trkpt lat="47.45611" lon="6.71732">
        <ele>425</ele>
        <time>2015-06-24T17:13:54.000Z</time>
      </trkpt>
      <trkpt lat="47.45606" lon="6.71736">
        <ele>425</ele>
        <time>2015-06-24T17:13:55.000Z</time>
      </trkpt>
      <trkpt lat="47.45602" lon="6.71741">
        <ele>425</ele>
        <time>2015-06-24T17:13:56.000Z</time>
      </trkpt>
      <trkpt lat="47.45595" lon="6.71746">
        <ele>425</ele>
        <time>2015-06-24T17:13:57.000Z</time>
      </trkpt>
      <trkpt lat="47.45589" lon="6.71749">
        <ele>425</ele>
        <time>2015-06-24T17:13:58.000Z</time>
      </trkpt>
      <trkpt lat="47.45584" lon="6.71751">
        <ele>425</ele>
        <time>2015-06-24T17:13:59.000Z</time>
      </trkpt>
      <trkpt lat="47.4558" lon="6.71756">
        <ele>426</ele>
        <time>2015-06-24T17:14:00.000Z</time>
      </trkpt>
      <trkpt lat="47.45576" lon="6.71758">
        <ele>426</ele>
        <time>2015-06-24T17:14:01.000Z</time>
      </trkpt>
      <trkpt lat="47.45572" lon="6.71762">
        <ele>426</ele>
        <time>2015-06-24T17:14:02.000Z</time>
      </trkpt>
      <trkpt lat="47.45566" lon="6.71769">
        <ele>427</ele>
        <time>2015-06-24T17:14:03.000Z</time>
      </trkpt>
      <trkpt lat="47.4556" lon="6.7177">
        <ele>427</ele>
        <time>2015-06-24T17:14:04.000Z</time>
      </trkpt>
      <trkpt lat="47.45555" lon="6.7177">
        <ele>427</ele>
        <time>2015-06-24T17:14:05.000Z</time>
      </trkpt>
      <trkpt lat="47.45551" lon="6.71772">
        <ele>427</ele>
        <time>2015-06-24T17:14:06.000Z</time>
      </trkpt>
      <trkpt lat="47.45547" lon="6.71773">
        <ele>427</ele>
        <time>2015-06-24T17:14:07.000Z</time>
      </trkpt>
      <trkpt lat="47.45543" lon="6.71775">
        <ele>427</ele>
        <time>2015-06-24T17:14:08.000Z</time>
      </trkpt>
      <trkpt lat="47.45538" lon="6.71776">
        <ele>427</ele>
        <time>2015-06-24T17:14:09.000Z</time>
      </trkpt>
      <trkpt lat="47.45539" lon="6.71768">
        <ele>427</ele>
        <time>2015-06-24T17:14:10.000Z</time>
      </trkpt>
      <trkpt lat="47.45534" lon="6.71778">
        <ele>427</ele>
        <time>2015-06-24T17:14:11.000Z</time>
      </trkpt>
      <trkpt lat="47.45531" lon="6.71779">
        <ele>427</ele>
        <time>2015-06-24T17:14:12.000Z</time>
      </trkpt>
      <trkpt lat="47.45527" lon="6.7178">
        <ele>428</ele>
        <time>2015-06-24T17:14:13.000Z</time>
      </trkpt>
      <trkpt lat="47.45524" lon="6.7178">
        <ele>428</ele>
        <time>2015-06-24T17:14:14.000Z</time>
      </trkpt>
      <trkpt lat="47.45521" lon="6.7178">
        <ele>428</ele>
        <time>2015-06-24T17:14:15.000Z</time>
      </trkpt>
      <trkpt lat="47.45518" lon="6.7178">
        <ele>428</ele>
        <time>2015-06-24T17:14:16.000Z</time>
      </trkpt>
      <trkpt lat="47.45516" lon="6.71779">
        <ele>428</ele>
        <time>2015-06-24T17:14:17.000Z</time>
      </trkpt>
      <trkpt lat="47.45511" lon="6.71777">
        <ele>428</ele>
        <time>2015-06-24T17:14:19.000Z</time>
      </trkpt>
      <trkpt lat="47.45509" lon="6.71777">
        <ele>428</ele>
        <time>2015-06-24T17:14:20.000Z</time>
      </trkpt>
      <trkpt lat="47.45506" lon="6.71777">
        <ele>428</ele>
        <time>2015-06-24T17:14:21.000Z</time>
      </trkpt>
      <trkpt lat="47.45503" lon="6.71778">
        <ele>428</ele>
        <time>2015-06-24T17:14:22.000Z</time>
      </trkpt>
      <trkpt lat="47.45501" lon="6.71778">
        <ele>428</ele>
        <time>2015-06-24T17:14:23.000Z</time>
      </trkpt>
      <trkpt lat="47.45498" lon="6.71778">
        <ele>429</ele>
        <time>2015-06-24T17:14:24.000Z</time>
      </trkpt>
      <trkpt lat="47.45495" lon="6.71778">
        <ele>429</ele>
        <time>2015-06-24T17:14:25.000Z</time>
      </trkpt>
      <trkpt lat="47.45492" lon="6.71778">
        <ele>429</ele>
        <time>2015-06-24T17:14:26.000Z</time>
      </trkpt>
      <trkpt lat="47.45489" lon="6.71778">
        <ele>429</ele>
        <time>2015-06-24T17:14:27.000Z</time>
      </trkpt>
      <trkpt lat="47.45486" lon="6.71779">
        <ele>429</ele>
        <time>2015-06-24T17:14:28.000Z</time>
      </trkpt>
      <trkpt lat="47.45484" lon="6.7178">
        <ele>429</ele>
        <time>2015-06-24T17:14:29.000Z</time>
      </trkpt>
      <trkpt lat="47.45481" lon="6.71781">
        <ele>429</ele>
        <time>2015-06-24T17:14:30.000Z</time>
      </trkpt>
      <trkpt lat="47.45478" lon="6.71781">
        <ele>430</ele>
        <time>2015-06-24T17:14:31.000Z</time>
      </trkpt>
      <trkpt lat="47.45475" lon="6.71782">
        <ele>430</ele>
        <time>2015-06-24T17:14:32.000Z</time>
      </trkpt>
      <trkpt lat="47.45472" lon="6.71782">
        <ele>430</ele>
        <time>2015-06-24T17:14:33.000Z</time>
      </trkpt>
      <trkpt lat="47.45469" lon="6.71782">
        <ele>430</ele>
        <time>2015-06-24T17:14:34.000Z</time>
      </trkpt>
      <trkpt lat="47.45465" lon="6.71782">
        <ele>430</ele>
        <time>2015-06-24T17:14:35.000Z</time>
      </trkpt>
      <trkpt lat="47.45461" lon="6.71784">
        <ele>430</ele>
        <time>2015-06-24T17:14:36.000Z</time>
      </trkpt>
      <trkpt lat="47.45458" lon="6.71785">
        <ele>430</ele>
        <time>2015-06-24T17:14:37.000Z</time>
      </trkpt>
      <trkpt lat="47.45454" lon="6.71787">
        <ele>430</ele>
        <time>2015-06-24T17:14:38.000Z</time>
      </trkpt>
      <trkpt lat="47.4545" lon="6.71789">
        <ele>430</ele>
        <time>2015-06-24T17:14:39.000Z</time>
      </trkpt>
      <trkpt lat="47.45446" lon="6.71791">
        <ele>430</ele>
        <time>2015-06-24T17:14:40.000Z</time>
      </trkpt>
      <trkpt lat="47.45442" lon="6.71793">
        <ele>430</ele>
        <time>2015-06-24T17:14:41.000Z</time>
      </trkpt>
      <trkpt lat="47.45438" lon="6.71795">
        <ele>430</ele>
        <time>2015-06-24T17:14:42.000Z</time>
      </trkpt>
      <trkpt lat="47.45435" lon="6.71797">
        <ele>430</ele>
        <time>2015-06-24T17:14:43.000Z</time>
      </trkpt>
      <trkpt lat="47.45431" lon="6.71799">
        <ele>430</ele>
        <time>2015-06-24T17:14:44.000Z</time>
      </trkpt>
      <trkpt lat="47.45427" lon="6.718">
        <ele>430</ele>
        <time>2015-06-24T17:14:45.000Z</time>
      </trkpt>
      <trkpt lat="47.45424" lon="6.71801">
        <ele>430</ele>
        <time>2015-06-24T17:14:46.000Z</time>
      </trkpt>
      <trkpt lat="47.45421" lon="6.71802">
        <ele>430</ele>
        <time>2015-06-24T17:14:47.000Z</time>
      </trkpt>
      <trkpt lat="47.45417" lon="6.71801">
        <ele>430</ele>
        <time>2015-06-24T17:14:48.000Z</time>
      </trkpt>
      <trkpt lat="47.45414" lon="6.718">
        <ele>436</ele>
        <time>2015-06-24T17:14:49.000Z</time>
      </trkpt>
      <trkpt lat="47.45412" lon="6.71799">
        <ele>436</ele>
        <time>2015-06-24T17:14:50.000Z</time>
      </trkpt>
      <trkpt lat="47.45409" lon="6.71798">
        <ele>436</ele>
        <time>2015-06-24T17:14:51.000Z</time>
      </trkpt>
      <trkpt lat="47.45407" lon="6.71796">
        <ele>437</ele>
        <time>2015-06-24T17:14:52.000Z</time>
      </trkpt>
      <trkpt lat="47.45404" lon="6.71792">
        <ele>437</ele>
        <time>2015-06-24T17:14:54.000Z</time>
      </trkpt>
      <trkpt lat="47.45402" lon="6.71789">
        <ele>437</ele>
        <time>2015-06-24T17:14:55.000Z</time>
      </trkpt>
      <trkpt lat="47.454" lon="6.71786">
        <ele>437</ele>
        <time>2015-06-24T17:14:56.000Z</time>
      </trkpt>
      <trkpt lat="47.45399" lon="6.71784">
        <ele>437</ele>
        <time>2015-06-24T17:14:57.000Z</time>
      </trkpt>
      <trkpt lat="47.45398" lon="6.71778">
        <ele>437</ele>
        <time>2015-06-24T17:14:59.000Z</time>
      </trkpt>
      <trkpt lat="47.45397" lon="6.71775">
        <ele>437</ele>
        <time>2015-06-24T17:15:00.000Z</time>
      </trkpt>
      <trkpt lat="47.45394" lon="6.7177">
        <ele>437</ele>
        <time>2015-06-24T17:15:02.000Z</time>
      </trkpt>
      <trkpt lat="47.45394" lon="6.71768">
        <ele>437</ele>
        <time>2015-06-24T17:15:03.000Z</time>
      </trkpt>
      <trkpt lat="47.45394" lon="6.71762">
        <ele>437</ele>
        <time>2015-06-24T17:15:06.000Z</time>
      </trkpt>
      <trkpt lat="47.45394" lon="6.7176">
        <ele>437</ele>
        <time>2015-06-24T17:15:07.000Z</time>
      </trkpt>
      <trkpt lat="47.45394" lon="6.71756">
        <ele>437</ele>
        <time>2015-06-24T17:15:09.000Z</time>
      </trkpt>
      <trkpt lat="47.45394" lon="6.71754">
        <ele>437</ele>
        <time>2015-06-24T17:15:10.000Z</time>
      </trkpt>
      <trkpt lat="47.45393" lon="6.71748">
        <ele>437</ele>
        <time>2015-06-24T17:15:12.000Z</time>
      </trkpt>
      <trkpt lat="47.45393" lon="6.71746">
        <ele>437</ele>
        <time>2015-06-24T17:15:13.000Z</time>
      </trkpt>
      <trkpt lat="47.45393" lon="6.7174">
        <ele>437</ele>
        <time>2015-06-24T17:15:16.000Z</time>
      </trkpt>
      <trkpt lat="47.45392" lon="6.71738">
        <ele>437</ele>
        <time>2015-06-24T17:15:17.000Z</time>
      </trkpt>
      <trkpt lat="47.45391" lon="6.71734">
        <ele>438</ele>
        <time>2015-06-24T17:15:19.000Z</time>
      </trkpt>
      <trkpt lat="47.4539" lon="6.71731">
        <ele>438</ele>
        <time>2015-06-24T17:15:20.000Z</time>
      </trkpt>
      <trkpt lat="47.4539" lon="6.71727">
        <ele>438</ele>
        <time>2015-06-24T17:15:22.000Z</time>
      </trkpt>
      <trkpt lat="47.4539" lon="6.71724">
        <ele>438</ele>
        <time>2015-06-24T17:15:23.000Z</time>
      </trkpt>
      <trkpt lat="47.45388" lon="6.71718">
        <ele>439</ele>
        <time>2015-06-24T17:15:25.000Z</time>
      </trkpt>
      <trkpt lat="47.45388" lon="6.71716">
        <ele>439</ele>
        <time>2015-06-24T17:15:26.000Z</time>
      </trkpt>
      <trkpt lat="47.45386" lon="6.7171">
        <ele>439</ele>
        <time>2015-06-24T17:15:28.000Z</time>
      </trkpt>
      <trkpt lat="47.45385" lon="6.71708">
        <ele>439</ele>
        <time>2015-06-24T17:15:29.000Z</time>
      </trkpt>
      <trkpt lat="47.45383" lon="6.71703">
        <ele>439</ele>
        <time>2015-06-24T17:15:31.000Z</time>
      </trkpt>
      <trkpt lat="47.45383" lon="6.717">
        <ele>439</ele>
        <time>2015-06-24T17:15:32.000Z</time>
      </trkpt>
      <trkpt lat="47.45382" lon="6.71694">
        <ele>439</ele>
        <time>2015-06-24T17:15:34.000Z</time>
      </trkpt>
      <trkpt lat="47.45381" lon="6.71691">
        <ele>439</ele>
        <time>2015-06-24T17:15:35.000Z</time>
      </trkpt>
      <trkpt lat="47.45379" lon="6.71685">
        <ele>439</ele>
        <time>2015-06-24T17:15:37.000Z</time>
      </trkpt>
      <trkpt lat="47.45378" lon="6.71682">
        <ele>440</ele>
        <time>2015-06-24T17:15:38.000Z</time>
      </trkpt>
      <trkpt lat="47.45376" lon="6.71677">
        <ele>440</ele>
        <time>2015-06-24T17:15:40.000Z</time>
      </trkpt>
      <trkpt lat="47.45376" lon="6.71673">
        <ele>440</ele>
        <time>2015-06-24T17:15:41.000Z</time>
      </trkpt>
      <trkpt lat="47.45375" lon="6.71669">
        <ele>440</ele>
        <time>2015-06-24T17:15:42.000Z</time>
      </trkpt>
      <trkpt lat="47.45374" lon="6.71666">
        <ele>441</ele>
        <time>2015-06-24T17:15:43.000Z</time>
      </trkpt>
      <trkpt lat="47.45372" lon="6.7166">
        <ele>441</ele>
        <time>2015-06-24T17:15:46.000Z</time>
      </trkpt>
      <trkpt lat="47.45372" lon="6.71657">
        <ele>441</ele>
        <time>2015-06-24T17:15:47.000Z</time>
      </trkpt>
      <trkpt lat="47.45371" lon="6.71654">
        <ele>441</ele>
        <time>2015-06-24T17:15:48.000Z</time>
      </trkpt>
      <trkpt lat="47.4537" lon="6.71651">
        <ele>441</ele>
        <time>2015-06-24T17:15:49.000Z</time>
      </trkpt>
      <trkpt lat="47.45369" lon="6.71647">
        <ele>441</ele>
        <time>2015-06-24T17:15:50.000Z</time>
      </trkpt>
      <trkpt lat="47.45368" lon="6.71644">
        <ele>442</ele>
        <time>2015-06-24T17:15:51.000Z</time>
      </trkpt>
      <trkpt lat="47.45365" lon="6.71639">
        <ele>442</ele>
        <time>2015-06-24T17:15:53.000Z</time>
      </trkpt>
      <trkpt lat="47.45364" lon="6.71636">
        <ele>442</ele>
        <time>2015-06-24T17:15:54.000Z</time>
      </trkpt>
      <trkpt lat="47.45362" lon="6.71632">
        <ele>442</ele>
        <time>2015-06-24T17:15:56.000Z</time>
      </trkpt>
      <trkpt lat="47.45361" lon="6.71629">
        <ele>442</ele>
        <time>2015-06-24T17:15:57.000Z</time>
      </trkpt>
      <trkpt lat="47.4536" lon="6.71626">
        <ele>442</ele>
        <time>2015-06-24T17:15:58.000Z</time>
      </trkpt>
      <trkpt lat="47.45359" lon="6.71622">
        <ele>442</ele>
        <time>2015-06-24T17:15:59.000Z</time>
      </trkpt>
      <trkpt lat="47.45357" lon="6.71619">
        <ele>443</ele>
        <time>2015-06-24T17:16:00.000Z</time>
      </trkpt>
      <trkpt lat="47.45356" lon="6.71616">
        <ele>443</ele>
        <time>2015-06-24T17:16:01.000Z</time>
      </trkpt>
      <trkpt lat="47.45354" lon="6.7161">
        <ele>443</ele>
        <time>2015-06-24T17:16:03.000Z</time>
      </trkpt>
      <trkpt lat="47.45353" lon="6.71608">
        <ele>443</ele>
        <time>2015-06-24T17:16:04.000Z</time>
      </trkpt>
      <trkpt lat="47.45351" lon="6.71604">
        <ele>444</ele>
        <time>2015-06-24T17:16:07.000Z</time>
      </trkpt>
      <trkpt lat="47.45349" lon="6.71602">
        <ele>444</ele>
        <time>2015-06-24T17:16:08.000Z</time>
      </trkpt>
      <trkpt lat="47.45347" lon="6.71599">
        <ele>444</ele>
        <time>2015-06-24T17:16:10.000Z</time>
      </trkpt>
      <trkpt lat="47.45346" lon="6.71598">
        <ele>444</ele>
        <time>2015-06-24T17:16:11.000Z</time>
      </trkpt>
      <trkpt lat="47.45344" lon="6.71595">
        <ele>445</ele>
        <time>2015-06-24T17:16:13.000Z</time>
      </trkpt>
      <trkpt lat="47.45342" lon="6.71594">
        <ele>445</ele>
        <time>2015-06-24T17:16:14.000Z</time>
      </trkpt>
      <trkpt lat="47.45339" lon="6.7159">
        <ele>446</ele>
        <time>2015-06-24T17:16:16.000Z</time>
      </trkpt>
      <trkpt lat="47.45338" lon="6.71588">
        <ele>446</ele>
        <time>2015-06-24T17:16:17.000Z</time>
      </trkpt>
      <trkpt lat="47.45336" lon="6.71583">
        <ele>447</ele>
        <time>2015-06-24T17:16:19.000Z</time>
      </trkpt>
      <trkpt lat="47.45335" lon="6.71579">
        <ele>447</ele>
        <time>2015-06-24T17:16:20.000Z</time>
      </trkpt>
      <trkpt lat="47.45334" lon="6.71575">
        <ele>446</ele>
        <time>2015-06-24T17:16:21.000Z</time>
      </trkpt>
      <trkpt lat="47.45334" lon="6.71571">
        <ele>445</ele>
        <time>2015-06-24T17:16:22.000Z</time>
      </trkpt>
      <trkpt lat="47.45333" lon="6.71566">
        <ele>450</ele>
        <time>2015-06-24T17:16:23.000Z</time>
      </trkpt>
      <trkpt lat="47.45333" lon="6.71561">
        <ele>451</ele>
        <time>2015-06-24T17:16:24.000Z</time>
      </trkpt>
      <trkpt lat="47.45332" lon="6.71555">
        <ele>451</ele>
        <time>2015-06-24T17:16:25.000Z</time>
      </trkpt>
      <trkpt lat="47.45332" lon="6.7155">
        <ele>451</ele>
        <time>2015-06-24T17:16:26.000Z</time>
      </trkpt>
      <trkpt lat="47.45331" lon="6.71544">
        <ele>450</ele>
        <time>2015-06-24T17:16:27.000Z</time>
      </trkpt>
      <trkpt lat="47.4533" lon="6.71538">
        <ele>450</ele>
        <time>2015-06-24T17:16:28.000Z</time>
      </trkpt>
      <trkpt lat="47.4533" lon="6.71532">
        <ele>450</ele>
        <time>2015-06-24T17:16:29.000Z</time>
      </trkpt>
      <trkpt lat="47.45329" lon="6.71526">
        <ele>449</ele>
        <time>2015-06-24T17:16:30.000Z</time>
      </trkpt>
      <trkpt lat="47.45328" lon="6.7152">
        <ele>448</ele>
        <time>2015-06-24T17:16:31.000Z</time>
      </trkpt>
      <trkpt lat="47.45327" lon="6.71514">
        <ele>447</ele>
        <time>2015-06-24T17:16:32.000Z</time>
      </trkpt>
      <trkpt lat="47.45326" lon="6.71508">
        <ele>446</ele>
        <time>2015-06-24T17:16:33.000Z</time>
      </trkpt>
      <trkpt lat="47.45325" lon="6.71502">
        <ele>445</ele>
        <time>2015-06-24T17:16:34.000Z</time>
      </trkpt>
      <trkpt lat="47.45323" lon="6.71495">
        <ele>443</ele>
        <time>2015-06-24T17:16:35.000Z</time>
      </trkpt>
      <trkpt lat="47.45322" lon="6.71488">
        <ele>444</ele>
        <time>2015-06-24T17:16:36.000Z</time>
      </trkpt>
      <trkpt lat="47.45319" lon="6.7148">
        <ele>445</ele>
        <time>2015-06-24T17:16:37.000Z</time>
      </trkpt>
      <trkpt lat="47.45316" lon="6.71473">
        <ele>445</ele>
        <time>2015-06-24T17:16:38.000Z</time>
      </trkpt>
      <trkpt lat="47.45313" lon="6.71468">
        <ele>446</ele>
        <time>2015-06-24T17:16:39.000Z</time>
      </trkpt>
      <trkpt lat="47.4531" lon="6.71464">
        <ele>446</ele>
        <time>2015-06-24T17:16:40.000Z</time>
      </trkpt>
      <trkpt lat="47.45306" lon="6.7146">
        <ele>446</ele>
        <time>2015-06-24T17:16:41.000Z</time>
      </trkpt>
      <trkpt lat="47.45303" lon="6.71458">
        <ele>446</ele>
        <time>2015-06-24T17:16:42.000Z</time>
      </trkpt>
      <trkpt lat="47.453" lon="6.71455">
        <ele>446</ele>
        <time>2015-06-24T17:16:43.000Z</time>
      </trkpt>
      <trkpt lat="47.45296" lon="6.71453">
        <ele>447</ele>
        <time>2015-06-24T17:16:45.000Z</time>
      </trkpt>
      <trkpt lat="47.45291" lon="6.71455">
        <ele>447</ele>
        <time>2015-06-24T17:16:46.000Z</time>
      </trkpt>
      <trkpt lat="47.45289" lon="6.71454">
        <ele>448</ele>
        <time>2015-06-24T17:16:47.000Z</time>
      </trkpt>
      <trkpt lat="47.45286" lon="6.71453">
        <ele>448</ele>
        <time>2015-06-24T17:16:48.000Z</time>
      </trkpt>
      <trkpt lat="47.45283" lon="6.71453">
        <ele>448</ele>
        <time>2015-06-24T17:16:49.000Z</time>
      </trkpt>
      <trkpt lat="47.4528" lon="6.71452">
        <ele>449</ele>
        <time>2015-06-24T17:16:50.000Z</time>
      </trkpt>
      <trkpt lat="47.45277" lon="6.71452">
        <ele>449</ele>
        <time>2015-06-24T17:16:51.000Z</time>
      </trkpt>
      <trkpt lat="47.45274" lon="6.71451">
        <ele>449</ele>
        <time>2015-06-24T17:16:52.000Z</time>
      </trkpt>
      <trkpt lat="47.45271" lon="6.71451">
        <ele>449</ele>
        <time>2015-06-24T17:16:53.000Z</time>
      </trkpt>
      <trkpt lat="47.45268" lon="6.71449">
        <ele>450</ele>
        <time>2015-06-24T17:16:54.000Z</time>
      </trkpt>
      <trkpt lat="47.45265" lon="6.71447">
        <ele>450</ele>
        <time>2015-06-24T17:16:55.000Z</time>
      </trkpt>
      <trkpt lat="47.45261" lon="6.71446">
        <ele>450</ele>
        <time>2015-06-24T17:16:56.000Z</time>
      </trkpt>
      <trkpt lat="47.45258" lon="6.71446">
        <ele>450</ele>
        <time>2015-06-24T17:16:57.000Z</time>
      </trkpt>
      <trkpt lat="47.45255" lon="6.71446">
        <ele>450</ele>
        <time>2015-06-24T17:16:58.000Z</time>
      </trkpt>
      <trkpt lat="47.45252" lon="6.71447">
        <ele>451</ele>
        <time>2015-06-24T17:16:59.000Z</time>
      </trkpt>
      <trkpt lat="47.45249" lon="6.71449">
        <ele>458</ele>
        <time>2015-06-24T17:17:00.000Z</time>
      </trkpt>
      <trkpt lat="47.45245" lon="6.71452">
        <ele>458</ele>
        <time>2015-06-24T17:17:03.000Z</time>
      </trkpt>
      <trkpt lat="47.45244" lon="6.71452">
        <ele>458</ele>
        <time>2015-06-24T17:17:04.000Z</time>
      </trkpt>
      <trkpt lat="47.45239" lon="6.71451">
        <ele>458</ele>
        <time>2015-06-24T17:17:07.000Z</time>
      </trkpt>
      <trkpt lat="47.45238" lon="6.7145">
        <ele>458</ele>
        <time>2015-06-24T17:17:08.000Z</time>
      </trkpt>
      <trkpt lat="47.45236" lon="6.71447">
        <ele>458</ele>
        <time>2015-06-24T17:17:10.000Z</time>
      </trkpt>
      <trkpt lat="47.45234" lon="6.71446">
        <ele>458</ele>
        <time>2015-06-24T17:17:11.000Z</time>
      </trkpt>
      <trkpt lat="47.45231" lon="6.71446">
        <ele>458</ele>
        <time>2015-06-24T17:17:13.000Z</time>
      </trkpt>
      <trkpt lat="47.45228" lon="6.71446">
        <ele>458</ele>
        <time>2015-06-24T17:17:14.000Z</time>
      </trkpt>
      <trkpt lat="47.45226" lon="6.71445">
        <ele>458</ele>
        <time>2015-06-24T17:17:15.000Z</time>
      </trkpt>
      <trkpt lat="47.45224" lon="6.71445">
        <ele>458</ele>
        <time>2015-06-24T17:17:16.000Z</time>
      </trkpt>
      <trkpt lat="47.45221" lon="6.71446">
        <ele>458</ele>
        <time>2015-06-24T17:17:17.000Z</time>
      </trkpt>
      <trkpt lat="47.45219" lon="6.71446">
        <ele>459</ele>
        <time>2015-06-24T17:17:17.999Z</time>
      </trkpt>
      <trkpt lat="47.45215" lon="6.71447">
        <ele>459</ele>
        <time>2015-06-24T17:17:19.000Z</time>
      </trkpt>
      <trkpt lat="47.45212" lon="6.71448">
        <ele>459</ele>
        <time>2015-06-24T17:17:20.000Z</time>
      </trkpt>
      <trkpt lat="47.45209" lon="6.71448">
        <ele>459</ele>
        <time>2015-06-24T17:17:21.000Z</time>
      </trkpt>
      <trkpt lat="47.45205" lon="6.71448">
        <ele>459</ele>
        <time>2015-06-24T17:17:22.000Z</time>
      </trkpt>
      <trkpt lat="47.45202" lon="6.71447">
        <ele>459</ele>
        <time>2015-06-24T17:17:23.000Z</time>
      </trkpt>
      <trkpt lat="47.452" lon="6.71445">
        <ele>459</ele>
        <time>2015-06-24T17:17:24.000Z</time>
      </trkpt>
      <trkpt lat="47.45198" lon="6.71443">
        <ele>459</ele>
        <time>2015-06-24T17:17:25.000Z</time>
      </trkpt>
      <trkpt lat="47.45196" lon="6.71441">
        <ele>459</ele>
        <time>2015-06-24T17:17:26.000Z</time>
      </trkpt>
      <trkpt lat="47.45195" lon="6.71439">
        <ele>459</ele>
        <time>2015-06-24T17:17:27.000Z</time>
      </trkpt>
      <trkpt lat="47.45193" lon="6.71436">
        <ele>459</ele>
        <time>2015-06-24T17:17:28.000Z</time>
      </trkpt>
      <trkpt lat="47.45191" lon="6.71434">
        <ele>459</ele>
        <time>2015-06-24T17:17:29.000Z</time>
      </trkpt>
      <trkpt lat="47.45189" lon="6.71432">
        <ele>459</ele>
        <time>2015-06-24T17:17:30.000Z</time>
      </trkpt>
      <trkpt lat="47.45187" lon="6.7143">
        <ele>458</ele>
        <time>2015-06-24T17:17:31.000Z</time>
      </trkpt>
      <trkpt lat="47.45185" lon="6.71428">
        <ele>458</ele>
        <time>2015-06-24T17:17:32.000Z</time>
      </trkpt>
      <trkpt lat="47.45182" lon="6.71426">
        <ele>458</ele>
        <time>2015-06-24T17:17:33.000Z</time>
      </trkpt>
      <trkpt lat="47.45179" lon="6.71424">
        <ele>458</ele>
        <time>2015-06-24T17:17:34.000Z</time>
      </trkpt>
      <trkpt lat="47.45176" lon="6.71423">
        <ele>458</ele>
        <time>2015-06-24T17:17:35.000Z</time>
      </trkpt>
      <trkpt lat="47.45172" lon="6.71421">
        <ele>458</ele>
        <time>2015-06-24T17:17:36.000Z</time>
      </trkpt>
      <trkpt lat="47.45169" lon="6.71419">
        <ele>457</ele>
        <time>2015-06-24T17:17:37.000Z</time>
      </trkpt>
      <trkpt lat="47.45166" lon="6.71418">
        <ele>457</ele>
        <time>2015-06-24T17:17:38.000Z</time>
      </trkpt>
      <trkpt lat="47.45164" lon="6.71416">
        <ele>457</ele>
        <time>2015-06-24T17:17:39.000Z</time>
      </trkpt>
      <trkpt lat="47.45162" lon="6.71415">
        <ele>457</ele>
        <time>2015-06-24T17:17:40.000Z</time>
      </trkpt>
      <trkpt lat="47.45159" lon="6.71414">
        <ele>457</ele>
        <time>2015-06-24T17:17:41.000Z</time>
      </trkpt>
      <trkpt lat="47.45157" lon="6.71413">
        <ele>457</ele>
        <time>2015-06-24T17:17:42.000Z</time>
      </trkpt>
      <trkpt lat="47.45154" lon="6.71411">
        <ele>458</ele>
        <time>2015-06-24T17:17:43.000Z</time>
      </trkpt>
      <trkpt lat="47.45151" lon="6.7141">
        <ele>458</ele>
        <time>2015-06-24T17:17:44.000Z</time>
      </trkpt>
      <trkpt lat="47.45149" lon="6.71409">
        <ele>458</ele>
        <time>2015-06-24T17:17:45.000Z</time>
      </trkpt>
      <trkpt lat="47.45147" lon="6.71407">
        <ele>458</ele>
        <time>2015-06-24T17:17:46.000Z</time>
      </trkpt>
      <trkpt lat="47.45144" lon="6.71406">
        <ele>458</ele>
        <time>2015-06-24T17:17:47.000Z</time>
      </trkpt>
      <trkpt lat="47.45142" lon="6.71405">
        <ele>458</ele>
        <time>2015-06-24T17:17:48.000Z</time>
      </trkpt>
      <trkpt lat="47.45139" lon="6.71404">
        <ele>458</ele>
        <time>2015-06-24T17:17:49.000Z</time>
      </trkpt>
      <trkpt lat="47.45135" lon="6.71403">
        <ele>458</ele>
        <time>2015-06-24T17:17:50.000Z</time>
      </trkpt>
      <trkpt lat="47.45132" lon="6.71402">
        <ele>459</ele>
        <time>2015-06-24T17:17:51.000Z</time>
      </trkpt>
      <trkpt lat="47.4513" lon="6.71402">
        <ele>459</ele>
        <time>2015-06-24T17:17:52.000Z</time>
      </trkpt>
      <trkpt lat="47.45126" lon="6.71401">
        <ele>459</ele>
        <time>2015-06-24T17:17:54.000Z</time>
      </trkpt>
      <trkpt lat="47.45123" lon="6.714">
        <ele>459</ele>
        <time>2015-06-24T17:17:55.000Z</time>
      </trkpt>
      <trkpt lat="47.45121" lon="6.714">
        <ele>459</ele>
        <time>2015-06-24T17:17:56.000Z</time>
      </trkpt>
      <trkpt lat="47.45118" lon="6.71399">
        <ele>460</ele>
        <time>2015-06-24T17:17:57.000Z</time>
      </trkpt>
      <trkpt lat="47.45115" lon="6.71399">
        <ele>460</ele>
        <time>2015-06-24T17:17:58.000Z</time>
      </trkpt>
      <trkpt lat="47.45112" lon="6.71398">
        <ele>460</ele>
        <time>2015-06-24T17:17:59.000Z</time>
      </trkpt>
      <trkpt lat="47.4511" lon="6.71398">
        <ele>460</ele>
        <time>2015-06-24T17:18:00.000Z</time>
      </trkpt>
      <trkpt lat="47.45107" lon="6.71398">
        <ele>461</ele>
        <time>2015-06-24T17:18:01.000Z</time>
      </trkpt>
      <trkpt lat="47.45104" lon="6.71397">
        <ele>461</ele>
        <time>2015-06-24T17:18:02.000Z</time>
      </trkpt>
      <trkpt lat="47.45101" lon="6.71397">
        <ele>461</ele>
        <time>2015-06-24T17:18:03.000Z</time>
      </trkpt>
      <trkpt lat="47.45098" lon="6.71396">
        <ele>461</ele>
        <time>2015-06-24T17:18:04.000Z</time>
      </trkpt>
      <trkpt lat="47.45095" lon="6.71396">
        <ele>461</ele>
        <time>2015-06-24T17:18:05.000Z</time>
      </trkpt>
      <trkpt lat="47.45092" lon="6.71396">
        <ele>462</ele>
        <time>2015-06-24T17:18:06.000Z</time>
      </trkpt>
      <trkpt lat="47.45089" lon="6.71395">
        <ele>462</ele>
        <time>2015-06-24T17:18:07.000Z</time>
      </trkpt>
      <trkpt lat="47.45086" lon="6.71395">
        <ele>462</ele>
        <time>2015-06-24T17:18:08.000Z</time>
      </trkpt>
      <trkpt lat="47.45083" lon="6.71395">
        <ele>467</ele>
        <time>2015-06-24T17:18:09.000Z</time>
      </trkpt>
      <trkpt lat="47.4508" lon="6.71395">
        <ele>467</ele>
        <time>2015-06-24T17:18:10.000Z</time>
      </trkpt>
      <trkpt lat="47.45078" lon="6.71394">
        <ele>467</ele>
        <time>2015-06-24T17:18:11.000Z</time>
      </trkpt>
      <trkpt lat="47.45074" lon="6.71395">
        <ele>467</ele>
        <time>2015-06-24T17:18:12.000Z</time>
      </trkpt>
      <trkpt lat="47.4507" lon="6.71396">
        <ele>467</ele>
        <time>2015-06-24T17:18:13.000Z</time>
      </trkpt>
      <trkpt lat="47.45067" lon="6.71396">
        <ele>467</ele>
        <time>2015-06-24T17:18:14.000Z</time>
      </trkpt>
      <trkpt lat="47.45063" lon="6.71396">
        <ele>467</ele>
        <time>2015-06-24T17:18:15.000Z</time>
      </trkpt>
      <trkpt lat="47.4506" lon="6.71396">
        <ele>467</ele>
        <time>2015-06-24T17:18:16.000Z</time>
      </trkpt>
      <trkpt lat="47.45057" lon="6.71395">
        <ele>467</ele>
        <time>2015-06-24T17:18:17.000Z</time>
      </trkpt>
      <trkpt lat="47.45054" lon="6.71394">
        <ele>467</ele>
        <time>2015-06-24T17:18:18.000Z</time>
      </trkpt>
      <trkpt lat="47.45051" lon="6.71394">
        <ele>467</ele>
        <time>2015-06-24T17:18:19.000Z</time>
      </trkpt>
      <trkpt lat="47.45048" lon="6.71393">
        <ele>468</ele>
        <time>2015-06-24T17:18:20.000Z</time>
      </trkpt>
      <trkpt lat="47.45045" lon="6.71392">
        <ele>468</ele>
        <time>2015-06-24T17:18:21.000Z</time>
      </trkpt>
      <trkpt lat="47.45042" lon="6.71391">
        <ele>468</ele>
        <time>2015-06-24T17:18:22.000Z</time>
      </trkpt>
      <trkpt lat="47.45038" lon="6.71391">
        <ele>468</ele>
        <time>2015-06-24T17:18:23.000Z</time>
      </trkpt>
      <trkpt lat="47.45035" lon="6.7139">
        <ele>468</ele>
        <time>2015-06-24T17:18:24.000Z</time>
      </trkpt>
      <trkpt lat="47.45031" lon="6.71389">
        <ele>468</ele>
        <time>2015-06-24T17:18:25.000Z</time>
      </trkpt>
      <trkpt lat="47.45027" lon="6.71388">
        <ele>469</ele>
        <time>2015-06-24T17:18:26.000Z</time>
      </trkpt>
      <trkpt lat="47.45023" lon="6.71388">
        <ele>469</ele>
        <time>2015-06-24T17:18:27.000Z</time>
      </trkpt>
      <trkpt lat="47.4502" lon="6.71387">
        <ele>469</ele>
        <time>2015-06-24T17:18:28.000Z</time>
      </trkpt>
      <trkpt lat="47.45016" lon="6.71387">
        <ele>469</ele>
        <time>2015-06-24T17:18:29.000Z</time>
      </trkpt>
      <trkpt lat="47.45012" lon="6.71387">
        <ele>469</ele>
        <time>2015-06-24T17:18:30.000Z</time>
      </trkpt>
      <trkpt lat="47.45009" lon="6.71386">
        <ele>469</ele>
        <time>2015-06-24T17:18:31.000Z</time>
      </trkpt>
      <trkpt lat="47.45005" lon="6.71386">
        <ele>469</ele>
        <time>2015-06-24T17:18:32.000Z</time>
      </trkpt>
      <trkpt lat="47.45001" lon="6.71385">
        <ele>469</ele>
        <time>2015-06-24T17:18:33.000Z</time>
      </trkpt>
      <trkpt lat="47.44997" lon="6.71384">
        <ele>471</ele>
        <time>2015-06-24T17:18:34.000Z</time>
      </trkpt>
      <trkpt lat="47.44994" lon="6.71383">
        <ele>470</ele>
        <time>2015-06-24T17:18:35.000Z</time>
      </trkpt>
      <trkpt lat="47.4499" lon="6.71382">
        <ele>470</ele>
        <time>2015-06-24T17:18:36.000Z</time>
      </trkpt>
      <trkpt lat="47.44986" lon="6.71382">
        <ele>470</ele>
        <time>2015-06-24T17:18:37.000Z</time>
      </trkpt>
      <trkpt lat="47.44982" lon="6.71381">
        <ele>470</ele>
        <time>2015-06-24T17:18:38.000Z</time>
      </trkpt>
      <trkpt lat="47.44978" lon="6.71379">
        <ele>470</ele>
        <time>2015-06-24T17:18:39.000Z</time>
      </trkpt>
      <trkpt lat="47.44974" lon="6.71377">
        <ele>470</ele>
        <time>2015-06-24T17:18:40.000Z</time>
      </trkpt>
      <trkpt lat="47.4497" lon="6.71375">
        <ele>470</ele>
        <time>2015-06-24T17:18:41.000Z</time>
      </trkpt>
      <trkpt lat="47.44966" lon="6.71373">
        <ele>470</ele>
        <time>2015-06-24T17:18:42.000Z</time>
      </trkpt>
      <trkpt lat="47.44962" lon="6.71371">
        <ele>470</ele>
        <time>2015-06-24T17:18:43.000Z</time>
      </trkpt>
      <trkpt lat="47.44956" lon="6.71371">
        <ele>470</ele>
        <time>2015-06-24T17:18:44.000Z</time>
      </trkpt>
      <trkpt lat="47.44952" lon="6.71372">
        <ele>470</ele>
        <time>2015-06-24T17:18:45.000Z</time>
      </trkpt>
      <trkpt lat="47.44948" lon="6.7137">
        <ele>470</ele>
        <time>2015-06-24T17:18:46.000Z</time>
      </trkpt>
      <trkpt lat="47.44945" lon="6.71369">
        <ele>469</ele>
        <time>2015-06-24T17:18:47.000Z</time>
      </trkpt>
      <trkpt lat="47.44941" lon="6.71369">
        <ele>469</ele>
        <time>2015-06-24T17:18:48.000Z</time>
      </trkpt>
      <trkpt lat="47.44939" lon="6.71368">
        <ele>469</ele>
        <time>2015-06-24T17:18:49.000Z</time>
      </trkpt>
      <trkpt lat="47.44936" lon="6.71367">
        <ele>469</ele>
        <time>2015-06-24T17:18:50.000Z</time>
      </trkpt>
      <trkpt lat="47.44932" lon="6.71367">
        <ele>469</ele>
        <time>2015-06-24T17:18:51.000Z</time>
      </trkpt>
      <trkpt lat="47.44929" lon="6.71366">
        <ele>469</ele>
        <time>2015-06-24T17:18:52.000Z</time>
      </trkpt>
      <trkpt lat="47.44924" lon="6.71368">
        <ele>469</ele>
        <time>2015-06-24T17:18:53.000Z</time>
      </trkpt>
      <trkpt lat="47.44921" lon="6.71369">
        <ele>469</ele>
        <time>2015-06-24T17:18:54.000Z</time>
      </trkpt>
      <trkpt lat="47.44918" lon="6.7137">
        <ele>469</ele>
        <time>2015-06-24T17:18:55.000Z</time>
      </trkpt>
      <trkpt lat="47.44914" lon="6.71371">
        <ele>467</ele>
        <time>2015-06-24T17:18:56.000Z</time>
      </trkpt>
      <trkpt lat="47.44911" lon="6.71373">
        <ele>467</ele>
        <time>2015-06-24T17:18:57.000Z</time>
      </trkpt>
      <trkpt lat="47.44907" lon="6.71374">
        <ele>467</ele>
        <time>2015-06-24T17:18:58.000Z</time>
      </trkpt>
      <trkpt lat="47.44904" lon="6.71376">
        <ele>467</ele>
        <time>2015-06-24T17:18:59.000Z</time>
      </trkpt>
      <trkpt lat="47.44901" lon="6.71378">
        <ele>467</ele>
        <time>2015-06-24T17:19:00.000Z</time>
      </trkpt>
      <trkpt lat="47.44899" lon="6.71379">
        <ele>467</ele>
        <time>2015-06-24T17:19:01.000Z</time>
      </trkpt>
      <trkpt lat="47.44896" lon="6.7138">
        <ele>466</ele>
        <time>2015-06-24T17:19:02.000Z</time>
      </trkpt>
      <trkpt lat="47.44893" lon="6.71379">
        <ele>466</ele>
        <time>2015-06-24T17:19:04.000Z</time>
      </trkpt>
      <trkpt lat="47.44891" lon="6.7138">
        <ele>466</ele>
        <time>2015-06-24T17:19:05.000Z</time>
      </trkpt>
      <trkpt lat="47.44887" lon="6.7138">
        <ele>466</ele>
        <time>2015-06-24T17:19:07.000Z</time>
      </trkpt>
      <trkpt lat="47.44883" lon="6.71381">
        <ele>466</ele>
        <time>2015-06-24T17:19:08.000Z</time>
      </trkpt>
      <trkpt lat="47.4488" lon="6.71382">
        <ele>466</ele>
        <time>2015-06-24T17:19:09.000Z</time>
      </trkpt>
      <trkpt lat="47.44877" lon="6.71382">
        <ele>466</ele>
        <time>2015-06-24T17:19:10.000Z</time>
      </trkpt>
      <trkpt lat="47.44873" lon="6.71383">
        <ele>466</ele>
        <time>2015-06-24T17:19:11.000Z</time>
      </trkpt>
      <trkpt lat="47.44869" lon="6.71383">
        <ele>466</ele>
        <time>2015-06-24T17:19:12.000Z</time>
      </trkpt>
      <trkpt lat="47.44865" lon="6.71384">
        <ele>465</ele>
        <time>2015-06-24T17:19:13.000Z</time>
      </trkpt>
      <trkpt lat="47.44861" lon="6.71386">
        <ele>465</ele>
        <time>2015-06-24T17:19:14.000Z</time>
      </trkpt>
      <trkpt lat="47.44858" lon="6.71388">
        <ele>465</ele>
        <time>2015-06-24T17:19:15.000Z</time>
      </trkpt>
      <trkpt lat="47.44854" lon="6.71388">
        <ele>465</ele>
        <time>2015-06-24T17:19:16.000Z</time>
      </trkpt>
      <trkpt lat="47.4485" lon="6.71389">
        <ele>465</ele>
        <time>2015-06-24T17:19:17.000Z</time>
      </trkpt>
      <trkpt lat="47.44839" lon="6.71397">
        <ele>464</ele>
        <time>2015-06-24T17:19:18.000Z</time>
      </trkpt>
      <trkpt lat="47.44835" lon="6.71398">
        <ele>464</ele>
        <time>2015-06-24T17:19:19.000Z</time>
      </trkpt>
      <trkpt lat="47.44831" lon="6.71398">
        <ele>462</ele>
        <time>2015-06-24T17:19:20.000Z</time>
      </trkpt>
      <trkpt lat="47.44827" lon="6.71399">
        <ele>462</ele>
        <time>2015-06-24T17:19:21.000Z</time>
      </trkpt>
      <trkpt lat="47.4482" lon="6.71402">
        <ele>461</ele>
        <time>2015-06-24T17:19:22.000Z</time>
      </trkpt>
      <trkpt lat="47.44816" lon="6.71403">
        <ele>461</ele>
        <time>2015-06-24T17:19:23.000Z</time>
      </trkpt>
      <trkpt lat="47.44811" lon="6.71404">
        <ele>461</ele>
        <time>2015-06-24T17:19:24.000Z</time>
      </trkpt>
      <trkpt lat="47.44806" lon="6.71405">
        <ele>461</ele>
        <time>2015-06-24T17:19:25.000Z</time>
      </trkpt>
      <trkpt lat="47.44801" lon="6.71407">
        <ele>460</ele>
        <time>2015-06-24T17:19:26.000Z</time>
      </trkpt>
      <trkpt lat="47.44796" lon="6.71408">
        <ele>460</ele>
        <time>2015-06-24T17:19:27.000Z</time>
      </trkpt>
      <trkpt lat="47.4479" lon="6.71409">
        <ele>460</ele>
        <time>2015-06-24T17:19:28.000Z</time>
      </trkpt>
      <trkpt lat="47.4478" lon="6.71412">
        <ele>459</ele>
        <time>2015-06-24T17:19:29.000Z</time>
      </trkpt>
      <trkpt lat="47.44774" lon="6.7142">
        <ele>458</ele>
        <time>2015-06-24T17:19:30.000Z</time>
      </trkpt>
      <trkpt lat="47.44769" lon="6.71424">
        <ele>458</ele>
        <time>2015-06-24T17:19:31.000Z</time>
      </trkpt>
      <trkpt lat="47.44763" lon="6.71427">
        <ele>458</ele>
        <time>2015-06-24T17:19:32.000Z</time>
      </trkpt>
      <trkpt lat="47.44758" lon="6.71431">
        <ele>458</ele>
        <time>2015-06-24T17:19:33.000Z</time>
      </trkpt>
      <trkpt lat="47.44756" lon="6.71433">
        <ele>458</ele>
        <time>2015-06-24T17:19:34.000Z</time>
      </trkpt>
      <trkpt lat="47.44752" lon="6.71436">
        <ele>458</ele>
        <time>2015-06-24T17:19:35.000Z</time>
      </trkpt>
      <trkpt lat="47.44751" lon="6.7144">
        <ele>457</ele>
        <time>2015-06-24T17:19:36.000Z</time>
      </trkpt>
      <trkpt lat="47.4475" lon="6.71444">
        <ele>455</ele>
        <time>2015-06-24T17:19:37.000Z</time>
      </trkpt>
      <trkpt lat="47.44744" lon="6.71448">
        <ele>454</ele>
        <time>2015-06-24T17:19:38.000Z</time>
      </trkpt>
      <trkpt lat="47.4474" lon="6.71449">
        <ele>454</ele>
        <time>2015-06-24T17:19:39.000Z</time>
      </trkpt>
      <trkpt lat="47.44736" lon="6.71453">
        <ele>454</ele>
        <time>2015-06-24T17:19:40.000Z</time>
      </trkpt>
      <trkpt lat="47.44733" lon="6.71451">
        <ele>454</ele>
        <time>2015-06-24T17:19:41.000Z</time>
      </trkpt>
      <trkpt lat="47.44728" lon="6.71447">
        <ele>454</ele>
        <time>2015-06-24T17:19:42.000Z</time>
      </trkpt>
      <trkpt lat="47.44726" lon="6.71444">
        <ele>454</ele>
        <time>2015-06-24T17:19:43.000Z</time>
      </trkpt>
      <trkpt lat="47.44723" lon="6.71442">
        <ele>454</ele>
        <time>2015-06-24T17:19:44.000Z</time>
      </trkpt>
      <trkpt lat="47.4472" lon="6.71439">
        <ele>454</ele>
        <time>2015-06-24T17:19:45.000Z</time>
      </trkpt>
      <trkpt lat="47.44716" lon="6.71436">
        <ele>454</ele>
        <time>2015-06-24T17:19:46.000Z</time>
      </trkpt>
      <trkpt lat="47.44713" lon="6.71433">
        <ele>454</ele>
        <time>2015-06-24T17:19:47.000Z</time>
      </trkpt>
      <trkpt lat="47.4471" lon="6.71429">
        <ele>454</ele>
        <time>2015-06-24T17:19:48.000Z</time>
      </trkpt>
      <trkpt lat="47.44707" lon="6.71426">
        <ele>454</ele>
        <time>2015-06-24T17:19:49.000Z</time>
      </trkpt>
      <trkpt lat="47.44705" lon="6.71423">
        <ele>454</ele>
        <time>2015-06-24T17:19:50.000Z</time>
      </trkpt>
      <trkpt lat="47.44702" lon="6.71421">
        <ele>454</ele>
        <time>2015-06-24T17:19:51.000Z</time>
      </trkpt>
      <trkpt lat="47.44699" lon="6.7142">
        <ele>453</ele>
        <time>2015-06-24T17:19:52.000Z</time>
      </trkpt>
      <trkpt lat="47.44696" lon="6.71419">
        <ele>453</ele>
        <time>2015-06-24T17:19:53.000Z</time>
      </trkpt>
      <trkpt lat="47.44692" lon="6.71418">
        <ele>453</ele>
        <time>2015-06-24T17:19:54.000Z</time>
      </trkpt>
      <trkpt lat="47.44688" lon="6.71417">
        <ele>453</ele>
        <time>2015-06-24T17:19:55.000Z</time>
      </trkpt>
      <trkpt lat="47.44684" lon="6.71417">
        <ele>454</ele>
        <time>2015-06-24T17:19:56.000Z</time>
      </trkpt>
      <trkpt lat="47.44679" lon="6.71416">
        <ele>454</ele>
        <time>2015-06-24T17:19:57.000Z</time>
      </trkpt>
      <trkpt lat="47.44675" lon="6.71416">
        <ele>454</ele>
        <time>2015-06-24T17:19:58.000Z</time>
      </trkpt>
      <trkpt lat="47.44671" lon="6.71416">
        <ele>453</ele>
        <time>2015-06-24T17:19:59.000Z</time>
      </trkpt>
      <trkpt lat="47.44667" lon="6.71416">
        <ele>453</ele>
        <time>2015-06-24T17:20:00.000Z</time>
      </trkpt>
      <trkpt lat="47.44662" lon="6.71416">
        <ele>453</ele>
        <time>2015-06-24T17:20:01.000Z</time>
      </trkpt>
      <trkpt lat="47.44652" lon="6.71415">
        <ele>453</ele>
        <time>2015-06-24T17:20:02.000Z</time>
      </trkpt>
      <trkpt lat="47.44647" lon="6.71413">
        <ele>453</ele>
        <time>2015-06-24T17:20:03.000Z</time>
      </trkpt>
      <trkpt lat="47.44642" lon="6.7141">
        <ele>453</ele>
        <time>2015-06-24T17:20:04.000Z</time>
      </trkpt>
      <trkpt lat="47.44637" lon="6.71409">
        <ele>453</ele>
        <time>2015-06-24T17:20:05.000Z</time>
      </trkpt>
      <trkpt lat="47.44633" lon="6.71403">
        <ele>453</ele>
        <time>2015-06-24T17:20:06.000Z</time>
      </trkpt>
      <trkpt lat="47.44627" lon="6.714">
        <ele>453</ele>
        <time>2015-06-24T17:20:07.000Z</time>
      </trkpt>
      <trkpt lat="47.44622" lon="6.714">
        <ele>453</ele>
        <time>2015-06-24T17:20:08.000Z</time>
      </trkpt>
      <trkpt lat="47.44618" lon="6.714">
        <ele>454</ele>
        <time>2015-06-24T17:20:09.000Z</time>
      </trkpt>
      <trkpt lat="47.44612" lon="6.71399">
        <ele>454</ele>
        <time>2015-06-24T17:20:10.000Z</time>
      </trkpt>
      <trkpt lat="47.4461" lon="6.71398">
        <ele>454</ele>
        <time>2015-06-24T17:20:11.000Z</time>
      </trkpt>
      <trkpt lat="47.44606" lon="6.71406">
        <ele>454</ele>
        <time>2015-06-24T17:20:12.000Z</time>
      </trkpt>
      <trkpt lat="47.44603" lon="6.71409">
        <ele>454</ele>
        <time>2015-06-24T17:20:13.000Z</time>
      </trkpt>
      <trkpt lat="47.44597" lon="6.71415">
        <ele>454</ele>
        <time>2015-06-24T17:20:14.000Z</time>
      </trkpt>
      <trkpt lat="47.44592" lon="6.71419">
        <ele>454</ele>
        <time>2015-06-24T17:20:15.000Z</time>
      </trkpt>
      <trkpt lat="47.44578" lon="6.71427">
        <ele>455</ele>
        <time>2015-06-24T17:20:16.000Z</time>
      </trkpt>
      <trkpt lat="47.44574" lon="6.7143">
        <ele>455</ele>
        <time>2015-06-24T17:20:17.000Z</time>
      </trkpt>
      <trkpt lat="47.4457" lon="6.71431">
        <ele>455</ele>
        <time>2015-06-24T17:20:18.000Z</time>
      </trkpt>
      <trkpt lat="47.44564" lon="6.71434">
        <ele>455</ele>
        <time>2015-06-24T17:20:19.000Z</time>
      </trkpt>
      <trkpt lat="47.44562" lon="6.71437">
        <ele>455</ele>
        <time>2015-06-24T17:20:20.000Z</time>
      </trkpt>
      <trkpt lat="47.44558" lon="6.71439">
        <ele>455</ele>
        <time>2015-06-24T17:20:21.000Z</time>
      </trkpt>
      <trkpt lat="47.44555" lon="6.71441">
        <ele>456</ele>
        <time>2015-06-24T17:20:22.000Z</time>
      </trkpt>
      <trkpt lat="47.44552" lon="6.71443">
        <ele>456</ele>
        <time>2015-06-24T17:20:23.000Z</time>
      </trkpt>
      <trkpt lat="47.44548" lon="6.71444">
        <ele>456</ele>
        <time>2015-06-24T17:20:24.000Z</time>
      </trkpt>
      <trkpt lat="47.44546" lon="6.71445">
        <ele>456</ele>
        <time>2015-06-24T17:20:25.000Z</time>
      </trkpt>
      <trkpt lat="47.44543" lon="6.71447">
        <ele>456</ele>
        <time>2015-06-24T17:20:26.000Z</time>
      </trkpt>
      <trkpt lat="47.4454" lon="6.71449">
        <ele>456</ele>
        <time>2015-06-24T17:20:27.000Z</time>
      </trkpt>
      <trkpt lat="47.44538" lon="6.71452">
        <ele>456</ele>
        <time>2015-06-24T17:20:28.000Z</time>
      </trkpt>
      <trkpt lat="47.44536" lon="6.71456">
        <ele>456</ele>
        <time>2015-06-24T17:20:29.000Z</time>
      </trkpt>
      <trkpt lat="47.44536" lon="6.71459">
        <ele>456</ele>
        <time>2015-06-24T17:20:30.000Z</time>
      </trkpt>
      <trkpt lat="47.44535" lon="6.71462">
        <ele>456</ele>
        <time>2015-06-24T17:20:31.000Z</time>
      </trkpt>
      <trkpt lat="47.44533" lon="6.71465">
        <ele>456</ele>
        <time>2015-06-24T17:20:32.000Z</time>
      </trkpt>
      <trkpt lat="47.44531" lon="6.71467">
        <ele>456</ele>
        <time>2015-06-24T17:20:33.000Z</time>
      </trkpt>
      <trkpt lat="47.44528" lon="6.71468">
        <ele>456</ele>
        <time>2015-06-24T17:20:34.000Z</time>
      </trkpt>
      <trkpt lat="47.44525" lon="6.7147">
        <ele>456</ele>
        <time>2015-06-24T17:20:35.000Z</time>
      </trkpt>
      <trkpt lat="47.44521" lon="6.71471">
        <ele>456</ele>
        <time>2015-06-24T17:20:36.000Z</time>
      </trkpt>
      <trkpt lat="47.44519" lon="6.71472">
        <ele>457</ele>
        <time>2015-06-24T17:20:37.000Z</time>
      </trkpt>
      <trkpt lat="47.44516" lon="6.71474">
        <ele>457</ele>
        <time>2015-06-24T17:20:38.000Z</time>
      </trkpt>
      <trkpt lat="47.44513" lon="6.71476">
        <ele>457</ele>
        <time>2015-06-24T17:20:39.000Z</time>
      </trkpt>
      <trkpt lat="47.4451" lon="6.71479">
        <ele>457</ele>
        <time>2015-06-24T17:20:40.000Z</time>
      </trkpt>
      <trkpt lat="47.44507" lon="6.71482">
        <ele>457</ele>
        <time>2015-06-24T17:20:41.000Z</time>
      </trkpt>
      <trkpt lat="47.44505" lon="6.71485">
        <ele>457</ele>
        <time>2015-06-24T17:20:42.000Z</time>
      </trkpt>
      <trkpt lat="47.44502" lon="6.71487">
        <ele>458</ele>
        <time>2015-06-24T17:20:43.000Z</time>
      </trkpt>
      <trkpt lat="47.44499" lon="6.71489">
        <ele>458</ele>
        <time>2015-06-24T17:20:44.000Z</time>
      </trkpt>
      <trkpt lat="47.44497" lon="6.71491">
        <ele>458</ele>
        <time>2015-06-24T17:20:45.000Z</time>
      </trkpt>
      <trkpt lat="47.44494" lon="6.71494">
        <ele>459</ele>
        <time>2015-06-24T17:20:46.000Z</time>
      </trkpt>
      <trkpt lat="47.44492" lon="6.71496">
        <ele>458</ele>
        <time>2015-06-24T17:20:47.000Z</time>
      </trkpt>
      <trkpt lat="47.44489" lon="6.71498">
        <ele>458</ele>
        <time>2015-06-24T17:20:48.000Z</time>
      </trkpt>
      <trkpt lat="47.44487" lon="6.71499">
        <ele>458</ele>
        <time>2015-06-24T17:20:49.000Z</time>
      </trkpt>
      <trkpt lat="47.44485" lon="6.71501">
        <ele>459</ele>
        <time>2015-06-24T17:20:50.000Z</time>
      </trkpt>
      <trkpt lat="47.44483" lon="6.71503">
        <ele>459</ele>
        <time>2015-06-24T17:20:51.000Z</time>
      </trkpt>
      <trkpt lat="47.44481" lon="6.71506">
        <ele>459</ele>
        <time>2015-06-24T17:20:52.000Z</time>
      </trkpt>
      <trkpt lat="47.44479" lon="6.71508">
        <ele>459</ele>
        <time>2015-06-24T17:20:53.000Z</time>
      </trkpt>
      <trkpt lat="47.44476" lon="6.7151">
        <ele>459</ele>
        <time>2015-06-24T17:20:54.000Z</time>
      </trkpt>
      <trkpt lat="47.44474" lon="6.71512">
        <ele>459</ele>
        <time>2015-06-24T17:20:55.000Z</time>
      </trkpt>
      <trkpt lat="47.44472" lon="6.71514">
        <ele>459</ele>
        <time>2015-06-24T17:20:56.000Z</time>
      </trkpt>
      <trkpt lat="47.4447" lon="6.71515">
        <ele>459</ele>
        <time>2015-06-24T17:20:57.000Z</time>
      </trkpt>
      <trkpt lat="47.44468" lon="6.71517">
        <ele>459</ele>
        <time>2015-06-24T17:20:58.000Z</time>
      </trkpt>
      <trkpt lat="47.44466" lon="6.71519">
        <ele>459</ele>
        <time>2015-06-24T17:20:59.000Z</time>
      </trkpt>
      <trkpt lat="47.44463" lon="6.71523">
        <ele>459</ele>
        <time>2015-06-24T17:21:03.000Z</time>
      </trkpt>
      <trkpt lat="47.44463" lon="6.71524">
        <ele>459</ele>
        <time>2015-06-24T17:21:04.000Z</time>
      </trkpt>
      <trkpt lat="47.44459" lon="6.71525">
        <ele>459</ele>
        <time>2015-06-24T17:21:08.000Z</time>
      </trkpt>
      <trkpt lat="47.44457" lon="6.71526">
        <ele>459</ele>
        <time>2015-06-24T17:21:09.000Z</time>
      </trkpt>
      <trkpt lat="47.44455" lon="6.71528">
        <ele>459</ele>
        <time>2015-06-24T17:21:10.000Z</time>
      </trkpt>
      <trkpt lat="47.44452" lon="6.71529">
        <ele>459</ele>
        <time>2015-06-24T17:21:11.000Z</time>
      </trkpt>
      <trkpt lat="47.44449" lon="6.7153">
        <ele>459</ele>
        <time>2015-06-24T17:21:12.000Z</time>
      </trkpt>
      <trkpt lat="47.44445" lon="6.71532">
        <ele>459</ele>
        <time>2015-06-24T17:21:13.000Z</time>
      </trkpt>
      <trkpt lat="47.44442" lon="6.71533">
        <ele>459</ele>
        <time>2015-06-24T17:21:14.000Z</time>
      </trkpt>
      <trkpt lat="47.44439" lon="6.71535">
        <ele>459</ele>
        <time>2015-06-24T17:21:15.000Z</time>
      </trkpt>
      <trkpt lat="47.44436" lon="6.71536">
        <ele>459</ele>
        <time>2015-06-24T17:21:16.000Z</time>
      </trkpt>
      <trkpt lat="47.44434" lon="6.71538">
        <ele>460</ele>
        <time>2015-06-24T17:21:17.000Z</time>
      </trkpt>
      <trkpt lat="47.44432" lon="6.7154">
        <ele>460</ele>
        <time>2015-06-24T17:21:18.000Z</time>
      </trkpt>
      <trkpt lat="47.4443" lon="6.71542">
        <ele>460</ele>
        <time>2015-06-24T17:21:19.000Z</time>
      </trkpt>
      <trkpt lat="47.44428" lon="6.71544">
        <ele>460</ele>
        <time>2015-06-24T17:21:20.000Z</time>
      </trkpt>
      <trkpt lat="47.44426" lon="6.71546">
        <ele>460</ele>
        <time>2015-06-24T17:21:21.000Z</time>
      </trkpt>
      <trkpt lat="47.44423" lon="6.71551">
        <ele>460</ele>
        <time>2015-06-24T17:21:23.000Z</time>
      </trkpt>
      <trkpt lat="47.44422" lon="6.71552">
        <ele>460</ele>
        <time>2015-06-24T17:21:24.000Z</time>
      </trkpt>
      <trkpt lat="47.44418" lon="6.71554">
        <ele>460</ele>
        <time>2015-06-24T17:21:27.000Z</time>
      </trkpt>
      <trkpt lat="47.44417" lon="6.71554">
        <ele>460</ele>
        <time>2015-06-24T17:21:28.000Z</time>
      </trkpt>
      <trkpt lat="47.44413" lon="6.71553">
        <ele>462</ele>
        <time>2015-06-24T17:21:30.000Z</time>
      </trkpt>
      <trkpt lat="47.44411" lon="6.71553">
        <ele>462</ele>
        <time>2015-06-24T17:21:31.000Z</time>
      </trkpt>
      <trkpt lat="47.44408" lon="6.71552">
        <ele>462</ele>
        <time>2015-06-24T17:21:32.000Z</time>
      </trkpt>
      <trkpt lat="47.44405" lon="6.71552">
        <ele>462</ele>
        <time>2015-06-24T17:21:33.000Z</time>
      </trkpt>
      <trkpt lat="47.44402" lon="6.71552">
        <ele>462</ele>
        <time>2015-06-24T17:21:34.000Z</time>
      </trkpt>
      <trkpt lat="47.444" lon="6.71551">
        <ele>462</ele>
        <time>2015-06-24T17:21:35.000Z</time>
      </trkpt>
      <trkpt lat="47.44397" lon="6.71551">
        <ele>462</ele>
        <time>2015-06-24T17:21:36.000Z</time>
      </trkpt>
      <trkpt lat="47.44395" lon="6.7155">
        <ele>462</ele>
        <time>2015-06-24T17:21:37.000Z</time>
      </trkpt>
      <trkpt lat="47.44392" lon="6.71547">
        <ele>462</ele>
        <time>2015-06-24T17:21:39.000Z</time>
      </trkpt>
      <trkpt lat="47.4439" lon="6.71546">
        <ele>462</ele>
        <time>2015-06-24T17:21:40.000Z</time>
      </trkpt>
      <trkpt lat="47.44386" lon="6.71544">
        <ele>462</ele>
        <time>2015-06-24T17:21:42.000Z</time>
      </trkpt>
      <trkpt lat="47.44384" lon="6.71543">
        <ele>462</ele>
        <time>2015-06-24T17:21:43.000Z</time>
      </trkpt>
      <trkpt lat="47.44381" lon="6.71542">
        <ele>463</ele>
        <time>2015-06-24T17:21:44.000Z</time>
      </trkpt>
      <trkpt lat="47.44378" lon="6.7154">
        <ele>463</ele>
        <time>2015-06-24T17:21:45.000Z</time>
      </trkpt>
      <trkpt lat="47.44376" lon="6.71538">
        <ele>463</ele>
        <time>2015-06-24T17:21:46.000Z</time>
      </trkpt>
      <trkpt lat="47.44373" lon="6.71537">
        <ele>463</ele>
        <time>2015-06-24T17:21:47.000Z</time>
      </trkpt>
      <trkpt lat="47.44371" lon="6.71535">
        <ele>463</ele>
        <time>2015-06-24T17:21:48.000Z</time>
      </trkpt>
      <trkpt lat="47.44369" lon="6.71533">
        <ele>463</ele>
        <time>2015-06-24T17:21:49.000Z</time>
      </trkpt>
      <trkpt lat="47.44366" lon="6.71531">
        <ele>463</ele>
        <time>2015-06-24T17:21:50.000Z</time>
      </trkpt>
      <trkpt lat="47.44364" lon="6.71529">
        <ele>463</ele>
        <time>2015-06-24T17:21:51.000Z</time>
      </trkpt>
      <trkpt lat="47.44362" lon="6.71527">
        <ele>463</ele>
        <time>2015-06-24T17:21:52.000Z</time>
      </trkpt>
      <trkpt lat="47.44359" lon="6.71526">
        <ele>463</ele>
        <time>2015-06-24T17:21:53.000Z</time>
      </trkpt>
      <trkpt lat="47.44357" lon="6.71524">
        <ele>463</ele>
        <time>2015-06-24T17:21:54.000Z</time>
      </trkpt>
      <trkpt lat="47.44355" lon="6.71522">
        <ele>463</ele>
        <time>2015-06-24T17:21:55.000Z</time>
      </trkpt>
      <trkpt lat="47.44353" lon="6.71521">
        <ele>463</ele>
        <time>2015-06-24T17:21:56.000Z</time>
      </trkpt>
      <trkpt lat="47.4435" lon="6.7152">
        <ele>463</ele>
        <time>2015-06-24T17:21:57.000Z</time>
      </trkpt>
      <trkpt lat="47.44348" lon="6.71519">
        <ele>463</ele>
        <time>2015-06-24T17:21:58.000Z</time>
      </trkpt>
      <trkpt lat="47.44345" lon="6.71518">
        <ele>463</ele>
        <time>2015-06-24T17:21:59.000Z</time>
      </trkpt>
      <trkpt lat="47.44342" lon="6.71518">
        <ele>463</ele>
        <time>2015-06-24T17:22:00.000Z</time>
      </trkpt>
      <trkpt lat="47.44339" lon="6.71517">
        <ele>463</ele>
        <time>2015-06-24T17:22:01.000Z</time>
      </trkpt>
      <trkpt lat="47.44335" lon="6.71517">
        <ele>464</ele>
        <time>2015-06-24T17:22:02.000Z</time>
      </trkpt>
      <trkpt lat="47.44331" lon="6.71518">
        <ele>465</ele>
        <time>2015-06-24T17:22:03.000Z</time>
      </trkpt>
      <trkpt lat="47.44327" lon="6.71519">
        <ele>465</ele>
        <time>2015-06-24T17:22:04.000Z</time>
      </trkpt>
      <trkpt lat="47.44324" lon="6.71519">
        <ele>465</ele>
        <time>2015-06-24T17:22:05.000Z</time>
      </trkpt>
      <trkpt lat="47.44321" lon="6.71519">
        <ele>466</ele>
        <time>2015-06-24T17:22:06.000Z</time>
      </trkpt>
      <trkpt lat="47.44319" lon="6.71519">
        <ele>466</ele>
        <time>2015-06-24T17:22:07.000Z</time>
      </trkpt>
      <trkpt lat="47.44316" lon="6.71519">
        <ele>466</ele>
        <time>2015-06-24T17:22:08.000Z</time>
      </trkpt>
      <trkpt lat="47.44312" lon="6.71517">
        <ele>466</ele>
        <time>2015-06-24T17:22:09.000Z</time>
      </trkpt>
      <trkpt lat="47.44309" lon="6.71516">
        <ele>466</ele>
        <time>2015-06-24T17:22:10.000Z</time>
      </trkpt>
      <trkpt lat="47.44306" lon="6.71514">
        <ele>466</ele>
        <time>2015-06-24T17:22:11.000Z</time>
      </trkpt>
      <trkpt lat="47.44302" lon="6.71513">
        <ele>466</ele>
        <time>2015-06-24T17:22:12.000Z</time>
      </trkpt>
      <trkpt lat="47.44299" lon="6.71513">
        <ele>466</ele>
        <time>2015-06-24T17:22:13.000Z</time>
      </trkpt>
      <trkpt lat="47.44296" lon="6.71514">
        <ele>466</ele>
        <time>2015-06-24T17:22:14.000Z</time>
      </trkpt>
      <trkpt lat="47.44293" lon="6.71515">
        <ele>466</ele>
        <time>2015-06-24T17:22:15.000Z</time>
      </trkpt>
      <trkpt lat="47.44291" lon="6.71516">
        <ele>466</ele>
        <time>2015-06-24T17:22:16.000Z</time>
      </trkpt>
      <trkpt lat="47.44288" lon="6.71517">
        <ele>466</ele>
        <time>2015-06-24T17:22:17.000Z</time>
      </trkpt>
      <trkpt lat="47.44286" lon="6.71518">
        <ele>466</ele>
        <time>2015-06-24T17:22:18.000Z</time>
      </trkpt>
      <trkpt lat="47.44282" lon="6.71519">
        <ele>466</ele>
        <time>2015-06-24T17:22:19.000Z</time>
      </trkpt>
      <trkpt lat="47.44279" lon="6.7152">
        <ele>466</ele>
        <time>2015-06-24T17:22:20.000Z</time>
      </trkpt>
      <trkpt lat="47.44276" lon="6.71521">
        <ele>466</ele>
        <time>2015-06-24T17:22:21.000Z</time>
      </trkpt>
      <trkpt lat="47.44273" lon="6.71522">
        <ele>466</ele>
        <time>2015-06-24T17:22:22.000Z</time>
      </trkpt>
      <trkpt lat="47.44269" lon="6.71524">
        <ele>466</ele>
        <time>2015-06-24T17:22:23.000Z</time>
      </trkpt>
      <trkpt lat="47.44267" lon="6.71525">
        <ele>466</ele>
        <time>2015-06-24T17:22:24.000Z</time>
      </trkpt>
      <trkpt lat="47.44264" lon="6.71527">
        <ele>466</ele>
        <time>2015-06-24T17:22:25.000Z</time>
      </trkpt>
      <trkpt lat="47.44261" lon="6.71528">
        <ele>467</ele>
        <time>2015-06-24T17:22:26.000Z</time>
      </trkpt>
      <trkpt lat="47.44258" lon="6.7153">
        <ele>467</ele>
        <time>2015-06-24T17:22:27.000Z</time>
      </trkpt>
      <trkpt lat="47.44255" lon="6.71532">
        <ele>467</ele>
        <time>2015-06-24T17:22:28.000Z</time>
      </trkpt>
      <trkpt lat="47.44252" lon="6.71535">
        <ele>467</ele>
        <time>2015-06-24T17:22:29.000Z</time>
      </trkpt>
      <trkpt lat="47.44249" lon="6.71538">
        <ele>469</ele>
        <time>2015-06-24T17:22:30.000Z</time>
      </trkpt>
      <trkpt lat="47.44246" lon="6.71541">
        <ele>469</ele>
        <time>2015-06-24T17:22:31.000Z</time>
      </trkpt>
      <trkpt lat="47.44242" lon="6.71545">
        <ele>469</ele>
        <time>2015-06-24T17:22:32.000Z</time>
      </trkpt>
      <trkpt lat="47.44239" lon="6.7155">
        <ele>469</ele>
        <time>2015-06-24T17:22:33.000Z</time>
      </trkpt>
      <trkpt lat="47.44236" lon="6.71554">
        <ele>469</ele>
        <time>2015-06-24T17:22:34.000Z</time>
      </trkpt>
      <trkpt lat="47.44233" lon="6.71559">
        <ele>469</ele>
        <time>2015-06-24T17:22:35.000Z</time>
      </trkpt>
      <trkpt lat="47.44231" lon="6.71564">
        <ele>470</ele>
        <time>2015-06-24T17:22:36.000Z</time>
      </trkpt>
      <trkpt lat="47.4423" lon="6.71568">
        <ele>470</ele>
        <time>2015-06-24T17:22:37.000Z</time>
      </trkpt>
      <trkpt lat="47.44229" lon="6.71572">
        <ele>470</ele>
        <time>2015-06-24T17:22:38.000Z</time>
      </trkpt>
      <trkpt lat="47.44227" lon="6.71576">
        <ele>470</ele>
        <time>2015-06-24T17:22:39.000Z</time>
      </trkpt>
      <trkpt lat="47.44226" lon="6.7158">
        <ele>470</ele>
        <time>2015-06-24T17:22:40.000Z</time>
      </trkpt>
      <trkpt lat="47.44225" lon="6.71584">
        <ele>469</ele>
        <time>2015-06-24T17:22:41.000Z</time>
      </trkpt>
      <trkpt lat="47.44224" lon="6.71588">
        <ele>469</ele>
        <time>2015-06-24T17:22:42.000Z</time>
      </trkpt>
      <trkpt lat="47.44222" lon="6.71591">
        <ele>469</ele>
        <time>2015-06-24T17:22:43.000Z</time>
      </trkpt>
      <trkpt lat="47.44221" lon="6.71595">
        <ele>469</ele>
        <time>2015-06-24T17:22:44.000Z</time>
      </trkpt>
      <trkpt lat="47.4422" lon="6.71599">
        <ele>469</ele>
        <time>2015-06-24T17:22:45.000Z</time>
      </trkpt>
      <trkpt lat="47.44219" lon="6.71603">
        <ele>469</ele>
        <time>2015-06-24T17:22:46.000Z</time>
      </trkpt>
      <trkpt lat="47.44218" lon="6.71607">
        <ele>469</ele>
        <time>2015-06-24T17:22:47.000Z</time>
      </trkpt>
      <trkpt lat="47.44217" lon="6.71611">
        <ele>469</ele>
        <time>2015-06-24T17:22:48.000Z</time>
      </trkpt>
      <trkpt lat="47.44216" lon="6.71615">
        <ele>469</ele>
        <time>2015-06-24T17:22:49.000Z</time>
      </trkpt>
      <trkpt lat="47.44216" lon="6.71618">
        <ele>469</ele>
        <time>2015-06-24T17:22:50.000Z</time>
      </trkpt>
      <trkpt lat="47.44215" lon="6.71622">
        <ele>469</ele>
        <time>2015-06-24T17:22:51.000Z</time>
      </trkpt>
      <trkpt lat="47.44213" lon="6.71626">
        <ele>469</ele>
        <time>2015-06-24T17:22:52.000Z</time>
      </trkpt>
      <trkpt lat="47.44211" lon="6.71631">
        <ele>469</ele>
        <time>2015-06-24T17:22:53.000Z</time>
      </trkpt>
      <trkpt lat="47.44209" lon="6.71636">
        <ele>469</ele>
        <time>2015-06-24T17:22:54.000Z</time>
      </trkpt>
      <trkpt lat="47.44207" lon="6.71642">
        <ele>469</ele>
        <time>2015-06-24T17:22:55.000Z</time>
      </trkpt>
      <trkpt lat="47.44206" lon="6.71648">
        <ele>469</ele>
        <time>2015-06-24T17:22:56.000Z</time>
      </trkpt>
      <trkpt lat="47.44205" lon="6.71653">
        <ele>469</ele>
        <time>2015-06-24T17:22:57.000Z</time>
      </trkpt>
      <trkpt lat="47.44204" lon="6.71658">
        <ele>469</ele>
        <time>2015-06-24T17:22:58.000Z</time>
      </trkpt>
      <trkpt lat="47.44203" lon="6.71662">
        <ele>469</ele>
        <time>2015-06-24T17:22:59.000Z</time>
      </trkpt>
      <trkpt lat="47.44202" lon="6.71666">
        <ele>469</ele>
        <time>2015-06-24T17:23:00.000Z</time>
      </trkpt>
      <trkpt lat="47.44202" lon="6.7167">
        <ele>468</ele>
        <time>2015-06-24T17:23:01.000Z</time>
      </trkpt>
      <trkpt lat="47.44201" lon="6.71674">
        <ele>468</ele>
        <time>2015-06-24T17:23:02.000Z</time>
      </trkpt>
      <trkpt lat="47.44201" lon="6.71677">
        <ele>468</ele>
        <time>2015-06-24T17:23:03.000Z</time>
      </trkpt>
      <trkpt lat="47.442" lon="6.71681">
        <ele>468</ele>
        <time>2015-06-24T17:23:04.000Z</time>
      </trkpt>
      <trkpt lat="47.442" lon="6.71685">
        <ele>468</ele>
        <time>2015-06-24T17:23:05.000Z</time>
      </trkpt>
      <trkpt lat="47.44199" lon="6.71689">
        <ele>468</ele>
        <time>2015-06-24T17:23:06.000Z</time>
      </trkpt>
      <trkpt lat="47.44198" lon="6.71694">
        <ele>468</ele>
        <time>2015-06-24T17:23:07.000Z</time>
      </trkpt>
      <trkpt lat="47.44197" lon="6.717">
        <ele>468</ele>
        <time>2015-06-24T17:23:08.000Z</time>
      </trkpt>
      <trkpt lat="47.44197" lon="6.71706">
        <ele>468</ele>
        <time>2015-06-24T17:23:09.000Z</time>
      </trkpt>
      <trkpt lat="47.44197" lon="6.71712">
        <ele>468</ele>
        <time>2015-06-24T17:23:10.000Z</time>
      </trkpt>
      <trkpt lat="47.44197" lon="6.71718">
        <ele>468</ele>
        <time>2015-06-24T17:23:11.000Z</time>
      </trkpt>
      <trkpt lat="47.44197" lon="6.71724">
        <ele>468</ele>
        <time>2015-06-24T17:23:12.000Z</time>
      </trkpt>
      <trkpt lat="47.44197" lon="6.71729">
        <ele>468</ele>
        <time>2015-06-24T17:23:13.000Z</time>
      </trkpt>
      <trkpt lat="47.44198" lon="6.71733">
        <ele>468</ele>
        <time>2015-06-24T17:23:14.000Z</time>
      </trkpt>
      <trkpt lat="47.44198" lon="6.71737">
        <ele>468</ele>
        <time>2015-06-24T17:23:15.000Z</time>
      </trkpt>
      <trkpt lat="47.44199" lon="6.71741">
        <ele>468</ele>
        <time>2015-06-24T17:23:16.000Z</time>
      </trkpt>
      <trkpt lat="47.44199" lon="6.71745">
        <ele>468</ele>
        <time>2015-06-24T17:23:17.000Z</time>
      </trkpt>
      <trkpt lat="47.442" lon="6.7175">
        <ele>468</ele>
        <time>2015-06-24T17:23:18.000Z</time>
      </trkpt>
      <trkpt lat="47.442" lon="6.71754">
        <ele>469</ele>
        <time>2015-06-24T17:23:19.000Z</time>
      </trkpt>
      <trkpt lat="47.44201" lon="6.71759">
        <ele>469</ele>
        <time>2015-06-24T17:23:20.000Z</time>
      </trkpt>
      <trkpt lat="47.44202" lon="6.71764">
        <ele>469</ele>
        <time>2015-06-24T17:23:21.000Z</time>
      </trkpt>
      <trkpt lat="47.44202" lon="6.71768">
        <ele>469</ele>
        <time>2015-06-24T17:23:22.000Z</time>
      </trkpt>
      <trkpt lat="47.44202" lon="6.71772">
        <ele>469</ele>
        <time>2015-06-24T17:23:23.000Z</time>
      </trkpt>
      <trkpt lat="47.44203" lon="6.71776">
        <ele>469</ele>
        <time>2015-06-24T17:23:24.000Z</time>
      </trkpt>
      <trkpt lat="47.44203" lon="6.7178">
        <ele>469</ele>
        <time>2015-06-24T17:23:25.000Z</time>
      </trkpt>
      <trkpt lat="47.44204" lon="6.71783">
        <ele>469</ele>
        <time>2015-06-24T17:23:26.000Z</time>
      </trkpt>
      <trkpt lat="47.44205" lon="6.71786">
        <ele>469</ele>
        <time>2015-06-24T17:23:27.000Z</time>
      </trkpt>
      <trkpt lat="47.44208" lon="6.71791">
        <ele>469</ele>
        <time>2015-06-24T17:23:28.000Z</time>
      </trkpt>
      <trkpt lat="47.4421" lon="6.71796">
        <ele>470</ele>
        <time>2015-06-24T17:23:30.000Z</time>
      </trkpt>
      <trkpt lat="47.4421" lon="6.71797">
        <ele>470</ele>
        <time>2015-06-24T17:23:31.000Z</time>
      </trkpt>
      <trkpt lat="47.44212" lon="6.71802">
        <ele>470</ele>
        <time>2015-06-24T17:23:38.000Z</time>
      </trkpt>
      <trkpt lat="47.44213" lon="6.71804">
        <ele>470</ele>
        <time>2015-06-24T17:23:39.000Z</time>
      </trkpt>
      <trkpt lat="47.44214" lon="6.7181">
        <ele>470</ele>
        <time>2015-06-24T17:23:41.000Z</time>
      </trkpt>
      <trkpt lat="47.44214" lon="6.71813">
        <ele>470</ele>
        <time>2015-06-24T17:23:42.000Z</time>
      </trkpt>
      <trkpt lat="47.44215" lon="6.71818">
        <ele>470</ele>
        <time>2015-06-24T17:23:44.000Z</time>
      </trkpt>
      <trkpt lat="47.44215" lon="6.71821">
        <ele>470</ele>
        <time>2015-06-24T17:23:45.000Z</time>
      </trkpt>
      <trkpt lat="47.44215" lon="6.71827">
        <ele>470</ele>
        <time>2015-06-24T17:23:48.000Z</time>
      </trkpt>
      <trkpt lat="47.44215" lon="6.71829">
        <ele>470</ele>
        <time>2015-06-24T17:23:49.000Z</time>
      </trkpt>
      <trkpt lat="47.44214" lon="6.71835">
        <ele>471</ele>
        <time>2015-06-24T17:23:51.000Z</time>
      </trkpt>
      <trkpt lat="47.44214" lon="6.71838">
        <ele>471</ele>
        <time>2015-06-24T17:23:52.000Z</time>
      </trkpt>
      <trkpt lat="47.44214" lon="6.71843">
        <ele>471</ele>
        <time>2015-06-24T17:23:54.000Z</time>
      </trkpt>
      <trkpt lat="47.44213" lon="6.71846">
        <ele>471</ele>
        <time>2015-06-24T17:23:55.000Z</time>
      </trkpt>
      <trkpt lat="47.44215" lon="6.71851">
        <ele>471</ele>
        <time>2015-06-24T17:23:57.000Z</time>
      </trkpt>
      <trkpt lat="47.44216" lon="6.71854">
        <ele>471</ele>
        <time>2015-06-24T17:23:58.000Z</time>
      </trkpt>
      <trkpt lat="47.44216" lon="6.71858">
        <ele>471</ele>
        <time>2015-06-24T17:23:59.000Z</time>
      </trkpt>
      <trkpt lat="47.44216" lon="6.71861">
        <ele>471</ele>
        <time>2015-06-24T17:24:00.000Z</time>
      </trkpt>
      <trkpt lat="47.44216" lon="6.71867">
        <ele>472</ele>
        <time>2015-06-24T17:24:02.000Z</time>
      </trkpt>
      <trkpt lat="47.44217" lon="6.7187">
        <ele>472</ele>
        <time>2015-06-24T17:24:03.000Z</time>
      </trkpt>
      <trkpt lat="47.44217" lon="6.71876">
        <ele>472</ele>
        <time>2015-06-24T17:24:05.000Z</time>
      </trkpt>
      <trkpt lat="47.44218" lon="6.71879">
        <ele>472</ele>
        <time>2015-06-24T17:24:06.000Z</time>
      </trkpt>
      <trkpt lat="47.44219" lon="6.71883">
        <ele>472</ele>
        <time>2015-06-24T17:24:07.000Z</time>
      </trkpt>
      <trkpt lat="47.4422" lon="6.71887">
        <ele>472</ele>
        <time>2015-06-24T17:24:08.000Z</time>
      </trkpt>
      <trkpt lat="47.4422" lon="6.71891">
        <ele>472</ele>
        <time>2015-06-24T17:24:09.000Z</time>
      </trkpt>
      <trkpt lat="47.44221" lon="6.71896">
        <ele>472</ele>
        <time>2015-06-24T17:24:10.000Z</time>
      </trkpt>
      <trkpt lat="47.44222" lon="6.71901">
        <ele>472</ele>
        <time>2015-06-24T17:24:11.000Z</time>
      </trkpt>
      <trkpt lat="47.44223" lon="6.71906">
        <ele>472</ele>
        <time>2015-06-24T17:24:12.000Z</time>
      </trkpt>
      <trkpt lat="47.44225" lon="6.71911">
        <ele>472</ele>
        <time>2015-06-24T17:24:13.000Z</time>
      </trkpt>
      <trkpt lat="47.44226" lon="6.71916">
        <ele>472</ele>
        <time>2015-06-24T17:24:14.000Z</time>
      </trkpt>
      <trkpt lat="47.44229" lon="6.7192">
        <ele>473</ele>
        <time>2015-06-24T17:24:15.000Z</time>
      </trkpt>
      <trkpt lat="47.44232" lon="6.71923">
        <ele>473</ele>
        <time>2015-06-24T17:24:16.000Z</time>
      </trkpt>
      <trkpt lat="47.44234" lon="6.71927">
        <ele>473</ele>
        <time>2015-06-24T17:24:17.000Z</time>
      </trkpt>
      <trkpt lat="47.44237" lon="6.7193">
        <ele>473</ele>
        <time>2015-06-24T17:24:18.000Z</time>
      </trkpt>
      <trkpt lat="47.44238" lon="6.71932">
        <ele>473</ele>
        <time>2015-06-24T17:24:19.000Z</time>
      </trkpt>
      <trkpt lat="47.44239" lon="6.71935">
        <ele>473</ele>
        <time>2015-06-24T17:24:20.000Z</time>
      </trkpt>
      <trkpt lat="47.44241" lon="6.71939">
        <ele>473</ele>
        <time>2015-06-24T17:24:22.000Z</time>
      </trkpt>
      <trkpt lat="47.44241" lon="6.71942">
        <ele>473</ele>
        <time>2015-06-24T17:24:23.000Z</time>
      </trkpt>
      <trkpt lat="47.44243" lon="6.71947">
        <ele>473</ele>
        <time>2015-06-24T17:24:25.000Z</time>
      </trkpt>
      <trkpt lat="47.44244" lon="6.71949">
        <ele>473</ele>
        <time>2015-06-24T17:24:26.000Z</time>
      </trkpt>
      <trkpt lat="47.44246" lon="6.71952">
        <ele>473</ele>
        <time>2015-06-24T17:24:28.000Z</time>
      </trkpt>
      <trkpt lat="47.44247" lon="6.71954">
        <ele>473</ele>
        <time>2015-06-24T17:24:29.000Z</time>
      </trkpt>
      <trkpt lat="47.44248" lon="6.71957">
        <ele>473</ele>
        <time>2015-06-24T17:24:30.000Z</time>
      </trkpt>
      <trkpt lat="47.4425" lon="6.7196">
        <ele>473</ele>
        <time>2015-06-24T17:24:31.000Z</time>
      </trkpt>
      <trkpt lat="47.44253" lon="6.71964">
        <ele>472</ele>
        <time>2015-06-24T17:24:33.000Z</time>
      </trkpt>
      <trkpt lat="47.44254" lon="6.71966">
        <ele>472</ele>
        <time>2015-06-24T17:24:34.000Z</time>
      </trkpt>
      <trkpt lat="47.44256" lon="6.71968">
        <ele>472</ele>
        <time>2015-06-24T17:24:35.000Z</time>
      </trkpt>
      <trkpt lat="47.44258" lon="6.71971">
        <ele>472</ele>
        <time>2015-06-24T17:24:36.000Z</time>
      </trkpt>
      <trkpt lat="47.4426" lon="6.71973">
        <ele>472</ele>
        <time>2015-06-24T17:24:37.000Z</time>
      </trkpt>
      <trkpt lat="47.44263" lon="6.71975">
        <ele>472</ele>
        <time>2015-06-24T17:24:38.000Z</time>
      </trkpt>
      <trkpt lat="47.44266" lon="6.71977">
        <ele>472</ele>
        <time>2015-06-24T17:24:39.000Z</time>
      </trkpt>
      <trkpt lat="47.44269" lon="6.71979">
        <ele>472</ele>
        <time>2015-06-24T17:24:40.000Z</time>
      </trkpt>
      <trkpt lat="47.44271" lon="6.7198">
        <ele>472</ele>
        <time>2015-06-24T17:24:41.000Z</time>
      </trkpt>
      <trkpt lat="47.44274" lon="6.71982">
        <ele>472</ele>
        <time>2015-06-24T17:24:42.000Z</time>
      </trkpt>
      <trkpt lat="47.44277" lon="6.71984">
        <ele>472</ele>
        <time>2015-06-24T17:24:43.000Z</time>
      </trkpt>
      <trkpt lat="47.4428" lon="6.71986">
        <ele>472</ele>
        <time>2015-06-24T17:24:44.000Z</time>
      </trkpt>
      <trkpt lat="47.44283" lon="6.71989">
        <ele>472</ele>
        <time>2015-06-24T17:24:45.000Z</time>
      </trkpt>
      <trkpt lat="47.44287" lon="6.71992">
        <ele>472</ele>
        <time>2015-06-24T17:24:46.000Z</time>
      </trkpt>
      <trkpt lat="47.4429" lon="6.71995">
        <ele>472</ele>
        <time>2015-06-24T17:24:47.000Z</time>
      </trkpt>
      <trkpt lat="47.44293" lon="6.71998">
        <ele>472</ele>
        <time>2015-06-24T17:24:48.000Z</time>
      </trkpt>
      <trkpt lat="47.44296" lon="6.72001">
        <ele>473</ele>
        <time>2015-06-24T17:24:49.000Z</time>
      </trkpt>
      <trkpt lat="47.44299" lon="6.72003">
        <ele>473</ele>
        <time>2015-06-24T17:24:50.000Z</time>
      </trkpt>
      <trkpt lat="47.44303" lon="6.72004">
        <ele>473</ele>
        <time>2015-06-24T17:24:51.000Z</time>
      </trkpt>
      <trkpt lat="47.44306" lon="6.72006">
        <ele>473</ele>
        <time>2015-06-24T17:24:52.000Z</time>
      </trkpt>
      <trkpt lat="47.4431" lon="6.72008">
        <ele>472</ele>
        <time>2015-06-24T17:24:53.000Z</time>
      </trkpt>
      <trkpt lat="47.44313" lon="6.7201">
        <ele>472</ele>
        <time>2015-06-24T17:24:54.000Z</time>
      </trkpt>
      <trkpt lat="47.44317" lon="6.72011">
        <ele>472</ele>
        <time>2015-06-24T17:24:55.000Z</time>
      </trkpt>
      <trkpt lat="47.44321" lon="6.72013">
        <ele>472</ele>
        <time>2015-06-24T17:24:56.000Z</time>
      </trkpt>
      <trkpt lat="47.44324" lon="6.72015">
        <ele>472</ele>
        <time>2015-06-24T17:24:57.000Z</time>
      </trkpt>
      <trkpt lat="47.44327" lon="6.72016">
        <ele>472</ele>
        <time>2015-06-24T17:24:58.000Z</time>
      </trkpt>
      <trkpt lat="47.44331" lon="6.72017">
        <ele>472</ele>
        <time>2015-06-24T17:24:59.000Z</time>
      </trkpt>
      <trkpt lat="47.44335" lon="6.72019">
        <ele>470</ele>
        <time>2015-06-24T17:25:00.000Z</time>
      </trkpt>
      <trkpt lat="47.44339" lon="6.72022">
        <ele>470</ele>
        <time>2015-06-24T17:25:01.000Z</time>
      </trkpt>
      <trkpt lat="47.44342" lon="6.72025">
        <ele>470</ele>
        <time>2015-06-24T17:25:02.000Z</time>
      </trkpt>
      <trkpt lat="47.44346" lon="6.72028">
        <ele>470</ele>
        <time>2015-06-24T17:25:03.000Z</time>
      </trkpt>
      <trkpt lat="47.44349" lon="6.72031">
        <ele>470</ele>
        <time>2015-06-24T17:25:04.000Z</time>
      </trkpt>
      <trkpt lat="47.44352" lon="6.72033">
        <ele>470</ele>
        <time>2015-06-24T17:25:05.000Z</time>
      </trkpt>
      <trkpt lat="47.44355" lon="6.72034">
        <ele>469</ele>
        <time>2015-06-24T17:25:06.000Z</time>
      </trkpt>
      <trkpt lat="47.44358" lon="6.72036">
        <ele>469</ele>
        <time>2015-06-24T17:25:07.000Z</time>
      </trkpt>
      <trkpt lat="47.44362" lon="6.72038">
        <ele>469</ele>
        <time>2015-06-24T17:25:08.000Z</time>
      </trkpt>
      <trkpt lat="47.44365" lon="6.7204">
        <ele>469</ele>
        <time>2015-06-24T17:25:09.000Z</time>
      </trkpt>
      <trkpt lat="47.4437" lon="6.72043">
        <ele>469</ele>
        <time>2015-06-24T17:25:10.000Z</time>
      </trkpt>
      <trkpt lat="47.44375" lon="6.72046">
        <ele>469</ele>
        <time>2015-06-24T17:25:11.000Z</time>
      </trkpt>
      <trkpt lat="47.44379" lon="6.72049">
        <ele>468</ele>
        <time>2015-06-24T17:25:12.000Z</time>
      </trkpt>
      <trkpt lat="47.44383" lon="6.72051">
        <ele>468</ele>
        <time>2015-06-24T17:25:13.000Z</time>
      </trkpt>
      <trkpt lat="47.44387" lon="6.72053">
        <ele>468</ele>
        <time>2015-06-24T17:25:14.000Z</time>
      </trkpt>
      <trkpt lat="47.44389" lon="6.72055">
        <ele>468</ele>
        <time>2015-06-24T17:25:15.000Z</time>
      </trkpt>
      <trkpt lat="47.44392" lon="6.72056">
        <ele>468</ele>
        <time>2015-06-24T17:25:16.000Z</time>
      </trkpt>
      <trkpt lat="47.44395" lon="6.7206">
        <ele>468</ele>
        <time>2015-06-24T17:25:18.000Z</time>
      </trkpt>
      <trkpt lat="47.44397" lon="6.72061">
        <ele>468</ele>
        <time>2015-06-24T17:25:19.000Z</time>
      </trkpt>
      <trkpt lat="47.44399" lon="6.72064">
        <ele>468</ele>
        <time>2015-06-24T17:25:21.000Z</time>
      </trkpt>
      <trkpt lat="47.44401" lon="6.72065">
        <ele>467</ele>
        <time>2015-06-24T17:25:22.000Z</time>
      </trkpt>
      <trkpt lat="47.44402" lon="6.72068">
        <ele>467</ele>
        <time>2015-06-24T17:25:23.000Z</time>
      </trkpt>
      <trkpt lat="47.44404" lon="6.72071">
        <ele>467</ele>
        <time>2015-06-24T17:25:24.000Z</time>
      </trkpt>
      <trkpt lat="47.44405" lon="6.72074">
        <ele>467</ele>
        <time>2015-06-24T17:25:25.000Z</time>
      </trkpt>
      <trkpt lat="47.44416" lon="6.72094">
        <ele>467</ele>
        <time>2015-06-24T17:25:26.000Z</time>
      </trkpt>
      <trkpt lat="47.44418" lon="6.721">
        <ele>465</ele>
        <time>2015-06-24T17:25:27.000Z</time>
      </trkpt>
      <trkpt lat="47.44419" lon="6.72106">
        <ele>465</ele>
        <time>2015-06-24T17:25:29.000Z</time>
      </trkpt>
      <trkpt lat="47.4442" lon="6.72108">
        <ele>465</ele>
        <time>2015-06-24T17:25:30.000Z</time>
      </trkpt>
      <trkpt lat="47.4442" lon="6.72114">
        <ele>465</ele>
        <time>2015-06-24T17:25:32.000Z</time>
      </trkpt>
      <trkpt lat="47.44422" lon="6.72119">
        <ele>465</ele>
        <time>2015-06-24T17:25:33.000Z</time>
      </trkpt>
      <trkpt lat="47.44423" lon="6.72124">
        <ele>465</ele>
        <time>2015-06-24T17:25:34.000Z</time>
      </trkpt>
      <trkpt lat="47.44424" lon="6.72128">
        <ele>465</ele>
        <time>2015-06-24T17:25:35.000Z</time>
      </trkpt>
      <trkpt lat="47.44424" lon="6.72132">
        <ele>465</ele>
        <time>2015-06-24T17:25:36.000Z</time>
      </trkpt>
      <trkpt lat="47.44425" lon="6.72136">
        <ele>465</ele>
        <time>2015-06-24T17:25:37.000Z</time>
      </trkpt>
      <trkpt lat="47.44425" lon="6.7214">
        <ele>465</ele>
        <time>2015-06-24T17:25:38.000Z</time>
      </trkpt>
      <trkpt lat="47.44425" lon="6.72143">
        <ele>465</ele>
        <time>2015-06-24T17:25:39.000Z</time>
      </trkpt>
      <trkpt lat="47.44425" lon="6.72149">
        <ele>465</ele>
        <time>2015-06-24T17:25:41.000Z</time>
      </trkpt>
      <trkpt lat="47.44425" lon="6.72151">
        <ele>466</ele>
        <time>2015-06-24T17:25:42.000Z</time>
      </trkpt>
      <trkpt lat="47.44425" lon="6.72157">
        <ele>466</ele>
        <time>2015-06-24T17:25:44.000Z</time>
      </trkpt>
      <trkpt lat="47.44426" lon="6.7216">
        <ele>466</ele>
        <time>2015-06-24T17:25:45.000Z</time>
      </trkpt>
      <trkpt lat="47.44426" lon="6.72164">
        <ele>466</ele>
        <time>2015-06-24T17:25:46.000Z</time>
      </trkpt>
      <trkpt lat="47.44428" lon="6.72169">
        <ele>467</ele>
        <time>2015-06-24T17:25:47.000Z</time>
      </trkpt>
      <trkpt lat="47.44429" lon="6.72174">
        <ele>467</ele>
        <time>2015-06-24T17:25:48.000Z</time>
      </trkpt>
      <trkpt lat="47.4443" lon="6.72179">
        <ele>467</ele>
        <time>2015-06-24T17:25:49.000Z</time>
      </trkpt>
      <trkpt lat="47.44432" lon="6.72184">
        <ele>467</ele>
        <time>2015-06-24T17:25:50.000Z</time>
      </trkpt>
      <trkpt lat="47.44433" lon="6.7219">
        <ele>467</ele>
        <time>2015-06-24T17:25:51.000Z</time>
      </trkpt>
      <trkpt lat="47.44435" lon="6.72195">
        <ele>468</ele>
        <time>2015-06-24T17:25:52.000Z</time>
      </trkpt>
      <trkpt lat="47.44437" lon="6.72199">
        <ele>468</ele>
        <time>2015-06-24T17:25:53.000Z</time>
      </trkpt>
      <trkpt lat="47.44439" lon="6.72204">
        <ele>468</ele>
        <time>2015-06-24T17:25:54.000Z</time>
      </trkpt>
      <trkpt lat="47.4444" lon="6.72208">
        <ele>468</ele>
        <time>2015-06-24T17:25:55.000Z</time>
      </trkpt>
      <trkpt lat="47.44441" lon="6.72211">
        <ele>468</ele>
        <time>2015-06-24T17:25:56.000Z</time>
      </trkpt>
      <trkpt lat="47.44442" lon="6.72215">
        <ele>468</ele>
        <time>2015-06-24T17:25:57.000Z</time>
      </trkpt>
      <trkpt lat="47.44443" lon="6.72218">
        <ele>468</ele>
        <time>2015-06-24T17:25:58.000Z</time>
      </trkpt>
      <trkpt lat="47.44444" lon="6.72222">
        <ele>468</ele>
        <time>2015-06-24T17:25:59.000Z</time>
      </trkpt>
      <trkpt lat="47.44445" lon="6.72227">
        <ele>468</ele>
        <time>2015-06-24T17:26:00.000Z</time>
      </trkpt>
      <trkpt lat="47.44446" lon="6.72231">
        <ele>468</ele>
        <time>2015-06-24T17:26:01.000Z</time>
      </trkpt>
      <trkpt lat="47.44447" lon="6.72236">
        <ele>469</ele>
        <time>2015-06-24T17:26:03.000Z</time>
      </trkpt>
      <trkpt lat="47.44448" lon="6.72239">
        <ele>469</ele>
        <time>2015-06-24T17:26:04.000Z</time>
      </trkpt>
      <trkpt lat="47.44449" lon="6.72245">
        <ele>469</ele>
        <time>2015-06-24T17:26:06.000Z</time>
      </trkpt>
      <trkpt lat="47.44449" lon="6.72249">
        <ele>469</ele>
        <time>2015-06-24T17:26:07.000Z</time>
      </trkpt>
      <trkpt lat="47.44449" lon="6.72253">
        <ele>472</ele>
        <time>2015-06-24T17:26:08.000Z</time>
      </trkpt>
      <trkpt lat="47.4445" lon="6.72256">
        <ele>472</ele>
        <time>2015-06-24T17:26:09.000Z</time>
      </trkpt>
      <trkpt lat="47.4445" lon="6.7226">
        <ele>472</ele>
        <time>2015-06-24T17:26:10.000Z</time>
      </trkpt>
      <trkpt lat="47.4445" lon="6.72264">
        <ele>472</ele>
        <time>2015-06-24T17:26:11.000Z</time>
      </trkpt>
      <trkpt lat="47.44451" lon="6.72268">
        <ele>472</ele>
        <time>2015-06-24T17:26:12.000Z</time>
      </trkpt>
      <trkpt lat="47.44451" lon="6.72271">
        <ele>472</ele>
        <time>2015-06-24T17:26:13.000Z</time>
      </trkpt>
      <trkpt lat="47.44452" lon="6.72275">
        <ele>472</ele>
        <time>2015-06-24T17:26:14.000Z</time>
      </trkpt>
      <trkpt lat="47.44452" lon="6.72279">
        <ele>472</ele>
        <time>2015-06-24T17:26:15.000Z</time>
      </trkpt>
      <trkpt lat="47.44453" lon="6.72283">
        <ele>472</ele>
        <time>2015-06-24T17:26:16.000Z</time>
      </trkpt>
      <trkpt lat="47.44453" lon="6.72286">
        <ele>472</ele>
        <time>2015-06-24T17:26:17.000Z</time>
      </trkpt>
      <trkpt lat="47.44453" lon="6.7229">
        <ele>472</ele>
        <time>2015-06-24T17:26:18.000Z</time>
      </trkpt>
      <trkpt lat="47.44454" lon="6.72294">
        <ele>472</ele>
        <time>2015-06-24T17:26:19.000Z</time>
      </trkpt>
      <trkpt lat="47.44454" lon="6.72298">
        <ele>472</ele>
        <time>2015-06-24T17:26:20.000Z</time>
      </trkpt>
      <trkpt lat="47.44455" lon="6.72301">
        <ele>473</ele>
        <time>2015-06-24T17:26:21.000Z</time>
      </trkpt>
      <trkpt lat="47.44455" lon="6.72305">
        <ele>473</ele>
        <time>2015-06-24T17:26:22.000Z</time>
      </trkpt>
      <trkpt lat="47.44456" lon="6.72309">
        <ele>473</ele>
        <time>2015-06-24T17:26:23.000Z</time>
      </trkpt>
      <trkpt lat="47.44457" lon="6.72312">
        <ele>473</ele>
        <time>2015-06-24T17:26:24.000Z</time>
      </trkpt>
      <trkpt lat="47.44457" lon="6.72316">
        <ele>473</ele>
        <time>2015-06-24T17:26:25.000Z</time>
      </trkpt>
      <trkpt lat="47.44459" lon="6.72321">
        <ele>473</ele>
        <time>2015-06-24T17:26:27.000Z</time>
      </trkpt>
      <trkpt lat="47.4446" lon="6.72324">
        <ele>473</ele>
        <time>2015-06-24T17:26:28.000Z</time>
      </trkpt>
      <trkpt lat="47.44462" lon="6.72328">
        <ele>473</ele>
        <time>2015-06-24T17:26:30.000Z</time>
      </trkpt>
      <trkpt lat="47.44463" lon="6.7233">
        <ele>473</ele>
        <time>2015-06-24T17:26:31.000Z</time>
      </trkpt>
      <trkpt lat="47.44465" lon="6.72335">
        <ele>477</ele>
        <time>2015-06-24T17:26:35.000Z</time>
      </trkpt>
      <trkpt lat="47.44466" lon="6.72335">
        <ele>477</ele>
        <time>2015-06-24T17:26:36.000Z</time>
      </trkpt>
      <trkpt lat="47.44468" lon="6.72338">
        <ele>477</ele>
        <time>2015-06-24T17:26:39.000Z</time>
      </trkpt>
      <trkpt lat="47.4447" lon="6.7234">
        <ele>477</ele>
        <time>2015-06-24T17:26:40.000Z</time>
      </trkpt>
      <trkpt lat="47.44472" lon="6.72345">
        <ele>477</ele>
        <time>2015-06-24T17:26:42.000Z</time>
      </trkpt>
      <trkpt lat="47.44474" lon="6.72348">
        <ele>477</ele>
        <time>2015-06-24T17:26:43.000Z</time>
      </trkpt>
      <trkpt lat="47.44476" lon="6.72351">
        <ele>478</ele>
        <time>2015-06-24T17:26:44.000Z</time>
      </trkpt>
      <trkpt lat="47.44477" lon="6.72354">
        <ele>478</ele>
        <time>2015-06-24T17:26:45.000Z</time>
      </trkpt>
      <trkpt lat="47.44479" lon="6.72357">
        <ele>478</ele>
        <time>2015-06-24T17:26:46.000Z</time>
      </trkpt>
      <trkpt lat="47.4448" lon="6.7236">
        <ele>478</ele>
        <time>2015-06-24T17:26:47.000Z</time>
      </trkpt>
      <trkpt lat="47.44482" lon="6.72363">
        <ele>478</ele>
        <time>2015-06-24T17:26:48.000Z</time>
      </trkpt>
      <trkpt lat="47.44483" lon="6.72366">
        <ele>478</ele>
        <time>2015-06-24T17:26:49.000Z</time>
      </trkpt>
      <trkpt lat="47.44485" lon="6.7237">
        <ele>478</ele>
        <time>2015-06-24T17:26:50.000Z</time>
      </trkpt>
      <trkpt lat="47.44486" lon="6.72373">
        <ele>479</ele>
        <time>2015-06-24T17:26:51.000Z</time>
      </trkpt>
      <trkpt lat="47.44487" lon="6.72377">
        <ele>479</ele>
        <time>2015-06-24T17:26:53.000Z</time>
      </trkpt>
      <trkpt lat="47.44487" lon="6.72379">
        <ele>479</ele>
        <time>2015-06-24T17:26:54.000Z</time>
      </trkpt>
      <trkpt lat="47.44487" lon="6.72385">
        <ele>479</ele>
        <time>2015-06-24T17:26:57.000Z</time>
      </trkpt>
      <trkpt lat="47.44488" lon="6.72388">
        <ele>480</ele>
        <time>2015-06-24T17:26:58.000Z</time>
      </trkpt>
      <trkpt lat="47.44489" lon="6.72392">
        <ele>480</ele>
        <time>2015-06-24T17:27:00.000Z</time>
      </trkpt>
      <trkpt lat="47.44489" lon="6.72395">
        <ele>480</ele>
        <time>2015-06-24T17:27:01.000Z</time>
      </trkpt>
      <trkpt lat="47.44491" lon="6.72401">
        <ele>481</ele>
        <time>2015-06-24T17:27:03.000Z</time>
      </trkpt>
      <trkpt lat="47.44491" lon="6.72404">
        <ele>481</ele>
        <time>2015-06-24T17:27:04.000Z</time>
      </trkpt>
      <trkpt lat="47.44492" lon="6.72411">
        <ele>482</ele>
        <time>2015-06-24T17:27:06.000Z</time>
      </trkpt>
      <trkpt lat="47.44492" lon="6.72414">
        <ele>482</ele>
        <time>2015-06-24T17:27:07.000Z</time>
      </trkpt>
      <trkpt lat="47.44494" lon="6.7242">
        <ele>483</ele>
        <time>2015-06-24T17:27:09.000Z</time>
      </trkpt>
      <trkpt lat="47.44494" lon="6.72423">
        <ele>483</ele>
        <time>2015-06-24T17:27:10.000Z</time>
      </trkpt>
      <trkpt lat="47.44495" lon="6.72426">
        <ele>483</ele>
        <time>2015-06-24T17:27:11.000Z</time>
      </trkpt>
      <trkpt lat="47.44495" lon="6.7243">
        <ele>483</ele>
        <time>2015-06-24T17:27:12.000Z</time>
      </trkpt>
      <trkpt lat="47.44496" lon="6.72434">
        <ele>483</ele>
        <time>2015-06-24T17:27:13.000Z</time>
      </trkpt>
      <trkpt lat="47.44496" lon="6.72438">
        <ele>483</ele>
        <time>2015-06-24T17:27:14.000Z</time>
      </trkpt>
      <trkpt lat="47.44497" lon="6.72443">
        <ele>482</ele>
        <time>2015-06-24T17:27:15.000Z</time>
      </trkpt>
      <trkpt lat="47.44498" lon="6.72447">
        <ele>482</ele>
        <time>2015-06-24T17:27:16.000Z</time>
      </trkpt>
      <trkpt lat="47.44499" lon="6.72452">
        <ele>482</ele>
        <time>2015-06-24T17:27:17.000Z</time>
      </trkpt>
      <trkpt lat="47.445" lon="6.72456">
        <ele>484</ele>
        <time>2015-06-24T17:27:18.000Z</time>
      </trkpt>
      <trkpt lat="47.44501" lon="6.7246">
        <ele>484</ele>
        <time>2015-06-24T17:27:19.000Z</time>
      </trkpt>
      <trkpt lat="47.44503" lon="6.72464">
        <ele>484</ele>
        <time>2015-06-24T17:27:20.000Z</time>
      </trkpt>
      <trkpt lat="47.44504" lon="6.72468">
        <ele>484</ele>
        <time>2015-06-24T17:27:21.000Z</time>
      </trkpt>
      <trkpt lat="47.44505" lon="6.72473">
        <ele>484</ele>
        <time>2015-06-24T17:27:22.000Z</time>
      </trkpt>
      <trkpt lat="47.44506" lon="6.72478">
        <ele>484</ele>
        <time>2015-06-24T17:27:23.000Z</time>
      </trkpt>
      <trkpt lat="47.44507" lon="6.72483">
        <ele>484</ele>
        <time>2015-06-24T17:27:24.000Z</time>
      </trkpt>
      <trkpt lat="47.44509" lon="6.72488">
        <ele>484</ele>
        <time>2015-06-24T17:27:25.000Z</time>
      </trkpt>
      <trkpt lat="47.4451" lon="6.72494">
        <ele>484</ele>
        <time>2015-06-24T17:27:26.000Z</time>
      </trkpt>
      <trkpt lat="47.44511" lon="6.72498">
        <ele>484</ele>
        <time>2015-06-24T17:27:27.000Z</time>
      </trkpt>
      <trkpt lat="47.44512" lon="6.72503">
        <ele>484</ele>
        <time>2015-06-24T17:27:28.000Z</time>
      </trkpt>
      <trkpt lat="47.44513" lon="6.72507">
        <ele>484</ele>
        <time>2015-06-24T17:27:29.000Z</time>
      </trkpt>
      <trkpt lat="47.44514" lon="6.72512">
        <ele>484</ele>
        <time>2015-06-24T17:27:30.000Z</time>
      </trkpt>
      <trkpt lat="47.44515" lon="6.72516">
        <ele>484</ele>
        <time>2015-06-24T17:27:31.000Z</time>
      </trkpt>
      <trkpt lat="47.44516" lon="6.7252">
        <ele>484</ele>
        <time>2015-06-24T17:27:32.000Z</time>
      </trkpt>
      <trkpt lat="47.44517" lon="6.72525">
        <ele>484</ele>
        <time>2015-06-24T17:27:33.000Z</time>
      </trkpt>
      <trkpt lat="47.44518" lon="6.72529">
        <ele>484</ele>
        <time>2015-06-24T17:27:34.000Z</time>
      </trkpt>
      <trkpt lat="47.44519" lon="6.72534">
        <ele>484</ele>
        <time>2015-06-24T17:27:35.000Z</time>
      </trkpt>
      <trkpt lat="47.44521" lon="6.72539">
        <ele>484</ele>
        <time>2015-06-24T17:27:36.000Z</time>
      </trkpt>
      <trkpt lat="47.44523" lon="6.72544">
        <ele>484</ele>
        <time>2015-06-24T17:27:37.000Z</time>
      </trkpt>
      <trkpt lat="47.44525" lon="6.7255">
        <ele>484</ele>
        <time>2015-06-24T17:27:38.000Z</time>
      </trkpt>
      <trkpt lat="47.44527" lon="6.72555">
        <ele>484</ele>
        <time>2015-06-24T17:27:39.000Z</time>
      </trkpt>
      <trkpt lat="47.44529" lon="6.7256">
        <ele>484</ele>
        <time>2015-06-24T17:27:40.000Z</time>
      </trkpt>
      <trkpt lat="47.44531" lon="6.72566">
        <ele>484</ele>
        <time>2015-06-24T17:27:41.000Z</time>
      </trkpt>
      <trkpt lat="47.44532" lon="6.72572">
        <ele>484</ele>
        <time>2015-06-24T17:27:42.000Z</time>
      </trkpt>
      <trkpt lat="47.44533" lon="6.72578">
        <ele>483</ele>
        <time>2015-06-24T17:27:43.000Z</time>
      </trkpt>
      <trkpt lat="47.44534" lon="6.72585">
        <ele>482</ele>
        <time>2015-06-24T17:27:44.000Z</time>
      </trkpt>
      <trkpt lat="47.44535" lon="6.72591">
        <ele>482</ele>
        <time>2015-06-24T17:27:45.000Z</time>
      </trkpt>
      <trkpt lat="47.44537" lon="6.72598">
        <ele>482</ele>
        <time>2015-06-24T17:27:46.000Z</time>
      </trkpt>
      <trkpt lat="47.44538" lon="6.72606">
        <ele>482</ele>
        <time>2015-06-24T17:27:47.000Z</time>
      </trkpt>
      <trkpt lat="47.4454" lon="6.72614">
        <ele>482</ele>
        <time>2015-06-24T17:27:48.000Z</time>
      </trkpt>
      <trkpt lat="47.44542" lon="6.72622">
        <ele>482</ele>
        <time>2015-06-24T17:27:49.000Z</time>
      </trkpt>
      <trkpt lat="47.44544" lon="6.7263">
        <ele>482</ele>
        <time>2015-06-24T17:27:50.000Z</time>
      </trkpt>
      <trkpt lat="47.44545" lon="6.72637">
        <ele>482</ele>
        <time>2015-06-24T17:27:51.000Z</time>
      </trkpt>
      <trkpt lat="47.44547" lon="6.72645">
        <ele>482</ele>
        <time>2015-06-24T17:27:52.000Z</time>
      </trkpt>
      <trkpt lat="47.44548" lon="6.72651">
        <ele>482</ele>
        <time>2015-06-24T17:27:53.000Z</time>
      </trkpt>
      <trkpt lat="47.44557" lon="6.72669">
        <ele>481</ele>
        <time>2015-06-24T17:27:54.000Z</time>
      </trkpt>
      <trkpt lat="47.4456" lon="6.72678">
        <ele>481</ele>
        <time>2015-06-24T17:27:55.000Z</time>
      </trkpt>
      <trkpt lat="47.44561" lon="6.72682">
        <ele>481</ele>
        <time>2015-06-24T17:27:56.000Z</time>
      </trkpt>
      <trkpt lat="47.44561" lon="6.72685">
        <ele>481</ele>
        <time>2015-06-24T17:27:57.000Z</time>
      </trkpt>
      <trkpt lat="47.44562" lon="6.72689">
        <ele>481</ele>
        <time>2015-06-24T17:27:58.000Z</time>
      </trkpt>
      <trkpt lat="47.44564" lon="6.72696">
        <ele>481</ele>
        <time>2015-06-24T17:27:59.000Z</time>
      </trkpt>
      <trkpt lat="47.44567" lon="6.72702">
        <ele>481</ele>
        <time>2015-06-24T17:28:00.000Z</time>
      </trkpt>
      <trkpt lat="47.44569" lon="6.72709">
        <ele>481</ele>
        <time>2015-06-24T17:28:01.000Z</time>
      </trkpt>
      <trkpt lat="47.44573" lon="6.72714">
        <ele>481</ele>
        <time>2015-06-24T17:28:02.000Z</time>
      </trkpt>
      <trkpt lat="47.44575" lon="6.7272">
        <ele>481</ele>
        <time>2015-06-24T17:28:03.000Z</time>
      </trkpt>
      <trkpt lat="47.44577" lon="6.72726">
        <ele>481</ele>
        <time>2015-06-24T17:28:04.000Z</time>
      </trkpt>
      <trkpt lat="47.4458" lon="6.72731">
        <ele>481</ele>
        <time>2015-06-24T17:28:05.000Z</time>
      </trkpt>
      <trkpt lat="47.44582" lon="6.72737">
        <ele>481</ele>
        <time>2015-06-24T17:28:06.000Z</time>
      </trkpt>
      <trkpt lat="47.44587" lon="6.72751">
        <ele>482</ele>
        <time>2015-06-24T17:28:07.000Z</time>
      </trkpt>
      <trkpt lat="47.44589" lon="6.72759">
        <ele>481</ele>
        <time>2015-06-24T17:28:08.000Z</time>
      </trkpt>
      <trkpt lat="47.44592" lon="6.72765">
        <ele>481</ele>
        <time>2015-06-24T17:28:09.000Z</time>
      </trkpt>
      <trkpt lat="47.44592" lon="6.72772">
        <ele>481</ele>
        <time>2015-06-24T17:28:10.000Z</time>
      </trkpt>
      <trkpt lat="47.44595" lon="6.72781">
        <ele>481</ele>
        <time>2015-06-24T17:28:11.000Z</time>
      </trkpt>
      <trkpt lat="47.44597" lon="6.72789">
        <ele>481</ele>
        <time>2015-06-24T17:28:12.000Z</time>
      </trkpt>
      <trkpt lat="47.44598" lon="6.72796">
        <ele>481</ele>
        <time>2015-06-24T17:28:13.000Z</time>
      </trkpt>
      <trkpt lat="47.44598" lon="6.72798">
        <ele>481</ele>
        <time>2015-06-24T17:28:14.000Z</time>
      </trkpt>
      <trkpt lat="47.44599" lon="6.72805">
        <ele>480</ele>
        <time>2015-06-24T17:28:15.000Z</time>
      </trkpt>
      <trkpt lat="47.44599" lon="6.72811">
        <ele>480</ele>
        <time>2015-06-24T17:28:16.000Z</time>
      </trkpt>
      <trkpt lat="47.446" lon="6.72816">
        <ele>480</ele>
        <time>2015-06-24T17:28:17.000Z</time>
      </trkpt>
      <trkpt lat="47.44601" lon="6.7282">
        <ele>480</ele>
        <time>2015-06-24T17:28:18.000Z</time>
      </trkpt>
      <trkpt lat="47.44601" lon="6.72823">
        <ele>480</ele>
        <time>2015-06-24T17:28:19.000Z</time>
      </trkpt>
      <trkpt lat="47.44603" lon="6.72828">
        <ele>480</ele>
        <time>2015-06-24T17:28:20.000Z</time>
      </trkpt>
      <trkpt lat="47.44603" lon="6.72832">
        <ele>480</ele>
        <time>2015-06-24T17:28:21.000Z</time>
      </trkpt>
      <trkpt lat="47.44604" lon="6.72838">
        <ele>480</ele>
        <time>2015-06-24T17:28:22.000Z</time>
      </trkpt>
      <trkpt lat="47.44605" lon="6.72843">
        <ele>480</ele>
        <time>2015-06-24T17:28:23.000Z</time>
      </trkpt>
      <trkpt lat="47.44605" lon="6.72847">
        <ele>479</ele>
        <time>2015-06-24T17:28:23.999Z</time>
      </trkpt>
      <trkpt lat="47.44606" lon="6.72855">
        <ele>479</ele>
        <time>2015-06-24T17:28:25.000Z</time>
      </trkpt>
      <trkpt lat="47.44612" lon="6.72875">
        <ele>479</ele>
        <time>2015-06-24T17:28:26.000Z</time>
      </trkpt>
      <trkpt lat="47.44618" lon="6.7289">
        <ele>479</ele>
        <time>2015-06-24T17:28:27.000Z</time>
      </trkpt>
      <trkpt lat="47.4462" lon="6.72897">
        <ele>479</ele>
        <time>2015-06-24T17:28:28.000Z</time>
      </trkpt>
      <trkpt lat="47.44625" lon="6.72904">
        <ele>479</ele>
        <time>2015-06-24T17:28:29.000Z</time>
      </trkpt>
      <trkpt lat="47.4463" lon="6.72913">
        <ele>479</ele>
        <time>2015-06-24T17:28:30.000Z</time>
      </trkpt>
      <trkpt lat="47.44632" lon="6.7292">
        <ele>478</ele>
        <time>2015-06-24T17:28:31.000Z</time>
      </trkpt>
      <trkpt lat="47.44638" lon="6.72931">
        <ele>478</ele>
        <time>2015-06-24T17:28:32.000Z</time>
      </trkpt>
      <trkpt lat="47.44643" lon="6.7294">
        <ele>478</ele>
        <time>2015-06-24T17:28:33.000Z</time>
      </trkpt>
      <trkpt lat="47.44645" lon="6.72944">
        <ele>478</ele>
        <time>2015-06-24T17:28:34.000Z</time>
      </trkpt>
      <trkpt lat="47.44647" lon="6.72949">
        <ele>478</ele>
        <time>2015-06-24T17:28:35.000Z</time>
      </trkpt>
      <trkpt lat="47.44649" lon="6.72954">
        <ele>478</ele>
        <time>2015-06-24T17:28:36.000Z</time>
      </trkpt>
      <trkpt lat="47.4465" lon="6.72959">
        <ele>477</ele>
        <time>2015-06-24T17:28:37.000Z</time>
      </trkpt>
      <trkpt lat="47.44651" lon="6.72964">
        <ele>477</ele>
        <time>2015-06-24T17:28:38.000Z</time>
      </trkpt>
      <trkpt lat="47.44654" lon="6.7297">
        <ele>477</ele>
        <time>2015-06-24T17:28:39.000Z</time>
      </trkpt>
      <trkpt lat="47.44659" lon="6.72975">
        <ele>477</ele>
        <time>2015-06-24T17:28:40.000Z</time>
      </trkpt>
      <trkpt lat="47.44661" lon="6.72983">
        <ele>477</ele>
        <time>2015-06-24T17:28:41.000Z</time>
      </trkpt>
      <trkpt lat="47.44663" lon="6.7299">
        <ele>477</ele>
        <time>2015-06-24T17:28:42.000Z</time>
      </trkpt>
      <trkpt lat="47.44665" lon="6.72996">
        <ele>477</ele>
        <time>2015-06-24T17:28:43.000Z</time>
      </trkpt>
      <trkpt lat="47.44666" lon="6.73001">
        <ele>477</ele>
        <time>2015-06-24T17:28:44.000Z</time>
      </trkpt>
      <trkpt lat="47.4467" lon="6.73002">
        <ele>477</ele>
        <time>2015-06-24T17:28:49.000Z</time>
      </trkpt>
      <trkpt lat="47.44671" lon="6.73002">
        <ele>477</ele>
        <time>2015-06-24T17:28:50.000Z</time>
      </trkpt>
      <trkpt lat="47.44672" lon="6.73006">
        <ele>476</ele>
        <time>2015-06-24T17:28:55.000Z</time>
      </trkpt>
      <trkpt lat="47.44673" lon="6.73009">
        <ele>476</ele>
        <time>2015-06-24T17:28:56.000Z</time>
      </trkpt>
      <trkpt lat="47.44675" lon="6.73013">
        <ele>476</ele>
        <time>2015-06-24T17:29:07.000Z</time>
      </trkpt>
      <trkpt lat="47.44677" lon="6.73013">
        <ele>476</ele>
        <time>2015-06-24T17:29:08.000Z</time>
      </trkpt>
      <trkpt lat="47.4468" lon="6.73014">
        <ele>476</ele>
        <time>2015-06-24T17:29:10.000Z</time>
      </trkpt>
      <trkpt lat="47.44682" lon="6.73015">
        <ele>475</ele>
        <time>2015-06-24T17:29:11.000Z</time>
      </trkpt>
      <trkpt lat="47.44684" lon="6.73016">
        <ele>475</ele>
        <time>2015-06-24T17:29:12.000Z</time>
      </trkpt>
      <trkpt lat="47.44686" lon="6.73018">
        <ele>475</ele>
        <time>2015-06-24T17:29:13.000Z</time>
      </trkpt>
      <trkpt lat="47.44687" lon="6.73021">
        <ele>475</ele>
        <time>2015-06-24T17:29:14.000Z</time>
      </trkpt>
      <trkpt lat="47.4469" lon="6.73023">
        <ele>475</ele>
        <time>2015-06-24T17:29:15.000Z</time>
      </trkpt>
      <trkpt lat="47.44693" lon="6.73024">
        <ele>475</ele>
        <time>2015-06-24T17:29:16.000Z</time>
      </trkpt>
      <trkpt lat="47.44695" lon="6.73026">
        <ele>475</ele>
        <time>2015-06-24T17:29:17.000Z</time>
      </trkpt>
      <trkpt lat="47.44698" lon="6.73029">
        <ele>475</ele>
        <time>2015-06-24T17:29:19.000Z</time>
      </trkpt>
      <trkpt lat="47.447" lon="6.73031">
        <ele>475</ele>
        <time>2015-06-24T17:29:20.000Z</time>
      </trkpt>
      <trkpt lat="47.44702" lon="6.73036">
        <ele>474</ele>
        <time>2015-06-24T17:29:22.000Z</time>
      </trkpt>
      <trkpt lat="47.44703" lon="6.73038">
        <ele>474</ele>
        <time>2015-06-24T17:29:23.000Z</time>
      </trkpt>
      <trkpt lat="47.44704" lon="6.73042">
        <ele>474</ele>
        <time>2015-06-24T17:29:25.000Z</time>
      </trkpt>
      <trkpt lat="47.44705" lon="6.73045">
        <ele>474</ele>
        <time>2015-06-24T17:29:26.000Z</time>
      </trkpt>
      <trkpt lat="47.44704" lon="6.7305">
        <ele>474</ele>
        <time>2015-06-24T17:29:30.000Z</time>
      </trkpt>
      <trkpt lat="47.44704" lon="6.73052">
        <ele>474</ele>
        <time>2015-06-24T17:29:31.000Z</time>
      </trkpt>
      <trkpt lat="47.44703" lon="6.73058">
        <ele>474</ele>
        <time>2015-06-24T17:29:38.000Z</time>
      </trkpt>
      <trkpt lat="47.44704" lon="6.73059">
        <ele>474</ele>
        <time>2015-06-24T17:29:39.000Z</time>
      </trkpt>
      <trkpt lat="47.44705" lon="6.73064">
        <ele>474</ele>
        <time>2015-06-24T17:29:42.000Z</time>
      </trkpt>
      <trkpt lat="47.44706" lon="6.73067">
        <ele>474</ele>
        <time>2015-06-24T17:29:43.000Z</time>
      </trkpt>
      <trkpt lat="47.44708" lon="6.7307">
        <ele>474</ele>
        <time>2015-06-24T17:29:44.000Z</time>
      </trkpt>
      <trkpt lat="47.44709" lon="6.73073">
        <ele>474</ele>
        <time>2015-06-24T17:29:45.000Z</time>
      </trkpt>
      <trkpt lat="47.4471" lon="6.73076">
        <ele>474</ele>
        <time>2015-06-24T17:29:46.000Z</time>
      </trkpt>
      <trkpt lat="47.44711" lon="6.73079">
        <ele>474</ele>
        <time>2015-06-24T17:29:47.000Z</time>
      </trkpt>
      <trkpt lat="47.44713" lon="6.73083">
        <ele>471</ele>
        <time>2015-06-24T17:29:48.000Z</time>
      </trkpt>
      <trkpt lat="47.44714" lon="6.73088">
        <ele>470</ele>
        <time>2015-06-24T17:29:49.000Z</time>
      </trkpt>
      <trkpt lat="47.44715" lon="6.73092">
        <ele>470</ele>
        <time>2015-06-24T17:29:50.000Z</time>
      </trkpt>
      <trkpt lat="47.44716" lon="6.73096">
        <ele>470</ele>
        <time>2015-06-24T17:29:51.000Z</time>
      </trkpt>
      <trkpt lat="47.44717" lon="6.73101">
        <ele>470</ele>
        <time>2015-06-24T17:29:52.000Z</time>
      </trkpt>
      <trkpt lat="47.44717" lon="6.73105">
        <ele>470</ele>
        <time>2015-06-24T17:29:53.000Z</time>
      </trkpt>
      <trkpt lat="47.44718" lon="6.73109">
        <ele>470</ele>
        <time>2015-06-24T17:29:54.000Z</time>
      </trkpt>
      <trkpt lat="47.44719" lon="6.73113">
        <ele>470</ele>
        <time>2015-06-24T17:29:55.000Z</time>
      </trkpt>
      <trkpt lat="47.4472" lon="6.73117">
        <ele>470</ele>
        <time>2015-06-24T17:29:56.000Z</time>
      </trkpt>
      <trkpt lat="47.4472" lon="6.73121">
        <ele>470</ele>
        <time>2015-06-24T17:29:57.000Z</time>
      </trkpt>
      <trkpt lat="47.44722" lon="6.73126">
        <ele>469</ele>
        <time>2015-06-24T17:29:59.000Z</time>
      </trkpt>
      <trkpt lat="47.44722" lon="6.73129">
        <ele>469</ele>
        <time>2015-06-24T17:30:00.000Z</time>
      </trkpt>
      <trkpt lat="47.44724" lon="6.73135">
        <ele>469</ele>
        <time>2015-06-24T17:30:02.000Z</time>
      </trkpt>
      <trkpt lat="47.44725" lon="6.73138">
        <ele>469</ele>
        <time>2015-06-24T17:30:03.000Z</time>
      </trkpt>
      <trkpt lat="47.44726" lon="6.73142">
        <ele>469</ele>
        <time>2015-06-24T17:30:05.000Z</time>
      </trkpt>
      <trkpt lat="47.44727" lon="6.73145">
        <ele>469</ele>
        <time>2015-06-24T17:30:06.000Z</time>
      </trkpt>
      <trkpt lat="47.4473" lon="6.7315">
        <ele>469</ele>
        <time>2015-06-24T17:30:08.000Z</time>
      </trkpt>
      <trkpt lat="47.44731" lon="6.73153">
        <ele>468</ele>
        <time>2015-06-24T17:30:09.000Z</time>
      </trkpt>
      <trkpt lat="47.44732" lon="6.73156">
        <ele>468</ele>
        <time>2015-06-24T17:30:10.000Z</time>
      </trkpt>
      <trkpt lat="47.44734" lon="6.73159">
        <ele>468</ele>
        <time>2015-06-24T17:30:11.000Z</time>
      </trkpt>
      <trkpt lat="47.44735" lon="6.73162">
        <ele>468</ele>
        <time>2015-06-24T17:30:12.000Z</time>
      </trkpt>
      <trkpt lat="47.44736" lon="6.73165">
        <ele>468</ele>
        <time>2015-06-24T17:30:13.000Z</time>
      </trkpt>
      <trkpt lat="47.44737" lon="6.73168">
        <ele>466</ele>
        <time>2015-06-24T17:30:14.000Z</time>
      </trkpt>
      <trkpt lat="47.44738" lon="6.73171">
        <ele>466</ele>
        <time>2015-06-24T17:30:15.000Z</time>
      </trkpt>
      <trkpt lat="47.44739" lon="6.73175">
        <ele>466</ele>
        <time>2015-06-24T17:30:16.000Z</time>
      </trkpt>
      <trkpt lat="47.4474" lon="6.73178">
        <ele>466</ele>
        <time>2015-06-24T17:30:17.000Z</time>
      </trkpt>
      <trkpt lat="47.44742" lon="6.73182">
        <ele>466</ele>
        <time>2015-06-24T17:30:18.000Z</time>
      </trkpt>
      <trkpt lat="47.44743" lon="6.73185">
        <ele>466</ele>
        <time>2015-06-24T17:30:19.000Z</time>
      </trkpt>
      <trkpt lat="47.44745" lon="6.73188">
        <ele>466</ele>
        <time>2015-06-24T17:30:20.000Z</time>
      </trkpt>
      <trkpt lat="47.44746" lon="6.73191">
        <ele>466</ele>
        <time>2015-06-24T17:30:21.000Z</time>
      </trkpt>
      <trkpt lat="47.44748" lon="6.73195">
        <ele>466</ele>
        <time>2015-06-24T17:30:23.000Z</time>
      </trkpt>
      <trkpt lat="47.44749" lon="6.73198">
        <ele>466</ele>
        <time>2015-06-24T17:30:24.000Z</time>
      </trkpt>
      <trkpt lat="47.4475" lon="6.73201">
        <ele>466</ele>
        <time>2015-06-24T17:30:25.000Z</time>
      </trkpt>
      <trkpt lat="47.44752" lon="6.73206">
        <ele>466</ele>
        <time>2015-06-24T17:30:26.000Z</time>
      </trkpt>
      <trkpt lat="47.44755" lon="6.73211">
        <ele>466</ele>
        <time>2015-06-24T17:30:27.000Z</time>
      </trkpt>
      <trkpt lat="47.44758" lon="6.73216">
        <ele>466</ele>
        <time>2015-06-24T17:30:28.000Z</time>
      </trkpt>
      <trkpt lat="47.44761" lon="6.73222">
        <ele>466</ele>
        <time>2015-06-24T17:30:29.000Z</time>
      </trkpt>
      <trkpt lat="47.44763" lon="6.73228">
        <ele>466</ele>
        <time>2015-06-24T17:30:30.000Z</time>
      </trkpt>
      <trkpt lat="47.44766" lon="6.73234">
        <ele>466</ele>
        <time>2015-06-24T17:30:31.000Z</time>
      </trkpt>
      <trkpt lat="47.44769" lon="6.7324">
        <ele>466</ele>
        <time>2015-06-24T17:30:32.000Z</time>
      </trkpt>
      <trkpt lat="47.44771" lon="6.73246">
        <ele>466</ele>
        <time>2015-06-24T17:30:33.000Z</time>
      </trkpt>
      <trkpt lat="47.44773" lon="6.73253">
        <ele>465</ele>
        <time>2015-06-24T17:30:34.000Z</time>
      </trkpt>
      <trkpt lat="47.44775" lon="6.73259">
        <ele>465</ele>
        <time>2015-06-24T17:30:35.000Z</time>
      </trkpt>
      <trkpt lat="47.44776" lon="6.73264">
        <ele>465</ele>
        <time>2015-06-24T17:30:36.000Z</time>
      </trkpt>
      <trkpt lat="47.44778" lon="6.73268">
        <ele>465</ele>
        <time>2015-06-24T17:30:37.000Z</time>
      </trkpt>
      <trkpt lat="47.44778" lon="6.73271">
        <ele>465</ele>
        <time>2015-06-24T17:30:38.000Z</time>
      </trkpt>
      <trkpt lat="47.44779" lon="6.73278">
        <ele>465</ele>
        <time>2015-06-24T17:30:41.000Z</time>
      </trkpt>
      <trkpt lat="47.44779" lon="6.73279">
        <ele>465</ele>
        <time>2015-06-24T17:30:42.000Z</time>
      </trkpt>
      <trkpt lat="47.44782" lon="6.73277">
        <ele>465</ele>
        <time>2015-06-24T17:30:45.000Z</time>
      </trkpt>
      <trkpt lat="47.44783" lon="6.73274">
        <ele>465</ele>
        <time>2015-06-24T17:30:46.000Z</time>
      </trkpt>
      <trkpt lat="47.44785" lon="6.73269">
        <ele>465</ele>
        <time>2015-06-24T17:30:48.000Z</time>
      </trkpt>
      <trkpt lat="47.44786" lon="6.73266">
        <ele>465</ele>
        <time>2015-06-24T17:30:49.000Z</time>
      </trkpt>
      <trkpt lat="47.44787" lon="6.7326">
        <ele>465</ele>
        <time>2015-06-24T17:30:51.000Z</time>
      </trkpt>
      <trkpt lat="47.44788" lon="6.73256">
        <ele>465</ele>
        <time>2015-06-24T17:30:52.000Z</time>
      </trkpt>
      <trkpt lat="47.44788" lon="6.73253">
        <ele>465</ele>
        <time>2015-06-24T17:30:53.000Z</time>
      </trkpt>
      <trkpt lat="47.44788" lon="6.73249">
        <ele>466</ele>
        <time>2015-06-24T17:30:54.000Z</time>
      </trkpt>
      <trkpt lat="47.44788" lon="6.73246">
        <ele>466</ele>
        <time>2015-06-24T17:30:55.000Z</time>
      </trkpt>
      <trkpt lat="47.44787" lon="6.73242">
        <ele>466</ele>
        <time>2015-06-24T17:30:56.000Z</time>
      </trkpt>
      <trkpt lat="47.44786" lon="6.73238">
        <ele>466</ele>
        <time>2015-06-24T17:30:57.000Z</time>
      </trkpt>
      <trkpt lat="47.44785" lon="6.73234">
        <ele>466</ele>
        <time>2015-06-24T17:30:58.000Z</time>
      </trkpt>
      <trkpt lat="47.44783" lon="6.7323">
        <ele>466</ele>
        <time>2015-06-24T17:30:59.000Z</time>
      </trkpt>
      <trkpt lat="47.44782" lon="6.73226">
        <ele>466</ele>
        <time>2015-06-24T17:31:00.000Z</time>
      </trkpt>
      <trkpt lat="47.44781" lon="6.73222">
        <ele>466</ele>
        <time>2015-06-24T17:31:01.000Z</time>
      </trkpt>
      <trkpt lat="47.4478" lon="6.73219">
        <ele>466</ele>
        <time>2015-06-24T17:31:02.000Z</time>
      </trkpt>
      <trkpt lat="47.44779" lon="6.73213">
        <ele>466</ele>
        <time>2015-06-24T17:31:05.000Z</time>
      </trkpt>
      <trkpt lat="47.44779" lon="6.7321">
        <ele>466</ele>
        <time>2015-06-24T17:31:06.000Z</time>
      </trkpt>
      <trkpt lat="47.44778" lon="6.73205">
        <ele>466</ele>
        <time>2015-06-24T17:31:08.000Z</time>
      </trkpt>
      <trkpt lat="47.44779" lon="6.73203">
        <ele>466</ele>
        <time>2015-06-24T17:31:09.000Z</time>
      </trkpt>
      <trkpt lat="47.4478" lon="6.73196">
        <ele>466</ele>
        <time>2015-06-24T17:31:11.000Z</time>
      </trkpt>
      <trkpt lat="47.4478" lon="6.73193">
        <ele>466</ele>
        <time>2015-06-24T17:31:12.000Z</time>
      </trkpt>
      <trkpt lat="47.4478" lon="6.73186">
        <ele>466</ele>
        <time>2015-06-24T17:31:14.000Z</time>
      </trkpt>
      <trkpt lat="47.44779" lon="6.73183">
        <ele>466</ele>
        <time>2015-06-24T17:31:15.000Z</time>
      </trkpt>
      <trkpt lat="47.44778" lon="6.73179">
        <ele>466</ele>
        <time>2015-06-24T17:31:16.000Z</time>
      </trkpt>
      <trkpt lat="47.44778" lon="6.73175">
        <ele>466</ele>
        <time>2015-06-24T17:31:17.000Z</time>
      </trkpt>
      <trkpt lat="47.44777" lon="6.7317">
        <ele>466</ele>
        <time>2015-06-24T17:31:18.000Z</time>
      </trkpt>
      <trkpt lat="47.44777" lon="6.73167">
        <ele>466</ele>
        <time>2015-06-24T17:31:19.000Z</time>
      </trkpt>
      <trkpt lat="47.44777" lon="6.73161">
        <ele>467</ele>
        <time>2015-06-24T17:31:21.000Z</time>
      </trkpt>
      <trkpt lat="47.44776" lon="6.73158">
        <ele>467</ele>
        <time>2015-06-24T17:31:22.000Z</time>
      </trkpt>
      <trkpt lat="47.44775" lon="6.73154">
        <ele>467</ele>
        <time>2015-06-24T17:31:24.000Z</time>
      </trkpt>
      <trkpt lat="47.44774" lon="6.73151">
        <ele>467</ele>
        <time>2015-06-24T17:31:25.000Z</time>
      </trkpt>
      <trkpt lat="47.44772" lon="6.73146">
        <ele>467</ele>
        <time>2015-06-24T17:31:27.000Z</time>
      </trkpt>
      <trkpt lat="47.4477" lon="6.73143">
        <ele>467</ele>
        <time>2015-06-24T17:31:28.000Z</time>
      </trkpt>
      <trkpt lat="47.44769" lon="6.7314">
        <ele>467</ele>
        <time>2015-06-24T17:31:29.000Z</time>
      </trkpt>
      <trkpt lat="47.44769" lon="6.73137">
        <ele>467</ele>
        <time>2015-06-24T17:31:30.000Z</time>
      </trkpt>
      <trkpt lat="47.44768" lon="6.73133">
        <ele>467</ele>
        <time>2015-06-24T17:31:31.000Z</time>
      </trkpt>
      <trkpt lat="47.44767" lon="6.7313">
        <ele>467</ele>
        <time>2015-06-24T17:31:32.000Z</time>
      </trkpt>
      <trkpt lat="47.44766" lon="6.73126">
        <ele>468</ele>
        <time>2015-06-24T17:31:33.000Z</time>
      </trkpt>
      <trkpt lat="47.44765" lon="6.73122">
        <ele>468</ele>
        <time>2015-06-24T17:31:34.000Z</time>
      </trkpt>
      <trkpt lat="47.44764" lon="6.73117">
        <ele>468</ele>
        <time>2015-06-24T17:31:35.000Z</time>
      </trkpt>
      <trkpt lat="47.44763" lon="6.73112">
        <ele>468</ele>
        <time>2015-06-24T17:31:36.000Z</time>
      </trkpt>
      <trkpt lat="47.44762" lon="6.73107">
        <ele>468</ele>
        <time>2015-06-24T17:31:37.000Z</time>
      </trkpt>
      <trkpt lat="47.44761" lon="6.73102">
        <ele>469</ele>
        <time>2015-06-24T17:31:38.000Z</time>
      </trkpt>
      <trkpt lat="47.4476" lon="6.73098">
        <ele>469</ele>
        <time>2015-06-24T17:31:39.000Z</time>
      </trkpt>
      <trkpt lat="47.4476" lon="6.73094">
        <ele>469</ele>
        <time>2015-06-24T17:31:40.000Z</time>
      </trkpt>
      <trkpt lat="47.44759" lon="6.73091">
        <ele>469</ele>
        <time>2015-06-24T17:31:41.000Z</time>
      </trkpt>
      <trkpt lat="47.44758" lon="6.73087">
        <ele>470</ele>
        <time>2015-06-24T17:31:42.000Z</time>
      </trkpt>
      <trkpt lat="47.44757" lon="6.73083">
        <ele>470</ele>
        <time>2015-06-24T17:31:43.000Z</time>
      </trkpt>
      <trkpt lat="47.44756" lon="6.73079">
        <ele>470</ele>
        <time>2015-06-24T17:31:44.000Z</time>
      </trkpt>
      <trkpt lat="47.44754" lon="6.73075">
        <ele>470</ele>
        <time>2015-06-24T17:31:45.000Z</time>
      </trkpt>
      <trkpt lat="47.44753" lon="6.73072">
        <ele>470</ele>
        <time>2015-06-24T17:31:46.000Z</time>
      </trkpt>
      <trkpt lat="47.44752" lon="6.73069">
        <ele>470</ele>
        <time>2015-06-24T17:31:47.000Z</time>
      </trkpt>
      <trkpt lat="47.4475" lon="6.73066">
        <ele>470</ele>
        <time>2015-06-24T17:31:48.000Z</time>
      </trkpt>
      <trkpt lat="47.44749" lon="6.73061">
        <ele>473</ele>
        <time>2015-06-24T17:31:50.000Z</time>
      </trkpt>
      <trkpt lat="47.44748" lon="6.73058">
        <ele>473</ele>
        <time>2015-06-24T17:31:51.000Z</time>
      </trkpt>
      <trkpt lat="47.44746" lon="6.73055">
        <ele>473</ele>
        <time>2015-06-24T17:31:52.000Z</time>
      </trkpt>
      <trkpt lat="47.44745" lon="6.73051">
        <ele>473</ele>
        <time>2015-06-24T17:31:53.000Z</time>
      </trkpt>
      <trkpt lat="47.44744" lon="6.73048">
        <ele>474</ele>
        <time>2015-06-24T17:31:54.000Z</time>
      </trkpt>
      <trkpt lat="47.44743" lon="6.73045">
        <ele>474</ele>
        <time>2015-06-24T17:31:55.000Z</time>
      </trkpt>
      <trkpt lat="47.44742" lon="6.73041">
        <ele>474</ele>
        <time>2015-06-24T17:31:56.000Z</time>
      </trkpt>
      <trkpt lat="47.4474" lon="6.73038">
        <ele>474</ele>
        <time>2015-06-24T17:31:57.000Z</time>
      </trkpt>
      <trkpt lat="47.44738" lon="6.73033">
        <ele>474</ele>
        <time>2015-06-24T17:31:59.000Z</time>
      </trkpt>
      <trkpt lat="47.44736" lon="6.73031">
        <ele>474</ele>
        <time>2015-06-24T17:32:00.000Z</time>
      </trkpt>
      <trkpt lat="47.44733" lon="6.73027">
        <ele>474</ele>
        <time>2015-06-24T17:32:02.000Z</time>
      </trkpt>
      <trkpt lat="47.44731" lon="6.73026">
        <ele>474</ele>
        <time>2015-06-24T17:32:03.000Z</time>
      </trkpt>
      <trkpt lat="47.44727" lon="6.73025">
        <ele>474</ele>
        <time>2015-06-24T17:32:09.000Z</time>
      </trkpt>
      <trkpt lat="47.44727" lon="6.73023">
        <ele>474</ele>
        <time>2015-06-24T17:32:10.000Z</time>
      </trkpt>
      <trkpt lat="47.44728" lon="6.73017">
        <ele>475</ele>
        <time>2015-06-24T17:32:13.000Z</time>
      </trkpt>
      <trkpt lat="47.44729" lon="6.73016">
        <ele>475</ele>
        <time>2015-06-24T17:32:14.000Z</time>
      </trkpt>
      <trkpt lat="47.44732" lon="6.73012">
        <ele>475</ele>
        <time>2015-06-24T17:32:17.000Z</time>
      </trkpt>
      <trkpt lat="47.44734" lon="6.73012">
        <ele>475</ele>
        <time>2015-06-24T17:32:18.000Z</time>
      </trkpt>
      <trkpt lat="47.44737" lon="6.73012">
        <ele>475</ele>
        <time>2015-06-24T17:32:19.000Z</time>
      </trkpt>
      <trkpt lat="47.44741" lon="6.73014">
        <ele>475</ele>
        <time>2015-06-24T17:32:20.000Z</time>
      </trkpt>
      <trkpt lat="47.44745" lon="6.73015">
        <ele>475</ele>
        <time>2015-06-24T17:32:21.000Z</time>
      </trkpt>
      <trkpt lat="47.44749" lon="6.73016">
        <ele>475</ele>
        <time>2015-06-24T17:32:22.000Z</time>
      </trkpt>
      <trkpt lat="47.44752" lon="6.73015">
        <ele>472</ele>
        <time>2015-06-24T17:32:23.000Z</time>
      </trkpt>
      <trkpt lat="47.44756" lon="6.73013">
        <ele>472</ele>
        <time>2015-06-24T17:32:24.000Z</time>
      </trkpt>
      <trkpt lat="47.44758" lon="6.73011">
        <ele>472</ele>
        <time>2015-06-24T17:32:25.000Z</time>
      </trkpt>
      <trkpt lat="47.44761" lon="6.73008">
        <ele>472</ele>
        <time>2015-06-24T17:32:26.000Z</time>
      </trkpt>
      <trkpt lat="47.44763" lon="6.73006">
        <ele>472</ele>
        <time>2015-06-24T17:32:27.000Z</time>
      </trkpt>
      <trkpt lat="47.44765" lon="6.73003">
        <ele>472</ele>
        <time>2015-06-24T17:32:28.000Z</time>
      </trkpt>
      <trkpt lat="47.44768" lon="6.73001">
        <ele>472</ele>
        <time>2015-06-24T17:32:29.000Z</time>
      </trkpt>
      <trkpt lat="47.44772" lon="6.72999">
        <ele>472</ele>
        <time>2015-06-24T17:32:30.000Z</time>
      </trkpt>
      <trkpt lat="47.44775" lon="6.72997">
        <ele>471</ele>
        <time>2015-06-24T17:32:31.000Z</time>
      </trkpt>
      <trkpt lat="47.4478" lon="6.72995">
        <ele>471</ele>
        <time>2015-06-24T17:32:32.000Z</time>
      </trkpt>
      <trkpt lat="47.44784" lon="6.72993">
        <ele>470</ele>
        <time>2015-06-24T17:32:33.000Z</time>
      </trkpt>
      <trkpt lat="47.448" lon="6.72984">
        <ele>469</ele>
        <time>2015-06-24T17:32:34.000Z</time>
      </trkpt>
      <trkpt lat="47.44804" lon="6.72987">
        <ele>469</ele>
        <time>2015-06-24T17:32:35.000Z</time>
      </trkpt>
      <trkpt lat="47.44808" lon="6.7299">
        <ele>468</ele>
        <time>2015-06-24T17:32:36.000Z</time>
      </trkpt>
      <trkpt lat="47.44813" lon="6.72995">
        <ele>468</ele>
        <time>2015-06-24T17:32:37.000Z</time>
      </trkpt>
      <trkpt lat="47.44817" lon="6.72999">
        <ele>467</ele>
        <time>2015-06-24T17:32:38.000Z</time>
      </trkpt>
      <trkpt lat="47.44822" lon="6.73002">
        <ele>466</ele>
        <time>2015-06-24T17:32:39.000Z</time>
      </trkpt>
      <trkpt lat="47.44824" lon="6.73002">
        <ele>466</ele>
        <time>2015-06-24T17:32:40.000Z</time>
      </trkpt>
      <trkpt lat="47.44828" lon="6.73005">
        <ele>465</ele>
        <time>2015-06-24T17:32:41.000Z</time>
      </trkpt>
      <trkpt lat="47.44832" lon="6.73004">
        <ele>465</ele>
        <time>2015-06-24T17:32:46.000Z</time>
      </trkpt>
      <trkpt lat="47.44832" lon="6.73004">
        <ele>465</ele>
        <time>2015-06-24T17:32:47.000Z</time>
      </trkpt>
      <trkpt lat="47.44836" lon="6.73007">
        <ele>463</ele>
        <time>2015-06-24T17:33:08.000Z</time>
      </trkpt>
      <trkpt lat="47.44836" lon="6.73007">
        <ele>463</ele>
        <time>2015-06-24T17:33:09.000Z</time>
      </trkpt>
      <trkpt lat="47.44837" lon="6.73013">
        <ele>462</ele>
        <time>2015-06-24T17:33:12.000Z</time>
      </trkpt>
      <trkpt lat="47.44838" lon="6.73015">
        <ele>462</ele>
        <time>2015-06-24T17:33:13.000Z</time>
      </trkpt>
      <trkpt lat="47.44835" lon="6.73018">
        <ele>462</ele>
        <time>2015-06-24T17:33:21.000Z</time>
      </trkpt>
      <trkpt lat="47.44834" lon="6.7302">
        <ele>462</ele>
        <time>2015-06-24T17:33:22.000Z</time>
      </trkpt>
      <trkpt lat="47.44833" lon="6.73026">
        <ele>467</ele>
        <time>2015-06-24T17:33:24.000Z</time>
      </trkpt>
      <trkpt lat="47.44832" lon="6.73029">
        <ele>467</ele>
        <time>2015-06-24T17:33:25.000Z</time>
      </trkpt>
      <trkpt lat="47.44831" lon="6.73035">
        <ele>467</ele>
        <time>2015-06-24T17:33:27.000Z</time>
      </trkpt>
      <trkpt lat="47.4483" lon="6.73038">
        <ele>467</ele>
        <time>2015-06-24T17:33:28.000Z</time>
      </trkpt>
      <trkpt lat="47.44828" lon="6.73044">
        <ele>467</ele>
        <time>2015-06-24T17:33:30.000Z</time>
      </trkpt>
      <trkpt lat="47.44827" lon="6.73047">
        <ele>467</ele>
        <time>2015-06-24T17:33:31.000Z</time>
      </trkpt>
      <trkpt lat="47.44826" lon="6.73052">
        <ele>467</ele>
        <time>2015-06-24T17:33:33.000Z</time>
      </trkpt>
      <trkpt lat="47.44826" lon="6.73055">
        <ele>467</ele>
        <time>2015-06-24T17:33:34.000Z</time>
      </trkpt>
      <trkpt lat="47.44826" lon="6.73059">
        <ele>467</ele>
        <time>2015-06-24T17:33:35.000Z</time>
      </trkpt>
      <trkpt lat="47.44825" lon="6.73062">
        <ele>467</ele>
        <time>2015-06-24T17:33:36.000Z</time>
      </trkpt>
      <trkpt lat="47.44824" lon="6.73065">
        <ele>467</ele>
        <time>2015-06-24T17:33:37.000Z</time>
      </trkpt>
      <trkpt lat="47.44823" lon="6.73068">
        <ele>467</ele>
        <time>2015-06-24T17:33:38.000Z</time>
      </trkpt>
      <trkpt lat="47.44822" lon="6.73074">
        <ele>467</ele>
        <time>2015-06-24T17:33:40.000Z</time>
      </trkpt>
      <trkpt lat="47.44821" lon="6.73078">
        <ele>466</ele>
        <time>2015-06-24T17:33:41.000Z</time>
      </trkpt>
      <trkpt lat="47.44821" lon="6.73082">
        <ele>466</ele>
        <time>2015-06-24T17:33:42.000Z</time>
      </trkpt>
      <trkpt lat="47.44821" lon="6.73087">
        <ele>466</ele>
        <time>2015-06-24T17:33:43.000Z</time>
      </trkpt>
      <trkpt lat="47.44821" lon="6.73092">
        <ele>466</ele>
        <time>2015-06-24T17:33:44.000Z</time>
      </trkpt>
      <trkpt lat="47.4482" lon="6.73097">
        <ele>466</ele>
        <time>2015-06-24T17:33:45.000Z</time>
      </trkpt>
      <trkpt lat="47.4482" lon="6.73102">
        <ele>466</ele>
        <time>2015-06-24T17:33:46.000Z</time>
      </trkpt>
      <trkpt lat="47.44819" lon="6.73107">
        <ele>466</ele>
        <time>2015-06-24T17:33:47.000Z</time>
      </trkpt>
      <trkpt lat="47.44819" lon="6.73112">
        <ele>466</ele>
        <time>2015-06-24T17:33:48.000Z</time>
      </trkpt>
      <trkpt lat="47.44818" lon="6.73116">
        <ele>466</ele>
        <time>2015-06-24T17:33:49.000Z</time>
      </trkpt>
      <trkpt lat="47.44818" lon="6.73121">
        <ele>466</ele>
        <time>2015-06-24T17:33:50.000Z</time>
      </trkpt>
      <trkpt lat="47.44818" lon="6.73126">
        <ele>466</ele>
        <time>2015-06-24T17:33:51.000Z</time>
      </trkpt>
      <trkpt lat="47.44819" lon="6.73131">
        <ele>466</ele>
        <time>2015-06-24T17:33:52.000Z</time>
      </trkpt>
      <trkpt lat="47.44819" lon="6.73136">
        <ele>466</ele>
        <time>2015-06-24T17:33:53.000Z</time>
      </trkpt>
      <trkpt lat="47.44819" lon="6.73142">
        <ele>466</ele>
        <time>2015-06-24T17:33:54.000Z</time>
      </trkpt>
      <trkpt lat="47.44819" lon="6.73148">
        <ele>466</ele>
        <time>2015-06-24T17:33:55.000Z</time>
      </trkpt>
      <trkpt lat="47.44819" lon="6.73155">
        <ele>466</ele>
        <time>2015-06-24T17:33:56.000Z</time>
      </trkpt>
      <trkpt lat="47.44819" lon="6.73162">
        <ele>466</ele>
        <time>2015-06-24T17:33:57.000Z</time>
      </trkpt>
      <trkpt lat="47.44819" lon="6.73168">
        <ele>465</ele>
        <time>2015-06-24T17:33:58.000Z</time>
      </trkpt>
      <trkpt lat="47.44819" lon="6.73175">
        <ele>466</ele>
        <time>2015-06-24T17:33:59.000Z</time>
      </trkpt>
      <trkpt lat="47.44819" lon="6.73181">
        <ele>466</ele>
        <time>2015-06-24T17:34:00.000Z</time>
      </trkpt>
      <trkpt lat="47.44819" lon="6.73186">
        <ele>466</ele>
        <time>2015-06-24T17:34:01.000Z</time>
      </trkpt>
      <trkpt lat="47.44819" lon="6.73192">
        <ele>466</ele>
        <time>2015-06-24T17:34:02.000Z</time>
      </trkpt>
      <trkpt lat="47.44819" lon="6.73197">
        <ele>466</ele>
        <time>2015-06-24T17:34:03.000Z</time>
      </trkpt>
      <trkpt lat="47.44819" lon="6.73201">
        <ele>466</ele>
        <time>2015-06-24T17:34:04.000Z</time>
      </trkpt>
      <trkpt lat="47.44818" lon="6.73206">
        <ele>466</ele>
        <time>2015-06-24T17:34:05.000Z</time>
      </trkpt>
      <trkpt lat="47.44818" lon="6.73211">
        <ele>466</ele>
        <time>2015-06-24T17:34:06.000Z</time>
      </trkpt>
      <trkpt lat="47.44818" lon="6.73216">
        <ele>466</ele>
        <time>2015-06-24T17:34:07.000Z</time>
      </trkpt>
      <trkpt lat="47.44818" lon="6.73222">
        <ele>466</ele>
        <time>2015-06-24T17:34:08.000Z</time>
      </trkpt>
      <trkpt lat="47.44817" lon="6.73227">
        <ele>466</ele>
        <time>2015-06-24T17:34:09.000Z</time>
      </trkpt>
      <trkpt lat="47.44817" lon="6.73233">
        <ele>466</ele>
        <time>2015-06-24T17:34:10.000Z</time>
      </trkpt>
      <trkpt lat="47.44817" lon="6.73239">
        <ele>466</ele>
        <time>2015-06-24T17:34:11.000Z</time>
      </trkpt>
      <trkpt lat="47.44816" lon="6.73245">
        <ele>466</ele>
        <time>2015-06-24T17:34:12.000Z</time>
      </trkpt>
      <trkpt lat="47.44816" lon="6.7325">
        <ele>466</ele>
        <time>2015-06-24T17:34:13.000Z</time>
      </trkpt>
      <trkpt lat="47.44815" lon="6.73255">
        <ele>465</ele>
        <time>2015-06-24T17:34:14.000Z</time>
      </trkpt>
      <trkpt lat="47.44813" lon="6.73259">
        <ele>465</ele>
        <time>2015-06-24T17:34:15.000Z</time>
      </trkpt>
      <trkpt lat="47.44812" lon="6.73263">
        <ele>465</ele>
        <time>2015-06-24T17:34:16.000Z</time>
      </trkpt>
      <trkpt lat="47.4481" lon="6.73266">
        <ele>465</ele>
        <time>2015-06-24T17:34:17.000Z</time>
      </trkpt>
      <trkpt lat="47.44809" lon="6.73269">
        <ele>465</ele>
        <time>2015-06-24T17:34:18.000Z</time>
      </trkpt>
      <trkpt lat="47.44808" lon="6.73272">
        <ele>465</ele>
        <time>2015-06-24T17:34:19.000Z</time>
      </trkpt>
      <trkpt lat="47.44807" lon="6.73275">
        <ele>465</ele>
        <time>2015-06-24T17:34:20.000Z</time>
      </trkpt>
      <trkpt lat="47.44805" lon="6.73278">
        <ele>465</ele>
        <time>2015-06-24T17:34:21.000Z</time>
      </trkpt>
      <trkpt lat="47.44804" lon="6.73281">
        <ele>465</ele>
        <time>2015-06-24T17:34:22.000Z</time>
      </trkpt>
      <trkpt lat="47.44803" lon="6.73285">
        <ele>465</ele>
        <time>2015-06-24T17:34:23.000Z</time>
      </trkpt>
      <trkpt lat="47.44802" lon="6.73288">
        <ele>465</ele>
        <time>2015-06-24T17:34:24.000Z</time>
      </trkpt>
      <trkpt lat="47.44801" lon="6.73292">
        <ele>465</ele>
        <time>2015-06-24T17:34:25.000Z</time>
      </trkpt>
      <trkpt lat="47.44801" lon="6.73296">
        <ele>465</ele>
        <time>2015-06-24T17:34:26.000Z</time>
      </trkpt>
      <trkpt lat="47.44802" lon="6.73299">
        <ele>465</ele>
        <time>2015-06-24T17:34:27.000Z</time>
      </trkpt>
      <trkpt lat="47.44802" lon="6.73305">
        <ele>465</ele>
        <time>2015-06-24T17:34:29.000Z</time>
      </trkpt>
      <trkpt lat="47.44802" lon="6.73309">
        <ele>465</ele>
        <time>2015-06-24T17:34:30.000Z</time>
      </trkpt>
      <trkpt lat="47.44802" lon="6.73313">
        <ele>465</ele>
        <time>2015-06-24T17:34:31.000Z</time>
      </trkpt>
      <trkpt lat="47.44803" lon="6.73318">
        <ele>465</ele>
        <time>2015-06-24T17:34:32.000Z</time>
      </trkpt>
      <trkpt lat="47.44804" lon="6.73323">
        <ele>465</ele>
        <time>2015-06-24T17:34:33.000Z</time>
      </trkpt>
      <trkpt lat="47.44804" lon="6.73328">
        <ele>465</ele>
        <time>2015-06-24T17:34:34.000Z</time>
      </trkpt>
      <trkpt lat="47.44805" lon="6.73335">
        <ele>463</ele>
        <time>2015-06-24T17:34:35.000Z</time>
      </trkpt>
      <trkpt lat="47.44806" lon="6.73341">
        <ele>463</ele>
        <time>2015-06-24T17:34:36.000Z</time>
      </trkpt>
      <trkpt lat="47.44806" lon="6.73348">
        <ele>463</ele>
        <time>2015-06-24T17:34:37.000Z</time>
      </trkpt>
      <trkpt lat="47.44807" lon="6.73356">
        <ele>462</ele>
        <time>2015-06-24T17:34:38.000Z</time>
      </trkpt>
      <trkpt lat="47.44808" lon="6.73363">
        <ele>462</ele>
        <time>2015-06-24T17:34:39.000Z</time>
      </trkpt>
      <trkpt lat="47.44808" lon="6.73371">
        <ele>462</ele>
        <time>2015-06-24T17:34:40.000Z</time>
      </trkpt>
      <trkpt lat="47.44807" lon="6.73379">
        <ele>462</ele>
        <time>2015-06-24T17:34:41.000Z</time>
      </trkpt>
      <trkpt lat="47.44805" lon="6.73386">
        <ele>462</ele>
        <time>2015-06-24T17:34:42.000Z</time>
      </trkpt>
      <trkpt lat="47.44803" lon="6.73393">
        <ele>461</ele>
        <time>2015-06-24T17:34:43.000Z</time>
      </trkpt>
      <trkpt lat="47.44802" lon="6.73398">
        <ele>461</ele>
        <time>2015-06-24T17:34:44.000Z</time>
      </trkpt>
      <trkpt lat="47.44801" lon="6.73402">
        <ele>461</ele>
        <time>2015-06-24T17:34:45.000Z</time>
      </trkpt>
      <trkpt lat="47.448" lon="6.73408">
        <ele>461</ele>
        <time>2015-06-24T17:34:47.000Z</time>
      </trkpt>
      <trkpt lat="47.448" lon="6.73411">
        <ele>461</ele>
        <time>2015-06-24T17:34:48.000Z</time>
      </trkpt>
      <trkpt lat="47.44801" lon="6.73416">
        <ele>461</ele>
        <time>2015-06-24T17:34:50.000Z</time>
      </trkpt>
      <trkpt lat="47.44801" lon="6.73418">
        <ele>459</ele>
        <time>2015-06-24T17:34:51.000Z</time>
      </trkpt>
      <trkpt lat="47.44803" lon="6.73423">
        <ele>459</ele>
        <time>2015-06-24T17:34:54.000Z</time>
      </trkpt>
      <trkpt lat="47.44803" lon="6.73424">
        <ele>459</ele>
        <time>2015-06-24T17:34:55.000Z</time>
      </trkpt>
      <trkpt lat="47.44805" lon="6.7343">
        <ele>459</ele>
        <time>2015-06-24T17:34:58.000Z</time>
      </trkpt>
      <trkpt lat="47.44806" lon="6.73431">
        <ele>459</ele>
        <time>2015-06-24T17:34:59.000Z</time>
      </trkpt>
      <trkpt lat="47.44808" lon="6.73436">
        <ele>459</ele>
        <time>2015-06-24T17:35:01.000Z</time>
      </trkpt>
      <trkpt lat="47.44808" lon="6.73439">
        <ele>459</ele>
        <time>2015-06-24T17:35:02.000Z</time>
      </trkpt>
      <trkpt lat="47.44809" lon="6.73443">
        <ele>458</ele>
        <time>2015-06-24T17:35:03.000Z</time>
      </trkpt>
      <trkpt lat="47.44809" lon="6.73447">
        <ele>458</ele>
        <time>2015-06-24T17:35:04.000Z</time>
      </trkpt>
      <trkpt lat="47.44809" lon="6.73453">
        <ele>458</ele>
        <time>2015-06-24T17:35:05.000Z</time>
      </trkpt>
      <trkpt lat="47.44809" lon="6.73459">
        <ele>458</ele>
        <time>2015-06-24T17:35:06.000Z</time>
      </trkpt>
      <trkpt lat="47.44809" lon="6.73465">
        <ele>458</ele>
        <time>2015-06-24T17:35:07.000Z</time>
      </trkpt>
      <trkpt lat="47.44809" lon="6.73469">
        <ele>458</ele>
        <time>2015-06-24T17:35:07.981Z</time>
      </trkpt>
      <trkpt lat="47.44809" lon="6.73477">
        <ele>458</ele>
        <time>2015-06-24T17:35:09.000Z</time>
      </trkpt>
      <trkpt lat="47.44809" lon="6.73482">
        <ele>458</ele>
        <time>2015-06-24T17:35:10.000Z</time>
      </trkpt>
      <trkpt lat="47.4481" lon="6.73487">
        <ele>457</ele>
        <time>2015-06-24T17:35:11.000Z</time>
      </trkpt>
      <trkpt lat="47.4481" lon="6.73493">
        <ele>457</ele>
        <time>2015-06-24T17:35:12.000Z</time>
      </trkpt>
      <trkpt lat="47.4481" lon="6.735">
        <ele>457</ele>
        <time>2015-06-24T17:35:13.000Z</time>
      </trkpt>
      <trkpt lat="47.44809" lon="6.73507">
        <ele>455</ele>
        <time>2015-06-24T17:35:14.000Z</time>
      </trkpt>
      <trkpt lat="47.44808" lon="6.73513">
        <ele>455</ele>
        <time>2015-06-24T17:35:15.000Z</time>
      </trkpt>
      <trkpt lat="47.44807" lon="6.73519">
        <ele>454</ele>
        <time>2015-06-24T17:35:16.000Z</time>
      </trkpt>
      <trkpt lat="47.44805" lon="6.73525">
        <ele>454</ele>
        <time>2015-06-24T17:35:17.000Z</time>
      </trkpt>
      <trkpt lat="47.44802" lon="6.73531">
        <ele>454</ele>
        <time>2015-06-24T17:35:18.000Z</time>
      </trkpt>
      <trkpt lat="47.44801" lon="6.73537">
        <ele>454</ele>
        <time>2015-06-24T17:35:19.000Z</time>
      </trkpt>
      <trkpt lat="47.44806" lon="6.73562">
        <ele>453</ele>
        <time>2015-06-24T17:35:20.000Z</time>
      </trkpt>
      <trkpt lat="47.44808" lon="6.73576">
        <ele>453</ele>
        <time>2015-06-24T17:35:21.000Z</time>
      </trkpt>
      <trkpt lat="47.44808" lon="6.73583">
        <ele>453</ele>
        <time>2015-06-24T17:35:22.000Z</time>
      </trkpt>
      <trkpt lat="47.44809" lon="6.73589">
        <ele>450</ele>
        <time>2015-06-24T17:35:23.000Z</time>
      </trkpt>
      <trkpt lat="47.44807" lon="6.73593">
        <ele>450</ele>
        <time>2015-06-24T17:35:24.000Z</time>
      </trkpt>
      <trkpt lat="47.44806" lon="6.73597">
        <ele>450</ele>
        <time>2015-06-24T17:35:25.000Z</time>
      </trkpt>
      <trkpt lat="47.44805" lon="6.73602">
        <ele>450</ele>
        <time>2015-06-24T17:35:26.000Z</time>
      </trkpt>
      <trkpt lat="47.44803" lon="6.73608">
        <ele>449</ele>
        <time>2015-06-24T17:35:27.000Z</time>
      </trkpt>
      <trkpt lat="47.44803" lon="6.73614">
        <ele>449</ele>
        <time>2015-06-24T17:35:28.000Z</time>
      </trkpt>
      <trkpt lat="47.44802" lon="6.73619">
        <ele>449</ele>
        <time>2015-06-24T17:35:29.000Z</time>
      </trkpt>
      <trkpt lat="47.448" lon="6.73625">
        <ele>448</ele>
        <time>2015-06-24T17:35:30.000Z</time>
      </trkpt>
      <trkpt lat="47.44801" lon="6.7363">
        <ele>448</ele>
        <time>2015-06-24T17:35:31.000Z</time>
      </trkpt>
      <trkpt lat="47.44805" lon="6.73652">
        <ele>448</ele>
        <time>2015-06-24T17:35:32.000Z</time>
      </trkpt>
      <trkpt lat="47.44805" lon="6.7366">
        <ele>448</ele>
        <time>2015-06-24T17:35:33.000Z</time>
      </trkpt>
      <trkpt lat="47.44803" lon="6.7367">
        <ele>445</ele>
        <time>2015-06-24T17:35:34.000Z</time>
      </trkpt>
      <trkpt lat="47.44803" lon="6.73685">
        <ele>444</ele>
        <time>2015-06-24T17:35:35.000Z</time>
      </trkpt>
      <trkpt lat="47.44803" lon="6.73696">
        <ele>444</ele>
        <time>2015-06-24T17:35:36.000Z</time>
      </trkpt>
      <trkpt lat="47.448" lon="6.73702">
        <ele>444</ele>
        <time>2015-06-24T17:35:37.000Z</time>
      </trkpt>
      <trkpt lat="47.448" lon="6.7371">
        <ele>443</ele>
        <time>2015-06-24T17:35:38.000Z</time>
      </trkpt>
      <trkpt lat="47.44799" lon="6.73716">
        <ele>443</ele>
        <time>2015-06-24T17:35:39.000Z</time>
      </trkpt>
      <trkpt lat="47.44799" lon="6.73726">
        <ele>443</ele>
        <time>2015-06-24T17:35:40.000Z</time>
      </trkpt>
      <trkpt lat="47.44798" lon="6.73733">
        <ele>443</ele>
        <time>2015-06-24T17:35:41.000Z</time>
      </trkpt>
      <trkpt lat="47.44798" lon="6.73739">
        <ele>443</ele>
        <time>2015-06-24T17:35:42.000Z</time>
      </trkpt>
      <trkpt lat="47.44797" lon="6.73743">
        <ele>443</ele>
        <time>2015-06-24T17:35:43.000Z</time>
      </trkpt>
      <trkpt lat="47.44796" lon="6.73749">
        <ele>442</ele>
        <time>2015-06-24T17:35:44.000Z</time>
      </trkpt>
      <trkpt lat="47.44794" lon="6.73754">
        <ele>439</ele>
        <time>2015-06-24T17:35:45.000Z</time>
      </trkpt>
      <trkpt lat="47.44793" lon="6.73758">
        <ele>439</ele>
        <time>2015-06-24T17:35:46.000Z</time>
      </trkpt>
      <trkpt lat="47.44792" lon="6.73763">
        <ele>439</ele>
        <time>2015-06-24T17:35:47.000Z</time>
      </trkpt>
      <trkpt lat="47.44795" lon="6.73781">
        <ele>438</ele>
        <time>2015-06-24T17:35:48.000Z</time>
      </trkpt>
      <trkpt lat="47.44794" lon="6.73789">
        <ele>438</ele>
        <time>2015-06-24T17:35:49.000Z</time>
      </trkpt>
      <trkpt lat="47.44793" lon="6.73795">
        <ele>438</ele>
        <time>2015-06-24T17:35:50.000Z</time>
      </trkpt>
      <trkpt lat="47.44789" lon="6.73805">
        <ele>437</ele>
        <time>2015-06-24T17:35:51.000Z</time>
      </trkpt>
      <trkpt lat="47.44786" lon="6.7381">
        <ele>437</ele>
        <time>2015-06-24T17:35:52.000Z</time>
      </trkpt>
      <trkpt lat="47.44784" lon="6.73815">
        <ele>437</ele>
        <time>2015-06-24T17:35:53.000Z</time>
      </trkpt>
      <trkpt lat="47.44781" lon="6.73824">
        <ele>436</ele>
        <time>2015-06-24T17:35:54.000Z</time>
      </trkpt>
      <trkpt lat="47.44778" lon="6.73832">
        <ele>436</ele>
        <time>2015-06-24T17:35:55.000Z</time>
      </trkpt>
      <trkpt lat="47.44775" lon="6.73837">
        <ele>432</ele>
        <time>2015-06-24T17:35:56.000Z</time>
      </trkpt>
      <trkpt lat="47.44772" lon="6.73842">
        <ele>432</ele>
        <time>2015-06-24T17:35:57.000Z</time>
      </trkpt>
      <trkpt lat="47.44768" lon="6.73847">
        <ele>432</ele>
        <time>2015-06-24T17:35:58.000Z</time>
      </trkpt>
      <trkpt lat="47.44766" lon="6.73854">
        <ele>432</ele>
        <time>2015-06-24T17:35:59.000Z</time>
      </trkpt>
      <trkpt lat="47.44763" lon="6.7386">
        <ele>431</ele>
        <time>2015-06-24T17:36:00.000Z</time>
      </trkpt>
      <trkpt lat="47.44761" lon="6.73868">
        <ele>431</ele>
        <time>2015-06-24T17:36:01.000Z</time>
      </trkpt>
      <trkpt lat="47.4476" lon="6.73876">
        <ele>430</ele>
        <time>2015-06-24T17:36:02.000Z</time>
      </trkpt>
      <trkpt lat="47.44758" lon="6.73884">
        <ele>430</ele>
        <time>2015-06-24T17:36:03.000Z</time>
      </trkpt>
      <trkpt lat="47.44756" lon="6.739">
        <ele>428</ele>
        <time>2015-06-24T17:36:04.000Z</time>
      </trkpt>
      <trkpt lat="47.44755" lon="6.73913">
        <ele>426</ele>
        <time>2015-06-24T17:36:05.000Z</time>
      </trkpt>
      <trkpt lat="47.44754" lon="6.73922">
        <ele>425</ele>
        <time>2015-06-24T17:36:06.000Z</time>
      </trkpt>
      <trkpt lat="47.44753" lon="6.73932">
        <ele>424</ele>
        <time>2015-06-24T17:36:07.000Z</time>
      </trkpt>
      <trkpt lat="47.44752" lon="6.73941">
        <ele>424</ele>
        <time>2015-06-24T17:36:08.000Z</time>
      </trkpt>
      <trkpt lat="47.44753" lon="6.73954">
        <ele>423</ele>
        <time>2015-06-24T17:36:09.000Z</time>
      </trkpt>
      <trkpt lat="47.44755" lon="6.73966">
        <ele>422</ele>
        <time>2015-06-24T17:36:10.000Z</time>
      </trkpt>
      <trkpt lat="47.44755" lon="6.73976">
        <ele>421</ele>
        <time>2015-06-24T17:36:11.000Z</time>
      </trkpt>
      <trkpt lat="47.44756" lon="6.73988">
        <ele>420</ele>
        <time>2015-06-24T17:36:12.000Z</time>
      </trkpt>
      <trkpt lat="47.44756" lon="6.74001">
        <ele>417</ele>
        <time>2015-06-24T17:36:13.000Z</time>
      </trkpt>
      <trkpt lat="47.44757" lon="6.74016">
        <ele>416</ele>
        <time>2015-06-24T17:36:14.000Z</time>
      </trkpt>
      <trkpt lat="47.4476" lon="6.74029">
        <ele>415</ele>
        <time>2015-06-24T17:36:15.000Z</time>
      </trkpt>
      <trkpt lat="47.44762" lon="6.74039">
        <ele>414</ele>
        <time>2015-06-24T17:36:16.000Z</time>
      </trkpt>
      <trkpt lat="47.44762" lon="6.74048">
        <ele>414</ele>
        <time>2015-06-24T17:36:17.000Z</time>
      </trkpt>
      <trkpt lat="47.44764" lon="6.74061">
        <ele>413</ele>
        <time>2015-06-24T17:36:18.000Z</time>
      </trkpt>
      <trkpt lat="47.44767" lon="6.74073">
        <ele>412</ele>
        <time>2015-06-24T17:36:19.000Z</time>
      </trkpt>
      <trkpt lat="47.44771" lon="6.74085">
        <ele>407</ele>
        <time>2015-06-24T17:36:20.000Z</time>
      </trkpt>
      <trkpt lat="47.44776" lon="6.74098">
        <ele>406</ele>
        <time>2015-06-24T17:36:21.000Z</time>
      </trkpt>
      <trkpt lat="47.44779" lon="6.74109">
        <ele>406</ele>
        <time>2015-06-24T17:36:22.000Z</time>
      </trkpt>
      <trkpt lat="47.44787" lon="6.74123">
        <ele>405</ele>
        <time>2015-06-24T17:36:23.000Z</time>
      </trkpt>
      <trkpt lat="47.44793" lon="6.74136">
        <ele>404</ele>
        <time>2015-06-24T17:36:24.000Z</time>
      </trkpt>
      <trkpt lat="47.44799" lon="6.74146">
        <ele>404</ele>
        <time>2015-06-24T17:36:25.000Z</time>
      </trkpt>
      <trkpt lat="47.44803" lon="6.74157">
        <ele>403</ele>
        <time>2015-06-24T17:36:26.000Z</time>
      </trkpt>
      <trkpt lat="47.44809" lon="6.74171">
        <ele>399</ele>
        <time>2015-06-24T17:36:27.000Z</time>
      </trkpt>
      <trkpt lat="47.44812" lon="6.7418">
        <ele>399</ele>
        <time>2015-06-24T17:36:28.000Z</time>
      </trkpt>
      <trkpt lat="47.44812" lon="6.74184">
        <ele>398</ele>
        <time>2015-06-24T17:36:29.000Z</time>
      </trkpt>
      <trkpt lat="47.44814" lon="6.7419">
        <ele>398</ele>
        <time>2015-06-24T17:36:30.000Z</time>
      </trkpt>
      <trkpt lat="47.44814" lon="6.74196">
        <ele>398</ele>
        <time>2015-06-24T17:36:31.000Z</time>
      </trkpt>
      <trkpt lat="47.44815" lon="6.74201">
        <ele>398</ele>
        <time>2015-06-24T17:36:32.000Z</time>
      </trkpt>
      <trkpt lat="47.44818" lon="6.74214">
        <ele>397</ele>
        <time>2015-06-24T17:36:33.000Z</time>
      </trkpt>
      <trkpt lat="47.44821" lon="6.74223">
        <ele>397</ele>
        <time>2015-06-24T17:36:34.000Z</time>
      </trkpt>
      <trkpt lat="47.44824" lon="6.74231">
        <ele>397</ele>
        <time>2015-06-24T17:36:35.000Z</time>
      </trkpt>
      <trkpt lat="47.44826" lon="6.74239">
        <ele>396</ele>
        <time>2015-06-24T17:36:36.000Z</time>
      </trkpt>
      <trkpt lat="47.4483" lon="6.74248">
        <ele>396</ele>
        <time>2015-06-24T17:36:37.000Z</time>
      </trkpt>
      <trkpt lat="47.44832" lon="6.74255">
        <ele>395</ele>
        <time>2015-06-24T17:36:38.000Z</time>
      </trkpt>
      <trkpt lat="47.44837" lon="6.74269">
        <ele>392</ele>
        <time>2015-06-24T17:36:39.000Z</time>
      </trkpt>
      <trkpt lat="47.44841" lon="6.7428">
        <ele>391</ele>
        <time>2015-06-24T17:36:40.000Z</time>
      </trkpt>
      <trkpt lat="47.44844" lon="6.74289">
        <ele>390</ele>
        <time>2015-06-24T17:36:41.000Z</time>
      </trkpt>
      <trkpt lat="47.44848" lon="6.74298">
        <ele>390</ele>
        <time>2015-06-24T17:36:42.000Z</time>
      </trkpt>
      <trkpt lat="47.44852" lon="6.74311">
        <ele>389</ele>
        <time>2015-06-24T17:36:43.000Z</time>
      </trkpt>
      <trkpt lat="47.44864" lon="6.74326">
        <ele>389</ele>
        <time>2015-06-24T17:36:44.000Z</time>
      </trkpt>
      <trkpt lat="47.44872" lon="6.74342">
        <ele>386</ele>
        <time>2015-06-24T17:36:45.000Z</time>
      </trkpt>
      <trkpt lat="47.44878" lon="6.74349">
        <ele>386</ele>
        <time>2015-06-24T17:36:46.000Z</time>
      </trkpt>
      <trkpt lat="47.44882" lon="6.74358">
        <ele>385</ele>
        <time>2015-06-24T17:36:47.000Z</time>
      </trkpt>
      <trkpt lat="47.44888" lon="6.74367">
        <ele>385</ele>
        <time>2015-06-24T17:36:48.000Z</time>
      </trkpt>
      <trkpt lat="47.44892" lon="6.74378">
        <ele>385</ele>
        <time>2015-06-24T17:36:49.000Z</time>
      </trkpt>
      <trkpt lat="47.44898" lon="6.74384">
        <ele>384</ele>
        <time>2015-06-24T17:36:50.000Z</time>
      </trkpt>
      <trkpt lat="47.44903" lon="6.74391">
        <ele>384</ele>
        <time>2015-06-24T17:36:51.000Z</time>
      </trkpt>
      <trkpt lat="47.44909" lon="6.74396">
        <ele>383</ele>
        <time>2015-06-24T17:36:52.000Z</time>
      </trkpt>
      <trkpt lat="47.44914" lon="6.744">
        <ele>383</ele>
        <time>2015-06-24T17:36:53.000Z</time>
      </trkpt>
      <trkpt lat="47.44917" lon="6.74401">
        <ele>380</ele>
        <time>2015-06-24T17:36:54.000Z</time>
      </trkpt>
      <trkpt lat="47.44925" lon="6.74407">
        <ele>380</ele>
        <time>2015-06-24T17:36:55.000Z</time>
      </trkpt>
      <trkpt lat="47.44932" lon="6.74414">
        <ele>380</ele>
        <time>2015-06-24T17:36:56.000Z</time>
      </trkpt>
      <trkpt lat="47.44936" lon="6.74419">
        <ele>379</ele>
        <time>2015-06-24T17:36:57.000Z</time>
      </trkpt>
      <trkpt lat="47.44939" lon="6.74421">
        <ele>379</ele>
        <time>2015-06-24T17:36:58.000Z</time>
      </trkpt>
      <trkpt lat="47.44943" lon="6.74424">
        <ele>379</ele>
        <time>2015-06-24T17:36:59.000Z</time>
      </trkpt>
      <trkpt lat="47.44945" lon="6.74427">
        <ele>379</ele>
        <time>2015-06-24T17:37:00.000Z</time>
      </trkpt>
      <trkpt lat="47.44947" lon="6.7443">
        <ele>379</ele>
        <time>2015-06-24T17:37:01.000Z</time>
      </trkpt>
      <trkpt lat="47.44949" lon="6.74433">
        <ele>379</ele>
        <time>2015-06-24T17:38:19.000Z</time>
      </trkpt>
      <trkpt lat="47.44951" lon="6.74435">
        <ele>379</ele>
        <time>2015-06-24T17:38:20.000Z</time>
      </trkpt>
      <trkpt lat="47.44955" lon="6.74437">
        <ele>378</ele>
        <time>2015-06-24T17:38:22.000Z</time>
      </trkpt>
      <trkpt lat="47.44957" lon="6.74437">
        <ele>378</ele>
        <time>2015-06-24T17:38:23.000Z</time>
      </trkpt>
      <trkpt lat="47.4496" lon="6.74439">
        <ele>378</ele>
        <time>2015-06-24T17:38:25.000Z</time>
      </trkpt>
      <trkpt lat="47.44961" lon="6.7444">
        <ele>378</ele>
        <time>2015-06-24T17:38:26.000Z</time>
      </trkpt>
      <trkpt lat="47.44965" lon="6.74442">
        <ele>378</ele>
        <time>2015-06-24T17:38:28.000Z</time>
      </trkpt>
      <trkpt lat="47.44968" lon="6.74442">
        <ele>378</ele>
        <time>2015-06-24T17:38:29.000Z</time>
      </trkpt>
      <trkpt lat="47.4497" lon="6.74442">
        <ele>378</ele>
        <time>2015-06-24T17:38:30.000Z</time>
      </trkpt>
      <trkpt lat="47.44973" lon="6.74442">
        <ele>377</ele>
        <time>2015-06-24T17:38:31.000Z</time>
      </trkpt>
      <trkpt lat="47.44976" lon="6.7444">
        <ele>377</ele>
        <time>2015-06-24T17:38:32.000Z</time>
      </trkpt>
      <trkpt lat="47.44977" lon="6.7444">
        <ele>377</ele>
        <time>2015-06-24T17:38:33.000Z</time>
      </trkpt>
      <trkpt lat="47.44981" lon="6.74438">
        <ele>377</ele>
        <time>2015-06-24T17:38:36.000Z</time>
      </trkpt>
      <trkpt lat="47.44982" lon="6.74437">
        <ele>377</ele>
        <time>2015-06-24T17:38:37.000Z</time>
      </trkpt>
      <trkpt lat="47.44986" lon="6.74435">
        <ele>376</ele>
        <time>2015-06-24T17:38:40.000Z</time>
      </trkpt>
      <trkpt lat="47.44987" lon="6.74434">
        <ele>376</ele>
        <time>2015-06-24T17:38:41.000Z</time>
      </trkpt>
      <trkpt lat="47.4499" lon="6.74433">
        <ele>376</ele>
        <time>2015-06-24T17:38:43.000Z</time>
      </trkpt>
      <trkpt lat="47.44992" lon="6.74433">
        <ele>376</ele>
        <time>2015-06-24T17:38:44.000Z</time>
      </trkpt>
      <trkpt lat="47.44994" lon="6.74432">
        <ele>376</ele>
        <time>2015-06-24T17:38:45.000Z</time>
      </trkpt>
      <trkpt lat="47.44997" lon="6.74431">
        <ele>375</ele>
        <time>2015-06-24T17:38:46.000Z</time>
      </trkpt>
      <trkpt lat="47.45001" lon="6.74431">
        <ele>375</ele>
        <time>2015-06-24T17:38:48.000Z</time>
      </trkpt>
      <trkpt lat="47.45002" lon="6.74429">
        <ele>375</ele>
        <time>2015-06-24T17:38:49.000Z</time>
      </trkpt>
      <trkpt lat="47.45005" lon="6.74427">
        <ele>375</ele>
        <time>2015-06-24T17:38:51.000Z</time>
      </trkpt>
      <trkpt lat="47.45006" lon="6.74425">
        <ele>375</ele>
        <time>2015-06-24T17:38:52.000Z</time>
      </trkpt>
      <trkpt lat="47.45009" lon="6.74421">
        <ele>375</ele>
        <time>2015-06-24T17:38:54.000Z</time>
      </trkpt>
      <trkpt lat="47.45011" lon="6.74419">
        <ele>375</ele>
        <time>2015-06-24T17:38:55.000Z</time>
      </trkpt>
      <trkpt lat="47.45014" lon="6.74414">
        <ele>376</ele>
        <time>2015-06-24T17:38:57.000Z</time>
      </trkpt>
      <trkpt lat="47.45015" lon="6.74412">
        <ele>376</ele>
        <time>2015-06-24T17:38:58.000Z</time>
      </trkpt>
      <trkpt lat="47.45018" lon="6.74408">
        <ele>377</ele>
        <time>2015-06-24T17:39:01.000Z</time>
      </trkpt>
      <trkpt lat="47.45019" lon="6.74408">
        <ele>377</ele>
        <time>2015-06-24T17:39:02.000Z</time>
      </trkpt>
      <trkpt lat="47.45023" lon="6.74406">
        <ele>378</ele>
        <time>2015-06-24T17:39:05.000Z</time>
      </trkpt>
      <trkpt lat="47.45025" lon="6.74405">
        <ele>378</ele>
        <time>2015-06-24T17:39:06.000Z</time>
      </trkpt>
      <trkpt lat="47.45028" lon="6.74401">
        <ele>378</ele>
        <time>2015-06-24T17:39:08.000Z</time>
      </trkpt>
      <trkpt lat="47.4503" lon="6.744">
        <ele>379</ele>
        <time>2015-06-24T17:39:09.000Z</time>
      </trkpt>
      <trkpt lat="47.45033" lon="6.74397">
        <ele>379</ele>
        <time>2015-06-24T17:39:11.000Z</time>
      </trkpt>
      <trkpt lat="47.45034" lon="6.74396">
        <ele>379</ele>
        <time>2015-06-24T17:39:12.000Z</time>
      </trkpt>
      <trkpt lat="47.45037" lon="6.74393">
        <ele>379</ele>
        <time>2015-06-24T17:39:14.000Z</time>
      </trkpt>
      <trkpt lat="47.45038" lon="6.74391">
        <ele>380</ele>
        <time>2015-06-24T17:39:15.000Z</time>
      </trkpt>
      <trkpt lat="47.4504" lon="6.74387">
        <ele>380</ele>
        <time>2015-06-24T17:39:17.000Z</time>
      </trkpt>
      <trkpt lat="47.45041" lon="6.74385">
        <ele>380</ele>
        <time>2015-06-24T17:39:18.000Z</time>
      </trkpt>
      <trkpt lat="47.45045" lon="6.74382">
        <ele>380</ele>
        <time>2015-06-24T17:39:23.000Z</time>
      </trkpt>
      <trkpt lat="47.45046" lon="6.7438">
        <ele>380</ele>
        <time>2015-06-24T17:39:24.000Z</time>
      </trkpt>
      <trkpt lat="47.45049" lon="6.74377">
        <ele>381</ele>
        <time>2015-06-24T17:39:27.000Z</time>
      </trkpt>
      <trkpt lat="47.4505" lon="6.74376">
        <ele>381</ele>
        <time>2015-06-24T17:39:28.000Z</time>
      </trkpt>
      <trkpt lat="47.45053" lon="6.74373">
        <ele>381</ele>
        <time>2015-06-24T17:39:30.000Z</time>
      </trkpt>
      <trkpt lat="47.45053" lon="6.74371">
        <ele>381</ele>
        <time>2015-06-24T17:39:31.000Z</time>
      </trkpt>
      <trkpt lat="47.45057" lon="6.74367">
        <ele>382</ele>
        <time>2015-06-24T17:39:39.000Z</time>
      </trkpt>
      <trkpt lat="47.45057" lon="6.74367">
        <ele>382</ele>
        <time>2015-06-24T17:39:40.000Z</time>
      </trkpt>
      <trkpt lat="47.45061" lon="6.74364">
        <ele>382</ele>
        <time>2015-06-24T17:39:45.000Z</time>
      </trkpt>
      <trkpt lat="47.45061" lon="6.74364">
        <ele>382</ele>
        <time>2015-06-24T17:39:46.000Z</time>
      </trkpt>
      <trkpt lat="47.45065" lon="6.7436">
        <ele>383</ele>
        <time>2015-06-24T17:39:50.000Z</time>
      </trkpt>
      <trkpt lat="47.45065" lon="6.74358">
        <ele>383</ele>
        <time>2015-06-24T17:39:51.000Z</time>
      </trkpt>
      <trkpt lat="47.45067" lon="6.74354">
        <ele>383</ele>
        <time>2015-06-24T17:39:53.000Z</time>
      </trkpt>
      <trkpt lat="47.45069" lon="6.74353">
        <ele>384</ele>
        <time>2015-06-24T17:39:54.000Z</time>
      </trkpt>
      <trkpt lat="47.45072" lon="6.7435">
        <ele>384</ele>
        <time>2015-06-24T17:39:56.000Z</time>
      </trkpt>
      <trkpt lat="47.45074" lon="6.74348">
        <ele>385</ele>
        <time>2015-06-24T17:39:57.000Z</time>
      </trkpt>
      <trkpt lat="47.45077" lon="6.74344">
        <ele>386</ele>
        <time>2015-06-24T17:40:00.000Z</time>
      </trkpt>
      <trkpt lat="47.45078" lon="6.74342">
        <ele>386</ele>
        <time>2015-06-24T17:40:01.000Z</time>
      </trkpt>
      <trkpt lat="47.45081" lon="6.74338">
        <ele>387</ele>
        <time>2015-06-24T17:40:04.000Z</time>
      </trkpt>
      <trkpt lat="47.45082" lon="6.74336">
        <ele>388</ele>
        <time>2015-06-24T17:40:05.000Z</time>
      </trkpt>
      <trkpt lat="47.45084" lon="6.74331">
        <ele>390</ele>
        <time>2015-06-24T17:40:08.000Z</time>
      </trkpt>
      <trkpt lat="47.45085" lon="6.74329">
        <ele>391</ele>
        <time>2015-06-24T17:40:09.000Z</time>
      </trkpt>
      <trkpt lat="47.45087" lon="6.74325">
        <ele>392</ele>
        <time>2015-06-24T17:40:11.000Z</time>
      </trkpt>
      <trkpt lat="47.45088" lon="6.74323">
        <ele>393</ele>
        <time>2015-06-24T17:40:12.000Z</time>
      </trkpt>
      <trkpt lat="47.45091" lon="6.74319">
        <ele>394</ele>
        <time>2015-06-24T17:40:14.000Z</time>
      </trkpt>
      <trkpt lat="47.45092" lon="6.74317">
        <ele>394</ele>
        <time>2015-06-24T17:40:15.000Z</time>
      </trkpt>
      <trkpt lat="47.45094" lon="6.74313">
        <ele>395</ele>
        <time>2015-06-24T17:40:18.000Z</time>
      </trkpt>
      <trkpt lat="47.45095" lon="6.74311">
        <ele>395</ele>
        <time>2015-06-24T17:40:19.000Z</time>
      </trkpt>
      <trkpt lat="47.45098" lon="6.74307">
        <ele>396</ele>
        <time>2015-06-24T17:40:22.000Z</time>
      </trkpt>
      <trkpt lat="47.45099" lon="6.74307">
        <ele>396</ele>
        <time>2015-06-24T17:40:23.000Z</time>
      </trkpt>
      <trkpt lat="47.45102" lon="6.74302">
        <ele>396</ele>
        <time>2015-06-24T17:40:26.000Z</time>
      </trkpt>
      <trkpt lat="47.45103" lon="6.74301">
        <ele>397</ele>
        <time>2015-06-24T17:40:27.000Z</time>
      </trkpt>
      <trkpt lat="47.45105" lon="6.74296">
        <ele>397</ele>
        <time>2015-06-24T17:40:30.000Z</time>
      </trkpt>
      <trkpt lat="47.45106" lon="6.74295">
        <ele>397</ele>
        <time>2015-06-24T17:40:31.000Z</time>
      </trkpt>
      <trkpt lat="47.45109" lon="6.7429">
        <ele>398</ele>
        <time>2015-06-24T17:40:34.000Z</time>
      </trkpt>
      <trkpt lat="47.45109" lon="6.74289">
        <ele>398</ele>
        <time>2015-06-24T17:40:35.000Z</time>
      </trkpt>
      <trkpt lat="47.45112" lon="6.74285">
        <ele>398</ele>
        <time>2015-06-24T17:40:38.000Z</time>
      </trkpt>
      <trkpt lat="47.45113" lon="6.74284">
        <ele>398</ele>
        <time>2015-06-24T17:40:39.000Z</time>
      </trkpt>
      <trkpt lat="47.45116" lon="6.7428">
        <ele>398</ele>
        <time>2015-06-24T17:40:43.000Z</time>
      </trkpt>
      <trkpt lat="47.45116" lon="6.74278">
        <ele>399</ele>
        <time>2015-06-24T17:40:44.000Z</time>
      </trkpt>
      <trkpt lat="47.45118" lon="6.74273">
        <ele>399</ele>
        <time>2015-06-24T17:40:47.000Z</time>
      </trkpt>
      <trkpt lat="47.45119" lon="6.74271">
        <ele>399</ele>
        <time>2015-06-24T17:40:48.000Z</time>
      </trkpt>
      <trkpt lat="47.45122" lon="6.74268">
        <ele>399</ele>
        <time>2015-06-24T17:40:50.000Z</time>
      </trkpt>
      <trkpt lat="47.45123" lon="6.74266">
        <ele>399</ele>
        <time>2015-06-24T17:40:51.000Z</time>
      </trkpt>
      <trkpt lat="47.45126" lon="6.74262">
        <ele>400</ele>
        <time>2015-06-24T17:40:54.000Z</time>
      </trkpt>
      <trkpt lat="47.45127" lon="6.74261">
        <ele>400</ele>
        <time>2015-06-24T17:40:55.000Z</time>
      </trkpt>
      <trkpt lat="47.45131" lon="6.74261">
        <ele>400</ele>
        <time>2015-06-24T17:40:59.000Z</time>
      </trkpt>
      <trkpt lat="47.45132" lon="6.74261">
        <ele>400</ele>
        <time>2015-06-24T17:41:00.000Z</time>
      </trkpt>
      <trkpt lat="47.45134" lon="6.74258">
        <ele>401</ele>
        <time>2015-06-24T17:41:03.000Z</time>
      </trkpt>
      <trkpt lat="47.45135" lon="6.74256">
        <ele>401</ele>
        <time>2015-06-24T17:41:04.000Z</time>
      </trkpt>
      <trkpt lat="47.45139" lon="6.74253">
        <ele>402</ele>
        <time>2015-06-24T17:41:08.000Z</time>
      </trkpt>
      <trkpt lat="47.4514" lon="6.74252">
        <ele>402</ele>
        <time>2015-06-24T17:41:09.000Z</time>
      </trkpt>
      <trkpt lat="47.45142" lon="6.74248">
        <ele>406</ele>
        <time>2015-06-24T17:41:12.000Z</time>
      </trkpt>
      <trkpt lat="47.45143" lon="6.74247">
        <ele>406</ele>
        <time>2015-06-24T17:41:13.000Z</time>
      </trkpt>
      <trkpt lat="47.45147" lon="6.74245">
        <ele>406</ele>
        <time>2015-06-24T17:41:18.000Z</time>
      </trkpt>
      <trkpt lat="47.45147" lon="6.74244">
        <ele>407</ele>
        <time>2015-06-24T17:41:19.000Z</time>
      </trkpt>
      <trkpt lat="47.4515" lon="6.7424">
        <ele>407</ele>
        <time>2015-06-24T17:41:23.000Z</time>
      </trkpt>
      <trkpt lat="47.4515" lon="6.74239">
        <ele>407</ele>
        <time>2015-06-24T17:41:24.000Z</time>
      </trkpt>
      <trkpt lat="47.45153" lon="6.74235">
        <ele>407</ele>
        <time>2015-06-24T17:41:27.000Z</time>
      </trkpt>
      <trkpt lat="47.45154" lon="6.74234">
        <ele>407</ele>
        <time>2015-06-24T17:41:28.000Z</time>
      </trkpt>
      <trkpt lat="47.45157" lon="6.74229">
        <ele>407</ele>
        <time>2015-06-24T17:41:31.000Z</time>
      </trkpt>
      <trkpt lat="47.45158" lon="6.74228">
        <ele>407</ele>
        <time>2015-06-24T17:41:32.000Z</time>
      </trkpt>
      <trkpt lat="47.45162" lon="6.74226">
        <ele>407</ele>
        <time>2015-06-24T17:41:37.000Z</time>
      </trkpt>
      <trkpt lat="47.45163" lon="6.74225">
        <ele>407</ele>
        <time>2015-06-24T17:41:38.000Z</time>
      </trkpt>
      <trkpt lat="47.45167" lon="6.74221">
        <ele>408</ele>
        <time>2015-06-24T17:41:41.000Z</time>
      </trkpt>
      <trkpt lat="47.45168" lon="6.74219">
        <ele>415</ele>
        <time>2015-06-24T17:41:42.000Z</time>
      </trkpt>
      <trkpt lat="47.45171" lon="6.74215">
        <ele>416</ele>
        <time>2015-06-24T17:41:45.000Z</time>
      </trkpt>
      <trkpt lat="47.45172" lon="6.74214">
        <ele>416</ele>
        <time>2015-06-24T17:41:46.000Z</time>
      </trkpt>
      <trkpt lat="47.45175" lon="6.74209">
        <ele>416</ele>
        <time>2015-06-24T17:41:48.000Z</time>
      </trkpt>
      <trkpt lat="47.45177" lon="6.74206">
        <ele>417</ele>
        <time>2015-06-24T17:41:49.000Z</time>
      </trkpt>
      <trkpt lat="47.4518" lon="6.74203">
        <ele>417</ele>
        <time>2015-06-24T17:41:51.000Z</time>
      </trkpt>
      <trkpt lat="47.4518" lon="6.74202">
        <ele>417</ele>
        <time>2015-06-24T17:41:52.000Z</time>
      </trkpt>
      <trkpt lat="47.45184" lon="6.742">
        <ele>417</ele>
        <time>2015-06-24T17:41:57.000Z</time>
      </trkpt>
      <trkpt lat="47.45185" lon="6.742">
        <ele>417</ele>
        <time>2015-06-24T17:41:58.000Z</time>
      </trkpt>
      <trkpt lat="47.45187" lon="6.74203">
        <ele>417</ele>
        <time>2015-06-24T17:42:03.000Z</time>
      </trkpt>
      <trkpt lat="47.45188" lon="6.74205">
        <ele>417</ele>
        <time>2015-06-24T17:42:04.000Z</time>
      </trkpt>
      <trkpt lat="47.45192" lon="6.74206">
        <ele>418</ele>
        <time>2015-06-24T17:42:08.000Z</time>
      </trkpt>
      <trkpt lat="47.45193" lon="6.74205">
        <ele>418</ele>
        <time>2015-06-24T17:42:09.000Z</time>
      </trkpt>
      <trkpt lat="47.45196" lon="6.74201">
        <ele>418</ele>
        <time>2015-06-24T17:42:12.000Z</time>
      </trkpt>
      <trkpt lat="47.45197" lon="6.742">
        <ele>418</ele>
        <time>2015-06-24T17:42:13.000Z</time>
      </trkpt>
      <trkpt lat="47.452" lon="6.74196">
        <ele>419</ele>
        <time>2015-06-24T17:42:16.000Z</time>
      </trkpt>
      <trkpt lat="47.45201" lon="6.74195">
        <ele>419</ele>
        <time>2015-06-24T17:42:17.000Z</time>
      </trkpt>
      <trkpt lat="47.45202" lon="6.74189">
        <ele>419</ele>
        <time>2015-06-24T17:42:20.000Z</time>
      </trkpt>
      <trkpt lat="47.45203" lon="6.74186">
        <ele>419</ele>
        <time>2015-06-24T17:42:21.000Z</time>
      </trkpt>
      <trkpt lat="47.45205" lon="6.74181">
        <ele>420</ele>
        <time>2015-06-24T17:42:28.000Z</time>
      </trkpt>
      <trkpt lat="47.45206" lon="6.74181">
        <ele>420</ele>
        <time>2015-06-24T17:42:29.000Z</time>
      </trkpt>
      <trkpt lat="47.45209" lon="6.74177">
        <ele>420</ele>
        <time>2015-06-24T17:42:35.000Z</time>
      </trkpt>
      <trkpt lat="47.45211" lon="6.74176">
        <ele>420</ele>
        <time>2015-06-24T17:42:36.000Z</time>
      </trkpt>
      <trkpt lat="47.45213" lon="6.74172">
        <ele>421</ele>
        <time>2015-06-24T17:42:38.000Z</time>
      </trkpt>
      <trkpt lat="47.45215" lon="6.7417">
        <ele>421</ele>
        <time>2015-06-24T17:42:39.000Z</time>
      </trkpt>
      <trkpt lat="47.45217" lon="6.74166">
        <ele>425</ele>
        <time>2015-06-24T17:42:41.000Z</time>
      </trkpt>
      <trkpt lat="47.45218" lon="6.74163">
        <ele>425</ele>
        <time>2015-06-24T17:42:42.000Z</time>
      </trkpt>
      <trkpt lat="47.4522" lon="6.74161">
        <ele>425</ele>
        <time>2015-06-24T17:42:43.000Z</time>
      </trkpt>
      <trkpt lat="47.45222" lon="6.74158">
        <ele>425</ele>
        <time>2015-06-24T17:42:44.000Z</time>
      </trkpt>
      <trkpt lat="47.45224" lon="6.74153">
        <ele>426</ele>
        <time>2015-06-24T17:42:46.000Z</time>
      </trkpt>
      <trkpt lat="47.45226" lon="6.7415">
        <ele>426</ele>
        <time>2015-06-24T17:42:47.000Z</time>
      </trkpt>
      <trkpt lat="47.45227" lon="6.74148">
        <ele>426</ele>
        <time>2015-06-24T17:42:48.000Z</time>
      </trkpt>
      <trkpt lat="47.45228" lon="6.74144">
        <ele>426</ele>
        <time>2015-06-24T17:42:49.000Z</time>
      </trkpt>
      <trkpt lat="47.45229" lon="6.74141">
        <ele>426</ele>
        <time>2015-06-24T17:42:50.000Z</time>
      </trkpt>
      <trkpt lat="47.45231" lon="6.74139">
        <ele>426</ele>
        <time>2015-06-24T17:42:51.000Z</time>
      </trkpt>
      <trkpt lat="47.45233" lon="6.74135">
        <ele>426</ele>
        <time>2015-06-24T17:42:53.000Z</time>
      </trkpt>
      <trkpt lat="47.45234" lon="6.74133">
        <ele>426</ele>
        <time>2015-06-24T17:42:54.000Z</time>
      </trkpt>
      <trkpt lat="47.45237" lon="6.7413">
        <ele>426</ele>
        <time>2015-06-24T17:42:56.000Z</time>
      </trkpt>
      <trkpt lat="47.45238" lon="6.74128">
        <ele>426</ele>
        <time>2015-06-24T17:42:57.000Z</time>
      </trkpt>
      <trkpt lat="47.4524" lon="6.74124">
        <ele>426</ele>
        <time>2015-06-24T17:42:59.000Z</time>
      </trkpt>
      <trkpt lat="47.45241" lon="6.74122">
        <ele>427</ele>
        <time>2015-06-24T17:43:00.000Z</time>
      </trkpt>
      <trkpt lat="47.45243" lon="6.74117">
        <ele>427</ele>
        <time>2015-06-24T17:43:03.000Z</time>
      </trkpt>
      <trkpt lat="47.45244" lon="6.74116">
        <ele>427</ele>
        <time>2015-06-24T17:43:04.000Z</time>
      </trkpt>
      <trkpt lat="47.45246" lon="6.74112">
        <ele>427</ele>
        <time>2015-06-24T17:43:06.000Z</time>
      </trkpt>
      <trkpt lat="47.45247" lon="6.74111">
        <ele>427</ele>
        <time>2015-06-24T17:43:07.000Z</time>
      </trkpt>
      <trkpt lat="47.45249" lon="6.74107">
        <ele>428</ele>
        <time>2015-06-24T17:43:09.000Z</time>
      </trkpt>
      <trkpt lat="47.4525" lon="6.74104">
        <ele>433</ele>
        <time>2015-06-24T17:43:10.000Z</time>
      </trkpt>
      <trkpt lat="47.45253" lon="6.74099">
        <ele>432</ele>
        <time>2015-06-24T17:43:12.000Z</time>
      </trkpt>
      <trkpt lat="47.45254" lon="6.74097">
        <ele>432</ele>
        <time>2015-06-24T17:43:13.000Z</time>
      </trkpt>
      <trkpt lat="47.45256" lon="6.74092">
        <ele>432</ele>
        <time>2015-06-24T17:43:16.000Z</time>
      </trkpt>
      <trkpt lat="47.45257" lon="6.7409">
        <ele>432</ele>
        <time>2015-06-24T17:43:17.000Z</time>
      </trkpt>
      <trkpt lat="47.45259" lon="6.74087">
        <ele>432</ele>
        <time>2015-06-24T17:43:19.000Z</time>
      </trkpt>
      <trkpt lat="47.45261" lon="6.74086">
        <ele>432</ele>
        <time>2015-06-24T17:43:20.000Z</time>
      </trkpt>
      <trkpt lat="47.45264" lon="6.74083">
        <ele>434</ele>
        <time>2015-06-24T17:43:23.000Z</time>
      </trkpt>
      <trkpt lat="47.45265" lon="6.74082">
        <ele>434</ele>
        <time>2015-06-24T17:43:24.000Z</time>
      </trkpt>
      <trkpt lat="47.45266" lon="6.74077">
        <ele>435</ele>
        <time>2015-06-24T17:43:27.000Z</time>
      </trkpt>
      <trkpt lat="47.45267" lon="6.74076">
        <ele>435</ele>
        <time>2015-06-24T17:43:28.000Z</time>
      </trkpt>
      <trkpt lat="47.4527" lon="6.74072">
        <ele>435</ele>
        <time>2015-06-24T17:43:31.000Z</time>
      </trkpt>
      <trkpt lat="47.45271" lon="6.7407">
        <ele>436</ele>
        <time>2015-06-24T17:43:32.000Z</time>
      </trkpt>
      <trkpt lat="47.45274" lon="6.74066">
        <ele>436</ele>
        <time>2015-06-24T17:43:34.000Z</time>
      </trkpt>
      <trkpt lat="47.45275" lon="6.74064">
        <ele>436</ele>
        <time>2015-06-24T17:43:35.000Z</time>
      </trkpt>
      <trkpt lat="47.45277" lon="6.74061">
        <ele>436</ele>
        <time>2015-06-24T17:43:37.000Z</time>
      </trkpt>
      <trkpt lat="47.45278" lon="6.74059">
        <ele>437</ele>
        <time>2015-06-24T17:43:38.000Z</time>
      </trkpt>
      <trkpt lat="47.4528" lon="6.74056">
        <ele>437</ele>
        <time>2015-06-24T17:43:40.000Z</time>
      </trkpt>
      <trkpt lat="47.45282" lon="6.74055">
        <ele>437</ele>
        <time>2015-06-24T17:43:41.000Z</time>
      </trkpt>
      <trkpt lat="47.45286" lon="6.74054">
        <ele>437</ele>
        <time>2015-06-24T17:43:44.000Z</time>
      </trkpt>
      <trkpt lat="47.45287" lon="6.74054">
        <ele>437</ele>
        <time>2015-06-24T17:43:45.000Z</time>
      </trkpt>
      <trkpt lat="47.4529" lon="6.74052">
        <ele>438</ele>
        <time>2015-06-24T17:43:49.000Z</time>
      </trkpt>
      <trkpt lat="47.45291" lon="6.7405">
        <ele>438</ele>
        <time>2015-06-24T17:43:50.000Z</time>
      </trkpt>
      <trkpt lat="47.45294" lon="6.74045">
        <ele>438</ele>
        <time>2015-06-24T17:43:53.000Z</time>
      </trkpt>
      <trkpt lat="47.45295" lon="6.74044">
        <ele>438</ele>
        <time>2015-06-24T17:43:54.000Z</time>
      </trkpt>
      <trkpt lat="47.45298" lon="6.7404">
        <ele>438</ele>
        <time>2015-06-24T17:43:58.000Z</time>
      </trkpt>
      <trkpt lat="47.45299" lon="6.7404">
        <ele>438</ele>
        <time>2015-06-24T17:43:59.000Z</time>
      </trkpt>
      <trkpt lat="47.45302" lon="6.74036">
        <ele>439</ele>
        <time>2015-06-24T17:44:02.000Z</time>
      </trkpt>
      <trkpt lat="47.45303" lon="6.74034">
        <ele>439</ele>
        <time>2015-06-24T17:44:03.000Z</time>
      </trkpt>
      <trkpt lat="47.45306" lon="6.74029">
        <ele>439</ele>
        <time>2015-06-24T17:44:06.000Z</time>
      </trkpt>
      <trkpt lat="47.45307" lon="6.74028">
        <ele>439</ele>
        <time>2015-06-24T17:44:07.000Z</time>
      </trkpt>
      <trkpt lat="47.45309" lon="6.74025">
        <ele>439</ele>
        <time>2015-06-24T17:44:10.000Z</time>
      </trkpt>
      <trkpt lat="47.4531" lon="6.74023">
        <ele>440</ele>
        <time>2015-06-24T17:44:11.000Z</time>
      </trkpt>
      <trkpt lat="47.45312" lon="6.74018">
        <ele>440</ele>
        <time>2015-06-24T17:44:15.000Z</time>
      </trkpt>
      <trkpt lat="47.45313" lon="6.74017">
        <ele>440</ele>
        <time>2015-06-24T17:44:16.000Z</time>
      </trkpt>
      <trkpt lat="47.45315" lon="6.74012">
        <ele>440</ele>
        <time>2015-06-24T17:44:28.000Z</time>
      </trkpt>
      <trkpt lat="47.45316" lon="6.74009">
        <ele>441</ele>
        <time>2015-06-24T17:44:29.000Z</time>
      </trkpt>
      <trkpt lat="47.45317" lon="6.74005">
        <ele>441</ele>
        <time>2015-06-24T17:44:31.000Z</time>
      </trkpt>
      <trkpt lat="47.45318" lon="6.74002">
        <ele>441</ele>
        <time>2015-06-24T17:44:32.000Z</time>
      </trkpt>
      <trkpt lat="47.4532" lon="6.73997">
        <ele>443</ele>
        <time>2015-06-24T17:44:34.000Z</time>
      </trkpt>
      <trkpt lat="47.45321" lon="6.73994">
        <ele>443</ele>
        <time>2015-06-24T17:44:35.000Z</time>
      </trkpt>
      <trkpt lat="47.45323" lon="6.73989">
        <ele>443</ele>
        <time>2015-06-24T17:44:37.000Z</time>
      </trkpt>
      <trkpt lat="47.45324" lon="6.73986">
        <ele>443</ele>
        <time>2015-06-24T17:44:38.000Z</time>
      </trkpt>
      <trkpt lat="47.45325" lon="6.73983">
        <ele>443</ele>
        <time>2015-06-24T17:44:39.000Z</time>
      </trkpt>
      <trkpt lat="47.45326" lon="6.7398">
        <ele>443</ele>
        <time>2015-06-24T17:44:40.000Z</time>
      </trkpt>
      <trkpt lat="47.45327" lon="6.73974">
        <ele>443</ele>
        <time>2015-06-24T17:44:42.000Z</time>
      </trkpt>
      <trkpt lat="47.45328" lon="6.73969">
        <ele>443</ele>
        <time>2015-06-24T17:44:43.000Z</time>
      </trkpt>
      <trkpt lat="47.45329" lon="6.73963">
        <ele>443</ele>
        <time>2015-06-24T17:44:48.000Z</time>
      </trkpt>
      <trkpt lat="47.4533" lon="6.73961">
        <ele>443</ele>
        <time>2015-06-24T17:44:49.000Z</time>
      </trkpt>
      <trkpt lat="47.45332" lon="6.73957">
        <ele>443</ele>
        <time>2015-06-24T17:44:51.000Z</time>
      </trkpt>
      <trkpt lat="47.45332" lon="6.73955">
        <ele>444</ele>
        <time>2015-06-24T17:44:52.000Z</time>
      </trkpt>
      <trkpt lat="47.45334" lon="6.7395">
        <ele>448</ele>
        <time>2015-06-24T17:44:55.000Z</time>
      </trkpt>
      <trkpt lat="47.45335" lon="6.73949">
        <ele>448</ele>
        <time>2015-06-24T17:44:56.000Z</time>
      </trkpt>
      <trkpt lat="47.45336" lon="6.73946">
        <ele>448</ele>
        <time>2015-06-24T17:44:59.000Z</time>
      </trkpt>
      <trkpt lat="47.45337" lon="6.73943">
        <ele>448</ele>
        <time>2015-06-24T17:45:00.000Z</time>
      </trkpt>
      <trkpt lat="47.45338" lon="6.7394">
        <ele>448</ele>
        <time>2015-06-24T17:45:01.000Z</time>
      </trkpt>
      <trkpt lat="47.45339" lon="6.73936">
        <ele>448</ele>
        <time>2015-06-24T17:45:02.000Z</time>
      </trkpt>
      <trkpt lat="47.4534" lon="6.73932">
        <ele>448</ele>
        <time>2015-06-24T17:45:03.000Z</time>
      </trkpt>
      <trkpt lat="47.45341" lon="6.73928">
        <ele>448</ele>
        <time>2015-06-24T17:45:04.000Z</time>
      </trkpt>
      <trkpt lat="47.45342" lon="6.73924">
        <ele>448</ele>
        <time>2015-06-24T17:45:05.000Z</time>
      </trkpt>
      <trkpt lat="47.45343" lon="6.7392">
        <ele>448</ele>
        <time>2015-06-24T17:45:06.000Z</time>
      </trkpt>
      <trkpt lat="47.45344" lon="6.73917">
        <ele>449</ele>
        <time>2015-06-24T17:45:07.000Z</time>
      </trkpt>
      <trkpt lat="47.45345" lon="6.73914">
        <ele>449</ele>
        <time>2015-06-24T17:45:08.000Z</time>
      </trkpt>
      <trkpt lat="47.45347" lon="6.73909">
        <ele>449</ele>
        <time>2015-06-24T17:45:10.000Z</time>
      </trkpt>
      <trkpt lat="47.45347" lon="6.73907">
        <ele>449</ele>
        <time>2015-06-24T17:45:11.000Z</time>
      </trkpt>
      <trkpt lat="47.45348" lon="6.73902">
        <ele>450</ele>
        <time>2015-06-24T17:45:13.000Z</time>
      </trkpt>
      <trkpt lat="47.45349" lon="6.73899">
        <ele>450</ele>
        <time>2015-06-24T17:45:14.000Z</time>
      </trkpt>
      <trkpt lat="47.4535" lon="6.73893">
        <ele>450</ele>
        <time>2015-06-24T17:45:16.000Z</time>
      </trkpt>
      <trkpt lat="47.4535" lon="6.73891">
        <ele>450</ele>
        <time>2015-06-24T17:45:17.000Z</time>
      </trkpt>
      <trkpt lat="47.45352" lon="6.73887">
        <ele>451</ele>
        <time>2015-06-24T17:45:19.000Z</time>
      </trkpt>
      <trkpt lat="47.45353" lon="6.73884">
        <ele>451</ele>
        <time>2015-06-24T17:45:20.000Z</time>
      </trkpt>
      <trkpt lat="47.45354" lon="6.73879">
        <ele>451</ele>
        <time>2015-06-24T17:45:22.000Z</time>
      </trkpt>
      <trkpt lat="47.45355" lon="6.73876">
        <ele>451</ele>
        <time>2015-06-24T17:45:23.000Z</time>
      </trkpt>
      <trkpt lat="47.45357" lon="6.73873">
        <ele>451</ele>
        <time>2015-06-24T17:45:25.000Z</time>
      </trkpt>
      <trkpt lat="47.45358" lon="6.73871">
        <ele>451</ele>
        <time>2015-06-24T17:45:26.000Z</time>
      </trkpt>
      <trkpt lat="47.45361" lon="6.73867">
        <ele>451</ele>
        <time>2015-06-24T17:45:29.000Z</time>
      </trkpt>
      <trkpt lat="47.45362" lon="6.73865">
        <ele>452</ele>
        <time>2015-06-24T17:45:30.000Z</time>
      </trkpt>
      <trkpt lat="47.45364" lon="6.73861">
        <ele>452</ele>
        <time>2015-06-24T17:45:32.000Z</time>
      </trkpt>
      <trkpt lat="47.45365" lon="6.73857">
        <ele>452</ele>
        <time>2015-06-24T17:45:33.000Z</time>
      </trkpt>
      <trkpt lat="47.45367" lon="6.73851">
        <ele>452</ele>
        <time>2015-06-24T17:45:36.000Z</time>
      </trkpt>
      <trkpt lat="47.45367" lon="6.7385">
        <ele>452</ele>
        <time>2015-06-24T17:45:37.000Z</time>
      </trkpt>
      <trkpt lat="47.4537" lon="6.73846">
        <ele>452</ele>
        <time>2015-06-24T17:45:45.000Z</time>
      </trkpt>
      <trkpt lat="47.45371" lon="6.73845">
        <ele>452</ele>
        <time>2015-06-24T17:45:46.000Z</time>
      </trkpt>
      <trkpt lat="47.45373" lon="6.73841">
        <ele>452</ele>
        <time>2015-06-24T17:45:49.000Z</time>
      </trkpt>
      <trkpt lat="47.45374" lon="6.73839">
        <ele>452</ele>
        <time>2015-06-24T17:45:50.000Z</time>
      </trkpt>
      <trkpt lat="47.45377" lon="6.73834">
        <ele>452</ele>
        <time>2015-06-24T17:45:52.000Z</time>
      </trkpt>
      <trkpt lat="47.45378" lon="6.73833">
        <ele>454</ele>
        <time>2015-06-24T17:45:53.000Z</time>
      </trkpt>
      <trkpt lat="47.45381" lon="6.73829">
        <ele>454</ele>
        <time>2015-06-24T17:46:00.000Z</time>
      </trkpt>
      <trkpt lat="47.45382" lon="6.73828">
        <ele>454</ele>
        <time>2015-06-24T17:46:01.000Z</time>
      </trkpt>
      <trkpt lat="47.45384" lon="6.73824">
        <ele>454</ele>
        <time>2015-06-24T17:46:04.000Z</time>
      </trkpt>
      <trkpt lat="47.45385" lon="6.73822">
        <ele>454</ele>
        <time>2015-06-24T17:46:05.000Z</time>
      </trkpt>
      <trkpt lat="47.45388" lon="6.73816">
        <ele>454</ele>
        <time>2015-06-24T17:46:08.000Z</time>
      </trkpt>
      <trkpt lat="47.45388" lon="6.73815">
        <ele>454</ele>
        <time>2015-06-24T17:46:09.000Z</time>
      </trkpt>
      <trkpt lat="47.45391" lon="6.73811">
        <ele>454</ele>
        <time>2015-06-24T17:46:11.000Z</time>
      </trkpt>
      <trkpt lat="47.45393" lon="6.7381">
        <ele>454</ele>
        <time>2015-06-24T17:46:12.000Z</time>
      </trkpt>
      <trkpt lat="47.45396" lon="6.73807">
        <ele>454</ele>
        <time>2015-06-24T17:46:14.000Z</time>
      </trkpt>
      <trkpt lat="47.45397" lon="6.73806">
        <ele>455</ele>
        <time>2015-06-24T17:46:15.000Z</time>
      </trkpt>
      <trkpt lat="47.454" lon="6.73804">
        <ele>455</ele>
        <time>2015-06-24T17:46:17.000Z</time>
      </trkpt>
      <trkpt lat="47.45401" lon="6.73803">
        <ele>455</ele>
        <time>2015-06-24T17:46:18.000Z</time>
      </trkpt>
      <trkpt lat="47.45405" lon="6.73801">
        <ele>455</ele>
        <time>2015-06-24T17:46:20.000Z</time>
      </trkpt>
      <trkpt lat="47.45407" lon="6.73799">
        <ele>455</ele>
        <time>2015-06-24T17:46:21.000Z</time>
      </trkpt>
      <trkpt lat="47.45411" lon="6.73796">
        <ele>455</ele>
        <time>2015-06-24T17:46:23.000Z</time>
      </trkpt>
      <trkpt lat="47.45413" lon="6.73794">
        <ele>455</ele>
        <time>2015-06-24T17:46:24.000Z</time>
      </trkpt>
      <trkpt lat="47.45416" lon="6.73792">
        <ele>455</ele>
        <time>2015-06-24T17:46:26.000Z</time>
      </trkpt>
      <trkpt lat="47.45417" lon="6.73792">
        <ele>458</ele>
        <time>2015-06-24T17:46:27.000Z</time>
      </trkpt>
      <trkpt lat="47.4542" lon="6.7379">
        <ele>458</ele>
        <time>2015-06-24T17:46:29.000Z</time>
      </trkpt>
      <trkpt lat="47.45422" lon="6.73789">
        <ele>458</ele>
        <time>2015-06-24T17:46:30.000Z</time>
      </trkpt>
      <trkpt lat="47.45426" lon="6.73788">
        <ele>458</ele>
        <time>2015-06-24T17:46:33.000Z</time>
      </trkpt>
      <trkpt lat="47.45428" lon="6.73788">
        <ele>458</ele>
        <time>2015-06-24T17:46:34.000Z</time>
      </trkpt>
      <trkpt lat="47.45432" lon="6.73786">
        <ele>458</ele>
        <time>2015-06-24T17:46:38.000Z</time>
      </trkpt>
      <trkpt lat="47.45433" lon="6.73785">
        <ele>458</ele>
        <time>2015-06-24T17:46:39.000Z</time>
      </trkpt>
      <trkpt lat="47.45436" lon="6.73781">
        <ele>458</ele>
        <time>2015-06-24T17:46:42.000Z</time>
      </trkpt>
      <trkpt lat="47.45437" lon="6.7378">
        <ele>458</ele>
        <time>2015-06-24T17:46:43.000Z</time>
      </trkpt>
      <trkpt lat="47.4544" lon="6.73778">
        <ele>458</ele>
        <time>2015-06-24T17:46:45.000Z</time>
      </trkpt>
      <trkpt lat="47.45441" lon="6.73776">
        <ele>458</ele>
        <time>2015-06-24T17:46:46.000Z</time>
      </trkpt>
      <trkpt lat="47.45443" lon="6.73774">
        <ele>458</ele>
        <time>2015-06-24T17:46:48.000Z</time>
      </trkpt>
      <trkpt lat="47.45445" lon="6.73773">
        <ele>458</ele>
        <time>2015-06-24T17:46:49.000Z</time>
      </trkpt>
      <trkpt lat="47.45448" lon="6.7377">
        <ele>458</ele>
        <time>2015-06-24T17:46:51.000Z</time>
      </trkpt>
      <trkpt lat="47.4545" lon="6.7377">
        <ele>458</ele>
        <time>2015-06-24T17:46:52.000Z</time>
      </trkpt>
      <trkpt lat="47.45453" lon="6.73768">
        <ele>458</ele>
        <time>2015-06-24T17:46:54.000Z</time>
      </trkpt>
      <trkpt lat="47.45455" lon="6.73767">
        <ele>459</ele>
        <time>2015-06-24T17:46:55.000Z</time>
      </trkpt>
      <trkpt lat="47.45458" lon="6.73766">
        <ele>459</ele>
        <time>2015-06-24T17:46:57.000Z</time>
      </trkpt>
      <trkpt lat="47.45459" lon="6.73766">
        <ele>459</ele>
        <time>2015-06-24T17:46:58.000Z</time>
      </trkpt>
      <trkpt lat="47.45463" lon="6.73765">
        <ele>459</ele>
        <time>2015-06-24T17:47:00.000Z</time>
      </trkpt>
      <trkpt lat="47.45465" lon="6.73763">
        <ele>459</ele>
        <time>2015-06-24T17:47:01.000Z</time>
      </trkpt>
      <trkpt lat="47.45468" lon="6.7376">
        <ele>459</ele>
        <time>2015-06-24T17:47:07.000Z</time>
      </trkpt>
      <trkpt lat="47.45469" lon="6.7376">
        <ele>459</ele>
        <time>2015-06-24T17:47:08.000Z</time>
      </trkpt>
      <trkpt lat="47.45472" lon="6.73759">
        <ele>459</ele>
        <time>2015-06-24T17:47:11.000Z</time>
      </trkpt>
      <trkpt lat="47.45473" lon="6.73758">
        <ele>459</ele>
        <time>2015-06-24T17:47:12.000Z</time>
      </trkpt>
      <trkpt lat="47.45477" lon="6.73756">
        <ele>459</ele>
        <time>2015-06-24T17:47:14.000Z</time>
      </trkpt>
      <trkpt lat="47.45479" lon="6.73754">
        <ele>460</ele>
        <time>2015-06-24T17:47:15.000Z</time>
      </trkpt>
      <trkpt lat="47.45482" lon="6.73753">
        <ele>460</ele>
        <time>2015-06-24T17:47:17.000Z</time>
      </trkpt>
      <trkpt lat="47.45484" lon="6.73753">
        <ele>460</ele>
        <time>2015-06-24T17:47:18.000Z</time>
      </trkpt>
      <trkpt lat="47.45488" lon="6.73753">
        <ele>460</ele>
        <time>2015-06-24T17:47:20.000Z</time>
      </trkpt>
      <trkpt lat="47.4549" lon="6.73753">
        <ele>460</ele>
        <time>2015-06-24T17:47:21.000Z</time>
      </trkpt>
      <trkpt lat="47.45493" lon="6.73752">
        <ele>460</ele>
        <time>2015-06-24T17:47:22.000Z</time>
      </trkpt>
      <trkpt lat="47.45495" lon="6.73751">
        <ele>461</ele>
        <time>2015-06-24T17:47:23.000Z</time>
      </trkpt>
      <trkpt lat="47.45498" lon="6.7375">
        <ele>461</ele>
        <time>2015-06-24T17:47:24.000Z</time>
      </trkpt>
      <trkpt lat="47.455" lon="6.73749">
        <ele>461</ele>
        <time>2015-06-24T17:47:25.000Z</time>
      </trkpt>
      <trkpt lat="47.45503" lon="6.73747">
        <ele>461</ele>
        <time>2015-06-24T17:47:27.000Z</time>
      </trkpt>
      <trkpt lat="47.45505" lon="6.73746">
        <ele>461</ele>
        <time>2015-06-24T17:47:28.000Z</time>
      </trkpt>
      <trkpt lat="47.45509" lon="6.73744">
        <ele>461</ele>
        <time>2015-06-24T17:47:30.000Z</time>
      </trkpt>
      <trkpt lat="47.4551" lon="6.73743">
        <ele>461</ele>
        <time>2015-06-24T17:47:31.000Z</time>
      </trkpt>
      <trkpt lat="47.45514" lon="6.73741">
        <ele>461</ele>
        <time>2015-06-24T17:47:33.000Z</time>
      </trkpt>
      <trkpt lat="47.45517" lon="6.7374">
        <ele>461</ele>
        <time>2015-06-24T17:47:34.000Z</time>
      </trkpt>
      <trkpt lat="47.45519" lon="6.7374">
        <ele>461</ele>
        <time>2015-06-24T17:47:35.000Z</time>
      </trkpt>
      <trkpt lat="47.45522" lon="6.73739">
        <ele>461</ele>
        <time>2015-06-24T17:47:36.000Z</time>
      </trkpt>
      <trkpt lat="47.45524" lon="6.73738">
        <ele>461</ele>
        <time>2015-06-24T17:47:37.000Z</time>
      </trkpt>
      <trkpt lat="47.45526" lon="6.73736">
        <ele>461</ele>
        <time>2015-06-24T17:47:38.000Z</time>
      </trkpt>
      <trkpt lat="47.45528" lon="6.73734">
        <ele>461</ele>
        <time>2015-06-24T17:47:39.000Z</time>
      </trkpt>
      <trkpt lat="47.45531" lon="6.73733">
        <ele>461</ele>
        <time>2015-06-24T17:47:40.000Z</time>
      </trkpt>
      <trkpt lat="47.45534" lon="6.73729">
        <ele>461</ele>
        <time>2015-06-24T17:47:42.000Z</time>
      </trkpt>
      <trkpt lat="47.45536" lon="6.73727">
        <ele>461</ele>
        <time>2015-06-24T17:47:43.000Z</time>
      </trkpt>
      <trkpt lat="47.45539" lon="6.73724">
        <ele>461</ele>
        <time>2015-06-24T17:47:45.000Z</time>
      </trkpt>
      <trkpt lat="47.4554" lon="6.73722">
        <ele>461</ele>
        <time>2015-06-24T17:47:46.000Z</time>
      </trkpt>
      <trkpt lat="47.45543" lon="6.73719">
        <ele>461</ele>
        <time>2015-06-24T17:47:48.000Z</time>
      </trkpt>
      <trkpt lat="47.45544" lon="6.73718">
        <ele>461</ele>
        <time>2015-06-24T17:47:49.000Z</time>
      </trkpt>
      <trkpt lat="47.45547" lon="6.73715">
        <ele>461</ele>
        <time>2015-06-24T17:47:55.000Z</time>
      </trkpt>
      <trkpt lat="47.45549" lon="6.73716">
        <ele>461</ele>
        <time>2015-06-24T17:47:56.000Z</time>
      </trkpt>
      <trkpt lat="47.45551" lon="6.73716">
        <ele>461</ele>
        <time>2015-06-24T17:47:57.000Z</time>
      </trkpt>
      <trkpt lat="47.45554" lon="6.73716">
        <ele>461</ele>
        <time>2015-06-24T17:47:58.000Z</time>
      </trkpt>
      <trkpt lat="47.45557" lon="6.73716">
        <ele>461</ele>
        <time>2015-06-24T17:47:59.000Z</time>
      </trkpt>
      <trkpt lat="47.45561" lon="6.73716">
        <ele>461</ele>
        <time>2015-06-24T17:48:00.000Z</time>
      </trkpt>
      <trkpt lat="47.45564" lon="6.73716">
        <ele>461</ele>
        <time>2015-06-24T17:48:01.000Z</time>
      </trkpt>
      <trkpt lat="47.45568" lon="6.73715">
        <ele>461</ele>
        <time>2015-06-24T17:48:02.000Z</time>
      </trkpt>
      <trkpt lat="47.45571" lon="6.73715">
        <ele>461</ele>
        <time>2015-06-24T17:48:03.000Z</time>
      </trkpt>
      <trkpt lat="47.45574" lon="6.73714">
        <ele>461</ele>
        <time>2015-06-24T17:48:04.000Z</time>
      </trkpt>
      <trkpt lat="47.45576" lon="6.73713">
        <ele>461</ele>
        <time>2015-06-24T17:48:05.000Z</time>
      </trkpt>
      <trkpt lat="47.45579" lon="6.73713">
        <ele>461</ele>
        <time>2015-06-24T17:48:06.000Z</time>
      </trkpt>
      <trkpt lat="47.45582" lon="6.73712">
        <ele>461</ele>
        <time>2015-06-24T17:48:07.000Z</time>
      </trkpt>
      <trkpt lat="47.45585" lon="6.73712">
        <ele>459</ele>
        <time>2015-06-24T17:48:08.000Z</time>
      </trkpt>
      <trkpt lat="47.45588" lon="6.73713">
        <ele>459</ele>
        <time>2015-06-24T17:48:09.000Z</time>
      </trkpt>
      <trkpt lat="47.45591" lon="6.73713">
        <ele>458</ele>
        <time>2015-06-24T17:48:10.000Z</time>
      </trkpt>
      <trkpt lat="47.45594" lon="6.73712">
        <ele>458</ele>
        <time>2015-06-24T17:48:11.000Z</time>
      </trkpt>
      <trkpt lat="47.45597" lon="6.73712">
        <ele>458</ele>
        <time>2015-06-24T17:48:12.000Z</time>
      </trkpt>
      <trkpt lat="47.45601" lon="6.73711">
        <ele>458</ele>
        <time>2015-06-24T17:48:13.000Z</time>
      </trkpt>
      <trkpt lat="47.45604" lon="6.7371">
        <ele>458</ele>
        <time>2015-06-24T17:48:14.000Z</time>
      </trkpt>
      <trkpt lat="47.45608" lon="6.7371">
        <ele>458</ele>
        <time>2015-06-24T17:48:15.000Z</time>
      </trkpt>
      <trkpt lat="47.4561" lon="6.7371">
        <ele>458</ele>
        <time>2015-06-24T17:48:16.000Z</time>
      </trkpt>
      <trkpt lat="47.45613" lon="6.7371">
        <ele>458</ele>
        <time>2015-06-24T17:48:17.000Z</time>
      </trkpt>
      <trkpt lat="47.45615" lon="6.7371">
        <ele>457</ele>
        <time>2015-06-24T17:48:18.000Z</time>
      </trkpt>
      <trkpt lat="47.45619" lon="6.73708">
        <ele>457</ele>
        <time>2015-06-24T17:48:20.000Z</time>
      </trkpt>
      <trkpt lat="47.4562" lon="6.73707">
        <ele>457</ele>
        <time>2015-06-24T17:48:21.000Z</time>
      </trkpt>
      <trkpt lat="47.45624" lon="6.73704">
        <ele>457</ele>
        <time>2015-06-24T17:48:25.000Z</time>
      </trkpt>
      <trkpt lat="47.45624" lon="6.73703">
        <ele>457</ele>
        <time>2015-06-24T17:48:26.000Z</time>
      </trkpt>
      <trkpt lat="47.45626" lon="6.73698">
        <ele>457</ele>
        <time>2015-06-24T17:48:31.000Z</time>
      </trkpt>
      <trkpt lat="47.45627" lon="6.73697">
        <ele>457</ele>
        <time>2015-06-24T17:48:32.000Z</time>
      </trkpt>
      <trkpt lat="47.4563" lon="6.73693">
        <ele>457</ele>
        <time>2015-06-24T17:49:25.000Z</time>
      </trkpt>
      <trkpt lat="47.45631" lon="6.73692">
        <ele>457</ele>
        <time>2015-06-24T17:49:26.000Z</time>
      </trkpt>
      <trkpt lat="47.45634" lon="6.73689">
        <ele>456</ele>
        <time>2015-06-24T17:49:42.000Z</time>
      </trkpt>
      <trkpt lat="47.45635" lon="6.73689">
        <ele>456</ele>
        <time>2015-06-24T17:49:43.000Z</time>
      </trkpt>
      <trkpt lat="47.45639" lon="6.73692">
        <ele>456</ele>
        <time>2015-06-24T17:49:47.000Z</time>
      </trkpt>
      <trkpt lat="47.45639" lon="6.73694">
        <ele>456</ele>
        <time>2015-06-24T17:49:48.000Z</time>
      </trkpt>
      <trkpt lat="47.45641" lon="6.73699">
        <ele>456</ele>
        <time>2015-06-24T17:49:50.000Z</time>
      </trkpt>
      <trkpt lat="47.45641" lon="6.73703">
        <ele>456</ele>
        <time>2015-06-24T17:49:51.000Z</time>
      </trkpt>
      <trkpt lat="47.45641" lon="6.73706">
        <ele>456</ele>
        <time>2015-06-24T17:49:52.000Z</time>
      </trkpt>
      <trkpt lat="47.45641" lon="6.7371">
        <ele>456</ele>
        <time>2015-06-24T17:49:53.000Z</time>
      </trkpt>
      <trkpt lat="47.4564" lon="6.73713">
        <ele>456</ele>
        <time>2015-06-24T17:49:54.000Z</time>
      </trkpt>
      <trkpt lat="47.45639" lon="6.73716">
        <ele>456</ele>
        <time>2015-06-24T17:49:55.000Z</time>
      </trkpt>
      <trkpt lat="47.45637" lon="6.73722">
        <ele>456</ele>
        <time>2015-06-24T17:49:57.000Z</time>
      </trkpt>
      <trkpt lat="47.45635" lon="6.73725">
        <ele>457</ele>
        <time>2015-06-24T17:49:58.000Z</time>
      </trkpt>
      <trkpt lat="47.45634" lon="6.73728">
        <ele>457</ele>
        <time>2015-06-24T17:49:59.000Z</time>
      </trkpt>
      <trkpt lat="47.45632" lon="6.73731">
        <ele>457</ele>
        <time>2015-06-24T17:50:00.000Z</time>
      </trkpt>
      <trkpt lat="47.4563" lon="6.73734">
        <ele>457</ele>
        <time>2015-06-24T17:50:01.000Z</time>
      </trkpt>
      <trkpt lat="47.45628" lon="6.73738">
        <ele>457</ele>
        <time>2015-06-24T17:50:02.000Z</time>
      </trkpt>
      <trkpt lat="47.45627" lon="6.73742">
        <ele>457</ele>
        <time>2015-06-24T17:50:03.000Z</time>
      </trkpt>
      <trkpt lat="47.45625" lon="6.73746">
        <ele>457</ele>
        <time>2015-06-24T17:50:04.000Z</time>
      </trkpt>
      <trkpt lat="47.45623" lon="6.7375">
        <ele>457</ele>
        <time>2015-06-24T17:50:05.000Z</time>
      </trkpt>
      <trkpt lat="47.45622" lon="6.73753">
        <ele>457</ele>
        <time>2015-06-24T17:50:06.000Z</time>
      </trkpt>
      <trkpt lat="47.45621" lon="6.73759">
        <ele>457</ele>
        <time>2015-06-24T17:50:08.000Z</time>
      </trkpt>
      <trkpt lat="47.4562" lon="6.73763">
        <ele>457</ele>
        <time>2015-06-24T17:50:09.000Z</time>
      </trkpt>
      <trkpt lat="47.4562" lon="6.73768">
        <ele>457</ele>
        <time>2015-06-24T17:50:10.000Z</time>
      </trkpt>
      <trkpt lat="47.45619" lon="6.73774">
        <ele>457</ele>
        <time>2015-06-24T17:50:11.000Z</time>
      </trkpt>
      <trkpt lat="47.45618" lon="6.73781">
        <ele>457</ele>
        <time>2015-06-24T17:50:12.000Z</time>
      </trkpt>
      <trkpt lat="47.45617" lon="6.73788">
        <ele>457</ele>
        <time>2015-06-24T17:50:13.000Z</time>
      </trkpt>
      <trkpt lat="47.45616" lon="6.73794">
        <ele>457</ele>
        <time>2015-06-24T17:50:14.000Z</time>
      </trkpt>
      <trkpt lat="47.45615" lon="6.73801">
        <ele>457</ele>
        <time>2015-06-24T17:50:15.000Z</time>
      </trkpt>
      <trkpt lat="47.45614" lon="6.73816">
        <ele>457</ele>
        <time>2015-06-24T17:50:16.000Z</time>
      </trkpt>
      <trkpt lat="47.45612" lon="6.73824">
        <ele>457</ele>
        <time>2015-06-24T17:50:17.000Z</time>
      </trkpt>
      <trkpt lat="47.45612" lon="6.73832">
        <ele>457</ele>
        <time>2015-06-24T17:50:18.000Z</time>
      </trkpt>
      <trkpt lat="47.4561" lon="6.73839">
        <ele>456</ele>
        <time>2015-06-24T17:50:19.000Z</time>
      </trkpt>
      <trkpt lat="47.45609" lon="6.73846">
        <ele>456</ele>
        <time>2015-06-24T17:50:20.000Z</time>
      </trkpt>
      <trkpt lat="47.45608" lon="6.73852">
        <ele>456</ele>
        <time>2015-06-24T17:50:21.000Z</time>
      </trkpt>
      <trkpt lat="47.45607" lon="6.73857">
        <ele>456</ele>
        <time>2015-06-24T17:50:22.000Z</time>
      </trkpt>
      <trkpt lat="47.45611" lon="6.7387">
        <ele>456</ele>
        <time>2015-06-24T17:50:23.000Z</time>
      </trkpt>
      <trkpt lat="47.45613" lon="6.73879">
        <ele>456</ele>
        <time>2015-06-24T17:50:24.000Z</time>
      </trkpt>
      <trkpt lat="47.45615" lon="6.73884">
        <ele>456</ele>
        <time>2015-06-24T17:50:25.000Z</time>
      </trkpt>
      <trkpt lat="47.45619" lon="6.73892">
        <ele>456</ele>
        <time>2015-06-24T17:50:26.000Z</time>
      </trkpt>
      <trkpt lat="47.45623" lon="6.73898">
        <ele>456</ele>
        <time>2015-06-24T17:50:27.000Z</time>
      </trkpt>
      <trkpt lat="47.45628" lon="6.73903">
        <ele>455</ele>
        <time>2015-06-24T17:50:28.000Z</time>
      </trkpt>
      <trkpt lat="47.45632" lon="6.73909">
        <ele>455</ele>
        <time>2015-06-24T17:50:29.000Z</time>
      </trkpt>
      <trkpt lat="47.45637" lon="6.73916">
        <ele>455</ele>
        <time>2015-06-24T17:50:30.000Z</time>
      </trkpt>
      <trkpt lat="47.4564" lon="6.73927">
        <ele>455</ele>
        <time>2015-06-24T17:50:31.000Z</time>
      </trkpt>
      <trkpt lat="47.45644" lon="6.73941">
        <ele>455</ele>
        <time>2015-06-24T17:50:32.000Z</time>
      </trkpt>
      <trkpt lat="47.45651" lon="6.73946">
        <ele>455</ele>
        <time>2015-06-24T17:50:33.000Z</time>
      </trkpt>
      <trkpt lat="47.45659" lon="6.73954">
        <ele>455</ele>
        <time>2015-06-24T17:50:34.000Z</time>
      </trkpt>
      <trkpt lat="47.45667" lon="6.73966">
        <ele>450</ele>
        <time>2015-06-24T17:50:35.000Z</time>
      </trkpt>
      <trkpt lat="47.45674" lon="6.73977">
        <ele>450</ele>
        <time>2015-06-24T17:50:36.000Z</time>
      </trkpt>
      <trkpt lat="47.45679" lon="6.73987">
        <ele>450</ele>
        <time>2015-06-24T17:50:37.000Z</time>
      </trkpt>
      <trkpt lat="47.45685" lon="6.73997">
        <ele>450</ele>
        <time>2015-06-24T17:50:38.000Z</time>
      </trkpt>
      <trkpt lat="47.45688" lon="6.74004">
        <ele>449</ele>
        <time>2015-06-24T17:50:39.000Z</time>
      </trkpt>
      <trkpt lat="47.45691" lon="6.74007">
        <ele>448</ele>
        <time>2015-06-24T17:50:40.000Z</time>
      </trkpt>
      <trkpt lat="47.45694" lon="6.74013">
        <ele>447</ele>
        <time>2015-06-24T17:50:41.000Z</time>
      </trkpt>
      <trkpt lat="47.45697" lon="6.74017">
        <ele>447</ele>
        <time>2015-06-24T17:50:42.000Z</time>
      </trkpt>
      <trkpt lat="47.457" lon="6.74021">
        <ele>447</ele>
        <time>2015-06-24T17:50:43.000Z</time>
      </trkpt>
      <trkpt lat="47.45706" lon="6.74027">
        <ele>446</ele>
        <time>2015-06-24T17:50:44.000Z</time>
      </trkpt>
      <trkpt lat="47.45711" lon="6.74033">
        <ele>446</ele>
        <time>2015-06-24T17:50:45.000Z</time>
      </trkpt>
      <trkpt lat="47.45716" lon="6.74038">
        <ele>445</ele>
        <time>2015-06-24T17:50:46.000Z</time>
      </trkpt>
      <trkpt lat="47.45721" lon="6.74043">
        <ele>445</ele>
        <time>2015-06-24T17:50:47.000Z</time>
      </trkpt>
      <trkpt lat="47.45726" lon="6.74048">
        <ele>444</ele>
        <time>2015-06-24T17:50:47.999Z</time>
      </trkpt>
      <trkpt lat="47.4573" lon="6.74054">
        <ele>444</ele>
        <time>2015-06-24T17:50:49.000Z</time>
      </trkpt>
      <trkpt lat="47.45732" lon="6.74058">
        <ele>443</ele>
        <time>2015-06-24T17:50:50.000Z</time>
      </trkpt>
      <trkpt lat="47.45736" lon="6.74068">
        <ele>442</ele>
        <time>2015-06-24T17:50:51.000Z</time>
      </trkpt>
      <trkpt lat="47.45739" lon="6.74075">
        <ele>441</ele>
        <time>2015-06-24T17:50:52.000Z</time>
      </trkpt>
      <trkpt lat="47.45743" lon="6.74082">
        <ele>439</ele>
        <time>2015-06-24T17:50:53.000Z</time>
      </trkpt>
      <trkpt lat="47.45746" lon="6.74089">
        <ele>438</ele>
        <time>2015-06-24T17:50:54.000Z</time>
      </trkpt>
      <trkpt lat="47.4575" lon="6.741">
        <ele>435</ele>
        <time>2015-06-24T17:50:55.000Z</time>
      </trkpt>
      <trkpt lat="47.45754" lon="6.7411">
        <ele>434</ele>
        <time>2015-06-24T17:50:56.000Z</time>
      </trkpt>
      <trkpt lat="47.45757" lon="6.74116">
        <ele>433</ele>
        <time>2015-06-24T17:50:57.000Z</time>
      </trkpt>
      <trkpt lat="47.45761" lon="6.74125">
        <ele>433</ele>
        <time>2015-06-24T17:50:58.000Z</time>
      </trkpt>
      <trkpt lat="47.45764" lon="6.74131">
        <ele>433</ele>
        <time>2015-06-24T17:50:59.000Z</time>
      </trkpt>
      <trkpt lat="47.45767" lon="6.74137">
        <ele>432</ele>
        <time>2015-06-24T17:51:00.000Z</time>
      </trkpt>
      <trkpt lat="47.45771" lon="6.74144">
        <ele>432</ele>
        <time>2015-06-24T17:51:01.000Z</time>
      </trkpt>
      <trkpt lat="47.45776" lon="6.74152">
        <ele>432</ele>
        <time>2015-06-24T17:51:02.000Z</time>
      </trkpt>
      <trkpt lat="47.45782" lon="6.74157">
        <ele>432</ele>
        <time>2015-06-24T17:51:03.000Z</time>
      </trkpt>
      <trkpt lat="47.45787" lon="6.74161">
        <ele>432</ele>
        <time>2015-06-24T17:51:04.000Z</time>
      </trkpt>
      <trkpt lat="47.45791" lon="6.74166">
        <ele>431</ele>
        <time>2015-06-24T17:51:05.000Z</time>
      </trkpt>
      <trkpt lat="47.45794" lon="6.74168">
        <ele>426</ele>
        <time>2015-06-24T17:51:06.000Z</time>
      </trkpt>
      <trkpt lat="47.45796" lon="6.74171">
        <ele>426</ele>
        <time>2015-06-24T17:51:07.000Z</time>
      </trkpt>
      <trkpt lat="47.45799" lon="6.74175">
        <ele>426</ele>
        <time>2015-06-24T17:51:08.000Z</time>
      </trkpt>
      <trkpt lat="47.45802" lon="6.74179">
        <ele>425</ele>
        <time>2015-06-24T17:51:09.000Z</time>
      </trkpt>
      <trkpt lat="47.45808" lon="6.74184">
        <ele>425</ele>
        <time>2015-06-24T17:51:10.000Z</time>
      </trkpt>
      <trkpt lat="47.45812" lon="6.74187">
        <ele>425</ele>
        <time>2015-06-24T17:51:11.000Z</time>
      </trkpt>
      <trkpt lat="47.45819" lon="6.74193">
        <ele>424</ele>
        <time>2015-06-24T17:51:12.000Z</time>
      </trkpt>
      <trkpt lat="47.45823" lon="6.74195">
        <ele>424</ele>
        <time>2015-06-24T17:51:13.000Z</time>
      </trkpt>
      <trkpt lat="47.45827" lon="6.74198">
        <ele>424</ele>
        <time>2015-06-24T17:51:14.000Z</time>
      </trkpt>
      <trkpt lat="47.45831" lon="6.74201">
        <ele>423</ele>
        <time>2015-06-24T17:51:15.000Z</time>
      </trkpt>
      <trkpt lat="47.45835" lon="6.74204">
        <ele>419</ele>
        <time>2015-06-24T17:51:16.000Z</time>
      </trkpt>
      <trkpt lat="47.45839" lon="6.74207">
        <ele>419</ele>
        <time>2015-06-24T17:51:17.000Z</time>
      </trkpt>
      <trkpt lat="47.45843" lon="6.74208">
        <ele>419</ele>
        <time>2015-06-24T17:51:18.000Z</time>
      </trkpt>
      <trkpt lat="47.45847" lon="6.74209">
        <ele>419</ele>
        <time>2015-06-24T17:51:19.000Z</time>
      </trkpt>
      <trkpt lat="47.45851" lon="6.74209">
        <ele>418</ele>
        <time>2015-06-24T17:51:20.000Z</time>
      </trkpt>
      <trkpt lat="47.45855" lon="6.74209">
        <ele>418</ele>
        <time>2015-06-24T17:51:21.000Z</time>
      </trkpt>
      <trkpt lat="47.45859" lon="6.74211">
        <ele>418</ele>
        <time>2015-06-24T17:51:22.000Z</time>
      </trkpt>
      <trkpt lat="47.45863" lon="6.74212">
        <ele>418</ele>
        <time>2015-06-24T17:51:23.000Z</time>
      </trkpt>
      <trkpt lat="47.45867" lon="6.74214">
        <ele>418</ele>
        <time>2015-06-24T17:51:24.000Z</time>
      </trkpt>
      <trkpt lat="47.45872" lon="6.74215">
        <ele>417</ele>
        <time>2015-06-24T17:51:25.000Z</time>
      </trkpt>
      <trkpt lat="47.45876" lon="6.74217">
        <ele>417</ele>
        <time>2015-06-24T17:51:26.000Z</time>
      </trkpt>
      <trkpt lat="47.45881" lon="6.74218">
        <ele>417</ele>
        <time>2015-06-24T17:51:27.000Z</time>
      </trkpt>
      <trkpt lat="47.45885" lon="6.74219">
        <ele>416</ele>
        <time>2015-06-24T17:51:28.000Z</time>
      </trkpt>
      <trkpt lat="47.45889" lon="6.7422">
        <ele>416</ele>
        <time>2015-06-24T17:51:29.000Z</time>
      </trkpt>
      <trkpt lat="47.45894" lon="6.7422">
        <ele>416</ele>
        <time>2015-06-24T17:51:30.000Z</time>
      </trkpt>
      <trkpt lat="47.45899" lon="6.74221">
        <ele>416</ele>
        <time>2015-06-24T17:51:31.000Z</time>
      </trkpt>
      <trkpt lat="47.45904" lon="6.74221">
        <ele>415</ele>
        <time>2015-06-24T17:51:32.000Z</time>
      </trkpt>
      <trkpt lat="47.45908" lon="6.74221">
        <ele>415</ele>
        <time>2015-06-24T17:51:33.000Z</time>
      </trkpt>
      <trkpt lat="47.45913" lon="6.74221">
        <ele>415</ele>
        <time>2015-06-24T17:51:34.000Z</time>
      </trkpt>
      <trkpt lat="47.45917" lon="6.74221">
        <ele>414</ele>
        <time>2015-06-24T17:51:35.000Z</time>
      </trkpt>
      <trkpt lat="47.45921" lon="6.74222">
        <ele>414</ele>
        <time>2015-06-24T17:51:36.000Z</time>
      </trkpt>
      <trkpt lat="47.45925" lon="6.74222">
        <ele>414</ele>
        <time>2015-06-24T17:51:37.000Z</time>
      </trkpt>
      <trkpt lat="47.4593" lon="6.7422">
        <ele>414</ele>
        <time>2015-06-24T17:51:38.000Z</time>
      </trkpt>
      <trkpt lat="47.45934" lon="6.74218">
        <ele>415</ele>
        <time>2015-06-24T17:51:39.000Z</time>
      </trkpt>
      <trkpt lat="47.45939" lon="6.74216">
        <ele>415</ele>
        <time>2015-06-24T17:51:40.000Z</time>
      </trkpt>
      <trkpt lat="47.45944" lon="6.74215">
        <ele>415</ele>
        <time>2015-06-24T17:51:41.000Z</time>
      </trkpt>
      <trkpt lat="47.45948" lon="6.74215">
        <ele>415</ele>
        <time>2015-06-24T17:51:42.000Z</time>
      </trkpt>
      <trkpt lat="47.45952" lon="6.74215">
        <ele>415</ele>
        <time>2015-06-24T17:51:43.000Z</time>
      </trkpt>
      <trkpt lat="47.45956" lon="6.74217">
        <ele>415</ele>
        <time>2015-06-24T17:51:44.000Z</time>
      </trkpt>
      <trkpt lat="47.45959" lon="6.74219">
        <ele>415</ele>
        <time>2015-06-24T17:51:45.000Z</time>
      </trkpt>
      <trkpt lat="47.45962" lon="6.74222">
        <ele>415</ele>
        <time>2015-06-24T17:51:46.000Z</time>
      </trkpt>
      <trkpt lat="47.45966" lon="6.74227">
        <ele>414</ele>
        <time>2015-06-24T17:51:47.000Z</time>
      </trkpt>
      <trkpt lat="47.45971" lon="6.74233">
        <ele>414</ele>
        <time>2015-06-24T17:51:48.000Z</time>
      </trkpt>
      <trkpt lat="47.45975" lon="6.74237">
        <ele>414</ele>
        <time>2015-06-24T17:51:49.000Z</time>
      </trkpt>
      <trkpt lat="47.4598" lon="6.74241">
        <ele>414</ele>
        <time>2015-06-24T17:51:50.000Z</time>
      </trkpt>
      <trkpt lat="47.45984" lon="6.74242">
        <ele>413</ele>
        <time>2015-06-24T17:51:51.000Z</time>
      </trkpt>
      <trkpt lat="47.45987" lon="6.74242">
        <ele>413</ele>
        <time>2015-06-24T17:51:52.000Z</time>
      </trkpt>
      <trkpt lat="47.4599" lon="6.7424">
        <ele>413</ele>
        <time>2015-06-24T17:51:53.000Z</time>
      </trkpt>
      <trkpt lat="47.45993" lon="6.74238">
        <ele>413</ele>
        <time>2015-06-24T17:51:54.000Z</time>
      </trkpt>
      <trkpt lat="47.45995" lon="6.74236">
        <ele>413</ele>
        <time>2015-06-24T17:51:55.000Z</time>
      </trkpt>
      <trkpt lat="47.45998" lon="6.74234">
        <ele>413</ele>
        <time>2015-06-24T17:51:56.000Z</time>
      </trkpt>
      <trkpt lat="47.46001" lon="6.74232">
        <ele>414</ele>
        <time>2015-06-24T17:51:57.000Z</time>
      </trkpt>
      <trkpt lat="47.46004" lon="6.74231">
        <ele>415</ele>
        <time>2015-06-24T17:51:58.000Z</time>
      </trkpt>
      <trkpt lat="47.46008" lon="6.7423">
        <ele>415</ele>
        <time>2015-06-24T17:51:59.000Z</time>
      </trkpt>
      <trkpt lat="47.4601" lon="6.7423">
        <ele>415</ele>
        <time>2015-06-24T17:52:00.000Z</time>
      </trkpt>
      <trkpt lat="47.46013" lon="6.74231">
        <ele>415</ele>
        <time>2015-06-24T17:52:01.000Z</time>
      </trkpt>
      <trkpt lat="47.46016" lon="6.7423">
        <ele>415</ele>
        <time>2015-06-24T17:52:02.000Z</time>
      </trkpt>
      <trkpt lat="47.46019" lon="6.74229">
        <ele>416</ele>
        <time>2015-06-24T17:52:03.000Z</time>
      </trkpt>
      <trkpt lat="47.46021" lon="6.74228">
        <ele>416</ele>
        <time>2015-06-24T17:52:04.000Z</time>
      </trkpt>
      <trkpt lat="47.46024" lon="6.74227">
        <ele>416</ele>
        <time>2015-06-24T17:52:05.000Z</time>
      </trkpt>
      <trkpt lat="47.46026" lon="6.74227">
        <ele>416</ele>
        <time>2015-06-24T17:52:06.000Z</time>
      </trkpt>
      <trkpt lat="47.46031" lon="6.74226">
        <ele>416</ele>
        <time>2015-06-24T17:52:08.018Z</time>
      </trkpt>
      <trkpt lat="47.46034" lon="6.74229">
        <ele>416</ele>
        <time>2015-06-24T17:52:09.000Z</time>
      </trkpt>
      <trkpt lat="47.46037" lon="6.74231">
        <ele>416</ele>
        <time>2015-06-24T17:52:10.000Z</time>
      </trkpt>
      <trkpt lat="47.4604" lon="6.74232">
        <ele>416</ele>
        <time>2015-06-24T17:52:11.000Z</time>
      </trkpt>
      <trkpt lat="47.46043" lon="6.74233">
        <ele>416</ele>
        <time>2015-06-24T17:52:12.000Z</time>
      </trkpt>
      <trkpt lat="47.46046" lon="6.74234">
        <ele>416</ele>
        <time>2015-06-24T17:52:13.000Z</time>
      </trkpt>
      <trkpt lat="47.46049" lon="6.74233">
        <ele>416</ele>
        <time>2015-06-24T17:52:14.000Z</time>
      </trkpt>
      <trkpt lat="47.46053" lon="6.74233">
        <ele>416</ele>
        <time>2015-06-24T17:52:15.000Z</time>
      </trkpt>
      <trkpt lat="47.46056" lon="6.74233">
        <ele>416</ele>
        <time>2015-06-24T17:52:16.000Z</time>
      </trkpt>
      <trkpt lat="47.46059" lon="6.74233">
        <ele>416</ele>
        <time>2015-06-24T17:52:17.000Z</time>
      </trkpt>
      <trkpt lat="47.46063" lon="6.74234">
        <ele>416</ele>
        <time>2015-06-24T17:52:18.000Z</time>
      </trkpt>
      <trkpt lat="47.46067" lon="6.74235">
        <ele>416</ele>
        <time>2015-06-24T17:52:19.000Z</time>
      </trkpt>
      <trkpt lat="47.46072" lon="6.74236">
        <ele>416</ele>
        <time>2015-06-24T17:52:20.000Z</time>
      </trkpt>
      <trkpt lat="47.46076" lon="6.74236">
        <ele>416</ele>
        <time>2015-06-24T17:52:21.000Z</time>
      </trkpt>
      <trkpt lat="47.4608" lon="6.74237">
        <ele>416</ele>
        <time>2015-06-24T17:52:22.000Z</time>
      </trkpt>
      <trkpt lat="47.46083" lon="6.74239">
        <ele>415</ele>
        <time>2015-06-24T17:52:23.000Z</time>
      </trkpt>
      <trkpt lat="47.46087" lon="6.74243">
        <ele>415</ele>
        <time>2015-06-24T17:52:24.000Z</time>
      </trkpt>
      <trkpt lat="47.46098" lon="6.74246">
        <ele>416</ele>
        <time>2015-06-24T17:52:25.000Z</time>
      </trkpt>
      <trkpt lat="47.46103" lon="6.74248">
        <ele>416</ele>
        <time>2015-06-24T17:52:26.000Z</time>
      </trkpt>
      <trkpt lat="47.46107" lon="6.74249">
        <ele>417</ele>
        <time>2015-06-24T17:52:27.000Z</time>
      </trkpt>
      <trkpt lat="47.46109" lon="6.74248">
        <ele>417</ele>
        <time>2015-06-24T17:52:28.000Z</time>
      </trkpt>
      <trkpt lat="47.46112" lon="6.74248">
        <ele>417</ele>
        <time>2015-06-24T17:52:29.000Z</time>
      </trkpt>
      <trkpt lat="47.46115" lon="6.74253">
        <ele>408</ele>
        <time>2015-06-24T17:52:30.000Z</time>
      </trkpt>
      <trkpt lat="47.46119" lon="6.74252">
        <ele>408</ele>
        <time>2015-06-24T17:52:31.000Z</time>
      </trkpt>
      <trkpt lat="47.46121" lon="6.74252">
        <ele>408</ele>
        <time>2015-06-24T17:52:32.000Z</time>
      </trkpt>
      <trkpt lat="47.46124" lon="6.74253">
        <ele>408</ele>
        <time>2015-06-24T17:52:33.000Z</time>
      </trkpt>
      <trkpt lat="47.46128" lon="6.74254">
        <ele>408</ele>
        <time>2015-06-24T17:52:34.000Z</time>
      </trkpt>
      <trkpt lat="47.46131" lon="6.74255">
        <ele>408</ele>
        <time>2015-06-24T17:52:35.000Z</time>
      </trkpt>
      <trkpt lat="47.46134" lon="6.74255">
        <ele>408</ele>
        <time>2015-06-24T17:52:36.000Z</time>
      </trkpt>
      <trkpt lat="47.46137" lon="6.74255">
        <ele>408</ele>
        <time>2015-06-24T17:52:37.000Z</time>
      </trkpt>
      <trkpt lat="47.46139" lon="6.74256">
        <ele>408</ele>
        <time>2015-06-24T17:52:38.000Z</time>
      </trkpt>
      <trkpt lat="47.46143" lon="6.74256">
        <ele>409</ele>
        <time>2015-06-24T17:52:39.000Z</time>
      </trkpt>
      <trkpt lat="47.46147" lon="6.74258">
        <ele>409</ele>
        <time>2015-06-24T17:52:40.000Z</time>
      </trkpt>
      <trkpt lat="47.46151" lon="6.74258">
        <ele>410</ele>
        <time>2015-06-24T17:52:41.000Z</time>
      </trkpt>
      <trkpt lat="47.46155" lon="6.74258">
        <ele>410</ele>
        <time>2015-06-24T17:52:42.000Z</time>
      </trkpt>
      <trkpt lat="47.46159" lon="6.74258">
        <ele>411</ele>
        <time>2015-06-24T17:52:43.000Z</time>
      </trkpt>
      <trkpt lat="47.46162" lon="6.74259">
        <ele>411</ele>
        <time>2015-06-24T17:52:44.000Z</time>
      </trkpt>
      <trkpt lat="47.46165" lon="6.7426">
        <ele>411</ele>
        <time>2015-06-24T17:52:45.000Z</time>
      </trkpt>
      <trkpt lat="47.46168" lon="6.74261">
        <ele>411</ele>
        <time>2015-06-24T17:52:46.000Z</time>
      </trkpt>
      <trkpt lat="47.46171" lon="6.74262">
        <ele>411</ele>
        <time>2015-06-24T17:52:47.000Z</time>
      </trkpt>
      <trkpt lat="47.46175" lon="6.74263">
        <ele>410</ele>
        <time>2015-06-24T17:52:48.000Z</time>
      </trkpt>
      <trkpt lat="47.46178" lon="6.74264">
        <ele>410</ele>
        <time>2015-06-24T17:52:49.000Z</time>
      </trkpt>
      <trkpt lat="47.46181" lon="6.74266">
        <ele>409</ele>
        <time>2015-06-24T17:52:50.000Z</time>
      </trkpt>
      <trkpt lat="47.46184" lon="6.74268">
        <ele>408</ele>
        <time>2015-06-24T17:52:51.000Z</time>
      </trkpt>
      <trkpt lat="47.46188" lon="6.74269">
        <ele>408</ele>
        <time>2015-06-24T17:52:52.000Z</time>
      </trkpt>
      <trkpt lat="47.46192" lon="6.7427">
        <ele>408</ele>
        <time>2015-06-24T17:52:53.000Z</time>
      </trkpt>
      <trkpt lat="47.46195" lon="6.7427">
        <ele>408</ele>
        <time>2015-06-24T17:52:54.000Z</time>
      </trkpt>
      <trkpt lat="47.46199" lon="6.7427">
        <ele>407</ele>
        <time>2015-06-24T17:52:55.000Z</time>
      </trkpt>
      <trkpt lat="47.46201" lon="6.74272">
        <ele>407</ele>
        <time>2015-06-24T17:52:56.000Z</time>
      </trkpt>
      <trkpt lat="47.46204" lon="6.74275">
        <ele>407</ele>
        <time>2015-06-24T17:52:57.000Z</time>
      </trkpt>
      <trkpt lat="47.46207" lon="6.74279">
        <ele>406</ele>
        <time>2015-06-24T17:52:58.000Z</time>
      </trkpt>
      <trkpt lat="47.4621" lon="6.74282">
        <ele>406</ele>
        <time>2015-06-24T17:52:59.000Z</time>
      </trkpt>
      <trkpt lat="47.46214" lon="6.74284">
        <ele>406</ele>
        <time>2015-06-24T17:53:00.000Z</time>
      </trkpt>
      <trkpt lat="47.46217" lon="6.74285">
        <ele>406</ele>
        <time>2015-06-24T17:53:01.000Z</time>
      </trkpt>
      <trkpt lat="47.46221" lon="6.74286">
        <ele>406</ele>
        <time>2015-06-24T17:53:02.000Z</time>
      </trkpt>
      <trkpt lat="47.46225" lon="6.74287">
        <ele>406</ele>
        <time>2015-06-24T17:53:03.000Z</time>
      </trkpt>
      <trkpt lat="47.46228" lon="6.74288">
        <ele>406</ele>
        <time>2015-06-24T17:53:04.000Z</time>
      </trkpt>
      <trkpt lat="47.46232" lon="6.7429">
        <ele>405</ele>
        <time>2015-06-24T17:53:05.000Z</time>
      </trkpt>
      <trkpt lat="47.46236" lon="6.74291">
        <ele>405</ele>
        <time>2015-06-24T17:53:06.000Z</time>
      </trkpt>
      <trkpt lat="47.4624" lon="6.74293">
        <ele>405</ele>
        <time>2015-06-24T17:53:07.000Z</time>
      </trkpt>
      <trkpt lat="47.46244" lon="6.74295">
        <ele>405</ele>
        <time>2015-06-24T17:53:08.000Z</time>
      </trkpt>
      <trkpt lat="47.46248" lon="6.74297">
        <ele>404</ele>
        <time>2015-06-24T17:53:09.000Z</time>
      </trkpt>
      <trkpt lat="47.46251" lon="6.74297">
        <ele>406</ele>
        <time>2015-06-24T17:53:10.000Z</time>
      </trkpt>
      <trkpt lat="47.46254" lon="6.74297">
        <ele>406</ele>
        <time>2015-06-24T17:53:11.000Z</time>
      </trkpt>
      <trkpt lat="47.46256" lon="6.74296">
        <ele>406</ele>
        <time>2015-06-24T17:53:12.000Z</time>
      </trkpt>
      <trkpt lat="47.4626" lon="6.74295">
        <ele>406</ele>
        <time>2015-06-24T17:53:14.000Z</time>
      </trkpt>
      <trkpt lat="47.46262" lon="6.74296">
        <ele>406</ele>
        <time>2015-06-24T17:53:15.000Z</time>
      </trkpt>
      <trkpt lat="47.46264" lon="6.74299">
        <ele>406</ele>
        <time>2015-06-24T17:53:16.000Z</time>
      </trkpt>
      <trkpt lat="47.46266" lon="6.74302">
        <ele>406</ele>
        <time>2015-06-24T17:53:17.000Z</time>
      </trkpt>
      <trkpt lat="47.46269" lon="6.74306">
        <ele>405</ele>
        <time>2015-06-24T17:53:18.000Z</time>
      </trkpt>
      <trkpt lat="47.46272" lon="6.74308">
        <ele>405</ele>
        <time>2015-06-24T17:53:19.000Z</time>
      </trkpt>
      <trkpt lat="47.46276" lon="6.7431">
        <ele>405</ele>
        <time>2015-06-24T17:53:20.000Z</time>
      </trkpt>
      <trkpt lat="47.46279" lon="6.74312">
        <ele>405</ele>
        <time>2015-06-24T17:53:21.000Z</time>
      </trkpt>
      <trkpt lat="47.46283" lon="6.74312">
        <ele>405</ele>
        <time>2015-06-24T17:53:22.000Z</time>
      </trkpt>
      <trkpt lat="47.46286" lon="6.74312">
        <ele>406</ele>
        <time>2015-06-24T17:53:23.000Z</time>
      </trkpt>
      <trkpt lat="47.4629" lon="6.74313">
        <ele>406</ele>
        <time>2015-06-24T17:53:24.000Z</time>
      </trkpt>
      <trkpt lat="47.46294" lon="6.74313">
        <ele>406</ele>
        <time>2015-06-24T17:53:25.000Z</time>
      </trkpt>
      <trkpt lat="47.46297" lon="6.74314">
        <ele>406</ele>
        <time>2015-06-24T17:53:26.000Z</time>
      </trkpt>
      <trkpt lat="47.46301" lon="6.74315">
        <ele>406</ele>
        <time>2015-06-24T17:53:27.000Z</time>
      </trkpt>
      <trkpt lat="47.46305" lon="6.74316">
        <ele>406</ele>
        <time>2015-06-24T17:53:29.000Z</time>
      </trkpt>
      <trkpt lat="47.46306" lon="6.74317">
        <ele>406</ele>
        <time>2015-06-24T17:53:30.000Z</time>
      </trkpt>
      <trkpt lat="47.4631" lon="6.7432">
        <ele>406</ele>
        <time>2015-06-24T17:53:32.000Z</time>
      </trkpt>
      <trkpt lat="47.46313" lon="6.7432">
        <ele>406</ele>
        <time>2015-06-24T17:53:33.000Z</time>
      </trkpt>
      <trkpt lat="47.46316" lon="6.7432">
        <ele>406</ele>
        <time>2015-06-24T17:53:34.000Z</time>
      </trkpt>
      <trkpt lat="47.46319" lon="6.74321">
        <ele>406</ele>
        <time>2015-06-24T17:53:35.000Z</time>
      </trkpt>
      <trkpt lat="47.46321" lon="6.74322">
        <ele>405</ele>
        <time>2015-06-24T17:53:36.000Z</time>
      </trkpt>
      <trkpt lat="47.46324" lon="6.74324">
        <ele>405</ele>
        <time>2015-06-24T17:53:37.000Z</time>
      </trkpt>
      <trkpt lat="47.46326" lon="6.74326">
        <ele>405</ele>
        <time>2015-06-24T17:53:38.000Z</time>
      </trkpt>
      <trkpt lat="47.46329" lon="6.74326">
        <ele>405</ele>
        <time>2015-06-24T17:53:39.000Z</time>
      </trkpt>
      <trkpt lat="47.46332" lon="6.74327">
        <ele>405</ele>
        <time>2015-06-24T17:53:40.000Z</time>
      </trkpt>
      <trkpt lat="47.46335" lon="6.74328">
        <ele>405</ele>
        <time>2015-06-24T17:53:41.000Z</time>
      </trkpt>
      <trkpt lat="47.46339" lon="6.7433">
        <ele>405</ele>
        <time>2015-06-24T17:53:42.000Z</time>
      </trkpt>
      <trkpt lat="47.46343" lon="6.74331">
        <ele>405</ele>
        <time>2015-06-24T17:53:43.000Z</time>
      </trkpt>
      <trkpt lat="47.46346" lon="6.74333">
        <ele>406</ele>
        <time>2015-06-24T17:53:44.000Z</time>
      </trkpt>
      <trkpt lat="47.4635" lon="6.74335">
        <ele>400</ele>
        <time>2015-06-24T17:53:45.000Z</time>
      </trkpt>
      <trkpt lat="47.46354" lon="6.74337">
        <ele>399</ele>
        <time>2015-06-24T17:53:46.000Z</time>
      </trkpt>
      <trkpt lat="47.46358" lon="6.74338">
        <ele>399</ele>
        <time>2015-06-24T17:53:47.000Z</time>
      </trkpt>
      <trkpt lat="47.46362" lon="6.7434">
        <ele>398</ele>
        <time>2015-06-24T17:53:48.000Z</time>
      </trkpt>
      <trkpt lat="47.46366" lon="6.74342">
        <ele>398</ele>
        <time>2015-06-24T17:53:49.000Z</time>
      </trkpt>
      <trkpt lat="47.4637" lon="6.74344">
        <ele>398</ele>
        <time>2015-06-24T17:53:50.000Z</time>
      </trkpt>
      <trkpt lat="47.46374" lon="6.74346">
        <ele>398</ele>
        <time>2015-06-24T17:53:51.000Z</time>
      </trkpt>
      <trkpt lat="47.46379" lon="6.74347">
        <ele>398</ele>
        <time>2015-06-24T17:53:52.000Z</time>
      </trkpt>
      <trkpt lat="47.46383" lon="6.74349">
        <ele>398</ele>
        <time>2015-06-24T17:53:53.000Z</time>
      </trkpt>
      <trkpt lat="47.46388" lon="6.74351">
        <ele>398</ele>
        <time>2015-06-24T17:53:54.000Z</time>
      </trkpt>
      <trkpt lat="47.46392" lon="6.74353">
        <ele>398</ele>
        <time>2015-06-24T17:53:55.000Z</time>
      </trkpt>
      <trkpt lat="47.46396" lon="6.74356">
        <ele>398</ele>
        <time>2015-06-24T17:53:56.000Z</time>
      </trkpt>
      <trkpt lat="47.464" lon="6.74357">
        <ele>398</ele>
        <time>2015-06-24T17:53:57.000Z</time>
      </trkpt>
      <trkpt lat="47.46403" lon="6.74359">
        <ele>398</ele>
        <time>2015-06-24T17:53:57.999Z</time>
      </trkpt>
      <trkpt lat="47.46408" lon="6.7436">
        <ele>398</ele>
        <time>2015-06-24T17:53:59.000Z</time>
      </trkpt>
      <trkpt lat="47.46412" lon="6.74362">
        <ele>398</ele>
        <time>2015-06-24T17:54:00.000Z</time>
      </trkpt>
      <trkpt lat="47.46415" lon="6.74363">
        <ele>397</ele>
        <time>2015-06-24T17:54:01.000Z</time>
      </trkpt>
      <trkpt lat="47.46419" lon="6.74364">
        <ele>401</ele>
        <time>2015-06-24T17:54:02.000Z</time>
      </trkpt>
      <trkpt lat="47.46422" lon="6.74365">
        <ele>401</ele>
        <time>2015-06-24T17:54:03.000Z</time>
      </trkpt>
      <trkpt lat="47.46425" lon="6.74367">
        <ele>400</ele>
        <time>2015-06-24T17:54:04.000Z</time>
      </trkpt>
      <trkpt lat="47.46427" lon="6.74368">
        <ele>400</ele>
        <time>2015-06-24T17:54:05.000Z</time>
      </trkpt>
      <trkpt lat="47.4643" lon="6.7437">
        <ele>400</ele>
        <time>2015-06-24T17:54:06.000Z</time>
      </trkpt>
      <trkpt lat="47.46432" lon="6.74372">
        <ele>400</ele>
        <time>2015-06-24T17:54:07.000Z</time>
      </trkpt>
      <trkpt lat="47.46435" lon="6.74375">
        <ele>400</ele>
        <time>2015-06-24T17:54:08.000Z</time>
      </trkpt>
      <trkpt lat="47.46438" lon="6.74379">
        <ele>399</ele>
        <time>2015-06-24T17:54:09.000Z</time>
      </trkpt>
      <trkpt lat="47.46449" lon="6.74387">
        <ele>399</ele>
        <time>2015-06-24T17:54:10.000Z</time>
      </trkpt>
      <trkpt lat="47.46455" lon="6.74394">
        <ele>399</ele>
        <time>2015-06-24T17:54:11.000Z</time>
      </trkpt>
      <trkpt lat="47.46459" lon="6.74399">
        <ele>399</ele>
        <time>2015-06-24T17:54:12.000Z</time>
      </trkpt>
      <trkpt lat="47.46464" lon="6.74406">
        <ele>399</ele>
        <time>2015-06-24T17:54:13.000Z</time>
      </trkpt>
      <trkpt lat="47.46468" lon="6.74411">
        <ele>399</ele>
        <time>2015-06-24T17:54:14.000Z</time>
      </trkpt>
      <trkpt lat="47.46471" lon="6.74414">
        <ele>399</ele>
        <time>2015-06-24T17:54:15.000Z</time>
      </trkpt>
      <trkpt lat="47.46476" lon="6.7442">
        <ele>391</ele>
        <time>2015-06-24T17:54:16.000Z</time>
      </trkpt>
      <trkpt lat="47.4648" lon="6.74426">
        <ele>392</ele>
        <time>2015-06-24T17:54:17.000Z</time>
      </trkpt>
      <trkpt lat="47.46487" lon="6.74434">
        <ele>392</ele>
        <time>2015-06-24T17:54:18.000Z</time>
      </trkpt>
      <trkpt lat="47.46494" lon="6.74441">
        <ele>391</ele>
        <time>2015-06-24T17:54:19.000Z</time>
      </trkpt>
      <trkpt lat="47.46502" lon="6.74448">
        <ele>396</ele>
        <time>2015-06-24T17:54:20.000Z</time>
      </trkpt>
      <trkpt lat="47.46507" lon="6.74454">
        <ele>395</ele>
        <time>2015-06-24T17:54:21.000Z</time>
      </trkpt>
      <trkpt lat="47.46512" lon="6.74462">
        <ele>394</ele>
        <time>2015-06-24T17:54:22.000Z</time>
      </trkpt>
      <trkpt lat="47.46517" lon="6.74468">
        <ele>394</ele>
        <time>2015-06-24T17:54:23.000Z</time>
      </trkpt>
      <trkpt lat="47.46521" lon="6.74474">
        <ele>393</ele>
        <time>2015-06-24T17:54:24.000Z</time>
      </trkpt>
      <trkpt lat="47.46522" lon="6.74478">
        <ele>393</ele>
        <time>2015-06-24T17:54:25.000Z</time>
      </trkpt>
      <trkpt lat="47.46525" lon="6.74484">
        <ele>392</ele>
        <time>2015-06-24T17:54:26.000Z</time>
      </trkpt>
      <trkpt lat="47.46529" lon="6.74492">
        <ele>392</ele>
        <time>2015-06-24T17:54:27.000Z</time>
      </trkpt>
      <trkpt lat="47.46534" lon="6.74502">
        <ele>384</ele>
        <time>2015-06-24T17:54:28.000Z</time>
      </trkpt>
      <trkpt lat="47.46539" lon="6.74511">
        <ele>384</ele>
        <time>2015-06-24T17:54:29.000Z</time>
      </trkpt>
      <trkpt lat="47.46544" lon="6.74518">
        <ele>384</ele>
        <time>2015-06-24T17:54:30.000Z</time>
      </trkpt>
      <trkpt lat="47.46551" lon="6.74529">
        <ele>383</ele>
        <time>2015-06-24T17:54:31.000Z</time>
      </trkpt>
      <trkpt lat="47.46557" lon="6.7454">
        <ele>383</ele>
        <time>2015-06-24T17:54:32.000Z</time>
      </trkpt>
      <trkpt lat="47.46563" lon="6.74547">
        <ele>382</ele>
        <time>2015-06-24T17:54:33.000Z</time>
      </trkpt>
      <trkpt lat="47.46569" lon="6.74554">
        <ele>382</ele>
        <time>2015-06-24T17:54:34.000Z</time>
      </trkpt>
      <trkpt lat="47.46575" lon="6.74562">
        <ele>381</ele>
        <time>2015-06-24T17:54:35.000Z</time>
      </trkpt>
      <trkpt lat="47.46579" lon="6.74567">
        <ele>380</ele>
        <time>2015-06-24T17:54:36.000Z</time>
      </trkpt>
      <trkpt lat="47.46586" lon="6.74574">
        <ele>383</ele>
        <time>2015-06-24T17:54:37.000Z</time>
      </trkpt>
      <trkpt lat="47.46591" lon="6.74581">
        <ele>382</ele>
        <time>2015-06-24T17:54:38.000Z</time>
      </trkpt>
      <trkpt lat="47.46595" lon="6.74592">
        <ele>377</ele>
        <time>2015-06-24T17:54:39.000Z</time>
      </trkpt>
      <trkpt lat="47.466" lon="6.746">
        <ele>375</ele>
        <time>2015-06-24T17:54:40.000Z</time>
      </trkpt>
      <trkpt lat="47.46601" lon="6.74609">
        <ele>374</ele>
        <time>2015-06-24T17:54:41.000Z</time>
      </trkpt>
      <trkpt lat="47.46605" lon="6.74614">
        <ele>374</ele>
        <time>2015-06-24T17:54:42.000Z</time>
      </trkpt>
      <trkpt lat="47.46608" lon="6.74618">
        <ele>373</ele>
        <time>2015-06-24T17:54:43.000Z</time>
      </trkpt>
      <trkpt lat="47.46611" lon="6.74624">
        <ele>373</ele>
        <time>2015-06-24T17:54:44.000Z</time>
      </trkpt>
      <trkpt lat="47.46614" lon="6.74631">
        <ele>372</ele>
        <time>2015-06-24T17:54:45.000Z</time>
      </trkpt>
      <trkpt lat="47.46618" lon="6.74638">
        <ele>371</ele>
        <time>2015-06-24T17:54:46.000Z</time>
      </trkpt>
      <trkpt lat="47.46622" lon="6.74646">
        <ele>370</ele>
        <time>2015-06-24T17:54:47.000Z</time>
      </trkpt>
      <trkpt lat="47.4663" lon="6.74651">
        <ele>370</ele>
        <time>2015-06-24T17:54:48.000Z</time>
      </trkpt>
      <trkpt lat="47.46635" lon="6.74658">
        <ele>370</ele>
        <time>2015-06-24T17:54:49.000Z</time>
      </trkpt>
      <trkpt lat="47.46643" lon="6.74667">
        <ele>362</ele>
        <time>2015-06-24T17:54:50.000Z</time>
      </trkpt>
      <trkpt lat="47.46655" lon="6.74676">
        <ele>362</ele>
        <time>2015-06-24T17:54:51.000Z</time>
      </trkpt>
      <trkpt lat="47.46661" lon="6.74685">
        <ele>362</ele>
        <time>2015-06-24T17:54:51.999Z</time>
      </trkpt>
      <trkpt lat="47.46672" lon="6.74698">
        <ele>359</ele>
        <time>2015-06-24T17:54:53.000Z</time>
      </trkpt>
      <trkpt lat="47.46679" lon="6.74706">
        <ele>358</ele>
        <time>2015-06-24T17:54:54.000Z</time>
      </trkpt>
      <trkpt lat="47.46692" lon="6.74707">
        <ele>357</ele>
        <time>2015-06-24T17:54:55.000Z</time>
      </trkpt>
      <trkpt lat="47.46702" lon="6.74708">
        <ele>357</ele>
        <time>2015-06-24T17:54:56.000Z</time>
      </trkpt>
      <trkpt lat="47.4671" lon="6.74706">
        <ele>357</ele>
        <time>2015-06-24T17:54:57.000Z</time>
      </trkpt>
      <trkpt lat="47.46714" lon="6.74703">
        <ele>357</ele>
        <time>2015-06-24T17:56:29.000Z</time>
      </trkpt>
      <trkpt lat="47.46714" lon="6.74702">
        <ele>357</ele>
        <time>2015-06-24T17:56:30.000Z</time>
      </trkpt>
      <trkpt lat="47.46718" lon="6.74702">
        <ele>357</ele>
        <time>2015-06-24T17:57:24.000Z</time>
      </trkpt>
      <trkpt lat="47.46719" lon="6.74702">
        <ele>357</ele>
        <time>2015-06-24T17:57:25.000Z</time>
      </trkpt>
      <trkpt lat="47.46723" lon="6.74701">
        <ele>357</ele>
        <time>2015-06-24T17:57:28.000Z</time>
      </trkpt>
      <trkpt lat="47.46725" lon="6.747">
        <ele>357</ele>
        <time>2015-06-24T17:57:29.000Z</time>
      </trkpt>
      <trkpt lat="47.46727" lon="6.747">
        <ele>357</ele>
        <time>2015-06-24T17:57:30.000Z</time>
      </trkpt>
      <trkpt lat="47.4673" lon="6.74699">
        <ele>357</ele>
        <time>2015-06-24T17:57:31.000Z</time>
      </trkpt>
      <trkpt lat="47.46732" lon="6.74699">
        <ele>357</ele>
        <time>2015-06-24T17:57:32.000Z</time>
      </trkpt>
      <trkpt lat="47.46734" lon="6.74698">
        <ele>357</ele>
        <time>2015-06-24T17:57:33.000Z</time>
      </trkpt>
      <trkpt lat="47.46737" lon="6.74698">
        <ele>357</ele>
        <time>2015-06-24T17:57:34.000Z</time>
      </trkpt>
      <trkpt lat="47.46739" lon="6.74697">
        <ele>357</ele>
        <time>2015-06-24T17:57:35.000Z</time>
      </trkpt>
      <trkpt lat="47.46742" lon="6.74697">
        <ele>357</ele>
        <time>2015-06-24T17:57:36.000Z</time>
      </trkpt>
      <trkpt lat="47.46744" lon="6.74696">
        <ele>357</ele>
        <time>2015-06-24T17:57:37.000Z</time>
      </trkpt>
      <trkpt lat="47.46747" lon="6.74695">
        <ele>357</ele>
        <time>2015-06-24T17:57:39.000Z</time>
      </trkpt>
      <trkpt lat="47.46748" lon="6.74695">
        <ele>357</ele>
        <time>2015-06-24T17:57:40.000Z</time>
      </trkpt>
      <trkpt lat="47.46745" lon="6.74697">
        <ele>357</ele>
        <time>2015-06-24T17:58:14.000Z</time>
      </trkpt>
      <trkpt lat="47.46744" lon="6.74698">
        <ele>357</ele>
        <time>2015-06-24T17:58:15.000Z</time>
      </trkpt>
      <trkpt lat="47.46742" lon="6.74701">
        <ele>356</ele>
        <time>2015-06-24T17:58:17.000Z</time>
      </trkpt>
      <trkpt lat="47.46741" lon="6.74703">
        <ele>356</ele>
        <time>2015-06-24T17:58:18.000Z</time>
      </trkpt>
      <trkpt lat="47.46739" lon="6.74708">
        <ele>356</ele>
        <time>2015-06-24T17:58:20.000Z</time>
      </trkpt>
      <trkpt lat="47.46737" lon="6.74711">
        <ele>355</ele>
        <time>2015-06-24T17:58:21.000Z</time>
      </trkpt>
      <trkpt lat="47.46736" lon="6.74714">
        <ele>355</ele>
        <time>2015-06-24T17:58:22.000Z</time>
      </trkpt>
      <trkpt lat="47.46735" lon="6.74719">
        <ele>354</ele>
        <time>2015-06-24T17:58:23.000Z</time>
      </trkpt>
      <trkpt lat="47.46733" lon="6.74723">
        <ele>354</ele>
        <time>2015-06-24T17:58:24.000Z</time>
      </trkpt>
      <trkpt lat="47.46731" lon="6.74727">
        <ele>354</ele>
        <time>2015-06-24T17:58:25.000Z</time>
      </trkpt>
      <trkpt lat="47.4673" lon="6.74731">
        <ele>353</ele>
        <time>2015-06-24T17:58:26.000Z</time>
      </trkpt>
      <trkpt lat="47.46728" lon="6.74735">
        <ele>353</ele>
        <time>2015-06-24T17:58:27.000Z</time>
      </trkpt>
      <trkpt lat="47.46727" lon="6.74739">
        <ele>353</ele>
        <time>2015-06-24T17:58:28.000Z</time>
      </trkpt>
      <trkpt lat="47.46725" lon="6.74743">
        <ele>353</ele>
        <time>2015-06-24T17:58:29.000Z</time>
      </trkpt>
      <trkpt lat="47.46724" lon="6.74747">
        <ele>353</ele>
        <time>2015-06-24T17:58:30.000Z</time>
      </trkpt>
      <trkpt lat="47.46722" lon="6.7475">
        <ele>351</ele>
        <time>2015-06-24T17:58:31.000Z</time>
      </trkpt>
      <trkpt lat="47.4672" lon="6.74754">
        <ele>351</ele>
        <time>2015-06-24T17:58:32.000Z</time>
      </trkpt>
      <trkpt lat="47.46718" lon="6.74757">
        <ele>352</ele>
        <time>2015-06-24T17:58:33.000Z</time>
      </trkpt>
      <trkpt lat="47.46716" lon="6.7476">
        <ele>352</ele>
        <time>2015-06-24T17:58:34.000Z</time>
      </trkpt>
      <trkpt lat="47.46714" lon="6.74762">
        <ele>352</ele>
        <time>2015-06-24T17:58:35.000Z</time>
      </trkpt>
      <trkpt lat="47.46711" lon="6.74765">
        <ele>352</ele>
        <time>2015-06-24T17:58:37.000Z</time>
      </trkpt>
      <trkpt lat="47.4671" lon="6.74766">
        <ele>353</ele>
        <time>2015-06-24T17:58:38.000Z</time>
      </trkpt>
      <trkpt lat="47.46707" lon="6.74769">
        <ele>353</ele>
        <time>2015-06-24T17:58:40.000Z</time>
      </trkpt>
      <trkpt lat="47.46706" lon="6.7477">
        <ele>353</ele>
        <time>2015-06-24T17:58:41.000Z</time>
      </trkpt>
      <trkpt lat="47.46702" lon="6.74773">
        <ele>353</ele>
        <time>2015-06-24T17:58:45.000Z</time>
      </trkpt>
      <trkpt lat="47.46702" lon="6.74775">
        <ele>353</ele>
        <time>2015-06-24T17:58:46.000Z</time>
      </trkpt>
      <trkpt lat="47.46703" lon="6.7478">
        <ele>353</ele>
        <time>2015-06-24T17:58:48.000Z</time>
      </trkpt>
      <trkpt lat="47.46703" lon="6.74782">
        <ele>354</ele>
        <time>2015-06-24T17:58:49.000Z</time>
      </trkpt>
      <trkpt lat="47.46702" lon="6.74788">
        <ele>354</ele>
        <time>2015-06-24T17:58:52.000Z</time>
      </trkpt>
      <trkpt lat="47.46701" lon="6.7479">
        <ele>354</ele>
        <time>2015-06-24T17:58:53.000Z</time>
      </trkpt>
      <trkpt lat="47.46701" lon="6.74796">
        <ele>354</ele>
        <time>2015-06-24T17:58:55.000Z</time>
      </trkpt>
      <trkpt lat="47.46701" lon="6.74799">
        <ele>354</ele>
        <time>2015-06-24T17:58:56.000Z</time>
      </trkpt>
      <trkpt lat="47.467" lon="6.74803">
        <ele>355</ele>
        <time>2015-06-24T17:58:58.000Z</time>
      </trkpt>
      <trkpt lat="47.467" lon="6.74805">
        <ele>355</ele>
        <time>2015-06-24T17:58:59.000Z</time>
      </trkpt>
      <trkpt lat="47.46698" lon="6.74809">
        <ele>355</ele>
        <time>2015-06-24T17:59:01.000Z</time>
      </trkpt>
      <trkpt lat="47.46697" lon="6.74811">
        <ele>355</ele>
        <time>2015-06-24T17:59:02.000Z</time>
      </trkpt>
      <trkpt lat="47.46693" lon="6.74812">
        <ele>356</ele>
        <time>2015-06-24T17:59:04.000Z</time>
      </trkpt>
      <trkpt lat="47.46691" lon="6.74812">
        <ele>356</ele>
        <time>2015-06-24T17:59:05.000Z</time>
      </trkpt>
      <trkpt lat="47.46687" lon="6.74813">
        <ele>357</ele>
        <time>2015-06-24T17:59:07.000Z</time>
      </trkpt>
      <trkpt lat="47.46686" lon="6.74814">
        <ele>357</ele>
        <time>2015-06-24T17:59:08.000Z</time>
      </trkpt>
      <trkpt lat="47.46683" lon="6.74816">
        <ele>357</ele>
        <time>2015-06-24T17:59:10.000Z</time>
      </trkpt>
      <trkpt lat="47.46681" lon="6.74816">
        <ele>358</ele>
        <time>2015-06-24T17:59:11.000Z</time>
      </trkpt>
      <trkpt lat="47.46677" lon="6.74815">
        <ele>358</ele>
        <time>2015-06-24T17:59:14.000Z</time>
      </trkpt>
      <trkpt lat="47.46676" lon="6.74815">
        <ele>358</ele>
        <time>2015-06-24T17:59:15.000Z</time>
      </trkpt>
      <trkpt lat="47.46672" lon="6.74814">
        <ele>358</ele>
        <time>2015-06-24T17:59:18.000Z</time>
      </trkpt>
      <trkpt lat="47.46671" lon="6.74814">
        <ele>358</ele>
        <time>2015-06-24T17:59:19.000Z</time>
      </trkpt>
      <trkpt lat="47.46667" lon="6.74814">
        <ele>359</ele>
        <time>2015-06-24T17:59:23.000Z</time>
      </trkpt>
      <trkpt lat="47.46666" lon="6.74815">
        <ele>364</ele>
        <time>2015-06-24T17:59:24.000Z</time>
      </trkpt>
      <trkpt lat="47.46662" lon="6.74815">
        <ele>364</ele>
        <time>2015-06-24T17:59:27.000Z</time>
      </trkpt>
      <trkpt lat="47.46661" lon="6.74816">
        <ele>364</ele>
        <time>2015-06-24T17:59:28.000Z</time>
      </trkpt>
      <trkpt lat="47.46658" lon="6.74815">
        <ele>364</ele>
        <time>2015-06-24T17:59:32.000Z</time>
      </trkpt>
      <trkpt lat="47.46656" lon="6.74815">
        <ele>364</ele>
        <time>2015-06-24T17:59:33.000Z</time>
      </trkpt>
      <trkpt lat="47.46653" lon="6.74815">
        <ele>364</ele>
        <time>2015-06-24T17:59:35.000Z</time>
      </trkpt>
      <trkpt lat="47.46651" lon="6.74815">
        <ele>364</ele>
        <time>2015-06-24T17:59:36.000Z</time>
      </trkpt>
      <trkpt lat="47.46647" lon="6.74815">
        <ele>364</ele>
        <time>2015-06-24T17:59:39.000Z</time>
      </trkpt>
      <trkpt lat="47.46646" lon="6.74815">
        <ele>364</ele>
        <time>2015-06-24T17:59:40.000Z</time>
      </trkpt>
      <trkpt lat="47.46644" lon="6.74819">
        <ele>364</ele>
        <time>2015-06-24T17:59:42.000Z</time>
      </trkpt>
      <trkpt lat="47.46643" lon="6.74821">
        <ele>364</ele>
        <time>2015-06-24T17:59:43.000Z</time>
      </trkpt>
      <trkpt lat="47.46643" lon="6.74827">
        <ele>365</ele>
        <time>2015-06-24T17:59:45.000Z</time>
      </trkpt>
      <trkpt lat="47.46643" lon="6.74831">
        <ele>365</ele>
        <time>2015-06-24T17:59:46.000Z</time>
      </trkpt>
      <trkpt lat="47.46643" lon="6.74834">
        <ele>368</ele>
        <time>2015-06-24T17:59:47.000Z</time>
      </trkpt>
      <trkpt lat="47.46644" lon="6.74837">
        <ele>368</ele>
        <time>2015-06-24T17:59:48.000Z</time>
      </trkpt>
      <trkpt lat="47.46645" lon="6.7484">
        <ele>368</ele>
        <time>2015-06-24T17:59:49.000Z</time>
      </trkpt>
      <trkpt lat="47.46647" lon="6.74843">
        <ele>368</ele>
        <time>2015-06-24T17:59:50.000Z</time>
      </trkpt>
      <trkpt lat="47.46648" lon="6.74847">
        <ele>368</ele>
        <time>2015-06-24T17:59:51.000Z</time>
      </trkpt>
      <trkpt lat="47.46649" lon="6.7485">
        <ele>368</ele>
        <time>2015-06-24T17:59:52.000Z</time>
      </trkpt>
      <trkpt lat="47.46651" lon="6.74853">
        <ele>368</ele>
        <time>2015-06-24T17:59:53.000Z</time>
      </trkpt>
      <trkpt lat="47.46652" lon="6.74856">
        <ele>368</ele>
        <time>2015-06-24T17:59:54.000Z</time>
      </trkpt>
      <trkpt lat="47.46654" lon="6.74859">
        <ele>368</ele>
        <time>2015-06-24T17:59:55.000Z</time>
      </trkpt>
      <trkpt lat="47.46656" lon="6.74862">
        <ele>368</ele>
        <time>2015-06-24T17:59:56.000Z</time>
      </trkpt>
      <trkpt lat="47.46657" lon="6.74865">
        <ele>368</ele>
        <time>2015-06-24T17:59:57.000Z</time>
      </trkpt>
      <trkpt lat="47.46658" lon="6.74868">
        <ele>368</ele>
        <time>2015-06-24T17:59:58.000Z</time>
      </trkpt>
      <trkpt lat="47.46659" lon="6.74872">
        <ele>368</ele>
        <time>2015-06-24T17:59:59.000Z</time>
      </trkpt>
      <trkpt lat="47.46661" lon="6.74875">
        <ele>368</ele>
        <time>2015-06-24T18:00:00.000Z</time>
      </trkpt>
      <trkpt lat="47.46662" lon="6.74878">
        <ele>368</ele>
        <time>2015-06-24T18:00:01.000Z</time>
      </trkpt>
      <trkpt lat="47.46663" lon="6.74881">
        <ele>368</ele>
        <time>2015-06-24T18:00:02.000Z</time>
      </trkpt>
      <trkpt lat="47.46665" lon="6.74885">
        <ele>368</ele>
        <time>2015-06-24T18:00:03.000Z</time>
      </trkpt>
      <trkpt lat="47.46666" lon="6.74888">
        <ele>368</ele>
        <time>2015-06-24T18:00:04.000Z</time>
      </trkpt>
      <trkpt lat="47.46667" lon="6.74891">
        <ele>361</ele>
        <time>2015-06-24T18:00:05.000Z</time>
      </trkpt>
      <trkpt lat="47.46668" lon="6.74895">
        <ele>361</ele>
        <time>2015-06-24T18:00:06.000Z</time>
      </trkpt>
      <trkpt lat="47.46668" lon="6.74898">
        <ele>362</ele>
        <time>2015-06-24T18:00:07.000Z</time>
      </trkpt>
      <trkpt lat="47.46669" lon="6.74901">
        <ele>362</ele>
        <time>2015-06-24T18:00:08.000Z</time>
      </trkpt>
      <trkpt lat="47.4667" lon="6.74908">
        <ele>363</ele>
        <time>2015-06-24T18:00:10.000Z</time>
      </trkpt>
      <trkpt lat="47.46671" lon="6.74911">
        <ele>363</ele>
        <time>2015-06-24T18:00:11.000Z</time>
      </trkpt>
      <trkpt lat="47.46672" lon="6.74917">
        <ele>364</ele>
        <time>2015-06-24T18:00:13.000Z</time>
      </trkpt>
      <trkpt lat="47.46672" lon="6.74919">
        <ele>364</ele>
        <time>2015-06-24T18:00:14.000Z</time>
      </trkpt>
      <trkpt lat="47.46675" lon="6.74923">
        <ele>363</ele>
        <time>2015-06-24T18:00:18.000Z</time>
      </trkpt>
      <trkpt lat="47.46676" lon="6.74924">
        <ele>363</ele>
        <time>2015-06-24T18:00:19.000Z</time>
      </trkpt>
      <trkpt lat="47.46678" lon="6.74928">
        <ele>363</ele>
        <time>2015-06-24T18:00:21.000Z</time>
      </trkpt>
      <trkpt lat="47.46678" lon="6.74932">
        <ele>363</ele>
        <time>2015-06-24T18:00:22.000Z</time>
      </trkpt>
      <trkpt lat="47.46679" lon="6.74935">
        <ele>363</ele>
        <time>2015-06-24T18:00:23.000Z</time>
      </trkpt>
      <trkpt lat="47.46679" lon="6.74939">
        <ele>362</ele>
        <time>2015-06-24T18:00:24.000Z</time>
      </trkpt>
      <trkpt lat="47.46679" lon="6.74945">
        <ele>362</ele>
        <time>2015-06-24T18:00:26.000Z</time>
      </trkpt>
      <trkpt lat="47.4668" lon="6.74947">
        <ele>362</ele>
        <time>2015-06-24T18:00:27.000Z</time>
      </trkpt>
      <trkpt lat="47.46681" lon="6.7495">
        <ele>362</ele>
        <time>2015-06-24T18:00:28.000Z</time>
      </trkpt>
      <trkpt lat="47.46682" lon="6.74953">
        <ele>362</ele>
        <time>2015-06-24T18:00:29.000Z</time>
      </trkpt>
      <trkpt lat="47.46682" lon="6.74957">
        <ele>362</ele>
        <time>2015-06-24T18:00:30.000Z</time>
      </trkpt>
      <trkpt lat="47.46683" lon="6.74961">
        <ele>362</ele>
        <time>2015-06-24T18:00:31.000Z</time>
      </trkpt>
      <trkpt lat="47.46684" lon="6.74965">
        <ele>363</ele>
        <time>2015-06-24T18:00:32.000Z</time>
      </trkpt>
      <trkpt lat="47.46684" lon="6.74968">
        <ele>363</ele>
        <time>2015-06-24T18:00:33.000Z</time>
      </trkpt>
      <trkpt lat="47.46686" lon="6.74974">
        <ele>363</ele>
        <time>2015-06-24T18:00:36.000Z</time>
      </trkpt>
      <trkpt lat="47.46686" lon="6.74976">
        <ele>363</ele>
        <time>2015-06-24T18:00:37.000Z</time>
      </trkpt>
      <trkpt lat="47.46685" lon="6.74979">
        <ele>364</ele>
        <time>2015-06-24T18:00:38.000Z</time>
      </trkpt>
      <trkpt lat="47.46683" lon="6.74983">
        <ele>364</ele>
        <time>2015-06-24T18:00:39.000Z</time>
      </trkpt>
      <trkpt lat="47.46682" lon="6.74986">
        <ele>365</ele>
        <time>2015-06-24T18:00:40.000Z</time>
      </trkpt>
      <trkpt lat="47.46681" lon="6.7499">
        <ele>365</ele>
        <time>2015-06-24T18:00:41.000Z</time>
      </trkpt>
      <trkpt lat="47.46681" lon="6.74994">
        <ele>366</ele>
        <time>2015-06-24T18:00:42.000Z</time>
      </trkpt>
      <trkpt lat="47.46682" lon="6.74997">
        <ele>366</ele>
        <time>2015-06-24T18:00:43.000Z</time>
      </trkpt>
      <trkpt lat="47.46684" lon="6.75001">
        <ele>367</ele>
        <time>2015-06-24T18:00:44.000Z</time>
      </trkpt>
      <trkpt lat="47.46685" lon="6.75005">
        <ele>367</ele>
        <time>2015-06-24T18:00:45.000Z</time>
      </trkpt>
      <trkpt lat="47.46686" lon="6.75009">
        <ele>367</ele>
        <time>2015-06-24T18:00:46.000Z</time>
      </trkpt>
      <trkpt lat="47.46686" lon="6.75013">
        <ele>366</ele>
        <time>2015-06-24T18:00:47.000Z</time>
      </trkpt>
      <trkpt lat="47.46687" lon="6.75016">
        <ele>366</ele>
        <time>2015-06-24T18:00:48.000Z</time>
      </trkpt>
      <trkpt lat="47.46687" lon="6.75019">
        <ele>366</ele>
        <time>2015-06-24T18:00:49.000Z</time>
      </trkpt>
      <trkpt lat="47.46689" lon="6.75026">
        <ele>366</ele>
        <time>2015-06-24T18:00:52.000Z</time>
      </trkpt>
      <trkpt lat="47.46689" lon="6.75027">
        <ele>366</ele>
        <time>2015-06-24T18:00:53.000Z</time>
      </trkpt>
      <trkpt lat="47.4669" lon="6.75033">
        <ele>366</ele>
        <time>2015-06-24T18:00:59.000Z</time>
      </trkpt>
      <trkpt lat="47.4669" lon="6.75035">
        <ele>366</ele>
        <time>2015-06-24T18:01:00.000Z</time>
      </trkpt>
      <trkpt lat="47.46693" lon="6.75039">
        <ele>366</ele>
        <time>2015-06-24T18:01:03.000Z</time>
      </trkpt>
      <trkpt lat="47.46693" lon="6.75041">
        <ele>366</ele>
        <time>2015-06-24T18:01:04.000Z</time>
      </trkpt>
      <trkpt lat="47.46695" lon="6.75047">
        <ele>366</ele>
        <time>2015-06-24T18:01:09.000Z</time>
      </trkpt>
      <trkpt lat="47.46695" lon="6.75049">
        <ele>366</ele>
        <time>2015-06-24T18:01:10.000Z</time>
      </trkpt>
      <trkpt lat="47.46695" lon="6.75052">
        <ele>366</ele>
        <time>2015-06-24T18:01:11.000Z</time>
      </trkpt>
      <trkpt lat="47.46695" lon="6.75057">
        <ele>366</ele>
        <time>2015-06-24T18:01:12.000Z</time>
      </trkpt>
      <trkpt lat="47.46696" lon="6.75062">
        <ele>366</ele>
        <time>2015-06-24T18:01:13.000Z</time>
      </trkpt>
      <trkpt lat="47.46697" lon="6.75067">
        <ele>367</ele>
        <time>2015-06-24T18:01:14.000Z</time>
      </trkpt>
      <trkpt lat="47.46697" lon="6.75074">
        <ele>367</ele>
        <time>2015-06-24T18:01:15.000Z</time>
      </trkpt>
      <trkpt lat="47.46697" lon="6.7508">
        <ele>367</ele>
        <time>2015-06-24T18:01:16.000Z</time>
      </trkpt>
      <trkpt lat="47.46697" lon="6.75087">
        <ele>369</ele>
        <time>2015-06-24T18:01:17.000Z</time>
      </trkpt>
      <trkpt lat="47.46697" lon="6.75093">
        <ele>369</ele>
        <time>2015-06-24T18:01:18.000Z</time>
      </trkpt>
      <trkpt lat="47.46697" lon="6.75099">
        <ele>368</ele>
        <time>2015-06-24T18:01:19.000Z</time>
      </trkpt>
      <trkpt lat="47.46697" lon="6.75104">
        <ele>368</ele>
        <time>2015-06-24T18:01:20.000Z</time>
      </trkpt>
      <trkpt lat="47.46697" lon="6.75109">
        <ele>368</ele>
        <time>2015-06-24T18:01:21.000Z</time>
      </trkpt>
      <trkpt lat="47.46697" lon="6.75113">
        <ele>368</ele>
        <time>2015-06-24T18:01:22.000Z</time>
      </trkpt>
      <trkpt lat="47.46698" lon="6.75117">
        <ele>368</ele>
        <time>2015-06-24T18:01:23.000Z</time>
      </trkpt>
      <trkpt lat="47.46698" lon="6.75121">
        <ele>368</ele>
        <time>2015-06-24T18:01:24.000Z</time>
      </trkpt>
      <trkpt lat="47.46698" lon="6.75124">
        <ele>368</ele>
        <time>2015-06-24T18:01:25.000Z</time>
      </trkpt>
      <trkpt lat="47.46697" lon="6.75129">
        <ele>368</ele>
        <time>2015-06-24T18:01:26.000Z</time>
      </trkpt>
      <trkpt lat="47.46697" lon="6.75133">
        <ele>368</ele>
        <time>2015-06-24T18:01:27.000Z</time>
      </trkpt>
      <trkpt lat="47.46697" lon="6.75138">
        <ele>368</ele>
        <time>2015-06-24T18:01:28.000Z</time>
      </trkpt>
      <trkpt lat="47.46697" lon="6.75143">
        <ele>368</ele>
        <time>2015-06-24T18:01:29.000Z</time>
      </trkpt>
      <trkpt lat="47.46697" lon="6.75148">
        <ele>369</ele>
        <time>2015-06-24T18:01:30.000Z</time>
      </trkpt>
      <trkpt lat="47.46697" lon="6.75152">
        <ele>369</ele>
        <time>2015-06-24T18:01:31.000Z</time>
      </trkpt>
      <trkpt lat="47.46696" lon="6.75156">
        <ele>369</ele>
        <time>2015-06-24T18:01:32.000Z</time>
      </trkpt>
      <trkpt lat="47.46696" lon="6.7516">
        <ele>369</ele>
        <time>2015-06-24T18:01:33.000Z</time>
      </trkpt>
      <trkpt lat="47.46695" lon="6.75165">
        <ele>370</ele>
        <time>2015-06-24T18:01:34.000Z</time>
      </trkpt>
      <trkpt lat="47.46695" lon="6.75168">
        <ele>370</ele>
        <time>2015-06-24T18:01:34.999Z</time>
      </trkpt>
      <trkpt lat="47.46695" lon="6.75174">
        <ele>369</ele>
        <time>2015-06-24T18:01:36.000Z</time>
      </trkpt>
      <trkpt lat="47.46695" lon="6.75178">
        <ele>369</ele>
        <time>2015-06-24T18:01:37.000Z</time>
      </trkpt>
      <trkpt lat="47.46696" lon="6.75183">
        <ele>369</ele>
        <time>2015-06-24T18:01:38.000Z</time>
      </trkpt>
      <trkpt lat="47.46697" lon="6.75188">
        <ele>368</ele>
        <time>2015-06-24T18:01:39.000Z</time>
      </trkpt>
      <trkpt lat="47.46697" lon="6.75193">
        <ele>368</ele>
        <time>2015-06-24T18:01:40.000Z</time>
      </trkpt>
      <trkpt lat="47.46698" lon="6.75199">
        <ele>368</ele>
        <time>2015-06-24T18:01:41.000Z</time>
      </trkpt>
      <trkpt lat="47.46698" lon="6.75204">
        <ele>368</ele>
        <time>2015-06-24T18:01:42.000Z</time>
      </trkpt>
      <trkpt lat="47.46698" lon="6.7521">
        <ele>368</ele>
        <time>2015-06-24T18:01:43.000Z</time>
      </trkpt>
      <trkpt lat="47.46698" lon="6.75216">
        <ele>368</ele>
        <time>2015-06-24T18:01:44.000Z</time>
      </trkpt>
      <trkpt lat="47.46699" lon="6.75221">
        <ele>367</ele>
        <time>2015-06-24T18:01:45.000Z</time>
      </trkpt>
      <trkpt lat="47.46699" lon="6.75225">
        <ele>367</ele>
        <time>2015-06-24T18:01:46.000Z</time>
      </trkpt>
      <trkpt lat="47.467" lon="6.75231">
        <ele>367</ele>
        <time>2015-06-24T18:01:48.000Z</time>
      </trkpt>
      <trkpt lat="47.46701" lon="6.75233">
        <ele>367</ele>
        <time>2015-06-24T18:01:49.000Z</time>
      </trkpt>
      <trkpt lat="47.46702" lon="6.75238">
        <ele>367</ele>
        <time>2015-06-24T18:01:54.000Z</time>
      </trkpt>
      <trkpt lat="47.46703" lon="6.75239">
        <ele>367</ele>
        <time>2015-06-24T18:01:55.000Z</time>
      </trkpt>
      <trkpt lat="47.467" lon="6.75244">
        <ele>367</ele>
        <time>2015-06-24T18:02:06.000Z</time>
      </trkpt>
      <trkpt lat="47.467" lon="6.75245">
        <ele>368</ele>
        <time>2015-06-24T18:02:07.000Z</time>
      </trkpt>
      <trkpt lat="47.46699" lon="6.75251">
        <ele>368</ele>
        <time>2015-06-24T18:02:13.000Z</time>
      </trkpt>
      <trkpt lat="47.46699" lon="6.75253">
        <ele>368</ele>
        <time>2015-06-24T18:02:14.000Z</time>
      </trkpt>
      <trkpt lat="47.46698" lon="6.75257">
        <ele>368</ele>
        <time>2015-06-24T18:02:16.000Z</time>
      </trkpt>
      <trkpt lat="47.46698" lon="6.7526">
        <ele>368</ele>
        <time>2015-06-24T18:02:17.000Z</time>
      </trkpt>
      <trkpt lat="47.46697" lon="6.75264">
        <ele>368</ele>
        <time>2015-06-24T18:02:18.000Z</time>
      </trkpt>
      <trkpt lat="47.46697" lon="6.75269">
        <ele>368</ele>
        <time>2015-06-24T18:02:19.000Z</time>
      </trkpt>
      <trkpt lat="47.46698" lon="6.75276">
        <ele>368</ele>
        <time>2015-06-24T18:02:20.000Z</time>
      </trkpt>
      <trkpt lat="47.46699" lon="6.75284">
        <ele>367</ele>
        <time>2015-06-24T18:02:21.000Z</time>
      </trkpt>
      <trkpt lat="47.46707" lon="6.75301">
        <ele>366</ele>
        <time>2015-06-24T18:02:22.000Z</time>
      </trkpt>
      <trkpt lat="47.4671" lon="6.75308">
        <ele>366</ele>
        <time>2015-06-24T18:02:23.000Z</time>
      </trkpt>
      <trkpt lat="47.46712" lon="6.75318">
        <ele>365</ele>
        <time>2015-06-24T18:02:24.000Z</time>
      </trkpt>
      <trkpt lat="47.46713" lon="6.75326">
        <ele>365</ele>
        <time>2015-06-24T18:02:25.000Z</time>
      </trkpt>
      <trkpt lat="47.46714" lon="6.75335">
        <ele>363</ele>
        <time>2015-06-24T18:02:26.000Z</time>
      </trkpt>
      <trkpt lat="47.46714" lon="6.75345">
        <ele>363</ele>
        <time>2015-06-24T18:02:27.000Z</time>
      </trkpt>
      <trkpt lat="47.46714" lon="6.75355">
        <ele>363</ele>
        <time>2015-06-24T18:02:28.000Z</time>
      </trkpt>
      <trkpt lat="47.46713" lon="6.75368">
        <ele>363</ele>
        <time>2015-06-24T18:02:29.000Z</time>
      </trkpt>
      <trkpt lat="47.46714" lon="6.75379">
        <ele>363</ele>
        <time>2015-06-24T18:02:30.000Z</time>
      </trkpt>
      <trkpt lat="47.46713" lon="6.75387">
        <ele>362</ele>
        <time>2015-06-24T18:02:31.000Z</time>
      </trkpt>
      <trkpt lat="47.46709" lon="6.75396">
        <ele>363</ele>
        <time>2015-06-24T18:02:32.000Z</time>
      </trkpt>
      <trkpt lat="47.46706" lon="6.75405">
        <ele>364</ele>
        <time>2015-06-24T18:02:33.000Z</time>
      </trkpt>
      <trkpt lat="47.46702" lon="6.75411">
        <ele>365</ele>
        <time>2015-06-24T18:02:34.000Z</time>
      </trkpt>
      <trkpt lat="47.46698" lon="6.75417">
        <ele>362</ele>
        <time>2015-06-24T18:02:35.000Z</time>
      </trkpt>
      <trkpt lat="47.46693" lon="6.75419">
        <ele>363</ele>
        <time>2015-06-24T18:02:36.000Z</time>
      </trkpt>
      <trkpt lat="47.4669" lon="6.75421">
        <ele>364</ele>
        <time>2015-06-24T18:02:37.000Z</time>
      </trkpt>
      <trkpt lat="47.46689" lon="6.75424">
        <ele>365</ele>
        <time>2015-06-24T18:02:38.000Z</time>
      </trkpt>
      <trkpt lat="47.46687" lon="6.75429">
        <ele>364</ele>
        <time>2015-06-24T18:02:39.000Z</time>
      </trkpt>
      <trkpt lat="47.46685" lon="6.75433">
        <ele>364</ele>
        <time>2015-06-24T18:02:40.000Z</time>
      </trkpt>
      <trkpt lat="47.46683" lon="6.75437">
        <ele>364</ele>
        <time>2015-06-24T18:02:41.000Z</time>
      </trkpt>
      <trkpt lat="47.46682" lon="6.7544">
        <ele>364</ele>
        <time>2015-06-24T18:02:42.000Z</time>
      </trkpt>
      <trkpt lat="47.4668" lon="6.75445">
        <ele>363</ele>
        <time>2015-06-24T18:02:43.000Z</time>
      </trkpt>
      <trkpt lat="47.46678" lon="6.75448">
        <ele>363</ele>
        <time>2015-06-24T18:02:44.000Z</time>
      </trkpt>
      <trkpt lat="47.46677" lon="6.75452">
        <ele>362</ele>
        <time>2015-06-24T18:02:45.000Z</time>
      </trkpt>
      <trkpt lat="47.46675" lon="6.75456">
        <ele>362</ele>
        <time>2015-06-24T18:02:46.000Z</time>
      </trkpt>
      <trkpt lat="47.46673" lon="6.75461">
        <ele>362</ele>
        <time>2015-06-24T18:02:47.000Z</time>
      </trkpt>
      <trkpt lat="47.46672" lon="6.75466">
        <ele>361</ele>
        <time>2015-06-24T18:02:48.000Z</time>
      </trkpt>
      <trkpt lat="47.4667" lon="6.75471">
        <ele>361</ele>
        <time>2015-06-24T18:02:49.000Z</time>
      </trkpt>
      <trkpt lat="47.46668" lon="6.75476">
        <ele>361</ele>
        <time>2015-06-24T18:02:50.000Z</time>
      </trkpt>
      <trkpt lat="47.46666" lon="6.75481">
        <ele>373</ele>
        <time>2015-06-24T18:02:51.000Z</time>
      </trkpt>
      <trkpt lat="47.46663" lon="6.75486">
        <ele>371</ele>
        <time>2015-06-24T18:02:52.000Z</time>
      </trkpt>
      <trkpt lat="47.46661" lon="6.7549">
        <ele>370</ele>
        <time>2015-06-24T18:02:53.000Z</time>
      </trkpt>
      <trkpt lat="47.46659" lon="6.75494">
        <ele>369</ele>
        <time>2015-06-24T18:02:54.000Z</time>
      </trkpt>
      <trkpt lat="47.46657" lon="6.75499">
        <ele>370</ele>
        <time>2015-06-24T18:02:55.000Z</time>
      </trkpt>
      <trkpt lat="47.46655" lon="6.75503">
        <ele>368</ele>
        <time>2015-06-24T18:02:56.000Z</time>
      </trkpt>
      <trkpt lat="47.46653" lon="6.75507">
        <ele>368</ele>
        <time>2015-06-24T18:02:57.000Z</time>
      </trkpt>
      <trkpt lat="47.46651" lon="6.75511">
        <ele>369</ele>
        <time>2015-06-24T18:02:58.000Z</time>
      </trkpt>
      <trkpt lat="47.46649" lon="6.75514">
        <ele>370</ele>
        <time>2015-06-24T18:02:59.000Z</time>
      </trkpt>
      <trkpt lat="47.46648" lon="6.75518">
        <ele>370</ele>
        <time>2015-06-24T18:03:00.000Z</time>
      </trkpt>
      <trkpt lat="47.46646" lon="6.75521">
        <ele>370</ele>
        <time>2015-06-24T18:03:01.000Z</time>
      </trkpt>
      <trkpt lat="47.46645" lon="6.75525">
        <ele>371</ele>
        <time>2015-06-24T18:03:02.000Z</time>
      </trkpt>
      <trkpt lat="47.46643" lon="6.75528">
        <ele>371</ele>
        <time>2015-06-24T18:03:03.000Z</time>
      </trkpt>
      <trkpt lat="47.46642" lon="6.75533">
        <ele>371</ele>
        <time>2015-06-24T18:03:04.000Z</time>
      </trkpt>
      <trkpt lat="47.46641" lon="6.75538">
        <ele>371</ele>
        <time>2015-06-24T18:03:05.000Z</time>
      </trkpt>
      <trkpt lat="47.4664" lon="6.75543">
        <ele>371</ele>
        <time>2015-06-24T18:03:06.000Z</time>
      </trkpt>
      <trkpt lat="47.4664" lon="6.7555">
        <ele>370</ele>
        <time>2015-06-24T18:03:07.000Z</time>
      </trkpt>
      <trkpt lat="47.4664" lon="6.75557">
        <ele>370</ele>
        <time>2015-06-24T18:03:08.000Z</time>
      </trkpt>
      <trkpt lat="47.46639" lon="6.75564">
        <ele>369</ele>
        <time>2015-06-24T18:03:09.000Z</time>
      </trkpt>
      <trkpt lat="47.46639" lon="6.7557">
        <ele>369</ele>
        <time>2015-06-24T18:03:10.000Z</time>
      </trkpt>
      <trkpt lat="47.46638" lon="6.75577">
        <ele>369</ele>
        <time>2015-06-24T18:03:11.000Z</time>
      </trkpt>
      <trkpt lat="47.46637" lon="6.75584">
        <ele>367</ele>
        <time>2015-06-24T18:03:12.000Z</time>
      </trkpt>
      <trkpt lat="47.46636" lon="6.75591">
        <ele>367</ele>
        <time>2015-06-24T18:03:13.000Z</time>
      </trkpt>
      <trkpt lat="47.46635" lon="6.75598">
        <ele>367</ele>
        <time>2015-06-24T18:03:14.000Z</time>
      </trkpt>
      <trkpt lat="47.46635" lon="6.75605">
        <ele>368</ele>
        <time>2015-06-24T18:03:15.000Z</time>
      </trkpt>
      <trkpt lat="47.46638" lon="6.7563">
        <ele>368</ele>
        <time>2015-06-24T18:03:16.000Z</time>
      </trkpt>
      <trkpt lat="47.46638" lon="6.75638">
        <ele>367</ele>
        <time>2015-06-24T18:03:17.000Z</time>
      </trkpt>
      <trkpt lat="47.46639" lon="6.75645">
        <ele>367</ele>
        <time>2015-06-24T18:03:18.000Z</time>
      </trkpt>
      <trkpt lat="47.46643" lon="6.75653">
        <ele>366</ele>
        <time>2015-06-24T18:03:19.000Z</time>
      </trkpt>
      <trkpt lat="47.46646" lon="6.75659">
        <ele>366</ele>
        <time>2015-06-24T18:03:20.000Z</time>
      </trkpt>
      <trkpt lat="47.46652" lon="6.75668">
        <ele>364</ele>
        <time>2015-06-24T18:03:21.000Z</time>
      </trkpt>
      <trkpt lat="47.46655" lon="6.75675">
        <ele>363</ele>
        <time>2015-06-24T18:03:22.000Z</time>
      </trkpt>
      <trkpt lat="47.46662" lon="6.75686">
        <ele>364</ele>
        <time>2015-06-24T18:03:23.000Z</time>
      </trkpt>
      <trkpt lat="47.46667" lon="6.75692">
        <ele>356</ele>
        <time>2015-06-24T18:03:24.000Z</time>
      </trkpt>
      <trkpt lat="47.46672" lon="6.75694">
        <ele>356</ele>
        <time>2015-06-24T18:03:25.000Z</time>
      </trkpt>
      <trkpt lat="47.46676" lon="6.75701">
        <ele>356</ele>
        <time>2015-06-24T18:03:26.000Z</time>
      </trkpt>
      <trkpt lat="47.4668" lon="6.75708">
        <ele>355</ele>
        <time>2015-06-24T18:03:27.000Z</time>
      </trkpt>
      <trkpt lat="47.46683" lon="6.75716">
        <ele>355</ele>
        <time>2015-06-24T18:03:28.000Z</time>
      </trkpt>
      <trkpt lat="47.46684" lon="6.75723">
        <ele>356</ele>
        <time>2015-06-24T18:03:29.000Z</time>
      </trkpt>
      <trkpt lat="47.46687" lon="6.75731">
        <ele>356</ele>
        <time>2015-06-24T18:03:30.000Z</time>
      </trkpt>
      <trkpt lat="47.46689" lon="6.7574">
        <ele>356</ele>
        <time>2015-06-24T18:03:31.000Z</time>
      </trkpt>
      <trkpt lat="47.46692" lon="6.75749">
        <ele>356</ele>
        <time>2015-06-24T18:03:32.000Z</time>
      </trkpt>
      <trkpt lat="47.46694" lon="6.75757">
        <ele>355</ele>
        <time>2015-06-24T18:03:33.000Z</time>
      </trkpt>
      <trkpt lat="47.46696" lon="6.75765">
        <ele>354</ele>
        <time>2015-06-24T18:03:34.000Z</time>
      </trkpt>
      <trkpt lat="47.46698" lon="6.75774">
        <ele>354</ele>
        <time>2015-06-24T18:03:35.000Z</time>
      </trkpt>
      <trkpt lat="47.467" lon="6.75783">
        <ele>354</ele>
        <time>2015-06-24T18:03:36.000Z</time>
      </trkpt>
      <trkpt lat="47.467" lon="6.75792">
        <ele>353</ele>
        <time>2015-06-24T18:03:37.000Z</time>
      </trkpt>
      <trkpt lat="47.467" lon="6.758">
        <ele>353</ele>
        <time>2015-06-24T18:03:38.000Z</time>
      </trkpt>
      <trkpt lat="47.467" lon="6.7581">
        <ele>353</ele>
        <time>2015-06-24T18:03:39.000Z</time>
      </trkpt>
      <trkpt lat="47.467" lon="6.75819">
        <ele>353</ele>
        <time>2015-06-24T18:03:40.000Z</time>
      </trkpt>
      <trkpt lat="47.46699" lon="6.75827">
        <ele>353</ele>
        <time>2015-06-24T18:03:41.000Z</time>
      </trkpt>
      <trkpt lat="47.46698" lon="6.75833">
        <ele>354</ele>
        <time>2015-06-24T18:03:42.000Z</time>
      </trkpt>
      <trkpt lat="47.46696" lon="6.75846">
        <ele>352</ele>
        <time>2015-06-24T18:03:43.000Z</time>
      </trkpt>
      <trkpt lat="47.46695" lon="6.75858">
        <ele>351</ele>
        <time>2015-06-24T18:03:44.000Z</time>
      </trkpt>
      <trkpt lat="47.46698" lon="6.75868">
        <ele>350</ele>
        <time>2015-06-24T18:03:45.000Z</time>
      </trkpt>
      <trkpt lat="47.46698" lon="6.7588">
        <ele>350</ele>
        <time>2015-06-24T18:03:46.000Z</time>
      </trkpt>
      <trkpt lat="47.46698" lon="6.75892">
        <ele>350</ele>
        <time>2015-06-24T18:03:47.000Z</time>
      </trkpt>
      <trkpt lat="47.46698" lon="6.75902">
        <ele>350</ele>
        <time>2015-06-24T18:03:48.000Z</time>
      </trkpt>
      <trkpt lat="47.46697" lon="6.7591">
        <ele>350</ele>
        <time>2015-06-24T18:03:49.000Z</time>
      </trkpt>
      <trkpt lat="47.46697" lon="6.75915">
        <ele>350</ele>
        <time>2015-06-24T18:03:50.000Z</time>
      </trkpt>
      <trkpt lat="47.46695" lon="6.7592">
        <ele>347</ele>
        <time>2015-06-24T18:03:51.000Z</time>
      </trkpt>
      <trkpt lat="47.46694" lon="6.75925">
        <ele>347</ele>
        <time>2015-06-24T18:03:52.000Z</time>
      </trkpt>
      <trkpt lat="47.46693" lon="6.75928">
        <ele>347</ele>
        <time>2015-06-24T18:03:53.000Z</time>
      </trkpt>
      <trkpt lat="47.46693" lon="6.75934">
        <ele>347</ele>
        <time>2015-06-24T18:03:54.000Z</time>
      </trkpt>
      <trkpt lat="47.46692" lon="6.75938">
        <ele>347</ele>
        <time>2015-06-24T18:03:55.000Z</time>
      </trkpt>
      <trkpt lat="47.4669" lon="6.75945">
        <ele>346</ele>
        <time>2015-06-24T18:03:56.000Z</time>
      </trkpt>
      <trkpt lat="47.46688" lon="6.75952">
        <ele>346</ele>
        <time>2015-06-24T18:03:57.000Z</time>
      </trkpt>
      <trkpt lat="47.46686" lon="6.75958">
        <ele>346</ele>
        <time>2015-06-24T18:03:58.000Z</time>
      </trkpt>
      <trkpt lat="47.46684" lon="6.75963">
        <ele>346</ele>
        <time>2015-06-24T18:03:59.000Z</time>
      </trkpt>
      <trkpt lat="47.46684" lon="6.7597">
        <ele>346</ele>
        <time>2015-06-24T18:04:00.000Z</time>
      </trkpt>
      <trkpt lat="47.46685" lon="6.75977">
        <ele>346</ele>
        <time>2015-06-24T18:04:01.000Z</time>
      </trkpt>
      <trkpt lat="47.46686" lon="6.75983">
        <ele>346</ele>
        <time>2015-06-24T18:04:02.000Z</time>
      </trkpt>
      <trkpt lat="47.46688" lon="6.75988">
        <ele>346</ele>
        <time>2015-06-24T18:04:03.000Z</time>
      </trkpt>
      <trkpt lat="47.46691" lon="6.75991">
        <ele>345</ele>
        <time>2015-06-24T18:04:06.000Z</time>
      </trkpt>
      <trkpt lat="47.46692" lon="6.75992">
        <ele>345</ele>
        <time>2015-06-24T18:04:07.000Z</time>
      </trkpt>
      <trkpt lat="47.46694" lon="6.75995">
        <ele>345</ele>
        <time>2015-06-24T18:04:12.000Z</time>
      </trkpt>
      <trkpt lat="47.46695" lon="6.75997">
        <ele>345</ele>
        <time>2015-06-24T18:04:13.000Z</time>
      </trkpt>
      <trkpt lat="47.46699" lon="6.76">
        <ele>345</ele>
        <time>2015-06-24T18:04:15.000Z</time>
      </trkpt>
      <trkpt lat="47.46701" lon="6.76001">
        <ele>340</ele>
        <time>2015-06-24T18:04:16.000Z</time>
      </trkpt>
      <trkpt lat="47.46703" lon="6.76002">
        <ele>340</ele>
        <time>2015-06-24T18:04:17.000Z</time>
      </trkpt>
      <trkpt lat="47.46705" lon="6.76003">
        <ele>340</ele>
        <time>2015-06-24T18:04:18.000Z</time>
      </trkpt>
      <trkpt lat="47.46708" lon="6.76002">
        <ele>339</ele>
        <time>2015-06-24T18:04:19.000Z</time>
      </trkpt>
      <trkpt lat="47.46712" lon="6.76002">
        <ele>339</ele>
        <time>2015-06-24T18:04:20.000Z</time>
      </trkpt>
      <trkpt lat="47.46717" lon="6.76003">
        <ele>338</ele>
        <time>2015-06-24T18:04:21.000Z</time>
      </trkpt>
      <trkpt lat="47.46722" lon="6.76003">
        <ele>338</ele>
        <time>2015-06-24T18:04:22.000Z</time>
      </trkpt>
      <trkpt lat="47.46732" lon="6.76005">
        <ele>337</ele>
        <time>2015-06-24T18:04:23.000Z</time>
      </trkpt>
      <trkpt lat="47.46738" lon="6.76005">
        <ele>336</ele>
        <time>2015-06-24T18:04:24.000Z</time>
      </trkpt>
      <trkpt lat="47.46744" lon="6.76007">
        <ele>336</ele>
        <time>2015-06-24T18:04:25.000Z</time>
      </trkpt>
      <trkpt lat="47.46749" lon="6.7601">
        <ele>336</ele>
        <time>2015-06-24T18:04:26.000Z</time>
      </trkpt>
      <trkpt lat="47.46753" lon="6.76015">
        <ele>333</ele>
        <time>2015-06-24T18:04:27.000Z</time>
      </trkpt>
      <trkpt lat="47.46757" lon="6.7602">
        <ele>333</ele>
        <time>2015-06-24T18:04:28.000Z</time>
      </trkpt>
      <trkpt lat="47.46762" lon="6.76026">
        <ele>332</ele>
        <time>2015-06-24T18:04:29.000Z</time>
      </trkpt>
      <trkpt lat="47.46768" lon="6.76033">
        <ele>332</ele>
        <time>2015-06-24T18:04:30.000Z</time>
      </trkpt>
      <trkpt lat="47.46774" lon="6.76035">
        <ele>331</ele>
        <time>2015-06-24T18:04:31.000Z</time>
      </trkpt>
      <trkpt lat="47.4678" lon="6.76038">
        <ele>331</ele>
        <time>2015-06-24T18:04:32.000Z</time>
      </trkpt>
      <trkpt lat="47.46785" lon="6.7604">
        <ele>331</ele>
        <time>2015-06-24T18:04:33.000Z</time>
      </trkpt>
      <trkpt lat="47.4679" lon="6.76036">
        <ele>331</ele>
        <time>2015-06-24T18:04:34.000Z</time>
      </trkpt>
      <trkpt lat="47.46794" lon="6.76033">
        <ele>331</ele>
        <time>2015-06-24T18:04:35.000Z</time>
      </trkpt>
      <trkpt lat="47.46798" lon="6.7603">
        <ele>331</ele>
        <time>2015-06-24T18:04:36.000Z</time>
      </trkpt>
      <trkpt lat="47.46801" lon="6.76028">
        <ele>331</ele>
        <time>2015-06-24T18:04:37.000Z</time>
      </trkpt>
      <trkpt lat="47.46803" lon="6.76026">
        <ele>331</ele>
        <time>2015-06-24T18:04:38.000Z</time>
      </trkpt>
      <trkpt lat="47.46807" lon="6.76027">
        <ele>331</ele>
        <time>2015-06-24T18:04:40.000Z</time>
      </trkpt>
      <trkpt lat="47.4681" lon="6.76027">
        <ele>331</ele>
        <time>2015-06-24T18:04:41.000Z</time>
      </trkpt>
      <trkpt lat="47.46815" lon="6.76025">
        <ele>331</ele>
        <time>2015-06-24T18:04:42.000Z</time>
      </trkpt>
      <trkpt lat="47.46818" lon="6.76024">
        <ele>331</ele>
        <time>2015-06-24T18:04:43.000Z</time>
      </trkpt>
      <trkpt lat="47.46821" lon="6.76023">
        <ele>331</ele>
        <time>2015-06-24T18:04:44.000Z</time>
      </trkpt>
      <trkpt lat="47.46824" lon="6.76022">
        <ele>331</ele>
        <time>2015-06-24T18:04:45.000Z</time>
      </trkpt>
      <trkpt lat="47.46828" lon="6.76021">
        <ele>331</ele>
        <time>2015-06-24T18:04:46.000Z</time>
      </trkpt>
      <trkpt lat="47.46831" lon="6.7602">
        <ele>332</ele>
        <time>2015-06-24T18:04:47.000Z</time>
      </trkpt>
      <trkpt lat="47.46834" lon="6.76019">
        <ele>332</ele>
        <time>2015-06-24T18:04:48.000Z</time>
      </trkpt>
      <trkpt lat="47.46837" lon="6.76017">
        <ele>332</ele>
        <time>2015-06-24T18:04:49.000Z</time>
      </trkpt>
      <trkpt lat="47.46841" lon="6.76015">
        <ele>332</ele>
        <time>2015-06-24T18:04:50.000Z</time>
      </trkpt>
      <trkpt lat="47.46845" lon="6.76012">
        <ele>332</ele>
        <time>2015-06-24T18:04:51.000Z</time>
      </trkpt>
      <trkpt lat="47.46849" lon="6.76011">
        <ele>332</ele>
        <time>2015-06-24T18:04:52.000Z</time>
      </trkpt>
      <trkpt lat="47.46853" lon="6.7601">
        <ele>332</ele>
        <time>2015-06-24T18:04:53.000Z</time>
      </trkpt>
      <trkpt lat="47.46857" lon="6.7601">
        <ele>332</ele>
        <time>2015-06-24T18:04:54.000Z</time>
      </trkpt>
      <trkpt lat="47.46861" lon="6.76012">
        <ele>332</ele>
        <time>2015-06-24T18:04:55.000Z</time>
      </trkpt>
      <trkpt lat="47.46865" lon="6.76013">
        <ele>332</ele>
        <time>2015-06-24T18:04:56.000Z</time>
      </trkpt>
      <trkpt lat="47.46869" lon="6.76015">
        <ele>332</ele>
        <time>2015-06-24T18:04:57.000Z</time>
      </trkpt>
      <trkpt lat="47.46873" lon="6.76017">
        <ele>332</ele>
        <time>2015-06-24T18:04:58.000Z</time>
      </trkpt>
      <trkpt lat="47.46877" lon="6.76019">
        <ele>332</ele>
        <time>2015-06-24T18:04:59.000Z</time>
      </trkpt>
      <trkpt lat="47.46881" lon="6.7602">
        <ele>332</ele>
        <time>2015-06-24T18:05:00.000Z</time>
      </trkpt>
      <trkpt lat="47.46884" lon="6.76022">
        <ele>332</ele>
        <time>2015-06-24T18:05:01.000Z</time>
      </trkpt>
      <trkpt lat="47.46887" lon="6.76024">
        <ele>332</ele>
        <time>2015-06-24T18:05:02.000Z</time>
      </trkpt>
      <trkpt lat="47.4689" lon="6.76026">
        <ele>332</ele>
        <time>2015-06-24T18:05:03.000Z</time>
      </trkpt>
      <trkpt lat="47.46893" lon="6.76028">
        <ele>332</ele>
        <time>2015-06-24T18:05:04.000Z</time>
      </trkpt>
      <trkpt lat="47.46895" lon="6.76029">
        <ele>332</ele>
        <time>2015-06-24T18:05:05.000Z</time>
      </trkpt>
      <trkpt lat="47.46898" lon="6.76031">
        <ele>332</ele>
        <time>2015-06-24T18:05:06.000Z</time>
      </trkpt>
      <trkpt lat="47.469" lon="6.76033">
        <ele>332</ele>
        <time>2015-06-24T18:05:07.000Z</time>
      </trkpt>
      <trkpt lat="47.46903" lon="6.76035">
        <ele>332</ele>
        <time>2015-06-24T18:05:08.000Z</time>
      </trkpt>
      <trkpt lat="47.46905" lon="6.76037">
        <ele>332</ele>
        <time>2015-06-24T18:05:09.000Z</time>
      </trkpt>
      <trkpt lat="47.46907" lon="6.76039">
        <ele>332</ele>
        <time>2015-06-24T18:05:10.000Z</time>
      </trkpt>
      <trkpt lat="47.4691" lon="6.76042">
        <ele>332</ele>
        <time>2015-06-24T18:05:11.000Z</time>
      </trkpt>
      <trkpt lat="47.46913" lon="6.76045">
        <ele>331</ele>
        <time>2015-06-24T18:05:12.000Z</time>
      </trkpt>
      <trkpt lat="47.46916" lon="6.76048">
        <ele>331</ele>
        <time>2015-06-24T18:05:13.000Z</time>
      </trkpt>
      <trkpt lat="47.4692" lon="6.76051">
        <ele>333</ele>
        <time>2015-06-24T18:05:14.000Z</time>
      </trkpt>
      <trkpt lat="47.46924" lon="6.76053">
        <ele>333</ele>
        <time>2015-06-24T18:05:15.000Z</time>
      </trkpt>
      <trkpt lat="47.46929" lon="6.76055">
        <ele>333</ele>
        <time>2015-06-24T18:05:16.000Z</time>
      </trkpt>
      <trkpt lat="47.46933" lon="6.76057">
        <ele>333</ele>
        <time>2015-06-24T18:05:17.000Z</time>
      </trkpt>
      <trkpt lat="47.46937" lon="6.76059">
        <ele>333</ele>
        <time>2015-06-24T18:05:18.000Z</time>
      </trkpt>
      <trkpt lat="47.46942" lon="6.76061">
        <ele>333</ele>
        <time>2015-06-24T18:05:19.000Z</time>
      </trkpt>
      <trkpt lat="47.46946" lon="6.76063">
        <ele>333</ele>
        <time>2015-06-24T18:05:20.000Z</time>
      </trkpt>
      <trkpt lat="47.4695" lon="6.76065">
        <ele>333</ele>
        <time>2015-06-24T18:05:21.000Z</time>
      </trkpt>
      <trkpt lat="47.46954" lon="6.76067">
        <ele>334</ele>
        <time>2015-06-24T18:05:22.000Z</time>
      </trkpt>
      <trkpt lat="47.46958" lon="6.76068">
        <ele>334</ele>
        <time>2015-06-24T18:05:23.000Z</time>
      </trkpt>
      <trkpt lat="47.46962" lon="6.7607">
        <ele>334</ele>
        <time>2015-06-24T18:05:24.000Z</time>
      </trkpt>
      <trkpt lat="47.46966" lon="6.76072">
        <ele>334</ele>
        <time>2015-06-24T18:05:25.000Z</time>
      </trkpt>
      <trkpt lat="47.4697" lon="6.76074">
        <ele>334</ele>
        <time>2015-06-24T18:05:26.000Z</time>
      </trkpt>
      <trkpt lat="47.46973" lon="6.76075">
        <ele>334</ele>
        <time>2015-06-24T18:05:27.000Z</time>
      </trkpt>
      <trkpt lat="47.46977" lon="6.76078">
        <ele>334</ele>
        <time>2015-06-24T18:05:28.000Z</time>
      </trkpt>
      <trkpt lat="47.4698" lon="6.7608">
        <ele>334</ele>
        <time>2015-06-24T18:05:29.000Z</time>
      </trkpt>
      <trkpt lat="47.46983" lon="6.76082">
        <ele>334</ele>
        <time>2015-06-24T18:05:30.000Z</time>
      </trkpt>
      <trkpt lat="47.46987" lon="6.76084">
        <ele>332</ele>
        <time>2015-06-24T18:05:31.000Z</time>
      </trkpt>
      <trkpt lat="47.4699" lon="6.76085">
        <ele>332</ele>
        <time>2015-06-24T18:05:32.000Z</time>
      </trkpt>
      <trkpt lat="47.46993" lon="6.76087">
        <ele>332</ele>
        <time>2015-06-24T18:05:33.000Z</time>
      </trkpt>
      <trkpt lat="47.46996" lon="6.76089">
        <ele>333</ele>
        <time>2015-06-24T18:05:34.000Z</time>
      </trkpt>
      <trkpt lat="47.46999" lon="6.76091">
        <ele>332</ele>
        <time>2015-06-24T18:05:35.000Z</time>
      </trkpt>
      <trkpt lat="47.47003" lon="6.76093">
        <ele>333</ele>
        <time>2015-06-24T18:05:36.000Z</time>
      </trkpt>
      <trkpt lat="47.47006" lon="6.76095">
        <ele>332</ele>
        <time>2015-06-24T18:05:37.000Z</time>
      </trkpt>
      <trkpt lat="47.4701" lon="6.76097">
        <ele>332</ele>
        <time>2015-06-24T18:05:38.000Z</time>
      </trkpt>
      <trkpt lat="47.47015" lon="6.761">
        <ele>332</ele>
        <time>2015-06-24T18:05:39.000Z</time>
      </trkpt>
      <trkpt lat="47.47019" lon="6.76102">
        <ele>332</ele>
        <time>2015-06-24T18:05:40.000Z</time>
      </trkpt>
      <trkpt lat="47.47023" lon="6.76104">
        <ele>331</ele>
        <time>2015-06-24T18:05:41.000Z</time>
      </trkpt>
      <trkpt lat="47.47027" lon="6.76106">
        <ele>331</ele>
        <time>2015-06-24T18:05:42.000Z</time>
      </trkpt>
      <trkpt lat="47.47031" lon="6.76108">
        <ele>331</ele>
        <time>2015-06-24T18:05:43.000Z</time>
      </trkpt>
      <trkpt lat="47.47035" lon="6.7611">
        <ele>331</ele>
        <time>2015-06-24T18:05:44.000Z</time>
      </trkpt>
      <trkpt lat="47.47039" lon="6.76112">
        <ele>331</ele>
        <time>2015-06-24T18:05:45.000Z</time>
      </trkpt>
      <trkpt lat="47.47044" lon="6.76114">
        <ele>331</ele>
        <time>2015-06-24T18:05:46.000Z</time>
      </trkpt>
      <trkpt lat="47.47049" lon="6.76116">
        <ele>331</ele>
        <time>2015-06-24T18:05:47.000Z</time>
      </trkpt>
      <trkpt lat="47.47052" lon="6.76118">
        <ele>331</ele>
        <time>2015-06-24T18:05:48.000Z</time>
      </trkpt>
      <trkpt lat="47.47056" lon="6.76119">
        <ele>331</ele>
        <time>2015-06-24T18:05:49.000Z</time>
      </trkpt>
      <trkpt lat="47.4706" lon="6.76121">
        <ele>331</ele>
        <time>2015-06-24T18:05:50.000Z</time>
      </trkpt>
      <trkpt lat="47.47064" lon="6.76123">
        <ele>331</ele>
        <time>2015-06-24T18:05:51.000Z</time>
      </trkpt>
      <trkpt lat="47.47068" lon="6.76125">
        <ele>331</ele>
        <time>2015-06-24T18:05:52.000Z</time>
      </trkpt>
      <trkpt lat="47.47071" lon="6.76126">
        <ele>331</ele>
        <time>2015-06-24T18:05:53.000Z</time>
      </trkpt>
      <trkpt lat="47.47075" lon="6.76128">
        <ele>331</ele>
        <time>2015-06-24T18:05:54.000Z</time>
      </trkpt>
      <trkpt lat="47.47078" lon="6.76129">
        <ele>330</ele>
        <time>2015-06-24T18:05:55.000Z</time>
      </trkpt>
      <trkpt lat="47.47081" lon="6.7613">
        <ele>330</ele>
        <time>2015-06-24T18:05:56.000Z</time>
      </trkpt>
      <trkpt lat="47.47084" lon="6.76132">
        <ele>332</ele>
        <time>2015-06-24T18:05:57.000Z</time>
      </trkpt>
      <trkpt lat="47.47087" lon="6.76134">
        <ele>331</ele>
        <time>2015-06-24T18:05:58.000Z</time>
      </trkpt>
      <trkpt lat="47.47089" lon="6.76136">
        <ele>331</ele>
        <time>2015-06-24T18:05:59.000Z</time>
      </trkpt>
      <trkpt lat="47.47092" lon="6.7614">
        <ele>331</ele>
        <time>2015-06-24T18:06:00.000Z</time>
      </trkpt>
      <trkpt lat="47.47095" lon="6.76144">
        <ele>331</ele>
        <time>2015-06-24T18:06:01.000Z</time>
      </trkpt>
      <trkpt lat="47.471" lon="6.76148">
        <ele>331</ele>
        <time>2015-06-24T18:06:02.000Z</time>
      </trkpt>
      <trkpt lat="47.47105" lon="6.7615">
        <ele>331</ele>
        <time>2015-06-24T18:06:03.000Z</time>
      </trkpt>
      <trkpt lat="47.4711" lon="6.76153">
        <ele>331</ele>
        <time>2015-06-24T18:06:04.000Z</time>
      </trkpt>
      <trkpt lat="47.47115" lon="6.76156">
        <ele>331</ele>
        <time>2015-06-24T18:06:05.000Z</time>
      </trkpt>
      <trkpt lat="47.4712" lon="6.7616">
        <ele>331</ele>
        <time>2015-06-24T18:06:06.000Z</time>
      </trkpt>
      <trkpt lat="47.47126" lon="6.76165">
        <ele>332</ele>
        <time>2015-06-24T18:06:07.000Z</time>
      </trkpt>
      <trkpt lat="47.47131" lon="6.76168">
        <ele>328</ele>
        <time>2015-06-24T18:06:08.000Z</time>
      </trkpt>
      <trkpt lat="47.47135" lon="6.76176">
        <ele>328</ele>
        <time>2015-06-24T18:06:09.000Z</time>
      </trkpt>
      <trkpt lat="47.47138" lon="6.76183">
        <ele>328</ele>
        <time>2015-06-24T18:06:10.000Z</time>
      </trkpt>
      <trkpt lat="47.4714" lon="6.76192">
        <ele>328</ele>
        <time>2015-06-24T18:06:11.000Z</time>
      </trkpt>
      <trkpt lat="47.47143" lon="6.76201">
        <ele>327</ele>
        <time>2015-06-24T18:06:12.000Z</time>
      </trkpt>
      <trkpt lat="47.47145" lon="6.76209">
        <ele>327</ele>
        <time>2015-06-24T18:06:13.000Z</time>
      </trkpt>
      <trkpt lat="47.47148" lon="6.76217">
        <ele>327</ele>
        <time>2015-06-24T18:06:14.000Z</time>
      </trkpt>
      <trkpt lat="47.47152" lon="6.76222">
        <ele>327</ele>
        <time>2015-06-24T18:06:15.000Z</time>
      </trkpt>
      <trkpt lat="47.47157" lon="6.76227">
        <ele>327</ele>
        <time>2015-06-24T18:06:16.000Z</time>
      </trkpt>
      <trkpt lat="47.47161" lon="6.76231">
        <ele>326</ele>
        <time>2015-06-24T18:06:17.000Z</time>
      </trkpt>
      <trkpt lat="47.47164" lon="6.76235">
        <ele>326</ele>
        <time>2015-06-24T18:06:18.000Z</time>
      </trkpt>
      <trkpt lat="47.47168" lon="6.76239">
        <ele>328</ele>
        <time>2015-06-24T18:06:19.000Z</time>
      </trkpt>
      <trkpt lat="47.47172" lon="6.76242">
        <ele>328</ele>
        <time>2015-06-24T18:06:20.000Z</time>
      </trkpt>
      <trkpt lat="47.47176" lon="6.76245">
        <ele>328</ele>
        <time>2015-06-24T18:06:21.000Z</time>
      </trkpt>
      <trkpt lat="47.47179" lon="6.76247">
        <ele>328</ele>
        <time>2015-06-24T18:06:22.000Z</time>
      </trkpt>
      <trkpt lat="47.47183" lon="6.7625">
        <ele>328</ele>
        <time>2015-06-24T18:06:23.000Z</time>
      </trkpt>
      <trkpt lat="47.47187" lon="6.76252">
        <ele>325</ele>
        <time>2015-06-24T18:06:24.000Z</time>
      </trkpt>
      <trkpt lat="47.4719" lon="6.76254">
        <ele>325</ele>
        <time>2015-06-24T18:06:25.000Z</time>
      </trkpt>
      <trkpt lat="47.47194" lon="6.76257">
        <ele>325</ele>
        <time>2015-06-24T18:06:26.000Z</time>
      </trkpt>
      <trkpt lat="47.47197" lon="6.76259">
        <ele>325</ele>
        <time>2015-06-24T18:06:27.000Z</time>
      </trkpt>
      <trkpt lat="47.47201" lon="6.76262">
        <ele>325</ele>
        <time>2015-06-24T18:06:28.000Z</time>
      </trkpt>
      <trkpt lat="47.47204" lon="6.76265">
        <ele>325</ele>
        <time>2015-06-24T18:06:29.000Z</time>
      </trkpt>
      <trkpt lat="47.47208" lon="6.76267">
        <ele>325</ele>
        <time>2015-06-24T18:06:30.000Z</time>
      </trkpt>
      <trkpt lat="47.47211" lon="6.7627">
        <ele>325</ele>
        <time>2015-06-24T18:06:31.000Z</time>
      </trkpt>
      <trkpt lat="47.47215" lon="6.76272">
        <ele>325</ele>
        <time>2015-06-24T18:06:32.000Z</time>
      </trkpt>
      <trkpt lat="47.47218" lon="6.76275">
        <ele>325</ele>
        <time>2015-06-24T18:06:33.000Z</time>
      </trkpt>
      <trkpt lat="47.47222" lon="6.76278">
        <ele>325</ele>
        <time>2015-06-24T18:06:34.000Z</time>
      </trkpt>
      <trkpt lat="47.47226" lon="6.76281">
        <ele>325</ele>
        <time>2015-06-24T18:06:35.000Z</time>
      </trkpt>
      <trkpt lat="47.47229" lon="6.76284">
        <ele>325</ele>
        <time>2015-06-24T18:06:36.000Z</time>
      </trkpt>
      <trkpt lat="47.47233" lon="6.76287">
        <ele>324</ele>
        <time>2015-06-24T18:06:37.000Z</time>
      </trkpt>
      <trkpt lat="47.47237" lon="6.76289">
        <ele>324</ele>
        <time>2015-06-24T18:06:38.000Z</time>
      </trkpt>
      <trkpt lat="47.47241" lon="6.76292">
        <ele>324</ele>
        <time>2015-06-24T18:06:39.000Z</time>
      </trkpt>
      <trkpt lat="47.47245" lon="6.76294">
        <ele>324</ele>
        <time>2015-06-24T18:06:40.000Z</time>
      </trkpt>
      <trkpt lat="47.47249" lon="6.76296">
        <ele>324</ele>
        <time>2015-06-24T18:06:41.000Z</time>
      </trkpt>
      <trkpt lat="47.47253" lon="6.76298">
        <ele>325</ele>
        <time>2015-06-24T18:06:42.000Z</time>
      </trkpt>
      <trkpt lat="47.47257" lon="6.763">
        <ele>325</ele>
        <time>2015-06-24T18:06:43.000Z</time>
      </trkpt>
      <trkpt lat="47.47261" lon="6.76303">
        <ele>324</ele>
        <time>2015-06-24T18:06:44.000Z</time>
      </trkpt>
      <trkpt lat="47.47265" lon="6.76305">
        <ele>324</ele>
        <time>2015-06-24T18:06:45.000Z</time>
      </trkpt>
      <trkpt lat="47.4727" lon="6.76308">
        <ele>324</ele>
        <time>2015-06-24T18:06:46.000Z</time>
      </trkpt>
      <trkpt lat="47.47274" lon="6.7631">
        <ele>324</ele>
        <time>2015-06-24T18:06:47.000Z</time>
      </trkpt>
      <trkpt lat="47.47279" lon="6.76313">
        <ele>324</ele>
        <time>2015-06-24T18:06:48.000Z</time>
      </trkpt>
      <trkpt lat="47.47284" lon="6.76316">
        <ele>324</ele>
        <time>2015-06-24T18:06:49.000Z</time>
      </trkpt>
      <trkpt lat="47.47289" lon="6.76318">
        <ele>324</ele>
        <time>2015-06-24T18:06:50.000Z</time>
      </trkpt>
      <trkpt lat="47.47294" lon="6.76321">
        <ele>324</ele>
        <time>2015-06-24T18:06:51.000Z</time>
      </trkpt>
      <trkpt lat="47.47299" lon="6.76324">
        <ele>324</ele>
        <time>2015-06-24T18:06:52.000Z</time>
      </trkpt>
      <trkpt lat="47.47304" lon="6.76327">
        <ele>324</ele>
        <time>2015-06-24T18:06:53.000Z</time>
      </trkpt>
      <trkpt lat="47.47309" lon="6.7633">
        <ele>324</ele>
        <time>2015-06-24T18:06:54.000Z</time>
      </trkpt>
      <trkpt lat="47.47314" lon="6.76333">
        <ele>324</ele>
        <time>2015-06-24T18:06:55.000Z</time>
      </trkpt>
      <trkpt lat="47.4732" lon="6.76335">
        <ele>321</ele>
        <time>2015-06-24T18:06:56.000Z</time>
      </trkpt>
      <trkpt lat="47.47326" lon="6.76338">
        <ele>321</ele>
        <time>2015-06-24T18:06:57.000Z</time>
      </trkpt>
      <trkpt lat="47.47331" lon="6.76343">
        <ele>321</ele>
        <time>2015-06-24T18:06:58.000Z</time>
      </trkpt>
      <trkpt lat="47.47337" lon="6.76348">
        <ele>320</ele>
        <time>2015-06-24T18:06:59.000Z</time>
      </trkpt>
      <trkpt lat="47.47342" lon="6.76354">
        <ele>320</ele>
        <time>2015-06-24T18:07:00.000Z</time>
      </trkpt>
      <trkpt lat="47.47347" lon="6.76359">
        <ele>319</ele>
        <time>2015-06-24T18:07:01.000Z</time>
      </trkpt>
      <trkpt lat="47.47351" lon="6.76367">
        <ele>319</ele>
        <time>2015-06-24T18:07:02.000Z</time>
      </trkpt>
      <trkpt lat="47.47355" lon="6.76375">
        <ele>318</ele>
        <time>2015-06-24T18:07:03.000Z</time>
      </trkpt>
      <trkpt lat="47.4736" lon="6.76382">
        <ele>318</ele>
        <time>2015-06-24T18:07:04.000Z</time>
      </trkpt>
      <trkpt lat="47.47365" lon="6.76389">
        <ele>318</ele>
        <time>2015-06-24T18:07:05.000Z</time>
      </trkpt>
      <trkpt lat="47.4737" lon="6.76395">
        <ele>317</ele>
        <time>2015-06-24T18:07:06.000Z</time>
      </trkpt>
      <trkpt lat="47.47376" lon="6.764">
        <ele>317</ele>
        <time>2015-06-24T18:07:07.000Z</time>
      </trkpt>
      <trkpt lat="47.47382" lon="6.76407">
        <ele>317</ele>
        <time>2015-06-24T18:07:08.000Z</time>
      </trkpt>
      <trkpt lat="47.47389" lon="6.76413">
        <ele>316</ele>
        <time>2015-06-24T18:07:09.000Z</time>
      </trkpt>
      <trkpt lat="47.47395" lon="6.76419">
        <ele>314</ele>
        <time>2015-06-24T18:07:10.000Z</time>
      </trkpt>
      <trkpt lat="47.47401" lon="6.76426">
        <ele>314</ele>
        <time>2015-06-24T18:07:11.000Z</time>
      </trkpt>
      <trkpt lat="47.47407" lon="6.76432">
        <ele>313</ele>
        <time>2015-06-24T18:07:12.000Z</time>
      </trkpt>
      <trkpt lat="47.47412" lon="6.76437">
        <ele>313</ele>
        <time>2015-06-24T18:07:13.000Z</time>
      </trkpt>
      <trkpt lat="47.47417" lon="6.76442">
        <ele>311</ele>
        <time>2015-06-24T18:07:14.000Z</time>
      </trkpt>
      <trkpt lat="47.47421" lon="6.76447">
        <ele>311</ele>
        <time>2015-06-24T18:07:15.000Z</time>
      </trkpt>
      <trkpt lat="47.47424" lon="6.76451">
        <ele>311</ele>
        <time>2015-06-24T18:07:16.000Z</time>
      </trkpt>
      <trkpt lat="47.47427" lon="6.76454">
        <ele>311</ele>
        <time>2015-06-24T18:07:17.000Z</time>
      </trkpt>
      <trkpt lat="47.47431" lon="6.76455">
        <ele>311</ele>
        <time>2015-06-24T18:07:21.000Z</time>
      </trkpt>
      <trkpt lat="47.47435" lon="6.76455">
        <ele>311</ele>
        <time>2015-06-24T18:07:22.000Z</time>
      </trkpt>
      <trkpt lat="47.47437" lon="6.76455">
        <ele>311</ele>
        <time>2015-06-24T18:07:23.000Z</time>
      </trkpt>
      <trkpt lat="47.47441" lon="6.76454">
        <ele>311</ele>
        <time>2015-06-24T18:07:24.000Z</time>
      </trkpt>
      <trkpt lat="47.47444" lon="6.76452">
        <ele>311</ele>
        <time>2015-06-24T18:07:25.000Z</time>
      </trkpt>
      <trkpt lat="47.47448" lon="6.76449">
        <ele>311</ele>
        <time>2015-06-24T18:07:26.000Z</time>
      </trkpt>
      <trkpt lat="47.47452" lon="6.76447">
        <ele>311</ele>
        <time>2015-06-24T18:07:27.000Z</time>
      </trkpt>
      <trkpt lat="47.47457" lon="6.76444">
        <ele>311</ele>
        <time>2015-06-24T18:07:28.000Z</time>
      </trkpt>
      <trkpt lat="47.47461" lon="6.76442">
        <ele>311</ele>
        <time>2015-06-24T18:07:29.000Z</time>
      </trkpt>
      <trkpt lat="47.47465" lon="6.76441">
        <ele>310</ele>
        <time>2015-06-24T18:07:30.000Z</time>
      </trkpt>
      <trkpt lat="47.47472" lon="6.7645">
        <ele>310</ele>
        <time>2015-06-24T18:07:31.000Z</time>
      </trkpt>
      <trkpt lat="47.47475" lon="6.76451">
        <ele>310</ele>
        <time>2015-06-24T18:07:32.000Z</time>
      </trkpt>
      <trkpt lat="47.47478" lon="6.76454">
        <ele>310</ele>
        <time>2015-06-24T18:07:33.000Z</time>
      </trkpt>
      <trkpt lat="47.4748" lon="6.76454">
        <ele>310</ele>
        <time>2015-06-24T18:07:34.000Z</time>
      </trkpt>
      <trkpt lat="47.47483" lon="6.76458">
        <ele>310</ele>
        <time>2015-06-24T18:07:35.000Z</time>
      </trkpt>
      <trkpt lat="47.47486" lon="6.76461">
        <ele>310</ele>
        <time>2015-06-24T18:07:36.000Z</time>
      </trkpt>
      <trkpt lat="47.47492" lon="6.76466">
        <ele>310</ele>
        <time>2015-06-24T18:07:37.000Z</time>
      </trkpt>
      <trkpt lat="47.47498" lon="6.76461">
        <ele>310</ele>
        <time>2015-06-24T18:07:38.000Z</time>
      </trkpt>
      <trkpt lat="47.47501" lon="6.76458">
        <ele>309</ele>
        <time>2015-06-24T18:07:39.000Z</time>
      </trkpt>
      <trkpt lat="47.47505" lon="6.76455">
        <ele>309</ele>
        <time>2015-06-24T18:07:40.000Z</time>
      </trkpt>
      <trkpt lat="47.47508" lon="6.76453">
        <ele>309</ele>
        <time>2015-06-24T18:07:41.000Z</time>
      </trkpt>
      <trkpt lat="47.47511" lon="6.76451">
        <ele>309</ele>
        <time>2015-06-24T18:07:42.000Z</time>
      </trkpt>
      <trkpt lat="47.47514" lon="6.76449">
        <ele>309</ele>
        <time>2015-06-24T18:07:43.000Z</time>
      </trkpt>
      <trkpt lat="47.47516" lon="6.76446">
        <ele>309</ele>
        <time>2015-06-24T18:07:44.100Z</time>
      </trkpt>
      <trkpt lat="47.47518" lon="6.76442">
        <ele>309</ele>
        <time>2015-06-24T18:07:45.000Z</time>
      </trkpt>
      <trkpt lat="47.47521" lon="6.76435">
        <ele>309</ele>
        <time>2015-06-24T18:07:46.000Z</time>
      </trkpt>
      <trkpt lat="47.47524" lon="6.76428">
        <ele>309</ele>
        <time>2015-06-24T18:07:47.000Z</time>
      </trkpt>
      <trkpt lat="47.47527" lon="6.76422">
        <ele>309</ele>
        <time>2015-06-24T18:07:48.000Z</time>
      </trkpt>
      <trkpt lat="47.4753" lon="6.76417">
        <ele>309</ele>
        <time>2015-06-24T18:07:49.000Z</time>
      </trkpt>
      <trkpt lat="47.47533" lon="6.76412">
        <ele>309</ele>
        <time>2015-06-24T18:07:50.000Z</time>
      </trkpt>
      <trkpt lat="47.47536" lon="6.76411">
        <ele>310</ele>
        <time>2015-06-24T18:07:51.000Z</time>
      </trkpt>
      <trkpt lat="47.47538" lon="6.76406">
        <ele>310</ele>
        <time>2015-06-24T18:07:52.000Z</time>
      </trkpt>
      <trkpt lat="47.47542" lon="6.76403">
        <ele>310</ele>
        <time>2015-06-24T18:07:53.000Z</time>
      </trkpt>
      <trkpt lat="47.47546" lon="6.76396">
        <ele>310</ele>
        <time>2015-06-24T18:07:54.000Z</time>
      </trkpt>
      <trkpt lat="47.47546" lon="6.76391">
        <ele>310</ele>
        <time>2015-06-24T18:07:55.000Z</time>
      </trkpt>
      <trkpt lat="47.4755" lon="6.76385">
        <ele>310</ele>
        <time>2015-06-24T18:07:56.000Z</time>
      </trkpt>
      <trkpt lat="47.47552" lon="6.7638">
        <ele>310</ele>
        <time>2015-06-24T18:07:57.000Z</time>
      </trkpt>
      <trkpt lat="47.47553" lon="6.76375">
        <ele>310</ele>
        <time>2015-06-24T18:07:58.000Z</time>
      </trkpt>
      <trkpt lat="47.47556" lon="6.7637">
        <ele>310</ele>
        <time>2015-06-24T18:07:59.000Z</time>
      </trkpt>
      <trkpt lat="47.47561" lon="6.76364">
        <ele>310</ele>
        <time>2015-06-24T18:08:00.000Z</time>
      </trkpt>
      <trkpt lat="47.47565" lon="6.76358">
        <ele>310</ele>
        <time>2015-06-24T18:08:01.000Z</time>
      </trkpt>
      <trkpt lat="47.47568" lon="6.76353">
        <ele>311</ele>
        <time>2015-06-24T18:08:02.000Z</time>
      </trkpt>
      <trkpt lat="47.47572" lon="6.76349">
        <ele>311</ele>
        <time>2015-06-24T18:08:03.000Z</time>
      </trkpt>
      <trkpt lat="47.47574" lon="6.76341">
        <ele>311</ele>
        <time>2015-06-24T18:08:04.000Z</time>
      </trkpt>
      <trkpt lat="47.47577" lon="6.76335">
        <ele>312</ele>
        <time>2015-06-24T18:08:05.000Z</time>
      </trkpt>
      <trkpt lat="47.47581" lon="6.76329">
        <ele>312</ele>
        <time>2015-06-24T18:08:06.000Z</time>
      </trkpt>
      <trkpt lat="47.47584" lon="6.76321">
        <ele>311</ele>
        <time>2015-06-24T18:08:07.000Z</time>
      </trkpt>
      <trkpt lat="47.47588" lon="6.76314">
        <ele>311</ele>
        <time>2015-06-24T18:08:08.000Z</time>
      </trkpt>
      <trkpt lat="47.4759" lon="6.76309">
        <ele>311</ele>
        <time>2015-06-24T18:08:09.000Z</time>
      </trkpt>
      <trkpt lat="47.47594" lon="6.76302">
        <ele>311</ele>
        <time>2015-06-24T18:08:10.000Z</time>
      </trkpt>
      <trkpt lat="47.47598" lon="6.76296">
        <ele>311</ele>
        <time>2015-06-24T18:08:11.000Z</time>
      </trkpt>
      <trkpt lat="47.47601" lon="6.76289">
        <ele>311</ele>
        <time>2015-06-24T18:08:12.000Z</time>
      </trkpt>
      <trkpt lat="47.47604" lon="6.76281">
        <ele>311</ele>
        <time>2015-06-24T18:08:13.000Z</time>
      </trkpt>
      <trkpt lat="47.47607" lon="6.76275">
        <ele>311</ele>
        <time>2015-06-24T18:08:14.000Z</time>
      </trkpt>
      <trkpt lat="47.4761" lon="6.76268">
        <ele>311</ele>
        <time>2015-06-24T18:08:15.000Z</time>
      </trkpt>
      <trkpt lat="47.47613" lon="6.76262">
        <ele>311</ele>
        <time>2015-06-24T18:08:16.000Z</time>
      </trkpt>
      <trkpt lat="47.47615" lon="6.76256">
        <ele>311</ele>
        <time>2015-06-24T18:08:17.000Z</time>
      </trkpt>
      <trkpt lat="47.47618" lon="6.7625">
        <ele>311</ele>
        <time>2015-06-24T18:08:18.000Z</time>
      </trkpt>
      <trkpt lat="47.47621" lon="6.76244">
        <ele>311</ele>
        <time>2015-06-24T18:08:19.000Z</time>
      </trkpt>
      <trkpt lat="47.47623" lon="6.76237">
        <ele>311</ele>
        <time>2015-06-24T18:08:20.000Z</time>
      </trkpt>
      <trkpt lat="47.47626" lon="6.76231">
        <ele>311</ele>
        <time>2015-06-24T18:08:21.000Z</time>
      </trkpt>
      <trkpt lat="47.47628" lon="6.76224">
        <ele>311</ele>
        <time>2015-06-24T18:08:22.000Z</time>
      </trkpt>
      <trkpt lat="47.4763" lon="6.76218">
        <ele>311</ele>
        <time>2015-06-24T18:08:23.000Z</time>
      </trkpt>
      <trkpt lat="47.47634" lon="6.76212">
        <ele>311</ele>
        <time>2015-06-24T18:08:24.000Z</time>
      </trkpt>
      <trkpt lat="47.47636" lon="6.76205">
        <ele>311</ele>
        <time>2015-06-24T18:08:25.000Z</time>
      </trkpt>
      <trkpt lat="47.47638" lon="6.76199">
        <ele>311</ele>
        <time>2015-06-24T18:08:26.000Z</time>
      </trkpt>
      <trkpt lat="47.4764" lon="6.76192">
        <ele>311</ele>
        <time>2015-06-24T18:08:27.000Z</time>
      </trkpt>
      <trkpt lat="47.47643" lon="6.76184">
        <ele>311</ele>
        <time>2015-06-24T18:08:28.000Z</time>
      </trkpt>
      <trkpt lat="47.47644" lon="6.76178">
        <ele>311</ele>
        <time>2015-06-24T18:08:29.000Z</time>
      </trkpt>
      <trkpt lat="47.47646" lon="6.7617">
        <ele>311</ele>
        <time>2015-06-24T18:08:30.000Z</time>
      </trkpt>
      <trkpt lat="47.47649" lon="6.76162">
        <ele>311</ele>
        <time>2015-06-24T18:08:31.000Z</time>
      </trkpt>
      <trkpt lat="47.47652" lon="6.76156">
        <ele>311</ele>
        <time>2015-06-24T18:08:32.000Z</time>
      </trkpt>
      <trkpt lat="47.47654" lon="6.76149">
        <ele>311</ele>
        <time>2015-06-24T18:08:33.000Z</time>
      </trkpt>
      <trkpt lat="47.47657" lon="6.7614">
        <ele>311</ele>
        <time>2015-06-24T18:08:34.000Z</time>
      </trkpt>
      <trkpt lat="47.4766" lon="6.76133">
        <ele>311</ele>
        <time>2015-06-24T18:08:35.000Z</time>
      </trkpt>
      <trkpt lat="47.47663" lon="6.76126">
        <ele>311</ele>
        <time>2015-06-24T18:08:36.000Z</time>
      </trkpt>
      <trkpt lat="47.47666" lon="6.7612">
        <ele>311</ele>
        <time>2015-06-24T18:08:37.000Z</time>
      </trkpt>
      <trkpt lat="47.47669" lon="6.76117">
        <ele>310</ele>
        <time>2015-06-24T18:08:38.000Z</time>
      </trkpt>
      <trkpt lat="47.47671" lon="6.7611">
        <ele>310</ele>
        <time>2015-06-24T18:08:39.000Z</time>
      </trkpt>
      <trkpt lat="47.47673" lon="6.76103">
        <ele>310</ele>
        <time>2015-06-24T18:08:40.000Z</time>
      </trkpt>
      <trkpt lat="47.47674" lon="6.76098">
        <ele>310</ele>
        <time>2015-06-24T18:08:41.000Z</time>
      </trkpt>
      <trkpt lat="47.47676" lon="6.76093">
        <ele>310</ele>
        <time>2015-06-24T18:08:42.000Z</time>
      </trkpt>
      <trkpt lat="47.47677" lon="6.76089">
        <ele>310</ele>
        <time>2015-06-24T18:08:43.000Z</time>
      </trkpt>
      <trkpt lat="47.47676" lon="6.76085">
        <ele>311</ele>
        <time>2015-06-24T18:08:44.000Z</time>
      </trkpt>
      <trkpt lat="47.4768" lon="6.76085">
        <ele>310</ele>
        <time>2015-06-24T18:08:48.000Z</time>
      </trkpt>
      <trkpt lat="47.47681" lon="6.76088">
        <ele>310</ele>
        <time>2015-06-24T18:08:49.000Z</time>
      </trkpt>
      <trkpt lat="47.47683" lon="6.76091">
        <ele>310</ele>
        <time>2015-06-24T18:08:50.000Z</time>
      </trkpt>
      <trkpt lat="47.47685" lon="6.76094">
        <ele>310</ele>
        <time>2015-06-24T18:08:51.000Z</time>
      </trkpt>
      <trkpt lat="47.47687" lon="6.76097">
        <ele>310</ele>
        <time>2015-06-24T18:08:52.000Z</time>
      </trkpt>
      <trkpt lat="47.47688" lon="6.761">
        <ele>310</ele>
        <time>2015-06-24T18:08:53.000Z</time>
      </trkpt>
      <trkpt lat="47.47691" lon="6.76105">
        <ele>310</ele>
        <time>2015-06-24T18:08:55.000Z</time>
      </trkpt>
      <trkpt lat="47.47692" lon="6.76107">
        <ele>310</ele>
        <time>2015-06-24T18:08:56.000Z</time>
      </trkpt>
      <trkpt lat="47.47694" lon="6.76109">
        <ele>310</ele>
        <time>2015-06-24T18:10:38.000Z</time>
      </trkpt>
      <trkpt lat="47.47696" lon="6.7611">
        <ele>310</ele>
        <time>2015-06-24T18:10:39.000Z</time>
      </trkpt>
      <trkpt lat="47.47699" lon="6.76115">
        <ele>310</ele>
        <time>2015-06-24T18:10:41.000Z</time>
      </trkpt>
      <trkpt lat="47.477" lon="6.76117">
        <ele>310</ele>
        <time>2015-06-24T18:10:42.000Z</time>
      </trkpt>
      <trkpt lat="47.47701" lon="6.7612">
        <ele>310</ele>
        <time>2015-06-24T18:10:43.000Z</time>
      </trkpt>
      <trkpt lat="47.47703" lon="6.76122">
        <ele>310</ele>
        <time>2015-06-24T18:10:44.000Z</time>
      </trkpt>
      <trkpt lat="47.47704" lon="6.76125">
        <ele>310</ele>
        <time>2015-06-24T18:10:45.000Z</time>
      </trkpt>
      <trkpt lat="47.47706" lon="6.76128">
        <ele>310</ele>
        <time>2015-06-24T18:10:46.000Z</time>
      </trkpt>
      <trkpt lat="47.47708" lon="6.76131">
        <ele>309</ele>
        <time>2015-06-24T18:10:47.000Z</time>
      </trkpt>
      <trkpt lat="47.4771" lon="6.76135">
        <ele>309</ele>
        <time>2015-06-24T18:10:48.000Z</time>
      </trkpt>
      <trkpt lat="47.47712" lon="6.76138">
        <ele>309</ele>
        <time>2015-06-24T18:10:49.000Z</time>
      </trkpt>
      <trkpt lat="47.47714" lon="6.76141">
        <ele>309</ele>
        <time>2015-06-24T18:10:50.000Z</time>
      </trkpt>
      <trkpt lat="47.47717" lon="6.76145">
        <ele>309</ele>
        <time>2015-06-24T18:10:51.000Z</time>
      </trkpt>
      <trkpt lat="47.47719" lon="6.76148">
        <ele>309</ele>
        <time>2015-06-24T18:10:52.000Z</time>
      </trkpt>
      <trkpt lat="47.47721" lon="6.76152">
        <ele>309</ele>
        <time>2015-06-24T18:10:53.000Z</time>
      </trkpt>
      <trkpt lat="47.47724" lon="6.76155">
        <ele>309</ele>
        <time>2015-06-24T18:10:54.000Z</time>
      </trkpt>
      <trkpt lat="47.47726" lon="6.76159">
        <ele>309</ele>
        <time>2015-06-24T18:10:55.000Z</time>
      </trkpt>
      <trkpt lat="47.47728" lon="6.76163">
        <ele>309</ele>
        <time>2015-06-24T18:10:56.000Z</time>
      </trkpt>
      <trkpt lat="47.47731" lon="6.76166">
        <ele>308</ele>
        <time>2015-06-24T18:10:57.000Z</time>
      </trkpt>
      <trkpt lat="47.47733" lon="6.76169">
        <ele>308</ele>
        <time>2015-06-24T18:10:58.000Z</time>
      </trkpt>
      <trkpt lat="47.47735" lon="6.76172">
        <ele>308</ele>
        <time>2015-06-24T18:10:59.000Z</time>
      </trkpt>
      <trkpt lat="47.47736" lon="6.76174">
        <ele>308</ele>
        <time>2015-06-24T18:11:00.000Z</time>
      </trkpt>
      <trkpt lat="47.47739" lon="6.76178">
        <ele>308</ele>
        <time>2015-06-24T18:11:02.000Z</time>
      </trkpt>
      <trkpt lat="47.47741" lon="6.7618">
        <ele>308</ele>
        <time>2015-06-24T18:11:03.000Z</time>
      </trkpt>
      <trkpt lat="47.47744" lon="6.76184">
        <ele>308</ele>
        <time>2015-06-24T18:11:05.000Z</time>
      </trkpt>
      <trkpt lat="47.47745" lon="6.76186">
        <ele>308</ele>
        <time>2015-06-24T18:11:06.000Z</time>
      </trkpt>
      <trkpt lat="47.47747" lon="6.76188">
        <ele>308</ele>
        <time>2015-06-24T18:11:07.000Z</time>
      </trkpt>
      <trkpt lat="47.47749" lon="6.76191">
        <ele>308</ele>
        <time>2015-06-24T18:11:08.000Z</time>
      </trkpt>
      <trkpt lat="47.47751" lon="6.76194">
        <ele>308</ele>
        <time>2015-06-24T18:11:09.000Z</time>
      </trkpt>
      <trkpt lat="47.47753" lon="6.76198">
        <ele>309</ele>
        <time>2015-06-24T18:11:10.000Z</time>
      </trkpt>
      <trkpt lat="47.47756" lon="6.76202">
        <ele>309</ele>
        <time>2015-06-24T18:11:11.000Z</time>
      </trkpt>
      <trkpt lat="47.47759" lon="6.76207">
        <ele>309</ele>
        <time>2015-06-24T18:11:12.000Z</time>
      </trkpt>
      <trkpt lat="47.47762" lon="6.76213">
        <ele>309</ele>
        <time>2015-06-24T18:11:13.000Z</time>
      </trkpt>
      <trkpt lat="47.47765" lon="6.76218">
        <ele>309</ele>
        <time>2015-06-24T18:11:14.000Z</time>
      </trkpt>
      <trkpt lat="47.47767" lon="6.76223">
        <ele>309</ele>
        <time>2015-06-24T18:11:15.000Z</time>
      </trkpt>
      <trkpt lat="47.4777" lon="6.76229">
        <ele>309</ele>
        <time>2015-06-24T18:11:16.000Z</time>
      </trkpt>
      <trkpt lat="47.47773" lon="6.76234">
        <ele>309</ele>
        <time>2015-06-24T18:11:17.000Z</time>
      </trkpt>
      <trkpt lat="47.47776" lon="6.76239">
        <ele>309</ele>
        <time>2015-06-24T18:11:18.000Z</time>
      </trkpt>
      <trkpt lat="47.47779" lon="6.76244">
        <ele>309</ele>
        <time>2015-06-24T18:11:19.000Z</time>
      </trkpt>
      <trkpt lat="47.47782" lon="6.76248">
        <ele>309</ele>
        <time>2015-06-24T18:11:19.999Z</time>
      </trkpt>
      <trkpt lat="47.47786" lon="6.76252">
        <ele>310</ele>
        <time>2015-06-24T18:11:21.000Z</time>
      </trkpt>
      <trkpt lat="47.47793" lon="6.76255">
        <ele>310</ele>
        <time>2015-06-24T18:11:22.000Z</time>
      </trkpt>
      <trkpt lat="47.47797" lon="6.76257">
        <ele>310</ele>
        <time>2015-06-24T18:11:22.999Z</time>
      </trkpt>
      <trkpt lat="47.47801" lon="6.76259">
        <ele>310</ele>
        <time>2015-06-24T18:11:24.000Z</time>
      </trkpt>
      <trkpt lat="47.47805" lon="6.76261">
        <ele>310</ele>
        <time>2015-06-24T18:11:25.000Z</time>
      </trkpt>
      <trkpt lat="47.47809" lon="6.76263">
        <ele>310</ele>
        <time>2015-06-24T18:11:26.000Z</time>
      </trkpt>
      <trkpt lat="47.47813" lon="6.76265">
        <ele>310</ele>
        <time>2015-06-24T18:11:27.000Z</time>
      </trkpt>
      <trkpt lat="47.47818" lon="6.76268">
        <ele>310</ele>
        <time>2015-06-24T18:11:28.000Z</time>
      </trkpt>
      <trkpt lat="47.47822" lon="6.7627">
        <ele>310</ele>
        <time>2015-06-24T18:11:29.001Z</time>
      </trkpt>
      <trkpt lat="47.47825" lon="6.76273">
        <ele>310</ele>
        <time>2015-06-24T18:11:30.000Z</time>
      </trkpt>
      <trkpt lat="47.4783" lon="6.76275">
        <ele>310</ele>
        <time>2015-06-24T18:11:31.000Z</time>
      </trkpt>
      <trkpt lat="47.47833" lon="6.76278">
        <ele>310</ele>
        <time>2015-06-24T18:11:32.000Z</time>
      </trkpt>
      <trkpt lat="47.47836" lon="6.76281">
        <ele>311</ele>
        <time>2015-06-24T18:11:33.000Z</time>
      </trkpt>
      <trkpt lat="47.4784" lon="6.76284">
        <ele>311</ele>
        <time>2015-06-24T18:11:34.000Z</time>
      </trkpt>
      <trkpt lat="47.47843" lon="6.76287">
        <ele>310</ele>
        <time>2015-06-24T18:11:35.000Z</time>
      </trkpt>
      <trkpt lat="47.47846" lon="6.76293">
        <ele>310</ele>
        <time>2015-06-24T18:11:36.000Z</time>
      </trkpt>
      <trkpt lat="47.47849" lon="6.76298">
        <ele>310</ele>
        <time>2015-06-24T18:11:36.999Z</time>
      </trkpt>
      <trkpt lat="47.47852" lon="6.76303">
        <ele>310</ele>
        <time>2015-06-24T18:11:38.000Z</time>
      </trkpt>
      <trkpt lat="47.47855" lon="6.76308">
        <ele>310</ele>
        <time>2015-06-24T18:11:39.000Z</time>
      </trkpt>
      <trkpt lat="47.47857" lon="6.76313">
        <ele>310</ele>
        <time>2015-06-24T18:11:40.000Z</time>
      </trkpt>
      <trkpt lat="47.4786" lon="6.76318">
        <ele>310</ele>
        <time>2015-06-24T18:11:41.000Z</time>
      </trkpt>
      <trkpt lat="47.47862" lon="6.76324">
        <ele>310</ele>
        <time>2015-06-24T18:11:42.000Z</time>
      </trkpt>
      <trkpt lat="47.47865" lon="6.76327">
        <ele>310</ele>
        <time>2015-06-24T18:11:43.000Z</time>
      </trkpt>
      <trkpt lat="47.47868" lon="6.76332">
        <ele>310</ele>
        <time>2015-06-24T18:11:44.000Z</time>
      </trkpt>
      <trkpt lat="47.4787" lon="6.76337">
        <ele>311</ele>
        <time>2015-06-24T18:11:45.000Z</time>
      </trkpt>
      <trkpt lat="47.47874" lon="6.76342">
        <ele>311</ele>
        <time>2015-06-24T18:11:46.000Z</time>
      </trkpt>
      <trkpt lat="47.47876" lon="6.76347">
        <ele>311</ele>
        <time>2015-06-24T18:11:47.000Z</time>
      </trkpt>
      <trkpt lat="47.47879" lon="6.76352">
        <ele>311</ele>
        <time>2015-06-24T18:11:48.000Z</time>
      </trkpt>
      <trkpt lat="47.47881" lon="6.76357">
        <ele>311</ele>
        <time>2015-06-24T18:11:49.000Z</time>
      </trkpt>
      <trkpt lat="47.47884" lon="6.76363">
        <ele>311</ele>
        <time>2015-06-24T18:11:50.000Z</time>
      </trkpt>
      <trkpt lat="47.47887" lon="6.76368">
        <ele>311</ele>
        <time>2015-06-24T18:11:51.000Z</time>
      </trkpt>
      <trkpt lat="47.47889" lon="6.76374">
        <ele>311</ele>
        <time>2015-06-24T18:11:52.000Z</time>
      </trkpt>
      <trkpt lat="47.47892" lon="6.76379">
        <ele>311</ele>
        <time>2015-06-24T18:11:53.000Z</time>
      </trkpt>
      <trkpt lat="47.47894" lon="6.76385">
        <ele>311</ele>
        <time>2015-06-24T18:11:54.000Z</time>
      </trkpt>
      <trkpt lat="47.47896" lon="6.76391">
        <ele>311</ele>
        <time>2015-06-24T18:11:55.000Z</time>
      </trkpt>
      <trkpt lat="47.47899" lon="6.76396">
        <ele>311</ele>
        <time>2015-06-24T18:11:56.000Z</time>
      </trkpt>
      <trkpt lat="47.47902" lon="6.76401">
        <ele>311</ele>
        <time>2015-06-24T18:11:57.000Z</time>
      </trkpt>
      <trkpt lat="47.47904" lon="6.76406">
        <ele>311</ele>
        <time>2015-06-24T18:11:58.000Z</time>
      </trkpt>
      <trkpt lat="47.47907" lon="6.76412">
        <ele>312</ele>
        <time>2015-06-24T18:11:59.001Z</time>
      </trkpt>
      <trkpt lat="47.47909" lon="6.76417">
        <ele>312</ele>
        <time>2015-06-24T18:12:00.000Z</time>
      </trkpt>
      <trkpt lat="47.47911" lon="6.76423">
        <ele>311</ele>
        <time>2015-06-24T18:12:01.000Z</time>
      </trkpt>
      <trkpt lat="47.47912" lon="6.76429">
        <ele>311</ele>
        <time>2015-06-24T18:12:02.000Z</time>
      </trkpt>
      <trkpt lat="47.47914" lon="6.76435">
        <ele>311</ele>
        <time>2015-06-24T18:12:03.000Z</time>
      </trkpt>
      <trkpt lat="47.47916" lon="6.7644">
        <ele>311</ele>
        <time>2015-06-24T18:12:04.000Z</time>
      </trkpt>
      <trkpt lat="47.47918" lon="6.76446">
        <ele>311</ele>
        <time>2015-06-24T18:12:05.000Z</time>
      </trkpt>
      <trkpt lat="47.47918" lon="6.76452">
        <ele>311</ele>
        <time>2015-06-24T18:12:06.000Z</time>
      </trkpt>
      <trkpt lat="47.4792" lon="6.76458">
        <ele>311</ele>
        <time>2015-06-24T18:12:07.000Z</time>
      </trkpt>
      <trkpt lat="47.47921" lon="6.76465">
        <ele>311</ele>
        <time>2015-06-24T18:12:08.000Z</time>
      </trkpt>
      <trkpt lat="47.47923" lon="6.76471">
        <ele>311</ele>
        <time>2015-06-24T18:12:09.000Z</time>
      </trkpt>
      <trkpt lat="47.47925" lon="6.76477">
        <ele>311</ele>
        <time>2015-06-24T18:12:10.000Z</time>
      </trkpt>
      <trkpt lat="47.47926" lon="6.76483">
        <ele>311</ele>
        <time>2015-06-24T18:12:11.000Z</time>
      </trkpt>
      <trkpt lat="47.47928" lon="6.76489">
        <ele>311</ele>
        <time>2015-06-24T18:12:12.000Z</time>
      </trkpt>
      <trkpt lat="47.4793" lon="6.76495">
        <ele>311</ele>
        <time>2015-06-24T18:12:13.000Z</time>
      </trkpt>
      <trkpt lat="47.47931" lon="6.765">
        <ele>311</ele>
        <time>2015-06-24T18:12:14.000Z</time>
      </trkpt>
      <trkpt lat="47.47932" lon="6.76505">
        <ele>310</ele>
        <time>2015-06-24T18:12:15.000Z</time>
      </trkpt>
      <trkpt lat="47.47933" lon="6.76511">
        <ele>311</ele>
        <time>2015-06-24T18:12:16.000Z</time>
      </trkpt>
      <trkpt lat="47.47934" lon="6.76517">
        <ele>311</ele>
        <time>2015-06-24T18:12:17.000Z</time>
      </trkpt>
      <trkpt lat="47.47935" lon="6.76523">
        <ele>311</ele>
        <time>2015-06-24T18:12:18.000Z</time>
      </trkpt>
      <trkpt lat="47.47936" lon="6.76529">
        <ele>311</ele>
        <time>2015-06-24T18:12:19.000Z</time>
      </trkpt>
      <trkpt lat="47.47938" lon="6.76535">
        <ele>311</ele>
        <time>2015-06-24T18:12:20.000Z</time>
      </trkpt>
      <trkpt lat="47.47939" lon="6.76541">
        <ele>311</ele>
        <time>2015-06-24T18:12:21.000Z</time>
      </trkpt>
      <trkpt lat="47.47941" lon="6.76548">
        <ele>311</ele>
        <time>2015-06-24T18:12:22.000Z</time>
      </trkpt>
      <trkpt lat="47.47942" lon="6.76554">
        <ele>311</ele>
        <time>2015-06-24T18:12:23.000Z</time>
      </trkpt>
      <trkpt lat="47.47943" lon="6.76561">
        <ele>311</ele>
        <time>2015-06-24T18:12:23.999Z</time>
      </trkpt>
      <trkpt lat="47.47944" lon="6.76567">
        <ele>311</ele>
        <time>2015-06-24T18:12:25.000Z</time>
      </trkpt>
      <trkpt lat="47.47945" lon="6.76573">
        <ele>311</ele>
        <time>2015-06-24T18:12:26.001Z</time>
      </trkpt>
      <trkpt lat="47.47947" lon="6.76578">
        <ele>311</ele>
        <time>2015-06-24T18:12:27.000Z</time>
      </trkpt>
      <trkpt lat="47.47947" lon="6.76584">
        <ele>311</ele>
        <time>2015-06-24T18:12:28.000Z</time>
      </trkpt>
      <trkpt lat="47.47947" lon="6.7659">
        <ele>311</ele>
        <time>2015-06-24T18:12:29.000Z</time>
      </trkpt>
      <trkpt lat="47.47949" lon="6.76594">
        <ele>311</ele>
        <time>2015-06-24T18:12:30.000Z</time>
      </trkpt>
      <trkpt lat="47.47949" lon="6.76598">
        <ele>311</ele>
        <time>2015-06-24T18:12:31.000Z</time>
      </trkpt>
      <trkpt lat="47.4795" lon="6.76603">
        <ele>311</ele>
        <time>2015-06-24T18:12:32.000Z</time>
      </trkpt>
      <trkpt lat="47.47951" lon="6.76607">
        <ele>311</ele>
        <time>2015-06-24T18:12:33.000Z</time>
      </trkpt>
      <trkpt lat="47.47951" lon="6.7661">
        <ele>311</ele>
        <time>2015-06-24T18:12:34.000Z</time>
      </trkpt>
      <trkpt lat="47.47952" lon="6.76614">
        <ele>311</ele>
        <time>2015-06-24T18:12:35.001Z</time>
      </trkpt>
      <trkpt lat="47.47953" lon="6.76617">
        <ele>311</ele>
        <time>2015-06-24T18:12:36.000Z</time>
      </trkpt>
      <trkpt lat="47.47953" lon="6.76621">
        <ele>311</ele>
        <time>2015-06-24T18:12:37.000Z</time>
      </trkpt>
      <trkpt lat="47.47957" lon="6.76623">
        <ele>311</ele>
        <time>2015-06-24T18:12:38.001Z</time>
      </trkpt>
      <trkpt lat="47.47961" lon="6.76625">
        <ele>311</ele>
        <time>2015-06-24T18:12:39.000Z</time>
      </trkpt>
      <trkpt lat="47.47965" lon="6.76625">
        <ele>311</ele>
        <time>2015-06-24T18:12:40.000Z</time>
      </trkpt>
      <trkpt lat="47.47969" lon="6.76625">
        <ele>311</ele>
        <time>2015-06-24T18:12:41.000Z</time>
      </trkpt>
      <trkpt lat="47.47972" lon="6.76624">
        <ele>311</ele>
        <time>2015-06-24T18:12:42.000Z</time>
      </trkpt>
      <trkpt lat="47.47975" lon="6.76624">
        <ele>311</ele>
        <time>2015-06-24T18:12:43.000Z</time>
      </trkpt>
      <trkpt lat="47.47978" lon="6.76622">
        <ele>311</ele>
        <time>2015-06-24T18:12:44.000Z</time>
      </trkpt>
      <trkpt lat="47.47982" lon="6.7662">
        <ele>311</ele>
        <time>2015-06-24T18:12:45.000Z</time>
      </trkpt>
      <trkpt lat="47.47985" lon="6.76618">
        <ele>311</ele>
        <time>2015-06-24T18:12:46.000Z</time>
      </trkpt>
      <trkpt lat="47.47989" lon="6.76615">
        <ele>311</ele>
        <time>2015-06-24T18:12:47.000Z</time>
      </trkpt>
      <trkpt lat="47.47992" lon="6.76612">
        <ele>312</ele>
        <time>2015-06-24T18:12:48.000Z</time>
      </trkpt>
      <trkpt lat="47.47996" lon="6.76609">
        <ele>312</ele>
        <time>2015-06-24T18:12:49.000Z</time>
      </trkpt>
      <trkpt lat="47.47999" lon="6.76608">
        <ele>312</ele>
        <time>2015-06-24T18:12:50.000Z</time>
      </trkpt>
      <trkpt lat="47.48003" lon="6.76606">
        <ele>312</ele>
        <time>2015-06-24T18:12:51.000Z</time>
      </trkpt>
      <trkpt lat="47.48006" lon="6.76604">
        <ele>312</ele>
        <time>2015-06-24T18:12:52.000Z</time>
      </trkpt>
      <trkpt lat="47.4801" lon="6.76602">
        <ele>312</ele>
        <time>2015-06-24T18:12:53.000Z</time>
      </trkpt>
      <trkpt lat="47.48014" lon="6.76601">
        <ele>312</ele>
        <time>2015-06-24T18:12:54.000Z</time>
      </trkpt>
      <trkpt lat="47.48018" lon="6.76599">
        <ele>312</ele>
        <time>2015-06-24T18:12:55.000Z</time>
      </trkpt>
      <trkpt lat="47.48021" lon="6.76597">
        <ele>312</ele>
        <time>2015-06-24T18:12:56.000Z</time>
      </trkpt>
      <trkpt lat="47.48025" lon="6.76595">
        <ele>312</ele>
        <time>2015-06-24T18:12:57.000Z</time>
      </trkpt>
      <trkpt lat="47.48029" lon="6.76592">
        <ele>312</ele>
        <time>2015-06-24T18:12:58.000Z</time>
      </trkpt>
      <trkpt lat="47.48032" lon="6.76588">
        <ele>312</ele>
        <time>2015-06-24T18:12:59.000Z</time>
      </trkpt>
      <trkpt lat="47.48036" lon="6.76584">
        <ele>312</ele>
        <time>2015-06-24T18:13:00.000Z</time>
      </trkpt>
      <trkpt lat="47.4804" lon="6.76581">
        <ele>312</ele>
        <time>2015-06-24T18:13:01.000Z</time>
      </trkpt>
      <trkpt lat="47.48044" lon="6.76578">
        <ele>312</ele>
        <time>2015-06-24T18:13:02.000Z</time>
      </trkpt>
      <trkpt lat="47.48048" lon="6.76574">
        <ele>312</ele>
        <time>2015-06-24T18:13:03.000Z</time>
      </trkpt>
      <trkpt lat="47.48052" lon="6.76571">
        <ele>312</ele>
        <time>2015-06-24T18:13:04.000Z</time>
      </trkpt>
      <trkpt lat="47.48056" lon="6.76567">
        <ele>312</ele>
        <time>2015-06-24T18:13:05.000Z</time>
      </trkpt>
      <trkpt lat="47.48059" lon="6.76563">
        <ele>312</ele>
        <time>2015-06-24T18:13:06.000Z</time>
      </trkpt>
      <trkpt lat="47.48063" lon="6.76559">
        <ele>312</ele>
        <time>2015-06-24T18:13:07.000Z</time>
      </trkpt>
      <trkpt lat="47.48066" lon="6.76555">
        <ele>312</ele>
        <time>2015-06-24T18:13:08.000Z</time>
      </trkpt>
      <trkpt lat="47.4807" lon="6.76551">
        <ele>312</ele>
        <time>2015-06-24T18:13:09.000Z</time>
      </trkpt>
      <trkpt lat="47.48075" lon="6.76544">
        <ele>312</ele>
        <time>2015-06-24T18:13:10.000Z</time>
      </trkpt>
      <trkpt lat="47.48079" lon="6.76539">
        <ele>312</ele>
        <time>2015-06-24T18:13:11.000Z</time>
      </trkpt>
      <trkpt lat="47.48083" lon="6.76536">
        <ele>312</ele>
        <time>2015-06-24T18:13:12.000Z</time>
      </trkpt>
      <trkpt lat="47.48088" lon="6.76532">
        <ele>317</ele>
        <time>2015-06-24T18:13:13.000Z</time>
      </trkpt>
      <trkpt lat="47.48093" lon="6.76527">
        <ele>317</ele>
        <time>2015-06-24T18:13:14.000Z</time>
      </trkpt>
      <trkpt lat="47.48097" lon="6.76523">
        <ele>318</ele>
        <time>2015-06-24T18:13:15.000Z</time>
      </trkpt>
      <trkpt lat="47.481" lon="6.76519">
        <ele>318</ele>
        <time>2015-06-24T18:13:16.000Z</time>
      </trkpt>
      <trkpt lat="47.48103" lon="6.76517">
        <ele>318</ele>
        <time>2015-06-24T18:13:17.000Z</time>
      </trkpt>
      <trkpt lat="47.48106" lon="6.76519">
        <ele>319</ele>
        <time>2015-06-24T18:13:18.000Z</time>
      </trkpt>
      <trkpt lat="47.48109" lon="6.76521">
        <ele>319</ele>
        <time>2015-06-24T18:13:19.000Z</time>
      </trkpt>
      <trkpt lat="47.48111" lon="6.76526">
        <ele>319</ele>
        <time>2015-06-24T18:13:20.000Z</time>
      </trkpt>
      <trkpt lat="47.48114" lon="6.7653">
        <ele>319</ele>
        <time>2015-06-24T18:13:21.000Z</time>
      </trkpt>
      <trkpt lat="47.48118" lon="6.76535">
        <ele>320</ele>
        <time>2015-06-24T18:13:22.000Z</time>
      </trkpt>
      <trkpt lat="47.4812" lon="6.76539">
        <ele>320</ele>
        <time>2015-06-24T18:13:23.000Z</time>
      </trkpt>
      <trkpt lat="47.4812" lon="6.76544">
        <ele>319</ele>
        <time>2015-06-24T18:13:24.000Z</time>
      </trkpt>
      <trkpt lat="47.48118" lon="6.76548">
        <ele>319</ele>
        <time>2015-06-24T18:13:25.000Z</time>
      </trkpt>
      <trkpt lat="47.48117" lon="6.76552">
        <ele>319</ele>
        <time>2015-06-24T18:13:26.000Z</time>
      </trkpt>
      <trkpt lat="47.48115" lon="6.76557">
        <ele>318</ele>
        <time>2015-06-24T18:13:27.000Z</time>
      </trkpt>
      <trkpt lat="47.4811" lon="6.76564">
        <ele>318</ele>
        <time>2015-06-24T18:13:28.000Z</time>
      </trkpt>
      <trkpt lat="47.48107" lon="6.7657">
        <ele>317</ele>
        <time>2015-06-24T18:13:29.000Z</time>
      </trkpt>
      <trkpt lat="47.48103" lon="6.76576">
        <ele>316</ele>
        <time>2015-06-24T18:13:29.998Z</time>
      </trkpt>
      <trkpt lat="47.481" lon="6.76582">
        <ele>315</ele>
        <time>2015-06-24T18:13:31.001Z</time>
      </trkpt>
      <trkpt lat="47.48099" lon="6.76588">
        <ele>313</ele>
        <time>2015-06-24T18:13:32.000Z</time>
      </trkpt>
      <trkpt lat="47.48098" lon="6.76594">
        <ele>313</ele>
        <time>2015-06-24T18:13:33.000Z</time>
      </trkpt>
      <trkpt lat="47.48097" lon="6.76601">
        <ele>313</ele>
        <time>2015-06-24T18:13:34.000Z</time>
      </trkpt>
      <trkpt lat="47.48097" lon="6.76608">
        <ele>313</ele>
        <time>2015-06-24T18:13:35.000Z</time>
      </trkpt>
      <trkpt lat="47.48098" lon="6.76614">
        <ele>313</ele>
        <time>2015-06-24T18:13:36.000Z</time>
      </trkpt>
      <trkpt lat="47.48098" lon="6.7662">
        <ele>313</ele>
        <time>2015-06-24T18:13:37.001Z</time>
      </trkpt>
      <trkpt lat="47.481" lon="6.76629">
        <ele>313</ele>
        <time>2015-06-24T18:13:38.000Z</time>
      </trkpt>
      <trkpt lat="47.48105" lon="6.76634">
        <ele>313</ele>
        <time>2015-06-24T18:13:39.000Z</time>
      </trkpt>
      <trkpt lat="47.48108" lon="6.76642">
        <ele>313</ele>
        <time>2015-06-24T18:13:40.000Z</time>
      </trkpt>
      <trkpt lat="47.4811" lon="6.76648">
        <ele>313</ele>
        <time>2015-06-24T18:13:41.000Z</time>
      </trkpt>
      <trkpt lat="47.48113" lon="6.76654">
        <ele>313</ele>
        <time>2015-06-24T18:13:42.000Z</time>
      </trkpt>
      <trkpt lat="47.48116" lon="6.7666">
        <ele>312</ele>
        <time>2015-06-24T18:13:43.000Z</time>
      </trkpt>
      <trkpt lat="47.48119" lon="6.76667">
        <ele>312</ele>
        <time>2015-06-24T18:13:44.000Z</time>
      </trkpt>
      <trkpt lat="47.48123" lon="6.76673">
        <ele>312</ele>
        <time>2015-06-24T18:13:45.000Z</time>
      </trkpt>
      <trkpt lat="47.48126" lon="6.7668">
        <ele>312</ele>
        <time>2015-06-24T18:13:46.000Z</time>
      </trkpt>
      <trkpt lat="47.4813" lon="6.76687">
        <ele>312</ele>
        <time>2015-06-24T18:13:47.000Z</time>
      </trkpt>
      <trkpt lat="47.48135" lon="6.76695">
        <ele>312</ele>
        <time>2015-06-24T18:13:48.000Z</time>
      </trkpt>
      <trkpt lat="47.48139" lon="6.76701">
        <ele>312</ele>
        <time>2015-06-24T18:13:49.000Z</time>
      </trkpt>
      <trkpt lat="47.48143" lon="6.76708">
        <ele>312</ele>
        <time>2015-06-24T18:13:50.000Z</time>
      </trkpt>
      <trkpt lat="47.48146" lon="6.76713">
        <ele>312</ele>
        <time>2015-06-24T18:13:51.000Z</time>
      </trkpt>
      <trkpt lat="47.4815" lon="6.7672">
        <ele>312</ele>
        <time>2015-06-24T18:13:52.000Z</time>
      </trkpt>
      <trkpt lat="47.48153" lon="6.76727">
        <ele>312</ele>
        <time>2015-06-24T18:13:53.000Z</time>
      </trkpt>
      <trkpt lat="47.48156" lon="6.76735">
        <ele>312</ele>
        <time>2015-06-24T18:13:53.999Z</time>
      </trkpt>
      <trkpt lat="47.4816" lon="6.7674">
        <ele>313</ele>
        <time>2015-06-24T18:13:55.000Z</time>
      </trkpt>
      <trkpt lat="47.48164" lon="6.76745">
        <ele>313</ele>
        <time>2015-06-24T18:13:56.000Z</time>
      </trkpt>
      <trkpt lat="47.48167" lon="6.76751">
        <ele>313</ele>
        <time>2015-06-24T18:13:57.000Z</time>
      </trkpt>
      <trkpt lat="47.48172" lon="6.76755">
        <ele>313</ele>
        <time>2015-06-24T18:13:58.001Z</time>
      </trkpt>
      <trkpt lat="47.48177" lon="6.76759">
        <ele>313</ele>
        <time>2015-06-24T18:13:59.000Z</time>
      </trkpt>
      <trkpt lat="47.48182" lon="6.76764">
        <ele>312</ele>
        <time>2015-06-24T18:14:00.000Z</time>
      </trkpt>
      <trkpt lat="47.48186" lon="6.7677">
        <ele>312</ele>
        <time>2015-06-24T18:14:01.000Z</time>
      </trkpt>
      <trkpt lat="47.48191" lon="6.76775">
        <ele>312</ele>
        <time>2015-06-24T18:14:02.000Z</time>
      </trkpt>
      <trkpt lat="47.48196" lon="6.76776">
        <ele>312</ele>
        <time>2015-06-24T18:14:03.000Z</time>
      </trkpt>
      <trkpt lat="47.48201" lon="6.76778">
        <ele>312</ele>
        <time>2015-06-24T18:14:03.999Z</time>
      </trkpt>
      <trkpt lat="47.48205" lon="6.7678">
        <ele>312</ele>
        <time>2015-06-24T18:14:05.000Z</time>
      </trkpt>
      <trkpt lat="47.48209" lon="6.76782">
        <ele>312</ele>
        <time>2015-06-24T18:14:06.000Z</time>
      </trkpt>
      <trkpt lat="47.48213" lon="6.76784">
        <ele>312</ele>
        <time>2015-06-24T18:14:07.000Z</time>
      </trkpt>
      <trkpt lat="47.48218" lon="6.76786">
        <ele>312</ele>
        <time>2015-06-24T18:14:08.002Z</time>
      </trkpt>
      <trkpt lat="47.48223" lon="6.76789">
        <ele>312</ele>
        <time>2015-06-24T18:14:09.000Z</time>
      </trkpt>
      <trkpt lat="47.48228" lon="6.76792">
        <ele>312</ele>
        <time>2015-06-24T18:14:10.000Z</time>
      </trkpt>
      <trkpt lat="47.48233" lon="6.76794">
        <ele>312</ele>
        <time>2015-06-24T18:14:11.000Z</time>
      </trkpt>
      <trkpt lat="47.48238" lon="6.76797">
        <ele>312</ele>
        <time>2015-06-24T18:14:12.000Z</time>
      </trkpt>
      <trkpt lat="47.48242" lon="6.76801">
        <ele>312</ele>
        <time>2015-06-24T18:14:13.000Z</time>
      </trkpt>
      <trkpt lat="47.48247" lon="6.76806">
        <ele>312</ele>
        <time>2015-06-24T18:14:14.000Z</time>
      </trkpt>
      <trkpt lat="47.4825" lon="6.7681">
        <ele>312</ele>
        <time>2015-06-24T18:14:15.000Z</time>
      </trkpt>
      <trkpt lat="47.48254" lon="6.76816">
        <ele>312</ele>
        <time>2015-06-24T18:14:16.001Z</time>
      </trkpt>
      <trkpt lat="47.48258" lon="6.76821">
        <ele>312</ele>
        <time>2015-06-24T18:14:17.001Z</time>
      </trkpt>
      <trkpt lat="47.4826" lon="6.76826">
        <ele>312</ele>
        <time>2015-06-24T18:14:18.000Z</time>
      </trkpt>
      <trkpt lat="47.48264" lon="6.76832">
        <ele>312</ele>
        <time>2015-06-24T18:14:19.000Z</time>
      </trkpt>
      <trkpt lat="47.48268" lon="6.76837">
        <ele>311</ele>
        <time>2015-06-24T18:14:20.001Z</time>
      </trkpt>
      <trkpt lat="47.48271" lon="6.76841">
        <ele>311</ele>
        <time>2015-06-24T18:14:21.000Z</time>
      </trkpt>
      <trkpt lat="47.48275" lon="6.76847">
        <ele>311</ele>
        <time>2015-06-24T18:14:22.000Z</time>
      </trkpt>
      <trkpt lat="47.48279" lon="6.76853">
        <ele>310</ele>
        <time>2015-06-24T18:14:23.000Z</time>
      </trkpt>
      <trkpt lat="47.48283" lon="6.76859">
        <ele>310</ele>
        <time>2015-06-24T18:14:23.999Z</time>
      </trkpt>
      <trkpt lat="47.48287" lon="6.76864">
        <ele>310</ele>
        <time>2015-06-24T18:14:25.000Z</time>
      </trkpt>
      <trkpt lat="47.4829" lon="6.76869">
        <ele>310</ele>
        <time>2015-06-24T18:14:26.000Z</time>
      </trkpt>
      <trkpt lat="47.48294" lon="6.76872">
        <ele>310</ele>
        <time>2015-06-24T18:14:27.000Z</time>
      </trkpt>
      <trkpt lat="47.48298" lon="6.76877">
        <ele>310</ele>
        <time>2015-06-24T18:14:28.000Z</time>
      </trkpt>
      <trkpt lat="47.48301" lon="6.76881">
        <ele>310</ele>
        <time>2015-06-24T18:14:29.000Z</time>
      </trkpt>
      <trkpt lat="47.48307" lon="6.76886">
        <ele>310</ele>
        <time>2015-06-24T18:14:30.000Z</time>
      </trkpt>
      <trkpt lat="47.48313" lon="6.7689">
        <ele>310</ele>
        <time>2015-06-24T18:14:31.000Z</time>
      </trkpt>
      <trkpt lat="47.48318" lon="6.76894">
        <ele>310</ele>
        <time>2015-06-24T18:14:32.000Z</time>
      </trkpt>
      <trkpt lat="47.48323" lon="6.76895">
        <ele>310</ele>
        <time>2015-06-24T18:14:33.000Z</time>
      </trkpt>
      <trkpt lat="47.48328" lon="6.769">
        <ele>310</ele>
        <time>2015-06-24T18:14:34.000Z</time>
      </trkpt>
      <trkpt lat="47.48332" lon="6.76903">
        <ele>310</ele>
        <time>2015-06-24T18:14:34.999Z</time>
      </trkpt>
      <trkpt lat="47.48337" lon="6.76907">
        <ele>310</ele>
        <time>2015-06-24T18:14:36.000Z</time>
      </trkpt>
      <trkpt lat="47.48342" lon="6.7691">
        <ele>310</ele>
        <time>2015-06-24T18:14:37.000Z</time>
      </trkpt>
      <trkpt lat="47.48347" lon="6.76913">
        <ele>310</ele>
        <time>2015-06-24T18:14:38.000Z</time>
      </trkpt>
      <trkpt lat="47.48352" lon="6.76914">
        <ele>310</ele>
        <time>2015-06-24T18:14:39.000Z</time>
      </trkpt>
      <trkpt lat="47.48358" lon="6.76918">
        <ele>311</ele>
        <time>2015-06-24T18:14:40.000Z</time>
      </trkpt>
      <trkpt lat="47.48364" lon="6.7692">
        <ele>311</ele>
        <time>2015-06-24T18:14:41.000Z</time>
      </trkpt>
      <trkpt lat="47.4837" lon="6.76922">
        <ele>311</ele>
        <time>2015-06-24T18:14:42.000Z</time>
      </trkpt>
      <trkpt lat="47.48375" lon="6.76924">
        <ele>312</ele>
        <time>2015-06-24T18:14:43.000Z</time>
      </trkpt>
      <trkpt lat="47.48379" lon="6.76928">
        <ele>312</ele>
        <time>2015-06-24T18:14:44.000Z</time>
      </trkpt>
      <trkpt lat="47.48384" lon="6.76931">
        <ele>312</ele>
        <time>2015-06-24T18:14:44.999Z</time>
      </trkpt>
      <trkpt lat="47.48389" lon="6.76934">
        <ele>312</ele>
        <time>2015-06-24T18:14:46.000Z</time>
      </trkpt>
      <trkpt lat="47.48393" lon="6.76937">
        <ele>312</ele>
        <time>2015-06-24T18:14:47.000Z</time>
      </trkpt>
      <trkpt lat="47.48398" lon="6.7694">
        <ele>312</ele>
        <time>2015-06-24T18:14:48.000Z</time>
      </trkpt>
      <trkpt lat="47.48402" lon="6.76943">
        <ele>312</ele>
        <time>2015-06-24T18:14:49.001Z</time>
      </trkpt>
      <trkpt lat="47.48407" lon="6.76947">
        <ele>312</ele>
        <time>2015-06-24T18:14:50.000Z</time>
      </trkpt>
      <trkpt lat="47.48412" lon="6.76952">
        <ele>312</ele>
        <time>2015-06-24T18:14:51.000Z</time>
      </trkpt>
      <trkpt lat="47.48416" lon="6.76958">
        <ele>312</ele>
        <time>2015-06-24T18:14:52.000Z</time>
      </trkpt>
      <trkpt lat="47.48421" lon="6.76959">
        <ele>314</ele>
        <time>2015-06-24T18:14:53.000Z</time>
      </trkpt>
      <trkpt lat="47.48426" lon="6.76961">
        <ele>314</ele>
        <time>2015-06-24T18:14:54.000Z</time>
      </trkpt>
      <trkpt lat="47.4843" lon="6.76965">
        <ele>314</ele>
        <time>2015-06-24T18:14:55.000Z</time>
      </trkpt>
      <trkpt lat="47.48435" lon="6.76968">
        <ele>314</ele>
        <time>2015-06-24T18:14:56.000Z</time>
      </trkpt>
      <trkpt lat="47.4844" lon="6.7697">
        <ele>314</ele>
        <time>2015-06-24T18:14:57.000Z</time>
      </trkpt>
      <trkpt lat="47.48444" lon="6.76974">
        <ele>315</ele>
        <time>2015-06-24T18:14:58.000Z</time>
      </trkpt>
      <trkpt lat="47.48449" lon="6.76977">
        <ele>315</ele>
        <time>2015-06-24T18:14:59.000Z</time>
      </trkpt>
      <trkpt lat="47.48453" lon="6.76981">
        <ele>315</ele>
        <time>2015-06-24T18:15:00.000Z</time>
      </trkpt>
      <trkpt lat="47.48457" lon="6.76984">
        <ele>315</ele>
        <time>2015-06-24T18:15:01.000Z</time>
      </trkpt>
      <trkpt lat="47.48462" lon="6.76987">
        <ele>315</ele>
        <time>2015-06-24T18:15:02.000Z</time>
      </trkpt>
      <trkpt lat="47.48467" lon="6.7699">
        <ele>315</ele>
        <time>2015-06-24T18:15:03.000Z</time>
      </trkpt>
      <trkpt lat="47.48471" lon="6.76992">
        <ele>315</ele>
        <time>2015-06-24T18:15:04.000Z</time>
      </trkpt>
      <trkpt lat="47.48477" lon="6.76995">
        <ele>315</ele>
        <time>2015-06-24T18:15:05.000Z</time>
      </trkpt>
      <trkpt lat="47.48481" lon="6.76997">
        <ele>315</ele>
        <time>2015-06-24T18:15:06.000Z</time>
      </trkpt>
      <trkpt lat="47.48486" lon="6.76999">
        <ele>316</ele>
        <time>2015-06-24T18:15:07.000Z</time>
      </trkpt>
      <trkpt lat="47.48491" lon="6.77003">
        <ele>315</ele>
        <time>2015-06-24T18:15:08.000Z</time>
      </trkpt>
      <trkpt lat="47.48495" lon="6.77005">
        <ele>315</ele>
        <time>2015-06-24T18:15:09.000Z</time>
      </trkpt>
      <trkpt lat="47.48499" lon="6.77008">
        <ele>315</ele>
        <time>2015-06-24T18:15:10.000Z</time>
      </trkpt>
      <trkpt lat="47.48504" lon="6.77011">
        <ele>315</ele>
        <time>2015-06-24T18:15:11.000Z</time>
      </trkpt>
      <trkpt lat="47.48509" lon="6.77014">
        <ele>315</ele>
        <time>2015-06-24T18:15:12.000Z</time>
      </trkpt>
      <trkpt lat="47.48513" lon="6.77018">
        <ele>315</ele>
        <time>2015-06-24T18:15:13.000Z</time>
      </trkpt>
      <trkpt lat="47.48517" lon="6.77019">
        <ele>315</ele>
        <time>2015-06-24T18:15:14.000Z</time>
      </trkpt>
      <trkpt lat="47.48522" lon="6.77023">
        <ele>314</ele>
        <time>2015-06-24T18:15:14.999Z</time>
      </trkpt>
      <trkpt lat="47.48526" lon="6.77027">
        <ele>314</ele>
        <time>2015-06-24T18:15:16.000Z</time>
      </trkpt>
      <trkpt lat="47.4853" lon="6.77031">
        <ele>314</ele>
        <time>2015-06-24T18:15:17.000Z</time>
      </trkpt>
      <trkpt lat="47.48533" lon="6.77034">
        <ele>314</ele>
        <time>2015-06-24T18:15:18.000Z</time>
      </trkpt>
      <trkpt lat="47.48537" lon="6.77035">
        <ele>314</ele>
        <time>2015-06-24T18:15:19.000Z</time>
      </trkpt>
      <trkpt lat="47.48544" lon="6.77039">
        <ele>314</ele>
        <time>2015-06-24T18:15:20.000Z</time>
      </trkpt>
      <trkpt lat="47.48549" lon="6.77042">
        <ele>314</ele>
        <time>2015-06-24T18:15:21.000Z</time>
      </trkpt>
      <trkpt lat="47.48554" lon="6.77044">
        <ele>314</ele>
        <time>2015-06-24T18:15:22.000Z</time>
      </trkpt>
      <trkpt lat="47.48558" lon="6.77045">
        <ele>314</ele>
        <time>2015-06-24T18:15:23.000Z</time>
      </trkpt>
      <trkpt lat="47.48563" lon="6.77045">
        <ele>314</ele>
        <time>2015-06-24T18:15:24.000Z</time>
      </trkpt>
      <trkpt lat="47.48568" lon="6.77046">
        <ele>314</ele>
        <time>2015-06-24T18:15:25.000Z</time>
      </trkpt>
      <trkpt lat="47.4857" lon="6.7705">
        <ele>314</ele>
        <time>2015-06-24T18:15:26.000Z</time>
      </trkpt>
      <trkpt lat="47.48574" lon="6.77053">
        <ele>314</ele>
        <time>2015-06-24T18:15:27.000Z</time>
      </trkpt>
      <trkpt lat="47.48577" lon="6.77056">
        <ele>314</ele>
        <time>2015-06-24T18:15:28.000Z</time>
      </trkpt>
      <trkpt lat="47.4858" lon="6.7706">
        <ele>314</ele>
        <time>2015-06-24T18:15:29.000Z</time>
      </trkpt>
      <trkpt lat="47.48584" lon="6.77063">
        <ele>313</ele>
        <time>2015-06-24T18:15:30.000Z</time>
      </trkpt>
      <trkpt lat="47.48588" lon="6.77066">
        <ele>313</ele>
        <time>2015-06-24T18:15:31.000Z</time>
      </trkpt>
      <trkpt lat="47.48592" lon="6.77068">
        <ele>313</ele>
        <time>2015-06-24T18:15:32.000Z</time>
      </trkpt>
      <trkpt lat="47.48596" lon="6.77071">
        <ele>313</ele>
        <time>2015-06-24T18:15:33.000Z</time>
      </trkpt>
      <trkpt lat="47.48601" lon="6.77073">
        <ele>313</ele>
        <time>2015-06-24T18:15:34.000Z</time>
      </trkpt>
      <trkpt lat="47.48605" lon="6.77077">
        <ele>313</ele>
        <time>2015-06-24T18:15:35.000Z</time>
      </trkpt>
      <trkpt lat="47.48609" lon="6.77082">
        <ele>313</ele>
        <time>2015-06-24T18:15:36.000Z</time>
      </trkpt>
      <trkpt lat="47.48613" lon="6.77085">
        <ele>312</ele>
        <time>2015-06-24T18:15:37.000Z</time>
      </trkpt>
      <trkpt lat="47.48616" lon="6.77087">
        <ele>312</ele>
        <time>2015-06-24T18:15:38.000Z</time>
      </trkpt>
      <trkpt lat="47.4862" lon="6.7709">
        <ele>312</ele>
        <time>2015-06-24T18:15:39.000Z</time>
      </trkpt>
      <trkpt lat="47.48624" lon="6.77093">
        <ele>312</ele>
        <time>2015-06-24T18:15:40.000Z</time>
      </trkpt>
      <trkpt lat="47.48628" lon="6.77093">
        <ele>312</ele>
        <time>2015-06-24T18:15:41.000Z</time>
      </trkpt>
      <trkpt lat="47.48633" lon="6.77096">
        <ele>312</ele>
        <time>2015-06-24T18:15:42.000Z</time>
      </trkpt>
      <trkpt lat="47.48637" lon="6.771">
        <ele>312</ele>
        <time>2015-06-24T18:15:43.000Z</time>
      </trkpt>
      <trkpt lat="47.48641" lon="6.77104">
        <ele>312</ele>
        <time>2015-06-24T18:15:44.000Z</time>
      </trkpt>
      <trkpt lat="47.48645" lon="6.77109">
        <ele>312</ele>
        <time>2015-06-24T18:15:45.000Z</time>
      </trkpt>
      <trkpt lat="47.4865" lon="6.77113">
        <ele>312</ele>
        <time>2015-06-24T18:15:46.000Z</time>
      </trkpt>
      <trkpt lat="47.48654" lon="6.77119">
        <ele>312</ele>
        <time>2015-06-24T18:15:47.000Z</time>
      </trkpt>
      <trkpt lat="47.48658" lon="6.77122">
        <ele>312</ele>
        <time>2015-06-24T18:15:48.000Z</time>
      </trkpt>
      <trkpt lat="47.48662" lon="6.77126">
        <ele>312</ele>
        <time>2015-06-24T18:15:49.000Z</time>
      </trkpt>
      <trkpt lat="47.48667" lon="6.77131">
        <ele>312</ele>
        <time>2015-06-24T18:15:50.000Z</time>
      </trkpt>
      <trkpt lat="47.48671" lon="6.77135">
        <ele>312</ele>
        <time>2015-06-24T18:15:51.000Z</time>
      </trkpt>
      <trkpt lat="47.48676" lon="6.7714">
        <ele>311</ele>
        <time>2015-06-24T18:15:52.000Z</time>
      </trkpt>
      <trkpt lat="47.48679" lon="6.77145">
        <ele>311</ele>
        <time>2015-06-24T18:15:53.000Z</time>
      </trkpt>
      <trkpt lat="47.48683" lon="6.7715">
        <ele>311</ele>
        <time>2015-06-24T18:15:54.000Z</time>
      </trkpt>
      <trkpt lat="47.48687" lon="6.77154">
        <ele>311</ele>
        <time>2015-06-24T18:15:55.000Z</time>
      </trkpt>
      <trkpt lat="47.48691" lon="6.77158">
        <ele>311</ele>
        <time>2015-06-24T18:15:56.000Z</time>
      </trkpt>
      <trkpt lat="47.48694" lon="6.77159">
        <ele>311</ele>
        <time>2015-06-24T18:15:57.000Z</time>
      </trkpt>
      <trkpt lat="47.48698" lon="6.77163">
        <ele>311</ele>
        <time>2015-06-24T18:15:58.000Z</time>
      </trkpt>
      <trkpt lat="47.48703" lon="6.77167">
        <ele>311</ele>
        <time>2015-06-24T18:15:59.000Z</time>
      </trkpt>
      <trkpt lat="47.48706" lon="6.77169">
        <ele>311</ele>
        <time>2015-06-24T18:16:00.000Z</time>
      </trkpt>
      <trkpt lat="47.48711" lon="6.77173">
        <ele>311</ele>
        <time>2015-06-24T18:16:01.000Z</time>
      </trkpt>
      <trkpt lat="47.48714" lon="6.77177">
        <ele>310</ele>
        <time>2015-06-24T18:16:01.999Z</time>
      </trkpt>
      <trkpt lat="47.48718" lon="6.7718">
        <ele>310</ele>
        <time>2015-06-24T18:16:03.000Z</time>
      </trkpt>
      <trkpt lat="47.48721" lon="6.77184">
        <ele>310</ele>
        <time>2015-06-24T18:16:04.000Z</time>
      </trkpt>
      <trkpt lat="47.48725" lon="6.77186">
        <ele>310</ele>
        <time>2015-06-24T18:16:05.001Z</time>
      </trkpt>
      <trkpt lat="47.4873" lon="6.7719">
        <ele>310</ele>
        <time>2015-06-24T18:16:06.000Z</time>
      </trkpt>
      <trkpt lat="47.48734" lon="6.77194">
        <ele>310</ele>
        <time>2015-06-24T18:16:07.000Z</time>
      </trkpt>
      <trkpt lat="47.48739" lon="6.77197">
        <ele>310</ele>
        <time>2015-06-24T18:16:08.000Z</time>
      </trkpt>
      <trkpt lat="47.48744" lon="6.772">
        <ele>310</ele>
        <time>2015-06-24T18:16:09.000Z</time>
      </trkpt>
      <trkpt lat="47.48748" lon="6.77202">
        <ele>310</ele>
        <time>2015-06-24T18:16:10.000Z</time>
      </trkpt>
      <trkpt lat="47.48751" lon="6.77204">
        <ele>310</ele>
        <time>2015-06-24T18:16:11.000Z</time>
      </trkpt>
      <trkpt lat="47.48755" lon="6.77207">
        <ele>310</ele>
        <time>2015-06-24T18:16:11.999Z</time>
      </trkpt>
      <trkpt lat="47.48759" lon="6.7721">
        <ele>310</ele>
        <time>2015-06-24T18:16:13.000Z</time>
      </trkpt>
      <trkpt lat="47.48763" lon="6.77213">
        <ele>310</ele>
        <time>2015-06-24T18:16:14.000Z</time>
      </trkpt>
      <trkpt lat="47.48768" lon="6.77216">
        <ele>310</ele>
        <time>2015-06-24T18:16:15.000Z</time>
      </trkpt>
      <trkpt lat="47.48772" lon="6.7722">
        <ele>310</ele>
        <time>2015-06-24T18:16:16.000Z</time>
      </trkpt>
      <trkpt lat="47.48776" lon="6.77224">
        <ele>310</ele>
        <time>2015-06-24T18:16:17.000Z</time>
      </trkpt>
      <trkpt lat="47.4878" lon="6.77228">
        <ele>310</ele>
        <time>2015-06-24T18:16:18.000Z</time>
      </trkpt>
      <trkpt lat="47.48783" lon="6.77232">
        <ele>310</ele>
        <time>2015-06-24T18:16:19.000Z</time>
      </trkpt>
      <trkpt lat="47.48787" lon="6.77235">
        <ele>310</ele>
        <time>2015-06-24T18:16:20.000Z</time>
      </trkpt>
      <trkpt lat="47.48791" lon="6.77239">
        <ele>310</ele>
        <time>2015-06-24T18:16:21.000Z</time>
      </trkpt>
      <trkpt lat="47.48794" lon="6.77244">
        <ele>310</ele>
        <time>2015-06-24T18:16:22.000Z</time>
      </trkpt>
      <trkpt lat="47.48798" lon="6.77249">
        <ele>310</ele>
        <time>2015-06-24T18:16:22.999Z</time>
      </trkpt>
      <trkpt lat="47.48803" lon="6.77252">
        <ele>310</ele>
        <time>2015-06-24T18:16:24.000Z</time>
      </trkpt>
      <trkpt lat="47.48807" lon="6.77255">
        <ele>310</ele>
        <time>2015-06-24T18:16:25.000Z</time>
      </trkpt>
      <trkpt lat="47.48811" lon="6.77258">
        <ele>310</ele>
        <time>2015-06-24T18:16:26.000Z</time>
      </trkpt>
      <trkpt lat="47.48815" lon="6.77261">
        <ele>310</ele>
        <time>2015-06-24T18:16:26.999Z</time>
      </trkpt>
      <trkpt lat="47.48819" lon="6.77264">
        <ele>310</ele>
        <time>2015-06-24T18:16:27.999Z</time>
      </trkpt>
      <trkpt lat="47.48822" lon="6.77266">
        <ele>310</ele>
        <time>2015-06-24T18:16:29.000Z</time>
      </trkpt>
      <trkpt lat="47.48826" lon="6.77269">
        <ele>310</ele>
        <time>2015-06-24T18:16:30.000Z</time>
      </trkpt>
      <trkpt lat="47.4883" lon="6.77272">
        <ele>310</ele>
        <time>2015-06-24T18:16:31.000Z</time>
      </trkpt>
      <trkpt lat="47.48834" lon="6.77275">
        <ele>310</ele>
        <time>2015-06-24T18:16:32.000Z</time>
      </trkpt>
      <trkpt lat="47.48838" lon="6.77277">
        <ele>310</ele>
        <time>2015-06-24T18:16:33.000Z</time>
      </trkpt>
      <trkpt lat="47.48841" lon="6.77279">
        <ele>310</ele>
        <time>2015-06-24T18:16:34.000Z</time>
      </trkpt>
      <trkpt lat="47.48846" lon="6.77283">
        <ele>310</ele>
        <time>2015-06-24T18:16:35.000Z</time>
      </trkpt>
      <trkpt lat="47.4885" lon="6.77285">
        <ele>310</ele>
        <time>2015-06-24T18:16:36.000Z</time>
      </trkpt>
      <trkpt lat="47.48854" lon="6.77286">
        <ele>310</ele>
        <time>2015-06-24T18:16:37.000Z</time>
      </trkpt>
      <trkpt lat="47.48859" lon="6.77288">
        <ele>310</ele>
        <time>2015-06-24T18:16:38.000Z</time>
      </trkpt>
      <trkpt lat="47.48863" lon="6.77289">
        <ele>310</ele>
        <time>2015-06-24T18:16:39.000Z</time>
      </trkpt>
      <trkpt lat="47.48868" lon="6.77292">
        <ele>310</ele>
        <time>2015-06-24T18:16:40.000Z</time>
      </trkpt>
      <trkpt lat="47.48873" lon="6.77294">
        <ele>310</ele>
        <time>2015-06-24T18:16:41.000Z</time>
      </trkpt>
      <trkpt lat="47.48877" lon="6.77295">
        <ele>310</ele>
        <time>2015-06-24T18:16:42.000Z</time>
      </trkpt>
      <trkpt lat="47.48882" lon="6.77296">
        <ele>310</ele>
        <time>2015-06-24T18:16:43.000Z</time>
      </trkpt>
      <trkpt lat="47.48886" lon="6.77297">
        <ele>310</ele>
        <time>2015-06-24T18:16:44.000Z</time>
      </trkpt>
      <trkpt lat="47.48891" lon="6.77298">
        <ele>310</ele>
        <time>2015-06-24T18:16:45.000Z</time>
      </trkpt>
      <trkpt lat="47.48896" lon="6.773">
        <ele>310</ele>
        <time>2015-06-24T18:16:46.000Z</time>
      </trkpt>
      <trkpt lat="47.489" lon="6.77302">
        <ele>310</ele>
        <time>2015-06-24T18:16:47.000Z</time>
      </trkpt>
      <trkpt lat="47.48905" lon="6.77304">
        <ele>310</ele>
        <time>2015-06-24T18:16:48.000Z</time>
      </trkpt>
      <trkpt lat="47.48909" lon="6.77307">
        <ele>310</ele>
        <time>2015-06-24T18:16:49.000Z</time>
      </trkpt>
      <trkpt lat="47.48914" lon="6.77309">
        <ele>310</ele>
        <time>2015-06-24T18:16:50.000Z</time>
      </trkpt>
      <trkpt lat="47.48918" lon="6.77313">
        <ele>310</ele>
        <time>2015-06-24T18:16:51.000Z</time>
      </trkpt>
      <trkpt lat="47.48921" lon="6.77318">
        <ele>310</ele>
        <time>2015-06-24T18:16:51.999Z</time>
      </trkpt>
      <trkpt lat="47.48925" lon="6.7732">
        <ele>310</ele>
        <time>2015-06-24T18:16:53.000Z</time>
      </trkpt>
      <trkpt lat="47.48929" lon="6.77323">
        <ele>310</ele>
        <time>2015-06-24T18:16:53.999Z</time>
      </trkpt>
      <trkpt lat="47.48933" lon="6.77324">
        <ele>310</ele>
        <time>2015-06-24T18:16:55.000Z</time>
      </trkpt>
      <trkpt lat="47.48937" lon="6.77328">
        <ele>310</ele>
        <time>2015-06-24T18:16:55.999Z</time>
      </trkpt>
      <trkpt lat="47.48942" lon="6.77326">
        <ele>311</ele>
        <time>2015-06-24T18:16:57.000Z</time>
      </trkpt>
      <trkpt lat="47.48947" lon="6.77328">
        <ele>311</ele>
        <time>2015-06-24T18:16:58.000Z</time>
      </trkpt>
      <trkpt lat="47.48952" lon="6.77329">
        <ele>311</ele>
        <time>2015-06-24T18:16:59.000Z</time>
      </trkpt>
      <trkpt lat="47.48958" lon="6.7733">
        <ele>311</ele>
        <time>2015-06-24T18:17:00.000Z</time>
      </trkpt>
      <trkpt lat="47.48962" lon="6.77331">
        <ele>311</ele>
        <time>2015-06-24T18:17:01.000Z</time>
      </trkpt>
      <trkpt lat="47.48968" lon="6.7733">
        <ele>311</ele>
        <time>2015-06-24T18:17:02.000Z</time>
      </trkpt>
      <trkpt lat="47.48974" lon="6.77329">
        <ele>311</ele>
        <time>2015-06-24T18:17:02.999Z</time>
      </trkpt>
      <trkpt lat="47.48979" lon="6.7733">
        <ele>311</ele>
        <time>2015-06-24T18:17:04.000Z</time>
      </trkpt>
      <trkpt lat="47.48984" lon="6.7733">
        <ele>311</ele>
        <time>2015-06-24T18:17:05.000Z</time>
      </trkpt>
      <trkpt lat="47.48989" lon="6.7733">
        <ele>311</ele>
        <time>2015-06-24T18:17:06.000Z</time>
      </trkpt>
      <trkpt lat="47.48993" lon="6.7733">
        <ele>311</ele>
        <time>2015-06-24T18:17:07.000Z</time>
      </trkpt>
      <trkpt lat="47.48998" lon="6.77331">
        <ele>311</ele>
        <time>2015-06-24T18:17:08.001Z</time>
      </trkpt>
      <trkpt lat="47.49002" lon="6.77333">
        <ele>311</ele>
        <time>2015-06-24T18:17:09.000Z</time>
      </trkpt>
      <trkpt lat="47.49008" lon="6.77335">
        <ele>311</ele>
        <time>2015-06-24T18:17:10.000Z</time>
      </trkpt>
      <trkpt lat="47.49013" lon="6.77335">
        <ele>311</ele>
        <time>2015-06-24T18:17:11.000Z</time>
      </trkpt>
      <trkpt lat="47.49017" lon="6.77335">
        <ele>311</ele>
        <time>2015-06-24T18:17:12.000Z</time>
      </trkpt>
      <trkpt lat="47.49023" lon="6.77336">
        <ele>311</ele>
        <time>2015-06-24T18:17:13.000Z</time>
      </trkpt>
      <trkpt lat="47.49027" lon="6.77338">
        <ele>311</ele>
        <time>2015-06-24T18:17:13.999Z</time>
      </trkpt>
      <trkpt lat="47.49032" lon="6.77337">
        <ele>311</ele>
        <time>2015-06-24T18:17:15.000Z</time>
      </trkpt>
      <trkpt lat="47.49037" lon="6.77335">
        <ele>311</ele>
        <time>2015-06-24T18:17:16.000Z</time>
      </trkpt>
      <trkpt lat="47.49041" lon="6.77335">
        <ele>311</ele>
        <time>2015-06-24T18:17:17.000Z</time>
      </trkpt>
      <trkpt lat="47.49046" lon="6.77334">
        <ele>311</ele>
        <time>2015-06-24T18:17:18.000Z</time>
      </trkpt>
      <trkpt lat="47.49051" lon="6.77334">
        <ele>311</ele>
        <time>2015-06-24T18:17:19.000Z</time>
      </trkpt>
      <trkpt lat="47.49055" lon="6.77332">
        <ele>311</ele>
        <time>2015-06-24T18:17:20.000Z</time>
      </trkpt>
      <trkpt lat="47.4906" lon="6.77333">
        <ele>311</ele>
        <time>2015-06-24T18:17:21.000Z</time>
      </trkpt>
      <trkpt lat="47.49065" lon="6.77334">
        <ele>311</ele>
        <time>2015-06-24T18:17:21.999Z</time>
      </trkpt>
      <trkpt lat="47.49071" lon="6.77333">
        <ele>311</ele>
        <time>2015-06-24T18:17:23.000Z</time>
      </trkpt>
      <trkpt lat="47.49075" lon="6.77334">
        <ele>311</ele>
        <time>2015-06-24T18:17:24.000Z</time>
      </trkpt>
      <trkpt lat="47.49079" lon="6.77335">
        <ele>311</ele>
        <time>2015-06-24T18:17:25.000Z</time>
      </trkpt>
      <trkpt lat="47.49083" lon="6.77336">
        <ele>311</ele>
        <time>2015-06-24T18:17:26.000Z</time>
      </trkpt>
      <trkpt lat="47.49087" lon="6.77334">
        <ele>311</ele>
        <time>2015-06-24T18:17:27.000Z</time>
      </trkpt>
      <trkpt lat="47.49092" lon="6.77333">
        <ele>311</ele>
        <time>2015-06-24T18:17:28.000Z</time>
      </trkpt>
      <trkpt lat="47.49095" lon="6.77335">
        <ele>311</ele>
        <time>2015-06-24T18:17:29.000Z</time>
      </trkpt>
      <trkpt lat="47.49099" lon="6.77336">
        <ele>310</ele>
        <time>2015-06-24T18:17:30.000Z</time>
      </trkpt>
      <trkpt lat="47.49101" lon="6.77343">
        <ele>310</ele>
        <time>2015-06-24T18:17:31.000Z</time>
      </trkpt>
      <trkpt lat="47.49105" lon="6.77346">
        <ele>310</ele>
        <time>2015-06-24T18:17:32.000Z</time>
      </trkpt>
      <trkpt lat="47.49109" lon="6.77348">
        <ele>310</ele>
        <time>2015-06-24T18:17:33.000Z</time>
      </trkpt>
      <trkpt lat="47.49113" lon="6.77348">
        <ele>310</ele>
        <time>2015-06-24T18:17:34.000Z</time>
      </trkpt>
      <trkpt lat="47.49117" lon="6.77348">
        <ele>310</ele>
        <time>2015-06-24T18:17:35.001Z</time>
      </trkpt>
      <trkpt lat="47.49122" lon="6.77349">
        <ele>310</ele>
        <time>2015-06-24T18:17:36.000Z</time>
      </trkpt>
      <trkpt lat="47.49127" lon="6.77348">
        <ele>310</ele>
        <time>2015-06-24T18:17:37.000Z</time>
      </trkpt>
      <trkpt lat="47.49131" lon="6.77348">
        <ele>310</ele>
        <time>2015-06-24T18:17:38.000Z</time>
      </trkpt>
      <trkpt lat="47.49136" lon="6.77348">
        <ele>310</ele>
        <time>2015-06-24T18:17:39.000Z</time>
      </trkpt>
      <trkpt lat="47.4914" lon="6.77348">
        <ele>310</ele>
        <time>2015-06-24T18:17:40.000Z</time>
      </trkpt>
      <trkpt lat="47.49143" lon="6.77348">
        <ele>310</ele>
        <time>2015-06-24T18:17:41.000Z</time>
      </trkpt>
      <trkpt lat="47.49147" lon="6.77348">
        <ele>310</ele>
        <time>2015-06-24T18:17:42.000Z</time>
      </trkpt>
      <trkpt lat="47.4915" lon="6.77348">
        <ele>310</ele>
        <time>2015-06-24T18:17:43.000Z</time>
      </trkpt>
      <trkpt lat="47.49154" lon="6.77348">
        <ele>310</ele>
        <time>2015-06-24T18:17:44.000Z</time>
      </trkpt>
      <trkpt lat="47.49158" lon="6.77348">
        <ele>310</ele>
        <time>2015-06-24T18:17:45.000Z</time>
      </trkpt>
      <trkpt lat="47.49162" lon="6.77347">
        <ele>310</ele>
        <time>2015-06-24T18:17:46.000Z</time>
      </trkpt>
      <trkpt lat="47.49166" lon="6.77347">
        <ele>310</ele>
        <time>2015-06-24T18:17:47.000Z</time>
      </trkpt>
      <trkpt lat="47.4917" lon="6.77347">
        <ele>310</ele>
        <time>2015-06-24T18:17:48.000Z</time>
      </trkpt>
      <trkpt lat="47.49173" lon="6.77346">
        <ele>310</ele>
        <time>2015-06-24T18:17:49.000Z</time>
      </trkpt>
      <trkpt lat="47.49176" lon="6.77345">
        <ele>310</ele>
        <time>2015-06-24T18:17:50.000Z</time>
      </trkpt>
      <trkpt lat="47.49179" lon="6.77342">
        <ele>310</ele>
        <time>2015-06-24T18:17:51.000Z</time>
      </trkpt>
      <trkpt lat="47.49181" lon="6.77338">
        <ele>310</ele>
        <time>2015-06-24T18:17:52.000Z</time>
      </trkpt>
      <trkpt lat="47.49183" lon="6.77333">
        <ele>310</ele>
        <time>2015-06-24T18:17:53.000Z</time>
      </trkpt>
      <trkpt lat="47.49182" lon="6.77316">
        <ele>310</ele>
        <time>2015-06-24T18:17:54.000Z</time>
      </trkpt>
      <trkpt lat="47.49183" lon="6.77309">
        <ele>311</ele>
        <time>2015-06-24T18:17:55.000Z</time>
      </trkpt>
      <trkpt lat="47.49183" lon="6.77301">
        <ele>311</ele>
        <time>2015-06-24T18:17:56.000Z</time>
      </trkpt>
      <trkpt lat="47.49183" lon="6.77294">
        <ele>311</ele>
        <time>2015-06-24T18:17:57.000Z</time>
      </trkpt>
      <trkpt lat="47.49184" lon="6.77288">
        <ele>311</ele>
        <time>2015-06-24T18:17:58.000Z</time>
      </trkpt>
      <trkpt lat="47.49183" lon="6.77282">
        <ele>311</ele>
        <time>2015-06-24T18:17:59.000Z</time>
      </trkpt>
      <trkpt lat="47.49184" lon="6.77276">
        <ele>311</ele>
        <time>2015-06-24T18:18:00.000Z</time>
      </trkpt>
      <trkpt lat="47.49184" lon="6.77269">
        <ele>311</ele>
        <time>2015-06-24T18:18:01.000Z</time>
      </trkpt>
      <trkpt lat="47.49186" lon="6.77264">
        <ele>311</ele>
        <time>2015-06-24T18:18:02.000Z</time>
      </trkpt>
      <trkpt lat="47.49186" lon="6.77258">
        <ele>311</ele>
        <time>2015-06-24T18:18:02.999Z</time>
      </trkpt>
      <trkpt lat="47.49187" lon="6.77252">
        <ele>311</ele>
        <time>2015-06-24T18:18:04.000Z</time>
      </trkpt>
      <trkpt lat="47.49187" lon="6.77247">
        <ele>312</ele>
        <time>2015-06-24T18:18:05.000Z</time>
      </trkpt>
      <trkpt lat="47.49188" lon="6.77243">
        <ele>312</ele>
        <time>2015-06-24T18:18:06.000Z</time>
      </trkpt>
      <trkpt lat="47.49188" lon="6.77239">
        <ele>312</ele>
        <time>2015-06-24T18:18:07.000Z</time>
      </trkpt>
      <trkpt lat="47.49187" lon="6.77234">
        <ele>312</ele>
        <time>2015-06-24T18:18:08.000Z</time>
      </trkpt>
      <trkpt lat="47.49186" lon="6.7723">
        <ele>312</ele>
        <time>2015-06-24T18:18:09.000Z</time>
      </trkpt>
      <trkpt lat="47.49185" lon="6.77226">
        <ele>312</ele>
        <time>2015-06-24T18:18:10.000Z</time>
      </trkpt>
      <trkpt lat="47.49185" lon="6.77221">
        <ele>312</ele>
        <time>2015-06-24T18:18:11.000Z</time>
      </trkpt>
      <trkpt lat="47.49185" lon="6.77216">
        <ele>312</ele>
        <time>2015-06-24T18:18:12.000Z</time>
      </trkpt>
      <trkpt lat="47.49185" lon="6.77211">
        <ele>312</ele>
        <time>2015-06-24T18:18:13.000Z</time>
      </trkpt>
      <trkpt lat="47.49186" lon="6.77206">
        <ele>312</ele>
        <time>2015-06-24T18:18:14.000Z</time>
      </trkpt>
      <trkpt lat="47.49186" lon="6.77201">
        <ele>312</ele>
        <time>2015-06-24T18:18:15.000Z</time>
      </trkpt>
      <trkpt lat="47.49185" lon="6.77195">
        <ele>312</ele>
        <time>2015-06-24T18:18:16.000Z</time>
      </trkpt>
      <trkpt lat="47.49185" lon="6.77189">
        <ele>312</ele>
        <time>2015-06-24T18:18:17.000Z</time>
      </trkpt>
      <trkpt lat="47.49185" lon="6.77184">
        <ele>313</ele>
        <time>2015-06-24T18:18:18.000Z</time>
      </trkpt>
      <trkpt lat="47.49185" lon="6.77178">
        <ele>313</ele>
        <time>2015-06-24T18:18:19.000Z</time>
      </trkpt>
      <trkpt lat="47.49185" lon="6.77173">
        <ele>313</ele>
        <time>2015-06-24T18:18:20.000Z</time>
      </trkpt>
      <trkpt lat="47.49185" lon="6.77167">
        <ele>313</ele>
        <time>2015-06-24T18:18:21.000Z</time>
      </trkpt>
      <trkpt lat="47.49184" lon="6.77162">
        <ele>313</ele>
        <time>2015-06-24T18:18:22.000Z</time>
      </trkpt>
      <trkpt lat="47.49184" lon="6.77157">
        <ele>313</ele>
        <time>2015-06-24T18:18:23.000Z</time>
      </trkpt>
      <trkpt lat="47.49184" lon="6.77153">
        <ele>313</ele>
        <time>2015-06-24T18:18:24.000Z</time>
      </trkpt>
      <trkpt lat="47.49184" lon="6.7715">
        <ele>313</ele>
        <time>2015-06-24T18:18:25.000Z</time>
      </trkpt>
      <trkpt lat="47.49184" lon="6.77144">
        <ele>313</ele>
        <time>2015-06-24T18:18:27.000Z</time>
      </trkpt>
      <trkpt lat="47.49184" lon="6.77142">
        <ele>313</ele>
        <time>2015-06-24T18:18:28.000Z</time>
      </trkpt>
      <trkpt lat="47.49185" lon="6.77135">
        <ele>313</ele>
        <time>2015-06-24T18:18:31.000Z</time>
      </trkpt>
      <trkpt lat="47.49184" lon="6.77132">
        <ele>313</ele>
        <time>2015-06-24T18:18:32.000Z</time>
      </trkpt>
      <trkpt lat="47.49183" lon="6.77129">
        <ele>313</ele>
        <time>2015-06-24T18:18:33.000Z</time>
      </trkpt>
      <trkpt lat="47.49182" lon="6.77126">
        <ele>313</ele>
        <time>2015-06-24T18:18:33.999Z</time>
      </trkpt>
      <trkpt lat="47.49181" lon="6.7712">
        <ele>313</ele>
        <time>2015-06-24T18:18:35.000Z</time>
      </trkpt>
      <trkpt lat="47.49179" lon="6.77115">
        <ele>313</ele>
        <time>2015-06-24T18:18:36.000Z</time>
      </trkpt>
      <trkpt lat="47.49178" lon="6.77109">
        <ele>313</ele>
        <time>2015-06-24T18:18:37.000Z</time>
      </trkpt>
      <trkpt lat="47.49178" lon="6.77103">
        <ele>312</ele>
        <time>2015-06-24T18:18:38.000Z</time>
      </trkpt>
      <trkpt lat="47.49176" lon="6.77096">
        <ele>312</ele>
        <time>2015-06-24T18:18:39.000Z</time>
      </trkpt>
      <trkpt lat="47.49175" lon="6.7709">
        <ele>312</ele>
        <time>2015-06-24T18:18:40.000Z</time>
      </trkpt>
      <trkpt lat="47.49174" lon="6.77084">
        <ele>312</ele>
        <time>2015-06-24T18:18:41.000Z</time>
      </trkpt>
      <trkpt lat="47.49173" lon="6.77077">
        <ele>312</ele>
        <time>2015-06-24T18:18:42.000Z</time>
      </trkpt>
      <trkpt lat="47.49172" lon="6.77071">
        <ele>312</ele>
        <time>2015-06-24T18:18:43.000Z</time>
      </trkpt>
      <trkpt lat="47.49171" lon="6.77064">
        <ele>313</ele>
        <time>2015-06-24T18:18:44.000Z</time>
      </trkpt>
      <trkpt lat="47.4917" lon="6.77058">
        <ele>313</ele>
        <time>2015-06-24T18:18:45.000Z</time>
      </trkpt>
      <trkpt lat="47.4917" lon="6.77051">
        <ele>313</ele>
        <time>2015-06-24T18:18:46.000Z</time>
      </trkpt>
      <trkpt lat="47.49169" lon="6.77045">
        <ele>313</ele>
        <time>2015-06-24T18:18:47.000Z</time>
      </trkpt>
      <trkpt lat="47.49169" lon="6.77038">
        <ele>313</ele>
        <time>2015-06-24T18:18:48.000Z</time>
      </trkpt>
      <trkpt lat="47.49168" lon="6.77032">
        <ele>313</ele>
        <time>2015-06-24T18:18:49.000Z</time>
      </trkpt>
      <trkpt lat="47.49168" lon="6.77025">
        <ele>313</ele>
        <time>2015-06-24T18:18:50.000Z</time>
      </trkpt>
      <trkpt lat="47.49167" lon="6.77019">
        <ele>313</ele>
        <time>2015-06-24T18:18:51.000Z</time>
      </trkpt>
      <trkpt lat="47.49166" lon="6.77012">
        <ele>312</ele>
        <time>2015-06-24T18:18:52.000Z</time>
      </trkpt>
      <trkpt lat="47.49164" lon="6.77007">
        <ele>312</ele>
        <time>2015-06-24T18:18:53.000Z</time>
      </trkpt>
      <trkpt lat="47.49163" lon="6.77002">
        <ele>312</ele>
        <time>2015-06-24T18:18:54.000Z</time>
      </trkpt>
      <trkpt lat="47.49161" lon="6.76998">
        <ele>312</ele>
        <time>2015-06-24T18:18:55.000Z</time>
      </trkpt>
      <trkpt lat="47.4916" lon="6.76994">
        <ele>312</ele>
        <time>2015-06-24T18:18:56.000Z</time>
      </trkpt>
      <trkpt lat="47.49158" lon="6.76989">
        <ele>312</ele>
        <time>2015-06-24T18:18:57.001Z</time>
      </trkpt>
      <trkpt lat="47.49156" lon="6.76983">
        <ele>312</ele>
        <time>2015-06-24T18:18:58.000Z</time>
      </trkpt>
      <trkpt lat="47.49155" lon="6.76978">
        <ele>312</ele>
        <time>2015-06-24T18:18:59.000Z</time>
      </trkpt>
      <trkpt lat="47.49154" lon="6.76972">
        <ele>312</ele>
        <time>2015-06-24T18:19:00.000Z</time>
      </trkpt>
      <trkpt lat="47.49155" lon="6.76964">
        <ele>312</ele>
        <time>2015-06-24T18:19:01.000Z</time>
      </trkpt>
      <trkpt lat="47.49155" lon="6.7696">
        <ele>312</ele>
        <time>2015-06-24T18:19:02.000Z</time>
      </trkpt>
      <trkpt lat="47.49154" lon="6.76956">
        <ele>312</ele>
        <time>2015-06-24T18:19:03.000Z</time>
      </trkpt>
      <trkpt lat="47.49155" lon="6.76951">
        <ele>312</ele>
        <time>2015-06-24T18:19:04.000Z</time>
      </trkpt>
      <trkpt lat="47.49155" lon="6.76945">
        <ele>312</ele>
        <time>2015-06-24T18:19:05.000Z</time>
      </trkpt>
      <trkpt lat="47.49155" lon="6.76939">
        <ele>312</ele>
        <time>2015-06-24T18:19:06.000Z</time>
      </trkpt>
      <trkpt lat="47.49154" lon="6.76934">
        <ele>312</ele>
        <time>2015-06-24T18:19:07.000Z</time>
      </trkpt>
      <trkpt lat="47.49155" lon="6.76928">
        <ele>312</ele>
        <time>2015-06-24T18:19:08.000Z</time>
      </trkpt>
      <trkpt lat="47.49154" lon="6.76921">
        <ele>312</ele>
        <time>2015-06-24T18:19:09.000Z</time>
      </trkpt>
      <trkpt lat="47.49154" lon="6.76914">
        <ele>313</ele>
        <time>2015-06-24T18:19:10.000Z</time>
      </trkpt>
      <trkpt lat="47.49154" lon="6.76908">
        <ele>313</ele>
        <time>2015-06-24T18:19:11.000Z</time>
      </trkpt>
      <trkpt lat="47.49154" lon="6.76901">
        <ele>312</ele>
        <time>2015-06-24T18:19:12.000Z</time>
      </trkpt>
      <trkpt lat="47.49155" lon="6.76895">
        <ele>312</ele>
        <time>2015-06-24T18:19:13.000Z</time>
      </trkpt>
      <trkpt lat="47.49155" lon="6.7689">
        <ele>312</ele>
        <time>2015-06-24T18:19:14.000Z</time>
      </trkpt>
      <trkpt lat="47.49155" lon="6.76885">
        <ele>312</ele>
        <time>2015-06-24T18:19:15.000Z</time>
      </trkpt>
      <trkpt lat="47.49155" lon="6.7688">
        <ele>312</ele>
        <time>2015-06-24T18:19:16.000Z</time>
      </trkpt>
      <trkpt lat="47.49154" lon="6.76874">
        <ele>312</ele>
        <time>2015-06-24T18:19:17.000Z</time>
      </trkpt>
      <trkpt lat="47.49154" lon="6.76869">
        <ele>312</ele>
        <time>2015-06-24T18:19:18.000Z</time>
      </trkpt>
      <trkpt lat="47.49154" lon="6.76864">
        <ele>312</ele>
        <time>2015-06-24T18:19:19.000Z</time>
      </trkpt>
      <trkpt lat="47.49154" lon="6.76858">
        <ele>312</ele>
        <time>2015-06-24T18:19:20.000Z</time>
      </trkpt>
      <trkpt lat="47.49154" lon="6.76852">
        <ele>312</ele>
        <time>2015-06-24T18:19:21.000Z</time>
      </trkpt>
      <trkpt lat="47.49154" lon="6.76846">
        <ele>312</ele>
        <time>2015-06-24T18:19:22.000Z</time>
      </trkpt>
      <trkpt lat="47.49154" lon="6.7684">
        <ele>313</ele>
        <time>2015-06-24T18:19:23.000Z</time>
      </trkpt>
      <trkpt lat="47.49155" lon="6.76835">
        <ele>313</ele>
        <time>2015-06-24T18:19:24.000Z</time>
      </trkpt>
      <trkpt lat="47.49156" lon="6.7683">
        <ele>313</ele>
        <time>2015-06-24T18:19:25.000Z</time>
      </trkpt>
      <trkpt lat="47.49159" lon="6.76827">
        <ele>313</ele>
        <time>2015-06-24T18:19:26.000Z</time>
      </trkpt>
      <trkpt lat="47.49162" lon="6.76825">
        <ele>313</ele>
        <time>2015-06-24T18:19:27.000Z</time>
      </trkpt>
      <trkpt lat="47.49166" lon="6.76822">
        <ele>313</ele>
        <time>2015-06-24T18:19:28.000Z</time>
      </trkpt>
      <trkpt lat="47.49169" lon="6.76819">
        <ele>314</ele>
        <time>2015-06-24T18:19:29.000Z</time>
      </trkpt>
      <trkpt lat="47.49172" lon="6.76814">
        <ele>314</ele>
        <time>2015-06-24T18:19:30.000Z</time>
      </trkpt>
      <trkpt lat="47.49174" lon="6.76809">
        <ele>314</ele>
        <time>2015-06-24T18:19:31.000Z</time>
      </trkpt>
      <trkpt lat="47.49176" lon="6.76804">
        <ele>314</ele>
        <time>2015-06-24T18:19:32.000Z</time>
      </trkpt>
      <trkpt lat="47.49179" lon="6.76799">
        <ele>315</ele>
        <time>2015-06-24T18:19:33.000Z</time>
      </trkpt>
      <trkpt lat="47.49182" lon="6.76795">
        <ele>315</ele>
        <time>2015-06-24T18:19:34.000Z</time>
      </trkpt>
      <trkpt lat="47.49185" lon="6.7679">
        <ele>315</ele>
        <time>2015-06-24T18:19:35.000Z</time>
      </trkpt>
      <trkpt lat="47.49187" lon="6.76786">
        <ele>315</ele>
        <time>2015-06-24T18:19:36.000Z</time>
      </trkpt>
      <trkpt lat="47.4919" lon="6.76783">
        <ele>315</ele>
        <time>2015-06-24T18:19:37.000Z</time>
      </trkpt>
      <trkpt lat="47.49192" lon="6.7678">
        <ele>315</ele>
        <time>2015-06-24T18:19:38.000Z</time>
      </trkpt>
      <trkpt lat="47.49194" lon="6.76777">
        <ele>315</ele>
        <time>2015-06-24T18:19:39.000Z</time>
      </trkpt>
      <trkpt lat="47.49196" lon="6.76775">
        <ele>315</ele>
        <time>2015-06-24T18:19:40.000Z</time>
      </trkpt>
      <trkpt lat="47.49199" lon="6.76772">
        <ele>315</ele>
        <time>2015-06-24T18:19:41.000Z</time>
      </trkpt>
      <trkpt lat="47.49203" lon="6.7677">
        <ele>315</ele>
        <time>2015-06-24T18:19:42.000Z</time>
      </trkpt>
      <trkpt lat="47.49206" lon="6.76767">
        <ele>315</ele>
        <time>2015-06-24T18:19:43.000Z</time>
      </trkpt>
      <trkpt lat="47.49209" lon="6.76765">
        <ele>315</ele>
        <time>2015-06-24T18:19:44.000Z</time>
      </trkpt>
      <trkpt lat="47.49212" lon="6.76763">
        <ele>315</ele>
        <time>2015-06-24T18:19:45.000Z</time>
      </trkpt>
      <trkpt lat="47.49215" lon="6.76761">
        <ele>316</ele>
        <time>2015-06-24T18:19:46.000Z</time>
      </trkpt>
      <trkpt lat="47.49218" lon="6.76759">
        <ele>316</ele>
        <time>2015-06-24T18:19:47.000Z</time>
      </trkpt>
      <trkpt lat="47.4922" lon="6.76758">
        <ele>316</ele>
        <time>2015-06-24T18:19:48.000Z</time>
      </trkpt>
      <trkpt lat="47.49224" lon="6.76755">
        <ele>316</ele>
        <time>2015-06-24T18:19:51.000Z</time>
      </trkpt>
      <trkpt lat="47.49225" lon="6.76755">
        <ele>316</ele>
        <time>2015-06-24T18:19:52.000Z</time>
      </trkpt>
      <trkpt lat="47.49228" lon="6.76755">
        <ele>316</ele>
        <time>2015-06-24T18:19:56.000Z</time>
      </trkpt>
      <trkpt lat="47.49229" lon="6.76756">
        <ele>316</ele>
        <time>2015-06-24T18:19:57.000Z</time>
      </trkpt>
      <trkpt lat="47.49232" lon="6.7676">
        <ele>316</ele>
        <time>2015-06-24T18:20:04.000Z</time>
      </trkpt>
      <trkpt lat="47.49235" lon="6.76759">
        <ele>317</ele>
        <time>2015-06-24T18:20:05.000Z</time>
      </trkpt>
      <trkpt lat="47.49237" lon="6.76757">
        <ele>317</ele>
        <time>2015-06-24T18:20:06.000Z</time>
      </trkpt>
      <trkpt lat="47.49239" lon="6.76753">
        <ele>317</ele>
        <time>2015-06-24T18:20:07.000Z</time>
      </trkpt>
      <trkpt lat="47.4924" lon="6.76749">
        <ele>317</ele>
        <time>2015-06-24T18:20:08.000Z</time>
      </trkpt>
      <trkpt lat="47.4924" lon="6.76745">
        <ele>317</ele>
        <time>2015-06-24T18:20:09.000Z</time>
      </trkpt>
      <trkpt lat="47.4924" lon="6.76741">
        <ele>317</ele>
        <time>2015-06-24T18:20:10.000Z</time>
      </trkpt>
      <trkpt lat="47.4924" lon="6.76738">
        <ele>317</ele>
        <time>2015-06-24T18:20:11.000Z</time>
      </trkpt>
      <trkpt lat="47.4924" lon="6.76734">
        <ele>317</ele>
        <time>2015-06-24T18:20:12.000Z</time>
      </trkpt>
      <trkpt lat="47.49241" lon="6.76731">
        <ele>317</ele>
        <time>2015-06-24T18:20:13.000Z</time>
      </trkpt>
      <trkpt lat="47.49241" lon="6.76728">
        <ele>317</ele>
        <time>2015-06-24T18:20:14.000Z</time>
      </trkpt>
      <trkpt lat="47.49241" lon="6.76724">
        <ele>317</ele>
        <time>2015-06-24T18:20:15.000Z</time>
      </trkpt>
      <trkpt lat="47.49242" lon="6.76718">
        <ele>317</ele>
        <time>2015-06-24T18:20:17.000Z</time>
      </trkpt>
      <trkpt lat="47.49242" lon="6.76714">
        <ele>317</ele>
        <time>2015-06-24T18:20:18.000Z</time>
      </trkpt>
      <trkpt lat="47.49242" lon="6.76708">
        <ele>317</ele>
        <time>2015-06-24T18:20:20.000Z</time>
      </trkpt>
      <trkpt lat="47.49242" lon="6.76705">
        <ele>317</ele>
        <time>2015-06-24T18:20:21.000Z</time>
      </trkpt>
      <trkpt lat="47.49242" lon="6.76699">
        <ele>317</ele>
        <time>2015-06-24T18:20:23.000Z</time>
      </trkpt>
      <trkpt lat="47.49242" lon="6.76696">
        <ele>317</ele>
        <time>2015-06-24T18:20:24.000Z</time>
      </trkpt>
      <trkpt lat="47.49243" lon="6.7669">
        <ele>317</ele>
        <time>2015-06-24T18:20:26.000Z</time>
      </trkpt>
      <trkpt lat="47.49243" lon="6.76687">
        <ele>317</ele>
        <time>2015-06-24T18:20:27.000Z</time>
      </trkpt>
      <trkpt lat="47.49244" lon="6.76682">
        <ele>318</ele>
        <time>2015-06-24T18:20:29.000Z</time>
      </trkpt>
      <trkpt lat="47.49245" lon="6.76679">
        <ele>318</ele>
        <time>2015-06-24T18:20:30.000Z</time>
      </trkpt>
      <trkpt lat="47.49246" lon="6.76674">
        <ele>318</ele>
        <time>2015-06-24T18:20:32.000Z</time>
      </trkpt>
      <trkpt lat="47.49247" lon="6.76672">
        <ele>318</ele>
        <time>2015-06-24T18:20:33.000Z</time>
      </trkpt>
      <trkpt lat="47.49248" lon="6.76669">
        <ele>319</ele>
        <time>2015-06-24T18:20:35.000Z</time>
      </trkpt>
      <trkpt lat="47.49249" lon="6.76667">
        <ele>319</ele>
        <time>2015-06-24T18:20:36.000Z</time>
      </trkpt>
      <trkpt lat="47.49252" lon="6.76661">
        <ele>320</ele>
        <time>2015-06-24T18:20:39.000Z</time>
      </trkpt>
      <trkpt lat="47.49252" lon="6.76659">
        <ele>321</ele>
        <time>2015-06-24T18:20:40.000Z</time>
      </trkpt>
      <trkpt lat="47.49254" lon="6.76655">
        <ele>322</ele>
        <time>2015-06-24T18:20:42.000Z</time>
      </trkpt>
      <trkpt lat="47.49255" lon="6.76654">
        <ele>322</ele>
        <time>2015-06-24T18:20:43.000Z</time>
      </trkpt>
      <trkpt lat="47.49258" lon="6.76649">
        <ele>323</ele>
        <time>2015-06-24T18:20:45.000Z</time>
      </trkpt>
      <trkpt lat="47.49259" lon="6.76648">
        <ele>323</ele>
        <time>2015-06-24T18:20:46.000Z</time>
      </trkpt>
      <trkpt lat="47.49261" lon="6.76644">
        <ele>323</ele>
        <time>2015-06-24T18:20:48.000Z</time>
      </trkpt>
      <trkpt lat="47.49262" lon="6.76642">
        <ele>323</ele>
        <time>2015-06-24T18:20:49.000Z</time>
      </trkpt>
      <trkpt lat="47.49264" lon="6.76639">
        <ele>324</ele>
        <time>2015-06-24T18:20:51.000Z</time>
      </trkpt>
      <trkpt lat="47.49265" lon="6.76637">
        <ele>324</ele>
        <time>2015-06-24T18:20:52.000Z</time>
      </trkpt>
      <trkpt lat="47.49267" lon="6.76633">
        <ele>324</ele>
        <time>2015-06-24T18:20:55.000Z</time>
      </trkpt>
      <trkpt lat="47.49268" lon="6.76631">
        <ele>324</ele>
        <time>2015-06-24T18:20:56.000Z</time>
      </trkpt>
      <trkpt lat="47.4927" lon="6.76628">
        <ele>325</ele>
        <time>2015-06-24T18:20:58.000Z</time>
      </trkpt>
      <trkpt lat="47.49271" lon="6.76626">
        <ele>325</ele>
        <time>2015-06-24T18:20:59.000Z</time>
      </trkpt>
      <trkpt lat="47.49273" lon="6.76622">
        <ele>325</ele>
        <time>2015-06-24T18:21:01.000Z</time>
      </trkpt>
      <trkpt lat="47.49274" lon="6.7662">
        <ele>325</ele>
        <time>2015-06-24T18:21:02.000Z</time>
      </trkpt>
      <trkpt lat="47.49277" lon="6.76617">
        <ele>325</ele>
        <time>2015-06-24T18:21:04.000Z</time>
      </trkpt>
      <trkpt lat="47.49278" lon="6.76615">
        <ele>325</ele>
        <time>2015-06-24T18:21:05.000Z</time>
      </trkpt>
      <trkpt lat="47.4928" lon="6.76611">
        <ele>326</ele>
        <time>2015-06-24T18:21:07.000Z</time>
      </trkpt>
      <trkpt lat="47.49281" lon="6.76609">
        <ele>326</ele>
        <time>2015-06-24T18:21:08.000Z</time>
      </trkpt>
      <trkpt lat="47.49284" lon="6.76606">
        <ele>326</ele>
        <time>2015-06-24T18:21:11.000Z</time>
      </trkpt>
      <trkpt lat="47.49286" lon="6.76606">
        <ele>326</ele>
        <time>2015-06-24T18:21:12.000Z</time>
      </trkpt>
      <trkpt lat="47.4929" lon="6.76606">
        <ele>327</ele>
        <time>2015-06-24T18:21:14.000Z</time>
      </trkpt>
      <trkpt lat="47.49291" lon="6.76606">
        <ele>327</ele>
        <time>2015-06-24T18:21:15.000Z</time>
      </trkpt>
      <trkpt lat="47.49295" lon="6.76606">
        <ele>327</ele>
        <time>2015-06-24T18:21:17.000Z</time>
      </trkpt>
      <trkpt lat="47.49297" lon="6.76606">
        <ele>327</ele>
        <time>2015-06-24T18:21:18.000Z</time>
      </trkpt>
      <trkpt lat="47.493" lon="6.76607">
        <ele>328</ele>
        <time>2015-06-24T18:21:20.000Z</time>
      </trkpt>
      <trkpt lat="47.49302" lon="6.76607">
        <ele>328</ele>
        <time>2015-06-24T18:21:21.000Z</time>
      </trkpt>
      <trkpt lat="47.49306" lon="6.76607">
        <ele>328</ele>
        <time>2015-06-24T18:21:23.000Z</time>
      </trkpt>
      <trkpt lat="47.49308" lon="6.76607">
        <ele>328</ele>
        <time>2015-06-24T18:21:24.000Z</time>
      </trkpt>
      <trkpt lat="47.49312" lon="6.76607">
        <ele>329</ele>
        <time>2015-06-24T18:21:26.000Z</time>
      </trkpt>
      <trkpt lat="47.49314" lon="6.76607">
        <ele>329</ele>
        <time>2015-06-24T18:21:27.000Z</time>
      </trkpt>
      <trkpt lat="47.49316" lon="6.76607">
        <ele>329</ele>
        <time>2015-06-24T18:21:28.000Z</time>
      </trkpt>
      <trkpt lat="47.49319" lon="6.76606">
        <ele>329</ele>
        <time>2015-06-24T18:21:29.000Z</time>
      </trkpt>
      <trkpt lat="47.49321" lon="6.76606">
        <ele>330</ele>
        <time>2015-06-24T18:21:30.000Z</time>
      </trkpt>
      <trkpt lat="47.49323" lon="6.76605">
        <ele>330</ele>
        <time>2015-06-24T18:21:31.000Z</time>
      </trkpt>
      <trkpt lat="47.49327" lon="6.76606">
        <ele>330</ele>
        <time>2015-06-24T18:21:33.000Z</time>
      </trkpt>
      <trkpt lat="47.49329" lon="6.76606">
        <ele>330</ele>
        <time>2015-06-24T18:21:34.000Z</time>
      </trkpt>
      <trkpt lat="47.49332" lon="6.76607">
        <ele>330</ele>
        <time>2015-06-24T18:21:36.000Z</time>
      </trkpt>
      <trkpt lat="47.49334" lon="6.76607">
        <ele>336</ele>
        <time>2015-06-24T18:21:37.000Z</time>
      </trkpt>
      <trkpt lat="47.49338" lon="6.76606">
        <ele>336</ele>
        <time>2015-06-24T18:21:39.000Z</time>
      </trkpt>
      <trkpt lat="47.4934" lon="6.76605">
        <ele>336</ele>
        <time>2015-06-24T18:21:40.000Z</time>
      </trkpt>
      <trkpt lat="47.49344" lon="6.76605">
        <ele>336</ele>
        <time>2015-06-24T18:21:42.000Z</time>
      </trkpt>
      <trkpt lat="47.49346" lon="6.76605">
        <ele>336</ele>
        <time>2015-06-24T18:21:43.000Z</time>
      </trkpt>
      <trkpt lat="47.49349" lon="6.76605">
        <ele>336</ele>
        <time>2015-06-24T18:21:44.000Z</time>
      </trkpt>
      <trkpt lat="47.49351" lon="6.76605">
        <ele>337</ele>
        <time>2015-06-24T18:21:45.000Z</time>
      </trkpt>
      <trkpt lat="47.49354" lon="6.76606">
        <ele>337</ele>
        <time>2015-06-24T18:21:46.000Z</time>
      </trkpt>
      <trkpt lat="47.49357" lon="6.76606">
        <ele>337</ele>
        <time>2015-06-24T18:21:47.000Z</time>
      </trkpt>
      <trkpt lat="47.4936" lon="6.76606">
        <ele>337</ele>
        <time>2015-06-24T18:21:48.000Z</time>
      </trkpt>
      <trkpt lat="47.49362" lon="6.76607">
        <ele>337</ele>
        <time>2015-06-24T18:21:49.000Z</time>
      </trkpt>
      <trkpt lat="47.49365" lon="6.76607">
        <ele>337</ele>
        <time>2015-06-24T18:21:50.000Z</time>
      </trkpt>
      <trkpt lat="47.49367" lon="6.76608">
        <ele>337</ele>
        <time>2015-06-24T18:21:51.000Z</time>
      </trkpt>
      <trkpt lat="47.49371" lon="6.76608">
        <ele>337</ele>
        <time>2015-06-24T18:21:53.000Z</time>
      </trkpt>
      <trkpt lat="47.49373" lon="6.76609">
        <ele>338</ele>
        <time>2015-06-24T18:21:54.000Z</time>
      </trkpt>
      <trkpt lat="47.49375" lon="6.76609">
        <ele>338</ele>
        <time>2015-06-24T18:21:55.000Z</time>
      </trkpt>
      <trkpt lat="47.49378" lon="6.76609">
        <ele>338</ele>
        <time>2015-06-24T18:21:56.000Z</time>
      </trkpt>
      <trkpt lat="47.4938" lon="6.76609">
        <ele>338</ele>
        <time>2015-06-24T18:21:57.000Z</time>
      </trkpt>
      <trkpt lat="47.49383" lon="6.76609">
        <ele>338</ele>
        <time>2015-06-24T18:21:58.000Z</time>
      </trkpt>
      <trkpt lat="47.49385" lon="6.76608">
        <ele>338</ele>
        <time>2015-06-24T18:21:59.000Z</time>
      </trkpt>
      <trkpt lat="47.49388" lon="6.76608">
        <ele>339</ele>
        <time>2015-06-24T18:22:00.000Z</time>
      </trkpt>
      <trkpt lat="47.4939" lon="6.76609">
        <ele>339</ele>
        <time>2015-06-24T18:22:01.000Z</time>
      </trkpt>
      <trkpt lat="47.49392" lon="6.76609">
        <ele>339</ele>
        <time>2015-06-24T18:22:02.000Z</time>
      </trkpt>
      <trkpt lat="47.49396" lon="6.76611">
        <ele>339</ele>
        <time>2015-06-24T18:22:04.000Z</time>
      </trkpt>
      <trkpt lat="47.49398" lon="6.76611">
        <ele>339</ele>
        <time>2015-06-24T18:22:05.000Z</time>
      </trkpt>
      <trkpt lat="47.49402" lon="6.7661">
        <ele>340</ele>
        <time>2015-06-24T18:22:07.000Z</time>
      </trkpt>
      <trkpt lat="47.49405" lon="6.7661">
        <ele>340</ele>
        <time>2015-06-24T18:22:08.000Z</time>
      </trkpt>
      <trkpt lat="47.49409" lon="6.76609">
        <ele>340</ele>
        <time>2015-06-24T18:22:10.000Z</time>
      </trkpt>
      <trkpt lat="47.4941" lon="6.76609">
        <ele>340</ele>
        <time>2015-06-24T18:22:11.000Z</time>
      </trkpt>
      <trkpt lat="47.49414" lon="6.76609">
        <ele>340</ele>
        <time>2015-06-24T18:22:15.000Z</time>
      </trkpt>
      <trkpt lat="47.49415" lon="6.7661">
        <ele>340</ele>
        <time>2015-06-24T18:22:16.000Z</time>
      </trkpt>
      <trkpt lat="47.49418" lon="6.76606">
        <ele>345</ele>
        <time>2015-06-24T18:23:52.000Z</time>
      </trkpt>
      <trkpt lat="47.49419" lon="6.76605">
        <ele>345</ele>
        <time>2015-06-24T18:23:53.000Z</time>
      </trkpt>
      <trkpt lat="47.49423" lon="6.76608">
        <ele>345</ele>
        <time>2015-06-24T18:23:59.000Z</time>
      </trkpt>
      <trkpt lat="47.49424" lon="6.76608">
        <ele>345</ele>
        <time>2015-06-24T18:24:00.000Z</time>
      </trkpt>
      <trkpt lat="47.49427" lon="6.76609">
        <ele>345</ele>
        <time>2015-06-24T18:24:08.000Z</time>
      </trkpt>
      <trkpt lat="47.49428" lon="6.76609">
        <ele>345</ele>
        <time>2015-06-24T18:24:09.000Z</time>
      </trkpt>
      <trkpt lat="47.49433" lon="6.76612">
        <ele>345</ele>
        <time>2015-06-24T18:24:11.000Z</time>
      </trkpt>
      <trkpt lat="47.49436" lon="6.76613">
        <ele>345</ele>
        <time>2015-06-24T18:24:12.000Z</time>
      </trkpt>
      <trkpt lat="47.49439" lon="6.76613">
        <ele>345</ele>
        <time>2015-06-24T18:24:13.000Z</time>
      </trkpt>
      <trkpt lat="47.49442" lon="6.76612">
        <ele>345</ele>
        <time>2015-06-24T18:24:13.999Z</time>
      </trkpt>
      <trkpt lat="47.49445" lon="6.76612">
        <ele>345</ele>
        <time>2015-06-24T18:24:15.000Z</time>
      </trkpt>
      <trkpt lat="47.49449" lon="6.76611">
        <ele>346</ele>
        <time>2015-06-24T18:24:16.000Z</time>
      </trkpt>
      <trkpt lat="47.49451" lon="6.76611">
        <ele>346</ele>
        <time>2015-06-24T18:24:17.000Z</time>
      </trkpt>
      <trkpt lat="47.49453" lon="6.76612">
        <ele>346</ele>
        <time>2015-06-24T18:24:18.000Z</time>
      </trkpt>
      <trkpt lat="47.49456" lon="6.76613">
        <ele>346</ele>
        <time>2015-06-24T18:24:19.000Z</time>
      </trkpt>
      <trkpt lat="47.49458" lon="6.76615">
        <ele>346</ele>
        <time>2015-06-24T18:24:20.000Z</time>
      </trkpt>
      <trkpt lat="47.49461" lon="6.76616">
        <ele>346</ele>
        <time>2015-06-24T18:24:21.000Z</time>
      </trkpt>
      <trkpt lat="47.49464" lon="6.76617">
        <ele>346</ele>
        <time>2015-06-24T18:24:22.000Z</time>
      </trkpt>
      <trkpt lat="47.49467" lon="6.76618">
        <ele>346</ele>
        <time>2015-06-24T18:24:23.000Z</time>
      </trkpt>
      <trkpt lat="47.4947" lon="6.76618">
        <ele>346</ele>
        <time>2015-06-24T18:24:24.000Z</time>
      </trkpt>
      <trkpt lat="47.49474" lon="6.7662">
        <ele>346</ele>
        <time>2015-06-24T18:24:26.000Z</time>
      </trkpt>
      <trkpt lat="47.49476" lon="6.76621">
        <ele>346</ele>
        <time>2015-06-24T18:24:27.000Z</time>
      </trkpt>
      <trkpt lat="47.4948" lon="6.76619">
        <ele>347</ele>
        <time>2015-06-24T18:24:30.000Z</time>
      </trkpt>
      <trkpt lat="47.49481" lon="6.76618">
        <ele>347</ele>
        <time>2015-06-24T18:24:31.000Z</time>
      </trkpt>
      <trkpt lat="47.49485" lon="6.76615">
        <ele>347</ele>
        <time>2015-06-24T18:24:33.000Z</time>
      </trkpt>
      <trkpt lat="47.49486" lon="6.76615">
        <ele>347</ele>
        <time>2015-06-24T18:24:34.000Z</time>
      </trkpt>
      <trkpt lat="47.4949" lon="6.76612">
        <ele>348</ele>
        <time>2015-06-24T18:24:36.000Z</time>
      </trkpt>
      <trkpt lat="47.49491" lon="6.76611">
        <ele>348</ele>
        <time>2015-06-24T18:24:37.000Z</time>
      </trkpt>
      <trkpt lat="47.49495" lon="6.76608">
        <ele>349</ele>
        <time>2015-06-24T18:24:39.000Z</time>
      </trkpt>
      <trkpt lat="47.49496" lon="6.76606">
        <ele>349</ele>
        <time>2015-06-24T18:24:40.000Z</time>
      </trkpt>
      <trkpt lat="47.495" lon="6.76605">
        <ele>349</ele>
        <time>2015-06-24T18:24:42.000Z</time>
      </trkpt>
      <trkpt lat="47.49502" lon="6.76605">
        <ele>354</ele>
        <time>2015-06-24T18:24:43.000Z</time>
      </trkpt>
      <trkpt lat="47.49506" lon="6.76605">
        <ele>354</ele>
        <time>2015-06-24T18:24:45.000Z</time>
      </trkpt>
      <trkpt lat="47.49507" lon="6.76605">
        <ele>354</ele>
        <time>2015-06-24T18:24:46.000Z</time>
      </trkpt>
      <trkpt lat="47.49511" lon="6.76606">
        <ele>354</ele>
        <time>2015-06-24T18:24:48.000Z</time>
      </trkpt>
      <trkpt lat="47.49513" lon="6.76606">
        <ele>354</ele>
        <time>2015-06-24T18:24:49.000Z</time>
      </trkpt>
      <trkpt lat="47.49516" lon="6.76605">
        <ele>354</ele>
        <time>2015-06-24T18:24:51.000Z</time>
      </trkpt>
      <trkpt lat="47.49518" lon="6.76605">
        <ele>354</ele>
        <time>2015-06-24T18:24:52.000Z</time>
      </trkpt>
      <trkpt lat="47.49522" lon="6.76605">
        <ele>355</ele>
        <time>2015-06-24T18:24:54.000Z</time>
      </trkpt>
      <trkpt lat="47.49524" lon="6.76605">
        <ele>355</ele>
        <time>2015-06-24T18:24:55.000Z</time>
      </trkpt>
      <trkpt lat="47.49527" lon="6.76604">
        <ele>355</ele>
        <time>2015-06-24T18:24:57.000Z</time>
      </trkpt>
      <trkpt lat="47.49529" lon="6.76605">
        <ele>355</ele>
        <time>2015-06-24T18:24:58.000Z</time>
      </trkpt>
      <trkpt lat="47.49534" lon="6.76606">
        <ele>355</ele>
        <time>2015-06-24T18:25:00.001Z</time>
      </trkpt>
      <trkpt lat="47.49536" lon="6.76607">
        <ele>355</ele>
        <time>2015-06-24T18:25:01.001Z</time>
      </trkpt>
      <trkpt lat="47.49539" lon="6.76606">
        <ele>355</ele>
        <time>2015-06-24T18:25:02.000Z</time>
      </trkpt>
      <trkpt lat="47.49541" lon="6.76605">
        <ele>356</ele>
        <time>2015-06-24T18:25:03.000Z</time>
      </trkpt>
      <trkpt lat="47.49545" lon="6.76603">
        <ele>356</ele>
        <time>2015-06-24T18:25:05.000Z</time>
      </trkpt>
      <trkpt lat="47.49547" lon="6.76603">
        <ele>356</ele>
        <time>2015-06-24T18:25:06.000Z</time>
      </trkpt>
      <trkpt lat="47.49551" lon="6.76603">
        <ele>357</ele>
        <time>2015-06-24T18:25:08.000Z</time>
      </trkpt>
      <trkpt lat="47.49552" lon="6.76603">
        <ele>357</ele>
        <time>2015-06-24T18:25:09.000Z</time>
      </trkpt>
      <trkpt lat="47.49556" lon="6.76605">
        <ele>357</ele>
        <time>2015-06-24T18:25:12.000Z</time>
      </trkpt>
      <trkpt lat="47.49559" lon="6.76603">
        <ele>357</ele>
        <time>2015-06-24T18:25:13.000Z</time>
      </trkpt>
      <trkpt lat="47.49563" lon="6.76601">
        <ele>358</ele>
        <time>2015-06-24T18:25:15.000Z</time>
      </trkpt>
      <trkpt lat="47.49565" lon="6.76599">
        <ele>358</ele>
        <time>2015-06-24T18:25:16.000Z</time>
      </trkpt>
      <trkpt lat="47.49566" lon="6.76596">
        <ele>359</ele>
        <time>2015-06-24T18:25:17.000Z</time>
      </trkpt>
      <trkpt lat="47.49568" lon="6.76594">
        <ele>359</ele>
        <time>2015-06-24T18:25:18.000Z</time>
      </trkpt>
      <trkpt lat="47.4957" lon="6.76589">
        <ele>361</ele>
        <time>2015-06-24T18:25:20.000Z</time>
      </trkpt>
      <trkpt lat="47.49572" lon="6.76587">
        <ele>361</ele>
        <time>2015-06-24T18:25:21.000Z</time>
      </trkpt>
      <trkpt lat="47.49575" lon="6.76583">
        <ele>364</ele>
        <time>2015-06-24T18:25:23.000Z</time>
      </trkpt>
      <trkpt lat="47.49576" lon="6.76581">
        <ele>365</ele>
        <time>2015-06-24T18:25:24.000Z</time>
      </trkpt>
      <trkpt lat="47.49578" lon="6.76578">
        <ele>365</ele>
        <time>2015-06-24T18:25:26.000Z</time>
      </trkpt>
      <trkpt lat="47.4958" lon="6.76575">
        <ele>365</ele>
        <time>2015-06-24T18:25:27.000Z</time>
      </trkpt>
      <trkpt lat="47.49583" lon="6.76572">
        <ele>365</ele>
        <time>2015-06-24T18:25:29.000Z</time>
      </trkpt>
      <trkpt lat="47.49584" lon="6.7657">
        <ele>368</ele>
        <time>2015-06-24T18:25:30.000Z</time>
      </trkpt>
      <trkpt lat="47.49587" lon="6.76567">
        <ele>368</ele>
        <time>2015-06-24T18:25:32.000Z</time>
      </trkpt>
      <trkpt lat="47.49588" lon="6.76565">
        <ele>368</ele>
        <time>2015-06-24T18:25:33.000Z</time>
      </trkpt>
      <trkpt lat="47.4959" lon="6.76561">
        <ele>369</ele>
        <time>2015-06-24T18:25:35.000Z</time>
      </trkpt>
      <trkpt lat="47.49592" lon="6.7656">
        <ele>369</ele>
        <time>2015-06-24T18:25:36.000Z</time>
      </trkpt>
      <trkpt lat="47.49595" lon="6.76557">
        <ele>369</ele>
        <time>2015-06-24T18:25:38.000Z</time>
      </trkpt>
      <trkpt lat="47.49596" lon="6.76555">
        <ele>370</ele>
        <time>2015-06-24T18:25:39.000Z</time>
      </trkpt>
      <trkpt lat="47.49599" lon="6.76552">
        <ele>370</ele>
        <time>2015-06-24T18:25:41.000Z</time>
      </trkpt>
      <trkpt lat="47.49601" lon="6.7655">
        <ele>370</ele>
        <time>2015-06-24T18:25:42.000Z</time>
      </trkpt>
      <trkpt lat="47.49603" lon="6.76546">
        <ele>370</ele>
        <time>2015-06-24T18:25:44.000Z</time>
      </trkpt>
      <trkpt lat="47.49604" lon="6.76545">
        <ele>371</ele>
        <time>2015-06-24T18:25:45.000Z</time>
      </trkpt>
      <trkpt lat="47.49607" lon="6.7654">
        <ele>371</ele>
        <time>2015-06-24T18:25:48.000Z</time>
      </trkpt>
      <trkpt lat="47.49608" lon="6.76539">
        <ele>371</ele>
        <time>2015-06-24T18:25:49.000Z</time>
      </trkpt>
      <trkpt lat="47.4961" lon="6.76535">
        <ele>371</ele>
        <time>2015-06-24T18:25:51.000Z</time>
      </trkpt>
      <trkpt lat="47.49611" lon="6.76533">
        <ele>371</ele>
        <time>2015-06-24T18:25:52.000Z</time>
      </trkpt>
      <trkpt lat="47.49613" lon="6.76529">
        <ele>371</ele>
        <time>2015-06-24T18:25:54.000Z</time>
      </trkpt>
      <trkpt lat="47.49615" lon="6.76528">
        <ele>371</ele>
        <time>2015-06-24T18:25:55.000Z</time>
      </trkpt>
      <trkpt lat="47.49617" lon="6.76523">
        <ele>372</ele>
        <time>2015-06-24T18:25:58.000Z</time>
      </trkpt>
      <trkpt lat="47.49618" lon="6.76522">
        <ele>372</ele>
        <time>2015-06-24T18:25:59.000Z</time>
      </trkpt>
      <trkpt lat="47.49621" lon="6.76521">
        <ele>372</ele>
        <time>2015-06-24T18:26:01.000Z</time>
      </trkpt>
      <trkpt lat="47.49622" lon="6.7652">
        <ele>372</ele>
        <time>2015-06-24T18:26:02.000Z</time>
      </trkpt>
      <trkpt lat="47.49623" lon="6.76513">
        <ele>372</ele>
        <time>2015-06-24T18:26:04.000Z</time>
      </trkpt>
      <trkpt lat="47.49623" lon="6.76509">
        <ele>372</ele>
        <time>2015-06-24T18:26:05.000Z</time>
      </trkpt>
      <trkpt lat="47.49624" lon="6.76505">
        <ele>372</ele>
        <time>2015-06-24T18:26:06.000Z</time>
      </trkpt>
      <trkpt lat="47.49625" lon="6.76502">
        <ele>372</ele>
        <time>2015-06-24T18:26:07.000Z</time>
      </trkpt>
      <trkpt lat="47.49628" lon="6.76499">
        <ele>375</ele>
        <time>2015-06-24T18:26:09.000Z</time>
      </trkpt>
      <trkpt lat="47.4963" lon="6.76498">
        <ele>375</ele>
        <time>2015-06-24T18:26:10.000Z</time>
      </trkpt>
      <trkpt lat="47.49633" lon="6.76497">
        <ele>375</ele>
        <time>2015-06-24T18:26:12.000Z</time>
      </trkpt>
      <trkpt lat="47.49635" lon="6.76497">
        <ele>375</ele>
        <time>2015-06-24T18:26:13.000Z</time>
      </trkpt>
      <trkpt lat="47.49639" lon="6.76497">
        <ele>375</ele>
        <time>2015-06-24T18:26:15.000Z</time>
      </trkpt>
      <trkpt lat="47.49641" lon="6.76497">
        <ele>375</ele>
        <time>2015-06-24T18:26:16.000Z</time>
      </trkpt>
      <trkpt lat="47.49645" lon="6.76496">
        <ele>375</ele>
        <time>2015-06-24T18:26:18.000Z</time>
      </trkpt>
      <trkpt lat="47.49647" lon="6.76495">
        <ele>376</ele>
        <time>2015-06-24T18:26:19.000Z</time>
      </trkpt>
      <trkpt lat="47.49651" lon="6.76494">
        <ele>376</ele>
        <time>2015-06-24T18:26:21.000Z</time>
      </trkpt>
      <trkpt lat="47.49653" lon="6.76494">
        <ele>376</ele>
        <time>2015-06-24T18:26:22.000Z</time>
      </trkpt>
      <trkpt lat="47.49656" lon="6.76493">
        <ele>376</ele>
        <time>2015-06-24T18:26:24.000Z</time>
      </trkpt>
      <trkpt lat="47.49658" lon="6.76493">
        <ele>376</ele>
        <time>2015-06-24T18:26:25.000Z</time>
      </trkpt>
      <trkpt lat="47.49662" lon="6.76493">
        <ele>376</ele>
        <time>2015-06-24T18:26:27.000Z</time>
      </trkpt>
      <trkpt lat="47.49664" lon="6.76493">
        <ele>376</ele>
        <time>2015-06-24T18:26:28.000Z</time>
      </trkpt>
      <trkpt lat="47.49668" lon="6.76493">
        <ele>379</ele>
        <time>2015-06-24T18:26:30.000Z</time>
      </trkpt>
      <trkpt lat="47.49669" lon="6.76492">
        <ele>379</ele>
        <time>2015-06-24T18:26:31.000Z</time>
      </trkpt>
      <trkpt lat="47.49673" lon="6.7649">
        <ele>379</ele>
        <time>2015-06-24T18:26:33.000Z</time>
      </trkpt>
      <trkpt lat="47.49675" lon="6.76488">
        <ele>380</ele>
        <time>2015-06-24T18:26:34.000Z</time>
      </trkpt>
      <trkpt lat="47.49678" lon="6.76485">
        <ele>380</ele>
        <time>2015-06-24T18:26:36.000Z</time>
      </trkpt>
      <trkpt lat="47.4968" lon="6.76483">
        <ele>381</ele>
        <time>2015-06-24T18:26:37.000Z</time>
      </trkpt>
      <trkpt lat="47.49682" lon="6.7648">
        <ele>381</ele>
        <time>2015-06-24T18:26:38.000Z</time>
      </trkpt>
      <trkpt lat="47.49684" lon="6.76477">
        <ele>381</ele>
        <time>2015-06-24T18:26:39.000Z</time>
      </trkpt>
      <trkpt lat="47.49686" lon="6.76475">
        <ele>382</ele>
        <time>2015-06-24T18:26:40.000Z</time>
      </trkpt>
      <trkpt lat="47.49688" lon="6.76473">
        <ele>382</ele>
        <time>2015-06-24T18:26:41.000Z</time>
      </trkpt>
      <trkpt lat="47.49692" lon="6.7647">
        <ele>382</ele>
        <time>2015-06-24T18:26:43.000Z</time>
      </trkpt>
      <trkpt lat="47.49694" lon="6.7647">
        <ele>382</ele>
        <time>2015-06-24T18:26:44.000Z</time>
      </trkpt>
      <trkpt lat="47.49696" lon="6.76469">
        <ele>383</ele>
        <time>2015-06-24T18:26:45.000Z</time>
      </trkpt>
      <trkpt lat="47.49699" lon="6.7647">
        <ele>383</ele>
        <time>2015-06-24T18:26:46.000Z</time>
      </trkpt>
      <trkpt lat="47.49701" lon="6.7647">
        <ele>383</ele>
        <time>2015-06-24T18:26:47.000Z</time>
      </trkpt>
      <trkpt lat="47.49703" lon="6.7647">
        <ele>383</ele>
        <time>2015-06-24T18:26:48.000Z</time>
      </trkpt>
      <trkpt lat="47.49707" lon="6.76472">
        <ele>384</ele>
        <time>2015-06-24T18:26:50.000Z</time>
      </trkpt>
      <trkpt lat="47.4971" lon="6.76473">
        <ele>384</ele>
        <time>2015-06-24T18:26:51.000Z</time>
      </trkpt>
      <trkpt lat="47.49714" lon="6.76474">
        <ele>384</ele>
        <time>2015-06-24T18:26:53.000Z</time>
      </trkpt>
      <trkpt lat="47.49716" lon="6.76475">
        <ele>384</ele>
        <time>2015-06-24T18:26:54.000Z</time>
      </trkpt>
      <trkpt lat="47.49718" lon="6.76475">
        <ele>384</ele>
        <time>2015-06-24T18:26:55.000Z</time>
      </trkpt>
      <trkpt lat="47.4972" lon="6.76476">
        <ele>385</ele>
        <time>2015-06-24T18:26:56.000Z</time>
      </trkpt>
      <trkpt lat="47.49723" lon="6.76476">
        <ele>385</ele>
        <time>2015-06-24T18:26:57.000Z</time>
      </trkpt>
      <trkpt lat="47.49725" lon="6.76477">
        <ele>385</ele>
        <time>2015-06-24T18:26:58.000Z</time>
      </trkpt>
      <trkpt lat="47.49729" lon="6.76476">
        <ele>386</ele>
        <time>2015-06-24T18:27:00.000Z</time>
      </trkpt>
      <trkpt lat="47.49731" lon="6.76476">
        <ele>386</ele>
        <time>2015-06-24T18:27:01.000Z</time>
      </trkpt>
      <trkpt lat="47.49735" lon="6.76476">
        <ele>386</ele>
        <time>2015-06-24T18:27:03.000Z</time>
      </trkpt>
      <trkpt lat="47.49737" lon="6.76476">
        <ele>386</ele>
        <time>2015-06-24T18:27:04.000Z</time>
      </trkpt>
      <trkpt lat="47.4974" lon="6.76476">
        <ele>386</ele>
        <time>2015-06-24T18:27:06.000Z</time>
      </trkpt>
      <trkpt lat="47.49742" lon="6.76475">
        <ele>386</ele>
        <time>2015-06-24T18:27:07.000Z</time>
      </trkpt>
      <trkpt lat="47.49744" lon="6.76472">
        <ele>386</ele>
        <time>2015-06-24T18:27:09.000Z</time>
      </trkpt>
      <trkpt lat="47.49745" lon="6.7647">
        <ele>386</ele>
        <time>2015-06-24T18:27:10.000Z</time>
      </trkpt>
      <trkpt lat="47.49748" lon="6.76467">
        <ele>386</ele>
        <time>2015-06-24T18:27:13.000Z</time>
      </trkpt>
      <trkpt lat="47.49749" lon="6.76467">
        <ele>386</ele>
        <time>2015-06-24T18:27:14.000Z</time>
      </trkpt>
      <trkpt lat="47.49752" lon="6.76466">
        <ele>393</ele>
        <time>2015-06-24T18:27:16.000Z</time>
      </trkpt>
      <trkpt lat="47.49754" lon="6.76466">
        <ele>393</ele>
        <time>2015-06-24T18:27:17.000Z</time>
      </trkpt>
      <trkpt lat="47.49758" lon="6.76467">
        <ele>393</ele>
        <time>2015-06-24T18:27:19.000Z</time>
      </trkpt>
      <trkpt lat="47.49761" lon="6.76467">
        <ele>393</ele>
        <time>2015-06-24T18:27:20.000Z</time>
      </trkpt>
      <trkpt lat="47.49765" lon="6.76468">
        <ele>394</ele>
        <time>2015-06-24T18:27:22.000Z</time>
      </trkpt>
      <trkpt lat="47.49767" lon="6.76468">
        <ele>394</ele>
        <time>2015-06-24T18:27:23.000Z</time>
      </trkpt>
      <trkpt lat="47.4977" lon="6.76468">
        <ele>394</ele>
        <time>2015-06-24T18:27:25.000Z</time>
      </trkpt>
      <trkpt lat="47.49772" lon="6.76468">
        <ele>394</ele>
        <time>2015-06-24T18:27:26.000Z</time>
      </trkpt>
      <trkpt lat="47.49776" lon="6.76468">
        <ele>394</ele>
        <time>2015-06-24T18:27:28.000Z</time>
      </trkpt>
      <trkpt lat="47.49777" lon="6.76469">
        <ele>394</ele>
        <time>2015-06-24T18:27:29.000Z</time>
      </trkpt>
      <trkpt lat="47.49781" lon="6.76469">
        <ele>394</ele>
        <time>2015-06-24T18:27:31.000Z</time>
      </trkpt>
      <trkpt lat="47.49783" lon="6.76469">
        <ele>395</ele>
        <time>2015-06-24T18:27:32.000Z</time>
      </trkpt>
      <trkpt lat="47.49787" lon="6.76469">
        <ele>395</ele>
        <time>2015-06-24T18:27:34.000Z</time>
      </trkpt>
      <trkpt lat="47.49789" lon="6.76469">
        <ele>395</ele>
        <time>2015-06-24T18:27:35.000Z</time>
      </trkpt>
      <trkpt lat="47.49793" lon="6.76468">
        <ele>395</ele>
        <time>2015-06-24T18:27:37.000Z</time>
      </trkpt>
      <trkpt lat="47.49794" lon="6.76469">
        <ele>395</ele>
        <time>2015-06-24T18:27:38.000Z</time>
      </trkpt>
      <trkpt lat="47.49798" lon="6.76469">
        <ele>396</ele>
        <time>2015-06-24T18:27:41.000Z</time>
      </trkpt>
      <trkpt lat="47.49799" lon="6.76468">
        <ele>396</ele>
        <time>2015-06-24T18:27:42.000Z</time>
      </trkpt>
      <trkpt lat="47.49802" lon="6.76466">
        <ele>396</ele>
        <time>2015-06-24T18:27:44.000Z</time>
      </trkpt>
      <trkpt lat="47.49803" lon="6.76464">
        <ele>396</ele>
        <time>2015-06-24T18:27:45.000Z</time>
      </trkpt>
      <trkpt lat="47.49805" lon="6.76462">
        <ele>396</ele>
        <time>2015-06-24T18:27:46.000Z</time>
      </trkpt>
      <trkpt lat="47.49807" lon="6.7646">
        <ele>396</ele>
        <time>2015-06-24T18:27:47.000Z</time>
      </trkpt>
      <trkpt lat="47.4981" lon="6.76459">
        <ele>396</ele>
        <time>2015-06-24T18:27:48.000Z</time>
      </trkpt>
      <trkpt lat="47.49813" lon="6.76458">
        <ele>396</ele>
        <time>2015-06-24T18:27:49.000Z</time>
      </trkpt>
      <trkpt lat="47.49815" lon="6.76457">
        <ele>396</ele>
        <time>2015-06-24T18:27:50.000Z</time>
      </trkpt>
      <trkpt lat="47.49817" lon="6.76456">
        <ele>396</ele>
        <time>2015-06-24T18:27:51.000Z</time>
      </trkpt>
      <trkpt lat="47.49821" lon="6.76456">
        <ele>397</ele>
        <time>2015-06-24T18:27:53.000Z</time>
      </trkpt>
      <trkpt lat="47.49822" lon="6.76457">
        <ele>397</ele>
        <time>2015-06-24T18:27:54.000Z</time>
      </trkpt>
      <trkpt lat="47.49826" lon="6.76456">
        <ele>397</ele>
        <time>2015-06-24T18:27:56.000Z</time>
      </trkpt>
      <trkpt lat="47.49827" lon="6.76456">
        <ele>397</ele>
        <time>2015-06-24T18:27:57.000Z</time>
      </trkpt>
      <trkpt lat="47.49831" lon="6.76454">
        <ele>397</ele>
        <time>2015-06-24T18:27:59.000Z</time>
      </trkpt>
      <trkpt lat="47.49833" lon="6.76453">
        <ele>397</ele>
        <time>2015-06-24T18:28:00.000Z</time>
      </trkpt>
      <trkpt lat="47.49837" lon="6.76451">
        <ele>403</ele>
        <time>2015-06-24T18:28:02.000Z</time>
      </trkpt>
      <trkpt lat="47.49839" lon="6.7645">
        <ele>403</ele>
        <time>2015-06-24T18:28:03.000Z</time>
      </trkpt>
      <trkpt lat="47.49842" lon="6.76448">
        <ele>403</ele>
        <time>2015-06-24T18:28:04.000Z</time>
      </trkpt>
      <trkpt lat="47.49845" lon="6.76447">
        <ele>403</ele>
        <time>2015-06-24T18:28:05.000Z</time>
      </trkpt>
      <trkpt lat="47.49848" lon="6.76445">
        <ele>403</ele>
        <time>2015-06-24T18:28:06.000Z</time>
      </trkpt>
      <trkpt lat="47.4985" lon="6.76445">
        <ele>403</ele>
        <time>2015-06-24T18:28:07.000Z</time>
      </trkpt>
      <trkpt lat="47.49854" lon="6.76444">
        <ele>403</ele>
        <time>2015-06-24T18:28:09.000Z</time>
      </trkpt>
      <trkpt lat="47.49855" lon="6.76444">
        <ele>403</ele>
        <time>2015-06-24T18:28:10.000Z</time>
      </trkpt>
      <trkpt lat="47.49858" lon="6.76443">
        <ele>403</ele>
        <time>2015-06-24T18:28:12.000Z</time>
      </trkpt>
      <trkpt lat="47.4986" lon="6.76442">
        <ele>403</ele>
        <time>2015-06-24T18:28:13.000Z</time>
      </trkpt>
      <trkpt lat="47.49864" lon="6.76442">
        <ele>403</ele>
        <time>2015-06-24T18:28:15.000Z</time>
      </trkpt>
      <trkpt lat="47.49865" lon="6.76442">
        <ele>403</ele>
        <time>2015-06-24T18:28:16.000Z</time>
      </trkpt>
      <trkpt lat="47.49868" lon="6.76444">
        <ele>404</ele>
        <time>2015-06-24T18:28:18.000Z</time>
      </trkpt>
      <trkpt lat="47.49869" lon="6.76445">
        <ele>404</ele>
        <time>2015-06-24T18:28:19.000Z</time>
      </trkpt>
      <trkpt lat="47.49872" lon="6.76448">
        <ele>404</ele>
        <time>2015-06-24T18:28:21.000Z</time>
      </trkpt>
      <trkpt lat="47.49873" lon="6.76448">
        <ele>404</ele>
        <time>2015-06-24T18:28:22.000Z</time>
      </trkpt>
      <trkpt lat="47.49877" lon="6.7645">
        <ele>404</ele>
        <time>2015-06-24T18:28:24.000Z</time>
      </trkpt>
      <trkpt lat="47.49878" lon="6.76451">
        <ele>404</ele>
        <time>2015-06-24T18:28:25.000Z</time>
      </trkpt>
      <trkpt lat="47.49882" lon="6.76454">
        <ele>405</ele>
        <time>2015-06-24T18:28:27.000Z</time>
      </trkpt>
      <trkpt lat="47.49885" lon="6.76455">
        <ele>405</ele>
        <time>2015-06-24T18:28:28.000Z</time>
      </trkpt>
      <trkpt lat="47.49887" lon="6.76455">
        <ele>405</ele>
        <time>2015-06-24T18:28:29.000Z</time>
      </trkpt>
      <trkpt lat="47.49889" lon="6.76456">
        <ele>405</ele>
        <time>2015-06-24T18:28:30.000Z</time>
      </trkpt>
      <trkpt lat="47.49892" lon="6.76456">
        <ele>405</ele>
        <time>2015-06-24T18:28:31.000Z</time>
      </trkpt>
      <trkpt lat="47.49894" lon="6.76456">
        <ele>405</ele>
        <time>2015-06-24T18:28:32.000Z</time>
      </trkpt>
      <trkpt lat="47.49897" lon="6.76457">
        <ele>405</ele>
        <time>2015-06-24T18:28:33.000Z</time>
      </trkpt>
      <trkpt lat="47.49899" lon="6.76458">
        <ele>405</ele>
        <time>2015-06-24T18:28:34.000Z</time>
      </trkpt>
      <trkpt lat="47.49902" lon="6.76459">
        <ele>405</ele>
        <time>2015-06-24T18:28:35.000Z</time>
      </trkpt>
      <trkpt lat="47.49904" lon="6.76461">
        <ele>405</ele>
        <time>2015-06-24T18:28:36.000Z</time>
      </trkpt>
      <trkpt lat="47.49907" lon="6.76463">
        <ele>406</ele>
        <time>2015-06-24T18:28:37.000Z</time>
      </trkpt>
      <trkpt lat="47.4991" lon="6.76464">
        <ele>406</ele>
        <time>2015-06-24T18:28:38.000Z</time>
      </trkpt>
      <trkpt lat="47.49912" lon="6.76465">
        <ele>406</ele>
        <time>2015-06-24T18:28:39.000Z</time>
      </trkpt>
      <trkpt lat="47.49915" lon="6.76466">
        <ele>406</ele>
        <time>2015-06-24T18:28:40.000Z</time>
      </trkpt>
      <trkpt lat="47.49917" lon="6.76467">
        <ele>410</ele>
        <time>2015-06-24T18:28:41.000Z</time>
      </trkpt>
      <trkpt lat="47.49919" lon="6.76468">
        <ele>410</ele>
        <time>2015-06-24T18:28:42.000Z</time>
      </trkpt>
      <trkpt lat="47.49922" lon="6.76471">
        <ele>410</ele>
        <time>2015-06-24T18:28:44.000Z</time>
      </trkpt>
      <trkpt lat="47.49924" lon="6.76473">
        <ele>410</ele>
        <time>2015-06-24T18:28:45.000Z</time>
      </trkpt>
      <trkpt lat="47.49926" lon="6.76476">
        <ele>410</ele>
        <time>2015-06-24T18:28:47.000Z</time>
      </trkpt>
      <trkpt lat="47.49928" lon="6.76477">
        <ele>410</ele>
        <time>2015-06-24T18:28:48.000Z</time>
      </trkpt>
      <trkpt lat="47.49932" lon="6.76479">
        <ele>411</ele>
        <time>2015-06-24T18:28:51.000Z</time>
      </trkpt>
      <trkpt lat="47.49933" lon="6.76479">
        <ele>411</ele>
        <time>2015-06-24T18:28:52.000Z</time>
      </trkpt>
      <trkpt lat="47.49936" lon="6.76481">
        <ele>411</ele>
        <time>2015-06-24T18:28:54.000Z</time>
      </trkpt>
      <trkpt lat="47.49937" lon="6.76483">
        <ele>411</ele>
        <time>2015-06-24T18:28:55.000Z</time>
      </trkpt>
      <trkpt lat="47.49939" lon="6.76484">
        <ele>411</ele>
        <time>2015-06-24T18:28:56.000Z</time>
      </trkpt>
      <trkpt lat="47.49942" lon="6.76485">
        <ele>411</ele>
        <time>2015-06-24T18:28:57.000Z</time>
      </trkpt>
      <trkpt lat="47.49945" lon="6.76486">
        <ele>411</ele>
        <time>2015-06-24T18:28:58.000Z</time>
      </trkpt>
      <trkpt lat="47.49948" lon="6.76487">
        <ele>411</ele>
        <time>2015-06-24T18:28:59.000Z</time>
      </trkpt>
      <trkpt lat="47.49951" lon="6.76488">
        <ele>411</ele>
        <time>2015-06-24T18:29:00.000Z</time>
      </trkpt>
      <trkpt lat="47.49955" lon="6.7649">
        <ele>412</ele>
        <time>2015-06-24T18:29:01.000Z</time>
      </trkpt>
      <trkpt lat="47.49958" lon="6.76491">
        <ele>412</ele>
        <time>2015-06-24T18:29:02.000Z</time>
      </trkpt>
      <trkpt lat="47.49961" lon="6.76492">
        <ele>412</ele>
        <time>2015-06-24T18:29:03.000Z</time>
      </trkpt>
      <trkpt lat="47.49965" lon="6.76493">
        <ele>412</ele>
        <time>2015-06-24T18:29:04.000Z</time>
      </trkpt>
      <trkpt lat="47.49968" lon="6.76494">
        <ele>412</ele>
        <time>2015-06-24T18:29:05.000Z</time>
      </trkpt>
      <trkpt lat="47.49971" lon="6.76495">
        <ele>413</ele>
        <time>2015-06-24T18:29:06.000Z</time>
      </trkpt>
      <trkpt lat="47.49974" lon="6.76495">
        <ele>413</ele>
        <time>2015-06-24T18:29:07.000Z</time>
      </trkpt>
      <trkpt lat="47.49977" lon="6.76496">
        <ele>413</ele>
        <time>2015-06-24T18:29:08.000Z</time>
      </trkpt>
      <trkpt lat="47.49979" lon="6.76496">
        <ele>413</ele>
        <time>2015-06-24T18:29:09.000Z</time>
      </trkpt>
      <trkpt lat="47.49982" lon="6.76496">
        <ele>414</ele>
        <time>2015-06-24T18:29:10.000Z</time>
      </trkpt>
      <trkpt lat="47.49984" lon="6.76496">
        <ele>414</ele>
        <time>2015-06-24T18:29:11.000Z</time>
      </trkpt>
      <trkpt lat="47.49988" lon="6.76495">
        <ele>414</ele>
        <time>2015-06-24T18:29:13.000Z</time>
      </trkpt>
      <trkpt lat="47.49989" lon="6.76494">
        <ele>414</ele>
        <time>2015-06-24T18:29:14.000Z</time>
      </trkpt>
      <trkpt lat="47.49993" lon="6.76493">
        <ele>415</ele>
        <time>2015-06-24T18:29:16.000Z</time>
      </trkpt>
      <trkpt lat="47.49996" lon="6.76493">
        <ele>415</ele>
        <time>2015-06-24T18:29:17.000Z</time>
      </trkpt>
      <trkpt lat="47.49998" lon="6.76493">
        <ele>415</ele>
        <time>2015-06-24T18:29:18.000Z</time>
      </trkpt>
      <trkpt lat="47.50001" lon="6.76492">
        <ele>415</ele>
        <time>2015-06-24T18:29:19.000Z</time>
      </trkpt>
      <trkpt lat="47.50004" lon="6.76491">
        <ele>415</ele>
        <time>2015-06-24T18:29:20.000Z</time>
      </trkpt>
      <trkpt lat="47.50007" lon="6.7649">
        <ele>415</ele>
        <time>2015-06-24T18:29:21.000Z</time>
      </trkpt>
      <trkpt lat="47.5001" lon="6.76489">
        <ele>415</ele>
        <time>2015-06-24T18:29:22.000Z</time>
      </trkpt>
      <trkpt lat="47.50013" lon="6.76488">
        <ele>415</ele>
        <time>2015-06-24T18:29:23.000Z</time>
      </trkpt>
      <trkpt lat="47.50017" lon="6.76487">
        <ele>415</ele>
        <time>2015-06-24T18:29:24.000Z</time>
      </trkpt>
      <trkpt lat="47.50019" lon="6.76486">
        <ele>414</ele>
        <time>2015-06-24T18:29:25.000Z</time>
      </trkpt>
      <trkpt lat="47.50024" lon="6.76488">
        <ele>414</ele>
        <time>2015-06-24T18:29:27.000Z</time>
      </trkpt>
      <trkpt lat="47.50025" lon="6.76489">
        <ele>414</ele>
        <time>2015-06-24T18:29:28.000Z</time>
      </trkpt>
      <trkpt lat="47.50027" lon="6.76493">
        <ele>414</ele>
        <time>2015-06-24T18:29:30.000Z</time>
      </trkpt>
      <trkpt lat="47.50028" lon="6.76496">
        <ele>414</ele>
        <time>2015-06-24T18:29:31.000Z</time>
      </trkpt>
      <trkpt lat="47.5003" lon="6.76501">
        <ele>414</ele>
        <time>2015-06-24T18:29:33.000Z</time>
      </trkpt>
      <trkpt lat="47.50031" lon="6.76504">
        <ele>414</ele>
        <time>2015-06-24T18:29:34.000Z</time>
      </trkpt>
      <trkpt lat="47.50033" lon="6.76509">
        <ele>414</ele>
        <time>2015-06-24T18:29:36.000Z</time>
      </trkpt>
      <trkpt lat="47.50033" lon="6.76512">
        <ele>414</ele>
        <time>2015-06-24T18:29:37.000Z</time>
      </trkpt>
      <trkpt lat="47.50034" lon="6.76515">
        <ele>414</ele>
        <time>2015-06-24T18:29:38.000Z</time>
      </trkpt>
      <trkpt lat="47.50035" lon="6.76519">
        <ele>414</ele>
        <time>2015-06-24T18:29:39.000Z</time>
      </trkpt>
      <trkpt lat="47.50036" lon="6.76523">
        <ele>414</ele>
        <time>2015-06-24T18:29:40.000Z</time>
      </trkpt>
      <trkpt lat="47.50038" lon="6.76526">
        <ele>414</ele>
        <time>2015-06-24T18:29:41.000Z</time>
      </trkpt>
      <trkpt lat="47.5004" lon="6.7653">
        <ele>414</ele>
        <time>2015-06-24T18:29:42.000Z</time>
      </trkpt>
      <trkpt lat="47.50043" lon="6.76534">
        <ele>414</ele>
        <time>2015-06-24T18:29:43.000Z</time>
      </trkpt>
      <trkpt lat="47.50045" lon="6.76539">
        <ele>413</ele>
        <time>2015-06-24T18:29:44.000Z</time>
      </trkpt>
      <trkpt lat="47.50047" lon="6.76543">
        <ele>413</ele>
        <time>2015-06-24T18:29:45.000Z</time>
      </trkpt>
      <trkpt lat="47.50049" lon="6.76548">
        <ele>413</ele>
        <time>2015-06-24T18:29:46.000Z</time>
      </trkpt>
      <trkpt lat="47.5005" lon="6.76552">
        <ele>413</ele>
        <time>2015-06-24T18:29:47.000Z</time>
      </trkpt>
      <trkpt lat="47.5005" lon="6.76555">
        <ele>413</ele>
        <time>2015-06-24T18:29:48.000Z</time>
      </trkpt>
      <trkpt lat="47.5005" lon="6.76558">
        <ele>413</ele>
        <time>2015-06-24T18:29:49.000Z</time>
      </trkpt>
      <trkpt lat="47.5005" lon="6.76564">
        <ele>413</ele>
        <time>2015-06-24T18:29:51.000Z</time>
      </trkpt>
      <trkpt lat="47.5005" lon="6.76567">
        <ele>413</ele>
        <time>2015-06-24T18:29:52.000Z</time>
      </trkpt>
      <trkpt lat="47.50052" lon="6.7657">
        <ele>413</ele>
        <time>2015-06-24T18:29:53.000Z</time>
      </trkpt>
      <trkpt lat="47.50054" lon="6.76572">
        <ele>413</ele>
        <time>2015-06-24T18:29:54.000Z</time>
      </trkpt>
      <trkpt lat="47.50057" lon="6.76574">
        <ele>413</ele>
        <time>2015-06-24T18:29:55.000Z</time>
      </trkpt>
      <trkpt lat="47.50061" lon="6.76576">
        <ele>413</ele>
        <time>2015-06-24T18:29:56.000Z</time>
      </trkpt>
      <trkpt lat="47.50064" lon="6.76578">
        <ele>413</ele>
        <time>2015-06-24T18:29:57.000Z</time>
      </trkpt>
      <trkpt lat="47.50067" lon="6.76581">
        <ele>413</ele>
        <time>2015-06-24T18:29:58.000Z</time>
      </trkpt>
      <trkpt lat="47.5007" lon="6.76583">
        <ele>413</ele>
        <time>2015-06-24T18:29:59.000Z</time>
      </trkpt>
      <trkpt lat="47.50071" lon="6.76587">
        <ele>413</ele>
        <time>2015-06-24T18:30:00.000Z</time>
      </trkpt>
      <trkpt lat="47.50074" lon="6.7659">
        <ele>413</ele>
        <time>2015-06-24T18:30:01.000Z</time>
      </trkpt>
      <trkpt lat="47.50076" lon="6.76594">
        <ele>413</ele>
        <time>2015-06-24T18:30:02.000Z</time>
      </trkpt>
      <trkpt lat="47.50079" lon="6.76599">
        <ele>412</ele>
        <time>2015-06-24T18:30:03.000Z</time>
      </trkpt>
      <trkpt lat="47.50082" lon="6.76603">
        <ele>412</ele>
        <time>2015-06-24T18:30:04.000Z</time>
      </trkpt>
      <trkpt lat="47.50084" lon="6.76607">
        <ele>411</ele>
        <time>2015-06-24T18:30:05.000Z</time>
      </trkpt>
      <trkpt lat="47.50087" lon="6.76611">
        <ele>410</ele>
        <time>2015-06-24T18:30:06.000Z</time>
      </trkpt>
      <trkpt lat="47.5009" lon="6.76615">
        <ele>410</ele>
        <time>2015-06-24T18:30:07.000Z</time>
      </trkpt>
      <trkpt lat="47.50095" lon="6.76617">
        <ele>410</ele>
        <time>2015-06-24T18:30:08.000Z</time>
      </trkpt>
      <trkpt lat="47.50099" lon="6.76619">
        <ele>410</ele>
        <time>2015-06-24T18:30:09.000Z</time>
      </trkpt>
      <trkpt lat="47.50104" lon="6.7662">
        <ele>410</ele>
        <time>2015-06-24T18:30:10.000Z</time>
      </trkpt>
      <trkpt lat="47.50109" lon="6.7662">
        <ele>409</ele>
        <time>2015-06-24T18:30:11.000Z</time>
      </trkpt>
      <trkpt lat="47.50114" lon="6.76619">
        <ele>409</ele>
        <time>2015-06-24T18:30:12.000Z</time>
      </trkpt>
      <trkpt lat="47.50124" lon="6.76617">
        <ele>409</ele>
        <time>2015-06-24T18:30:13.000Z</time>
      </trkpt>
      <trkpt lat="47.5013" lon="6.76614">
        <ele>409</ele>
        <time>2015-06-24T18:30:14.000Z</time>
      </trkpt>
      <trkpt lat="47.50135" lon="6.7661">
        <ele>409</ele>
        <time>2015-06-24T18:30:15.000Z</time>
      </trkpt>
      <trkpt lat="47.50141" lon="6.76609">
        <ele>408</ele>
        <time>2015-06-24T18:30:16.000Z</time>
      </trkpt>
      <trkpt lat="47.50146" lon="6.76607">
        <ele>408</ele>
        <time>2015-06-24T18:30:17.000Z</time>
      </trkpt>
      <trkpt lat="47.50153" lon="6.76606">
        <ele>408</ele>
        <time>2015-06-24T18:30:18.000Z</time>
      </trkpt>
      <trkpt lat="47.50159" lon="6.76607">
        <ele>408</ele>
        <time>2015-06-24T18:30:19.000Z</time>
      </trkpt>
      <trkpt lat="47.50166" lon="6.76608">
        <ele>408</ele>
        <time>2015-06-24T18:30:20.000Z</time>
      </trkpt>
      <trkpt lat="47.50172" lon="6.7661">
        <ele>404</ele>
        <time>2015-06-24T18:30:21.000Z</time>
      </trkpt>
      <trkpt lat="47.50179" lon="6.7661">
        <ele>404</ele>
        <time>2015-06-24T18:30:22.000Z</time>
      </trkpt>
      <trkpt lat="47.50186" lon="6.76611">
        <ele>403</ele>
        <time>2015-06-24T18:30:23.000Z</time>
      </trkpt>
      <trkpt lat="47.50192" lon="6.76613">
        <ele>403</ele>
        <time>2015-06-24T18:30:24.000Z</time>
      </trkpt>
      <trkpt lat="47.50196" lon="6.76618">
        <ele>403</ele>
        <time>2015-06-24T18:30:25.000Z</time>
      </trkpt>
      <trkpt lat="47.50198" lon="6.76624">
        <ele>402</ele>
        <time>2015-06-24T18:30:26.000Z</time>
      </trkpt>
      <trkpt lat="47.502" lon="6.76629">
        <ele>402</ele>
        <time>2015-06-24T18:30:27.000Z</time>
      </trkpt>
      <trkpt lat="47.50202" lon="6.76634">
        <ele>402</ele>
        <time>2015-06-24T18:30:28.000Z</time>
      </trkpt>
      <trkpt lat="47.50204" lon="6.76638">
        <ele>402</ele>
        <time>2015-06-24T18:30:29.000Z</time>
      </trkpt>
      <trkpt lat="47.50206" lon="6.76643">
        <ele>402</ele>
        <time>2015-06-24T18:30:30.000Z</time>
      </trkpt>
      <trkpt lat="47.50207" lon="6.76647">
        <ele>402</ele>
        <time>2015-06-24T18:30:31.000Z</time>
      </trkpt>
      <trkpt lat="47.50209" lon="6.76651">
        <ele>402</ele>
        <time>2015-06-24T18:30:32.000Z</time>
      </trkpt>
      <trkpt lat="47.5021" lon="6.76656">
        <ele>402</ele>
        <time>2015-06-24T18:30:33.000Z</time>
      </trkpt>
      <trkpt lat="47.50211" lon="6.7666">
        <ele>402</ele>
        <time>2015-06-24T18:30:34.000Z</time>
      </trkpt>
      <trkpt lat="47.50212" lon="6.76664">
        <ele>402</ele>
        <time>2015-06-24T18:30:35.000Z</time>
      </trkpt>
      <trkpt lat="47.50214" lon="6.76668">
        <ele>402</ele>
        <time>2015-06-24T18:30:36.000Z</time>
      </trkpt>
      <trkpt lat="47.50215" lon="6.76673">
        <ele>402</ele>
        <time>2015-06-24T18:30:37.000Z</time>
      </trkpt>
      <trkpt lat="47.50217" lon="6.76677">
        <ele>402</ele>
        <time>2015-06-24T18:30:38.000Z</time>
      </trkpt>
      <trkpt lat="47.50218" lon="6.76681">
        <ele>402</ele>
        <time>2015-06-24T18:30:39.000Z</time>
      </trkpt>
      <trkpt lat="47.5022" lon="6.76686">
        <ele>402</ele>
        <time>2015-06-24T18:30:40.000Z</time>
      </trkpt>
      <trkpt lat="47.50222" lon="6.7669">
        <ele>402</ele>
        <time>2015-06-24T18:30:41.000Z</time>
      </trkpt>
      <trkpt lat="47.50224" lon="6.76694">
        <ele>402</ele>
        <time>2015-06-24T18:30:42.000Z</time>
      </trkpt>
      <trkpt lat="47.50226" lon="6.76698">
        <ele>402</ele>
        <time>2015-06-24T18:30:43.000Z</time>
      </trkpt>
      <trkpt lat="47.50227" lon="6.76703">
        <ele>402</ele>
        <time>2015-06-24T18:30:44.000Z</time>
      </trkpt>
      <trkpt lat="47.50229" lon="6.76707">
        <ele>402</ele>
        <time>2015-06-24T18:30:45.000Z</time>
      </trkpt>
      <trkpt lat="47.5023" lon="6.76712">
        <ele>402</ele>
        <time>2015-06-24T18:30:46.000Z</time>
      </trkpt>
      <trkpt lat="47.50232" lon="6.76716">
        <ele>402</ele>
        <time>2015-06-24T18:30:47.000Z</time>
      </trkpt>
      <trkpt lat="47.50233" lon="6.7672">
        <ele>402</ele>
        <time>2015-06-24T18:30:48.000Z</time>
      </trkpt>
      <trkpt lat="47.50235" lon="6.76724">
        <ele>401</ele>
        <time>2015-06-24T18:30:49.000Z</time>
      </trkpt>
      <trkpt lat="47.50237" lon="6.76728">
        <ele>401</ele>
        <time>2015-06-24T18:30:50.000Z</time>
      </trkpt>
      <trkpt lat="47.5024" lon="6.76732">
        <ele>401</ele>
        <time>2015-06-24T18:30:51.000Z</time>
      </trkpt>
      <trkpt lat="47.50242" lon="6.76737">
        <ele>401</ele>
        <time>2015-06-24T18:30:52.000Z</time>
      </trkpt>
      <trkpt lat="47.50245" lon="6.76741">
        <ele>401</ele>
        <time>2015-06-24T18:30:53.000Z</time>
      </trkpt>
      <trkpt lat="47.50248" lon="6.76745">
        <ele>400</ele>
        <time>2015-06-24T18:30:54.000Z</time>
      </trkpt>
      <trkpt lat="47.50253" lon="6.76748">
        <ele>400</ele>
        <time>2015-06-24T18:30:55.000Z</time>
      </trkpt>
      <trkpt lat="47.50257" lon="6.76749">
        <ele>400</ele>
        <time>2015-06-24T18:30:56.000Z</time>
      </trkpt>
      <trkpt lat="47.50261" lon="6.76749">
        <ele>399</ele>
        <time>2015-06-24T18:30:57.000Z</time>
      </trkpt>
      <trkpt lat="47.50269" lon="6.76741">
        <ele>399</ele>
        <time>2015-06-24T18:30:58.000Z</time>
      </trkpt>
      <trkpt lat="47.50273" lon="6.7674">
        <ele>399</ele>
        <time>2015-06-24T18:30:59.000Z</time>
      </trkpt>
      <trkpt lat="47.50277" lon="6.76739">
        <ele>399</ele>
        <time>2015-06-24T18:31:00.000Z</time>
      </trkpt>
      <trkpt lat="47.50282" lon="6.76738">
        <ele>399</ele>
        <time>2015-06-24T18:31:01.000Z</time>
      </trkpt>
      <trkpt lat="47.50286" lon="6.76738">
        <ele>399</ele>
        <time>2015-06-24T18:31:02.000Z</time>
      </trkpt>
      <trkpt lat="47.50289" lon="6.76738">
        <ele>399</ele>
        <time>2015-06-24T18:31:03.000Z</time>
      </trkpt>
      <trkpt lat="47.50293" lon="6.76736">
        <ele>399</ele>
        <time>2015-06-24T18:31:04.000Z</time>
      </trkpt>
      <trkpt lat="47.50298" lon="6.76735">
        <ele>399</ele>
        <time>2015-06-24T18:31:05.001Z</time>
      </trkpt>
      <trkpt lat="47.50302" lon="6.76733">
        <ele>398</ele>
        <time>2015-06-24T18:31:06.000Z</time>
      </trkpt>
      <trkpt lat="47.50306" lon="6.76732">
        <ele>398</ele>
        <time>2015-06-24T18:31:07.000Z</time>
      </trkpt>
      <trkpt lat="47.5031" lon="6.76731">
        <ele>398</ele>
        <time>2015-06-24T18:31:08.000Z</time>
      </trkpt>
      <trkpt lat="47.50314" lon="6.7673">
        <ele>398</ele>
        <time>2015-06-24T18:31:09.000Z</time>
      </trkpt>
      <trkpt lat="47.50318" lon="6.76729">
        <ele>398</ele>
        <time>2015-06-24T18:31:10.000Z</time>
      </trkpt>
      <trkpt lat="47.50322" lon="6.76727">
        <ele>398</ele>
        <time>2015-06-24T18:31:11.000Z</time>
      </trkpt>
      <trkpt lat="47.50326" lon="6.76726">
        <ele>398</ele>
        <time>2015-06-24T18:31:12.000Z</time>
      </trkpt>
      <trkpt lat="47.5033" lon="6.76726">
        <ele>398</ele>
        <time>2015-06-24T18:31:13.000Z</time>
      </trkpt>
      <trkpt lat="47.50333" lon="6.76725">
        <ele>398</ele>
        <time>2015-06-24T18:31:14.000Z</time>
      </trkpt>
      <trkpt lat="47.50337" lon="6.76724">
        <ele>398</ele>
        <time>2015-06-24T18:31:15.000Z</time>
      </trkpt>
      <trkpt lat="47.5034" lon="6.76722">
        <ele>398</ele>
        <time>2015-06-24T18:31:16.000Z</time>
      </trkpt>
      <trkpt lat="47.50344" lon="6.76721">
        <ele>398</ele>
        <time>2015-06-24T18:31:17.000Z</time>
      </trkpt>
      <trkpt lat="47.50348" lon="6.7672">
        <ele>398</ele>
        <time>2015-06-24T18:31:18.000Z</time>
      </trkpt>
      <trkpt lat="47.50351" lon="6.76719">
        <ele>398</ele>
        <time>2015-06-24T18:31:19.000Z</time>
      </trkpt>
      <trkpt lat="47.50355" lon="6.76718">
        <ele>398</ele>
        <time>2015-06-24T18:31:20.000Z</time>
      </trkpt>
      <trkpt lat="47.50359" lon="6.76717">
        <ele>398</ele>
        <time>2015-06-24T18:31:21.000Z</time>
      </trkpt>
      <trkpt lat="47.50363" lon="6.76715">
        <ele>398</ele>
        <time>2015-06-24T18:31:22.000Z</time>
      </trkpt>
      <trkpt lat="47.50367" lon="6.76714">
        <ele>398</ele>
        <time>2015-06-24T18:31:23.000Z</time>
      </trkpt>
      <trkpt lat="47.50371" lon="6.76712">
        <ele>398</ele>
        <time>2015-06-24T18:31:24.000Z</time>
      </trkpt>
      <trkpt lat="47.50375" lon="6.76711">
        <ele>398</ele>
        <time>2015-06-24T18:31:25.000Z</time>
      </trkpt>
      <trkpt lat="47.50379" lon="6.76709">
        <ele>398</ele>
        <time>2015-06-24T18:31:26.000Z</time>
      </trkpt>
      <trkpt lat="47.50383" lon="6.76708">
        <ele>398</ele>
        <time>2015-06-24T18:31:27.000Z</time>
      </trkpt>
      <trkpt lat="47.50386" lon="6.76708">
        <ele>397</ele>
        <time>2015-06-24T18:31:28.000Z</time>
      </trkpt>
      <trkpt lat="47.5039" lon="6.76707">
        <ele>397</ele>
        <time>2015-06-24T18:31:29.000Z</time>
      </trkpt>
      <trkpt lat="47.50393" lon="6.76706">
        <ele>397</ele>
        <time>2015-06-24T18:31:30.000Z</time>
      </trkpt>
      <trkpt lat="47.50396" lon="6.76705">
        <ele>397</ele>
        <time>2015-06-24T18:31:31.000Z</time>
      </trkpt>
      <trkpt lat="47.504" lon="6.76703">
        <ele>397</ele>
        <time>2015-06-24T18:31:32.000Z</time>
      </trkpt>
      <trkpt lat="47.50403" lon="6.76702">
        <ele>397</ele>
        <time>2015-06-24T18:31:33.000Z</time>
      </trkpt>
      <trkpt lat="47.50407" lon="6.767">
        <ele>397</ele>
        <time>2015-06-24T18:31:34.000Z</time>
      </trkpt>
      <trkpt lat="47.5041" lon="6.76698">
        <ele>397</ele>
        <time>2015-06-24T18:31:35.000Z</time>
      </trkpt>
      <trkpt lat="47.50414" lon="6.76696">
        <ele>397</ele>
        <time>2015-06-24T18:31:36.000Z</time>
      </trkpt>
      <trkpt lat="47.50418" lon="6.76695">
        <ele>397</ele>
        <time>2015-06-24T18:31:37.000Z</time>
      </trkpt>
      <trkpt lat="47.50422" lon="6.76693">
        <ele>397</ele>
        <time>2015-06-24T18:31:38.000Z</time>
      </trkpt>
      <trkpt lat="47.50426" lon="6.76691">
        <ele>397</ele>
        <time>2015-06-24T18:31:39.000Z</time>
      </trkpt>
      <trkpt lat="47.5043" lon="6.7669">
        <ele>397</ele>
        <time>2015-06-24T18:31:40.000Z</time>
      </trkpt>
      <trkpt lat="47.50434" lon="6.76688">
        <ele>397</ele>
        <time>2015-06-24T18:31:41.000Z</time>
      </trkpt>
      <trkpt lat="47.50437" lon="6.76687">
        <ele>397</ele>
        <time>2015-06-24T18:31:42.000Z</time>
      </trkpt>
      <trkpt lat="47.50441" lon="6.76685">
        <ele>397</ele>
        <time>2015-06-24T18:31:43.000Z</time>
      </trkpt>
      <trkpt lat="47.50445" lon="6.76683">
        <ele>397</ele>
        <time>2015-06-24T18:31:44.000Z</time>
      </trkpt>
      <trkpt lat="47.50449" lon="6.76681">
        <ele>397</ele>
        <time>2015-06-24T18:31:45.000Z</time>
      </trkpt>
      <trkpt lat="47.50453" lon="6.7668">
        <ele>397</ele>
        <time>2015-06-24T18:31:46.000Z</time>
      </trkpt>
      <trkpt lat="47.50457" lon="6.76678">
        <ele>397</ele>
        <time>2015-06-24T18:31:47.000Z</time>
      </trkpt>
      <trkpt lat="47.50461" lon="6.76677">
        <ele>397</ele>
        <time>2015-06-24T18:31:48.000Z</time>
      </trkpt>
      <trkpt lat="47.50465" lon="6.76675">
        <ele>397</ele>
        <time>2015-06-24T18:31:49.000Z</time>
      </trkpt>
      <trkpt lat="47.50469" lon="6.76674">
        <ele>397</ele>
        <time>2015-06-24T18:31:50.000Z</time>
      </trkpt>
      <trkpt lat="47.50473" lon="6.76672">
        <ele>397</ele>
        <time>2015-06-24T18:31:51.000Z</time>
      </trkpt>
      <trkpt lat="47.50477" lon="6.76671">
        <ele>397</ele>
        <time>2015-06-24T18:31:52.000Z</time>
      </trkpt>
      <trkpt lat="47.50481" lon="6.7667">
        <ele>398</ele>
        <time>2015-06-24T18:31:53.000Z</time>
      </trkpt>
      <trkpt lat="47.50484" lon="6.76669">
        <ele>398</ele>
        <time>2015-06-24T18:31:54.000Z</time>
      </trkpt>
      <trkpt lat="47.50488" lon="6.76668">
        <ele>398</ele>
        <time>2015-06-24T18:31:55.000Z</time>
      </trkpt>
      <trkpt lat="47.50492" lon="6.76666">
        <ele>399</ele>
        <time>2015-06-24T18:31:56.000Z</time>
      </trkpt>
      <trkpt lat="47.50495" lon="6.76664">
        <ele>399</ele>
        <time>2015-06-24T18:31:57.000Z</time>
      </trkpt>
      <trkpt lat="47.50499" lon="6.76662">
        <ele>399</ele>
        <time>2015-06-24T18:31:58.000Z</time>
      </trkpt>
      <trkpt lat="47.50503" lon="6.7666">
        <ele>399</ele>
        <time>2015-06-24T18:31:59.000Z</time>
      </trkpt>
      <trkpt lat="47.50507" lon="6.76658">
        <ele>399</ele>
        <time>2015-06-24T18:32:00.000Z</time>
      </trkpt>
      <trkpt lat="47.50511" lon="6.76657">
        <ele>399</ele>
        <time>2015-06-24T18:32:01.000Z</time>
      </trkpt>
      <trkpt lat="47.50515" lon="6.76655">
        <ele>399</ele>
        <time>2015-06-24T18:32:02.000Z</time>
      </trkpt>
      <trkpt lat="47.50518" lon="6.76654">
        <ele>399</ele>
        <time>2015-06-24T18:32:03.000Z</time>
      </trkpt>
      <trkpt lat="47.50522" lon="6.76652">
        <ele>399</ele>
        <time>2015-06-24T18:32:04.000Z</time>
      </trkpt>
      <trkpt lat="47.50526" lon="6.76651">
        <ele>399</ele>
        <time>2015-06-24T18:32:05.000Z</time>
      </trkpt>
      <trkpt lat="47.50529" lon="6.76649">
        <ele>399</ele>
        <time>2015-06-24T18:32:06.000Z</time>
      </trkpt>
      <trkpt lat="47.50533" lon="6.76648">
        <ele>399</ele>
        <time>2015-06-24T18:32:07.000Z</time>
      </trkpt>
      <trkpt lat="47.50536" lon="6.76647">
        <ele>399</ele>
        <time>2015-06-24T18:32:08.000Z</time>
      </trkpt>
      <trkpt lat="47.5054" lon="6.76645">
        <ele>399</ele>
        <time>2015-06-24T18:32:09.000Z</time>
      </trkpt>
      <trkpt lat="47.50544" lon="6.76644">
        <ele>399</ele>
        <time>2015-06-24T18:32:10.000Z</time>
      </trkpt>
      <trkpt lat="47.50547" lon="6.76643">
        <ele>399</ele>
        <time>2015-06-24T18:32:11.000Z</time>
      </trkpt>
      <trkpt lat="47.50551" lon="6.76642">
        <ele>399</ele>
        <time>2015-06-24T18:32:12.000Z</time>
      </trkpt>
      <trkpt lat="47.50555" lon="6.76641">
        <ele>399</ele>
        <time>2015-06-24T18:32:13.000Z</time>
      </trkpt>
      <trkpt lat="47.5056" lon="6.7664">
        <ele>399</ele>
        <time>2015-06-24T18:32:14.000Z</time>
      </trkpt>
      <trkpt lat="47.50564" lon="6.76639">
        <ele>399</ele>
        <time>2015-06-24T18:32:15.000Z</time>
      </trkpt>
      <trkpt lat="47.50568" lon="6.76639">
        <ele>399</ele>
        <time>2015-06-24T18:32:16.000Z</time>
      </trkpt>
      <trkpt lat="47.50572" lon="6.76638">
        <ele>399</ele>
        <time>2015-06-24T18:32:17.000Z</time>
      </trkpt>
      <trkpt lat="47.50578" lon="6.76634">
        <ele>399</ele>
        <time>2015-06-24T18:32:18.000Z</time>
      </trkpt>
      <trkpt lat="47.50583" lon="6.76632">
        <ele>399</ele>
        <time>2015-06-24T18:32:19.000Z</time>
      </trkpt>
      <trkpt lat="47.50588" lon="6.76631">
        <ele>398</ele>
        <time>2015-06-24T18:32:20.000Z</time>
      </trkpt>
      <trkpt lat="47.50593" lon="6.7663">
        <ele>398</ele>
        <time>2015-06-24T18:32:21.000Z</time>
      </trkpt>
      <trkpt lat="47.50598" lon="6.76627">
        <ele>398</ele>
        <time>2015-06-24T18:32:22.000Z</time>
      </trkpt>
      <trkpt lat="47.50602" lon="6.76625">
        <ele>398</ele>
        <time>2015-06-24T18:32:23.000Z</time>
      </trkpt>
      <trkpt lat="47.50607" lon="6.76623">
        <ele>398</ele>
        <time>2015-06-24T18:32:24.002Z</time>
      </trkpt>
      <trkpt lat="47.50611" lon="6.76621">
        <ele>397</ele>
        <time>2015-06-24T18:32:25.000Z</time>
      </trkpt>
      <trkpt lat="47.50616" lon="6.7662">
        <ele>397</ele>
        <time>2015-06-24T18:32:26.000Z</time>
      </trkpt>
      <trkpt lat="47.5062" lon="6.76618">
        <ele>397</ele>
        <time>2015-06-24T18:32:27.000Z</time>
      </trkpt>
      <trkpt lat="47.50625" lon="6.76615">
        <ele>397</ele>
        <time>2015-06-24T18:32:28.000Z</time>
      </trkpt>
      <trkpt lat="47.50629" lon="6.76611">
        <ele>397</ele>
        <time>2015-06-24T18:32:29.000Z</time>
      </trkpt>
      <trkpt lat="47.50632" lon="6.76609">
        <ele>397</ele>
        <time>2015-06-24T18:32:30.000Z</time>
      </trkpt>
      <trkpt lat="47.50637" lon="6.76604">
        <ele>397</ele>
        <time>2015-06-24T18:32:31.000Z</time>
      </trkpt>
      <trkpt lat="47.50642" lon="6.76603">
        <ele>397</ele>
        <time>2015-06-24T18:32:32.000Z</time>
      </trkpt>
      <trkpt lat="47.50647" lon="6.76601">
        <ele>397</ele>
        <time>2015-06-24T18:32:33.000Z</time>
      </trkpt>
      <trkpt lat="47.50653" lon="6.76599">
        <ele>397</ele>
        <time>2015-06-24T18:32:34.000Z</time>
      </trkpt>
      <trkpt lat="47.50657" lon="6.76599">
        <ele>397</ele>
        <time>2015-06-24T18:32:35.000Z</time>
      </trkpt>
      <trkpt lat="47.50663" lon="6.76599">
        <ele>397</ele>
        <time>2015-06-24T18:32:36.000Z</time>
      </trkpt>
      <trkpt lat="47.50668" lon="6.76599">
        <ele>396</ele>
        <time>2015-06-24T18:32:37.000Z</time>
      </trkpt>
      <trkpt lat="47.50673" lon="6.76599">
        <ele>396</ele>
        <time>2015-06-24T18:32:38.000Z</time>
      </trkpt>
      <trkpt lat="47.50679" lon="6.76597">
        <ele>396</ele>
        <time>2015-06-24T18:32:39.000Z</time>
      </trkpt>
      <trkpt lat="47.50686" lon="6.76596">
        <ele>395</ele>
        <time>2015-06-24T18:32:40.000Z</time>
      </trkpt>
      <trkpt lat="47.50692" lon="6.76595">
        <ele>395</ele>
        <time>2015-06-24T18:32:41.000Z</time>
      </trkpt>
      <trkpt lat="47.50698" lon="6.76595">
        <ele>395</ele>
        <time>2015-06-24T18:32:42.000Z</time>
      </trkpt>
      <trkpt lat="47.50704" lon="6.76594">
        <ele>395</ele>
        <time>2015-06-24T18:32:43.000Z</time>
      </trkpt>
      <trkpt lat="47.50712" lon="6.76593">
        <ele>395</ele>
        <time>2015-06-24T18:32:44.000Z</time>
      </trkpt>
      <trkpt lat="47.50718" lon="6.76593">
        <ele>394</ele>
        <time>2015-06-24T18:32:45.001Z</time>
      </trkpt>
      <trkpt lat="47.50723" lon="6.76594">
        <ele>394</ele>
        <time>2015-06-24T18:32:46.000Z</time>
      </trkpt>
      <trkpt lat="47.50727" lon="6.76594">
        <ele>394</ele>
        <time>2015-06-24T18:32:47.000Z</time>
      </trkpt>
      <trkpt lat="47.50733" lon="6.76595">
        <ele>394</ele>
        <time>2015-06-24T18:32:48.000Z</time>
      </trkpt>
      <trkpt lat="47.50738" lon="6.76595">
        <ele>394</ele>
        <time>2015-06-24T18:32:49.000Z</time>
      </trkpt>
      <trkpt lat="47.50744" lon="6.76595">
        <ele>394</ele>
        <time>2015-06-24T18:32:50.000Z</time>
      </trkpt>
      <trkpt lat="47.50748" lon="6.76596">
        <ele>394</ele>
        <time>2015-06-24T18:32:51.000Z</time>
      </trkpt>
      <trkpt lat="47.50755" lon="6.76595">
        <ele>393</ele>
        <time>2015-06-24T18:32:52.000Z</time>
      </trkpt>
      <trkpt lat="47.5076" lon="6.76595">
        <ele>392</ele>
        <time>2015-06-24T18:32:53.000Z</time>
      </trkpt>
      <trkpt lat="47.50766" lon="6.76593">
        <ele>392</ele>
        <time>2015-06-24T18:32:54.000Z</time>
      </trkpt>
      <trkpt lat="47.50772" lon="6.76593">
        <ele>392</ele>
        <time>2015-06-24T18:32:55.000Z</time>
      </trkpt>
      <trkpt lat="47.50778" lon="6.76591">
        <ele>392</ele>
        <time>2015-06-24T18:32:56.000Z</time>
      </trkpt>
      <trkpt lat="47.50784" lon="6.7659">
        <ele>391</ele>
        <time>2015-06-24T18:32:57.000Z</time>
      </trkpt>
      <trkpt lat="47.5079" lon="6.76588">
        <ele>391</ele>
        <time>2015-06-24T18:32:58.000Z</time>
      </trkpt>
      <trkpt lat="47.50796" lon="6.76587">
        <ele>391</ele>
        <time>2015-06-24T18:32:59.000Z</time>
      </trkpt>
      <trkpt lat="47.50802" lon="6.76587">
        <ele>391</ele>
        <time>2015-06-24T18:33:00.000Z</time>
      </trkpt>
      <trkpt lat="47.50807" lon="6.76585">
        <ele>390</ele>
        <time>2015-06-24T18:33:01.000Z</time>
      </trkpt>
      <trkpt lat="47.50809" lon="6.76589">
        <ele>390</ele>
        <time>2015-06-24T18:33:03.000Z</time>
      </trkpt>
      <trkpt lat="47.5081" lon="6.76591">
        <ele>390</ele>
        <time>2015-06-24T18:33:04.000Z</time>
      </trkpt>
      <trkpt lat="47.50811" lon="6.76593">
        <ele>390</ele>
        <time>2015-06-24T18:33:05.000Z</time>
      </trkpt>
      <trkpt lat="47.50813" lon="6.76597">
        <ele>390</ele>
        <time>2015-06-24T18:33:06.000Z</time>
      </trkpt>
      <trkpt lat="47.50816" lon="6.766">
        <ele>390</ele>
        <time>2015-06-24T18:33:07.000Z</time>
      </trkpt>
      <trkpt lat="47.50818" lon="6.76605">
        <ele>390</ele>
        <time>2015-06-24T18:33:08.000Z</time>
      </trkpt>
      <trkpt lat="47.5082" lon="6.7661">
        <ele>390</ele>
        <time>2015-06-24T18:33:09.000Z</time>
      </trkpt>
      <trkpt lat="47.50822" lon="6.76617">
        <ele>390</ele>
        <time>2015-06-24T18:33:10.000Z</time>
      </trkpt>
      <trkpt lat="47.50824" lon="6.76624">
        <ele>390</ele>
        <time>2015-06-24T18:33:11.000Z</time>
      </trkpt>
      <trkpt lat="47.50827" lon="6.76631">
        <ele>390</ele>
        <time>2015-06-24T18:33:12.000Z</time>
      </trkpt>
      <trkpt lat="47.5083" lon="6.76639">
        <ele>390</ele>
        <time>2015-06-24T18:33:13.000Z</time>
      </trkpt>
      <trkpt lat="47.50833" lon="6.76647">
        <ele>387</ele>
        <time>2015-06-24T18:33:14.000Z</time>
      </trkpt>
      <trkpt lat="47.50837" lon="6.76656">
        <ele>388</ele>
        <time>2015-06-24T18:33:15.000Z</time>
      </trkpt>
      <trkpt lat="47.5084" lon="6.76664">
        <ele>388</ele>
        <time>2015-06-24T18:33:16.000Z</time>
      </trkpt>
      <trkpt lat="47.50842" lon="6.76673">
        <ele>387</ele>
        <time>2015-06-24T18:33:17.000Z</time>
      </trkpt>
      <trkpt lat="47.50845" lon="6.76683">
        <ele>386</ele>
        <time>2015-06-24T18:33:18.000Z</time>
      </trkpt>
      <trkpt lat="47.50849" lon="6.76692">
        <ele>385</ele>
        <time>2015-06-24T18:33:19.000Z</time>
      </trkpt>
      <trkpt lat="47.50852" lon="6.76702">
        <ele>384</ele>
        <time>2015-06-24T18:33:20.000Z</time>
      </trkpt>
      <trkpt lat="47.50856" lon="6.7671">
        <ele>384</ele>
        <time>2015-06-24T18:33:21.000Z</time>
      </trkpt>
      <trkpt lat="47.50859" lon="6.76719">
        <ele>384</ele>
        <time>2015-06-24T18:33:22.000Z</time>
      </trkpt>
      <trkpt lat="47.50861" lon="6.76728">
        <ele>384</ele>
        <time>2015-06-24T18:33:23.000Z</time>
      </trkpt>
      <trkpt lat="47.50865" lon="6.76737">
        <ele>384</ele>
        <time>2015-06-24T18:33:24.000Z</time>
      </trkpt>
      <trkpt lat="47.50868" lon="6.76745">
        <ele>383</ele>
        <time>2015-06-24T18:33:25.000Z</time>
      </trkpt>
      <trkpt lat="47.50871" lon="6.76755">
        <ele>382</ele>
        <time>2015-06-24T18:33:26.000Z</time>
      </trkpt>
      <trkpt lat="47.50875" lon="6.76763">
        <ele>382</ele>
        <time>2015-06-24T18:33:27.000Z</time>
      </trkpt>
      <trkpt lat="47.50879" lon="6.76772">
        <ele>382</ele>
        <time>2015-06-24T18:33:28.000Z</time>
      </trkpt>
      <trkpt lat="47.50883" lon="6.76781">
        <ele>381</ele>
        <time>2015-06-24T18:33:29.000Z</time>
      </trkpt>
      <trkpt lat="47.50887" lon="6.76789">
        <ele>381</ele>
        <time>2015-06-24T18:33:30.000Z</time>
      </trkpt>
      <trkpt lat="47.50891" lon="6.76797">
        <ele>381</ele>
        <time>2015-06-24T18:33:31.000Z</time>
      </trkpt>
      <trkpt lat="47.50894" lon="6.76806">
        <ele>381</ele>
        <time>2015-06-24T18:33:32.000Z</time>
      </trkpt>
      <trkpt lat="47.50899" lon="6.76815">
        <ele>381</ele>
        <time>2015-06-24T18:33:33.000Z</time>
      </trkpt>
      <trkpt lat="47.50904" lon="6.76823">
        <ele>381</ele>
        <time>2015-06-24T18:33:34.000Z</time>
      </trkpt>
      <trkpt lat="47.50908" lon="6.76833">
        <ele>380</ele>
        <time>2015-06-24T18:33:35.000Z</time>
      </trkpt>
      <trkpt lat="47.50912" lon="6.76842">
        <ele>380</ele>
        <time>2015-06-24T18:33:36.000Z</time>
      </trkpt>
      <trkpt lat="47.50916" lon="6.7685">
        <ele>380</ele>
        <time>2015-06-24T18:33:37.000Z</time>
      </trkpt>
      <trkpt lat="47.50921" lon="6.76858">
        <ele>378</ele>
        <time>2015-06-24T18:33:38.000Z</time>
      </trkpt>
      <trkpt lat="47.50924" lon="6.76865">
        <ele>378</ele>
        <time>2015-06-24T18:33:39.000Z</time>
      </trkpt>
      <trkpt lat="47.50928" lon="6.76874">
        <ele>378</ele>
        <time>2015-06-24T18:33:40.000Z</time>
      </trkpt>
      <trkpt lat="47.50935" lon="6.76881">
        <ele>378</ele>
        <time>2015-06-24T18:33:41.000Z</time>
      </trkpt>
      <trkpt lat="47.50941" lon="6.76887">
        <ele>378</ele>
        <time>2015-06-24T18:33:42.000Z</time>
      </trkpt>
      <trkpt lat="47.50947" lon="6.76894">
        <ele>378</ele>
        <time>2015-06-24T18:33:43.000Z</time>
      </trkpt>
      <trkpt lat="47.50953" lon="6.76902">
        <ele>377</ele>
        <time>2015-06-24T18:33:44.000Z</time>
      </trkpt>
      <trkpt lat="47.50958" lon="6.76911">
        <ele>377</ele>
        <time>2015-06-24T18:33:45.000Z</time>
      </trkpt>
      <trkpt lat="47.50963" lon="6.76918">
        <ele>374</ele>
        <time>2015-06-24T18:33:46.000Z</time>
      </trkpt>
      <trkpt lat="47.50968" lon="6.76927">
        <ele>374</ele>
        <time>2015-06-24T18:33:47.000Z</time>
      </trkpt>
      <trkpt lat="47.50973" lon="6.76934">
        <ele>374</ele>
        <time>2015-06-24T18:33:48.000Z</time>
      </trkpt>
      <trkpt lat="47.50979" lon="6.76939">
        <ele>374</ele>
        <time>2015-06-24T18:33:49.000Z</time>
      </trkpt>
      <trkpt lat="47.50986" lon="6.76942">
        <ele>374</ele>
        <time>2015-06-24T18:33:50.000Z</time>
      </trkpt>
      <trkpt lat="47.50993" lon="6.76941">
        <ele>374</ele>
        <time>2015-06-24T18:33:51.000Z</time>
      </trkpt>
      <trkpt lat="47.51001" lon="6.76941">
        <ele>375</ele>
        <time>2015-06-24T18:33:52.000Z</time>
      </trkpt>
      <trkpt lat="47.51008" lon="6.76942">
        <ele>375</ele>
        <time>2015-06-24T18:33:53.000Z</time>
      </trkpt>
      <trkpt lat="47.51015" lon="6.76945">
        <ele>375</ele>
        <time>2015-06-24T18:33:54.000Z</time>
      </trkpt>
      <trkpt lat="47.51021" lon="6.76948">
        <ele>375</ele>
        <time>2015-06-24T18:33:55.000Z</time>
      </trkpt>
      <trkpt lat="47.51027" lon="6.76951">
        <ele>375</ele>
        <time>2015-06-24T18:33:56.000Z</time>
      </trkpt>
      <trkpt lat="47.51034" lon="6.76956">
        <ele>375</ele>
        <time>2015-06-24T18:33:57.000Z</time>
      </trkpt>
      <trkpt lat="47.51039" lon="6.76962">
        <ele>375</ele>
        <time>2015-06-24T18:33:58.000Z</time>
      </trkpt>
      <trkpt lat="47.51045" lon="6.76967">
        <ele>375</ele>
        <time>2015-06-24T18:33:59.000Z</time>
      </trkpt>
      <trkpt lat="47.51051" lon="6.76973">
        <ele>375</ele>
        <time>2015-06-24T18:34:00.000Z</time>
      </trkpt>
      <trkpt lat="47.51056" lon="6.7698">
        <ele>375</ele>
        <time>2015-06-24T18:34:01.000Z</time>
      </trkpt>
      <trkpt lat="47.51061" lon="6.76984">
        <ele>375</ele>
        <time>2015-06-24T18:34:02.000Z</time>
      </trkpt>
      <trkpt lat="47.51066" lon="6.7699">
        <ele>375</ele>
        <time>2015-06-24T18:34:03.000Z</time>
      </trkpt>
      <trkpt lat="47.51071" lon="6.76995">
        <ele>375</ele>
        <time>2015-06-24T18:34:04.000Z</time>
      </trkpt>
      <trkpt lat="47.51076" lon="6.77">
        <ele>374</ele>
        <time>2015-06-24T18:34:05.000Z</time>
      </trkpt>
      <trkpt lat="47.51081" lon="6.77004">
        <ele>374</ele>
        <time>2015-06-24T18:34:06.000Z</time>
      </trkpt>
      <trkpt lat="47.51086" lon="6.7701">
        <ele>375</ele>
        <time>2015-06-24T18:34:07.000Z</time>
      </trkpt>
      <trkpt lat="47.51091" lon="6.77016">
        <ele>375</ele>
        <time>2015-06-24T18:34:08.000Z</time>
      </trkpt>
      <trkpt lat="47.51096" lon="6.7702">
        <ele>375</ele>
        <time>2015-06-24T18:34:09.000Z</time>
      </trkpt>
      <trkpt lat="47.51101" lon="6.77024">
        <ele>375</ele>
        <time>2015-06-24T18:34:10.000Z</time>
      </trkpt>
      <trkpt lat="47.51106" lon="6.77029">
        <ele>375</ele>
        <time>2015-06-24T18:34:11.000Z</time>
      </trkpt>
      <trkpt lat="47.51112" lon="6.77033">
        <ele>375</ele>
        <time>2015-06-24T18:34:12.000Z</time>
      </trkpt>
      <trkpt lat="47.51118" lon="6.77038">
        <ele>375</ele>
        <time>2015-06-24T18:34:13.000Z</time>
      </trkpt>
      <trkpt lat="47.51123" lon="6.77042">
        <ele>375</ele>
        <time>2015-06-24T18:34:14.000Z</time>
      </trkpt>
      <trkpt lat="47.51129" lon="6.77046">
        <ele>375</ele>
        <time>2015-06-24T18:34:15.000Z</time>
      </trkpt>
      <trkpt lat="47.51135" lon="6.77049">
        <ele>375</ele>
        <time>2015-06-24T18:34:16.000Z</time>
      </trkpt>
      <trkpt lat="47.5114" lon="6.77053">
        <ele>376</ele>
        <time>2015-06-24T18:34:17.000Z</time>
      </trkpt>
      <trkpt lat="47.51145" lon="6.77057">
        <ele>376</ele>
        <time>2015-06-24T18:34:18.000Z</time>
      </trkpt>
      <trkpt lat="47.5115" lon="6.77061">
        <ele>376</ele>
        <time>2015-06-24T18:34:19.000Z</time>
      </trkpt>
      <trkpt lat="47.51155" lon="6.77066">
        <ele>376</ele>
        <time>2015-06-24T18:34:20.000Z</time>
      </trkpt>
      <trkpt lat="47.5116" lon="6.7707">
        <ele>377</ele>
        <time>2015-06-24T18:34:21.000Z</time>
      </trkpt>
      <trkpt lat="47.51165" lon="6.77075">
        <ele>377</ele>
        <time>2015-06-24T18:34:22.000Z</time>
      </trkpt>
      <trkpt lat="47.51169" lon="6.7708">
        <ele>378</ele>
        <time>2015-06-24T18:34:23.000Z</time>
      </trkpt>
      <trkpt lat="47.51173" lon="6.77087">
        <ele>378</ele>
        <time>2015-06-24T18:34:24.000Z</time>
      </trkpt>
      <trkpt lat="47.51177" lon="6.77093">
        <ele>378</ele>
        <time>2015-06-24T18:34:25.000Z</time>
      </trkpt>
      <trkpt lat="47.5118" lon="6.77099">
        <ele>378</ele>
        <time>2015-06-24T18:34:26.000Z</time>
      </trkpt>
      <trkpt lat="47.51183" lon="6.77105">
        <ele>378</ele>
        <time>2015-06-24T18:34:27.000Z</time>
      </trkpt>
      <trkpt lat="47.51185" lon="6.77111">
        <ele>378</ele>
        <time>2015-06-24T18:34:28.000Z</time>
      </trkpt>
      <trkpt lat="47.51189" lon="6.77117">
        <ele>378</ele>
        <time>2015-06-24T18:34:29.000Z</time>
      </trkpt>
      <trkpt lat="47.51191" lon="6.77123">
        <ele>378</ele>
        <time>2015-06-24T18:34:30.000Z</time>
      </trkpt>
      <trkpt lat="47.51194" lon="6.77128">
        <ele>378</ele>
        <time>2015-06-24T18:34:31.000Z</time>
      </trkpt>
      <trkpt lat="47.51198" lon="6.77134">
        <ele>378</ele>
        <time>2015-06-24T18:34:32.000Z</time>
      </trkpt>
      <trkpt lat="47.512" lon="6.7714">
        <ele>378</ele>
        <time>2015-06-24T18:34:33.000Z</time>
      </trkpt>
      <trkpt lat="47.51203" lon="6.77145">
        <ele>378</ele>
        <time>2015-06-24T18:34:34.000Z</time>
      </trkpt>
      <trkpt lat="47.51205" lon="6.77151">
        <ele>378</ele>
        <time>2015-06-24T18:34:35.000Z</time>
      </trkpt>
      <trkpt lat="47.51208" lon="6.77156">
        <ele>378</ele>
        <time>2015-06-24T18:34:36.000Z</time>
      </trkpt>
      <trkpt lat="47.5121" lon="6.77161">
        <ele>378</ele>
        <time>2015-06-24T18:34:37.000Z</time>
      </trkpt>
      <trkpt lat="47.51213" lon="6.77166">
        <ele>378</ele>
        <time>2015-06-24T18:34:38.000Z</time>
      </trkpt>
      <trkpt lat="47.51215" lon="6.77173">
        <ele>376</ele>
        <time>2015-06-24T18:34:39.000Z</time>
      </trkpt>
      <trkpt lat="47.51218" lon="6.77179">
        <ele>376</ele>
        <time>2015-06-24T18:34:40.000Z</time>
      </trkpt>
      <trkpt lat="47.5122" lon="6.77184">
        <ele>376</ele>
        <time>2015-06-24T18:34:41.000Z</time>
      </trkpt>
      <trkpt lat="47.51223" lon="6.7719">
        <ele>376</ele>
        <time>2015-06-24T18:34:42.000Z</time>
      </trkpt>
      <trkpt lat="47.51225" lon="6.77195">
        <ele>376</ele>
        <time>2015-06-24T18:34:43.000Z</time>
      </trkpt>
      <trkpt lat="47.51228" lon="6.772">
        <ele>376</ele>
        <time>2015-06-24T18:34:44.000Z</time>
      </trkpt>
      <trkpt lat="47.51231" lon="6.77205">
        <ele>376</ele>
        <time>2015-06-24T18:34:45.000Z</time>
      </trkpt>
      <trkpt lat="47.51234" lon="6.77213">
        <ele>376</ele>
        <time>2015-06-24T18:34:46.000Z</time>
      </trkpt>
      <trkpt lat="47.51237" lon="6.77217">
        <ele>376</ele>
        <time>2015-06-24T18:34:47.000Z</time>
      </trkpt>
      <trkpt lat="47.5124" lon="6.77223">
        <ele>376</ele>
        <time>2015-06-24T18:34:48.000Z</time>
      </trkpt>
      <trkpt lat="47.51242" lon="6.77229">
        <ele>376</ele>
        <time>2015-06-24T18:34:49.000Z</time>
      </trkpt>
      <trkpt lat="47.51245" lon="6.77233">
        <ele>377</ele>
        <time>2015-06-24T18:34:50.000Z</time>
      </trkpt>
      <trkpt lat="47.51248" lon="6.77239">
        <ele>377</ele>
        <time>2015-06-24T18:34:51.000Z</time>
      </trkpt>
      <trkpt lat="47.51253" lon="6.77243">
        <ele>379</ele>
        <time>2015-06-24T18:34:52.000Z</time>
      </trkpt>
      <trkpt lat="47.51257" lon="6.77248">
        <ele>379</ele>
        <time>2015-06-24T18:34:53.000Z</time>
      </trkpt>
      <trkpt lat="47.51261" lon="6.77253">
        <ele>378</ele>
        <time>2015-06-24T18:34:54.000Z</time>
      </trkpt>
      <trkpt lat="47.51264" lon="6.77257">
        <ele>378</ele>
        <time>2015-06-24T18:34:55.000Z</time>
      </trkpt>
      <trkpt lat="47.51268" lon="6.7726">
        <ele>377</ele>
        <time>2015-06-24T18:34:56.000Z</time>
      </trkpt>
      <trkpt lat="47.51272" lon="6.77262">
        <ele>377</ele>
        <time>2015-06-24T18:34:57.000Z</time>
      </trkpt>
      <trkpt lat="47.51276" lon="6.77266">
        <ele>377</ele>
        <time>2015-06-24T18:34:58.000Z</time>
      </trkpt>
      <trkpt lat="47.5128" lon="6.77269">
        <ele>377</ele>
        <time>2015-06-24T18:34:59.000Z</time>
      </trkpt>
      <trkpt lat="47.51287" lon="6.77272">
        <ele>377</ele>
        <time>2015-06-24T18:35:00.000Z</time>
      </trkpt>
      <trkpt lat="47.51292" lon="6.77275">
        <ele>377</ele>
        <time>2015-06-24T18:35:01.000Z</time>
      </trkpt>
      <trkpt lat="47.51297" lon="6.77278">
        <ele>377</ele>
        <time>2015-06-24T18:35:02.000Z</time>
      </trkpt>
      <trkpt lat="47.51301" lon="6.77281">
        <ele>377</ele>
        <time>2015-06-24T18:35:03.000Z</time>
      </trkpt>
      <trkpt lat="47.51306" lon="6.77284">
        <ele>377</ele>
        <time>2015-06-24T18:35:04.000Z</time>
      </trkpt>
      <trkpt lat="47.51312" lon="6.77287">
        <ele>377</ele>
        <time>2015-06-24T18:35:05.000Z</time>
      </trkpt>
      <trkpt lat="47.51318" lon="6.7729">
        <ele>377</ele>
        <time>2015-06-24T18:35:06.000Z</time>
      </trkpt>
      <trkpt lat="47.51324" lon="6.7729">
        <ele>378</ele>
        <time>2015-06-24T18:35:07.000Z</time>
      </trkpt>
      <trkpt lat="47.51331" lon="6.77288">
        <ele>378</ele>
        <time>2015-06-24T18:35:08.000Z</time>
      </trkpt>
      <trkpt lat="47.51337" lon="6.77284">
        <ele>378</ele>
        <time>2015-06-24T18:35:09.000Z</time>
      </trkpt>
      <trkpt lat="47.51344" lon="6.77279">
        <ele>378</ele>
        <time>2015-06-24T18:35:10.000Z</time>
      </trkpt>
      <trkpt lat="47.51351" lon="6.77273">
        <ele>378</ele>
        <time>2015-06-24T18:35:11.000Z</time>
      </trkpt>
      <trkpt lat="47.51358" lon="6.77266">
        <ele>378</ele>
        <time>2015-06-24T18:35:12.000Z</time>
      </trkpt>
      <trkpt lat="47.51366" lon="6.77259">
        <ele>378</ele>
        <time>2015-06-24T18:35:13.000Z</time>
      </trkpt>
      <trkpt lat="47.51375" lon="6.77252">
        <ele>377</ele>
        <time>2015-06-24T18:35:14.000Z</time>
      </trkpt>
      <trkpt lat="47.51383" lon="6.77246">
        <ele>376</ele>
        <time>2015-06-24T18:35:15.000Z</time>
      </trkpt>
      <trkpt lat="47.51393" lon="6.77241">
        <ele>376</ele>
        <time>2015-06-24T18:35:16.000Z</time>
      </trkpt>
      <trkpt lat="47.51401" lon="6.77235">
        <ele>376</ele>
        <time>2015-06-24T18:35:17.000Z</time>
      </trkpt>
      <trkpt lat="47.5141" lon="6.77231">
        <ele>376</ele>
        <time>2015-06-24T18:35:18.000Z</time>
      </trkpt>
      <trkpt lat="47.51418" lon="6.77227">
        <ele>375</ele>
        <time>2015-06-24T18:35:19.000Z</time>
      </trkpt>
      <trkpt lat="47.51427" lon="6.77223">
        <ele>375</ele>
        <time>2015-06-24T18:35:20.000Z</time>
      </trkpt>
      <trkpt lat="47.51436" lon="6.77219">
        <ele>375</ele>
        <time>2015-06-24T18:35:21.000Z</time>
      </trkpt>
      <trkpt lat="47.51444" lon="6.77215">
        <ele>375</ele>
        <time>2015-06-24T18:35:22.000Z</time>
      </trkpt>
      <trkpt lat="47.51451" lon="6.77211">
        <ele>375</ele>
        <time>2015-06-24T18:35:23.000Z</time>
      </trkpt>
      <trkpt lat="47.51459" lon="6.77208">
        <ele>375</ele>
        <time>2015-06-24T18:35:24.000Z</time>
      </trkpt>
      <trkpt lat="47.51465" lon="6.77204">
        <ele>375</ele>
        <time>2015-06-24T18:35:25.000Z</time>
      </trkpt>
      <trkpt lat="47.51471" lon="6.77201">
        <ele>375</ele>
        <time>2015-06-24T18:35:26.000Z</time>
      </trkpt>
      <trkpt lat="47.51477" lon="6.77199">
        <ele>375</ele>
        <time>2015-06-24T18:35:27.000Z</time>
      </trkpt>
      <trkpt lat="47.51479" lon="6.77206">
        <ele>375</ele>
        <time>2015-06-24T18:35:28.000Z</time>
      </trkpt>
      <trkpt lat="47.51481" lon="6.77211">
        <ele>375</ele>
        <time>2015-06-24T18:35:29.000Z</time>
      </trkpt>
      <trkpt lat="47.51482" lon="6.77218">
        <ele>375</ele>
        <time>2015-06-24T18:35:30.000Z</time>
      </trkpt>
      <trkpt lat="47.51481" lon="6.77226">
        <ele>375</ele>
        <time>2015-06-24T18:35:31.000Z</time>
      </trkpt>
      <trkpt lat="47.5148" lon="6.77235">
        <ele>375</ele>
        <time>2015-06-24T18:35:32.000Z</time>
      </trkpt>
      <trkpt lat="47.5148" lon="6.77243">
        <ele>375</ele>
        <time>2015-06-24T18:35:33.000Z</time>
      </trkpt>
      <trkpt lat="47.5148" lon="6.77251">
        <ele>376</ele>
        <time>2015-06-24T18:35:34.000Z</time>
      </trkpt>
      <trkpt lat="47.51481" lon="6.77258">
        <ele>376</ele>
        <time>2015-06-24T18:35:35.000Z</time>
      </trkpt>
      <trkpt lat="47.51481" lon="6.77266">
        <ele>376</ele>
        <time>2015-06-24T18:35:36.000Z</time>
      </trkpt>
      <trkpt lat="47.51482" lon="6.77274">
        <ele>377</ele>
        <time>2015-06-24T18:35:37.000Z</time>
      </trkpt>
      <trkpt lat="47.51481" lon="6.77282">
        <ele>377</ele>
        <time>2015-06-24T18:35:38.000Z</time>
      </trkpt>
      <trkpt lat="47.51482" lon="6.77289">
        <ele>377</ele>
        <time>2015-06-24T18:35:39.000Z</time>
      </trkpt>
      <trkpt lat="47.51482" lon="6.77297">
        <ele>377</ele>
        <time>2015-06-24T18:35:40.000Z</time>
      </trkpt>
      <trkpt lat="47.51483" lon="6.77304">
        <ele>377</ele>
        <time>2015-06-24T18:35:41.000Z</time>
      </trkpt>
      <trkpt lat="47.51486" lon="6.77312">
        <ele>377</ele>
        <time>2015-06-24T18:35:42.000Z</time>
      </trkpt>
      <trkpt lat="47.51492" lon="6.77316">
        <ele>377</ele>
        <time>2015-06-24T18:35:43.000Z</time>
      </trkpt>
      <trkpt lat="47.51497" lon="6.7732">
        <ele>377</ele>
        <time>2015-06-24T18:35:44.000Z</time>
      </trkpt>
      <trkpt lat="47.51501" lon="6.77324">
        <ele>378</ele>
        <time>2015-06-24T18:35:45.000Z</time>
      </trkpt>
      <trkpt lat="47.51505" lon="6.77328">
        <ele>378</ele>
        <time>2015-06-24T18:35:46.000Z</time>
      </trkpt>
      <trkpt lat="47.51508" lon="6.7733">
        <ele>378</ele>
        <time>2015-06-24T18:35:47.000Z</time>
      </trkpt>
      <trkpt lat="47.51512" lon="6.77334">
        <ele>379</ele>
        <time>2015-06-24T18:35:48.000Z</time>
      </trkpt>
      <trkpt lat="47.51515" lon="6.77337">
        <ele>379</ele>
        <time>2015-06-24T18:35:49.000Z</time>
      </trkpt>
      <trkpt lat="47.5152" lon="6.7734">
        <ele>379</ele>
        <time>2015-06-24T18:35:50.000Z</time>
      </trkpt>
      <trkpt lat="47.51523" lon="6.77343">
        <ele>380</ele>
        <time>2015-06-24T18:35:51.000Z</time>
      </trkpt>
      <trkpt lat="47.51525" lon="6.77347">
        <ele>380</ele>
        <time>2015-06-24T18:35:52.000Z</time>
      </trkpt>
      <trkpt lat="47.51528" lon="6.7735">
        <ele>380</ele>
        <time>2015-06-24T18:35:53.000Z</time>
      </trkpt>
      <trkpt lat="47.51531" lon="6.77354">
        <ele>380</ele>
        <time>2015-06-24T18:35:54.000Z</time>
      </trkpt>
      <trkpt lat="47.51534" lon="6.77358">
        <ele>380</ele>
        <time>2015-06-24T18:35:55.000Z</time>
      </trkpt>
      <trkpt lat="47.51537" lon="6.77362">
        <ele>380</ele>
        <time>2015-06-24T18:35:56.000Z</time>
      </trkpt>
      <trkpt lat="47.51539" lon="6.77365">
        <ele>380</ele>
        <time>2015-06-24T18:35:57.000Z</time>
      </trkpt>
      <trkpt lat="47.51542" lon="6.77369">
        <ele>380</ele>
        <time>2015-06-24T18:35:58.000Z</time>
      </trkpt>
      <trkpt lat="47.51545" lon="6.77372">
        <ele>381</ele>
        <time>2015-06-24T18:35:59.000Z</time>
      </trkpt>
      <trkpt lat="47.51549" lon="6.77375">
        <ele>381</ele>
        <time>2015-06-24T18:36:00.000Z</time>
      </trkpt>
      <trkpt lat="47.51552" lon="6.77378">
        <ele>381</ele>
        <time>2015-06-24T18:36:01.000Z</time>
      </trkpt>
      <trkpt lat="47.51555" lon="6.77381">
        <ele>381</ele>
        <time>2015-06-24T18:36:02.000Z</time>
      </trkpt>
      <trkpt lat="47.51558" lon="6.77383">
        <ele>381</ele>
        <time>2015-06-24T18:36:03.000Z</time>
      </trkpt>
      <trkpt lat="47.5156" lon="6.77386">
        <ele>381</ele>
        <time>2015-06-24T18:36:04.000Z</time>
      </trkpt>
      <trkpt lat="47.51563" lon="6.77389">
        <ele>381</ele>
        <time>2015-06-24T18:36:05.000Z</time>
      </trkpt>
      <trkpt lat="47.51566" lon="6.77392">
        <ele>381</ele>
        <time>2015-06-24T18:36:06.000Z</time>
      </trkpt>
      <trkpt lat="47.51568" lon="6.77395">
        <ele>381</ele>
        <time>2015-06-24T18:36:07.000Z</time>
      </trkpt>
      <trkpt lat="47.51571" lon="6.77399">
        <ele>382</ele>
        <time>2015-06-24T18:36:08.000Z</time>
      </trkpt>
      <trkpt lat="47.51573" lon="6.77403">
        <ele>382</ele>
        <time>2015-06-24T18:36:09.000Z</time>
      </trkpt>
      <trkpt lat="47.51576" lon="6.77407">
        <ele>382</ele>
        <time>2015-06-24T18:36:10.000Z</time>
      </trkpt>
      <trkpt lat="47.51579" lon="6.7741">
        <ele>382</ele>
        <time>2015-06-24T18:36:11.000Z</time>
      </trkpt>
      <trkpt lat="47.51582" lon="6.77414">
        <ele>383</ele>
        <time>2015-06-24T18:36:12.000Z</time>
      </trkpt>
      <trkpt lat="47.51584" lon="6.77418">
        <ele>383</ele>
        <time>2015-06-24T18:36:13.000Z</time>
      </trkpt>
      <trkpt lat="47.51587" lon="6.77422">
        <ele>384</ele>
        <time>2015-06-24T18:36:14.000Z</time>
      </trkpt>
      <trkpt lat="47.5159" lon="6.77425">
        <ele>384</ele>
        <time>2015-06-24T18:36:15.000Z</time>
      </trkpt>
      <trkpt lat="47.51592" lon="6.77429">
        <ele>384</ele>
        <time>2015-06-24T18:36:16.000Z</time>
      </trkpt>
      <trkpt lat="47.51595" lon="6.77432">
        <ele>384</ele>
        <time>2015-06-24T18:36:17.000Z</time>
      </trkpt>
      <trkpt lat="47.51598" lon="6.77436">
        <ele>385</ele>
        <time>2015-06-24T18:36:18.000Z</time>
      </trkpt>
      <trkpt lat="47.516" lon="6.77439">
        <ele>385</ele>
        <time>2015-06-24T18:36:19.000Z</time>
      </trkpt>
      <trkpt lat="47.51603" lon="6.77442">
        <ele>385</ele>
        <time>2015-06-24T18:36:20.000Z</time>
      </trkpt>
      <trkpt lat="47.51606" lon="6.77446">
        <ele>385</ele>
        <time>2015-06-24T18:36:21.000Z</time>
      </trkpt>
      <trkpt lat="47.51608" lon="6.77449">
        <ele>385</ele>
        <time>2015-06-24T18:36:22.000Z</time>
      </trkpt>
      <trkpt lat="47.51611" lon="6.77453">
        <ele>385</ele>
        <time>2015-06-24T18:36:23.000Z</time>
      </trkpt>
      <trkpt lat="47.51614" lon="6.77456">
        <ele>385</ele>
        <time>2015-06-24T18:36:24.000Z</time>
      </trkpt>
      <trkpt lat="47.51617" lon="6.7746">
        <ele>386</ele>
        <time>2015-06-24T18:36:25.000Z</time>
      </trkpt>
      <trkpt lat="47.5162" lon="6.77463">
        <ele>386</ele>
        <time>2015-06-24T18:36:26.000Z</time>
      </trkpt>
      <trkpt lat="47.51623" lon="6.77466">
        <ele>386</ele>
        <time>2015-06-24T18:36:27.000Z</time>
      </trkpt>
      <trkpt lat="47.51626" lon="6.7747">
        <ele>386</ele>
        <time>2015-06-24T18:36:28.000Z</time>
      </trkpt>
      <trkpt lat="47.5163" lon="6.77473">
        <ele>386</ele>
        <time>2015-06-24T18:36:29.000Z</time>
      </trkpt>
      <trkpt lat="47.51633" lon="6.77476">
        <ele>386</ele>
        <time>2015-06-24T18:36:30.000Z</time>
      </trkpt>
      <trkpt lat="47.51635" lon="6.7748">
        <ele>386</ele>
        <time>2015-06-24T18:36:31.000Z</time>
      </trkpt>
      <trkpt lat="47.51638" lon="6.77483">
        <ele>387</ele>
        <time>2015-06-24T18:36:32.000Z</time>
      </trkpt>
      <trkpt lat="47.51641" lon="6.77487">
        <ele>387</ele>
        <time>2015-06-24T18:36:33.000Z</time>
      </trkpt>
      <trkpt lat="47.51644" lon="6.7749">
        <ele>387</ele>
        <time>2015-06-24T18:36:34.000Z</time>
      </trkpt>
      <trkpt lat="47.51646" lon="6.77493">
        <ele>387</ele>
        <time>2015-06-24T18:36:35.000Z</time>
      </trkpt>
      <trkpt lat="47.51649" lon="6.77498">
        <ele>387</ele>
        <time>2015-06-24T18:36:36.000Z</time>
      </trkpt>
      <trkpt lat="47.51651" lon="6.77502">
        <ele>388</ele>
        <time>2015-06-24T18:36:37.000Z</time>
      </trkpt>
      <trkpt lat="47.51653" lon="6.77506">
        <ele>388</ele>
        <time>2015-06-24T18:36:38.000Z</time>
      </trkpt>
      <trkpt lat="47.51656" lon="6.7751">
        <ele>388</ele>
        <time>2015-06-24T18:36:39.000Z</time>
      </trkpt>
      <trkpt lat="47.51658" lon="6.77514">
        <ele>388</ele>
        <time>2015-06-24T18:36:40.000Z</time>
      </trkpt>
      <trkpt lat="47.5166" lon="6.77518">
        <ele>388</ele>
        <time>2015-06-24T18:36:41.000Z</time>
      </trkpt>
      <trkpt lat="47.51662" lon="6.77521">
        <ele>388</ele>
        <time>2015-06-24T18:36:42.000Z</time>
      </trkpt>
      <trkpt lat="47.51665" lon="6.77523">
        <ele>388</ele>
        <time>2015-06-24T18:36:43.000Z</time>
      </trkpt>
      <trkpt lat="47.51668" lon="6.77526">
        <ele>390</ele>
        <time>2015-06-24T18:36:44.000Z</time>
      </trkpt>
      <trkpt lat="47.51671" lon="6.77529">
        <ele>390</ele>
        <time>2015-06-24T18:36:45.000Z</time>
      </trkpt>
      <trkpt lat="47.51674" lon="6.77532">
        <ele>390</ele>
        <time>2015-06-24T18:36:46.000Z</time>
      </trkpt>
      <trkpt lat="47.51677" lon="6.77535">
        <ele>390</ele>
        <time>2015-06-24T18:36:47.000Z</time>
      </trkpt>
      <trkpt lat="47.5168" lon="6.77538">
        <ele>390</ele>
        <time>2015-06-24T18:36:48.000Z</time>
      </trkpt>
      <trkpt lat="47.51683" lon="6.77542">
        <ele>390</ele>
        <time>2015-06-24T18:36:49.000Z</time>
      </trkpt>
      <trkpt lat="47.51686" lon="6.77545">
        <ele>390</ele>
        <time>2015-06-24T18:36:50.000Z</time>
      </trkpt>
      <trkpt lat="47.51688" lon="6.77548">
        <ele>390</ele>
        <time>2015-06-24T18:36:51.000Z</time>
      </trkpt>
      <trkpt lat="47.51691" lon="6.77551">
        <ele>390</ele>
        <time>2015-06-24T18:36:52.000Z</time>
      </trkpt>
      <trkpt lat="47.51692" lon="6.77554">
        <ele>390</ele>
        <time>2015-06-24T18:36:53.000Z</time>
      </trkpt>
      <trkpt lat="47.51694" lon="6.77557">
        <ele>390</ele>
        <time>2015-06-24T18:36:54.000Z</time>
      </trkpt>
      <trkpt lat="47.51696" lon="6.77561">
        <ele>390</ele>
        <time>2015-06-24T18:36:56.000Z</time>
      </trkpt>
      <trkpt lat="47.51698" lon="6.77562">
        <ele>390</ele>
        <time>2015-06-24T18:36:57.000Z</time>
      </trkpt>
      <trkpt lat="47.517" lon="6.77562">
        <ele>390</ele>
        <time>2015-06-24T18:36:58.000Z</time>
      </trkpt>
      <trkpt lat="47.51702" lon="6.77561">
        <ele>390</ele>
        <time>2015-06-24T18:36:59.000Z</time>
      </trkpt>
      <trkpt lat="47.51707" lon="6.77559">
        <ele>390</ele>
        <time>2015-06-24T18:37:00.000Z</time>
      </trkpt>
      <trkpt lat="47.51711" lon="6.77557">
        <ele>390</ele>
        <time>2015-06-24T18:37:01.000Z</time>
      </trkpt>
      <trkpt lat="47.51716" lon="6.77554">
        <ele>390</ele>
        <time>2015-06-24T18:37:02.000Z</time>
      </trkpt>
      <trkpt lat="47.51722" lon="6.77538">
        <ele>390</ele>
        <time>2015-06-24T18:37:03.000Z</time>
      </trkpt>
      <trkpt lat="47.51724" lon="6.77531">
        <ele>390</ele>
        <time>2015-06-24T18:37:04.000Z</time>
      </trkpt>
      <trkpt lat="47.51725" lon="6.77522">
        <ele>390</ele>
        <time>2015-06-24T18:37:05.000Z</time>
      </trkpt>
      <trkpt lat="47.51726" lon="6.77515">
        <ele>390</ele>
        <time>2015-06-24T18:37:06.000Z</time>
      </trkpt>
      <trkpt lat="47.51728" lon="6.77507">
        <ele>390</ele>
        <time>2015-06-24T18:37:07.000Z</time>
      </trkpt>
      <trkpt lat="47.51729" lon="6.775">
        <ele>389</ele>
        <time>2015-06-24T18:37:08.000Z</time>
      </trkpt>
      <trkpt lat="47.5173" lon="6.77492">
        <ele>389</ele>
        <time>2015-06-24T18:37:09.000Z</time>
      </trkpt>
      <trkpt lat="47.5173" lon="6.77485">
        <ele>389</ele>
        <time>2015-06-24T18:37:10.000Z</time>
      </trkpt>
      <trkpt lat="47.51736" lon="6.77484">
        <ele>389</ele>
        <time>2015-06-24T18:37:11.000Z</time>
      </trkpt>
      <trkpt lat="47.5174" lon="6.77481">
        <ele>389</ele>
        <time>2015-06-24T18:37:12.000Z</time>
      </trkpt>
      <trkpt lat="47.51744" lon="6.77481">
        <ele>389</ele>
        <time>2015-06-24T18:37:13.000Z</time>
      </trkpt>
      <trkpt lat="47.5175" lon="6.77482">
        <ele>389</ele>
        <time>2015-06-24T18:37:14.000Z</time>
      </trkpt>
      <trkpt lat="47.51755" lon="6.77481">
        <ele>389</ele>
        <time>2015-06-24T18:37:15.000Z</time>
      </trkpt>
      <trkpt lat="47.5176" lon="6.77482">
        <ele>389</ele>
        <time>2015-06-24T18:37:16.000Z</time>
      </trkpt>
      <trkpt lat="47.51765" lon="6.77483">
        <ele>389</ele>
        <time>2015-06-24T18:37:17.000Z</time>
      </trkpt>
      <trkpt lat="47.5177" lon="6.77484">
        <ele>389</ele>
        <time>2015-06-24T18:37:18.000Z</time>
      </trkpt>
      <trkpt lat="47.51775" lon="6.77486">
        <ele>388</ele>
        <time>2015-06-24T18:37:19.000Z</time>
      </trkpt>
      <trkpt lat="47.5178" lon="6.77485">
        <ele>388</ele>
        <time>2015-06-24T18:37:20.000Z</time>
      </trkpt>
      <trkpt lat="47.51785" lon="6.77488">
        <ele>388</ele>
        <time>2015-06-24T18:37:21.000Z</time>
      </trkpt>
      <trkpt lat="47.5179" lon="6.77492">
        <ele>388</ele>
        <time>2015-06-24T18:37:22.000Z</time>
      </trkpt>
      <trkpt lat="47.51795" lon="6.77495">
        <ele>388</ele>
        <time>2015-06-24T18:37:23.000Z</time>
      </trkpt>
      <trkpt lat="47.51801" lon="6.77496">
        <ele>388</ele>
        <time>2015-06-24T18:37:24.000Z</time>
      </trkpt>
      <trkpt lat="47.51805" lon="6.77497">
        <ele>388</ele>
        <time>2015-06-24T18:37:25.000Z</time>
      </trkpt>
      <trkpt lat="47.51809" lon="6.77495">
        <ele>388</ele>
        <time>2015-06-24T18:37:26.000Z</time>
      </trkpt>
      <trkpt lat="47.5181" lon="6.7749">
        <ele>388</ele>
        <time>2015-06-24T18:37:27.000Z</time>
      </trkpt>
      <trkpt lat="47.51809" lon="6.77485">
        <ele>388</ele>
        <time>2015-06-24T18:37:28.000Z</time>
      </trkpt>
      <trkpt lat="47.51806" lon="6.77481">
        <ele>388</ele>
        <time>2015-06-24T18:37:30.000Z</time>
      </trkpt>
      <trkpt lat="47.51803" lon="6.77479">
        <ele>388</ele>
        <time>2015-06-24T18:37:31.000Z</time>
      </trkpt>
      <trkpt lat="47.51804" lon="6.77475">
        <ele>388</ele>
        <time>2015-06-24T18:37:32.000Z</time>
      </trkpt>
      <trkpt lat="47.51802" lon="6.77471">
        <ele>388</ele>
        <time>2015-06-24T18:37:33.000Z</time>
      </trkpt>
      <trkpt lat="47.51801" lon="6.77465">
        <ele>388</ele>
        <time>2015-06-24T18:37:35.000Z</time>
      </trkpt>
      <trkpt lat="47.51799" lon="6.77463">
        <ele>388</ele>
        <time>2015-06-24T18:37:36.000Z</time>
      </trkpt>
      <trkpt lat="47.51798" lon="6.77469">
        <ele>388</ele>
        <time>2015-06-24T18:37:55.000Z</time>
      </trkpt>
      <trkpt lat="47.51798" lon="6.7747">
        <ele>388</ele>
        <time>2015-06-24T18:37:56.000Z</time>
      </trkpt>
      <trkpt lat="47.518" lon="6.77475">
        <ele>388</ele>
        <time>2015-06-24T18:38:01.000Z</time>
      </trkpt>
      <trkpt lat="47.518" lon="6.77476">
        <ele>388</ele>
        <time>2015-06-24T18:38:02.000Z</time>
      </trkpt>
      <trkpt lat="47.51805" lon="6.77475">
        <ele>388</ele>
        <time>2015-06-24T18:38:41.000Z</time>
      </trkpt>
      <trkpt lat="47.51805" lon="6.77475">
        <ele>388</ele>
        <time>2015-06-24T18:38:42.000Z</time>
      </trkpt>
      <trkpt lat="47.51805" lon="6.77478">
        <ele>388</ele>
        <time>2015-06-24T18:42:38.000Z</time>
      </trkpt>
    </trkseg>
  </trk>
</gpx>